<?xml version='1.0' encoding='UTF-8'?><gpx version="1.1" creator="JPX - https://github.com/jenetics/jpx" xmlns="http://www.topografix.com/GPX/1/1"><trk><trkseg><trkpt lat="43.136944603104084" lon="11.48188517621369"><ele>147.0</ele><time>2026-04-11T02:01:03.998Z</time></trkpt><trkpt lat="43.13685513721059" lon="11.48190219010827"><ele>147.0</ele><time>2026-04-11T02:01:07.998Z</time></trkpt><trkpt lat="43.136772001365344" lon="11.481896538626224"><ele>147.0</ele><time>2026-04-11T02:01:09.998Z</time></trkpt><trkpt lat="43.13670587809467" lon="11.481910142147917"><ele>147.0</ele><time>2026-04-11T02:01:11.998Z</time></trkpt><trkpt lat="43.136646253517995" lon="11.481816523740912"><ele>147.0</ele><time>2026-04-11T02:01:14.998Z</time></trkpt><trkpt lat="43.136633453611765" lon="11.481717179154034"><ele>147.0</ele><time>2026-04-11T02:01:16.998Z</time></trkpt><trkpt lat="43.136616431083745" lon="11.481615764182239"><ele>147.0</ele><time>2026-04-11T02:01:18.998Z</time></trkpt><trkpt lat="43.136585336853635" lon="11.481530311055723"><ele>147.0</ele><time>2026-04-11T02:01:20.998Z</time></trkpt><trkpt lat="43.13656699272495" lon="11.481423756963144"><ele>147.0</ele><time>2026-04-11T02:01:22.998Z</time></trkpt><trkpt lat="43.13653817858119" lon="11.481314806858405"><ele>147.0</ele><time>2026-04-11T02:01:24.998Z</time></trkpt><trkpt lat="43.136510731358946" lon="11.481196398881838"><ele>147.0</ele><time>2026-04-11T02:01:26.998Z</time></trkpt><trkpt lat="43.13647846010776" lon="11.481070263709826"><ele>147.0</ele><time>2026-04-11T02:01:28.998Z</time></trkpt><trkpt lat="43.136444080222816" lon="11.48093651415454"><ele>146.66666666666666</ele><time>2026-04-11T02:01:30.998Z</time></trkpt><trkpt lat="43.136432967539776" lon="11.480773249388932"><ele>146.33333333333334</ele><time>2026-04-11T02:01:32.998Z</time></trkpt><trkpt lat="43.136410831603754" lon="11.480687559407384"><ele>146.0</ele><time>2026-04-11T02:01:33.998Z</time></trkpt><trkpt lat="43.13638880892109" lon="11.480603770770264"><ele>145.66666666666669</ele><time>2026-04-11T02:01:34.998Z</time></trkpt><trkpt lat="43.136367762909195" lon="11.48051978913369"><ele>145.33333333333334</ele><time>2026-04-11T02:01:35.998Z</time></trkpt><trkpt lat="43.13632159393921" lon="11.480444474000588"><ele>145.0</ele><time>2026-04-11T02:01:36.998Z</time></trkpt><trkpt lat="43.136299982885916" lon="11.480362009784535"><ele>144.8</ele><time>2026-04-11T02:01:37.998Z</time></trkpt><trkpt lat="43.136254271217396" lon="11.480206142996133"><ele>144.6</ele><time>2026-04-11T02:01:39.998Z</time></trkpt><trkpt lat="43.13622331144932" lon="11.480091876026144"><ele>144.4</ele><time>2026-04-11T02:01:41.998Z</time></trkpt><trkpt lat="43.136227842967415" lon="11.479969793077451"><ele>144.2</ele><time>2026-04-11T02:01:43.998Z</time></trkpt><trkpt lat="43.136170023495886" lon="11.47986870028014"><ele>144.0</ele><time>2026-04-11T02:01:45.998Z</time></trkpt><trkpt lat="43.1361482106757" lon="11.479743657242771"><ele>144.0</ele><time>2026-04-11T02:01:47.998Z</time></trkpt><trkpt lat="43.13611762597191" lon="11.479621619857149"><ele>144.0</ele><time>2026-04-11T02:01:49.997Z</time></trkpt><trkpt lat="43.13608565911148" lon="11.479501717201257"><ele>144.0</ele><time>2026-04-11T02:01:51.997Z</time></trkpt><trkpt lat="43.13605734850781" lon="11.479367923596056"><ele>144.0</ele><time>2026-04-11T02:01:54Z</time></trkpt><trkpt lat="43.13604399875111" lon="11.479234000553163"><ele>144.0</ele><time>2026-04-11T02:01:56Z</time></trkpt><trkpt lat="43.136013236440654" lon="11.479103101618202"><ele>144.0</ele><time>2026-04-11T02:01:58Z</time></trkpt><trkpt lat="43.13598154509584" lon="11.478968249484268"><ele>144.0</ele><time>2026-04-11T02:02:00Z</time></trkpt><trkpt lat="43.135950889135124" lon="11.478837803087588"><ele>144.0</ele><time>2026-04-11T02:02:02Z</time></trkpt><trkpt lat="43.13591947663899" lon="11.478704137499964"><ele>144.0</ele><time>2026-04-11T02:02:04Z</time></trkpt><trkpt lat="43.13588907981544" lon="11.478566237411732"><ele>144.0</ele><time>2026-04-11T02:02:06Z</time></trkpt><trkpt lat="43.13585977167541" lon="11.478426560009158"><ele>144.2</ele><time>2026-04-11T02:02:08Z</time></trkpt><trkpt lat="43.13583050057688" lon="11.478287059143552"><ele>144.4</ele><time>2026-04-11T02:02:10Z</time></trkpt><trkpt lat="43.13580030070786" lon="11.478143131918689"><ele>144.6</ele><time>2026-04-11T02:02:12Z</time></trkpt><trkpt lat="43.13576906769343" lon="11.47799469124466"><ele>144.8</ele><time>2026-04-11T02:02:14Z</time></trkpt><trkpt lat="43.13573700024831" lon="11.477842364984332"><ele>145.0</ele><time>2026-04-11T02:02:16Z</time></trkpt><trkpt lat="43.135703793727394" lon="11.477684627903441"><ele>144.5</ele><time>2026-04-11T02:02:17.999Z</time></trkpt><trkpt lat="43.13566933355883" lon="11.477520935767112"><ele>144.0</ele><time>2026-04-11T02:02:19.999Z</time></trkpt><trkpt lat="43.135636517878716" lon="11.477443460110216"><ele>143.5</ele><time>2026-04-11T02:02:20.999Z</time></trkpt><trkpt lat="43.135618309170106" lon="11.477359359196294"><ele>143.0</ele><time>2026-04-11T02:02:21.999Z</time></trkpt><trkpt lat="43.135616643827944" lon="11.47726892537696"><ele>142.5</ele><time>2026-04-11T02:02:22.999Z</time></trkpt><trkpt lat="43.13559885909014" lon="11.477183724073585"><ele>142.0</ele><time>2026-04-11T02:02:23.999Z</time></trkpt><trkpt lat="43.135564751705445" lon="11.477020325904315"><ele>141.5</ele><time>2026-04-11T02:02:25.999Z</time></trkpt><trkpt lat="43.13553124566891" lon="11.476862110199619"><ele>141.0</ele><time>2026-04-11T02:02:27.999Z</time></trkpt><trkpt lat="43.13549789503905" lon="11.47671253441581"><ele>140.5</ele><time>2026-04-11T02:02:29.999Z</time></trkpt><trkpt lat="43.135465913278246" lon="11.476569097938167"><ele>140.0</ele><time>2026-04-11T02:02:31.999Z</time></trkpt><trkpt lat="43.13543376303351" lon="11.476426747869942"><ele>140.0</ele><time>2026-04-11T02:02:33.999Z</time></trkpt><trkpt lat="43.135399067667635" lon="11.476281338643702"><ele>140.0</ele><time>2026-04-11T02:02:35.999Z</time></trkpt><trkpt lat="43.13536226295606" lon="11.476143170133927"><ele>140.0</ele><time>2026-04-11T02:02:37.999Z</time></trkpt><trkpt lat="43.13532344556102" lon="11.475997694706987"><ele>140.0</ele><time>2026-04-11T02:02:39.999Z</time></trkpt><trkpt lat="43.135284462027386" lon="11.475853460610285"><ele>140.0</ele><time>2026-04-11T02:02:41.999Z</time></trkpt><trkpt lat="43.135244914648474" lon="11.475707250698802"><ele>139.66666666666666</ele><time>2026-04-11T02:02:43.999Z</time></trkpt><trkpt lat="43.135202154527065" lon="11.475550026364814"><ele>139.33333333333331</ele><time>2026-04-11T02:02:45.999Z</time></trkpt><trkpt lat="43.13516004794988" lon="11.475390955522737"><ele>139.0</ele><time>2026-04-11T02:02:47.999Z</time></trkpt><trkpt lat="43.135138963197576" lon="11.475308501646287"><ele>138.66666666666666</ele><time>2026-04-11T02:02:48.999Z</time></trkpt><trkpt lat="43.135119674952726" lon="11.475225335848021"><ele>138.33333333333334</ele><time>2026-04-11T02:02:49.999Z</time></trkpt><trkpt lat="43.135102021230004" lon="11.47514003912359"><ele>138.0</ele><time>2026-04-11T02:02:50.999Z</time></trkpt><trkpt lat="43.13508478287952" lon="11.475052390605699"><ele>138.0</ele><time>2026-04-11T02:02:51.999Z</time></trkpt><trkpt lat="43.13506796184032" lon="11.474966863911995"><ele>138.0</ele><time>2026-04-11T02:02:52.999Z</time></trkpt><trkpt lat="43.135050929931595" lon="11.474880265053791"><ele>138.0</ele><time>2026-04-11T02:02:53.999Z</time></trkpt><trkpt lat="43.13503392885148" lon="11.474793822942589"><ele>138.0</ele><time>2026-04-11T02:02:54.999Z</time></trkpt><trkpt lat="43.13501723269817" lon="11.474708498328958"><ele>138.0</ele><time>2026-04-11T02:02:55.999Z</time></trkpt><trkpt lat="43.13500101087648" lon="11.474624807910642"><ele>138.0</ele><time>2026-04-11T02:02:56.999Z</time></trkpt><trkpt lat="43.134984785932254" lon="11.474539314769169"><ele>138.0</ele><time>2026-04-11T02:02:57.999Z</time></trkpt><trkpt lat="43.13496888447459" lon="11.474455526154475"><ele>138.0</ele><time>2026-04-11T02:02:58.999Z</time></trkpt><trkpt lat="43.13495286061591" lon="11.47437109258021"><ele>138.0</ele><time>2026-04-11T02:02:59.999Z</time></trkpt><trkpt lat="43.134921829789675" lon="11.474207583674332"><ele>138.0</ele><time>2026-04-11T02:03:01.999Z</time></trkpt><trkpt lat="43.13489088086009" lon="11.47404450630302"><ele>138.0</ele><time>2026-04-11T02:03:03.999Z</time></trkpt><trkpt lat="43.13484790122436" lon="11.473892705518198"><ele>138.0</ele><time>2026-04-11T02:03:05.999Z</time></trkpt><trkpt lat="43.134819561179576" lon="11.473737813882646"><ele>138.0</ele><time>2026-04-11T02:03:07.998Z</time></trkpt><trkpt lat="43.13478793932472" lon="11.47358414873867"><ele>138.0</ele><time>2026-04-11T02:03:09.998Z</time></trkpt><trkpt lat="43.13475793452649" lon="11.473427638586406"><ele>138.0</ele><time>2026-04-11T02:03:11.998Z</time></trkpt><trkpt lat="43.13473169270063" lon="11.473271239178466"><ele>138.0</ele><time>2026-04-11T02:03:13.998Z</time></trkpt><trkpt lat="43.134699342104085" lon="11.473113810555478"><ele>138.0</ele><time>2026-04-11T02:03:15.998Z</time></trkpt><trkpt lat="43.13466902641637" lon="11.472953479485787"><ele>138.0</ele><time>2026-04-11T02:03:17.998Z</time></trkpt><trkpt lat="43.13465295061783" lon="11.47279079449467"><ele>138.0</ele><time>2026-04-11T02:03:19.998Z</time></trkpt><trkpt lat="43.134607032456444" lon="11.472635575034206"><ele>138.0</ele><time>2026-04-11T02:03:21.998Z</time></trkpt><trkpt lat="43.13459209943692" lon="11.472469240949023"><ele>138.0</ele><time>2026-04-11T02:03:23.998Z</time></trkpt><trkpt lat="43.13456196926342" lon="11.47230978099999"><ele>138.0</ele><time>2026-04-11T02:03:25.998Z</time></trkpt><trkpt lat="43.13453163206583" lon="11.472151300208186"><ele>138.0</ele><time>2026-04-11T02:03:27.998Z</time></trkpt><trkpt lat="43.1345006593983" lon="11.471990214525935"><ele>138.0</ele><time>2026-04-11T02:03:29.998Z</time></trkpt><trkpt lat="43.13446971854869" lon="11.471829294328208"><ele>138.0</ele><time>2026-04-11T02:03:31.998Z</time></trkpt><trkpt lat="43.1344395936835" lon="11.471672618041975"><ele>138.0</ele><time>2026-04-11T02:03:33.998Z</time></trkpt><trkpt lat="43.13440996069084" lon="11.471518499710786"><ele>138.0</ele><time>2026-04-11T02:03:35.998Z</time></trkpt><trkpt lat="43.13437267847121" lon="11.471385977378663"><ele>138.0</ele><time>2026-04-11T02:03:37.998Z</time></trkpt><trkpt lat="43.13442695195435" lon="11.471276600150764"><ele>138.0</ele><time>2026-04-11T02:03:39.998Z</time></trkpt><trkpt lat="43.13449689454142" lon="11.471298529075936"><ele>138.4</ele><time>2026-04-11T02:03:40.998Z</time></trkpt><trkpt lat="43.134600389801776" lon="11.471242484555457"><ele>138.8</ele><time>2026-04-11T02:03:42.998Z</time></trkpt><trkpt lat="43.13469832034999" lon="11.4711894534229"><ele>139.2</ele><time>2026-04-11T02:03:44.998Z</time></trkpt><trkpt lat="43.13479665896346" lon="11.471136201316883"><ele>139.6</ele><time>2026-04-11T02:03:46.998Z</time></trkpt><trkpt lat="43.13489868359395" lon="11.47107995921186"><ele>140.0</ele><time>2026-04-11T02:03:48.998Z</time></trkpt><trkpt lat="43.134997809689594" lon="11.47102454479518"><ele>140.0</ele><time>2026-04-11T02:03:50.998Z</time></trkpt><trkpt lat="43.13509609296296" lon="11.470969601540194"><ele>140.0</ele><time>2026-04-11T02:03:52.998Z</time></trkpt><trkpt lat="43.13519322723255" lon="11.470915300611692"><ele>140.0</ele><time>2026-04-11T02:03:54.998Z</time></trkpt><trkpt lat="43.1352916496006" lon="11.470860279598298"><ele>140.0</ele><time>2026-04-11T02:03:56.998Z</time></trkpt><trkpt lat="43.135393834138796" lon="11.47080315542113"><ele>140.0</ele><time>2026-04-11T02:03:58.998Z</time></trkpt><trkpt lat="43.135496140595215" lon="11.470745555977151"><ele>140.0</ele><time>2026-04-11T02:04:01Z</time></trkpt><trkpt lat="43.13559495207156" lon="11.47068973276712"><ele>140.0</ele><time>2026-04-11T02:04:03Z</time></trkpt><trkpt lat="43.135689689866474" lon="11.470636210970508"><ele>140.0</ele><time>2026-04-11T02:04:05Z</time></trkpt><trkpt lat="43.13577840142282" lon="11.470561616544485"><ele>140.0</ele><time>2026-04-11T02:04:07Z</time></trkpt><trkpt lat="43.13588114759334" lon="11.470528047574472"><ele>140.0</ele><time>2026-04-11T02:04:09Z</time></trkpt><trkpt lat="43.135980033148144" lon="11.470472182514987"><ele>140.2</ele><time>2026-04-11T02:04:11Z</time></trkpt><trkpt lat="43.13607974199308" lon="11.470415852340722"><ele>140.4</ele><time>2026-04-11T02:04:13Z</time></trkpt><trkpt lat="43.13618047667092" lon="11.47035979781109"><ele>140.6</ele><time>2026-04-11T02:04:15Z</time></trkpt><trkpt lat="43.13627754382389" lon="11.470306013982565"><ele>140.8</ele><time>2026-04-11T02:04:17Z</time></trkpt><trkpt lat="43.13637100482527" lon="11.470254228282418"><ele>141.0</ele><time>2026-04-11T02:04:19Z</time></trkpt><trkpt lat="43.13647470488285" lon="11.470196769232764"><ele>140.8</ele><time>2026-04-11T02:04:22Z</time></trkpt><trkpt lat="43.136579753639346" lon="11.470138562886538"><ele>140.6</ele><time>2026-04-11T02:04:23.999Z</time></trkpt><trkpt lat="43.13666175093617" lon="11.470093129098476"><ele>140.4</ele><time>2026-04-11T02:04:25.999Z</time></trkpt><trkpt lat="43.13675213737324" lon="11.470043046977702"><ele>140.2</ele><time>2026-04-11T02:04:27.999Z</time></trkpt><trkpt lat="43.13683523437904" lon="11.469963047298156"><ele>140.0</ele><time>2026-04-11T02:04:29.999Z</time></trkpt><trkpt lat="43.136928489928515" lon="11.469920668385189"><ele>140.0</ele><time>2026-04-11T02:04:31.999Z</time></trkpt><trkpt lat="43.1370165469875" lon="11.469869392963576"><ele>140.0</ele><time>2026-04-11T02:04:33.999Z</time></trkpt><trkpt lat="43.13710136610525" lon="11.46981342982898"><ele>140.0</ele><time>2026-04-11T02:04:35.999Z</time></trkpt><trkpt lat="43.13718668628221" lon="11.469759902146915"><ele>140.0</ele><time>2026-04-11T02:04:37.999Z</time></trkpt><trkpt lat="43.137271563370376" lon="11.46970776654878"><ele>140.0</ele><time>2026-04-11T02:04:39.999Z</time></trkpt><trkpt lat="43.137358575964306" lon="11.469649110811108"><ele>140.2</ele><time>2026-04-11T02:04:41.999Z</time></trkpt><trkpt lat="43.13744046156369" lon="11.469580614270004"><ele>140.4</ele><time>2026-04-11T02:04:43.999Z</time></trkpt><trkpt lat="43.13751919603209" lon="11.469506360108534"><ele>140.6</ele><time>2026-04-11T02:04:45.999Z</time></trkpt><trkpt lat="43.13759668819769" lon="11.469435265459614"><ele>140.8</ele><time>2026-04-11T02:04:47.999Z</time></trkpt><trkpt lat="43.137671696542064" lon="11.469364232964947"><ele>141.0</ele><time>2026-04-11T02:04:49.999Z</time></trkpt><trkpt lat="43.137748395131084" lon="11.469292204517462"><ele>141.0</ele><time>2026-04-11T02:04:51.999Z</time></trkpt><trkpt lat="43.13781180144361" lon="11.469231827221373"><ele>141.0</ele><time>2026-04-11T02:04:54.999Z</time></trkpt><trkpt lat="43.13790581902424" lon="11.469137339035033"><ele>141.0</ele><time>2026-04-11T02:04:55.999Z</time></trkpt><trkpt lat="43.137981998247554" lon="11.469064677577727"><ele>141.0</ele><time>2026-04-11T02:04:57.999Z</time></trkpt><trkpt lat="43.138055026205066" lon="11.468994818771252"><ele>141.0</ele><time>2026-04-11T02:04:59.999Z</time></trkpt><trkpt lat="43.13812883394288" lon="11.468923136310925"><ele>141.0</ele><time>2026-04-11T02:05:01.999Z</time></trkpt><trkpt lat="43.1382054017562" lon="11.468848537119728"><ele>141.0</ele><time>2026-04-11T02:05:03.999Z</time></trkpt><trkpt lat="43.138274153037145" lon="11.468756184331642"><ele>141.0</ele><time>2026-04-11T02:05:05.999Z</time></trkpt><trkpt lat="43.13835355096106" lon="11.468687220114758"><ele>141.0</ele><time>2026-04-11T02:05:07.999Z</time></trkpt><trkpt lat="43.13843044751876" lon="11.468614120803473"><ele>141.0</ele><time>2026-04-11T02:05:09.999Z</time></trkpt><trkpt lat="43.13849913162994" lon="11.46853996420482"><ele>140.85714285714286</ele><time>2026-04-11T02:05:11.998Z</time></trkpt><trkpt lat="43.13855960401196" lon="11.468476368036903"><ele>140.71428571428572</ele><time>2026-04-11T02:05:13.998Z</time></trkpt><trkpt lat="43.138620288459876" lon="11.468409527145138"><ele>140.57142857142856</ele><time>2026-04-11T02:05:42.998Z</time></trkpt><trkpt lat="43.13867537728853" lon="11.468338718344913"><ele>140.42857142857144</ele><time>2026-04-11T02:05:45.998Z</time></trkpt><trkpt lat="43.138731445775846" lon="11.468282686185777"><ele>140.28571428571428</ele><time>2026-04-11T02:05:47.998Z</time></trkpt><trkpt lat="43.13878795238698" lon="11.468229372009922"><ele>140.14285714285714</ele><time>2026-04-11T02:05:49.998Z</time></trkpt><trkpt lat="43.138843645235426" lon="11.468165900288591"><ele>140.0</ele><time>2026-04-11T02:05:51.998Z</time></trkpt><trkpt lat="43.138897859579984" lon="11.468101023671597"><ele>140.0</ele><time>2026-04-11T02:05:53.998Z</time></trkpt><trkpt lat="43.138951539084744" lon="11.468042054805885"><ele>140.0</ele><time>2026-04-11T02:05:55.998Z</time></trkpt><trkpt lat="43.139020320475545" lon="11.467970228923718"><ele>140.0</ele><time>2026-04-11T02:05:57.998Z</time></trkpt><trkpt lat="43.13909344514501" lon="11.467893565655128"><ele>140.0</ele><time>2026-04-11T02:05:59.998Z</time></trkpt><trkpt lat="43.139167278600645" lon="11.467812547434436"><ele>140.0</ele><time>2026-04-11T02:06:01.998Z</time></trkpt><trkpt lat="43.1392397286498" lon="11.467733479240803"><ele>140.0</ele><time>2026-04-11T02:06:03.997Z</time></trkpt><trkpt lat="43.13931628061776" lon="11.467656718593508"><ele>140.4</ele><time>2026-04-11T02:06:06Z</time></trkpt><trkpt lat="43.13939573895163" lon="11.467575234619678"><ele>140.8</ele><time>2026-04-11T02:06:08Z</time></trkpt><trkpt lat="43.13947474334938" lon="11.467489929764769"><ele>141.2</ele><time>2026-04-11T02:06:10Z</time></trkpt><trkpt lat="43.13955376935027" lon="11.46741401524154"><ele>141.6</ele><time>2026-04-11T02:06:12Z</time></trkpt><trkpt lat="43.13963459375954" lon="11.467330307469874"><ele>142.0</ele><time>2026-04-11T02:06:14Z</time></trkpt><trkpt lat="43.139714280495774" lon="11.467243219422343"><ele>142.0</ele><time>2026-04-11T02:06:16Z</time></trkpt><trkpt lat="43.13979784610492" lon="11.46716179965017"><ele>142.0</ele><time>2026-04-11T02:06:18Z</time></trkpt><trkpt lat="43.13987781422476" lon="11.467073373678165"><ele>142.0</ele><time>2026-04-11T02:06:20Z</time></trkpt><trkpt lat="43.13995962084079" lon="11.46698588608897"><ele>142.0</ele><time>2026-04-11T02:06:22Z</time></trkpt><trkpt lat="43.14004066589702" lon="11.466899042421396"><ele>142.0</ele><time>2026-04-11T02:06:24Z</time></trkpt><trkpt lat="43.14012365830554" lon="11.466813564826886"><ele>142.4</ele><time>2026-04-11T02:06:26Z</time></trkpt><trkpt lat="43.1402050597739" lon="11.466727725163608"><ele>142.79999999999998</ele><time>2026-04-11T02:06:28Z</time></trkpt><trkpt lat="43.140284769085056" lon="11.466639941336071"><ele>143.2</ele><time>2026-04-11T02:06:29.999Z</time></trkpt><trkpt lat="43.14036854478617" lon="11.466552969399194"><ele>143.6</ele><time>2026-04-11T02:06:31.999Z</time></trkpt><trkpt lat="43.14045228519613" lon="11.466466900900556"><ele>144.0</ele><time>2026-04-11T02:06:33.999Z</time></trkpt><trkpt lat="43.140535458963214" lon="11.466378381386797"><ele>144.0</ele><time>2026-04-11T02:06:35.999Z</time></trkpt><trkpt lat="43.140616206373004" lon="11.466290087323623"><ele>144.0</ele><time>2026-04-11T02:06:37.999Z</time></trkpt><trkpt lat="43.140700582840054" lon="11.466201597482772"><ele>144.0</ele><time>2026-04-11T02:06:39.999Z</time></trkpt><trkpt lat="43.14078717806032" lon="11.466117171752725"><ele>144.0</ele><time>2026-04-11T02:06:41.999Z</time></trkpt><trkpt lat="43.14086879381649" lon="11.46602794013078"><ele>144.0</ele><time>2026-04-11T02:06:43.999Z</time></trkpt><trkpt lat="43.14095155457338" lon="11.465943495141564"><ele>143.8</ele><time>2026-04-11T02:06:45.999Z</time></trkpt><trkpt lat="43.14103165789382" lon="11.465858429722132"><ele>143.60000000000002</ele><time>2026-04-11T02:06:47.999Z</time></trkpt><trkpt lat="43.141114909078794" lon="11.465775924690368"><ele>143.4</ele><time>2026-04-11T02:06:49.999Z</time></trkpt><trkpt lat="43.14119565310742" lon="11.465686175548788"><ele>143.20000000000002</ele><time>2026-04-11T02:06:51.999Z</time></trkpt><trkpt lat="43.14127376321988" lon="11.46561548805252"><ele>143.0</ele><time>2026-04-11T02:06:53.999Z</time></trkpt><trkpt lat="43.1413563408677" lon="11.465520189878873"><ele>143.20000000000002</ele><time>2026-04-11T02:06:55.999Z</time></trkpt><trkpt lat="43.141457970538035" lon="11.465443320935565"><ele>143.4</ele><time>2026-04-11T02:06:57.999Z</time></trkpt><trkpt lat="43.14154720592601" lon="11.465352399016558"><ele>143.60000000000002</ele><time>2026-04-11T02:06:59.999Z</time></trkpt><trkpt lat="43.141634011223736" lon="11.46526373479725"><ele>143.8</ele><time>2026-04-11T02:07:01.999Z</time></trkpt><trkpt lat="43.14172127435132" lon="11.465173165615825"><ele>144.0</ele><time>2026-04-11T02:07:03.999Z</time></trkpt><trkpt lat="43.141807469986254" lon="11.465083704290388"><ele>144.2</ele><time>2026-04-11T02:07:05.999Z</time></trkpt><trkpt lat="43.141896281696845" lon="11.464991527776482"><ele>144.4</ele><time>2026-04-11T02:07:07.999Z</time></trkpt><trkpt lat="43.141983396337565" lon="11.464901112642437"><ele>144.6</ele><time>2026-04-11T02:07:09.999Z</time></trkpt><trkpt lat="43.14206875374771" lon="11.46481201239208"><ele>144.8</ele><time>2026-04-11T02:07:11.999Z</time></trkpt><trkpt lat="43.142155616550745" lon="11.464721239076077"><ele>145.0</ele><time>2026-04-11T02:07:13.999Z</time></trkpt><trkpt lat="43.142241685239476" lon="11.464631295587035"><ele>145.2</ele><time>2026-04-11T02:07:15.999Z</time></trkpt><trkpt lat="43.142325820478405" lon="11.46454380903068"><ele>145.4</ele><time>2026-04-11T02:07:17.999Z</time></trkpt><trkpt lat="43.14241010678857" lon="11.4644581336889"><ele>145.6</ele><time>2026-04-11T02:07:19.998Z</time></trkpt><trkpt lat="43.142491248426616" lon="11.46437270153238"><ele>145.8</ele><time>2026-04-11T02:07:21.998Z</time></trkpt><trkpt lat="43.14254937846793" lon="11.464302494845427"><ele>146.0</ele><time>2026-04-11T02:07:23.998Z</time></trkpt><trkpt lat="43.142632314362395" lon="11.464180803641089"><ele>146.0</ele><time>2026-04-11T02:07:25.998Z</time></trkpt><trkpt lat="43.14269759775464" lon="11.46408195017124"><ele>146.0</ele><time>2026-04-11T02:07:27.998Z</time></trkpt><trkpt lat="43.14273090123512" lon="11.463947038424047"><ele>146.0</ele><time>2026-04-11T02:07:29.998Z</time></trkpt><trkpt lat="43.142783233907984" lon="11.463834878522281"><ele>146.0</ele><time>2026-04-11T02:07:31.998Z</time></trkpt><trkpt lat="43.14284660150397" lon="11.463732280453327"><ele>146.0</ele><time>2026-04-11T02:07:33.998Z</time></trkpt><trkpt lat="43.14289596195258" lon="11.463620068949304"><ele>146.16666666666666</ele><time>2026-04-11T02:07:35.998Z</time></trkpt><trkpt lat="43.14294155874066" lon="11.46351099819402"><ele>146.33333333333331</ele><time>2026-04-11T02:07:37.998Z</time></trkpt><trkpt lat="43.14296619825357" lon="11.463389824623855"><ele>146.5</ele><time>2026-04-11T02:07:39.998Z</time></trkpt><trkpt lat="43.14300932065158" lon="11.463286637092464"><ele>146.66666666666666</ele><time>2026-04-11T02:07:41.998Z</time></trkpt><trkpt lat="43.14304963083744" lon="11.463183612684588"><ele>146.83333333333334</ele><time>2026-04-11T02:07:43.998Z</time></trkpt><trkpt lat="43.14309196613291" lon="11.46307685501414"><ele>147.0</ele><time>2026-04-11T02:07:45.998Z</time></trkpt><trkpt lat="43.14312948536051" lon="11.462975075088812"><ele>147.0</ele><time>2026-04-11T02:07:47.998Z</time></trkpt><trkpt lat="43.14317038925854" lon="11.462868324961313"><ele>147.0</ele><time>2026-04-11T02:07:49.998Z</time></trkpt><trkpt lat="43.14321342009279" lon="11.462762049359426"><ele>147.0</ele><time>2026-04-11T02:07:51.998Z</time></trkpt><trkpt lat="43.14325360966115" lon="11.46265521258984"><ele>147.0</ele><time>2026-04-11T02:07:53.998Z</time></trkpt><trkpt lat="43.14329879160451" lon="11.462552226599882"><ele>147.0</ele><time>2026-04-11T02:07:55.998Z</time></trkpt><trkpt lat="43.143345589390215" lon="11.462447070953633"><ele>147.0</ele><time>2026-04-11T02:07:57.998Z</time></trkpt><trkpt lat="43.14338708221959" lon="11.462338688499365"><ele>147.5</ele><time>2026-04-11T02:07:59.998Z</time></trkpt><trkpt lat="43.14343417972572" lon="11.46223583775975"><ele>148.0</ele><time>2026-04-11T02:08:01.998Z</time></trkpt><trkpt lat="43.143482366783786" lon="11.46213949807166"><ele>148.5</ele><time>2026-04-11T02:08:03.998Z</time></trkpt><trkpt lat="43.143524900315406" lon="11.462066270200141"><ele>149.0</ele><time>2026-04-11T02:08:05.998Z</time></trkpt><trkpt lat="43.14358736277547" lon="11.461977184774755"><ele>149.5</ele><time>2026-04-11T02:08:07.998Z</time></trkpt><trkpt lat="43.143652453215154" lon="11.46189711918172"><ele>150.0</ele><time>2026-04-11T02:08:09.998Z</time></trkpt><trkpt lat="43.14370236266987" lon="11.461840578243557"><ele>150.0</ele><time>2026-04-11T02:08:12Z</time></trkpt><trkpt lat="43.143779085635856" lon="11.461769491148129"><ele>150.0</ele><time>2026-04-11T02:08:14Z</time></trkpt><trkpt lat="43.14387919114065" lon="11.461698389092449"><ele>150.0</ele><time>2026-04-11T02:08:17Z</time></trkpt><trkpt lat="43.14396532532571" lon="11.461618783837267"><ele>150.0</ele><time>2026-04-11T02:08:19Z</time></trkpt><trkpt lat="43.14404369398874" lon="11.461578095665732"><ele>150.0</ele><time>2026-04-11T02:08:21Z</time></trkpt><trkpt lat="43.144115465750176" lon="11.461528683792242"><ele>150.85714285714283</ele><time>2026-04-11T02:08:23Z</time></trkpt><trkpt lat="43.1441874897971" lon="11.461492607660578"><ele>151.71428571428572</ele><time>2026-04-11T02:08:25Z</time></trkpt><trkpt lat="43.14425964217192" lon="11.461459118387545"><ele>152.57142857142856</ele><time>2026-04-11T02:08:27Z</time></trkpt><trkpt lat="43.14432774120575" lon="11.461427481139717"><ele>153.42857142857142</ele><time>2026-04-11T02:08:29Z</time></trkpt><trkpt lat="43.1443929925183" lon="11.461395098499036"><ele>154.28571428571428</ele><time>2026-04-11T02:08:31Z</time></trkpt><trkpt lat="43.14446073368696" lon="11.461358750197228"><ele>155.14285714285714</ele><time>2026-04-11T02:08:33Z</time></trkpt><trkpt lat="43.144529657882" lon="11.461328713180414"><ele>156.0</ele><time>2026-04-11T02:08:35Z</time></trkpt><trkpt lat="43.14460477740665" lon="11.46130244331833"><ele>156.16666666666666</ele><time>2026-04-11T02:08:36.999Z</time></trkpt><trkpt lat="43.14467389513947" lon="11.461256138153496"><ele>156.33333333333334</ele><time>2026-04-11T02:08:39.999Z</time></trkpt><trkpt lat="43.1447379161195" lon="11.461226581789838"><ele>156.5</ele><time>2026-04-11T02:08:41.999Z</time></trkpt><trkpt lat="43.144799695165645" lon="11.461195467466233"><ele>156.66666666666669</ele><time>2026-04-11T02:08:43.999Z</time></trkpt><trkpt lat="43.144902876565176" lon="11.461141972850156"><ele>156.83333333333334</ele><time>2026-04-11T02:08:45.999Z</time></trkpt><trkpt lat="43.14496658050873" lon="11.461103536806613"><ele>157.0</ele><time>2026-04-11T02:08:47.999Z</time></trkpt><trkpt lat="43.1450297563754" lon="11.461050020202048"><ele>157.7142857142857</ele><time>2026-04-11T02:08:49.999Z</time></trkpt><trkpt lat="43.14509839776615" lon="11.460998431327146"><ele>158.42857142857142</ele><time>2026-04-11T02:08:51.999Z</time></trkpt><trkpt lat="43.145162711417186" lon="11.460942980414858"><ele>159.14285714285714</ele><time>2026-04-11T02:08:53.999Z</time></trkpt><trkpt lat="43.14522328704625" lon="11.460891582454087"><ele>159.85714285714283</ele><time>2026-04-11T02:08:55.999Z</time></trkpt><trkpt lat="43.145280556595296" lon="11.460837613257377"><ele>160.57142857142856</ele><time>2026-04-11T02:08:57.999Z</time></trkpt><trkpt lat="43.145343122047535" lon="11.46080748968775"><ele>161.28571428571428</ele><time>2026-04-11T02:08:59.999Z</time></trkpt><trkpt lat="43.14540883503967" lon="11.460788615255302"><ele>162.0</ele><time>2026-04-11T02:09:01.999Z</time></trkpt><trkpt lat="43.145486593148675" lon="11.460793927640353"><ele>162.0</ele><time>2026-04-11T02:09:03.999Z</time></trkpt><trkpt lat="43.145567605657014" lon="11.460781921967799"><ele>162.0</ele><time>2026-04-11T02:09:05.999Z</time></trkpt><trkpt lat="43.14565382816645" lon="11.460780386975664"><ele>162.0</ele><time>2026-04-11T02:09:07.999Z</time></trkpt><trkpt lat="43.14574225167639" lon="11.460769156623385"><ele>162.0</ele><time>2026-04-11T02:09:09.999Z</time></trkpt><trkpt lat="43.14582655264905" lon="11.460747554268094"><ele>162.0</ele><time>2026-04-11T02:09:11.999Z</time></trkpt><trkpt lat="43.1459103475844" lon="11.460721915372446"><ele>162.0</ele><time>2026-04-11T02:09:13.999Z</time></trkpt><trkpt lat="43.14599376919078" lon="11.46068530106178"><ele>162.2</ele><time>2026-04-11T02:09:15.999Z</time></trkpt><trkpt lat="43.1460783856425" lon="11.460660654053012"><ele>162.39999999999998</ele><time>2026-04-11T02:09:17.999Z</time></trkpt><trkpt lat="43.14616120297284" lon="11.460635444028908"><ele>162.60000000000002</ele><time>2026-04-11T02:09:19.999Z</time></trkpt><trkpt lat="43.146250257697304" lon="11.460608334566157"><ele>162.8</ele><time>2026-04-11T02:09:21.999Z</time></trkpt><trkpt lat="43.146349770959745" lon="11.460586894167644"><ele>163.0</ele><time>2026-04-11T02:09:23.999Z</time></trkpt><trkpt lat="43.14645533821391" lon="11.460555219988674"><ele>162.83333333333334</ele><time>2026-04-11T02:09:25.998Z</time></trkpt><trkpt lat="43.146562674655165" lon="11.460513156154997"><ele>162.66666666666669</ele><time>2026-04-11T02:09:27.998Z</time></trkpt><trkpt lat="43.1466839404193" lon="11.46047893103147"><ele>162.5</ele><time>2026-04-11T02:09:29.998Z</time></trkpt><trkpt lat="43.146745098117215" lon="11.460457371378505"><ele>162.33333333333334</ele><time>2026-04-11T02:09:30.998Z</time></trkpt><trkpt lat="43.14681094651981" lon="11.460458901600983"><ele>162.16666666666666</ele><time>2026-04-11T02:09:31.998Z</time></trkpt><trkpt lat="43.146874516325546" lon="11.460439133470809"><ele>162.0</ele><time>2026-04-11T02:09:32.998Z</time></trkpt><trkpt lat="43.14694207235466" lon="11.460418125794035"><ele>161.71428571428572</ele><time>2026-04-11T02:09:33.998Z</time></trkpt><trkpt lat="43.14700847697586" lon="11.460398748174104"><ele>161.42857142857142</ele><time>2026-04-11T02:09:34.998Z</time></trkpt><trkpt lat="43.14707605518443" lon="11.460379720977224"><ele>161.14285714285714</ele><time>2026-04-11T02:09:35.998Z</time></trkpt><trkpt lat="43.147140911495065" lon="11.460361460293093"><ele>160.85714285714286</ele><time>2026-04-11T02:09:36.998Z</time></trkpt><trkpt lat="43.14720620508213" lon="11.460343076415846"><ele>160.57142857142858</ele><time>2026-04-11T02:09:37.998Z</time></trkpt><trkpt lat="43.14727492550523" lon="11.460324273011992"><ele>160.28571428571428</ele><time>2026-04-11T02:09:38.998Z</time></trkpt><trkpt lat="43.14734675752097" lon="11.460285849955273"><ele>160.0</ele><time>2026-04-11T02:09:39.998Z</time></trkpt><trkpt lat="43.14742399968583" lon="11.4602725108357"><ele>159.0</ele><time>2026-04-11T02:09:40.998Z</time></trkpt><trkpt lat="43.14750053240907" lon="11.460263071960437"><ele>158.0</ele><time>2026-04-11T02:09:41.998Z</time></trkpt><trkpt lat="43.14757800601804" lon="11.46025418886503"><ele>157.0</ele><time>2026-04-11T02:09:42.998Z</time></trkpt><trkpt lat="43.14766063314773" lon="11.460247798120117"><ele>156.0</ele><time>2026-04-11T02:09:43.998Z</time></trkpt><trkpt lat="43.14774505881597" lon="11.460247671799019"><ele>155.0</ele><time>2026-04-11T02:09:44.998Z</time></trkpt><trkpt lat="43.14783200050638" lon="11.460257164149093"><ele>154.0</ele><time>2026-04-11T02:09:45.998Z</time></trkpt><trkpt lat="43.1479160297158" lon="11.460272346522533"><ele>154.0</ele><time>2026-04-11T02:09:46.998Z</time></trkpt><trkpt lat="43.14800142733318" lon="11.460301233017224"><ele>154.0</ele><time>2026-04-11T02:09:47.998Z</time></trkpt><trkpt lat="43.148082287468405" lon="11.46033645894138"><ele>154.0</ele><time>2026-04-11T02:09:48.998Z</time></trkpt><trkpt lat="43.14815573948524" lon="11.460381296774727"><ele>154.0</ele><time>2026-04-11T02:09:49.998Z</time></trkpt><trkpt lat="43.14822405403402" lon="11.460430180658465"><ele>154.0</ele><time>2026-04-11T02:09:50.998Z</time></trkpt><trkpt lat="43.148283953751324" lon="11.460481293910375"><ele>154.0</ele><time>2026-04-11T02:09:51.998Z</time></trkpt><trkpt lat="43.14833753104447" lon="11.460535434609078"><ele>153.71428571428572</ele><time>2026-04-11T02:09:52.998Z</time></trkpt><trkpt lat="43.14838585730936" lon="11.460591946691038"><ele>153.42857142857144</ele><time>2026-04-11T02:09:53.998Z</time></trkpt><trkpt lat="43.148432268719404" lon="11.460654658462209"><ele>153.14285714285714</ele><time>2026-04-11T02:09:54.998Z</time></trkpt><trkpt lat="43.148472893062376" lon="11.460732026788529"><ele>152.85714285714286</ele><time>2026-04-11T02:09:55.998Z</time></trkpt><trkpt lat="43.14851219977471" lon="11.460818520213273"><ele>152.57142857142858</ele><time>2026-04-11T02:09:56.998Z</time></trkpt><trkpt lat="43.148553059693526" lon="11.460910726219252"><ele>152.28571428571428</ele><time>2026-04-11T02:09:57.998Z</time></trkpt><trkpt lat="43.14859306775607" lon="11.461011111931388"><ele>152.0</ele><time>2026-04-11T02:09:58.998Z</time></trkpt><trkpt lat="43.14863318356863" lon="11.461113344902978"><ele>152.0</ele><time>2026-04-11T02:09:59.998Z</time></trkpt><trkpt lat="43.14867520567997" lon="11.461216340991912"><ele>152.0</ele><time>2026-04-11T02:10:00.998Z</time></trkpt><trkpt lat="43.1487164846805" lon="11.461314786358415"><ele>152.0</ele><time>2026-04-11T02:10:01.998Z</time></trkpt><trkpt lat="43.148759036957536" lon="11.461411287848764"><ele>152.0</ele><time>2026-04-11T02:10:02.998Z</time></trkpt><trkpt lat="43.14880067916209" lon="11.461506659963366"><ele>152.0</ele><time>2026-04-11T02:10:03.998Z</time></trkpt><trkpt lat="43.14883938676174" lon="11.461604500470017"><ele>152.0</ele><time>2026-04-11T02:10:04.998Z</time></trkpt><trkpt lat="43.14887945931778" lon="11.461707082815705"><ele>151.66666666666666</ele><time>2026-04-11T02:10:05.998Z</time></trkpt><trkpt lat="43.14892410235983" lon="11.461809510836739"><ele>151.33333333333331</ele><time>2026-04-11T02:10:06.998Z</time></trkpt><trkpt lat="43.14896877321054" lon="11.461908984501145"><ele>151.0</ele><time>2026-04-11T02:10:07.998Z</time></trkpt><trkpt lat="43.14901061085753" lon="11.462009595311377"><ele>150.66666666666666</ele><time>2026-04-11T02:10:08.998Z</time></trkpt><trkpt lat="43.14905334911007" lon="11.462108604199763"><ele>150.33333333333334</ele><time>2026-04-11T02:10:09.998Z</time></trkpt><trkpt lat="43.149094039546156" lon="11.462205293763608"><ele>150.0</ele><time>2026-04-11T02:10:10.998Z</time></trkpt><trkpt lat="43.149137008849145" lon="11.46230272826518"><ele>148.83333333333334</ele><time>2026-04-11T02:10:11.998Z</time></trkpt><trkpt lat="43.1491809910762" lon="11.462396206170316"><ele>147.66666666666666</ele><time>2026-04-11T02:10:12.998Z</time></trkpt><trkpt lat="43.14922583019593" lon="11.462487643180312"><ele>146.5</ele><time>2026-04-11T02:10:13.998Z</time></trkpt><trkpt lat="43.149269133444534" lon="11.462577621454752"><ele>145.33333333333331</ele><time>2026-04-11T02:10:14.998Z</time></trkpt><trkpt lat="43.1493160506527" lon="11.462663343912313"><ele>144.16666666666666</ele><time>2026-04-11T02:10:15.998Z</time></trkpt><trkpt lat="43.149365286099545" lon="11.462744669936137"><ele>143.0</ele><time>2026-04-11T02:10:16.997Z</time></trkpt><trkpt lat="43.14941717490404" lon="11.462822545239252"><ele>142.99999999999997</ele><time>2026-04-11T02:10:18Z</time></trkpt><trkpt lat="43.1494706083452" lon="11.462896425911529"><ele>143.0</ele><time>2026-04-11T02:10:19Z</time></trkpt><trkpt lat="43.14952632539734" lon="11.462963358744252"><ele>143.0</ele><time>2026-04-11T02:10:20Z</time></trkpt><trkpt lat="43.1495830306343" lon="11.463019277466643"><ele>143.0</ele><time>2026-04-11T02:10:21Z</time></trkpt><trkpt lat="43.14964246022733" lon="11.463066770690576"><ele>143.0</ele><time>2026-04-11T02:10:22Z</time></trkpt><trkpt lat="43.14970388162609" lon="11.463107004271187"><ele>142.99999999999997</ele><time>2026-04-11T02:10:23Z</time></trkpt><trkpt lat="43.14977203169679" lon="11.463136780292952"><ele>143.0</ele><time>2026-04-11T02:10:24Z</time></trkpt><trkpt lat="43.14984064817744" lon="11.46315646076845"><ele>143.16666666666666</ele><time>2026-04-11T02:10:25Z</time></trkpt><trkpt lat="43.14991001802335" lon="11.463147527258895"><ele>143.33333333333331</ele><time>2026-04-11T02:10:26Z</time></trkpt><trkpt lat="43.1499762870309" lon="11.463125655676022"><ele>143.5</ele><time>2026-04-11T02:10:27Z</time></trkpt><trkpt lat="43.15004347763067" lon="11.463093707303916"><ele>143.66666666666666</ele><time>2026-04-11T02:10:28Z</time></trkpt><trkpt lat="43.15010754514338" lon="11.463059466562944"><ele>143.83333333333334</ele><time>2026-04-11T02:10:29Z</time></trkpt><trkpt lat="43.1501708793778" lon="11.463025755882928"><ele>144.0</ele><time>2026-04-11T02:10:30Z</time></trkpt><trkpt lat="43.15028130255013" lon="11.46297722253533"><ele>144.0</ele><time>2026-04-11T02:10:32Z</time></trkpt><trkpt lat="43.15038096514275" lon="11.46289917500861"><ele>144.0</ele><time>2026-04-11T02:10:34Z</time></trkpt><trkpt lat="43.15048735543043" lon="11.462842764675319"><ele>144.0</ele><time>2026-04-11T02:10:36Z</time></trkpt><trkpt lat="43.150594939363124" lon="11.46278335089652"><ele>144.0</ele><time>2026-04-11T02:10:38Z</time></trkpt><trkpt lat="43.1506988916072" lon="11.462726079206284"><ele>144.0</ele><time>2026-04-11T02:10:40Z</time></trkpt><trkpt lat="43.15080207855951" lon="11.46266627194593"><ele>144.0</ele><time>2026-04-11T02:10:42Z</time></trkpt><trkpt lat="43.15091359667101" lon="11.462627747559589"><ele>144.0</ele><time>2026-04-11T02:10:44Z</time></trkpt><trkpt lat="43.1510159961484" lon="11.462548653654489"><ele>144.0</ele><time>2026-04-11T02:10:45.999Z</time></trkpt><trkpt lat="43.15113113047008" lon="11.462486448692891"><ele>144.0</ele><time>2026-04-11T02:10:47.999Z</time></trkpt><trkpt lat="43.15118919438677" lon="11.462452817886344"><ele>144.0</ele><time>2026-04-11T02:10:48.999Z</time></trkpt><trkpt lat="43.15130696499097" lon="11.462410329129828"><ele>144.0</ele><time>2026-04-11T02:10:50.999Z</time></trkpt><trkpt lat="43.151412688043195" lon="11.46232966152243"><ele>144.0</ele><time>2026-04-11T02:10:52.999Z</time></trkpt><trkpt lat="43.15152772639961" lon="11.46227149536254"><ele>144.0</ele><time>2026-04-11T02:10:54.999Z</time></trkpt><trkpt lat="43.151641395374206" lon="11.462213235394882"><ele>144.25</ele><time>2026-04-11T02:10:56.999Z</time></trkpt><trkpt lat="43.15175534853689" lon="11.46214999778228"><ele>144.5</ele><time>2026-04-11T02:10:58.999Z</time></trkpt><trkpt lat="43.15186572273675" lon="11.462083916055342"><ele>144.75</ele><time>2026-04-11T02:11:00.999Z</time></trkpt><trkpt lat="43.151983488089535" lon="11.462030069351307"><ele>145.0</ele><time>2026-04-11T02:11:02.999Z</time></trkpt><trkpt lat="43.152099847317935" lon="11.461968997974198"><ele>145.0</ele><time>2026-04-11T02:11:04.999Z</time></trkpt><trkpt lat="43.1521585799588" lon="11.461935914031526"><ele>145.0</ele><time>2026-04-11T02:11:05.999Z</time></trkpt><trkpt lat="43.15227288575483" lon="11.461875901996939"><ele>145.0</ele><time>2026-04-11T02:11:07.999Z</time></trkpt><trkpt lat="43.152388120813306" lon="11.46181687448598"><ele>145.0</ele><time>2026-04-11T02:11:09.999Z</time></trkpt><trkpt lat="43.15250298033108" lon="11.46175615269069"><ele>145.0</ele><time>2026-04-11T02:11:11.999Z</time></trkpt><trkpt lat="43.15256161085334" lon="11.461724129881846"><ele>145.0</ele><time>2026-04-11T02:11:12.999Z</time></trkpt><trkpt lat="43.152678717353865" lon="11.461664590328176"><ele>145.0</ele><time>2026-04-11T02:11:14.999Z</time></trkpt><trkpt lat="43.152795437248656" lon="11.46160017933295"><ele>145.0</ele><time>2026-04-11T02:11:16.999Z</time></trkpt><trkpt lat="43.15291191494217" lon="11.46154162172697"><ele>145.0</ele><time>2026-04-11T02:11:18.999Z</time></trkpt><trkpt lat="43.15302544075258" lon="11.461476528147285"><ele>145.0</ele><time>2026-04-11T02:11:20.999Z</time></trkpt><trkpt lat="43.15314150138341" lon="11.461413784885291"><ele>145.0</ele><time>2026-04-11T02:11:22.999Z</time></trkpt><trkpt lat="43.15325848305041" lon="11.46135703455035"><ele>145.0</ele><time>2026-04-11T02:11:24.999Z</time></trkpt><trkpt lat="43.15337255907366" lon="11.461294820028924"><ele>145.0</ele><time>2026-04-11T02:11:26.999Z</time></trkpt><trkpt lat="43.153486694289185" lon="11.461236935581184"><ele>145.5</ele><time>2026-04-11T02:11:28.999Z</time></trkpt><trkpt lat="43.15359811291786" lon="11.461176902384505"><ele>146.0</ele><time>2026-04-11T02:11:30.999Z</time></trkpt><trkpt lat="43.15371393976163" lon="11.461139312987653"><ele>146.5</ele><time>2026-04-11T02:11:32.999Z</time></trkpt><trkpt lat="43.153819130633735" lon="11.461062992204328"><ele>147.0</ele><time>2026-04-11T02:11:34.999Z</time></trkpt><trkpt lat="43.15392872038393" lon="11.461006085985693"><ele>147.0</ele><time>2026-04-11T02:11:36.998Z</time></trkpt><trkpt lat="43.154037349997466" lon="11.460951313396668"><ele>147.0</ele><time>2026-04-11T02:11:38.998Z</time></trkpt><trkpt lat="43.15414753745372" lon="11.460894998390444"><ele>147.0</ele><time>2026-04-11T02:11:40.998Z</time></trkpt><trkpt lat="43.1542557055035" lon="11.460834974410913"><ele>147.0</ele><time>2026-04-11T02:11:42.998Z</time></trkpt><trkpt lat="43.15437070962052" lon="11.460795123836926"><ele>146.75</ele><time>2026-04-11T02:11:44.998Z</time></trkpt><trkpt lat="43.15447508832123" lon="11.46071522097854"><ele>146.5</ele><time>2026-04-11T02:11:46.998Z</time></trkpt><trkpt lat="43.154589329434344" lon="11.460678322491239"><ele>146.25</ele><time>2026-04-11T02:11:48.998Z</time></trkpt><trkpt lat="43.15469840848403" lon="11.460598984154814"><ele>146.0</ele><time>2026-04-11T02:11:50.998Z</time></trkpt><trkpt lat="43.154810144716635" lon="11.460539572097053"><ele>146.0</ele><time>2026-04-11T02:11:52.998Z</time></trkpt><trkpt lat="43.154920443396016" lon="11.460480913629105"><ele>146.0</ele><time>2026-04-11T02:11:54.998Z</time></trkpt><trkpt lat="43.15503354653867" lon="11.460440991959972"><ele>146.0</ele><time>2026-04-11T02:11:56.998Z</time></trkpt><trkpt lat="43.155139154810804" lon="11.46036337072201"><ele>146.0</ele><time>2026-04-11T02:11:58.998Z</time></trkpt><trkpt lat="43.155252750972" lon="11.46032387826603"><ele>146.0</ele><time>2026-04-11T02:12:00.998Z</time></trkpt><trkpt lat="43.15535722034953" lon="11.460244607877506"><ele>146.0</ele><time>2026-04-11T02:12:02.998Z</time></trkpt><trkpt lat="43.155472404323746" lon="11.460208295305215"><ele>146.0</ele><time>2026-04-11T02:12:04.998Z</time></trkpt><trkpt lat="43.15558293676629" lon="11.460150174385868"><ele>146.0</ele><time>2026-04-11T02:12:06.998Z</time></trkpt><trkpt lat="43.15569638658259" lon="11.460090519424828"><ele>146.0</ele><time>2026-04-11T02:12:08.998Z</time></trkpt><trkpt lat="43.155807131818335" lon="11.460032286600313"><ele>146.0</ele><time>2026-04-11T02:12:10.998Z</time></trkpt><trkpt lat="43.15591993843283" lon="11.459973385046133"><ele>146.0</ele><time>2026-04-11T02:12:12.998Z</time></trkpt><trkpt lat="43.15603326705513" lon="11.459914188633416"><ele>146.0</ele><time>2026-04-11T02:12:14.998Z</time></trkpt><trkpt lat="43.15614884073882" lon="11.459853819528979"><ele>146.0</ele><time>2026-04-11T02:12:16.998Z</time></trkpt><trkpt lat="43.15620772577319" lon="11.459823061343993"><ele>146.0</ele><time>2026-04-11T02:12:17.998Z</time></trkpt><trkpt lat="43.15632567051573" lon="11.459761453734128"><ele>146.0</ele><time>2026-04-11T02:12:19.998Z</time></trkpt><trkpt lat="43.15644180360529" lon="11.459700792428904"><ele>146.0</ele><time>2026-04-11T02:12:21.998Z</time></trkpt><trkpt lat="43.15650213696313" lon="11.45966893457166"><ele>146.0</ele><time>2026-04-11T02:12:22.998Z</time></trkpt><trkpt lat="43.15656220576798" lon="11.459637028782302"><ele>146.0</ele><time>2026-04-11T02:12:24Z</time></trkpt><trkpt lat="43.15668248529343" lon="11.459573141822704"><ele>146.28571428571428</ele><time>2026-04-11T02:12:26Z</time></trkpt><trkpt lat="43.15674221137208" lon="11.459541418064687"><ele>146.57142857142858</ele><time>2026-04-11T02:12:27Z</time></trkpt><trkpt lat="43.15680278924668" lon="11.459509241888798"><ele>146.85714285714286</ele><time>2026-04-11T02:12:28Z</time></trkpt><trkpt lat="43.15686203307958" lon="11.459477774217541"><ele>147.14285714285714</ele><time>2026-04-11T02:12:29Z</time></trkpt><trkpt lat="43.15692163126438" lon="11.45944612012604"><ele>147.42857142857142</ele><time>2026-04-11T02:12:30Z</time></trkpt><trkpt lat="43.156982639638144" lon="11.459413715279794"><ele>147.71428571428572</ele><time>2026-04-11T02:12:31Z</time></trkpt><trkpt lat="43.15704271352943" lon="11.459381806784718"><ele>148.0</ele><time>2026-04-11T02:12:32Z</time></trkpt><trkpt lat="43.15710317853429" lon="11.45934969055129"><ele>148.0</ele><time>2026-04-11T02:12:33Z</time></trkpt><trkpt lat="43.15716421683146" lon="11.459317034852177"><ele>148.0</ele><time>2026-04-11T02:12:34Z</time></trkpt><trkpt lat="43.15722563113812" lon="11.459284122043211"><ele>148.0</ele><time>2026-04-11T02:12:35Z</time></trkpt><trkpt lat="43.15728706146093" lon="11.45925120065198"><ele>148.0</ele><time>2026-04-11T02:12:36Z</time></trkpt><trkpt lat="43.15734763648337" lon="11.459218737629453"><ele>148.0</ele><time>2026-04-11T02:12:37Z</time></trkpt><trkpt lat="43.15740857282716" lon="11.45918608096631"><ele>148.0</ele><time>2026-04-11T02:12:38Z</time></trkpt><trkpt lat="43.15746773056716" lon="11.45915437748279"><ele>148.0</ele><time>2026-04-11T02:12:39Z</time></trkpt><trkpt lat="43.15752786710882" lon="11.45912214944885"><ele>147.71428571428572</ele><time>2026-04-11T02:12:40Z</time></trkpt><trkpt lat="43.15758907100307" lon="11.459089349403571"><ele>147.42857142857142</ele><time>2026-04-11T02:12:41Z</time></trkpt><trkpt lat="43.15765003973759" lon="11.459056675383248"><ele>147.14285714285714</ele><time>2026-04-11T02:12:42Z</time></trkpt><trkpt lat="43.15770945105666" lon="11.459024836006416"><ele>146.85714285714286</ele><time>2026-04-11T02:12:43Z</time></trkpt><trkpt lat="43.15777142626093" lon="11.458991622603607"><ele>146.57142857142858</ele><time>2026-04-11T02:12:44Z</time></trkpt><trkpt lat="43.15783247318162" lon="11.458958906681394"><ele>146.28571428571428</ele><time>2026-04-11T02:12:45Z</time></trkpt><trkpt lat="43.157892184721646" lon="11.458926906408577"><ele>146.0</ele><time>2026-04-11T02:12:46Z</time></trkpt><trkpt lat="43.15795364899209" lon="11.458894088323982"><ele>146.0</ele><time>2026-04-11T02:12:47Z</time></trkpt><trkpt lat="43.15801504791375" lon="11.458861393990935"><ele>146.0</ele><time>2026-04-11T02:12:48Z</time></trkpt><trkpt lat="43.158075730946756" lon="11.458829080861362"><ele>146.0</ele><time>2026-04-11T02:12:49Z</time></trkpt><trkpt lat="43.158135477327015" lon="11.458797266490366"><ele>146.0</ele><time>2026-04-11T02:12:50Z</time></trkpt><trkpt lat="43.1581966651147" lon="11.458764684586953"><ele>146.0</ele><time>2026-04-11T02:12:51Z</time></trkpt><trkpt lat="43.15825675024183" lon="11.458733020206745"><ele>146.0</ele><time>2026-04-11T02:12:52Z</time></trkpt><trkpt lat="43.15831636957008" lon="11.458701638697208"><ele>146.0</ele><time>2026-04-11T02:12:53Z</time></trkpt><trkpt lat="43.158377006753966" lon="11.458669721425665"><ele>145.85714285714286</ele><time>2026-04-11T02:12:53.999Z</time></trkpt><trkpt lat="43.15843691518725" lon="11.45863818774024"><ele>145.71428571428572</ele><time>2026-04-11T02:12:54.999Z</time></trkpt><trkpt lat="43.15849777727385" lon="11.458606152087702"><ele>145.57142857142858</ele><time>2026-04-11T02:12:55.999Z</time></trkpt><trkpt lat="43.158558580913876" lon="11.458574147198451"><ele>145.42857142857144</ele><time>2026-04-11T02:12:56.999Z</time></trkpt><trkpt lat="43.15861827145978" lon="11.458542728202518"><ele>145.2857142857143</ele><time>2026-04-11T02:12:57.999Z</time></trkpt><trkpt lat="43.15867970379516" lon="11.45851012120489"><ele>145.14285714285714</ele><time>2026-04-11T02:12:58.999Z</time></trkpt><trkpt lat="43.15873938899549" lon="11.45847835609421"><ele>145.0</ele><time>2026-04-11T02:12:59.999Z</time></trkpt><trkpt lat="43.15880090539867" lon="11.458445616397727"><ele>145.0</ele><time>2026-04-11T02:13:00.999Z</time></trkpt><trkpt lat="43.158861065174044" lon="11.458413598711315"><ele>145.0</ele><time>2026-04-11T02:13:01.999Z</time></trkpt><trkpt lat="43.158920396687556" lon="11.458382021836396"><ele>145.0</ele><time>2026-04-11T02:13:02.999Z</time></trkpt><trkpt lat="43.1590373505613" lon="11.458319777718655"><ele>145.0</ele><time>2026-04-11T02:13:04.999Z</time></trkpt><trkpt lat="43.15909678801125" lon="11.458288144463916"><ele>145.0</ele><time>2026-04-11T02:13:05.999Z</time></trkpt><trkpt lat="43.15921403206748" lon="11.458225745905494"><ele>145.0</ele><time>2026-04-11T02:13:07.999Z</time></trkpt><trkpt lat="43.15927311879823" lon="11.458194299307898"><ele>145.25</ele><time>2026-04-11T02:13:08.999Z</time></trkpt><trkpt lat="43.159389628456914" lon="11.458131940143097"><ele>145.5</ele><time>2026-04-11T02:13:10.999Z</time></trkpt><trkpt lat="43.15950384252881" lon="11.458070606236934"><ele>145.75</ele><time>2026-04-11T02:13:12.999Z</time></trkpt><trkpt lat="43.15961564568388" lon="11.458010567011545"><ele>146.0</ele><time>2026-04-11T02:13:14.999Z</time></trkpt><trkpt lat="43.15972811912719" lon="11.457950167843995"><ele>146.0</ele><time>2026-04-11T02:13:16.999Z</time></trkpt><trkpt lat="43.159841907858336" lon="11.457889062345588"><ele>146.0</ele><time>2026-04-11T02:13:18.999Z</time></trkpt><trkpt lat="43.1599552540227" lon="11.45782819450949"><ele>146.0</ele><time>2026-04-11T02:13:20.999Z</time></trkpt><trkpt lat="43.16006995098222" lon="11.457767278227799"><ele>146.0</ele><time>2026-04-11T02:13:22.999Z</time></trkpt><trkpt lat="43.16018432709222" lon="11.457706820170195"><ele>146.0</ele><time>2026-04-11T02:13:24.999Z</time></trkpt><trkpt lat="43.16024146853209" lon="11.457669699849129"><ele>146.0</ele><time>2026-04-11T02:13:25.999Z</time></trkpt><trkpt lat="43.16033737219662" lon="11.45757673359242"><ele>146.0</ele><time>2026-04-11T02:13:27.999Z</time></trkpt><trkpt lat="43.16040960217361" lon="11.457437030182424"><ele>146.0</ele><time>2026-04-11T02:13:29.999Z</time></trkpt><trkpt lat="43.16042579999204" lon="11.457351791580331"><ele>146.0</ele><time>2026-04-11T02:13:30.999Z</time></trkpt><trkpt lat="43.1604272695186" lon="11.457186790845945"><ele>146.4</ele><time>2026-04-11T02:13:32.999Z</time></trkpt><trkpt lat="43.16047213225672" lon="11.457053924867504"><ele>146.8</ele><time>2026-04-11T02:13:34.999Z</time></trkpt><trkpt lat="43.16051772842123" lon="11.456934977969606"><ele>147.20000000000002</ele><time>2026-04-11T02:13:36.999Z</time></trkpt><trkpt lat="43.16057962714192" lon="11.456854769431088"><ele>147.6</ele><time>2026-04-11T02:13:38.999Z</time></trkpt><trkpt lat="43.16068464708365" lon="11.456791508730634"><ele>148.0</ele><time>2026-04-11T02:13:41.999Z</time></trkpt><trkpt lat="43.16076630900383" lon="11.456910303195249"><ele>148.0</ele><time>2026-04-11T02:13:43.999Z</time></trkpt><trkpt lat="43.16082468903913" lon="11.457025101526341"><ele>148.0</ele><time>2026-04-11T02:13:45.998Z</time></trkpt><trkpt lat="43.16086953890913" lon="11.457140663326406"><ele>148.0</ele><time>2026-04-11T02:13:47.998Z</time></trkpt><trkpt lat="43.16090413208647" lon="11.457252280711344"><ele>148.0</ele><time>2026-04-11T02:13:49.998Z</time></trkpt><trkpt lat="43.16093732867538" lon="11.457370541035742"><ele>148.0</ele><time>2026-04-11T02:13:51.998Z</time></trkpt><trkpt lat="43.16096948837413" lon="11.457478451825773"><ele>148.0</ele><time>2026-04-11T02:13:53.998Z</time></trkpt><trkpt lat="43.16103493188428" lon="11.457577733439237"><ele>148.0</ele><time>2026-04-11T02:13:55.998Z</time></trkpt><trkpt lat="43.161023572744796" lon="11.45766960876213"><ele>148.0</ele><time>2026-04-11T02:13:56.998Z</time></trkpt><trkpt lat="43.16105637306925" lon="11.457823074500894"><ele>148.0</ele><time>2026-04-11T02:13:58.998Z</time></trkpt><trkpt lat="43.161072630905025" lon="11.457930437721627"><ele>148.0</ele><time>2026-04-11T02:13:59.998Z</time></trkpt><trkpt lat="43.16108564808949" lon="11.458037941061828"><ele>148.0</ele><time>2026-04-11T02:14:00.998Z</time></trkpt><trkpt lat="43.161122741310265" lon="11.458141888820958"><ele>147.8</ele><time>2026-04-11T02:14:01.998Z</time></trkpt><trkpt lat="43.16112857648364" lon="11.4582612950718"><ele>147.60000000000002</ele><time>2026-04-11T02:14:02.998Z</time></trkpt><trkpt lat="43.161138433197074" lon="11.458389550303114"><ele>147.39999999999998</ele><time>2026-04-11T02:14:03.998Z</time></trkpt><trkpt lat="43.161124493002525" lon="11.458523601300417"><ele>147.2</ele><time>2026-04-11T02:14:04.998Z</time></trkpt><trkpt lat="43.161134063296316" lon="11.458659281070737"><ele>147.0</ele><time>2026-04-11T02:14:05.998Z</time></trkpt><trkpt lat="43.16114372559174" lon="11.45879296247998"><ele>146.83333333333334</ele><time>2026-04-11T02:14:06.998Z</time></trkpt><trkpt lat="43.16115403421551" lon="11.458926814866937"><ele>146.66666666666666</ele><time>2026-04-11T02:14:07.998Z</time></trkpt><trkpt lat="43.16116500321224" lon="11.459046348768913"><ele>146.5</ele><time>2026-04-11T02:14:08.998Z</time></trkpt><trkpt lat="43.16117780396261" lon="11.459165684795304"><ele>146.33333333333331</ele><time>2026-04-11T02:14:09.998Z</time></trkpt><trkpt lat="43.16119217251567" lon="11.459283799419138"><ele>146.16666666666666</ele><time>2026-04-11T02:14:10.998Z</time></trkpt><trkpt lat="43.16120708752216" lon="11.459398991111359"><ele>146.0</ele><time>2026-04-11T02:14:11.998Z</time></trkpt><trkpt lat="43.16122274499726" lon="11.4595125094381"><ele>146.0</ele><time>2026-04-11T02:14:12.998Z</time></trkpt><trkpt lat="43.16124050827077" lon="11.459626068771447"><ele>146.0</ele><time>2026-04-11T02:14:13.998Z</time></trkpt><trkpt lat="43.16125919031983" lon="11.459736951324413"><ele>146.0</ele><time>2026-04-11T02:14:14.998Z</time></trkpt><trkpt lat="43.16127846432293" lon="11.45984345113507"><ele>146.0</ele><time>2026-04-11T02:14:15.998Z</time></trkpt><trkpt lat="43.16129764362329" lon="11.45994351404326"><ele>146.0</ele><time>2026-04-11T02:14:16.998Z</time></trkpt><trkpt lat="43.16132134578476" lon="11.460045377880522"><ele>146.0</ele><time>2026-04-11T02:14:17.998Z</time></trkpt><trkpt lat="43.16135422518441" lon="11.460144773074857"><ele>146.0</ele><time>2026-04-11T02:14:18.998Z</time></trkpt><trkpt lat="43.16139772322261" lon="11.460239854769606"><ele>146.0</ele><time>2026-04-11T02:14:19.998Z</time></trkpt><trkpt lat="43.1614479943217" lon="11.460324743115661"><ele>146.0</ele><time>2026-04-11T02:14:20.998Z</time></trkpt><trkpt lat="43.1615049257651" lon="11.46040226079942"><ele>146.0</ele><time>2026-04-11T02:14:21.998Z</time></trkpt><trkpt lat="43.16156367489914" lon="11.460473485525938"><ele>146.0</ele><time>2026-04-11T02:14:22.998Z</time></trkpt><trkpt lat="43.16162702906739" lon="11.460537631936985"><ele>146.0</ele><time>2026-04-11T02:14:23.998Z</time></trkpt><trkpt lat="43.16168894562182" lon="11.460597383332471"><ele>145.85714285714286</ele><time>2026-04-11T02:14:24.998Z</time></trkpt><trkpt lat="43.16174949944615" lon="11.460655819890187"><ele>145.71428571428572</ele><time>2026-04-11T02:14:25.998Z</time></trkpt><trkpt lat="43.16180947804907" lon="11.460717063482063"><ele>145.57142857142858</ele><time>2026-04-11T02:14:26.998Z</time></trkpt><trkpt lat="43.1618689530408" lon="11.460777758523228"><ele>145.42857142857144</ele><time>2026-04-11T02:14:27.998Z</time></trkpt><trkpt lat="43.16192856539594" lon="11.46083915338213"><ele>145.2857142857143</ele><time>2026-04-11T02:14:29Z</time></trkpt><trkpt lat="43.16198691245954" lon="11.460899244978435"><ele>145.14285714285714</ele><time>2026-04-11T02:14:30Z</time></trkpt><trkpt lat="43.162045352000966" lon="11.460959431792137"><ele>145.0</ele><time>2026-04-11T02:14:31Z</time></trkpt><trkpt lat="43.16210285122133" lon="11.461018650172297"><ele>145.0</ele><time>2026-04-11T02:14:32Z</time></trkpt><trkpt lat="43.162158889373295" lon="11.461077004158984"><ele>145.0</ele><time>2026-04-11T02:14:33Z</time></trkpt><trkpt lat="43.16221419173966" lon="11.461134671790887"><ele>145.0</ele><time>2026-04-11T02:14:34Z</time></trkpt><trkpt lat="43.16226829154912" lon="11.461191085413256"><ele>145.0</ele><time>2026-04-11T02:14:35Z</time></trkpt><trkpt lat="43.1623226749181" lon="11.461247794707962"><ele>145.0</ele><time>2026-04-11T02:14:36Z</time></trkpt><trkpt lat="43.16238740726927" lon="11.4612867154231"><ele>145.0</ele><time>2026-04-11T02:14:37Z</time></trkpt><trkpt lat="43.162431503381505" lon="11.461361277625818"><ele>145.0</ele><time>2026-04-11T02:14:38Z</time></trkpt><trkpt lat="43.16248469495278" lon="11.461416744174064"><ele>144.71428571428572</ele><time>2026-04-11T02:14:39Z</time></trkpt><trkpt lat="43.16253835336776" lon="11.461472697494727"><ele>144.42857142857144</ele><time>2026-04-11T02:14:40Z</time></trkpt><trkpt lat="43.16259376551938" lon="11.461530479564544"><ele>144.14285714285714</ele><time>2026-04-11T02:14:41Z</time></trkpt><trkpt lat="43.16264668637565" lon="11.461585663817596"><ele>143.85714285714286</ele><time>2026-04-11T02:14:42Z</time></trkpt><trkpt lat="43.16270130250067" lon="11.461641889276821"><ele>143.57142857142856</ele><time>2026-04-11T02:14:43Z</time></trkpt><trkpt lat="43.16275686651923" lon="11.461698829194969"><ele>143.28571428571428</ele><time>2026-04-11T02:14:44Z</time></trkpt><trkpt lat="43.16281272447224" lon="11.46175607036381"><ele>143.0</ele><time>2026-04-11T02:14:45Z</time></trkpt><trkpt lat="43.16287010440129" lon="11.461813154234218"><ele>142.99999999999997</ele><time>2026-04-11T02:14:46Z</time></trkpt><trkpt lat="43.16293665050995" lon="11.461848779916062"><ele>143.0</ele><time>2026-04-11T02:14:47Z</time></trkpt><trkpt lat="43.16299325899977" lon="11.461902884132916"><ele>143.0</ele><time>2026-04-11T02:14:48Z</time></trkpt><trkpt lat="43.16305281797809" lon="11.461952707460616"><ele>143.0</ele><time>2026-04-11T02:14:49Z</time></trkpt><trkpt lat="43.16311562470573" lon="11.461999774094371"><ele>143.0</ele><time>2026-04-11T02:14:50Z</time></trkpt><trkpt lat="43.163179057092975" lon="11.462043616278088"><ele>142.99999999999997</ele><time>2026-04-11T02:14:51Z</time></trkpt><trkpt lat="43.16324396114767" lon="11.462082412233743"><ele>143.0</ele><time>2026-04-11T02:14:52Z</time></trkpt><trkpt lat="43.16330372924508" lon="11.462140878916427"><ele>143.0</ele><time>2026-04-11T02:14:53Z</time></trkpt><trkpt lat="43.163373631269366" lon="11.462183711241137"><ele>143.0</ele><time>2026-04-11T02:14:54Z</time></trkpt><trkpt lat="43.16343853369012" lon="11.462230116650288"><ele>143.0</ele><time>2026-04-11T02:14:55Z</time></trkpt><trkpt lat="43.16349656068372" lon="11.462280955487573"><ele>143.0</ele><time>2026-04-11T02:14:56Z</time></trkpt><trkpt lat="43.16356210072709" lon="11.46240650510948"><ele>143.0</ele><time>2026-04-11T02:14:57.999Z</time></trkpt><trkpt lat="43.16363970546649" lon="11.462537038949602"><ele>143.0</ele><time>2026-04-11T02:14:59.999Z</time></trkpt><trkpt lat="43.16370875851974" lon="11.462679405174182"><ele>143.0</ele><time>2026-04-11T02:15:01.999Z</time></trkpt><trkpt lat="43.1637555466109" lon="11.462740137687375"><ele>143.0</ele><time>2026-04-11T02:15:02.999Z</time></trkpt><trkpt lat="43.16380889918505" lon="11.46278747309691"><ele>143.0</ele><time>2026-04-11T02:15:03.999Z</time></trkpt><trkpt lat="43.16391292534441" lon="11.462866076134533"><ele>143.0</ele><time>2026-04-11T02:15:05.999Z</time></trkpt><trkpt lat="43.16402108261356" lon="11.462916702787126"><ele>143.20000000000002</ele><time>2026-04-11T02:15:07.999Z</time></trkpt><trkpt lat="43.16411890361706" lon="11.462997794887702"><ele>143.4</ele><time>2026-04-11T02:15:09.999Z</time></trkpt><trkpt lat="43.16423124706823" lon="11.463058774990852"><ele>143.60000000000002</ele><time>2026-04-11T02:15:11.999Z</time></trkpt><trkpt lat="43.16427661171626" lon="11.46311998231708"><ele>143.8</ele><time>2026-04-11T02:15:12.999Z</time></trkpt><trkpt lat="43.1643814827797" lon="11.463213408955392"><ele>144.0</ele><time>2026-04-11T02:15:14.999Z</time></trkpt><trkpt lat="43.16448084097082" lon="11.463313558226469"><ele>144.0</ele><time>2026-04-11T02:15:16.999Z</time></trkpt><trkpt lat="43.16458352733537" lon="11.46339698563972"><ele>144.0</ele><time>2026-04-11T02:15:18.999Z</time></trkpt><trkpt lat="43.16466473544731" lon="11.463496473673617"><ele>144.0</ele><time>2026-04-11T02:15:20.999Z</time></trkpt><trkpt lat="43.16475296413557" lon="11.46358921226755"><ele>144.0</ele><time>2026-04-11T02:15:22.999Z</time></trkpt><trkpt lat="43.16480399185707" lon="11.463643463995956"><ele>144.0</ele><time>2026-04-11T02:15:23.999Z</time></trkpt><trkpt lat="43.164847365981494" lon="11.463718155594217"><ele>144.14285714285717</ele><time>2026-04-11T02:15:24.999Z</time></trkpt><trkpt lat="43.164899956022204" lon="11.463772108818826"><ele>144.28571428571428</ele><time>2026-04-11T02:15:25.999Z</time></trkpt><trkpt lat="43.16496061846463" lon="11.463805050053471"><ele>144.42857142857144</ele><time>2026-04-11T02:15:26.999Z</time></trkpt><trkpt lat="43.16501455851043" lon="11.463855892882638"><ele>144.57142857142858</ele><time>2026-04-11T02:15:27.999Z</time></trkpt><trkpt lat="43.16506909546263" lon="11.46390533781015"><ele>144.71428571428572</ele><time>2026-04-11T02:15:28.999Z</time></trkpt><trkpt lat="43.16512533363864" lon="11.46395482773756"><ele>144.85714285714286</ele><time>2026-04-11T02:15:29.999Z</time></trkpt><trkpt lat="43.16518507865106" lon="11.46399304525233"><ele>145.0</ele><time>2026-04-11T02:15:30.999Z</time></trkpt><trkpt lat="43.16524584620338" lon="11.464027548161654"><ele>145.0</ele><time>2026-04-11T02:15:31.999Z</time></trkpt><trkpt lat="43.165305381888984" lon="11.464064319428953"><ele>145.0</ele><time>2026-04-11T02:15:32.999Z</time></trkpt><trkpt lat="43.16536491830683" lon="11.464101927890201"><ele>145.0</ele><time>2026-04-11T02:15:33.999Z</time></trkpt><trkpt lat="43.165421291537385" lon="11.464141062438705"><ele>145.0</ele><time>2026-04-11T02:15:34.999Z</time></trkpt><trkpt lat="43.16546836827307" lon="11.464200093261681"><ele>145.0</ele><time>2026-04-11T02:15:35.999Z</time></trkpt><trkpt lat="43.16553165147336" lon="11.464220190613151"><ele>145.0</ele><time>2026-04-11T02:15:36.999Z</time></trkpt><trkpt lat="43.16563888459736" lon="11.464297849326302"><ele>145.0</ele><time>2026-04-11T02:15:38.999Z</time></trkpt><trkpt lat="43.165733661074206" lon="11.464389659654842"><ele>145.2</ele><time>2026-04-11T02:15:40.999Z</time></trkpt><trkpt lat="43.16584195843491" lon="11.464433538683554"><ele>145.4</ele><time>2026-04-11T02:15:42.999Z</time></trkpt><trkpt lat="43.1659598323658" lon="11.46451389780467"><ele>145.6</ele><time>2026-04-11T02:15:44.999Z</time></trkpt><trkpt lat="43.16602970293627" lon="11.464543718230898"><ele>145.8</ele><time>2026-04-11T02:15:46.999Z</time></trkpt><trkpt lat="43.166077707342296" lon="11.464443400674593"><ele>146.0</ele><time>2026-04-11T02:15:47.999Z</time></trkpt><trkpt lat="43.166143377721795" lon="11.464332557031105"><ele>146.0</ele><time>2026-04-11T02:15:49.998Z</time></trkpt><trkpt lat="43.166210405850855" lon="11.464197406721041"><ele>146.0</ele><time>2026-04-11T02:15:51.998Z</time></trkpt><trkpt lat="43.1662454655877" lon="11.464125558107792"><ele>146.0</ele><time>2026-04-11T02:15:52.998Z</time></trkpt><trkpt lat="43.16628236081713" lon="11.464054463316815"><ele>146.0</ele><time>2026-04-11T02:15:53.998Z</time></trkpt><trkpt lat="43.166322507508454" lon="11.46398353763397"><ele>146.0</ele><time>2026-04-11T02:15:54.998Z</time></trkpt><trkpt lat="43.1663644555559" lon="11.463916952318847"><ele>146.0</ele><time>2026-04-11T02:15:55.998Z</time></trkpt><trkpt lat="43.16644613397549" lon="11.463801063842434"><ele>146.2</ele><time>2026-04-11T02:15:57.998Z</time></trkpt><trkpt lat="43.166544674022745" lon="11.463691911070592"><ele>146.39999999999998</ele><time>2026-04-11T02:15:59.998Z</time></trkpt><trkpt lat="43.166657711723566" lon="11.46361703637146"><ele>146.6</ele><time>2026-04-11T02:16:01.998Z</time></trkpt><trkpt lat="43.166766345837004" lon="11.463528828991619"><ele>146.79999999999998</ele><time>2026-04-11T02:16:03.998Z</time></trkpt><trkpt lat="43.16682215374064" lon="11.46348351502212"><ele>147.0</ele><time>2026-04-11T02:16:04.998Z</time></trkpt><trkpt lat="43.166910398697794" lon="11.463393307431136"><ele>147.0</ele><time>2026-04-11T02:16:06.998Z</time></trkpt><trkpt lat="43.16700731937919" lon="11.46347438248695"><ele>147.0</ele><time>2026-04-11T02:16:08.998Z</time></trkpt><trkpt lat="43.16709760614857" lon="11.463579117273245"><ele>147.0</ele><time>2026-04-11T02:16:10.998Z</time></trkpt><trkpt lat="43.16719162726407" lon="11.463668422415333"><ele>147.0</ele><time>2026-04-11T02:16:12.998Z</time></trkpt><trkpt lat="43.16729878777189" lon="11.46374442002163"><ele>147.2</ele><time>2026-04-11T02:16:14.998Z</time></trkpt><trkpt lat="43.16741219286686" lon="11.463805417472894"><ele>147.39999999999998</ele><time>2026-04-11T02:16:16.998Z</time></trkpt><trkpt lat="43.16747091955774" lon="11.463839810732809"><ele>147.60000000000002</ele><time>2026-04-11T02:16:17.998Z</time></trkpt><trkpt lat="43.16752882978976" lon="11.463873725909796"><ele>147.8</ele><time>2026-04-11T02:16:18.998Z</time></trkpt><trkpt lat="43.16764506703858" lon="11.463941800278496"><ele>148.0</ele><time>2026-04-11T02:16:20.998Z</time></trkpt><trkpt lat="43.16775965781506" lon="11.464008568070593"><ele>148.0</ele><time>2026-04-11T02:16:22.998Z</time></trkpt><trkpt lat="43.167873448744785" lon="11.464074111616354"><ele>148.0</ele><time>2026-04-11T02:16:24.998Z</time></trkpt><trkpt lat="43.16798244472513" lon="11.464136893289204"><ele>148.0</ele><time>2026-04-11T02:16:26.998Z</time></trkpt><trkpt lat="43.1680812154462" lon="11.464194450203"><ele>148.0</ele><time>2026-04-11T02:16:28.998Z</time></trkpt><trkpt lat="43.16814648444512" lon="11.464248488315194"><ele>148.0</ele><time>2026-04-11T02:16:30.998Z</time></trkpt><trkpt lat="43.168141832920185" lon="11.464346613260743"><ele>148.0</ele><time>2026-04-11T02:16:32.998Z</time></trkpt><trkpt lat="43.16810164418939" lon="11.464471669782094"><ele>148.0</ele><time>2026-04-11T02:16:35Z</time></trkpt><trkpt lat="43.16805349916467" lon="11.464593301825694"><ele>148.0</ele><time>2026-04-11T02:16:37Z</time></trkpt><trkpt lat="43.16800868681934" lon="11.464715051694775"><ele>148.0</ele><time>2026-04-11T02:16:39Z</time></trkpt><trkpt lat="43.16795488474075" lon="11.464841910601152"><ele>148.0</ele><time>2026-04-11T02:16:41Z</time></trkpt><trkpt lat="43.16787679635457" lon="11.464958421891971"><ele>148.25</ele><time>2026-04-11T02:16:43Z</time></trkpt><trkpt lat="43.16776563251326" lon="11.46501281492704"><ele>148.5</ele><time>2026-04-11T02:16:45Z</time></trkpt><trkpt lat="43.16766338590347" lon="11.46505524035271"><ele>148.75</ele><time>2026-04-11T02:16:47Z</time></trkpt><trkpt lat="43.167556509347826" lon="11.465058087310004"><ele>149.0</ele><time>2026-04-11T02:16:49Z</time></trkpt><trkpt lat="43.16743796371103" lon="11.465042033382916"><ele>149.0</ele><time>2026-04-11T02:16:51Z</time></trkpt><trkpt lat="43.16737217257343" lon="11.465037550741974"><ele>149.0</ele><time>2026-04-11T02:16:52Z</time></trkpt><trkpt lat="43.16730736022447" lon="11.465030587508346"><ele>149.0</ele><time>2026-04-11T02:16:53Z</time></trkpt><trkpt lat="43.16724357706525" lon="11.46503089531965"><ele>149.0</ele><time>2026-04-11T02:16:54Z</time></trkpt><trkpt lat="43.167124299081856" lon="11.465049298411913"><ele>149.0</ele><time>2026-04-11T02:16:56Z</time></trkpt><trkpt lat="43.167006473174936" lon="11.46507827194351"><ele>149.0</ele><time>2026-04-11T02:16:58Z</time></trkpt><trkpt lat="43.16689156589328" lon="11.46512220407867"><ele>148.75</ele><time>2026-04-11T02:17:00Z</time></trkpt><trkpt lat="43.16677924132616" lon="11.465181785383155"><ele>148.5</ele><time>2026-04-11T02:17:02Z</time></trkpt><trkpt lat="43.16667055036166" lon="11.465255598315377"><ele>148.25</ele><time>2026-04-11T02:17:04Z</time></trkpt><trkpt lat="43.16656413183604" lon="11.4653419005353"><ele>148.0</ele><time>2026-04-11T02:17:06Z</time></trkpt><trkpt lat="43.16646089488449" lon="11.465433140090665"><ele>147.20000000000002</ele><time>2026-04-11T02:17:07.999Z</time></trkpt><trkpt lat="43.16641351080696" lon="11.465492516332745"><ele>146.4</ele><time>2026-04-11T02:17:08.999Z</time></trkpt><trkpt lat="43.16632481233861" lon="11.465606771795352"><ele>145.60000000000002</ele><time>2026-04-11T02:17:10.999Z</time></trkpt><trkpt lat="43.16624931570125" lon="11.465717655530835"><ele>144.8</ele><time>2026-04-11T02:17:12.999Z</time></trkpt><trkpt lat="43.166168473167644" lon="11.465816588727261"><ele>144.0</ele><time>2026-04-11T02:17:14.999Z</time></trkpt><trkpt lat="43.16609302826454" lon="11.465920713684545"><ele>144.0</ele><time>2026-04-11T02:17:16.999Z</time></trkpt><trkpt lat="43.166012891823236" lon="11.466027225791402"><ele>144.0</ele><time>2026-04-11T02:17:18.999Z</time></trkpt><trkpt lat="43.165926719446425" lon="11.466136674927588"><ele>144.0</ele><time>2026-04-11T02:17:20.999Z</time></trkpt><trkpt lat="43.16583796244054" lon="11.466266430649174"><ele>144.0</ele><time>2026-04-11T02:17:22.999Z</time></trkpt><trkpt lat="43.16578433697086" lon="11.46633384160718"><ele>144.0</ele><time>2026-04-11T02:17:23.999Z</time></trkpt><trkpt lat="43.16572196696625" lon="11.46639519006634"><ele>144.66666666666666</ele><time>2026-04-11T02:17:24.999Z</time></trkpt><trkpt lat="43.16564659690507" lon="11.466442987679315"><ele>145.33333333333334</ele><time>2026-04-11T02:17:25.999Z</time></trkpt><trkpt lat="43.16556363017635" lon="11.4664801235759"><ele>146.0</ele><time>2026-04-11T02:17:26.999Z</time></trkpt><trkpt lat="43.16548245197538" lon="11.466510663664405"><ele>146.66666666666669</ele><time>2026-04-11T02:17:27.999Z</time></trkpt><trkpt lat="43.16540492248347" lon="11.466544243345231"><ele>147.33333333333334</ele><time>2026-04-11T02:17:28.999Z</time></trkpt><trkpt lat="43.16533198906912" lon="11.466585455431765"><ele>148.0</ele><time>2026-04-11T02:17:29.999Z</time></trkpt><trkpt lat="43.16526066208061" lon="11.46662667034044"><ele>148.0</ele><time>2026-04-11T02:17:30.999Z</time></trkpt><trkpt lat="43.16519269680546" lon="11.466668839661098"><ele>148.0</ele><time>2026-04-11T02:17:31.999Z</time></trkpt><trkpt lat="43.16513057377999" lon="11.466724019247692"><ele>148.0</ele><time>2026-04-11T02:17:32.999Z</time></trkpt><trkpt lat="43.165069009839094" lon="11.466772806972003"><ele>148.0</ele><time>2026-04-11T02:17:33.999Z</time></trkpt><trkpt lat="43.165004532363646" lon="11.466816820008845"><ele>148.0</ele><time>2026-04-11T02:17:34.999Z</time></trkpt><trkpt lat="43.164940418138684" lon="11.466861362414598"><ele>148.0</ele><time>2026-04-11T02:17:35.999Z</time></trkpt><trkpt lat="43.16487775809194" lon="11.466905575528688"><ele>148.0</ele><time>2026-04-11T02:17:36.999Z</time></trkpt><trkpt lat="43.16481435375804" lon="11.46694781836952"><ele>147.71428571428572</ele><time>2026-04-11T02:17:37.999Z</time></trkpt><trkpt lat="43.16475156269856" lon="11.466989442878683"><ele>147.42857142857142</ele><time>2026-04-11T02:17:38.999Z</time></trkpt><trkpt lat="43.164689128614654" lon="11.467032823803686"><ele>147.14285714285714</ele><time>2026-04-11T02:17:39.999Z</time></trkpt><trkpt lat="43.16462835523509" lon="11.467076952322087"><ele>146.85714285714286</ele><time>2026-04-11T02:17:40.999Z</time></trkpt><trkpt lat="43.16456856116903" lon="11.467121932029443"><ele>146.57142857142858</ele><time>2026-04-11T02:17:41.999Z</time></trkpt><trkpt lat="43.164509128234954" lon="11.467162009458914"><ele>146.28571428571428</ele><time>2026-04-11T02:17:42.999Z</time></trkpt><trkpt lat="43.164449817463876" lon="11.46720768339179"><ele>146.0</ele><time>2026-04-11T02:17:43.999Z</time></trkpt><trkpt lat="43.164388911726654" lon="11.467246226521398"><ele>146.0</ele><time>2026-04-11T02:17:44.999Z</time></trkpt><trkpt lat="43.164331792867785" lon="11.467286458616943"><ele>146.0</ele><time>2026-04-11T02:17:45.999Z</time></trkpt><trkpt lat="43.16427670269158" lon="11.4673296977942"><ele>146.0</ele><time>2026-04-11T02:17:46.999Z</time></trkpt><trkpt lat="43.16422079191814" lon="11.467370887080996"><ele>146.0</ele><time>2026-04-11T02:17:47.999Z</time></trkpt><trkpt lat="43.164163528662534" lon="11.467412651107585"><ele>146.0</ele><time>2026-04-11T02:17:48.999Z</time></trkpt><trkpt lat="43.164107591048385" lon="11.467453922179129"><ele>146.0</ele><time>2026-04-11T02:17:49.999Z</time></trkpt><trkpt lat="43.163994494537285" lon="11.46753036671079"><ele>146.0</ele><time>2026-04-11T02:17:51.999Z</time></trkpt><trkpt lat="43.16388218720232" lon="11.467594177294034"><ele>146.0</ele><time>2026-04-11T02:17:53.999Z</time></trkpt><trkpt lat="43.16381448328471" lon="11.467641615851116"><ele>146.0</ele><time>2026-04-11T02:17:55.999Z</time></trkpt><trkpt lat="43.16386872355826" lon="11.467751617771981"><ele>146.0</ele><time>2026-04-11T02:18:14.998Z</time></trkpt><trkpt lat="43.16390326710345" lon="11.467826999813251"><ele>146.0</ele><time>2026-04-11T02:18:20.998Z</time></trkpt><trkpt lat="43.16391026632714" lon="11.467924215200702"><ele>146.0</ele><time>2026-04-11T02:18:23.998Z</time></trkpt><trkpt lat="43.163953316697786" lon="11.468021131100501"><ele>146.0</ele><time>2026-04-11T02:18:26.998Z</time></trkpt><trkpt lat="43.16396774096607" lon="11.468110555437471"><ele>146.0</ele><time>2026-04-11T02:18:28.998Z</time></trkpt><trkpt lat="43.16399417638879" lon="11.468189354113878"><ele>146.0</ele><time>2026-04-11T02:18:30.998Z</time></trkpt><trkpt lat="43.164032600936096" lon="11.468306387519572"><ele>146.0</ele><time>2026-04-11T02:18:33.998Z</time></trkpt><trkpt lat="43.1640572215819" lon="11.468396661170429"><ele>146.0</ele><time>2026-04-11T02:18:35.998Z</time></trkpt><trkpt lat="43.16408548582836" lon="11.468492612849138"><ele>146.0</ele><time>2026-04-11T02:18:37.998Z</time></trkpt><trkpt lat="43.16410964771982" lon="11.468596352718802"><ele>146.0</ele><time>2026-04-11T02:18:40Z</time></trkpt><trkpt lat="43.16411098925047" lon="11.468710266739253"><ele>147.16666666666666</ele><time>2026-04-11T02:18:42Z</time></trkpt><trkpt lat="43.16409366081882" lon="11.468822905527002"><ele>148.33333333333331</ele><time>2026-04-11T02:18:44Z</time></trkpt><trkpt lat="43.16405348783221" lon="11.468922513972306"><ele>149.5</ele><time>2026-04-11T02:18:46Z</time></trkpt><trkpt lat="43.16398324190713" lon="11.468995557032803"><ele>150.66666666666666</ele><time>2026-04-11T02:18:48Z</time></trkpt><trkpt lat="43.163901821802675" lon="11.469040380574247"><ele>151.83333333333334</ele><time>2026-04-11T02:18:50Z</time></trkpt><trkpt lat="43.163818526177984" lon="11.469065617296982"><ele>153.0</ele><time>2026-04-11T02:18:52Z</time></trkpt><trkpt lat="43.16373342278418" lon="11.469081135833092"><ele>153.0</ele><time>2026-04-11T02:18:54Z</time></trkpt><trkpt lat="43.16360843345899" lon="11.469115881474192"><ele>153.0</ele><time>2026-04-11T02:18:57Z</time></trkpt><trkpt lat="43.16351892323998" lon="11.469138103993224"><ele>153.0</ele><time>2026-04-11T02:18:59Z</time></trkpt><trkpt lat="43.16342668518067" lon="11.469172914109368"><ele>153.0</ele><time>2026-04-11T02:19:01Z</time></trkpt><trkpt lat="43.163337677601426" lon="11.469203589904419"><ele>153.0</ele><time>2026-04-11T02:19:03Z</time></trkpt><trkpt lat="43.16325211875718" lon="11.469241624470422"><ele>152.83333333333334</ele><time>2026-04-11T02:19:05Z</time></trkpt><trkpt lat="43.16317680553818" lon="11.46929411206427"><ele>152.66666666666666</ele><time>2026-04-11T02:19:07Z</time></trkpt><trkpt lat="43.16311080812335" lon="11.469355833388278"><ele>152.5</ele><time>2026-04-11T02:19:09Z</time></trkpt><trkpt lat="43.163051874334954" lon="11.46940862541623"><ele>152.33333333333331</ele><time>2026-04-11T02:19:11Z</time></trkpt><trkpt lat="43.162990553530896" lon="11.46946587317026"><ele>152.16666666666666</ele><time>2026-04-11T02:19:12.999Z</time></trkpt><trkpt lat="43.16293143474513" lon="11.46953099183052"><ele>152.0</ele><time>2026-04-11T02:19:14.999Z</time></trkpt><trkpt lat="43.16287415935992" lon="11.469605151587993"><ele>152.7142857142857</ele><time>2026-04-11T02:19:16.999Z</time></trkpt><trkpt lat="43.16281550982465" lon="11.469680891471501"><ele>153.42857142857144</ele><time>2026-04-11T02:19:18.999Z</time></trkpt><trkpt lat="43.16278282762887" lon="11.46975757830258"><ele>154.14285714285714</ele><time>2026-04-11T02:19:20.999Z</time></trkpt><trkpt lat="43.16275049913876" lon="11.469844066016138"><ele>154.85714285714283</ele><time>2026-04-11T02:19:22.999Z</time></trkpt><trkpt lat="43.1627226981354" lon="11.46993464240973"><ele>155.57142857142856</ele><time>2026-04-11T02:19:24.999Z</time></trkpt><trkpt lat="43.1627031046006" lon="11.47002640400898"><ele>156.28571428571428</ele><time>2026-04-11T02:19:26.999Z</time></trkpt><trkpt lat="43.16268192932661" lon="11.470119960792795"><ele>157.0</ele><time>2026-04-11T02:19:28.999Z</time></trkpt><trkpt lat="43.16267490067924" lon="11.470214559192332"><ele>157.0</ele><time>2026-04-11T02:19:30.999Z</time></trkpt><trkpt lat="43.16266759814149" lon="11.470313246836126"><ele>157.0</ele><time>2026-04-11T02:19:32.999Z</time></trkpt><trkpt lat="43.16266362687132" lon="11.470409885642942"><ele>157.0</ele><time>2026-04-11T02:19:34.999Z</time></trkpt><trkpt lat="43.16265860813239" lon="11.470535614243953"><ele>157.0</ele><time>2026-04-11T02:19:37.999Z</time></trkpt><trkpt lat="43.16265349449008" lon="11.470644727973493"><ele>157.0</ele><time>2026-04-11T02:19:39.999Z</time></trkpt><trkpt lat="43.16265147739207" lon="11.470744917657633"><ele>157.0</ele><time>2026-04-11T02:19:41.999Z</time></trkpt><trkpt lat="43.162643513858576" lon="11.47084188428014"><ele>157.83333333333334</ele><time>2026-04-11T02:19:43.999Z</time></trkpt><trkpt lat="43.16264515814205" lon="11.47093616226786"><ele>158.66666666666669</ele><time>2026-04-11T02:19:45.999Z</time></trkpt><trkpt lat="43.16263167206295" lon="11.471059296145846"><ele>159.5</ele><time>2026-04-11T02:19:48.999Z</time></trkpt><trkpt lat="43.1626264514029" lon="11.471173859070907"><ele>160.33333333333334</ele><time>2026-04-11T02:19:51.999Z</time></trkpt><trkpt lat="43.16262187503508" lon="11.471270166389434"><ele>161.16666666666666</ele><time>2026-04-11T02:19:54.999Z</time></trkpt><trkpt lat="43.16261594867593" lon="11.47137263448484"><ele>162.0</ele><time>2026-04-11T02:19:57.999Z</time></trkpt><trkpt lat="43.16259717107737" lon="11.471467833287258"><ele>162.71428571428572</ele><time>2026-04-11T02:20:01.999Z</time></trkpt><trkpt lat="43.16257875616051" lon="11.471574541308671"><ele>163.42857142857142</ele><time>2026-04-11T02:20:04.998Z</time></trkpt><trkpt lat="43.16254240067856" lon="11.471664517312638"><ele>164.14285714285714</ele><time>2026-04-11T02:20:07.998Z</time></trkpt><trkpt lat="43.16250580904658" lon="11.471752326839619"><ele>164.85714285714286</ele><time>2026-04-11T02:20:10.998Z</time></trkpt><trkpt lat="43.162471754526734" lon="11.471834851818201"><ele>165.57142857142858</ele><time>2026-04-11T02:20:13.998Z</time></trkpt><trkpt lat="43.16243346006749" lon="11.471914850598429"><ele>166.28571428571428</ele><time>2026-04-11T02:20:15.998Z</time></trkpt><trkpt lat="43.16239187160895" lon="11.471989465193088"><ele>167.0</ele><time>2026-04-11T02:20:18.998Z</time></trkpt><trkpt lat="43.16234909044166" lon="11.47207447538186"><ele>167.83333333333331</ele><time>2026-04-11T02:20:21.998Z</time></trkpt><trkpt lat="43.16231092707845" lon="11.472153294631868"><ele>168.66666666666666</ele><time>2026-04-11T02:20:24.998Z</time></trkpt><trkpt lat="43.16225916511706" lon="11.472267303347182"><ele>169.5</ele><time>2026-04-11T02:20:27.998Z</time></trkpt><trkpt lat="43.16221504810953" lon="11.472361513398639"><ele>170.33333333333334</ele><time>2026-04-11T02:20:30.998Z</time></trkpt><trkpt lat="43.16216563361839" lon="11.472462225571459"><ele>171.16666666666669</ele><time>2026-04-11T02:20:34.998Z</time></trkpt><trkpt lat="43.162117562328454" lon="11.472558571647738"><ele>172.0</ele><time>2026-04-11T02:20:37.998Z</time></trkpt><trkpt lat="43.162072509267766" lon="11.472648759621627"><ele>172.0</ele><time>2026-04-11T02:20:40.998Z</time></trkpt><trkpt lat="43.16203311392309" lon="11.472730035742451"><ele>172.0</ele><time>2026-04-11T02:20:43.998Z</time></trkpt><trkpt lat="43.16198144887424" lon="11.47283155741873"><ele>172.0</ele><time>2026-04-11T02:20:47Z</time></trkpt><trkpt lat="43.16193882291313" lon="11.47291690683317"><ele>172.0</ele><time>2026-04-11T02:20:50Z</time></trkpt><trkpt lat="43.16190643908892" lon="11.472998936506041"><ele>172.0</ele><time>2026-04-11T02:20:52Z</time></trkpt><trkpt lat="43.16186559540024" lon="11.4730991166472"><ele>172.0</ele><time>2026-04-11T02:20:55Z</time></trkpt><trkpt lat="43.16183516429926" lon="11.473199373447178"><ele>173.0</ele><time>2026-04-11T02:20:58Z</time></trkpt><trkpt lat="43.16181421166989" lon="11.473293278765409"><ele>174.0</ele><time>2026-04-11T02:21:00Z</time></trkpt><trkpt lat="43.16180902726523" lon="11.473412103163714"><ele>175.0</ele><time>2026-04-11T02:21:02.999Z</time></trkpt><trkpt lat="43.16182326561335" lon="11.473521358880895"><ele>176.0</ele><time>2026-04-11T02:21:05.999Z</time></trkpt><trkpt lat="43.16184065853871" lon="11.473609558736538"><ele>177.0</ele><time>2026-04-11T02:21:08.999Z</time></trkpt><trkpt lat="43.161861731411356" lon="11.473704659934777"><ele>178.0</ele><time>2026-04-11T02:21:11.999Z</time></trkpt><trkpt lat="43.16188809436374" lon="11.473798923814142"><ele>178.7142857142857</ele><time>2026-04-11T02:21:14.998Z</time></trkpt><trkpt lat="43.161912473671286" lon="11.473883526875273"><ele>179.42857142857142</ele><time>2026-04-11T02:21:16.998Z</time></trkpt><trkpt lat="43.16192975938693" lon="11.473974316905267"><ele>180.14285714285714</ele><time>2026-04-11T02:21:19.998Z</time></trkpt><trkpt lat="43.16193396920612" lon="11.474079883883332"><ele>180.85714285714283</ele><time>2026-04-11T02:21:22.998Z</time></trkpt><trkpt lat="43.16192764871791" lon="11.474185457193009"><ele>181.57142857142858</ele><time>2026-04-11T02:21:24.998Z</time></trkpt><trkpt lat="43.16192633714391" lon="11.474287204205172"><ele>182.28571428571428</ele><time>2026-04-11T02:21:27.998Z</time></trkpt><trkpt lat="43.16192939125295" lon="11.474389475313561"><ele>183.0</ele><time>2026-04-11T02:21:30.998Z</time></trkpt><trkpt lat="43.16193856607276" lon="11.474480995882121"><ele>183.0</ele><time>2026-04-11T02:21:32.998Z</time></trkpt><trkpt lat="43.16196715875354" lon="11.474592087812296"><ele>183.0</ele><time>2026-04-11T02:21:35.998Z</time></trkpt><trkpt lat="43.16201047314729" lon="11.474691120137916"><ele>183.0</ele><time>2026-04-11T02:21:38.998Z</time></trkpt><trkpt lat="43.16206550051708" lon="11.474776492939727"><ele>183.0</ele><time>2026-04-11T02:21:41.997Z</time></trkpt><trkpt lat="43.16213014649804" lon="11.474851383141173"><ele>183.0</ele><time>2026-04-11T02:21:44.997Z</time></trkpt><trkpt lat="43.162201353232895" lon="11.474910203173875"><ele>183.0</ele><time>2026-04-11T02:21:47.997Z</time></trkpt><trkpt lat="43.16227678769556" lon="11.474939823274806"><ele>182.5</ele><time>2026-04-11T02:21:50.997Z</time></trkpt><trkpt lat="43.16235258030925" lon="11.47496047217035"><ele>182.0</ele><time>2026-04-11T02:21:54.997Z</time></trkpt><trkpt lat="43.16242454068202" lon="11.474965806152039"><ele>181.5</ele><time>2026-04-11T02:21:57.997Z</time></trkpt><trkpt lat="43.162499147096014" lon="11.47497087131775"><ele>181.0</ele><time>2026-04-11T02:22:00.997Z</time></trkpt><trkpt lat="43.16257846302192" lon="11.47498621496418"><ele>180.5</ele><time>2026-04-11T02:22:03.997Z</time></trkpt><trkpt lat="43.162660431248426" lon="11.475031986488236"><ele>180.0</ele><time>2026-04-11T02:22:06.997Z</time></trkpt><trkpt lat="43.16272924988812" lon="11.475085064773383"><ele>181.66666666666666</ele><time>2026-04-11T02:22:09.997Z</time></trkpt><trkpt lat="43.162796891103746" lon="11.475131673838158"><ele>183.33333333333334</ele><time>2026-04-11T02:22:11.997Z</time></trkpt><trkpt lat="43.16288050514338" lon="11.475173522202857"><ele>185.0</ele><time>2026-04-11T02:22:13.997Z</time></trkpt><trkpt lat="43.16294453193086" lon="11.47520823595748"><ele>186.66666666666669</ele><time>2026-04-11T02:22:15.997Z</time></trkpt><trkpt lat="43.163014093477756" lon="11.475248114984382"><ele>188.33333333333334</ele><time>2026-04-11T02:22:17.997Z</time></trkpt><trkpt lat="43.1630893352572" lon="11.475290170126547"><ele>190.0</ele><time>2026-04-11T02:22:19.997Z</time></trkpt><trkpt lat="43.163168099435175" lon="11.47532287735262"><ele>190.2</ele><time>2026-04-11T02:22:21.997Z</time></trkpt><trkpt lat="43.163252620247036" lon="11.47536847864195"><ele>190.4</ele><time>2026-04-11T02:22:23.997Z</time></trkpt><trkpt lat="43.16333833735885" lon="11.475413886127052"><ele>190.60000000000002</ele><time>2026-04-11T02:22:25.997Z</time></trkpt><trkpt lat="43.16343149951311" lon="11.475459908204428"><ele>190.8</ele><time>2026-04-11T02:22:27.996Z</time></trkpt><trkpt lat="43.163525344157364" lon="11.47550857874139"><ele>191.0</ele><time>2026-04-11T02:22:29.996Z</time></trkpt><trkpt lat="43.16361876675447" lon="11.475547657832042"><ele>190.20000000000002</ele><time>2026-04-11T02:22:31.996Z</time></trkpt><trkpt lat="43.16371257317408" lon="11.475585773850124"><ele>189.4</ele><time>2026-04-11T02:22:33.996Z</time></trkpt><trkpt lat="43.163808546226036" lon="11.4756335296478"><ele>188.6</ele><time>2026-04-11T02:22:35.996Z</time></trkpt><trkpt lat="43.163905427923105" lon="11.475681171847436"><ele>187.8</ele><time>2026-04-11T02:22:37.996Z</time></trkpt><trkpt lat="43.16400281630555" lon="11.47573095354469"><ele>187.0</ele><time>2026-04-11T02:22:39.996Z</time></trkpt><trkpt lat="43.16412173333706" lon="11.475802301657874"><ele>187.0</ele><time>2026-04-11T02:22:41.996Z</time></trkpt><trkpt lat="43.16418419717427" lon="11.475837690871264"><ele>187.0</ele><time>2026-04-11T02:22:42.996Z</time></trkpt><trkpt lat="43.16424582732449" lon="11.47587299398628"><ele>187.0</ele><time>2026-04-11T02:22:43.996Z</time></trkpt><trkpt lat="43.16430855037414" lon="11.475906896936513"><ele>187.0</ele><time>2026-04-11T02:22:44.996Z</time></trkpt><trkpt lat="43.16436964142853" lon="11.475942163716027"><ele>187.0</ele><time>2026-04-11T02:22:45.996Z</time></trkpt><trkpt lat="43.16447379739467" lon="11.476047513459118"><ele>187.0</ele><time>2026-04-11T02:22:47.996Z</time></trkpt><trkpt lat="43.164580902488126" lon="11.476094358010979"><ele>187.0</ele><time>2026-04-11T02:22:49.996Z</time></trkpt><trkpt lat="43.16468739400159" lon="11.4761335734547"><ele>187.0</ele><time>2026-04-11T02:22:51.998Z</time></trkpt><trkpt lat="43.16479035689558" lon="11.476169484125382"><ele>187.0</ele><time>2026-04-11T02:22:53.998Z</time></trkpt><trkpt lat="43.16488810729324" lon="11.476203263297673"><ele>187.0</ele><time>2026-04-11T02:22:55.999Z</time></trkpt><trkpt lat="43.16497915849956" lon="11.476234727482693"><ele>187.0</ele><time>2026-04-11T02:22:57.999Z</time></trkpt><trkpt lat="43.16505914056873" lon="11.476260675235006"><ele>186.5</ele><time>2026-04-11T02:22:59.999Z</time></trkpt><trkpt lat="43.165134246692425" lon="11.476283776674006"><ele>186.0</ele><time>2026-04-11T02:23:01.999Z</time></trkpt><trkpt lat="43.16520917495064" lon="11.476305224559917"><ele>185.5</ele><time>2026-04-11T02:23:03.999Z</time></trkpt><trkpt lat="43.16528648814501" lon="11.476282615852341"><ele>185.0</ele><time>2026-04-11T02:23:05.999Z</time></trkpt><trkpt lat="43.16536117816093" lon="11.476312141535352"><ele>184.5</ele><time>2026-04-11T02:23:07.999Z</time></trkpt><trkpt lat="43.165437708039676" lon="11.476354400550747"><ele>184.0</ele><time>2026-04-11T02:23:09.999Z</time></trkpt><trkpt lat="43.16551211576596" lon="11.476406734399035"><ele>184.0</ele><time>2026-04-11T02:23:11.999Z</time></trkpt><trkpt lat="43.16558816300223" lon="11.476461234252307"><ele>184.0</ele><time>2026-04-11T02:23:14.999Z</time></trkpt><trkpt lat="43.165684928836534" lon="11.476530385977686"><ele>184.0</ele><time>2026-04-11T02:23:16.999Z</time></trkpt><trkpt lat="43.165744263141654" lon="11.47656676525543"><ele>184.0</ele><time>2026-04-11T02:23:18.999Z</time></trkpt><trkpt lat="43.165830145370144" lon="11.476623896232882"><ele>184.0</ele><time>2026-04-11T02:23:20.999Z</time></trkpt><trkpt lat="43.1659083154397" lon="11.476677079232596"><ele>184.0</ele><time>2026-04-11T02:23:22.999Z</time></trkpt><trkpt lat="43.165980733252894" lon="11.47670832488322"><ele>185.16666666666669</ele><time>2026-04-11T02:23:24.999Z</time></trkpt><trkpt lat="43.16606153052689" lon="11.476742855921549"><ele>186.33333333333334</ele><time>2026-04-11T02:23:26.999Z</time></trkpt><trkpt lat="43.16613042101996" lon="11.476792154645368"><ele>187.5</ele><time>2026-04-11T02:23:28.999Z</time></trkpt><trkpt lat="43.16619970991993" lon="11.476850673435434"><ele>188.66666666666666</ele><time>2026-04-11T02:23:30.999Z</time></trkpt><trkpt lat="43.16627809109354" lon="11.476907168182827"><ele>189.83333333333331</ele><time>2026-04-11T02:23:33.999Z</time></trkpt><trkpt lat="43.16635889018579" lon="11.476960007492455"><ele>191.0</ele><time>2026-04-11T02:23:36.999Z</time></trkpt><trkpt lat="43.16644368328372" lon="11.477034292419205"><ele>190.83333333333331</ele><time>2026-04-11T02:23:39.999Z</time></trkpt><trkpt lat="43.16653078010507" lon="11.477094343970599"><ele>190.66666666666666</ele><time>2026-04-11T02:23:40.999Z</time></trkpt><trkpt lat="43.16659124411889" lon="11.477158006055689"><ele>190.5</ele><time>2026-04-11T02:23:42.999Z</time></trkpt><trkpt lat="43.166646594334175" lon="11.477224811734258"><ele>190.33333333333334</ele><time>2026-04-11T02:23:44.999Z</time></trkpt><trkpt lat="43.16670853335107" lon="11.47728543759643"><ele>190.16666666666669</ele><time>2026-04-11T02:23:46.999Z</time></trkpt><trkpt lat="43.166766228324086" lon="11.477350597327812"><ele>190.0</ele><time>2026-04-11T02:23:48.999Z</time></trkpt><trkpt lat="43.16682709873615" lon="11.477425032411253"><ele>190.6</ele><time>2026-04-11T02:23:50.999Z</time></trkpt><trkpt lat="43.16689888899308" lon="11.477499595665874"><ele>191.2</ele><time>2026-04-11T02:23:52.999Z</time></trkpt><trkpt lat="43.16697651969738" lon="11.47757886068986"><ele>191.8</ele><time>2026-04-11T02:23:54.999Z</time></trkpt><trkpt lat="43.16706683705361" lon="11.477660806464053"><ele>192.4</ele><time>2026-04-11T02:23:56.999Z</time></trkpt><trkpt lat="43.16715553095257" lon="11.47777056657005"><ele>193.0</ele><time>2026-04-11T02:23:58.999Z</time></trkpt><trkpt lat="43.16726183135214" lon="11.477815526425822"><ele>193.2</ele><time>2026-04-11T02:24:00.999Z</time></trkpt><trkpt lat="43.16737847594351" lon="11.477844023704547"><ele>193.4</ele><time>2026-04-11T02:24:02.999Z</time></trkpt><trkpt lat="43.16744601277383" lon="11.477846086450734"><ele>193.6</ele><time>2026-04-11T02:24:03.999Z</time></trkpt><trkpt lat="43.16754562057505" lon="11.477847602370407"><ele>193.79999999999998</ele><time>2026-04-11T02:24:05.999Z</time></trkpt><trkpt lat="43.167638716908705" lon="11.477845654076258"><ele>194.0</ele><time>2026-04-11T02:24:07.999Z</time></trkpt><trkpt lat="43.16772407152362" lon="11.477843020338442"><ele>194.00000000000003</ele><time>2026-04-11T02:24:09.999Z</time></trkpt><trkpt lat="43.16779835118826" lon="11.477840728330486"><ele>194.0</ele><time>2026-04-11T02:24:11.999Z</time></trkpt><trkpt lat="43.16793989359032" lon="11.477836360835349"><ele>194.0</ele><time>2026-04-11T02:24:15.999Z</time></trkpt><trkpt lat="43.16801021787489" lon="11.477834190877793"><ele>194.0</ele><time>2026-04-11T02:24:17.998Z</time></trkpt><trkpt lat="43.168083576407604" lon="11.477834009483301"><ele>194.00000000000003</ele><time>2026-04-11T02:24:19.998Z</time></trkpt><trkpt lat="43.16816669519268" lon="11.477835678824473"><ele>194.0</ele><time>2026-04-11T02:24:21.998Z</time></trkpt><trkpt lat="43.16825368769931" lon="11.477845994937688"><ele>194.33333333333334</ele><time>2026-04-11T02:24:23.998Z</time></trkpt><trkpt lat="43.16833923084715" lon="11.477863572192604"><ele>194.66666666666669</ele><time>2026-04-11T02:24:25.998Z</time></trkpt><trkpt lat="43.168429751640176" lon="11.477848967359444"><ele>195.0</ele><time>2026-04-11T02:24:27.998Z</time></trkpt><trkpt lat="43.168512419418256" lon="11.477871621173728"><ele>195.33333333333331</ele><time>2026-04-11T02:24:29.998Z</time></trkpt><trkpt lat="43.16859492721931" lon="11.47789137047105"><ele>195.66666666666666</ele><time>2026-04-11T02:24:31.998Z</time></trkpt><trkpt lat="43.16868072482695" lon="11.477902759362175"><ele>196.0</ele><time>2026-04-11T02:24:33.998Z</time></trkpt><trkpt lat="43.168765003531604" lon="11.47791810262214"><ele>195.99999999999997</ele><time>2026-04-11T02:24:35.998Z</time></trkpt><trkpt lat="43.168832699009194" lon="11.477933837017403"><ele>196.0</ele><time>2026-04-11T02:24:38.998Z</time></trkpt><trkpt lat="43.168953295166396" lon="11.47796641070377"><ele>196.0</ele><time>2026-04-11T02:24:40.998Z</time></trkpt><trkpt lat="43.16903166239391" lon="11.477994087630439"><ele>196.0</ele><time>2026-04-11T02:24:42.998Z</time></trkpt><trkpt lat="43.16910963165358" lon="11.478031488891231"><ele>195.99999999999997</ele><time>2026-04-11T02:24:44.998Z</time></trkpt><trkpt lat="43.16918857228174" lon="11.478069593986554"><ele>196.0</ele><time>2026-04-11T02:24:46.998Z</time></trkpt><trkpt lat="43.16926304085129" lon="11.478122191454688"><ele>195.99999999999997</ele><time>2026-04-11T02:24:48.998Z</time></trkpt><trkpt lat="43.16932843931963" lon="11.478195010574904"><ele>196.0</ele><time>2026-04-11T02:24:50.998Z</time></trkpt><trkpt lat="43.169385697433356" lon="11.478277183920166"><ele>196.0</ele><time>2026-04-11T02:24:52.998Z</time></trkpt><trkpt lat="43.16943932404047" lon="11.478369245812399"><ele>196.0</ele><time>2026-04-11T02:24:54.998Z</time></trkpt><trkpt lat="43.16948699483234" lon="11.478464213664259"><ele>195.99999999999997</ele><time>2026-04-11T02:24:57Z</time></trkpt><trkpt lat="43.16953190942991" lon="11.478564094324506"><ele>196.0</ele><time>2026-04-11T02:24:59Z</time></trkpt><trkpt lat="43.16957722325595" lon="11.478661824114786"><ele>196.0</ele><time>2026-04-11T02:25:01Z</time></trkpt><trkpt lat="43.16962184480785" lon="11.478760290638087"><ele>196.0</ele><time>2026-04-11T02:25:03Z</time></trkpt><trkpt lat="43.169661809022294" lon="11.478840259545997"><ele>196.0</ele><time>2026-04-11T02:25:05Z</time></trkpt><trkpt lat="43.16972532845667" lon="11.478966594213937"><ele>196.0</ele><time>2026-04-11T02:25:08Z</time></trkpt><trkpt lat="43.169781060505045" lon="11.479067353474296"><ele>196.0</ele><time>2026-04-11T02:25:11Z</time></trkpt><trkpt lat="43.169856673247075" lon="11.479183170155745"><ele>196.83333333333331</ele><time>2026-04-11T02:25:13Z</time></trkpt><trkpt lat="43.16991941298941" lon="11.47925508181594"><ele>197.66666666666666</ele><time>2026-04-11T02:25:15Z</time></trkpt><trkpt lat="43.16998609485606" lon="11.47931371429814"><ele>198.5</ele><time>2026-04-11T02:25:17Z</time></trkpt><trkpt lat="43.17005858088083" lon="11.479352529703563"><ele>199.33333333333331</ele><time>2026-04-11T02:25:19Z</time></trkpt><trkpt lat="43.17012750818719" lon="11.479389967721122"><ele>200.16666666666666</ele><time>2026-04-11T02:25:21Z</time></trkpt><trkpt lat="43.170199277930564" lon="11.479426160121577"><ele>201.0</ele><time>2026-04-11T02:25:23Z</time></trkpt><trkpt lat="43.17026767118325" lon="11.479459397838497"><ele>201.0</ele><time>2026-04-11T02:25:25Z</time></trkpt><trkpt lat="43.17033838284376" lon="11.479488171486809"><ele>201.0</ele><time>2026-04-11T02:25:27Z</time></trkpt><trkpt lat="43.17040980605957" lon="11.479513770291605"><ele>201.0</ele><time>2026-04-11T02:25:29Z</time></trkpt><trkpt lat="43.17047707298876" lon="11.479542697531052"><ele>201.0</ele><time>2026-04-11T02:25:31Z</time></trkpt><trkpt lat="43.17054012938251" lon="11.479550554885835"><ele>201.0</ele><time>2026-04-11T02:25:33Z</time></trkpt><trkpt lat="43.170631569354654" lon="11.479619413601856"><ele>201.0</ele><time>2026-04-11T02:25:35Z</time></trkpt><trkpt lat="43.170706589486954" lon="11.479677538019512"><ele>201.5</ele><time>2026-04-11T02:25:37Z</time></trkpt><trkpt lat="43.17077565216707" lon="11.479741210709362"><ele>202.0</ele><time>2026-04-11T02:25:38.999Z</time></trkpt><trkpt lat="43.17083716585251" lon="11.479824000754835"><ele>202.5</ele><time>2026-04-11T02:25:40.999Z</time></trkpt><trkpt lat="43.17089719678617" lon="11.479918792799548"><ele>203.0</ele><time>2026-04-11T02:25:42.999Z</time></trkpt><trkpt lat="43.17095074689193" lon="11.480023457858683"><ele>203.5</ele><time>2026-04-11T02:25:44.999Z</time></trkpt><trkpt lat="43.17098910353594" lon="11.480141573293182"><ele>204.0</ele><time>2026-04-11T02:25:46.999Z</time></trkpt><trkpt lat="43.171031793502614" lon="11.480257611812224"><ele>204.0</ele><time>2026-04-11T02:25:48.999Z</time></trkpt><trkpt lat="43.17105461765378" lon="11.480369391331887"><ele>204.0</ele><time>2026-04-11T02:25:50.999Z</time></trkpt><trkpt lat="43.17107763693465" lon="11.480482493689543"><ele>204.0</ele><time>2026-04-11T02:25:52.999Z</time></trkpt><trkpt lat="43.17109683101926" lon="11.480582780245093"><ele>204.0</ele><time>2026-04-11T02:25:54.999Z</time></trkpt><trkpt lat="43.17112331236518" lon="11.480711893609506"><ele>204.0</ele><time>2026-04-11T02:25:56.999Z</time></trkpt><trkpt lat="43.1711377260604" lon="11.480818151702353"><ele>204.0</ele><time>2026-04-11T02:25:58.999Z</time></trkpt><trkpt lat="43.171159510687275" lon="11.480931214260087"><ele>203.83333333333334</ele><time>2026-04-11T02:26:00.999Z</time></trkpt><trkpt lat="43.17117674195501" lon="11.481035523540427"><ele>203.66666666666669</ele><time>2026-04-11T02:26:02.999Z</time></trkpt><trkpt lat="43.171190215189604" lon="11.48113095361778"><ele>203.5</ele><time>2026-04-11T02:26:04.999Z</time></trkpt><trkpt lat="43.171207252342356" lon="11.481228846995096"><ele>203.33333333333334</ele><time>2026-04-11T02:26:06.999Z</time></trkpt><trkpt lat="43.17122503303146" lon="11.481329699429722"><ele>203.16666666666669</ele><time>2026-04-11T02:26:08.999Z</time></trkpt><trkpt lat="43.171241741939674" lon="11.481429080213122"><ele>203.0</ele><time>2026-04-11T02:26:10.999Z</time></trkpt><trkpt lat="43.171260632745245" lon="11.481534430244256"><ele>203.0</ele><time>2026-04-11T02:26:12.999Z</time></trkpt><trkpt lat="43.171275808632906" lon="11.481624898976445"><ele>203.0</ele><time>2026-04-11T02:26:14.999Z</time></trkpt><trkpt lat="43.17128822504123" lon="11.481714207291342"><ele>203.0</ele><time>2026-04-11T02:26:17.999Z</time></trkpt><trkpt lat="43.17130443615511" lon="11.481799221463302"><ele>203.0</ele><time>2026-04-11T02:26:19.999Z</time></trkpt><trkpt lat="43.171313570991124" lon="11.481890579173097"><ele>203.0</ele><time>2026-04-11T02:26:21.999Z</time></trkpt><trkpt lat="43.17133144922493" lon="11.481999300371074"><ele>203.0</ele><time>2026-04-11T02:26:24.999Z</time></trkpt><trkpt lat="43.171356229029136" lon="11.482109086755784"><ele>203.0</ele><time>2026-04-11T02:26:27.999Z</time></trkpt><trkpt lat="43.17139379942287" lon="11.482208327396004"><ele>202.00000000000003</ele><time>2026-04-11T02:26:30.998Z</time></trkpt><trkpt lat="43.17142349705687" lon="11.48230976282125"><ele>201.0</ele><time>2026-04-11T02:26:33.998Z</time></trkpt><trkpt lat="43.17147100700779" lon="11.482400758264422"><ele>200.0</ele><time>2026-04-11T02:26:36.998Z</time></trkpt><trkpt lat="43.171516197619944" lon="11.482502034648586"><ele>199.0</ele><time>2026-04-11T02:26:39.998Z</time></trkpt><trkpt lat="43.17156350278274" lon="11.482613380457316"><ele>198.00000000000003</ele><time>2026-04-11T02:26:42.998Z</time></trkpt><trkpt lat="43.17160962967254" lon="11.482729669600495"><ele>197.0</ele><time>2026-04-11T02:26:43.998Z</time></trkpt><trkpt lat="43.17165347700752" lon="11.482816058525733"><ele>199.0</ele><time>2026-04-11T02:26:45.998Z</time></trkpt><trkpt lat="43.17169424805723" lon="11.482902706862387"><ele>201.0</ele><time>2026-04-11T02:26:47.998Z</time></trkpt><trkpt lat="43.171733203626374" lon="11.482983939495448"><ele>203.0</ele><time>2026-04-11T02:26:49.998Z</time></trkpt><trkpt lat="43.171767938439814" lon="11.483058482393115"><ele>205.0</ele><time>2026-04-11T02:26:51.998Z</time></trkpt><trkpt lat="43.17181718093288" lon="11.483141027516357"><ele>207.0</ele><time>2026-04-11T02:26:53.998Z</time></trkpt><trkpt lat="43.17186937094144" lon="11.483201687964812"><ele>209.0</ele><time>2026-04-11T02:26:55.998Z</time></trkpt><trkpt lat="43.171922040059826" lon="11.483261707543162"><ele>211.0</ele><time>2026-04-11T02:26:57.998Z</time></trkpt><trkpt lat="43.171980435588814" lon="11.483317271421773"><ele>211.0</ele><time>2026-04-11T02:26:59.998Z</time></trkpt><trkpt lat="43.17203692364613" lon="11.483371346262516"><ele>211.0</ele><time>2026-04-11T02:27:02Z</time></trkpt><trkpt lat="43.17209109957659" lon="11.483416069433956"><ele>211.0</ele><time>2026-04-11T02:27:05Z</time></trkpt><trkpt lat="43.17214743970753" lon="11.483474532874927"><ele>211.0</ele><time>2026-04-11T02:27:08Z</time></trkpt><trkpt lat="43.17220353943289" lon="11.483538666554365"><ele>211.0</ele><time>2026-04-11T02:27:10Z</time></trkpt><trkpt lat="43.172268233252126" lon="11.483607791109165"><ele>211.0</ele><time>2026-04-11T02:27:12Z</time></trkpt><trkpt lat="43.1723155032662" lon="11.483670093179967"><ele>211.0</ele><time>2026-04-11T02:27:15Z</time></trkpt><trkpt lat="43.17238377889623" lon="11.483716939032325"><ele>213.33333333333331</ele><time>2026-04-11T02:27:18Z</time></trkpt><trkpt lat="43.17246666103894" lon="11.483765834036907"><ele>215.66666666666666</ele><time>2026-04-11T02:27:22Z</time></trkpt><trkpt lat="43.172532644332364" lon="11.483805568878939"><ele>218.0</ele><time>2026-04-11T02:27:25Z</time></trkpt><trkpt lat="43.17261518049568" lon="11.483828497167279"><ele>220.33333333333331</ele><time>2026-04-11T02:27:28Z</time></trkpt><trkpt lat="43.17267811350255" lon="11.483861003414374"><ele>222.66666666666666</ele><time>2026-04-11T02:27:31Z</time></trkpt><trkpt lat="43.17275855968666" lon="11.483884576169277"><ele>225.0</ele><time>2026-04-11T02:27:34Z</time></trkpt><trkpt lat="43.17285037398351" lon="11.483934315370606"><ele>225.0</ele><time>2026-04-11T02:27:37Z</time></trkpt><trkpt lat="43.17294226696751" lon="11.4839651380426"><ele>225.0</ele><time>2026-04-11T02:27:40Z</time></trkpt><trkpt lat="43.17300700918282" lon="11.483991455067416"><ele>225.0</ele><time>2026-04-11T02:27:43Z</time></trkpt><trkpt lat="43.173071811305974" lon="11.48400953882343"><ele>225.0</ele><time>2026-04-11T02:27:44.999Z</time></trkpt><trkpt lat="43.17314677276406" lon="11.484039170454489"><ele>225.0</ele><time>2026-04-11T02:27:47.999Z</time></trkpt><trkpt lat="43.17323139390971" lon="11.48406205397576"><ele>225.0</ele><time>2026-04-11T02:27:50.999Z</time></trkpt><trkpt lat="43.17330379298928" lon="11.484083261530827"><ele>225.66666666666666</ele><time>2026-04-11T02:27:52.999Z</time></trkpt><trkpt lat="43.17337093874483" lon="11.48410581146964"><ele>226.33333333333331</ele><time>2026-04-11T02:27:55.999Z</time></trkpt><trkpt lat="43.17346879119919" lon="11.484132719298067"><ele>227.0</ele><time>2026-04-11T02:27:58.999Z</time></trkpt><trkpt lat="43.173548360183744" lon="11.484158200640646"><ele>227.66666666666666</ele><time>2026-04-11T02:28:00.999Z</time></trkpt><trkpt lat="43.17362311055332" lon="11.484177930215772"><ele>228.33333333333331</ele><time>2026-04-11T02:28:02.999Z</time></trkpt><trkpt lat="43.173687490018146" lon="11.484204927269646"><ele>229.0</ele><time>2026-04-11T02:28:04.999Z</time></trkpt><trkpt lat="43.17376260821208" lon="11.484232902916862"><ele>228.99999999999997</ele><time>2026-04-11T02:28:06.999Z</time></trkpt><trkpt lat="43.17385778727552" lon="11.484260134660007"><ele>229.0</ele><time>2026-04-11T02:28:08.999Z</time></trkpt><trkpt lat="43.17393100398088" lon="11.484284796893734"><ele>229.0</ele><time>2026-04-11T02:28:10.999Z</time></trkpt><trkpt lat="43.17400001778307" lon="11.48430727485492"><ele>229.0</ele><time>2026-04-11T02:28:12.999Z</time></trkpt><trkpt lat="43.174071758879585" lon="11.484329653384576"><ele>228.99999999999997</ele><time>2026-04-11T02:28:14.999Z</time></trkpt><trkpt lat="43.174146185148466" lon="11.48435025967742"><ele>229.0</ele><time>2026-04-11T02:28:16.999Z</time></trkpt><trkpt lat="43.17421739587414" lon="11.484367868283934"><ele>228.99999999999997</ele><time>2026-04-11T02:28:18.999Z</time></trkpt><trkpt lat="43.17428729362371" lon="11.484385965369462"><ele>229.0</ele><time>2026-04-11T02:28:20.999Z</time></trkpt><trkpt lat="43.174358915184705" lon="11.484410084603056"><ele>229.0</ele><time>2026-04-11T02:28:22.999Z</time></trkpt><trkpt lat="43.17443221621768" lon="11.484436808577813"><ele>229.0</ele><time>2026-04-11T02:28:24.999Z</time></trkpt><trkpt lat="43.17451236421698" lon="11.48448041733965"><ele>228.99999999999997</ele><time>2026-04-11T02:28:26.999Z</time></trkpt><trkpt lat="43.17459793988097" lon="11.484529753921487"><ele>229.0</ele><time>2026-04-11T02:28:28.999Z</time></trkpt><trkpt lat="43.17467933365701" lon="11.484582152264709"><ele>228.99999999999997</ele><time>2026-04-11T02:28:30.999Z</time></trkpt><trkpt lat="43.17476105809267" lon="11.484625025578705"><ele>229.0</ele><time>2026-04-11T02:28:32.999Z</time></trkpt><trkpt lat="43.17483811694595" lon="11.48467396171757"><ele>229.0</ele><time>2026-04-11T02:28:34.999Z</time></trkpt><trkpt lat="43.17491852621305" lon="11.484724768153782"><ele>229.0</ele><time>2026-04-11T02:28:36.998Z</time></trkpt><trkpt lat="43.17499533904228" lon="11.4847669082006"><ele>228.99999999999997</ele><time>2026-04-11T02:28:38.998Z</time></trkpt><trkpt lat="43.175064097970306" lon="11.484809663237076"><ele>229.0</ele><time>2026-04-11T02:28:40.998Z</time></trkpt><trkpt lat="43.17512188662738" lon="11.48485669031844"><ele>228.99999999999997</ele><time>2026-04-11T02:28:42.998Z</time></trkpt><trkpt lat="43.17520198193073" lon="11.484893201932971"><ele>229.0</ele><time>2026-04-11T02:28:44.998Z</time></trkpt><trkpt lat="43.17526853795051" lon="11.4849430732743"><ele>229.0</ele><time>2026-04-11T02:28:46.998Z</time></trkpt><trkpt lat="43.17533285963403" lon="11.484986100475851"><ele>229.0</ele><time>2026-04-11T02:28:48.998Z</time></trkpt><trkpt lat="43.1754159157885" lon="11.484987645599647"><ele>228.99999999999997</ele><time>2026-04-11T02:28:51.998Z</time></trkpt><trkpt lat="43.1754875085372" lon="11.484884404565818"><ele>229.0</ele><time>2026-04-11T02:28:54.998Z</time></trkpt><trkpt lat="43.17554581483488" lon="11.48477627003067"><ele>229.0</ele><time>2026-04-11T02:28:56.998Z</time></trkpt><trkpt lat="43.17560501751485" lon="11.484664103412152"><ele>228.99999999999997</ele><time>2026-04-11T02:28:58.998Z</time></trkpt><trkpt lat="43.175667717764725" lon="11.484543609474862"><ele>228.99999999999997</ele><time>2026-04-11T02:29:00.998Z</time></trkpt><trkpt lat="43.175747090837426" lon="11.484442464701614"><ele>229.0</ele><time>2026-04-11T02:29:02.998Z</time></trkpt><trkpt lat="43.17579790120638" lon="11.484321528117547"><ele>229.0</ele><time>2026-04-11T02:29:04.998Z</time></trkpt><trkpt lat="43.175836893597115" lon="11.48416372633674"><ele>229.0</ele><time>2026-04-11T02:29:06.998Z</time></trkpt><trkpt lat="43.17584143251824" lon="11.483993978518512"><ele>228.99999999999997</ele><time>2026-04-11T02:29:09Z</time></trkpt><trkpt lat="43.17583545696924" lon="11.483905798025923"><ele>228.99999999999997</ele><time>2026-04-11T02:29:10Z</time></trkpt><trkpt lat="43.17582233217559" lon="11.483727977089876"><ele>229.0</ele><time>2026-04-11T02:29:12Z</time></trkpt><trkpt lat="43.175814322103996" lon="11.483631506240247"><ele>229.0</ele><time>2026-04-11T02:29:13Z</time></trkpt><trkpt lat="43.17580662730775" lon="11.48353883227509"><ele>227.39999999999998</ele><time>2026-04-11T02:29:14Z</time></trkpt><trkpt lat="43.17579340133728" lon="11.483375452412767"><ele>225.79999999999998</ele><time>2026-04-11T02:29:16Z</time></trkpt><trkpt lat="43.17578678092489" lon="11.483277224389218"><ele>224.20000000000002</ele><time>2026-04-11T02:29:17Z</time></trkpt><trkpt lat="43.17578020444165" lon="11.483179648508873"><ele>222.60000000000002</ele><time>2026-04-11T02:29:18Z</time></trkpt><trkpt lat="43.17576974541003" lon="11.483024466450315"><ele>221.0</ele><time>2026-04-11T02:29:20Z</time></trkpt><trkpt lat="43.17575380280099" lon="11.482879975958047"><ele>220.0</ele><time>2026-04-11T02:29:22Z</time></trkpt><trkpt lat="43.17572786280605" lon="11.482771332916629"><ele>219.00000000000003</ele><time>2026-04-11T02:29:24Z</time></trkpt><trkpt lat="43.17567737897204" lon="11.482690021408699"><ele>218.00000000000003</ele><time>2026-04-11T02:29:26Z</time></trkpt><trkpt lat="43.175629726774986" lon="11.482601116380511"><ele>217.0</ele><time>2026-04-11T02:29:28Z</time></trkpt><trkpt lat="43.175636028578786" lon="11.482443708522531"><ele>216.0</ele><time>2026-04-11T02:29:30Z</time></trkpt><trkpt lat="43.175653750581674" lon="11.482268055019313"><ele>214.20000000000002</ele><time>2026-04-11T02:29:32Z</time></trkpt><trkpt lat="43.17566696226613" lon="11.482171281370047"><ele>212.40000000000003</ele><time>2026-04-11T02:29:33Z</time></trkpt><trkpt lat="43.17568333156268" lon="11.482083172808672"><ele>210.6</ele><time>2026-04-11T02:29:34Z</time></trkpt><trkpt lat="43.17571673087462" lon="11.481924925549551"><ele>208.8</ele><time>2026-04-11T02:29:36Z</time></trkpt><trkpt lat="43.17575158938241" lon="11.48179748761126"><ele>207.0</ele><time>2026-04-11T02:29:38Z</time></trkpt><trkpt lat="43.175815400229524" lon="11.48170617605716"><ele>207.0</ele><time>2026-04-11T02:29:40Z</time></trkpt><trkpt lat="43.175891416317086" lon="11.481635855030897"><ele>207.0</ele><time>2026-04-11T02:29:42Z</time></trkpt><trkpt lat="43.17597767537449" lon="11.481539145302301"><ele>207.0</ele><time>2026-04-11T02:29:44Z</time></trkpt><trkpt lat="43.17604741826223" lon="11.481404129998577"><ele>207.0</ele><time>2026-04-11T02:29:46Z</time></trkpt><trkpt lat="43.17605458662071" lon="11.48131681990867"><ele>207.0</ele><time>2026-04-11T02:29:47Z</time></trkpt><trkpt lat="43.17609169302527" lon="11.481172815897368"><ele>205.2</ele><time>2026-04-11T02:29:49Z</time></trkpt><trkpt lat="43.17612686776705" lon="11.481036295875255"><ele>203.39999999999998</ele><time>2026-04-11T02:29:51Z</time></trkpt><trkpt lat="43.17614349129582" lon="11.480895462456667"><ele>201.60000000000002</ele><time>2026-04-11T02:29:53Z</time></trkpt><trkpt lat="43.17614752703961" lon="11.480723525096677"><ele>199.8</ele><time>2026-04-11T02:29:54.999Z</time></trkpt><trkpt lat="43.17615641561885" lon="11.480636194403552"><ele>198.0</ele><time>2026-04-11T02:29:55.999Z</time></trkpt><trkpt lat="43.176175736564026" lon="11.480475736455613"><ele>197.16666666666666</ele><time>2026-04-11T02:29:57.999Z</time></trkpt><trkpt lat="43.176193194747505" lon="11.480353228331067"><ele>196.33333333333331</ele><time>2026-04-11T02:29:59.999Z</time></trkpt><trkpt lat="43.17621685835038" lon="11.48024538619412"><ele>195.5</ele><time>2026-04-11T02:30:01.999Z</time></trkpt><trkpt lat="43.17626050794963" lon="11.480154565638985"><ele>194.66666666666666</ele><time>2026-04-11T02:30:03.999Z</time></trkpt><trkpt lat="43.17631720246434" lon="11.480073990187798"><ele>193.83333333333331</ele><time>2026-04-11T02:30:05.999Z</time></trkpt><trkpt lat="43.176388021958694" lon="11.47998439117135"><ele>193.0</ele><time>2026-04-11T02:30:07.999Z</time></trkpt><trkpt lat="43.176456925139945" lon="11.479894198271449"><ele>193.4</ele><time>2026-04-11T02:30:09.999Z</time></trkpt><trkpt lat="43.17652294273587" lon="11.47980650520779"><ele>193.8</ele><time>2026-04-11T02:30:11.999Z</time></trkpt><trkpt lat="43.17658179887503" lon="11.47970949768206"><ele>194.2</ele><time>2026-04-11T02:30:13.999Z</time></trkpt><trkpt lat="43.17663209066966" lon="11.47960502876013"><ele>194.6</ele><time>2026-04-11T02:30:15.999Z</time></trkpt><trkpt lat="43.17667470921725" lon="11.479490998609648"><ele>195.0</ele><time>2026-04-11T02:30:17.999Z</time></trkpt><trkpt lat="43.17670088147513" lon="11.479370993335765"><ele>193.66666666666666</ele><time>2026-04-11T02:30:19.999Z</time></trkpt><trkpt lat="43.176713093094406" lon="11.479256298082419"><ele>192.33333333333334</ele><time>2026-04-11T02:30:21.999Z</time></trkpt><trkpt lat="43.17671659167196" lon="11.479138592307399"><ele>191.0</ele><time>2026-04-11T02:30:23.999Z</time></trkpt><trkpt lat="43.17670751757212" lon="11.479026086212668"><ele>189.66666666666669</ele><time>2026-04-11T02:30:25.999Z</time></trkpt><trkpt lat="43.17669326273284" lon="11.4789029751855"><ele>188.33333333333334</ele><time>2026-04-11T02:30:27.999Z</time></trkpt><trkpt lat="43.17667813563736" lon="11.47878530803972"><ele>187.0</ele><time>2026-04-11T02:30:29.999Z</time></trkpt><trkpt lat="43.17666509414358" lon="11.478675831724685"><ele>185.66666666666669</ele><time>2026-04-11T02:30:31.999Z</time></trkpt><trkpt lat="43.17665945525071" lon="11.478555522535734"><ele>184.33333333333334</ele><time>2026-04-11T02:30:33.999Z</time></trkpt><trkpt lat="43.17666416892084" lon="11.478416301776512"><ele>183.0</ele><time>2026-04-11T02:30:35.999Z</time></trkpt><trkpt lat="43.176672707001465" lon="11.47829558360687"><ele>181.66666666666666</ele><time>2026-04-11T02:30:37.999Z</time></trkpt><trkpt lat="43.17668418969558" lon="11.478193913621844"><ele>180.33333333333331</ele><time>2026-04-11T02:30:39.999Z</time></trkpt><trkpt lat="43.176702218737525" lon="11.478083052290524"><ele>179.0</ele><time>2026-04-11T02:30:41.999Z</time></trkpt><trkpt lat="43.17671943193627" lon="11.477967966484297"><ele>177.33333333333331</ele><time>2026-04-11T02:30:43.999Z</time></trkpt><trkpt lat="43.17673746782226" lon="11.477857934991437"><ele>175.66666666666666</ele><time>2026-04-11T02:30:45.998Z</time></trkpt><trkpt lat="43.17675886262673" lon="11.477760128983812"><ele>174.0</ele><time>2026-04-11T02:30:47.998Z</time></trkpt><trkpt lat="43.17679835854766" lon="11.477667729688445"><ele>172.33333333333334</ele><time>2026-04-11T02:30:49.998Z</time></trkpt><trkpt lat="43.17686313060122" lon="11.477593618064526"><ele>170.66666666666669</ele><time>2026-04-11T02:30:51.998Z</time></trkpt><trkpt lat="43.176959972272805" lon="11.477535888377968"><ele>169.0</ele><time>2026-04-11T02:30:53.998Z</time></trkpt><trkpt lat="43.17706398680725" lon="11.477526036936457"><ele>169.0</ele><time>2026-04-11T02:30:55.998Z</time></trkpt><trkpt lat="43.17717568676762" lon="11.47750085177562"><ele>169.0</ele><time>2026-04-11T02:30:57.998Z</time></trkpt><trkpt lat="43.17728639408391" lon="11.4774805679923"><ele>169.0</ele><time>2026-04-11T02:30:59.998Z</time></trkpt><trkpt lat="43.177398294190716" lon="11.477461584638503"><ele>169.0</ele><time>2026-04-11T02:31:01.998Z</time></trkpt><trkpt lat="43.17750914424139" lon="11.477443426801932"><ele>169.0</ele><time>2026-04-11T02:31:03.998Z</time></trkpt><trkpt lat="43.17763707497529" lon="11.47742564972238"><ele>167.66666666666669</ele><time>2026-04-11T02:31:05.998Z</time></trkpt><trkpt lat="43.17770416015345" lon="11.477416327665033"><ele>166.33333333333334</ele><time>2026-04-11T02:31:06.998Z</time></trkpt><trkpt lat="43.17783311669498" lon="11.47739829349058"><ele>165.0</ele><time>2026-04-11T02:31:08.998Z</time></trkpt><trkpt lat="43.177902222139835" lon="11.477388286746148"><ele>163.66666666666666</ele><time>2026-04-11T02:31:09.998Z</time></trkpt><trkpt lat="43.17797327853892" lon="11.477377997486503"><ele>162.33333333333331</ele><time>2026-04-11T02:31:10.998Z</time></trkpt><trkpt lat="43.17804482851112" lon="11.477367636775105"><ele>161.0</ele><time>2026-04-11T02:31:11.998Z</time></trkpt><trkpt lat="43.17811554387284" lon="11.477357396893742"><ele>161.0</ele><time>2026-04-11T02:31:13Z</time></trkpt><trkpt lat="43.178183110559075" lon="11.477347076451354"><ele>161.0</ele><time>2026-04-11T02:31:14Z</time></trkpt><trkpt lat="43.17824775719097" lon="11.47733569525584"><ele>161.0</ele><time>2026-04-11T02:31:15Z</time></trkpt><trkpt lat="43.178312068514046" lon="11.47732437308883"><ele>161.0</ele><time>2026-04-11T02:31:16Z</time></trkpt><trkpt lat="43.17837811240617" lon="11.477311515833009"><ele>161.0</ele><time>2026-04-11T02:31:17Z</time></trkpt><trkpt lat="43.178442825082" lon="11.47729736209901"><ele>161.0</ele><time>2026-04-11T02:31:18Z</time></trkpt><trkpt lat="43.17850396427238" lon="11.47725872166361"><ele>161.0</ele><time>2026-04-11T02:31:19Z</time></trkpt><trkpt lat="43.178568898346114" lon="11.477242456455915"><ele>160.33333333333331</ele><time>2026-04-11T02:31:20Z</time></trkpt><trkpt lat="43.178638660098564" lon="11.477244167048454"><ele>159.66666666666666</ele><time>2026-04-11T02:31:21Z</time></trkpt><trkpt lat="43.17870562919723" lon="11.477224742698299"><ele>159.0</ele><time>2026-04-11T02:31:22Z</time></trkpt><trkpt lat="43.178773309680054" lon="11.477205111938023"><ele>158.33333333333334</ele><time>2026-04-11T02:31:23Z</time></trkpt><trkpt lat="43.17883988596844" lon="11.477185801584941"><ele>157.66666666666669</ele><time>2026-04-11T02:31:24Z</time></trkpt><trkpt lat="43.17896248854236" lon="11.477150240706843"><ele>157.0</ele><time>2026-04-11T02:31:26Z</time></trkpt><trkpt lat="43.1790260390734" lon="11.477133364294907"><ele>156.6</ele><time>2026-04-11T02:31:27Z</time></trkpt><trkpt lat="43.179090334181396" lon="11.47711675924362"><ele>156.2</ele><time>2026-04-11T02:31:28Z</time></trkpt><trkpt lat="43.179153665142906" lon="11.477101456599824"><ele>155.8</ele><time>2026-04-11T02:31:29Z</time></trkpt><trkpt lat="43.179275908334716" lon="11.47709165037751"><ele>155.4</ele><time>2026-04-11T02:31:31Z</time></trkpt><trkpt lat="43.17939745717621" lon="11.47709925332843"><ele>155.0</ele><time>2026-04-11T02:31:33Z</time></trkpt><trkpt lat="43.179517881571776" lon="11.477117686635198"><ele>155.0</ele><time>2026-04-11T02:31:35Z</time></trkpt><trkpt lat="43.17962576577385" lon="11.47714516932567"><ele>155.0</ele><time>2026-04-11T02:31:37Z</time></trkpt><trkpt lat="43.17972835025237" lon="11.477173280404266"><ele>155.0</ele><time>2026-04-11T02:31:39Z</time></trkpt><trkpt lat="43.179828351035226" lon="11.47720068344184"><ele>155.0</ele><time>2026-04-11T02:31:41Z</time></trkpt><trkpt lat="43.179922268782924" lon="11.47722689729007"><ele>155.0</ele><time>2026-04-11T02:31:43Z</time></trkpt><trkpt lat="43.18001473353422" lon="11.477253518299598"><ele>155.0</ele><time>2026-04-11T02:31:45Z</time></trkpt><trkpt lat="43.18010403776249" lon="11.477279229368836"><ele>155.0</ele><time>2026-04-11T02:31:47Z</time></trkpt><trkpt lat="43.180194779373934" lon="11.477305047331539"><ele>155.0</ele><time>2026-04-11T02:31:49Z</time></trkpt><trkpt lat="43.18028386022061" lon="11.477328650462088"><ele>155.0</ele><time>2026-04-11T02:31:51Z</time></trkpt><trkpt lat="43.18037374581541" lon="11.477351603170519"><ele>155.0</ele><time>2026-04-11T02:31:53Z</time></trkpt><trkpt lat="43.180473996585754" lon="11.477341974261394"><ele>155.0</ele><time>2026-04-11T02:31:55Z</time></trkpt><trkpt lat="43.180581046929404" lon="11.477397269061804"><ele>155.0</ele><time>2026-04-11T02:31:57Z</time></trkpt><trkpt lat="43.18068796590568" lon="11.477419128044255"><ele>155.0</ele><time>2026-04-11T02:31:58.999Z</time></trkpt><trkpt lat="43.18078969211316" lon="11.477439925382798"><ele>155.0</ele><time>2026-04-11T02:32:00.999Z</time></trkpt><trkpt lat="43.18088376820461" lon="11.477459217565992"><ele>155.0</ele><time>2026-04-11T02:32:02.999Z</time></trkpt><trkpt lat="43.180979372185654" lon="11.477481129096653"><ele>155.2</ele><time>2026-04-11T02:32:04.999Z</time></trkpt><trkpt lat="43.181072680482046" lon="11.4775025144496"><ele>155.4</ele><time>2026-04-11T02:32:06.999Z</time></trkpt><trkpt lat="43.18117024638878" lon="11.477525704855747"><ele>155.6</ele><time>2026-04-11T02:32:08.999Z</time></trkpt><trkpt lat="43.18127091074102" lon="11.477551976123065"><ele>155.8</ele><time>2026-04-11T02:32:10.999Z</time></trkpt><trkpt lat="43.18137148102994" lon="11.47757969481297"><ele>156.0</ele><time>2026-04-11T02:32:12.999Z</time></trkpt><trkpt lat="43.18147146163526" lon="11.477608035875559"><ele>156.0</ele><time>2026-04-11T02:32:14.999Z</time></trkpt><trkpt lat="43.18157311571921" lon="11.477638115702899"><ele>156.0</ele><time>2026-04-11T02:32:16.999Z</time></trkpt><trkpt lat="43.18167408290875" lon="11.477667992268968"><ele>156.0</ele><time>2026-04-11T02:32:18.999Z</time></trkpt><trkpt lat="43.18177659493576" lon="11.477698325972082"><ele>156.0</ele><time>2026-04-11T02:32:20.999Z</time></trkpt><trkpt lat="43.18188030578967" lon="11.477730252507437"><ele>156.0</ele><time>2026-04-11T02:32:22.999Z</time></trkpt><trkpt lat="43.181982015856946" lon="11.477762230230619"><ele>156.0</ele><time>2026-04-11T02:32:24.999Z</time></trkpt><trkpt lat="43.1820831101898" lon="11.47779401441982"><ele>156.0</ele><time>2026-04-11T02:32:26.999Z</time></trkpt><trkpt lat="43.18223729958842" lon="11.477815583245103"><ele>156.0</ele><time>2026-04-11T02:32:29.999Z</time></trkpt><trkpt lat="43.18233332782762" lon="11.47785359323088"><ele>156.0</ele><time>2026-04-11T02:32:31.999Z</time></trkpt><trkpt lat="43.18244204945955" lon="11.477823723707601"><ele>155.8</ele><time>2026-04-11T02:32:33.999Z</time></trkpt><trkpt lat="43.18249612487061" lon="11.477777625880016"><ele>155.6</ele><time>2026-04-11T02:32:34.999Z</time></trkpt><trkpt lat="43.18259485681378" lon="11.477693781801317"><ele>155.4</ele><time>2026-04-11T02:32:36.999Z</time></trkpt><trkpt lat="43.182693089259345" lon="11.477609565558534"><ele>155.2</ele><time>2026-04-11T02:32:38.999Z</time></trkpt><trkpt lat="43.18279403872282" lon="11.477523020002204"><ele>155.0</ele><time>2026-04-11T02:32:40.999Z</time></trkpt><trkpt lat="43.18289502900204" lon="11.477436439415346"><ele>155.0</ele><time>2026-04-11T02:32:42.999Z</time></trkpt><trkpt lat="43.18299671625067" lon="11.477349261246914"><ele>155.0</ele><time>2026-04-11T02:32:44.999Z</time></trkpt><trkpt lat="43.183098274759786" lon="11.477262193507784"><ele>155.0</ele><time>2026-04-11T02:32:46.999Z</time></trkpt><trkpt lat="43.183199576955204" lon="11.477177286918167"><ele>155.0</ele><time>2026-04-11T02:32:48.999Z</time></trkpt><trkpt lat="43.18326180185298" lon="11.477127302465586"><ele>155.0</ele><time>2026-04-11T02:32:49.998Z</time></trkpt><trkpt lat="43.1833162119874" lon="11.4770835955331"><ele>154.5</ele><time>2026-04-11T02:32:50.998Z</time></trkpt><trkpt lat="43.183410682746874" lon="11.477007708408816"><ele>154.0</ele><time>2026-04-11T02:32:52.998Z</time></trkpt><trkpt lat="43.18351160705836" lon="11.476926637265482"><ele>153.5</ele><time>2026-04-11T02:32:54.998Z</time></trkpt><trkpt lat="43.18361453876869" lon="11.476843953604984"><ele>153.0</ele><time>2026-04-11T02:32:56.998Z</time></trkpt><trkpt lat="43.18371776003854" lon="11.476761037323648"><ele>153.0</ele><time>2026-04-11T02:32:58.998Z</time></trkpt><trkpt lat="43.18381932928367" lon="11.476679448099874"><ele>153.0</ele><time>2026-04-11T02:33:00.998Z</time></trkpt><trkpt lat="43.183922953940645" lon="11.476596207768958"><ele>153.0</ele><time>2026-04-11T02:33:02.998Z</time></trkpt><trkpt lat="43.184027580985465" lon="11.476512526591026"><ele>153.0</ele><time>2026-04-11T02:33:04.998Z</time></trkpt><trkpt lat="43.18413225801932" lon="11.476429334586001"><ele>153.25</ele><time>2026-04-11T02:33:06.998Z</time></trkpt><trkpt lat="43.184239301094536" lon="11.476344262062911"><ele>153.5</ele><time>2026-04-11T02:33:08.998Z</time></trkpt><trkpt lat="43.18434534365094" lon="11.476259984728339"><ele>153.75</ele><time>2026-04-11T02:33:10.998Z</time></trkpt><trkpt lat="43.18444664332329" lon="11.476178251452342"><ele>154.0</ele><time>2026-04-11T02:33:12.998Z</time></trkpt><trkpt lat="43.18454418972741" lon="11.476098788946747"><ele>154.0</ele><time>2026-04-11T02:33:14.998Z</time></trkpt><trkpt lat="43.18464046807432" lon="11.476019621375599"><ele>154.0</ele><time>2026-04-11T02:33:16.998Z</time></trkpt><trkpt lat="43.18473640719348" lon="11.47593952086302"><ele>154.0</ele><time>2026-04-11T02:33:19Z</time></trkpt><trkpt lat="43.18483243953791" lon="11.475859342478461"><ele>154.0</ele><time>2026-04-11T02:33:21Z</time></trkpt><trkpt lat="43.18492984158964" lon="11.475778031057619"><ele>154.25</ele><time>2026-04-11T02:33:23Z</time></trkpt><trkpt lat="43.1850286208804" lon="11.47569505704135"><ele>154.5</ele><time>2026-04-11T02:33:25Z</time></trkpt><trkpt lat="43.18512198289411" lon="11.475616633652827"><ele>154.75</ele><time>2026-04-11T02:33:27Z</time></trkpt><trkpt lat="43.18521902443713" lon="11.475535119372037"><ele>155.0</ele><time>2026-04-11T02:33:29Z</time></trkpt><trkpt lat="43.18531387780582" lon="11.475455443219882"><ele>154.75</ele><time>2026-04-11T02:33:31Z</time></trkpt><trkpt lat="43.18540849609191" lon="11.475375964474404"><ele>154.5</ele><time>2026-04-11T02:33:33Z</time></trkpt><trkpt lat="43.18550449863395" lon="11.475295322925673"><ele>154.25</ele><time>2026-04-11T02:33:35Z</time></trkpt><trkpt lat="43.18560037816108" lon="11.475212091822929"><ele>154.0</ele><time>2026-04-11T02:33:37Z</time></trkpt><trkpt lat="43.18568947915766" lon="11.475109689938222"><ele>154.0</ele><time>2026-04-11T02:33:39Z</time></trkpt><trkpt lat="43.18578727364293" lon="11.475035167684325"><ele>154.0</ele><time>2026-04-11T02:33:41Z</time></trkpt><trkpt lat="43.18588541034705" lon="11.474963634759256"><ele>154.0</ele><time>2026-04-11T02:33:43Z</time></trkpt><trkpt lat="43.185991271968945" lon="11.474924294543094"><ele>154.0</ele><time>2026-04-11T02:33:45Z</time></trkpt><trkpt lat="43.18609479146508" lon="11.474879375776005"><ele>154.0</ele><time>2026-04-11T02:33:47Z</time></trkpt><trkpt lat="43.186198175163085" lon="11.474854499433372"><ele>154.0</ele><time>2026-04-11T02:33:49Z</time></trkpt><trkpt lat="43.186303549858785" lon="11.474850156353622"><ele>154.0</ele><time>2026-04-11T02:33:51Z</time></trkpt><trkpt lat="43.18641520309566" lon="11.474850037467613"><ele>154.0</ele><time>2026-04-11T02:33:53Z</time></trkpt><trkpt lat="43.18651681734081" lon="11.474848856354587"><ele>154.0</ele><time>2026-04-11T02:33:55Z</time></trkpt><trkpt lat="43.186626624529865" lon="11.474846753441835"><ele>154.0</ele><time>2026-04-11T02:33:57Z</time></trkpt><trkpt lat="43.18673849828751" lon="11.474826989665312"><ele>154.2</ele><time>2026-04-11T02:33:59Z</time></trkpt><trkpt lat="43.18684697724325" lon="11.474808265047555"><ele>154.4</ele><time>2026-04-11T02:34:01Z</time></trkpt><trkpt lat="43.1869960002872" lon="11.47478585122754"><ele>154.6</ele><time>2026-04-11T02:34:04Z</time></trkpt><trkpt lat="43.18708944985203" lon="11.474778117238701"><ele>154.8</ele><time>2026-04-11T02:34:06Z</time></trkpt><trkpt lat="43.18717761224383" lon="11.47477403947267"><ele>155.0</ele><time>2026-04-11T02:34:08Z</time></trkpt><trkpt lat="43.18725777183964" lon="11.474783134685469"><ele>155.0</ele><time>2026-04-11T02:34:09.999Z</time></trkpt><trkpt lat="43.18733650207689" lon="11.474814119600017"><ele>155.0</ele><time>2026-04-11T02:34:11.999Z</time></trkpt><trkpt lat="43.18741176563521" lon="11.474860691357662"><ele>155.0</ele><time>2026-04-11T02:34:13.999Z</time></trkpt><trkpt lat="43.18747950757923" lon="11.474907396583992"><ele>155.0</ele><time>2026-04-11T02:34:15.999Z</time></trkpt><trkpt lat="43.18754950235792" lon="11.474959625856757"><ele>155.0</ele><time>2026-04-11T02:34:17.999Z</time></trkpt><trkpt lat="43.18762821009731" lon="11.475002075446568"><ele>155.0</ele><time>2026-04-11T02:34:19.999Z</time></trkpt><trkpt lat="43.18771209075951" lon="11.475019914828499"><ele>155.66666666666666</ele><time>2026-04-11T02:34:21.999Z</time></trkpt><trkpt lat="43.18779603575771" lon="11.47497649057831"><ele>156.33333333333331</ele><time>2026-04-11T02:34:23.999Z</time></trkpt><trkpt lat="43.18783108971658" lon="11.474898008623388"><ele>157.0</ele><time>2026-04-11T02:34:25.999Z</time></trkpt><trkpt lat="43.187890123189376" lon="11.474800421577934"><ele>157.66666666666666</ele><time>2026-04-11T02:34:27.999Z</time></trkpt><trkpt lat="43.18790992932362" lon="11.474683160358918"><ele>158.33333333333334</ele><time>2026-04-11T02:34:29.999Z</time></trkpt><trkpt lat="43.187932356882804" lon="11.474561895621987"><ele>159.0</ele><time>2026-04-11T02:34:31.999Z</time></trkpt><trkpt lat="43.18797559408142" lon="11.474455162985592"><ele>159.0</ele><time>2026-04-11T02:34:33.999Z</time></trkpt><trkpt lat="43.18803373487657" lon="11.474359070738922"><ele>159.0</ele><time>2026-04-11T02:34:35.999Z</time></trkpt><trkpt lat="43.18810661747181" lon="11.474286254461536"><ele>159.0</ele><time>2026-04-11T02:34:37.999Z</time></trkpt><trkpt lat="43.18817845336111" lon="11.47423109160946"><ele>159.0</ele><time>2026-04-11T02:34:39.999Z</time></trkpt><trkpt lat="43.188243481105594" lon="11.474192255196334"><ele>159.0</ele><time>2026-04-11T02:34:41.999Z</time></trkpt><trkpt lat="43.18830599106434" lon="11.474140790681881"><ele>159.0</ele><time>2026-04-11T02:34:43.999Z</time></trkpt><trkpt lat="43.18836350009509" lon="11.474079290565841"><ele>159.85714285714286</ele><time>2026-04-11T02:34:45.999Z</time></trkpt><trkpt lat="43.188425993579806" lon="11.474012621770763"><ele>160.71428571428572</ele><time>2026-04-11T02:34:47.999Z</time></trkpt><trkpt lat="43.18846407549711" lon="11.473939984365513"><ele>161.57142857142858</ele><time>2026-04-11T02:34:49.999Z</time></trkpt><trkpt lat="43.18850735420496" lon="11.473819654275506"><ele>162.42857142857144</ele><time>2026-04-11T02:34:52.999Z</time></trkpt><trkpt lat="43.188537267303744" lon="11.473730754027992"><ele>163.28571428571428</ele><time>2026-04-11T02:34:54.999Z</time></trkpt><trkpt lat="43.18856357035358" lon="11.473644062449722"><ele>164.14285714285717</ele><time>2026-04-11T02:34:56.999Z</time></trkpt><trkpt lat="43.1885886922858" lon="11.473559680768325"><ele>165.0</ele><time>2026-04-11T02:34:58.999Z</time></trkpt><trkpt lat="43.18861637179426" lon="11.473472037551852"><ele>165.00000000000003</ele><time>2026-04-11T02:35:00.998Z</time></trkpt><trkpt lat="43.18864088581658" lon="11.473389163105601"><ele>165.0</ele><time>2026-04-11T02:35:02.998Z</time></trkpt><trkpt lat="43.18866935429413" lon="11.473303590645159"><ele>165.0</ele><time>2026-04-11T02:35:04.998Z</time></trkpt><trkpt lat="43.18870191135014" lon="11.473221097532093"><ele>165.0</ele><time>2026-04-11T02:35:06.998Z</time></trkpt><trkpt lat="43.18873841746461" lon="11.473140065513167"><ele>165.0</ele><time>2026-04-11T02:35:08.998Z</time></trkpt><trkpt lat="43.188778363919106" lon="11.47305425127299"><ele>165.00000000000003</ele><time>2026-04-11T02:35:10.998Z</time></trkpt><trkpt lat="43.18882542014566" lon="11.472957894074"><ele>165.0</ele><time>2026-04-11T02:35:12.998Z</time></trkpt><trkpt lat="43.18887811972238" lon="11.472848168762786"><ele>164.2</ele><time>2026-04-11T02:35:14.998Z</time></trkpt><trkpt lat="43.18892499081734" lon="11.472724570164578"><ele>163.4</ele><time>2026-04-11T02:35:16.998Z</time></trkpt><trkpt lat="43.188960993865784" lon="11.472594624822403"><ele>162.60000000000002</ele><time>2026-04-11T02:35:18.998Z</time></trkpt><trkpt lat="43.189019864832964" lon="11.472474786614683"><ele>161.8</ele><time>2026-04-11T02:35:20.998Z</time></trkpt><trkpt lat="43.18905334625755" lon="11.472346210356841"><ele>161.0</ele><time>2026-04-11T02:35:22.998Z</time></trkpt><trkpt lat="43.18908742566088" lon="11.472215337705265"><ele>162.20000000000002</ele><time>2026-04-11T02:35:25Z</time></trkpt><trkpt lat="43.18912245817967" lon="11.47208080490801"><ele>163.4</ele><time>2026-04-11T02:35:27Z</time></trkpt><trkpt lat="43.189162289726156" lon="11.47195078709746"><ele>164.6</ele><time>2026-04-11T02:35:29Z</time></trkpt><trkpt lat="43.18921020964252" lon="11.471818064696716"><ele>165.8</ele><time>2026-04-11T02:35:31Z</time></trkpt><trkpt lat="43.189270694363486" lon="11.471691480200276"><ele>167.0</ele><time>2026-04-11T02:35:33Z</time></trkpt><trkpt lat="43.189348764032786" lon="11.471568475907606"><ele>167.0</ele><time>2026-04-11T02:35:35Z</time></trkpt><trkpt lat="43.18943960832635" lon="11.471454806479075"><ele>167.0</ele><time>2026-04-11T02:35:37Z</time></trkpt><trkpt lat="43.18954305708947" lon="11.47135783831828"><ele>167.0</ele><time>2026-04-11T02:35:39Z</time></trkpt><trkpt lat="43.18965755536566" lon="11.471283145447341"><ele>167.0</ele><time>2026-04-11T02:35:41Z</time></trkpt><trkpt lat="43.189768181699094" lon="11.471215389247275"><ele>166.5</ele><time>2026-04-11T02:35:43Z</time></trkpt><trkpt lat="43.18987747054325" lon="11.47115531294338"><ele>166.0</ele><time>2026-04-11T02:35:45Z</time></trkpt><trkpt lat="43.18999095338069" lon="11.471094009444359"><ele>165.5</ele><time>2026-04-11T02:35:47Z</time></trkpt><trkpt lat="43.19009759237129" lon="11.4710147268094"><ele>165.0</ele><time>2026-04-11T02:35:49Z</time></trkpt><trkpt lat="43.19019751020626" lon="11.470924921916021"><ele>165.0</ele><time>2026-04-11T02:35:51Z</time></trkpt><trkpt lat="43.190290720781434" lon="11.470827547909009"><ele>165.0</ele><time>2026-04-11T02:35:53Z</time></trkpt><trkpt lat="43.19038067174107" lon="11.47072807103786"><ele>165.0</ele><time>2026-04-11T02:35:55Z</time></trkpt><trkpt lat="43.19046002831971" lon="11.470632476358558"><ele>165.0</ele><time>2026-04-11T02:35:57Z</time></trkpt><trkpt lat="43.19053433175314" lon="11.470541324777038"><ele>165.0</ele><time>2026-04-11T02:35:59Z</time></trkpt><trkpt lat="43.19061728764961" lon="11.47044810404608"><ele>164.4</ele><time>2026-04-11T02:36:01Z</time></trkpt><trkpt lat="43.19069535163048" lon="11.470353412900941"><ele>163.8</ele><time>2026-04-11T02:36:02.999Z</time></trkpt><trkpt lat="43.1907651806141" lon="11.470233814803601"><ele>163.2</ele><time>2026-04-11T02:36:04.999Z</time></trkpt><trkpt lat="43.19083688555971" lon="11.47011577719172"><ele>162.6</ele><time>2026-04-11T02:36:06.999Z</time></trkpt><trkpt lat="43.190899139835906" lon="11.469979357155063"><ele>162.0</ele><time>2026-04-11T02:36:08.999Z</time></trkpt><trkpt lat="43.19093497684062" lon="11.469905194875306"><ele>162.0</ele><time>2026-04-11T02:36:09.999Z</time></trkpt><trkpt lat="43.190994652556604" lon="11.469766709817353"><ele>162.0</ele><time>2026-04-11T02:36:11.999Z</time></trkpt><trkpt lat="43.19105025186906" lon="11.469622079505552"><ele>162.0</ele><time>2026-04-11T02:36:13.999Z</time></trkpt><trkpt lat="43.19107932339999" lon="11.469544816569819"><ele>162.0</ele><time>2026-04-11T02:36:14.999Z</time></trkpt><trkpt lat="43.191136775722576" lon="11.469392127017858"><ele>162.0</ele><time>2026-04-11T02:36:16.999Z</time></trkpt><trkpt lat="43.19116761958445" lon="11.469316501813386"><ele>161.75</ele><time>2026-04-11T02:36:17.999Z</time></trkpt><trkpt lat="43.191237827590264" lon="11.469172690844177"><ele>161.5</ele><time>2026-04-11T02:36:19.999Z</time></trkpt><trkpt lat="43.1913241050223" lon="11.469048123116947"><ele>161.25</ele><time>2026-04-11T02:36:21.999Z</time></trkpt><trkpt lat="43.191418944895" lon="11.46894080410687"><ele>161.0</ele><time>2026-04-11T02:36:23.999Z</time></trkpt><trkpt lat="43.191515087720276" lon="11.468847457675274"><ele>160.60000000000002</ele><time>2026-04-11T02:36:25.999Z</time></trkpt><trkpt lat="43.19160855574218" lon="11.468758869632765"><ele>160.20000000000002</ele><time>2026-04-11T02:36:27.999Z</time></trkpt><trkpt lat="43.191698770147894" lon="11.468676259842544"><ele>159.8</ele><time>2026-04-11T02:36:29.999Z</time></trkpt><trkpt lat="43.19178711604846" lon="11.468595361030705"><ele>159.4</ele><time>2026-04-11T02:36:31.999Z</time></trkpt><trkpt lat="43.191867199112885" lon="11.46852202859877"><ele>159.0</ele><time>2026-04-11T02:36:33.999Z</time></trkpt><trkpt lat="43.19194585440935" lon="11.468450394264671"><ele>159.0</ele><time>2026-04-11T02:36:35.999Z</time></trkpt><trkpt lat="43.19204030937077" lon="11.468361190188348"><ele>159.0</ele><time>2026-04-11T02:36:37.999Z</time></trkpt><trkpt lat="43.1921396894952" lon="11.468261809907341"><ele>159.0</ele><time>2026-04-11T02:36:39.999Z</time></trkpt><trkpt lat="43.192230778920134" lon="11.468168519168486"><ele>159.0</ele><time>2026-04-11T02:36:41.999Z</time></trkpt><trkpt lat="43.19231720787763" lon="11.468081216012779"><ele>159.25</ele><time>2026-04-11T02:36:43.999Z</time></trkpt><trkpt lat="43.192409560295204" lon="11.467988289701863"><ele>159.5</ele><time>2026-04-11T02:36:45.999Z</time></trkpt><trkpt lat="43.19250167861278" lon="11.467896439148035"><ele>159.75</ele><time>2026-04-11T02:36:47.999Z</time></trkpt><trkpt lat="43.192591447589336" lon="11.46780822025246"><ele>160.0</ele><time>2026-04-11T02:36:49.998Z</time></trkpt><trkpt lat="43.19268263456139" lon="11.467718607838073"><ele>159.2</ele><time>2026-04-11T02:36:51.998Z</time></trkpt><trkpt lat="43.192785731620525" lon="11.467617291004517"><ele>158.4</ele><time>2026-04-11T02:36:53.998Z</time></trkpt><trkpt lat="43.19283781291403" lon="11.467566109012562"><ele>157.6</ele><time>2026-04-11T02:36:54.998Z</time></trkpt><trkpt lat="43.19293970764505" lon="11.467465973743534"><ele>156.8</ele><time>2026-04-11T02:36:56.998Z</time></trkpt><trkpt lat="43.19303907928706" lon="11.467368317995227"><ele>156.0</ele><time>2026-04-11T02:36:58.998Z</time></trkpt><trkpt lat="43.19313125367388" lon="11.467280121000114"><ele>156.0</ele><time>2026-04-11T02:37:00.998Z</time></trkpt><trkpt lat="43.193226304816754" lon="11.467191058982184"><ele>156.0</ele><time>2026-04-11T02:37:02.998Z</time></trkpt><trkpt lat="43.193325043776966" lon="11.467102302295096"><ele>156.0</ele><time>2026-04-11T02:37:04.998Z</time></trkpt><trkpt lat="43.19342282292055" lon="11.467013668884073"><ele>156.0</ele><time>2026-04-11T02:37:06.998Z</time></trkpt><trkpt lat="43.193526902238744" lon="11.466917580970854"><ele>156.0</ele><time>2026-04-11T02:37:08.998Z</time></trkpt><trkpt lat="43.19357998423996" lon="11.466868312260637"><ele>156.0</ele><time>2026-04-11T02:37:09.998Z</time></trkpt><trkpt lat="43.1936322958418" lon="11.466819758617271"><ele>156.0</ele><time>2026-04-11T02:37:10.998Z</time></trkpt><trkpt lat="43.19368798551142" lon="11.466768069578363"><ele>156.0</ele><time>2026-04-11T02:37:11.998Z</time></trkpt><trkpt lat="43.19374668653764" lon="11.466717505682583"><ele>156.0</ele><time>2026-04-11T02:37:12.998Z</time></trkpt><trkpt lat="43.19380419738412" lon="11.466668069618668"><ele>156.0</ele><time>2026-04-11T02:37:13.998Z</time></trkpt><trkpt lat="43.1938597892751" lon="11.46662028308027"><ele>156.0</ele><time>2026-04-11T02:37:14.998Z</time></trkpt><trkpt lat="43.19391516300346" lon="11.466572684068915"><ele>156.0</ele><time>2026-04-11T02:37:15.998Z</time></trkpt><trkpt lat="43.193972075404545" lon="11.466522963160436"><ele>156.0</ele><time>2026-04-11T02:37:16.998Z</time></trkpt><trkpt lat="43.194074561373846" lon="11.466430884157125"><ele>156.0</ele><time>2026-04-11T02:37:18.998Z</time></trkpt><trkpt lat="43.19417589277525" lon="11.466332899367346"><ele>156.0</ele><time>2026-04-11T02:37:20.998Z</time></trkpt><trkpt lat="43.19422803168046" lon="11.466278888186304"><ele>156.0</ele><time>2026-04-11T02:37:21.998Z</time></trkpt><trkpt lat="43.194279015272436" lon="11.46622607380715"><ele>156.0</ele><time>2026-04-11T02:37:22.998Z</time></trkpt><trkpt lat="43.19436910078351" lon="11.466134019364107"><ele>155.83333333333334</ele><time>2026-04-11T02:37:24.998Z</time></trkpt><trkpt lat="43.194443370300405" lon="11.466061588553204"><ele>155.66666666666666</ele><time>2026-04-11T02:37:26.998Z</time></trkpt><trkpt lat="43.19451580765901" lon="11.465995440423223"><ele>155.5</ele><time>2026-04-11T02:37:28.998Z</time></trkpt><trkpt lat="43.19458205071082" lon="11.465935121084204"><ele>155.33333333333331</ele><time>2026-04-11T02:37:31Z</time></trkpt><trkpt lat="43.19464862026546" lon="11.465873378051642"><ele>155.16666666666666</ele><time>2026-04-11T02:37:33Z</time></trkpt><trkpt lat="43.19471723182022" lon="11.465807814613843"><ele>155.0</ele><time>2026-04-11T02:37:35Z</time></trkpt><trkpt lat="43.19478607907078" lon="11.465736699722571"><ele>155.0</ele><time>2026-04-11T02:37:37Z</time></trkpt><trkpt lat="43.19486334743252" lon="11.465693767101184"><ele>155.0</ele><time>2026-04-11T02:37:40Z</time></trkpt><trkpt lat="43.19491190150527" lon="11.465793080923767"><ele>155.0</ele><time>2026-04-11T02:37:42Z</time></trkpt><trkpt lat="43.19496953624131" lon="11.465885762853993"><ele>155.0</ele><time>2026-04-11T02:37:44Z</time></trkpt><trkpt lat="43.19503258296769" lon="11.465967826142476"><ele>155.0</ele><time>2026-04-11T02:37:46Z</time></trkpt><trkpt lat="43.195101515322044" lon="11.46602832846867"><ele>155.0</ele><time>2026-04-11T02:37:48Z</time></trkpt><trkpt lat="43.19515890670183" lon="11.466102155167267"><ele>155.0</ele><time>2026-04-11T02:37:50Z</time></trkpt><trkpt lat="43.1952159828423" lon="11.466174993943902"><ele>155.0</ele><time>2026-04-11T02:37:52Z</time></trkpt><trkpt lat="43.19527194685247" lon="11.466253771673331"><ele>155.0</ele><time>2026-04-11T02:37:54Z</time></trkpt><trkpt lat="43.19532846625094" lon="11.466332112761505"><ele>155.0</ele><time>2026-04-11T02:37:56Z</time></trkpt><trkpt lat="43.19536828374578" lon="11.466430987205788"><ele>155.0</ele><time>2026-04-11T02:37:58Z</time></trkpt><trkpt lat="43.19540044242314" lon="11.466534561843135"><ele>155.0</ele><time>2026-04-11T02:38:00Z</time></trkpt><trkpt lat="43.195422185622675" lon="11.466644051590444"><ele>155.5</ele><time>2026-04-11T02:38:02Z</time></trkpt><trkpt lat="43.19543778452359" lon="11.466740428768288"><ele>156.0</ele><time>2026-04-11T02:38:04Z</time></trkpt><trkpt lat="43.19544697649881" lon="11.466843307757904"><ele>156.5</ele><time>2026-04-11T02:38:07Z</time></trkpt><trkpt lat="43.19546191276828" lon="11.466969357443624"><ele>157.0</ele><time>2026-04-11T02:38:10Z</time></trkpt><trkpt lat="43.19547724033378" lon="11.467087459473369"><ele>157.5</ele><time>2026-04-11T02:38:12Z</time></trkpt><trkpt lat="43.19548996111403" lon="11.46719622430688"><ele>158.0</ele><time>2026-04-11T02:38:15Z</time></trkpt><trkpt lat="43.19551067534582" lon="11.467304367472869"><ele>158.2857142857143</ele><time>2026-04-11T02:38:18Z</time></trkpt><trkpt lat="43.195532859201236" lon="11.467404987044214"><ele>158.57142857142858</ele><time>2026-04-11T02:38:20.999Z</time></trkpt><trkpt lat="43.195580293956716" lon="11.467499687357268"><ele>158.85714285714286</ele><time>2026-04-11T02:38:24.999Z</time></trkpt><trkpt lat="43.19562673299035" lon="11.467561498844093"><ele>159.14285714285717</ele><time>2026-04-11T02:38:26.999Z</time></trkpt><trkpt lat="43.19568947432799" lon="11.46759724095211"><ele>159.42857142857144</ele><time>2026-04-11T02:38:29.999Z</time></trkpt><trkpt lat="43.19574850077906" lon="11.467633956087134"><ele>159.71428571428572</ele><time>2026-04-11T02:38:32.999Z</time></trkpt><trkpt lat="43.1958156993289" lon="11.467652454612477"><ele>160.0</ele><time>2026-04-11T02:38:35.999Z</time></trkpt><trkpt lat="43.19588341349511" lon="11.467668092691797"><ele>160.71428571428572</ele><time>2026-04-11T02:38:38.999Z</time></trkpt><trkpt lat="43.19594871189824" lon="11.467696369019318"><ele>161.42857142857144</ele><time>2026-04-11T02:38:41.999Z</time></trkpt><trkpt lat="43.196019413376234" lon="11.467725436626111"><ele>162.14285714285717</ele><time>2026-04-11T02:38:44.999Z</time></trkpt><trkpt lat="43.196085594996006" lon="11.46776245932529"><ele>162.85714285714286</ele><time>2026-04-11T02:38:47.999Z</time></trkpt><trkpt lat="43.19614851042387" lon="11.467822235709109"><ele>163.57142857142858</ele><time>2026-04-11T02:38:51.999Z</time></trkpt><trkpt lat="43.196202811434766" lon="11.467876265394604"><ele>164.2857142857143</ele><time>2026-04-11T02:38:54.999Z</time></trkpt><trkpt lat="43.19625844548988" lon="11.467936491803156"><ele>165.0</ele><time>2026-04-11T02:38:57.999Z</time></trkpt><trkpt lat="43.196309559155324" lon="11.468004343480615"><ele>165.2857142857143</ele><time>2026-04-11T02:39:00.999Z</time></trkpt><trkpt lat="43.19635755442975" lon="11.468085466304386"><ele>165.57142857142858</ele><time>2026-04-11T02:39:03.999Z</time></trkpt><trkpt lat="43.19641770857722" lon="11.468179655435973"><ele>165.85714285714286</ele><time>2026-04-11T02:39:06.999Z</time></trkpt><trkpt lat="43.19645954662307" lon="11.46826156439919"><ele>166.14285714285717</ele><time>2026-04-11T02:39:09.999Z</time></trkpt><trkpt lat="43.1965017398537" lon="11.46833433828735"><ele>166.42857142857144</ele><time>2026-04-11T02:39:12.999Z</time></trkpt><trkpt lat="43.19654504895038" lon="11.468419176336845"><ele>166.71428571428572</ele><time>2026-04-11T02:39:15.998Z</time></trkpt><trkpt lat="43.196571928093746" lon="11.468498013744465"><ele>167.0</ele><time>2026-04-11T02:39:17.998Z</time></trkpt><trkpt lat="43.196593478603056" lon="11.468594297776153"><ele>168.14285714285714</ele><time>2026-04-11T02:39:20.998Z</time></trkpt><trkpt lat="43.19660408385766" lon="11.468684362386814"><ele>169.28571428571428</ele><time>2026-04-11T02:39:22.998Z</time></trkpt><trkpt lat="43.19661413334026" lon="11.468797671977336"><ele>170.42857142857144</ele><time>2026-04-11T02:39:25.998Z</time></trkpt><trkpt lat="43.196637287101105" lon="11.468898008589736"><ele>171.57142857142856</ele><time>2026-04-11T02:39:28.998Z</time></trkpt><trkpt lat="43.19667828596795" lon="11.468979055028111"><ele>172.71428571428572</ele><time>2026-04-11T02:39:31.998Z</time></trkpt><trkpt lat="43.196727440754394" lon="11.469050000023392"><ele>173.85714285714286</ele><time>2026-04-11T02:39:34.998Z</time></trkpt><trkpt lat="43.1967755277637" lon="11.469129262468503"><ele>175.0</ele><time>2026-04-11T02:39:39Z</time></trkpt><trkpt lat="43.19682167529347" lon="11.469203824125008"><ele>176.0</ele><time>2026-04-11T02:39:42Z</time></trkpt><trkpt lat="43.19686521324354" lon="11.469278406832581"><ele>177.0</ele><time>2026-04-11T02:39:45Z</time></trkpt><trkpt lat="43.196910677152324" lon="11.46936176327079"><ele>178.0</ele><time>2026-04-11T02:39:48Z</time></trkpt><trkpt lat="43.196959934980896" lon="11.469448117533593"><ele>179.0</ele><time>2026-04-11T02:39:51Z</time></trkpt><trkpt lat="43.197004780785875" lon="11.46954231792538"><ele>180.0</ele><time>2026-04-11T02:39:55Z</time></trkpt><trkpt lat="43.19704142196458" lon="11.469631173054154"><ele>181.0</ele><time>2026-04-11T02:39:58Z</time></trkpt><trkpt lat="43.197079296757586" lon="11.469715484166503"><ele>181.14285714285714</ele><time>2026-04-11T02:40:01Z</time></trkpt><trkpt lat="43.19711299875818" lon="11.469807222465858"><ele>181.28571428571428</ele><time>2026-04-11T02:40:04Z</time></trkpt><trkpt lat="43.19713749890011" lon="11.469887769635317"><ele>181.42857142857144</ele><time>2026-04-11T02:40:07Z</time></trkpt><trkpt lat="43.19717019343046" lon="11.469969469462862"><ele>181.57142857142856</ele><time>2026-04-11T02:40:10Z</time></trkpt><trkpt lat="43.19719903810936" lon="11.470061699675677"><ele>181.71428571428572</ele><time>2026-04-11T02:40:13Z</time></trkpt><trkpt lat="43.19723610688319" lon="11.470155012282024"><ele>181.85714285714286</ele><time>2026-04-11T02:40:16Z</time></trkpt><trkpt lat="43.19727407574996" lon="11.470240698865043"><ele>182.0</ele><time>2026-04-11T02:40:19Z</time></trkpt><trkpt lat="43.19732312570359" lon="11.470343419992535"><ele>183.0</ele><time>2026-04-11T02:40:22Z</time></trkpt><trkpt lat="43.197370855072535" lon="11.470420015855487"><ele>184.0</ele><time>2026-04-11T02:40:25Z</time></trkpt><trkpt lat="43.19743087981495" lon="11.47047927035066"><ele>185.0</ele><time>2026-04-11T02:40:28Z</time></trkpt><trkpt lat="43.197490359437985" lon="11.470512752322644"><ele>186.0</ele><time>2026-04-11T02:40:30.999Z</time></trkpt><trkpt lat="43.1975502857191" lon="11.470540479218743"><ele>187.0</ele><time>2026-04-11T02:40:33.999Z</time></trkpt><trkpt lat="43.197620659703084" lon="11.470552330770625"><ele>188.0</ele><time>2026-04-11T02:40:36.999Z</time></trkpt><trkpt lat="43.19769137261057" lon="11.470562995421966"><ele>189.0</ele><time>2026-04-11T02:40:39.999Z</time></trkpt><trkpt lat="43.19776021125779" lon="11.470567366932283"><ele>190.83333333333334</ele><time>2026-04-11T02:40:42.999Z</time></trkpt><trkpt lat="43.1978349843574" lon="11.470582504549393"><ele>192.66666666666669</ele><time>2026-04-11T02:40:45.999Z</time></trkpt><trkpt lat="43.19791386352052" lon="11.470620978388702"><ele>194.5</ele><time>2026-04-11T02:40:49.999Z</time></trkpt><trkpt lat="43.19798502814503" lon="11.470673204794613"><ele>196.33333333333334</ele><time>2026-04-11T02:40:52.999Z</time></trkpt><trkpt lat="43.19804669236709" lon="11.47072937060629"><ele>198.16666666666669</ele><time>2026-04-11T02:40:56.999Z</time></trkpt><trkpt lat="43.19810835806131" lon="11.470779169006668"><ele>200.0</ele><time>2026-04-11T02:40:59.999Z</time></trkpt><trkpt lat="43.19816808627548" lon="11.47082945577244"><ele>200.66666666666669</ele><time>2026-04-11T02:41:01.999Z</time></trkpt><trkpt lat="43.19821808931346" lon="11.470890244110654"><ele>201.33333333333334</ele><time>2026-04-11T02:41:04.999Z</time></trkpt><trkpt lat="43.198273831967136" lon="11.470972613184214"><ele>202.0</ele><time>2026-04-11T02:41:07.999Z</time></trkpt><trkpt lat="43.198327346817734" lon="11.471062949261166"><ele>202.66666666666669</ele><time>2026-04-11T02:41:11.999Z</time></trkpt><trkpt lat="43.19837263786844" lon="11.471156541607918"><ele>203.33333333333334</ele><time>2026-04-11T02:41:14.999Z</time></trkpt><trkpt lat="43.19841219714269" lon="11.471269579415535"><ele>204.0</ele><time>2026-04-11T02:41:17.999Z</time></trkpt><trkpt lat="43.198442479155936" lon="11.471353621164637"><ele>204.85714285714286</ele><time>2026-04-11T02:41:20.999Z</time></trkpt><trkpt lat="43.19847134949519" lon="11.471455480545977"><ele>205.71428571428572</ele><time>2026-04-11T02:41:23.998Z</time></trkpt><trkpt lat="43.19849713911755" lon="11.471549289381782"><ele>206.57142857142856</ele><time>2026-04-11T02:41:26.998Z</time></trkpt><trkpt lat="43.19851460543678" lon="11.471638354743975"><ele>207.42857142857144</ele><time>2026-04-11T02:41:28.998Z</time></trkpt><trkpt lat="43.198530375392316" lon="11.47172882646914"><ele>208.28571428571428</ele><time>2026-04-11T02:41:30.998Z</time></trkpt><trkpt lat="43.19853836560361" lon="11.471818273707768"><ele>209.14285714285714</ele><time>2026-04-11T02:41:32.998Z</time></trkpt><trkpt lat="43.198536750190456" lon="11.471912073159992"><ele>210.0</ele><time>2026-04-11T02:41:34.998Z</time></trkpt><trkpt lat="43.1985335443279" lon="11.472014367507347"><ele>210.42857142857142</ele><time>2026-04-11T02:41:36.998Z</time></trkpt><trkpt lat="43.19853318667537" lon="11.472110013655413"><ele>210.85714285714286</ele><time>2026-04-11T02:41:38.998Z</time></trkpt><trkpt lat="43.198526080617754" lon="11.47220115166213"><ele>211.28571428571428</ele><time>2026-04-11T02:41:40.998Z</time></trkpt><trkpt lat="43.19851599909021" lon="11.472298625134345"><ele>211.71428571428572</ele><time>2026-04-11T02:41:43Z</time></trkpt><trkpt lat="43.19850372099848" lon="11.472394647234552"><ele>212.14285714285714</ele><time>2026-04-11T02:41:45Z</time></trkpt><trkpt lat="43.198495327330946" lon="11.472493980951187"><ele>212.57142857142856</ele><time>2026-04-11T02:41:47Z</time></trkpt><trkpt lat="43.19849155174646" lon="11.472597634659463"><ele>213.0</ele><time>2026-04-11T02:41:49Z</time></trkpt><trkpt lat="43.1984948706114" lon="11.47270368091878"><ele>213.0</ele><time>2026-04-11T02:41:51Z</time></trkpt><trkpt lat="43.19850879869294" lon="11.47280665318256"><ele>213.0</ele><time>2026-04-11T02:41:53Z</time></trkpt><trkpt lat="43.198541634025965" lon="11.472910950716303"><ele>213.0</ele><time>2026-04-11T02:41:55Z</time></trkpt><trkpt lat="43.1985845097326" lon="11.473008655199584"><ele>213.0</ele><time>2026-04-11T02:41:57Z</time></trkpt><trkpt lat="43.19863320090965" lon="11.473104559092178"><ele>213.0</ele><time>2026-04-11T02:41:59Z</time></trkpt><trkpt lat="43.19868268150258" lon="11.473204329145396"><ele>213.0</ele><time>2026-04-11T02:42:01Z</time></trkpt><trkpt lat="43.19873552421725" lon="11.473311447584237"><ele>213.2</ele><time>2026-04-11T02:42:03Z</time></trkpt><trkpt lat="43.198789310204376" lon="11.473425281981994"><ele>213.4</ele><time>2026-04-11T02:42:05Z</time></trkpt><trkpt lat="43.19884230197167" lon="11.473550872876718"><ele>213.59999999999997</ele><time>2026-04-11T02:42:07Z</time></trkpt><trkpt lat="43.19884499435216" lon="11.473711282594937"><ele>213.79999999999998</ele><time>2026-04-11T02:42:09Z</time></trkpt><trkpt lat="43.19885848880936" lon="11.473864694117486"><ele>214.0</ele><time>2026-04-11T02:42:11Z</time></trkpt><trkpt lat="43.198848906832986" lon="11.474026658602714"><ele>211.75</ele><time>2026-04-11T02:42:13Z</time></trkpt><trkpt lat="43.19884487417913" lon="11.47418510547771"><ele>209.5</ele><time>2026-04-11T02:42:15Z</time></trkpt><trkpt lat="43.19886682077182" lon="11.474336708926074"><ele>207.25</ele><time>2026-04-11T02:42:17Z</time></trkpt><trkpt lat="43.19891796872195" lon="11.4744839342987"><ele>205.0</ele><time>2026-04-11T02:42:19Z</time></trkpt><trkpt lat="43.19897784889823" lon="11.474616821461211"><ele>203.8</ele><time>2026-04-11T02:42:21Z</time></trkpt><trkpt lat="43.199043427848046" lon="11.47474560313983"><ele>202.6</ele><time>2026-04-11T02:42:23Z</time></trkpt><trkpt lat="43.199113792693915" lon="11.47487449317602"><ele>201.39999999999998</ele><time>2026-04-11T02:42:25Z</time></trkpt><trkpt lat="43.199179728473155" lon="11.474991337839091"><ele>200.2</ele><time>2026-04-11T02:42:27Z</time></trkpt><trkpt lat="43.19924166807756" lon="11.475096184792386"><ele>199.0</ele><time>2026-04-11T02:42:29Z</time></trkpt><trkpt lat="43.199299583313234" lon="11.475193697673845"><ele>198.99999999999997</ele><time>2026-04-11T02:42:31Z</time></trkpt><trkpt lat="43.19936652797846" lon="11.475268337728604"><ele>199.0</ele><time>2026-04-11T02:42:33Z</time></trkpt><trkpt lat="43.19942038071023" lon="11.475351976880946"><ele>199.0</ele><time>2026-04-11T02:42:35Z</time></trkpt><trkpt lat="43.19947069878812" lon="11.475431101130773"><ele>199.0</ele><time>2026-04-11T02:42:37Z</time></trkpt><trkpt lat="43.19952215691752" lon="11.475494945648968"><ele>198.99999999999997</ele><time>2026-04-11T02:42:39.999Z</time></trkpt><trkpt lat="43.19960501998447" lon="11.475597787571166"><ele>199.0</ele><time>2026-04-11T02:42:41.999Z</time></trkpt><trkpt lat="43.19966379179593" lon="11.475652216820476"><ele>199.99999999999997</ele><time>2026-04-11T02:42:43.999Z</time></trkpt><trkpt lat="43.19972088726324" lon="11.475705564883095"><ele>201.0</ele><time>2026-04-11T02:42:45.999Z</time></trkpt><trkpt lat="43.199784187478606" lon="11.475742157247167"><ele>202.0</ele><time>2026-04-11T02:42:47.999Z</time></trkpt><trkpt lat="43.199847305764294" lon="11.475774609907928"><ele>203.0</ele><time>2026-04-11T02:42:49.999Z</time></trkpt><trkpt lat="43.19992757197046" lon="11.475829240240184"><ele>204.0</ele><time>2026-04-11T02:42:52.999Z</time></trkpt><trkpt lat="43.19998099763266" lon="11.475877550869871"><ele>204.99999999999997</ele><time>2026-04-11T02:42:54.999Z</time></trkpt><trkpt lat="43.20003109208811" lon="11.475940625553937"><ele>206.0</ele><time>2026-04-11T02:42:56.999Z</time></trkpt><trkpt lat="43.2000872011684" lon="11.476002213066433"><ele>206.00000000000003</ele><time>2026-04-11T02:42:59.999Z</time></trkpt><trkpt lat="43.20014654512668" lon="11.47607715602094"><ele>206.0</ele><time>2026-04-11T02:43:02.999Z</time></trkpt><trkpt lat="43.200205590480735" lon="11.476140658334813"><ele>206.0</ele><time>2026-04-11T02:43:05.999Z</time></trkpt><trkpt lat="43.200303609044575" lon="11.476238514908408"><ele>206.0</ele><time>2026-04-11T02:43:08.999Z</time></trkpt><trkpt lat="43.200355692385195" lon="11.47629560261536"><ele>206.00000000000003</ele><time>2026-04-11T02:43:10.999Z</time></trkpt><trkpt lat="43.20042892261883" lon="11.476373551347127"><ele>206.0</ele><time>2026-04-11T02:43:12.999Z</time></trkpt><trkpt lat="43.20048955182924" lon="11.476428668282066"><ele>206.66666666666669</ele><time>2026-04-11T02:43:14.999Z</time></trkpt><trkpt lat="43.2005472600742" lon="11.476495038958465"><ele>207.33333333333334</ele><time>2026-04-11T02:43:16.999Z</time></trkpt><trkpt lat="43.2006013522785" lon="11.476563186483023"><ele>208.0</ele><time>2026-04-11T02:43:18.999Z</time></trkpt><trkpt lat="43.20065821323459" lon="11.476637473869324"><ele>208.66666666666669</ele><time>2026-04-11T02:43:20.999Z</time></trkpt><trkpt lat="43.20070381922627" lon="11.476723233878099"><ele>209.33333333333334</ele><time>2026-04-11T02:43:22.999Z</time></trkpt><trkpt lat="43.200755701308076" lon="11.476816086697614"><ele>210.0</ele><time>2026-04-11T02:43:24.999Z</time></trkpt><trkpt lat="43.20080325917648" lon="11.47690525414624"><ele>210.0</ele><time>2026-04-11T02:43:26.999Z</time></trkpt><trkpt lat="43.2008457684795" lon="11.47699798029662"><ele>210.0</ele><time>2026-04-11T02:43:28.999Z</time></trkpt><trkpt lat="43.20088358535064" lon="11.477090912916784"><ele>210.0</ele><time>2026-04-11T02:43:30.999Z</time></trkpt><trkpt lat="43.20092564220454" lon="11.477176540165853"><ele>210.0</ele><time>2026-04-11T02:43:32.998Z</time></trkpt><trkpt lat="43.200961008873705" lon="11.477267353991127"><ele>210.0</ele><time>2026-04-11T02:43:34.998Z</time></trkpt><trkpt lat="43.20099975248457" lon="11.477361212998371"><ele>210.0</ele><time>2026-04-11T02:43:36.998Z</time></trkpt><trkpt lat="43.20103758793447" lon="11.477450332195371"><ele>209.42857142857142</ele><time>2026-04-11T02:43:38.998Z</time></trkpt><trkpt lat="43.20106980957323" lon="11.477540979573607"><ele>208.85714285714286</ele><time>2026-04-11T02:43:40.998Z</time></trkpt><trkpt lat="43.20110194324711" lon="11.477629342445834"><ele>208.28571428571428</ele><time>2026-04-11T02:43:42.998Z</time></trkpt><trkpt lat="43.20113189417952" lon="11.477716039673568"><ele>207.71428571428572</ele><time>2026-04-11T02:43:44.998Z</time></trkpt><trkpt lat="43.20116284612066" lon="11.477802960108018"><ele>207.14285714285714</ele><time>2026-04-11T02:43:46.998Z</time></trkpt><trkpt lat="43.20119867282136" lon="11.47789119994311"><ele>206.57142857142856</ele><time>2026-04-11T02:43:49Z</time></trkpt><trkpt lat="43.201234146528186" lon="11.47797842493922"><ele>206.0</ele><time>2026-04-11T02:43:51Z</time></trkpt><trkpt lat="43.201268965878235" lon="11.478064704597552"><ele>206.42857142857142</ele><time>2026-04-11T02:43:53Z</time></trkpt><trkpt lat="43.20130827446454" lon="11.478151780709528"><ele>206.85714285714286</ele><time>2026-04-11T02:43:55Z</time></trkpt><trkpt lat="43.201349134505485" lon="11.47823800682227"><ele>207.28571428571428</ele><time>2026-04-11T02:43:57Z</time></trkpt><trkpt lat="43.20138689033028" lon="11.4783259503699"><ele>207.71428571428572</ele><time>2026-04-11T02:43:59Z</time></trkpt><trkpt lat="43.201421107744174" lon="11.47841675490154"><ele>208.14285714285714</ele><time>2026-04-11T02:44:01Z</time></trkpt><trkpt lat="43.201459484824255" lon="11.478503425707963"><ele>208.57142857142856</ele><time>2026-04-11T02:44:03Z</time></trkpt><trkpt lat="43.201498258600154" lon="11.478593609281486"><ele>209.0</ele><time>2026-04-11T02:44:05Z</time></trkpt><trkpt lat="43.201533710004234" lon="11.478690769731523"><ele>209.66666666666669</ele><time>2026-04-11T02:44:07Z</time></trkpt><trkpt lat="43.2015652120395" lon="11.47878640092334"><ele>210.33333333333334</ele><time>2026-04-11T02:44:09Z</time></trkpt><trkpt lat="43.20160177769426" lon="11.478885528592949"><ele>211.0</ele><time>2026-04-11T02:44:11Z</time></trkpt><trkpt lat="43.201636454611645" lon="11.47898648868864"><ele>211.66666666666669</ele><time>2026-04-11T02:44:13Z</time></trkpt><trkpt lat="43.2016687603535" lon="11.479085840656756"><ele>212.33333333333334</ele><time>2026-04-11T02:44:15Z</time></trkpt><trkpt lat="43.20170104994166" lon="11.479180871697626"><ele>213.0</ele><time>2026-04-11T02:44:17Z</time></trkpt><trkpt lat="43.201726543859365" lon="11.479274507117891"><ele>212.99999999999997</ele><time>2026-04-11T02:44:19Z</time></trkpt><trkpt lat="43.20175008782465" lon="11.479367992870705"><ele>213.0</ele><time>2026-04-11T02:44:21Z</time></trkpt><trkpt lat="43.201776942004535" lon="11.47946067521913"><ele>213.0</ele><time>2026-04-11T02:44:23Z</time></trkpt><trkpt lat="43.201796326938705" lon="11.479554249620854"><ele>213.0</ele><time>2026-04-11T02:44:25Z</time></trkpt><trkpt lat="43.20181942910035" lon="11.479642001390742"><ele>213.0</ele><time>2026-04-11T02:44:27Z</time></trkpt><trkpt lat="43.20184440089899" lon="11.479727455714675"><ele>212.99999999999997</ele><time>2026-04-11T02:44:29Z</time></trkpt><trkpt lat="43.201867056140955" lon="11.479814092270896"><ele>213.0</ele><time>2026-04-11T02:44:31Z</time></trkpt><trkpt lat="43.201891297027146" lon="11.479899896428643"><ele>212.83333333333334</ele><time>2026-04-11T02:44:33Z</time></trkpt><trkpt lat="43.20191935686242" lon="11.479981426586983"><ele>212.66666666666669</ele><time>2026-04-11T02:44:35Z</time></trkpt><trkpt lat="43.20194998799782" lon="11.480067258412666"><ele>212.5</ele><time>2026-04-11T02:44:37Z</time></trkpt><trkpt lat="43.20198167451009" lon="11.480155930937332"><ele>212.33333333333334</ele><time>2026-04-11T02:44:39Z</time></trkpt><trkpt lat="43.2020190884791" lon="11.480251859971377"><ele>212.16666666666669</ele><time>2026-04-11T02:44:42Z</time></trkpt><trkpt lat="43.20207949614627" lon="11.48042442625256"><ele>212.0</ele><time>2026-04-11T02:44:45Z</time></trkpt><trkpt lat="43.20211568282467" lon="11.480507984889075"><ele>211.50000000000003</ele><time>2026-04-11T02:44:47Z</time></trkpt><trkpt lat="43.202149347483854" lon="11.48059431836236"><ele>211.0</ele><time>2026-04-11T02:44:48.999Z</time></trkpt><trkpt lat="43.20217513347373" lon="11.480683909614017"><ele>210.5</ele><time>2026-04-11T02:44:50.999Z</time></trkpt><trkpt lat="43.202199087583324" lon="11.48077491368229"><ele>210.0</ele><time>2026-04-11T02:44:52.999Z</time></trkpt><trkpt lat="43.20221738583597" lon="11.480873676746779"><ele>209.50000000000003</ele><time>2026-04-11T02:44:54.999Z</time></trkpt><trkpt lat="43.2022316784051" lon="11.480970407349135"><ele>209.0</ele><time>2026-04-11T02:44:56.999Z</time></trkpt><trkpt lat="43.20225464239554" lon="11.481094434105858"><ele>209.00000000000003</ele><time>2026-04-11T02:44:59.999Z</time></trkpt><trkpt lat="43.2022645955206" lon="11.481207542538773"><ele>209.0</ele><time>2026-04-11T02:45:02.999Z</time></trkpt><trkpt lat="43.20228187947332" lon="11.481338213442754"><ele>209.0</ele><time>2026-04-11T02:45:06.999Z</time></trkpt><trkpt lat="43.20229612332252" lon="11.48144562159918"><ele>209.0</ele><time>2026-04-11T02:45:09.999Z</time></trkpt><trkpt lat="43.20230834247144" lon="11.48153416723974"><ele>209.00000000000003</ele><time>2026-04-11T02:45:11.999Z</time></trkpt><trkpt lat="43.20231847503246" lon="11.481638511735571"><ele>209.0</ele><time>2026-04-11T02:45:14.999Z</time></trkpt><trkpt lat="43.20231925752761" lon="11.481748488725488"><ele>209.83333333333334</ele><time>2026-04-11T02:45:17.999Z</time></trkpt><trkpt lat="43.202314061810156" lon="11.481861385036387"><ele>210.66666666666669</ele><time>2026-04-11T02:45:20.999Z</time></trkpt><trkpt lat="43.20230154218721" lon="11.481963610319891"><ele>211.5</ele><time>2026-04-11T02:45:23.999Z</time></trkpt><trkpt lat="43.202284284742916" lon="11.482078220671896"><ele>212.33333333333331</ele><time>2026-04-11T02:45:26.999Z</time></trkpt><trkpt lat="43.20225635302739" lon="11.482218420448882"><ele>213.16666666666666</ele><time>2026-04-11T02:45:29.999Z</time></trkpt><trkpt lat="43.20223974307171" lon="11.482318646089004"><ele>214.0</ele><time>2026-04-11T02:45:32.999Z</time></trkpt><trkpt lat="43.20222289521337" lon="11.482422920027359"><ele>215.49999999999997</ele><time>2026-04-11T02:45:35.999Z</time></trkpt><trkpt lat="43.202210186405765" lon="11.482551451051782"><ele>217.0</ele><time>2026-04-11T02:45:39.998Z</time></trkpt><trkpt lat="43.20220081211726" lon="11.482638990240977"><ele>218.5</ele><time>2026-04-11T02:45:42.998Z</time></trkpt><trkpt lat="43.202196322030254" lon="11.482726711094294"><ele>220.0</ele><time>2026-04-11T02:45:44.998Z</time></trkpt><trkpt lat="43.20219675692092" lon="11.482826099832984"><ele>221.49999999999997</ele><time>2026-04-11T02:45:47.998Z</time></trkpt><trkpt lat="43.202205786767216" lon="11.482947035716885"><ele>223.0</ele><time>2026-04-11T02:45:51.998Z</time></trkpt><trkpt lat="43.20219868561321" lon="11.48305598906355"><ele>225.33333333333331</ele><time>2026-04-11T02:45:55Z</time></trkpt><trkpt lat="43.20218744300942" lon="11.48316398520107"><ele>227.66666666666666</ele><time>2026-04-11T02:45:58Z</time></trkpt><trkpt lat="43.20215979999807" lon="11.48326503148044"><ele>230.0</ele><time>2026-04-11T02:46:01Z</time></trkpt><trkpt lat="43.202114379800925" lon="11.483347422132022"><ele>232.33333333333331</ele><time>2026-04-11T02:46:04Z</time></trkpt><trkpt lat="43.20206614936163" lon="11.483454084561053"><ele>234.66666666666666</ele><time>2026-04-11T02:46:08Z</time></trkpt><trkpt lat="43.2020197251005" lon="11.483523234786395"><ele>237.0</ele><time>2026-04-11T02:46:11Z</time></trkpt><trkpt lat="43.2019781452938" lon="11.4835901230805"><ele>236.99999999999997</ele><time>2026-04-11T02:46:14Z</time></trkpt><trkpt lat="43.20192797926781" lon="11.483667094161397"><ele>237.0</ele><time>2026-04-11T02:46:18Z</time></trkpt><trkpt lat="43.201882098612025" lon="11.483751603177458"><ele>236.99999999999997</ele><time>2026-04-11T02:46:22Z</time></trkpt><trkpt lat="43.201836357567764" lon="11.483826909136456"><ele>236.99999999999997</ele><time>2026-04-11T02:46:25Z</time></trkpt><trkpt lat="43.20179958209161" lon="11.483918474732597"><ele>237.0</ele><time>2026-04-11T02:46:29Z</time></trkpt><trkpt lat="43.2017824707349" lon="11.484006806621966"><ele>236.99999999999997</ele><time>2026-04-11T02:46:32Z</time></trkpt><trkpt lat="43.2017795861366" lon="11.484105695555659"><ele>236.99999999999997</ele><time>2026-04-11T02:46:36Z</time></trkpt><trkpt lat="43.20180265017648" lon="11.484212374881078"><ele>239.66666666666666</ele><time>2026-04-11T02:46:40Z</time></trkpt><trkpt lat="43.20184173913359" lon="11.484299928480107"><ele>242.33333333333331</ele><time>2026-04-11T02:46:43Z</time></trkpt><trkpt lat="43.20188857258417" lon="11.48438659938894"><ele>245.0</ele><time>2026-04-11T02:46:47Z</time></trkpt><trkpt lat="43.20193772249831" lon="11.484477125636637"><ele>247.66666666666666</ele><time>2026-04-11T02:46:51Z</time></trkpt><trkpt lat="43.2019802901173" lon="11.484573945835118"><ele>250.33333333333331</ele><time>2026-04-11T02:46:55Z</time></trkpt><trkpt lat="43.2020156542554" lon="11.48464630100769"><ele>253.0</ele><time>2026-04-11T02:46:57.999Z</time></trkpt><trkpt lat="43.20204965074639" lon="11.484752733806898"><ele>254.28571428571433</ele><time>2026-04-11T02:47:01.999Z</time></trkpt><trkpt lat="43.20206879448896" lon="11.484838759120844"><ele>255.57142857142858</ele><time>2026-04-11T02:47:04.999Z</time></trkpt><trkpt lat="43.2020941343703" lon="11.484920663766323"><ele>256.8571428571429</ele><time>2026-04-11T02:47:07.999Z</time></trkpt><trkpt lat="43.202113977391825" lon="11.48500981234487"><ele>258.14285714285717</ele><time>2026-04-11T02:47:10.999Z</time></trkpt><trkpt lat="43.20213024071373" lon="11.485099193597906"><ele>259.42857142857144</ele><time>2026-04-11T02:47:13.999Z</time></trkpt><trkpt lat="43.2021512497223" lon="11.485188321840264"><ele>260.7142857142857</ele><time>2026-04-11T02:47:16.999Z</time></trkpt><trkpt lat="43.20216726759901" lon="11.485278195124573"><ele>262.0</ele><time>2026-04-11T02:47:19.999Z</time></trkpt><trkpt lat="43.202179720167834" lon="11.485371748575405"><ele>261.0</ele><time>2026-04-11T02:47:22.999Z</time></trkpt><trkpt lat="43.20221406840464" lon="11.485465898547975"><ele>260.0</ele><time>2026-04-11T02:47:26.999Z</time></trkpt><trkpt lat="43.20222895371632" lon="11.485567893759402"><ele>259.0</ele><time>2026-04-11T02:47:29.999Z</time></trkpt><trkpt lat="43.20224651442547" lon="11.485658446576211"><ele>258.0</ele><time>2026-04-11T02:47:31.999Z</time></trkpt><trkpt lat="43.20227162549711" lon="11.485764168093622"><ele>257.0</ele><time>2026-04-11T02:47:33.999Z</time></trkpt><trkpt lat="43.20230104580816" lon="11.485868531251263"><ele>256.0</ele><time>2026-04-11T02:47:35.999Z</time></trkpt><trkpt lat="43.20233615090943" lon="11.485970591527371"><ele>255.99999999999997</ele><time>2026-04-11T02:47:37.999Z</time></trkpt><trkpt lat="43.20237747756435" lon="11.486071356541627"><ele>256.0</ele><time>2026-04-11T02:47:39.999Z</time></trkpt><trkpt lat="43.2024251728847" lon="11.486163138334515"><ele>256.0</ele><time>2026-04-11T02:47:41.999Z</time></trkpt><trkpt lat="43.20247571203584" lon="11.486242623242184"><ele>256.0</ele><time>2026-04-11T02:47:43.999Z</time></trkpt><trkpt lat="43.202526591018696" lon="11.486321254442379"><ele>255.99999999999997</ele><time>2026-04-11T02:47:45.999Z</time></trkpt><trkpt lat="43.20257648740672" lon="11.486398228305209"><ele>256.0</ele><time>2026-04-11T02:47:47.999Z</time></trkpt><trkpt lat="43.202631313595745" lon="11.486467736090102"><ele>254.66666666666666</ele><time>2026-04-11T02:47:49.998Z</time></trkpt><trkpt lat="43.20269104466773" lon="11.486536734279166"><ele>253.33333333333331</ele><time>2026-04-11T02:47:51.998Z</time></trkpt><trkpt lat="43.20274571137298" lon="11.486606970365784"><ele>252.0</ele><time>2026-04-11T02:47:53.998Z</time></trkpt><trkpt lat="43.20280187486393" lon="11.486680836025263"><ele>250.66666666666669</ele><time>2026-04-11T02:47:55.998Z</time></trkpt><trkpt lat="43.2028624773777" lon="11.486764831096657"><ele>249.33333333333334</ele><time>2026-04-11T02:47:57.998Z</time></trkpt><trkpt lat="43.202921139294254" lon="11.486848598218216"><ele>248.0</ele><time>2026-04-11T02:47:59.998Z</time></trkpt><trkpt lat="43.20298703743993" lon="11.48691517489574"><ele>248.00000000000003</ele><time>2026-04-11T02:48:02Z</time></trkpt><trkpt lat="43.20304485640018" lon="11.486995164418538"><ele>248.0</ele><time>2026-04-11T02:48:04Z</time></trkpt><trkpt lat="43.20310414021611" lon="11.487076959412075"><ele>248.0</ele><time>2026-04-11T02:48:06Z</time></trkpt><trkpt lat="43.20316732143967" lon="11.487155062200717"><ele>248.0</ele><time>2026-04-11T02:48:08Z</time></trkpt><trkpt lat="43.20322839536713" lon="11.48722696425306"><ele>248.00000000000003</ele><time>2026-04-11T02:48:10Z</time></trkpt><trkpt lat="43.20328162529611" lon="11.487299913392302"><ele>248.0</ele><time>2026-04-11T02:48:12Z</time></trkpt><trkpt lat="43.20333128102061" lon="11.487362950413583"><ele>248.16666666666669</ele><time>2026-04-11T02:48:14Z</time></trkpt><trkpt lat="43.20338843032419" lon="11.487423591186765"><ele>248.33333333333334</ele><time>2026-04-11T02:48:16Z</time></trkpt><trkpt lat="43.2034430050959" lon="11.487498418972503"><ele>248.5</ele><time>2026-04-11T02:48:18Z</time></trkpt><trkpt lat="43.20350239862431" lon="11.487566966300156"><ele>248.66666666666669</ele><time>2026-04-11T02:48:20Z</time></trkpt><trkpt lat="43.20356007402597" lon="11.487628470641798"><ele>248.83333333333334</ele><time>2026-04-11T02:48:22Z</time></trkpt><trkpt lat="43.20361425066218" lon="11.48768891375082"><ele>249.0</ele><time>2026-04-11T02:48:25Z</time></trkpt><trkpt lat="43.20366293288708" lon="11.487787774169083"><ele>249.0</ele><time>2026-04-11T02:48:28Z</time></trkpt><trkpt lat="43.20371097217189" lon="11.487884795764083"><ele>248.99999999999997</ele><time>2026-04-11T02:48:30Z</time></trkpt><trkpt lat="43.20375581249835" lon="11.487974629010182"><ele>248.99999999999997</ele><time>2026-04-11T02:48:32Z</time></trkpt><trkpt lat="43.20381350161672" lon="11.488072137138381"><ele>249.0</ele><time>2026-04-11T02:48:34Z</time></trkpt><trkpt lat="43.203868935403186" lon="11.488180967117838"><ele>249.0</ele><time>2026-04-11T02:48:36Z</time></trkpt><trkpt lat="43.203922640152214" lon="11.488291777202043"><ele>248.83333333333334</ele><time>2026-04-11T02:48:38Z</time></trkpt><trkpt lat="43.20398521365544" lon="11.488388787861043"><ele>248.66666666666669</ele><time>2026-04-11T02:48:40Z</time></trkpt><trkpt lat="43.20403823005913" lon="11.488485756406995"><ele>248.5</ele><time>2026-04-11T02:48:42Z</time></trkpt><trkpt lat="43.20409446137608" lon="11.488576444519248"><ele>248.33333333333334</ele><time>2026-04-11T02:48:44Z</time></trkpt><trkpt lat="43.2041374223909" lon="11.488640917095942"><ele>248.16666666666669</ele><time>2026-04-11T02:48:46Z</time></trkpt><trkpt lat="43.20419289956038" lon="11.48871883414164"><ele>248.0</ele><time>2026-04-11T02:48:49Z</time></trkpt><trkpt lat="43.20424091869478" lon="11.48878530503832"><ele>248.00000000000003</ele><time>2026-04-11T02:48:52Z</time></trkpt><trkpt lat="43.20429284444359" lon="11.488837421755404"><ele>248.0</ele><time>2026-04-11T02:48:55Z</time></trkpt><trkpt lat="43.20434777444111" lon="11.488904550943303"><ele>248.0</ele><time>2026-04-11T02:49:16.999Z</time></trkpt><trkpt lat="43.20439559897385" lon="11.488988286538701"><ele>248.0</ele><time>2026-04-11T02:49:19.999Z</time></trkpt><trkpt lat="43.20444230663966" lon="11.489075416913629"><ele>248.00000000000003</ele><time>2026-04-11T02:49:21.999Z</time></trkpt><trkpt lat="43.204491276374476" lon="11.489167985815804"><ele>248.0</ele><time>2026-04-11T02:49:23.999Z</time></trkpt><trkpt lat="43.20453682045793" lon="11.48927881535483"><ele>248.0</ele><time>2026-04-11T02:49:25.999Z</time></trkpt><trkpt lat="43.2045812224301" lon="11.489403649925219"><ele>248.0</ele><time>2026-04-11T02:49:27.999Z</time></trkpt><trkpt lat="43.20462025788744" lon="11.489534757869718"><ele>248.0</ele><time>2026-04-11T02:49:29.999Z</time></trkpt><trkpt lat="43.20463902186379" lon="11.489649136327776"><ele>248.0</ele><time>2026-04-11T02:49:31.999Z</time></trkpt><trkpt lat="43.20467090220157" lon="11.48976780850088"><ele>248.0</ele><time>2026-04-11T02:49:33.999Z</time></trkpt><trkpt lat="43.20470834719687" lon="11.489905437707758"><ele>247.4</ele><time>2026-04-11T02:49:35.999Z</time></trkpt><trkpt lat="43.20476727371358" lon="11.490044996817405"><ele>246.8</ele><time>2026-04-11T02:49:37.999Z</time></trkpt><trkpt lat="43.20482106994757" lon="11.490193913447897"><ele>246.2</ele><time>2026-04-11T02:49:39.999Z</time></trkpt><trkpt lat="43.204884365480375" lon="11.490344658323716"><ele>245.6</ele><time>2026-04-11T02:49:41.999Z</time></trkpt><trkpt lat="43.20492420291268" lon="11.490412870575689"><ele>245.0</ele><time>2026-04-11T02:49:42.999Z</time></trkpt><trkpt lat="43.20497227983176" lon="11.490474915106176"><ele>245.0</ele><time>2026-04-11T02:49:43.999Z</time></trkpt><trkpt lat="43.20505952096008" lon="11.490587012436754"><ele>245.0</ele><time>2026-04-11T02:49:45.999Z</time></trkpt><trkpt lat="43.20513724928504" lon="11.490681054901534"><ele>245.0</ele><time>2026-04-11T02:49:47.999Z</time></trkpt><trkpt lat="43.205218461099136" lon="11.490740309821557"><ele>245.0</ele><time>2026-04-11T02:49:49.999Z</time></trkpt><trkpt lat="43.205270704765105" lon="11.490813173161648"><ele>245.0</ele><time>2026-04-11T02:49:51.999Z</time></trkpt><trkpt lat="43.2053318736176" lon="11.490856994912416"><ele>245.00000000000003</ele><time>2026-04-11T02:49:53.999Z</time></trkpt><trkpt lat="43.20539959552725" lon="11.490885956605437"><ele>245.0</ele><time>2026-04-11T02:49:55.999Z</time></trkpt><trkpt lat="43.205491096388826" lon="11.490879907453987"><ele>245.0</ele><time>2026-04-11T02:49:58.998Z</time></trkpt><trkpt lat="43.205576919592815" lon="11.490885523165218"><ele>245.0</ele><time>2026-04-11T02:50:01.998Z</time></trkpt><trkpt lat="43.20565041237994" lon="11.490887509472103"><ele>245.00000000000003</ele><time>2026-04-11T02:50:04.998Z</time></trkpt><trkpt lat="43.205723670802904" lon="11.490882046565037"><ele>245.0</ele><time>2026-04-11T02:50:08.001Z</time></trkpt><trkpt lat="43.205793659049206" lon="11.490871466078188"><ele>246.85714285714286</ele><time>2026-04-11T02:50:11.001Z</time></trkpt><trkpt lat="43.20586369449981" lon="11.490858859020925"><ele>248.71428571428572</ele><time>2026-04-11T02:50:14.001Z</time></trkpt><trkpt lat="43.205935621236556" lon="11.490841123558146"><ele>250.57142857142856</ele><time>2026-04-11T02:50:18.001Z</time></trkpt><trkpt lat="43.20600090068566" lon="11.490833264950158"><ele>252.42857142857142</ele><time>2026-04-11T02:50:21Z</time></trkpt><trkpt lat="43.206068741092224" lon="11.490841461526786"><ele>254.28571428571428</ele><time>2026-04-11T02:50:24.999Z</time></trkpt><trkpt lat="43.206145666070505" lon="11.490850001008127"><ele>256.1428571428571</ele><time>2026-04-11T02:50:28.999Z</time></trkpt><trkpt lat="43.20623008477903" lon="11.49084782733645"><ele>258.0</ele><time>2026-04-11T02:50:32.999Z</time></trkpt><trkpt lat="43.20629421450523" lon="11.490870598833508"><ele>258.0</ele><time>2026-04-11T02:50:35.999Z</time></trkpt><trkpt lat="43.20636865373341" lon="11.49090597826707"><ele>258.0</ele><time>2026-04-11T02:50:38.999Z</time></trkpt><trkpt lat="43.20645510133571" lon="11.49095827995568"><ele>258.0</ele><time>2026-04-11T02:50:41.999Z</time></trkpt><trkpt lat="43.20659833217266" lon="11.491095123852826"><ele>258.0</ele><time>2026-04-11T02:50:43.999Z</time></trkpt><trkpt lat="43.206659851082655" lon="11.491185420630252"><ele>258.0</ele><time>2026-04-11T02:50:45.999Z</time></trkpt><trkpt lat="43.20671456695684" lon="11.49128522523863"><ele>257.0</ele><time>2026-04-11T02:50:47.999Z</time></trkpt><trkpt lat="43.20676308668265" lon="11.491391982965144"><ele>256.0</ele><time>2026-04-11T02:50:49.999Z</time></trkpt><trkpt lat="43.20680695699269" lon="11.491496413106184"><ele>255.0</ele><time>2026-04-11T02:50:51.999Z</time></trkpt><trkpt lat="43.206849534292736" lon="11.491600426202362"><ele>254.0</ele><time>2026-04-11T02:50:53.999Z</time></trkpt><trkpt lat="43.20690046392558" lon="11.491705937255364"><ele>253.0</ele><time>2026-04-11T02:50:55.999Z</time></trkpt><trkpt lat="43.206960566675654" lon="11.49181997852405"><ele>252.99999999999997</ele><time>2026-04-11T02:50:57.999Z</time></trkpt><trkpt lat="43.20702511483273" lon="11.491924425266564"><ele>253.0</ele><time>2026-04-11T02:50:59.999Z</time></trkpt><trkpt lat="43.207087853336816" lon="11.492021016723406"><ele>253.0</ele><time>2026-04-11T02:51:01.999Z</time></trkpt><trkpt lat="43.20717809501244" lon="11.492116324203744"><ele>253.0</ele><time>2026-04-11T02:51:03.999Z</time></trkpt><trkpt lat="43.20721523814888" lon="11.49220002663294"><ele>252.99999999999997</ele><time>2026-04-11T02:51:04.999Z</time></trkpt><trkpt lat="43.207268730906975" lon="11.492253619945998"><ele>253.0</ele><time>2026-04-11T02:51:05.999Z</time></trkpt><trkpt lat="43.20732109010121" lon="11.492306077902093"><ele>252.0</ele><time>2026-04-11T02:51:06.999Z</time></trkpt><trkpt lat="43.20741152304873" lon="11.492398095089372"><ele>251.0</ele><time>2026-04-11T02:51:08.999Z</time></trkpt><trkpt lat="43.20750139210044" lon="11.492489680662914"><ele>250.0</ele><time>2026-04-11T02:51:10.999Z</time></trkpt><trkpt lat="43.20755205620664" lon="11.492541312367408"><ele>249.0</ele><time>2026-04-11T02:51:11.998Z</time></trkpt><trkpt lat="43.20765005292662" lon="11.4926414682772"><ele>248.0</ele><time>2026-04-11T02:51:13.998Z</time></trkpt><trkpt lat="43.20774501853422" lon="11.49273856845668"><ele>248.00000000000003</ele><time>2026-04-11T02:51:15.998Z</time></trkpt><trkpt lat="43.20779711479873" lon="11.492791977866842"><ele>248.0</ele><time>2026-04-11T02:51:16.998Z</time></trkpt><trkpt lat="43.20784813157385" lon="11.492845493236677"><ele>248.0</ele><time>2026-04-11T02:51:17.998Z</time></trkpt><trkpt lat="43.20789848861977" lon="11.492898316371223"><ele>248.0</ele><time>2026-04-11T02:51:18.998Z</time></trkpt><trkpt lat="43.207994980315064" lon="11.492999533554471"><ele>248.00000000000003</ele><time>2026-04-11T02:51:20.998Z</time></trkpt><trkpt lat="43.208092198411286" lon="11.493098858362872"><ele>248.0</ele><time>2026-04-11T02:51:22.998Z</time></trkpt><trkpt lat="43.20819048041209" lon="11.493195699826181"><ele>248.33333333333334</ele><time>2026-04-11T02:51:24.998Z</time></trkpt><trkpt lat="43.208293778509685" lon="11.493293218175493"><ele>248.66666666666669</ele><time>2026-04-11T02:51:26.998Z</time></trkpt><trkpt lat="43.20834742753171" lon="11.493341886533395"><ele>249.0</ele><time>2026-04-11T02:51:27.998Z</time></trkpt><trkpt lat="43.20845565862295" lon="11.493437649909716"><ele>249.33333333333331</ele><time>2026-04-11T02:51:29.998Z</time></trkpt><trkpt lat="43.20851465703255" lon="11.493482727276508"><ele>249.66666666666666</ele><time>2026-04-11T02:51:30.998Z</time></trkpt><trkpt lat="43.20857171603837" lon="11.493519626140348"><ele>250.0</ele><time>2026-04-11T02:51:31.998Z</time></trkpt><trkpt lat="43.20866103868849" lon="11.493587533355575"><ele>249.99999999999997</ele><time>2026-04-11T02:51:33.998Z</time></trkpt><trkpt lat="43.20872734646768" lon="11.493660649788742"><ele>250.0</ele><time>2026-04-11T02:51:35.998Z</time></trkpt><trkpt lat="43.20878132537914" lon="11.493738948453514"><ele>250.0</ele><time>2026-04-11T02:51:37.998Z</time></trkpt><trkpt lat="43.20882943127237" lon="11.493815986497724"><ele>250.0</ele><time>2026-04-11T02:51:39.998Z</time></trkpt><trkpt lat="43.20888179107705" lon="11.493915197902583"><ele>249.99999999999997</ele><time>2026-04-11T02:51:42.998Z</time></trkpt><trkpt lat="43.208921480089266" lon="11.494010147784302"><ele>250.0</ele><time>2026-04-11T02:51:45.998Z</time></trkpt><trkpt lat="43.208959189327274" lon="11.494107593611098"><ele>251.49999999999997</ele><time>2026-04-11T02:51:48.998Z</time></trkpt><trkpt lat="43.2089931940463" lon="11.49420345729"><ele>253.0</ele><time>2026-04-11T02:51:51.998Z</time></trkpt><trkpt lat="43.209024190944284" lon="11.49430012446097"><ele>254.5</ele><time>2026-04-11T02:51:54.998Z</time></trkpt><trkpt lat="43.20905382660389" lon="11.494408845295798"><ele>256.0</ele><time>2026-04-11T02:51:58.998Z</time></trkpt><trkpt lat="43.209082104419934" lon="11.494521051762526"><ele>257.5</ele><time>2026-04-11T02:52:01.998Z</time></trkpt><trkpt lat="43.2091384929317" lon="11.494566883929584"><ele>259.0</ele><time>2026-04-11T02:52:03.997Z</time></trkpt><trkpt lat="43.20915964785134" lon="11.494685419285343"><ele>259.3333333333333</ele><time>2026-04-11T02:52:07.997Z</time></trkpt><trkpt lat="43.20917562073407" lon="11.49476920847875"><ele>259.66666666666663</ele><time>2026-04-11T02:52:10.997Z</time></trkpt><trkpt lat="43.20919540557247" lon="11.494876956241237"><ele>260.0</ele><time>2026-04-11T02:52:15Z</time></trkpt><trkpt lat="43.209209022149075" lon="11.494983649831429"><ele>260.3333333333333</ele><time>2026-04-11T02:52:18.999Z</time></trkpt><trkpt lat="43.20922038396157" lon="11.495095034397524"><ele>260.6666666666667</ele><time>2026-04-11T02:52:23Z</time></trkpt><trkpt lat="43.20922960186548" lon="11.495198634410517"><ele>261.0</ele><time>2026-04-11T02:52:27Z</time></trkpt><trkpt lat="43.20924919533811" lon="11.495317245985024"><ele>261.0</ele><time>2026-04-11T02:52:30.999Z</time></trkpt><trkpt lat="43.20926867132486" lon="11.495401838908663"><ele>261.0</ele><time>2026-04-11T02:52:34.999Z</time></trkpt><trkpt lat="43.209295314038656" lon="11.495483181136107"><ele>261.0</ele><time>2026-04-11T02:52:37.999Z</time></trkpt><trkpt lat="43.20932538685493" lon="11.495565478692548"><ele>261.0</ele><time>2026-04-11T02:52:40.999Z</time></trkpt><trkpt lat="43.20935671509997" lon="11.495640819859785"><ele>261.0</ele><time>2026-04-11T02:52:43.999Z</time></trkpt><trkpt lat="43.209385738331065" lon="11.495726117359968"><ele>261.0</ele><time>2026-04-11T02:52:45.999Z</time></trkpt><trkpt lat="43.209418345641" lon="11.495807163333197"><ele>261.0</ele><time>2026-04-11T02:52:48.999Z</time></trkpt><trkpt lat="43.20945088685251" lon="11.495897611412756"><ele>261.3333333333333</ele><time>2026-04-11T02:52:51.999Z</time></trkpt><trkpt lat="43.20948280321503" lon="11.496003184399965"><ele>261.6666666666667</ele><time>2026-04-11T02:52:55.999Z</time></trkpt><trkpt lat="43.20952154784801" lon="11.496125726398056"><ele>262.0</ele><time>2026-04-11T02:52:58.999Z</time></trkpt><trkpt lat="43.209549742457206" lon="11.496211389308936"><ele>262.33333333333337</ele><time>2026-04-11T02:53:00.999Z</time></trkpt><trkpt lat="43.20958222106684" lon="11.496297092511716"><ele>262.6666666666667</ele><time>2026-04-11T02:53:02.999Z</time></trkpt><trkpt lat="43.20962283947174" lon="11.496390707610793"><ele>263.0</ele><time>2026-04-11T02:53:04.999Z</time></trkpt><trkpt lat="43.20967530148314" lon="11.496491856376736"><ele>263.4</ele><time>2026-04-11T02:53:06.999Z</time></trkpt><trkpt lat="43.20973826465061" lon="11.496584637658726"><ele>263.8</ele><time>2026-04-11T02:53:08.999Z</time></trkpt><trkpt lat="43.20981272910593" lon="11.496685068875806"><ele>264.2</ele><time>2026-04-11T02:53:10.999Z</time></trkpt><trkpt lat="43.20988156851769" lon="11.496794393481402"><ele>264.6</ele><time>2026-04-11T02:53:12.999Z</time></trkpt><trkpt lat="43.20997835796204" lon="11.496872922165661"><ele>265.0</ele><time>2026-04-11T02:53:14.999Z</time></trkpt><trkpt lat="43.21007444077767" lon="11.496946401673608"><ele>265.0</ele><time>2026-04-11T02:53:16.999Z</time></trkpt><trkpt lat="43.21017403572959" lon="11.497018804903085"><ele>265.0</ele><time>2026-04-11T02:53:18.999Z</time></trkpt><trkpt lat="43.210272186420006" lon="11.497089563978037"><ele>265.0</ele><time>2026-04-11T02:53:20.999Z</time></trkpt><trkpt lat="43.21036414288284" lon="11.497165103746504"><ele>265.0</ele><time>2026-04-11T02:53:22.998Z</time></trkpt><trkpt lat="43.21045919192173" lon="11.497244060280668"><ele>265.0</ele><time>2026-04-11T02:53:24.998Z</time></trkpt><trkpt lat="43.21055571256823" lon="11.497320219384223"><ele>264.8</ele><time>2026-04-11T02:53:26.998Z</time></trkpt><trkpt lat="43.21064495026153" lon="11.497394379255297"><ele>264.6</ele><time>2026-04-11T02:53:28.998Z</time></trkpt><trkpt lat="43.21072870161424" lon="11.497491055070089"><ele>264.4</ele><time>2026-04-11T02:53:30.998Z</time></trkpt><trkpt lat="43.21079436124308" lon="11.497614918213998"><ele>264.2</ele><time>2026-04-11T02:53:32.998Z</time></trkpt><trkpt lat="43.21083309130765" lon="11.497771680046656"><ele>264.0</ele><time>2026-04-11T02:53:34.998Z</time></trkpt><trkpt lat="43.21086138404435" lon="11.497917363843293"><ele>263.0</ele><time>2026-04-11T02:53:36.998Z</time></trkpt><trkpt lat="43.21088401925573" lon="11.498060524568908"><ele>262.0</ele><time>2026-04-11T02:53:38.998Z</time></trkpt><trkpt lat="43.210906096219716" lon="11.498199847086738"><ele>261.0</ele><time>2026-04-11T02:53:40.998Z</time></trkpt><trkpt lat="43.2109337359121" lon="11.498342738513886"><ele>260.0</ele><time>2026-04-11T02:53:42.998Z</time></trkpt><trkpt lat="43.210997187405816" lon="11.49848062071116"><ele>259.0</ele><time>2026-04-11T02:53:44.998Z</time></trkpt><trkpt lat="43.211098598693006" lon="11.498566469865466"><ele>259.0</ele><time>2026-04-11T02:53:46.998Z</time></trkpt><trkpt lat="43.21117540798814" lon="11.498646586367753"><ele>259.0</ele><time>2026-04-11T02:53:48.998Z</time></trkpt><trkpt lat="43.21127276709882" lon="11.498667065784346"><ele>259.0</ele><time>2026-04-11T02:53:50.998Z</time></trkpt><trkpt lat="43.211362132216586" lon="11.498699852739065"><ele>259.0</ele><time>2026-04-11T02:53:52.998Z</time></trkpt><trkpt lat="43.211452795578374" lon="11.498695070382235"><ele>259.0</ele><time>2026-04-11T02:53:54.998Z</time></trkpt><trkpt lat="43.21154140472559" lon="11.4986812225172"><ele>257.5</ele><time>2026-04-11T02:53:56.998Z</time></trkpt><trkpt lat="43.211635824303826" lon="11.49866070013591"><ele>256.0</ele><time>2026-04-11T02:53:58.998Z</time></trkpt><trkpt lat="43.21172535408716" lon="11.498634527725171"><ele>254.5</ele><time>2026-04-11T02:54:00.998Z</time></trkpt><trkpt lat="43.21180650473604" lon="11.49861125902745"><ele>253.0</ele><time>2026-04-11T02:54:02.998Z</time></trkpt><trkpt lat="43.21187182030587" lon="11.49860378041456"><ele>251.49999999999997</ele><time>2026-04-11T02:54:04.998Z</time></trkpt><trkpt lat="43.21195397263333" lon="11.498623568581738"><ele>250.0</ele><time>2026-04-11T02:54:06.998Z</time></trkpt><trkpt lat="43.21203188363576" lon="11.498707443797013"><ele>248.8</ele><time>2026-04-11T02:54:08.998Z</time></trkpt><trkpt lat="43.21210224820309" lon="11.498811911058647"><ele>247.6</ele><time>2026-04-11T02:54:10.998Z</time></trkpt><trkpt lat="43.21216056330024" lon="11.498942093456916"><ele>246.39999999999998</ele><time>2026-04-11T02:54:12.997Z</time></trkpt><trkpt lat="43.2121886049651" lon="11.499070515610699"><ele>245.2</ele><time>2026-04-11T02:54:14.997Z</time></trkpt><trkpt lat="43.21219783679534" lon="11.49918919847338"><ele>244.0</ele><time>2026-04-11T02:54:16.997Z</time></trkpt><trkpt lat="43.21219174640817" lon="11.499299419715165"><ele>244.0</ele><time>2026-04-11T02:54:19Z</time></trkpt><trkpt lat="43.21217645486267" lon="11.499412547577363"><ele>243.99999999999997</ele><time>2026-04-11T02:54:21Z</time></trkpt><trkpt lat="43.21211406813238" lon="11.49950963382845"><ele>243.99999999999997</ele><time>2026-04-11T02:54:23Z</time></trkpt><trkpt lat="43.212023292964226" lon="11.49958066128888"><ele>244.0</ele><time>2026-04-11T02:54:25Z</time></trkpt><trkpt lat="43.21190490280832" lon="11.499623879202012"><ele>244.0</ele><time>2026-04-11T02:54:27Z</time></trkpt><trkpt lat="43.21179270094654" lon="11.499654941461706"><ele>240.75</ele><time>2026-04-11T02:54:29Z</time></trkpt><trkpt lat="43.21168867376591" lon="11.499726748008536"><ele>237.5</ele><time>2026-04-11T02:54:31Z</time></trkpt><trkpt lat="43.2116070409232" lon="11.499844016723227"><ele>234.25</ele><time>2026-04-11T02:54:33Z</time></trkpt><trkpt lat="43.21155336686308" lon="11.499978335234529"><ele>231.0</ele><time>2026-04-11T02:54:35Z</time></trkpt><trkpt lat="43.211526066074036" lon="11.500134137191937"><ele>231.0</ele><time>2026-04-11T02:54:37Z</time></trkpt><trkpt lat="43.21149825055075" lon="11.50029602489997"><ele>231.00000000000003</ele><time>2026-04-11T02:54:38.999Z</time></trkpt><trkpt lat="43.211480867902026" lon="11.5003790796933"><ele>231.00000000000003</ele><time>2026-04-11T02:54:39.999Z</time></trkpt><trkpt lat="43.21144485309697" lon="11.500541291904232"><ele>231.0</ele><time>2026-04-11T02:54:41.999Z</time></trkpt><trkpt lat="43.211415047664936" lon="11.500691211142756"><ele>231.0</ele><time>2026-04-11T02:54:43.999Z</time></trkpt><trkpt lat="43.211379021537866" lon="11.500817577508602"><ele>228.60000000000002</ele><time>2026-04-11T02:54:45.999Z</time></trkpt><trkpt lat="43.21131325865289" lon="11.500943226406124"><ele>226.20000000000002</ele><time>2026-04-11T02:54:47.999Z</time></trkpt><trkpt lat="43.21122879839114" lon="11.501030116813139"><ele>223.79999999999998</ele><time>2026-04-11T02:54:49.999Z</time></trkpt><trkpt lat="43.21111989794019" lon="11.501061942814395"><ele>221.39999999999998</ele><time>2026-04-11T02:54:51.999Z</time></trkpt><trkpt lat="43.21102619097267" lon="11.501112951155704"><ele>219.0</ele><time>2026-04-11T02:54:53.999Z</time></trkpt><trkpt lat="43.210941885699334" lon="11.501188416856989"><ele>219.2</ele><time>2026-04-11T02:54:55.999Z</time></trkpt><trkpt lat="43.21084841835208" lon="11.501255538196355"><ele>219.39999999999998</ele><time>2026-04-11T02:54:57.999Z</time></trkpt><trkpt lat="43.21075951983581" lon="11.50134341367804"><ele>219.6</ele><time>2026-04-11T02:54:59.999Z</time></trkpt><trkpt lat="43.210692913399285" lon="11.50143604859301"><ele>219.8</ele><time>2026-04-11T02:55:01.999Z</time></trkpt><trkpt lat="43.210618474454144" lon="11.50151466014595"><ele>220.0</ele><time>2026-04-11T02:55:03.999Z</time></trkpt><trkpt lat="43.210583651041716" lon="11.501629211108291"><ele>220.0</ele><time>2026-04-11T02:55:05.999Z</time></trkpt><trkpt lat="43.210543128979275" lon="11.501733697034492"><ele>220.0</ele><time>2026-04-11T02:55:07.999Z</time></trkpt><trkpt lat="43.21050949638561" lon="11.501843522493473"><ele>220.0</ele><time>2026-04-11T02:55:09.999Z</time></trkpt><trkpt lat="43.2104772863516" lon="11.501961649064679"><ele>220.0</ele><time>2026-04-11T02:55:11.999Z</time></trkpt><trkpt lat="43.21043963852268" lon="11.50208266632004"><ele>220.0</ele><time>2026-04-11T02:55:13.999Z</time></trkpt><trkpt lat="43.210395651819255" lon="11.502209961908349"><ele>221.66666666666666</ele><time>2026-04-11T02:55:15.999Z</time></trkpt><trkpt lat="43.21032082863232" lon="11.502300393081656"><ele>223.33333333333331</ele><time>2026-04-11T02:55:17.999Z</time></trkpt><trkpt lat="43.21024678483955" lon="11.50238628828728"><ele>225.0</ele><time>2026-04-11T02:55:19.999Z</time></trkpt><trkpt lat="43.21019199320952" lon="11.502463794918482"><ele>226.66666666666669</ele><time>2026-04-11T02:55:21.999Z</time></trkpt><trkpt lat="43.21011804270581" lon="11.502539448049106"><ele>228.33333333333334</ele><time>2026-04-11T02:55:22.999Z</time></trkpt><trkpt lat="43.210065274045505" lon="11.50259527821349"><ele>230.0</ele><time>2026-04-11T02:55:23.999Z</time></trkpt><trkpt lat="43.20996471514122" lon="11.502664604980488"><ele>230.0</ele><time>2026-04-11T02:55:25.999Z</time></trkpt><trkpt lat="43.20987439851753" lon="11.502754008273758"><ele>230.0</ele><time>2026-04-11T02:55:27.999Z</time></trkpt><trkpt lat="43.20981105020157" lon="11.502816715987326"><ele>230.0</ele><time>2026-04-11T02:55:30.998Z</time></trkpt><trkpt lat="43.20970418793707" lon="11.502927051824056"><ele>230.0</ele><time>2026-04-11T02:55:31.998Z</time></trkpt><trkpt lat="43.20964495039567" lon="11.502989195669429"><ele>230.0</ele><time>2026-04-11T02:55:32.998Z</time></trkpt><trkpt lat="43.20959153716533" lon="11.50304724893546"><ele>227.8</ele><time>2026-04-11T02:55:33.998Z</time></trkpt><trkpt lat="43.20949998126282" lon="11.503147966034163"><ele>225.6</ele><time>2026-04-11T02:55:35.998Z</time></trkpt><trkpt lat="43.20941264475312" lon="11.503244918062252"><ele>223.39999999999998</ele><time>2026-04-11T02:55:37.998Z</time></trkpt><trkpt lat="43.20932120090109" lon="11.503355574009966"><ele>221.2</ele><time>2026-04-11T02:55:39.998Z</time></trkpt><trkpt lat="43.20927211150744" lon="11.503426962471119"><ele>219.0</ele><time>2026-04-11T02:55:40.998Z</time></trkpt><trkpt lat="43.209228569047426" lon="11.5035000478094"><ele>219.0</ele><time>2026-04-11T02:55:41.998Z</time></trkpt><trkpt lat="43.20918665312025" lon="11.503572408854184"><ele>219.0</ele><time>2026-04-11T02:55:42.998Z</time></trkpt><trkpt lat="43.20914720015622" lon="11.503643236947356"><ele>219.0</ele><time>2026-04-11T02:55:43.998Z</time></trkpt><trkpt lat="43.20910734606655" lon="11.503715682705614"><ele>219.0</ele><time>2026-04-11T02:55:44.998Z</time></trkpt><trkpt lat="43.2090676249056" lon="11.503787886933251"><ele>219.0</ele><time>2026-04-11T02:55:45.998Z</time></trkpt><trkpt lat="43.209028099794565" lon="11.503859734727234"><ele>219.0</ele><time>2026-04-11T02:55:46.998Z</time></trkpt><trkpt lat="43.20898905475608" lon="11.503930709848058"><ele>219.0</ele><time>2026-04-11T02:55:47.998Z</time></trkpt><trkpt lat="43.208947207559724" lon="11.504006778751387"><ele>216.79999999999998</ele><time>2026-04-11T02:55:48.998Z</time></trkpt><trkpt lat="43.20890821139119" lon="11.504077665000592"><ele>214.59999999999997</ele><time>2026-04-11T02:55:49.998Z</time></trkpt><trkpt lat="43.20883903276444" lon="11.504225465820783"><ele>212.4</ele><time>2026-04-11T02:55:51.998Z</time></trkpt><trkpt lat="43.20876364741598" lon="11.504326107911675"><ele>210.2</ele><time>2026-04-11T02:55:53.998Z</time></trkpt><trkpt lat="43.20868730718105" lon="11.504425600410931"><ele>208.0</ele><time>2026-04-11T02:55:55.998Z</time></trkpt><trkpt lat="43.208579253784585" lon="11.504509903005138"><ele>207.99999999999997</ele><time>2026-04-11T02:55:57.998Z</time></trkpt><trkpt lat="43.20851578655136" lon="11.504539603469192"><ele>208.0</ele><time>2026-04-11T02:55:58.998Z</time></trkpt><trkpt lat="43.20845350752262" lon="11.504558986538637"><ele>208.0</ele><time>2026-04-11T02:55:59.998Z</time></trkpt><trkpt lat="43.2083384813769" lon="11.50458625348412"><ele>208.0</ele><time>2026-04-11T02:56:01.998Z</time></trkpt><trkpt lat="43.20821366337377" lon="11.50459711738911"><ele>207.99999999999997</ele><time>2026-04-11T02:56:03.998Z</time></trkpt><trkpt lat="43.20814770108953" lon="11.504601816425252"><ele>208.0</ele><time>2026-04-11T02:56:04.998Z</time></trkpt><trkpt lat="43.2080271123576" lon="11.504599818599713"><ele>205.33333333333331</ele><time>2026-04-11T02:56:06.998Z</time></trkpt><trkpt lat="43.207912836593785" lon="11.504568460298799"><ele>202.66666666666666</ele><time>2026-04-11T02:56:08.998Z</time></trkpt><trkpt lat="43.20782679822933" lon="11.504541551135203"><ele>200.0</ele><time>2026-04-11T02:56:10.998Z</time></trkpt><trkpt lat="43.20775087113923" lon="11.504563467643347"><ele>197.33333333333331</ele><time>2026-04-11T02:56:12.998Z</time></trkpt><trkpt lat="43.207720356462254" lon="11.504641947910843"><ele>194.66666666666666</ele><time>2026-04-11T02:56:14.998Z</time></trkpt><trkpt lat="43.20775182600116" lon="11.50471957759361"><ele>192.0</ele><time>2026-04-11T02:56:16.998Z</time></trkpt><trkpt lat="43.207830576594866" lon="11.504772792164234"><ele>192.0</ele><time>2026-04-11T02:56:18.998Z</time></trkpt><trkpt lat="43.20792976256167" lon="11.504814011964172"><ele>192.0</ele><time>2026-04-11T02:56:20.997Z</time></trkpt><trkpt lat="43.208039916239066" lon="11.504857035526744"><ele>192.0</ele><time>2026-04-11T02:56:22.997Z</time></trkpt><trkpt lat="43.2081491145448" lon="11.504914860281461"><ele>192.0</ele><time>2026-04-11T02:56:25Z</time></trkpt><trkpt lat="43.20825769431518" lon="11.504977373747938"><ele>192.0</ele><time>2026-04-11T02:56:27Z</time></trkpt><trkpt lat="43.208366995584676" lon="11.505035002153953"><ele>192.0</ele><time>2026-04-11T02:56:29Z</time></trkpt><trkpt lat="43.20847765270772" lon="11.505080102225596"><ele>192.0</ele><time>2026-04-11T02:56:31Z</time></trkpt><trkpt lat="43.208593332367535" lon="11.505097816621701"><ele>192.0</ele><time>2026-04-11T02:56:33Z</time></trkpt><trkpt lat="43.20870627479923" lon="11.50510761397701"><ele>192.0</ele><time>2026-04-11T02:56:35Z</time></trkpt><trkpt lat="43.20881281430435" lon="11.505125611813313"><ele>192.0</ele><time>2026-04-11T02:56:37Z</time></trkpt><trkpt lat="43.20891061691574" lon="11.505151183832115"><ele>192.0</ele><time>2026-04-11T02:56:39Z</time></trkpt><trkpt lat="43.20900531663996" lon="11.505156798672491"><ele>192.0</ele><time>2026-04-11T02:56:41Z</time></trkpt><trkpt lat="43.20910333954768" lon="11.505123691322451"><ele>192.0</ele><time>2026-04-11T02:56:42.999Z</time></trkpt><trkpt lat="43.209203331651345" lon="11.505094124605716"><ele>190.6</ele><time>2026-04-11T02:56:44.999Z</time></trkpt><trkpt lat="43.209279926930954" lon="11.505038114420886"><ele>189.2</ele><time>2026-04-11T02:56:46.999Z</time></trkpt><trkpt lat="43.20935730536065" lon="11.504977848943795"><ele>187.8</ele><time>2026-04-11T02:56:48.999Z</time></trkpt><trkpt lat="43.20943839307236" lon="11.504937141726138"><ele>186.4</ele><time>2026-04-11T02:56:50.999Z</time></trkpt><trkpt lat="43.20952759602888" lon="11.504890008933446"><ele>185.0</ele><time>2026-04-11T02:56:52.999Z</time></trkpt><trkpt lat="43.20962468518066" lon="11.504939507590947"><ele>185.0</ele><time>2026-04-11T02:56:54.999Z</time></trkpt><trkpt lat="43.20971511521065" lon="11.504982696337436"><ele>185.0</ele><time>2026-04-11T02:56:56.999Z</time></trkpt><trkpt lat="43.209810432021015" lon="11.505048460266929"><ele>185.0</ele><time>2026-04-11T02:56:58.999Z</time></trkpt><trkpt lat="43.20991193632017" lon="11.50510662827794"><ele>185.0</ele><time>2026-04-11T02:57:00.999Z</time></trkpt><trkpt lat="43.20998903790512" lon="11.505216552861045"><ele>185.0</ele><time>2026-04-11T02:57:02.999Z</time></trkpt><trkpt lat="43.21008925784109" lon="11.505315548751547"><ele>183.4</ele><time>2026-04-11T02:57:04.999Z</time></trkpt><trkpt lat="43.21019280228852" lon="11.505384517955054"><ele>181.8</ele><time>2026-04-11T02:57:06.999Z</time></trkpt><trkpt lat="43.21029252985893" lon="11.505420936804688"><ele>180.2</ele><time>2026-04-11T02:57:08.999Z</time></trkpt><trkpt lat="43.21040395888184" lon="11.505449881477356"><ele>178.6</ele><time>2026-04-11T02:57:10.999Z</time></trkpt><trkpt lat="43.21046804937665" lon="11.505461905072288"><ele>177.0</ele><time>2026-04-11T02:57:11.999Z</time></trkpt><trkpt lat="43.21053292214569" lon="11.505475396227013"><ele>176.5</ele><time>2026-04-11T02:57:12.999Z</time></trkpt><trkpt lat="43.21060020308881" lon="11.505486486465498"><ele>176.0</ele><time>2026-04-11T02:57:13.999Z</time></trkpt><trkpt lat="43.21067094970021" lon="11.505483504403893"><ele>175.5</ele><time>2026-04-11T02:57:14.999Z</time></trkpt><trkpt lat="43.21075099109336" lon="11.505467696044066"><ele>175.0</ele><time>2026-04-11T02:57:15.999Z</time></trkpt><trkpt lat="43.21083319023737" lon="11.505442911656552"><ele>174.5</ele><time>2026-04-11T02:57:16.999Z</time></trkpt><trkpt lat="43.210903246249906" lon="11.505413031764327"><ele>174.0</ele><time>2026-04-11T02:57:17.999Z</time></trkpt><trkpt lat="43.211011457011914" lon="11.505370443869591"><ele>174.0</ele><time>2026-04-11T02:57:19.999Z</time></trkpt><trkpt lat="43.21109687494121" lon="11.505351800418698"><ele>174.0</ele><time>2026-04-11T02:57:21.999Z</time></trkpt><trkpt lat="43.211183144974875" lon="11.505368052605753"><ele>174.0</ele><time>2026-04-11T02:57:23.999Z</time></trkpt><trkpt lat="43.21127782971746" lon="11.50544088118245"><ele>174.0</ele><time>2026-04-11T02:57:25.999Z</time></trkpt><trkpt lat="43.21133375765823" lon="11.50548310171113"><ele>174.0</ele><time>2026-04-11T02:57:26.999Z</time></trkpt><trkpt lat="43.21137183611002" lon="11.50556358960007"><ele>174.0</ele><time>2026-04-11T02:57:27.999Z</time></trkpt><trkpt lat="43.21138781603041" lon="11.505659766544733"><ele>172.71428571428572</ele><time>2026-04-11T02:57:28.999Z</time></trkpt><trkpt lat="43.211413161805524" lon="11.505748203974042"><ele>171.42857142857144</ele><time>2026-04-11T02:57:29.999Z</time></trkpt><trkpt lat="43.2114382259507" lon="11.50583706464623"><ele>170.14285714285717</ele><time>2026-04-11T02:57:30.999Z</time></trkpt><trkpt lat="43.21147750702253" lon="11.505919315911543"><ele>168.85714285714286</ele><time>2026-04-11T02:57:31.999Z</time></trkpt><trkpt lat="43.21150372875293" lon="11.506008925263428"><ele>167.57142857142858</ele><time>2026-04-11T02:57:32.999Z</time></trkpt><trkpt lat="43.211529554374394" lon="11.506099138042405"><ele>166.2857142857143</ele><time>2026-04-11T02:57:33.999Z</time></trkpt><trkpt lat="43.2115530533759" lon="11.506189484040629"><ele>165.0</ele><time>2026-04-11T02:57:34.999Z</time></trkpt><trkpt lat="43.21157984809509" lon="11.506279675785825"><ele>165.0</ele><time>2026-04-11T02:57:35.999Z</time></trkpt><trkpt lat="43.21160688159288" lon="11.506367794389845"><ele>165.0</ele><time>2026-04-11T02:57:36.999Z</time></trkpt><trkpt lat="43.21161693830507" lon="11.506462698251008"><ele>165.0</ele><time>2026-04-11T02:57:37.999Z</time></trkpt><trkpt lat="43.21164167871359" lon="11.506549309413613"><ele>165.0</ele><time>2026-04-11T02:57:38.998Z</time></trkpt><trkpt lat="43.21168659888967" lon="11.506706565455072"><ele>165.0</ele><time>2026-04-11T02:57:40.998Z</time></trkpt><trkpt lat="43.2117299364447" lon="11.506858281060943"><ele>165.0</ele><time>2026-04-11T02:57:42.998Z</time></trkpt><trkpt lat="43.21177137247966" lon="11.507003339773416"><ele>164.8</ele><time>2026-04-11T02:57:44.998Z</time></trkpt><trkpt lat="43.21181262860694" lon="11.507147768622492"><ele>164.6</ele><time>2026-04-11T02:57:46.998Z</time></trkpt><trkpt lat="43.21185278378989" lon="11.507286368595642"><ele>164.39999999999998</ele><time>2026-04-11T02:57:48.998Z</time></trkpt><trkpt lat="43.21189487509922" lon="11.507418323853985"><ele>164.2</ele><time>2026-04-11T02:57:50.998Z</time></trkpt><trkpt lat="43.21194126745108" lon="11.507548821757815"><ele>164.0</ele><time>2026-04-11T02:57:52.998Z</time></trkpt><trkpt lat="43.21202345147606" lon="11.507647439051341"><ele>164.0</ele><time>2026-04-11T02:57:54.998Z</time></trkpt><trkpt lat="43.21211246512264" lon="11.507734527009688"><ele>164.0</ele><time>2026-04-11T02:57:56.998Z</time></trkpt><trkpt lat="43.21222436639109" lon="11.507801261038571"><ele>164.0</ele><time>2026-04-11T02:57:58.998Z</time></trkpt><trkpt lat="43.212285510404676" lon="11.507830137115317"><ele>164.0</ele><time>2026-04-11T02:57:59.998Z</time></trkpt><trkpt lat="43.212346278944146" lon="11.507861046040283"><ele>164.0</ele><time>2026-04-11T02:58:00.998Z</time></trkpt><trkpt lat="43.21239498040158" lon="11.507920377442446"><ele>164.0</ele><time>2026-04-11T02:58:01.998Z</time></trkpt><trkpt lat="43.21250941616144" lon="11.508001121594434"><ele>163.7142857142857</ele><time>2026-04-11T02:58:03.998Z</time></trkpt><trkpt lat="43.21255228069817" lon="11.508065521376151"><ele>163.42857142857142</ele><time>2026-04-11T02:58:04.998Z</time></trkpt><trkpt lat="43.21262487955068" lon="11.508206524012293"><ele>163.14285714285714</ele><time>2026-04-11T02:58:06.998Z</time></trkpt><trkpt lat="43.21265879041516" lon="11.508282901391325"><ele>162.85714285714283</ele><time>2026-04-11T02:58:07.998Z</time></trkpt><trkpt lat="43.21269114685995" lon="11.508360604778483"><ele>162.57142857142856</ele><time>2026-04-11T02:58:08.998Z</time></trkpt><trkpt lat="43.212720910280154" lon="11.508437133429677"><ele>162.28571428571428</ele><time>2026-04-11T02:58:09.998Z</time></trkpt><trkpt lat="43.212756820659415" lon="11.508509973619587"><ele>162.0</ele><time>2026-04-11T02:58:10.998Z</time></trkpt><trkpt lat="43.212826131705675" lon="11.508647608599164"><ele>161.83333333333334</ele><time>2026-04-11T02:58:12.998Z</time></trkpt><trkpt lat="43.212894520888014" lon="11.508785484833755"><ele>161.66666666666666</ele><time>2026-04-11T02:58:14.998Z</time></trkpt><trkpt lat="43.212914370824286" lon="11.508869672314415"><ele>161.5</ele><time>2026-04-11T02:58:15.998Z</time></trkpt><trkpt lat="43.21294931741114" lon="11.508943901095648"><ele>161.33333333333331</ele><time>2026-04-11T02:58:16.998Z</time></trkpt><trkpt lat="43.21298591647314" lon="11.509014660591133"><ele>161.16666666666666</ele><time>2026-04-11T02:58:17.998Z</time></trkpt><trkpt lat="43.2130661896032" lon="11.509140124759066"><ele>161.0</ele><time>2026-04-11T02:58:19.998Z</time></trkpt><trkpt lat="43.21312668060702" lon="11.509274536672015"><ele>161.4</ele><time>2026-04-11T02:58:21.998Z</time></trkpt><trkpt lat="43.21319165934948" lon="11.509395790911602"><ele>161.8</ele><time>2026-04-11T02:58:23.998Z</time></trkpt><trkpt lat="43.21325746681931" lon="11.509512102612211"><ele>162.20000000000002</ele><time>2026-04-11T02:58:25.998Z</time></trkpt><trkpt lat="43.213333488829164" lon="11.509623394210141"><ele>162.60000000000002</ele><time>2026-04-11T02:58:27.998Z</time></trkpt><trkpt lat="43.21340545264426" lon="11.509738340165192"><ele>163.0</ele><time>2026-04-11T02:58:29.998Z</time></trkpt><trkpt lat="43.21350888284212" lon="11.509824204159978"><ele>163.0</ele><time>2026-04-11T02:58:32Z</time></trkpt><trkpt lat="43.21359914100543" lon="11.50992888346229"><ele>163.0</ele><time>2026-04-11T02:58:34Z</time></trkpt><trkpt lat="43.21368689628619" lon="11.5100338097636"><ele>163.0</ele><time>2026-04-11T02:58:36Z</time></trkpt><trkpt lat="43.21376912372634" lon="11.51014725004605"><ele>163.0</ele><time>2026-04-11T02:58:38Z</time></trkpt><trkpt lat="43.21384043005815" lon="11.510263351113627"><ele>163.0</ele><time>2026-04-11T02:58:40Z</time></trkpt><trkpt lat="43.21390515521767" lon="11.510381190928825"><ele>163.0</ele><time>2026-04-11T02:58:42Z</time></trkpt><trkpt lat="43.21396312651757" lon="11.51048816442924"><ele>163.0</ele><time>2026-04-11T02:58:44Z</time></trkpt><trkpt lat="43.214018315385424" lon="11.510595038637335"><ele>163.0</ele><time>2026-04-11T02:58:46Z</time></trkpt><trkpt lat="43.214081134906955" lon="11.510702262180533"><ele>163.0</ele><time>2026-04-11T02:58:48Z</time></trkpt><trkpt lat="43.21413926517713" lon="11.510813294846956"><ele>163.2</ele><time>2026-04-11T02:58:50Z</time></trkpt><trkpt lat="43.2141959079715" lon="11.510926743159093"><ele>163.4</ele><time>2026-04-11T02:58:52Z</time></trkpt><trkpt lat="43.21423728532453" lon="11.511055563432693"><ele>163.6</ele><time>2026-04-11T02:58:53.999Z</time></trkpt><trkpt lat="43.214259431938125" lon="11.51120572655599"><ele>163.79999999999998</ele><time>2026-04-11T02:58:55.999Z</time></trkpt><trkpt lat="43.21425099173221" lon="11.511353772640419"><ele>164.0</ele><time>2026-04-11T02:58:57.999Z</time></trkpt><trkpt lat="43.21422934727191" lon="11.511484223063329"><ele>164.33333333333331</ele><time>2026-04-11T02:58:59.999Z</time></trkpt><trkpt lat="43.21419602668751" lon="11.511647922233303"><ele>164.66666666666666</ele><time>2026-04-11T02:59:02.999Z</time></trkpt><trkpt lat="43.21418648026265" lon="11.511737320437643"><ele>165.0</ele><time>2026-04-11T02:59:04.999Z</time></trkpt><trkpt lat="43.214191589151596" lon="11.51182711564548"><ele>165.33333333333334</ele><time>2026-04-11T02:59:06.999Z</time></trkpt><trkpt lat="43.21421186023173" lon="11.511953016769029"><ele>165.66666666666669</ele><time>2026-04-11T02:59:09.999Z</time></trkpt><trkpt lat="43.21423833063567" lon="11.512034767603474"><ele>166.0</ele><time>2026-04-11T02:59:11.999Z</time></trkpt><trkpt lat="43.214284113637554" lon="11.512145093229998"><ele>166.33333333333334</ele><time>2026-04-11T02:59:14.999Z</time></trkpt><trkpt lat="43.21432921855779" lon="11.512244682548486"><ele>166.66666666666669</ele><time>2026-04-11T02:59:17.999Z</time></trkpt><trkpt lat="43.214400085437674" lon="11.512323632419516"><ele>167.0</ele><time>2026-04-11T02:59:20.999Z</time></trkpt><trkpt lat="43.21447191573671" lon="11.51238586763946"><ele>167.33333333333334</ele><time>2026-04-11T02:59:23.999Z</time></trkpt><trkpt lat="43.21454728061974" lon="11.512448497524556"><ele>167.66666666666666</ele><time>2026-04-11T02:59:26.999Z</time></trkpt><trkpt lat="43.214618172698046" lon="11.51251963921919"><ele>168.0</ele><time>2026-04-11T02:59:30.999Z</time></trkpt><trkpt lat="43.21468189403073" lon="11.512582159727941"><ele>168.0</ele><time>2026-04-11T02:59:33.999Z</time></trkpt><trkpt lat="43.21474874725822" lon="11.512646458394537"><ele>168.0</ele><time>2026-04-11T02:59:36.999Z</time></trkpt><trkpt lat="43.21481274366774" lon="11.512707391478763"><ele>168.0</ele><time>2026-04-11T02:59:39.999Z</time></trkpt><trkpt lat="43.21487470320338" lon="11.512769843078036"><ele>168.0</ele><time>2026-04-11T02:59:42.999Z</time></trkpt><trkpt lat="43.214928190367274" lon="11.512819277409276"><ele>168.0</ele><time>2026-04-11T02:59:44.998Z</time></trkpt><trkpt lat="43.21498462028353" lon="11.512878987907786"><ele>168.0</ele><time>2026-04-11T02:59:47.998Z</time></trkpt><trkpt lat="43.215038384719406" lon="11.512939091336122"><ele>168.0</ele><time>2026-04-11T02:59:50.998Z</time></trkpt><trkpt lat="43.21509328540361" lon="11.51298998867105"><ele>170.0</ele><time>2026-04-11T02:59:53.998Z</time></trkpt><trkpt lat="43.215165140562426" lon="11.513071497598396"><ele>172.0</ele><time>2026-04-11T02:59:56.998Z</time></trkpt><trkpt lat="43.215213049551004" lon="11.513131299403817"><ele>174.0</ele><time>2026-04-11T02:59:59.998Z</time></trkpt><trkpt lat="43.215261141144914" lon="11.513193779953522"><ele>176.0</ele><time>2026-04-11T03:00:02.998Z</time></trkpt><trkpt lat="43.21530812261779" lon="11.513266177133547"><ele>178.0</ele><time>2026-04-11T03:00:05.998Z</time></trkpt><trkpt lat="43.215364998198545" lon="11.51336844978055"><ele>180.0</ele><time>2026-04-11T03:00:09.998Z</time></trkpt><trkpt lat="43.215402846858005" lon="11.513445296724335"><ele>180.0</ele><time>2026-04-11T03:00:12.998Z</time></trkpt><trkpt lat="43.21543506871878" lon="11.513528922528987"><ele>180.0</ele><time>2026-04-11T03:00:15.998Z</time></trkpt><trkpt lat="43.2154578596584" lon="11.513611616667452"><ele>180.0</ele><time>2026-04-11T03:00:17.998Z</time></trkpt><trkpt lat="43.21547892913237" lon="11.513700077721397"><ele>180.0</ele><time>2026-04-11T03:00:20.998Z</time></trkpt><trkpt lat="43.21549589244057" lon="11.51379427452195"><ele>180.0</ele><time>2026-04-11T03:00:23.998Z</time></trkpt><trkpt lat="43.215510326463445" lon="11.513892026624118"><ele>180.0</ele><time>2026-04-11T03:00:26.998Z</time></trkpt><trkpt lat="43.215521927020006" lon="11.513978177814105"><ele>180.0</ele><time>2026-04-11T03:00:28.998Z</time></trkpt><trkpt lat="43.215536245415194" lon="11.514063539812488"><ele>180.4</ele><time>2026-04-11T03:00:29.998Z</time></trkpt><trkpt lat="43.21556376798367" lon="11.514160931175658"><ele>180.8</ele><time>2026-04-11T03:00:31.998Z</time></trkpt><trkpt lat="43.21559659031792" lon="11.514271862370304"><ele>181.2</ele><time>2026-04-11T03:00:33.998Z</time></trkpt><trkpt lat="43.21563868782509" lon="11.514393257355911"><ele>181.6</ele><time>2026-04-11T03:00:35.997Z</time></trkpt><trkpt lat="43.215682998122645" lon="11.514527402088314"><ele>182.0</ele><time>2026-04-11T03:00:38Z</time></trkpt><trkpt lat="43.21572917196514" lon="11.51466643914311"><ele>180.39999999999998</ele><time>2026-04-11T03:00:40Z</time></trkpt><trkpt lat="43.21577928879727" lon="11.51481371948176"><ele>178.79999999999998</ele><time>2026-04-11T03:00:42Z</time></trkpt><trkpt lat="43.21583430227011" lon="11.514970932583369"><ele>177.2</ele><time>2026-04-11T03:00:44Z</time></trkpt><trkpt lat="43.215861288290604" lon="11.515054392609828"><ele>175.6</ele><time>2026-04-11T03:00:45Z</time></trkpt><trkpt lat="43.215890437116855" lon="11.51514418326557"><ele>174.0</ele><time>2026-04-11T03:00:46Z</time></trkpt><trkpt lat="43.21591795484984" lon="11.5152348662746"><ele>174.0</ele><time>2026-04-11T03:00:47Z</time></trkpt><trkpt lat="43.21594927265586" lon="11.515330116005247"><ele>174.0</ele><time>2026-04-11T03:00:48Z</time></trkpt><trkpt lat="43.21598610136205" lon="11.515425723038588"><ele>174.0</ele><time>2026-04-11T03:00:49Z</time></trkpt><trkpt lat="43.21602150184138" lon="11.515514924802975"><ele>174.0</ele><time>2026-04-11T03:00:50Z</time></trkpt><trkpt lat="43.21605636780043" lon="11.515600127106525"><ele>174.0</ele><time>2026-04-11T03:00:51Z</time></trkpt><trkpt lat="43.216091892533086" lon="11.515685886926091"><ele>174.0</ele><time>2026-04-11T03:00:52Z</time></trkpt><trkpt lat="43.216129094167435" lon="11.515770588380132"><ele>174.0</ele><time>2026-04-11T03:00:53Z</time></trkpt><trkpt lat="43.21616714438086" lon="11.51585720018801"><ele>173.0</ele><time>2026-04-11T03:00:54Z</time></trkpt><trkpt lat="43.21620651633515" lon="11.515941261908695"><ele>172.0</ele><time>2026-04-11T03:00:55Z</time></trkpt><trkpt lat="43.21624724281134" lon="11.516028004930128"><ele>171.0</ele><time>2026-04-11T03:00:56Z</time></trkpt><trkpt lat="43.21629208182018" lon="11.51611524488131"><ele>170.0</ele><time>2026-04-11T03:00:57Z</time></trkpt><trkpt lat="43.21633719964521" lon="11.51620577391013"><ele>169.0</ele><time>2026-04-11T03:00:58Z</time></trkpt><trkpt lat="43.21638457920147" lon="11.516293778642064"><ele>168.0</ele><time>2026-04-11T03:00:59Z</time></trkpt><trkpt lat="43.2164290249368" lon="11.516375882876225"><ele>168.14285714285714</ele><time>2026-04-11T03:01:00Z</time></trkpt><trkpt lat="43.21647074638515" lon="11.516455410925731"><ele>168.28571428571428</ele><time>2026-04-11T03:01:01Z</time></trkpt><trkpt lat="43.216509233965546" lon="11.516532340394589"><ele>168.42857142857144</ele><time>2026-04-11T03:01:02Z</time></trkpt><trkpt lat="43.21654981560518" lon="11.516609068029496"><ele>168.57142857142856</ele><time>2026-04-11T03:01:02.999Z</time></trkpt><trkpt lat="43.21659116383096" lon="11.516685027311116"><ele>168.71428571428572</ele><time>2026-04-11T03:01:03.999Z</time></trkpt><trkpt lat="43.216628300400714" lon="11.516763822701444"><ele>168.85714285714286</ele><time>2026-04-11T03:01:04.999Z</time></trkpt><trkpt lat="43.21666378340024" lon="11.51684132774544"><ele>169.0</ele><time>2026-04-11T03:01:05.999Z</time></trkpt><trkpt lat="43.21670169223881" lon="11.516916302153458"><ele>169.0</ele><time>2026-04-11T03:01:06.999Z</time></trkpt><trkpt lat="43.21673441066595" lon="11.516990937421314"><ele>169.0</ele><time>2026-04-11T03:01:07.999Z</time></trkpt><trkpt lat="43.21679818788137" lon="11.5171273272264"><ele>169.0</ele><time>2026-04-11T03:01:09.999Z</time></trkpt><trkpt lat="43.21685639377456" lon="11.517254749590391"><ele>169.0</ele><time>2026-04-11T03:01:11.999Z</time></trkpt><trkpt lat="43.216900280607014" lon="11.517379588797011"><ele>169.0</ele><time>2026-04-11T03:01:13.999Z</time></trkpt><trkpt lat="43.21694509994225" lon="11.517492865157614"><ele>169.0</ele><time>2026-04-11T03:01:15.999Z</time></trkpt><trkpt lat="43.216990334115884" lon="11.517597016768553"><ele>169.0</ele><time>2026-04-11T03:01:17.999Z</time></trkpt><trkpt lat="43.21702937730198" lon="11.517700191295033"><ele>169.0</ele><time>2026-04-11T03:01:19.999Z</time></trkpt><trkpt lat="43.21706447787026" lon="11.517797068171857"><ele>169.0</ele><time>2026-04-11T03:01:21.999Z</time></trkpt><trkpt lat="43.217103541786194" lon="11.51789258025613"><ele>169.0</ele><time>2026-04-11T03:01:23.999Z</time></trkpt><trkpt lat="43.217139938581944" lon="11.51798759594516"><ele>169.0</ele><time>2026-04-11T03:01:25.999Z</time></trkpt><trkpt lat="43.21717491558963" lon="11.518080603756808"><ele>169.0</ele><time>2026-04-11T03:01:27.999Z</time></trkpt><trkpt lat="43.21721247870696" lon="11.518162580950383"><ele>169.0</ele><time>2026-04-11T03:01:29.999Z</time></trkpt><trkpt lat="43.217241648685174" lon="11.518244918628348"><ele>169.0</ele><time>2026-04-11T03:01:31.999Z</time></trkpt><trkpt lat="43.21727738012486" lon="11.51833882950294"><ele>169.0</ele><time>2026-04-11T03:01:33.999Z</time></trkpt><trkpt lat="43.217314659350116" lon="11.51843348186224"><ele>169.0</ele><time>2026-04-11T03:01:35.999Z</time></trkpt><trkpt lat="43.217357643203975" lon="11.51854328211475"><ele>169.0</ele><time>2026-04-11T03:01:37.999Z</time></trkpt><trkpt lat="43.217398502289356" lon="11.518681747070183"><ele>170.25</ele><time>2026-04-11T03:01:39.999Z</time></trkpt><trkpt lat="43.217436437432774" lon="11.518830749441882"><ele>171.5</ele><time>2026-04-11T03:01:41.999Z</time></trkpt><trkpt lat="43.217461717049304" lon="11.518989041103668"><ele>172.75</ele><time>2026-04-11T03:01:43.999Z</time></trkpt><trkpt lat="43.217475974998344" lon="11.519148444482187"><ele>174.0</ele><time>2026-04-11T03:01:45.999Z</time></trkpt><trkpt lat="43.217476293359105" lon="11.519300747694825"><ele>174.0</ele><time>2026-04-11T03:01:47.999Z</time></trkpt><trkpt lat="43.217448841351924" lon="11.519430806887046"><ele>174.0</ele><time>2026-04-11T03:01:49.999Z</time></trkpt><trkpt lat="43.21745583636221" lon="11.519549214381467"><ele>174.0</ele><time>2026-04-11T03:01:51.999Z</time></trkpt><trkpt lat="43.217446299255045" lon="11.519649086587558"><ele>174.0</ele><time>2026-04-11T03:01:53.998Z</time></trkpt><trkpt lat="43.217436544087015" lon="11.519735391199363"><ele>174.0</ele><time>2026-04-11T03:01:55.998Z</time></trkpt><trkpt lat="43.21743041312396" lon="11.519857707333305"><ele>174.0</ele><time>2026-04-11T03:01:58.998Z</time></trkpt><trkpt lat="43.217412484336755" lon="11.519969390161632"><ele>175.0</ele><time>2026-04-11T03:02:01.998Z</time></trkpt><trkpt lat="43.217406972354155" lon="11.520083084358994"><ele>176.0</ele><time>2026-04-11T03:02:04.998Z</time></trkpt><trkpt lat="43.21740165840282" lon="11.520192693567733"><ele>177.0</ele><time>2026-04-11T03:02:07.998Z</time></trkpt><trkpt lat="43.217413732906216" lon="11.520302105214123"><ele>178.0</ele><time>2026-04-11T03:02:10.998Z</time></trkpt><trkpt lat="43.21741216864805" lon="11.520415090250257"><ele>179.0</ele><time>2026-04-11T03:02:14.998Z</time></trkpt><trkpt lat="43.21740825799195" lon="11.520517250033803"><ele>180.0</ele><time>2026-04-11T03:02:17.998Z</time></trkpt><trkpt lat="43.21740194920376" lon="11.520625232978238"><ele>180.83333333333334</ele><time>2026-04-11T03:02:20.998Z</time></trkpt><trkpt lat="43.21740247729594" lon="11.52073557088255"><ele>181.66666666666666</ele><time>2026-04-11T03:02:24.998Z</time></trkpt><trkpt lat="43.21741499560578" lon="11.520831454299755"><ele>182.5</ele><time>2026-04-11T03:02:27.998Z</time></trkpt><trkpt lat="43.217442455284065" lon="11.520931540947576"><ele>183.33333333333331</ele><time>2026-04-11T03:02:30.998Z</time></trkpt><trkpt lat="43.217481022215665" lon="11.521035305583844"><ele>184.16666666666666</ele><time>2026-04-11T03:02:33.998Z</time></trkpt><trkpt lat="43.2175335414454" lon="11.521148529995783"><ele>185.0</ele><time>2026-04-11T03:02:36.998Z</time></trkpt><trkpt lat="43.217593513212094" lon="11.521232144430513"><ele>183.8</ele><time>2026-04-11T03:02:39.998Z</time></trkpt><trkpt lat="43.21765594068464" lon="11.521307417843"><ele>182.6</ele><time>2026-04-11T03:02:41.998Z</time></trkpt><trkpt lat="43.217738520662145" lon="11.521381193139282"><ele>181.39999999999998</ele><time>2026-04-11T03:02:44Z</time></trkpt><trkpt lat="43.2178105665166" lon="11.521437319005503"><ele>180.2</ele><time>2026-04-11T03:02:46Z</time></trkpt><trkpt lat="43.217896468800966" lon="11.521491777510143"><ele>179.0</ele><time>2026-04-11T03:02:48Z</time></trkpt><trkpt lat="43.21799228163584" lon="11.52154246524304"><ele>179.0</ele><time>2026-04-11T03:02:50Z</time></trkpt><trkpt lat="43.218089229032806" lon="11.52161575047226"><ele>179.0</ele><time>2026-04-11T03:02:52Z</time></trkpt><trkpt lat="43.21816232591536" lon="11.521732992135934"><ele>179.0</ele><time>2026-04-11T03:02:54Z</time></trkpt><trkpt lat="43.218189302604564" lon="11.521889732041576"><ele>179.0</ele><time>2026-04-11T03:02:56Z</time></trkpt><trkpt lat="43.21819183855275" lon="11.522035465179144"><ele>179.0</ele><time>2026-04-11T03:02:58Z</time></trkpt><trkpt lat="43.218198355442254" lon="11.522176551086893"><ele>179.2</ele><time>2026-04-11T03:02:59.999Z</time></trkpt><trkpt lat="43.21822952726524" lon="11.522323330780983"><ele>179.39999999999998</ele><time>2026-04-11T03:03:01.999Z</time></trkpt><trkpt lat="43.218251640853545" lon="11.522409897650276"><ele>179.6</ele><time>2026-04-11T03:03:02.999Z</time></trkpt><trkpt lat="43.21826477453709" lon="11.522507968864195"><ele>179.8</ele><time>2026-04-11T03:03:03.999Z</time></trkpt><trkpt lat="43.2183172405536" lon="11.52265207085832"><ele>180.0</ele><time>2026-04-11T03:03:05.999Z</time></trkpt><trkpt lat="43.21836509009399" lon="11.522811327806417"><ele>178.0</ele><time>2026-04-11T03:03:07.999Z</time></trkpt><trkpt lat="43.2184101660033" lon="11.522958922770254"><ele>176.0</ele><time>2026-04-11T03:03:09.999Z</time></trkpt><trkpt lat="43.218463012962516" lon="11.523101046470135"><ele>174.0</ele><time>2026-04-11T03:03:11.999Z</time></trkpt><trkpt lat="43.21852471646101" lon="11.52323978055403"><ele>172.0</ele><time>2026-04-11T03:03:13.999Z</time></trkpt><trkpt lat="43.21859129341531" lon="11.523380352200514"><ele>172.0</ele><time>2026-04-11T03:03:15.999Z</time></trkpt><trkpt lat="43.21866303163774" lon="11.523509574045711"><ele>172.0</ele><time>2026-04-11T03:03:17.999Z</time></trkpt><trkpt lat="43.218738250285625" lon="11.523645242377945"><ele>172.0</ele><time>2026-04-11T03:03:19.999Z</time></trkpt><trkpt lat="43.21881462676822" lon="11.523775892060613"><ele>172.0</ele><time>2026-04-11T03:03:21.999Z</time></trkpt><trkpt lat="43.21888946902452" lon="11.523904246974805"><ele>172.00000000000003</ele><time>2026-04-11T03:03:23.999Z</time></trkpt><trkpt lat="43.21892966745442" lon="11.523978171807334"><ele>172.0</ele><time>2026-04-11T03:03:24.999Z</time></trkpt><trkpt lat="43.21897278842213" lon="11.524053426201913"><ele>172.0</ele><time>2026-04-11T03:03:25.999Z</time></trkpt><trkpt lat="43.219018171729466" lon="11.524129511906258"><ele>172.0</ele><time>2026-04-11T03:03:26.999Z</time></trkpt><trkpt lat="43.21906249563277" lon="11.524206164789172"><ele>172.0</ele><time>2026-04-11T03:03:27.999Z</time></trkpt><trkpt lat="43.2191075823402" lon="11.52428014392517"><ele>172.00000000000003</ele><time>2026-04-11T03:03:28.999Z</time></trkpt><trkpt lat="43.21915044540152" lon="11.524356104621969"><ele>172.0</ele><time>2026-04-11T03:03:29.999Z</time></trkpt><trkpt lat="43.219192854557484" lon="11.524433626870401"><ele>172.0</ele><time>2026-04-11T03:03:30.999Z</time></trkpt><trkpt lat="43.21923352649646" lon="11.52450206605066"><ele>172.0</ele><time>2026-04-11T03:03:31.999Z</time></trkpt><trkpt lat="43.219276821037916" lon="11.524570629056655"><ele>172.0</ele><time>2026-04-11T03:03:32.999Z</time></trkpt><trkpt lat="43.21931901313515" lon="11.524641691424305"><ele>172.0</ele><time>2026-04-11T03:03:33.999Z</time></trkpt><trkpt lat="43.2193608526203" lon="11.52470952008007"><ele>172.0</ele><time>2026-04-11T03:03:34.998Z</time></trkpt><trkpt lat="43.21944529421833" lon="11.524824793656945"><ele>172.0</ele><time>2026-04-11T03:03:36.998Z</time></trkpt><trkpt lat="43.21952752450778" lon="11.524910128212381"><ele>172.16666666666669</ele><time>2026-04-11T03:03:38.998Z</time></trkpt><trkpt lat="43.2196026311506" lon="11.52497050220061"><ele>172.33333333333334</ele><time>2026-04-11T03:03:40.998Z</time></trkpt><trkpt lat="43.21967805558589" lon="11.525004554337773"><ele>172.5</ele><time>2026-04-11T03:03:42.998Z</time></trkpt><trkpt lat="43.21974166921417" lon="11.525048401477093"><ele>172.66666666666666</ele><time>2026-04-11T03:03:44.998Z</time></trkpt><trkpt lat="43.219813177082166" lon="11.525056567246015"><ele>172.83333333333331</ele><time>2026-04-11T03:03:46.998Z</time></trkpt><trkpt lat="43.21988179053919" lon="11.525048668639375"><ele>173.0</ele><time>2026-04-11T03:03:48.998Z</time></trkpt><trkpt lat="43.21994533280565" lon="11.524991248600823"><ele>173.0</ele><time>2026-04-11T03:03:50.998Z</time></trkpt><trkpt lat="43.22000585427408" lon="11.524959299235453"><ele>173.0</ele><time>2026-04-11T03:03:52.998Z</time></trkpt><trkpt lat="43.220107056157765" lon="11.524919548440776"><ele>173.0</ele><time>2026-04-11T03:03:55.998Z</time></trkpt><trkpt lat="43.22017874122311" lon="11.524888678990209"><ele>173.0</ele><time>2026-04-11T03:03:58.998Z</time></trkpt><trkpt lat="43.22025802889276" lon="11.524859902516656"><ele>173.0</ele><time>2026-04-11T03:03:59.998Z</time></trkpt><trkpt lat="43.22034944459335" lon="11.524835991230947"><ele>173.0</ele><time>2026-04-11T03:04:01.998Z</time></trkpt><trkpt lat="43.22045249171608" lon="11.524852919991005"><ele>173.0</ele><time>2026-04-11T03:04:03.998Z</time></trkpt><trkpt lat="43.220562313059226" lon="11.524909019462084"><ele>173.0</ele><time>2026-04-11T03:04:05.998Z</time></trkpt><trkpt lat="43.22065796061574" lon="11.524989521354199"><ele>173.0</ele><time>2026-04-11T03:04:07.998Z</time></trkpt><trkpt lat="43.22074684839728" lon="11.525066993120632"><ele>173.0</ele><time>2026-04-11T03:04:09.998Z</time></trkpt><trkpt lat="43.2208367562695" lon="11.525146126765659"><ele>173.0</ele><time>2026-04-11T03:04:11.998Z</time></trkpt><trkpt lat="43.22093608688218" lon="11.5252101145107"><ele>174.0</ele><time>2026-04-11T03:04:13.998Z</time></trkpt><trkpt lat="43.22104117528716" lon="11.525246602703628"><ele>175.0</ele><time>2026-04-11T03:04:15.998Z</time></trkpt><trkpt lat="43.22114596464011" lon="11.52527462759542"><ele>176.0</ele><time>2026-04-11T03:04:17.998Z</time></trkpt><trkpt lat="43.22124939939253" lon="11.525295687248393"><ele>177.0</ele><time>2026-04-11T03:04:19.998Z</time></trkpt><trkpt lat="43.221353508713264" lon="11.525315568444153"><ele>178.0</ele><time>2026-04-11T03:04:21.998Z</time></trkpt><trkpt lat="43.221460490871245" lon="11.52533714823737"><ele>179.2</ele><time>2026-04-11T03:04:23.997Z</time></trkpt><trkpt lat="43.2215662124393" lon="11.525357029254927"><ele>180.4</ele><time>2026-04-11T03:04:25.997Z</time></trkpt><trkpt lat="43.221664102808" lon="11.525372897440585"><ele>181.6</ele><time>2026-04-11T03:04:27.997Z</time></trkpt><trkpt lat="43.221761266581076" lon="11.525389268227041"><ele>182.79999999999998</ele><time>2026-04-11T03:04:29.997Z</time></trkpt><trkpt lat="43.221855338574606" lon="11.525401484577705"><ele>184.0</ele><time>2026-04-11T03:04:31.997Z</time></trkpt><trkpt lat="43.22194562431341" lon="11.525405501252742"><ele>181.83333333333334</ele><time>2026-04-11T03:04:33.997Z</time></trkpt><trkpt lat="43.22202509266439" lon="11.525421949962722"><ele>179.66666666666669</ele><time>2026-04-11T03:04:35.997Z</time></trkpt><trkpt lat="43.22210744629498" lon="11.525437387748719"><ele>177.5</ele><time>2026-04-11T03:04:37.997Z</time></trkpt><trkpt lat="43.22219358139538" lon="11.525454305271866"><ele>175.33333333333334</ele><time>2026-04-11T03:04:39.997Z</time></trkpt><trkpt lat="43.222281138769326" lon="11.525471085449766"><ele>173.16666666666666</ele><time>2026-04-11T03:04:41.997Z</time></trkpt><trkpt lat="43.22237609206829" lon="11.525483724925856"><ele>171.0</ele><time>2026-04-11T03:04:43.997Z</time></trkpt><trkpt lat="43.22247965439124" lon="11.525489348644621"><ele>170.66666666666666</ele><time>2026-04-11T03:04:45.997Z</time></trkpt><trkpt lat="43.222596498923636" lon="11.525493172509663"><ele>170.33333333333334</ele><time>2026-04-11T03:04:47.997Z</time></trkpt><trkpt lat="43.22265936881228" lon="11.525501990366008"><ele>170.0</ele><time>2026-04-11T03:04:48.999Z</time></trkpt><trkpt lat="43.22277088425426" lon="11.525575044712618"><ele>169.66666666666669</ele><time>2026-04-11T03:04:50.999Z</time></trkpt><trkpt lat="43.22282346460552" lon="11.525625409899188"><ele>169.33333333333334</ele><time>2026-04-11T03:04:51.999Z</time></trkpt><trkpt lat="43.22287594880246" lon="11.525674141313893"><ele>169.0</ele><time>2026-04-11T03:04:52.999Z</time></trkpt><trkpt lat="43.22296914222234" lon="11.525779924674987"><ele>169.0</ele><time>2026-04-11T03:04:54.999Z</time></trkpt><trkpt lat="43.223047753716834" lon="11.525859891035177"><ele>169.0</ele><time>2026-04-11T03:04:56.999Z</time></trkpt><trkpt lat="43.22312119579597" lon="11.52590534765286"><ele>169.0</ele><time>2026-04-11T03:04:58.999Z</time></trkpt><trkpt lat="43.223191559189154" lon="11.525944929185075"><ele>169.0</ele><time>2026-04-11T03:05:01Z</time></trkpt><trkpt lat="43.223271551917435" lon="11.525974228985037"><ele>169.0</ele><time>2026-04-11T03:05:03Z</time></trkpt><trkpt lat="43.22335693691889" lon="11.525984721580837"><ele>169.0</ele><time>2026-04-11T03:05:05Z</time></trkpt><trkpt lat="43.22344898898429" lon="11.525984551633943"><ele>170.39999999999998</ele><time>2026-04-11T03:05:07Z</time></trkpt><trkpt lat="43.223554130515396" lon="11.52597687765802"><ele>171.8</ele><time>2026-04-11T03:05:09Z</time></trkpt><trkpt lat="43.223658942187235" lon="11.525972590352195"><ele>173.2</ele><time>2026-04-11T03:05:10.999Z</time></trkpt><trkpt lat="43.223754797155166" lon="11.52597358591239"><ele>174.60000000000002</ele><time>2026-04-11T03:05:12.999Z</time></trkpt><trkpt lat="43.22386073817053" lon="11.525978737384468"><ele>176.0</ele><time>2026-04-11T03:05:14.999Z</time></trkpt><trkpt lat="43.22397182291218" lon="11.525954811638002"><ele>176.16666666666666</ele><time>2026-04-11T03:05:16.999Z</time></trkpt><trkpt lat="43.224094307531345" lon="11.525934305412578"><ele>176.33333333333331</ele><time>2026-04-11T03:05:18.999Z</time></trkpt><trkpt lat="43.22416305903403" lon="11.525928862358592"><ele>176.5</ele><time>2026-04-11T03:05:19.999Z</time></trkpt><trkpt lat="43.22423384344387" lon="11.5259210907056"><ele>176.66666666666666</ele><time>2026-04-11T03:05:20.999Z</time></trkpt><trkpt lat="43.2243031234129" lon="11.525916484377936"><ele>176.83333333333334</ele><time>2026-04-11T03:05:21.999Z</time></trkpt><trkpt lat="43.22437281408051" lon="11.525922088595744"><ele>177.0</ele><time>2026-04-11T03:05:22.999Z</time></trkpt><trkpt lat="43.224438706387396" lon="11.525932732731697"><ele>177.0</ele><time>2026-04-11T03:05:23.999Z</time></trkpt><trkpt lat="43.22450416506772" lon="11.525947490178567"><ele>177.0</ele><time>2026-04-11T03:05:24.999Z</time></trkpt><trkpt lat="43.22456841688035" lon="11.525962172935975"><ele>177.0</ele><time>2026-04-11T03:05:25.999Z</time></trkpt><trkpt lat="43.22469120441826" lon="11.525999331995179"><ele>177.0</ele><time>2026-04-11T03:05:27.999Z</time></trkpt><trkpt lat="43.224811301806284" lon="11.526033655884609"><ele>177.0</ele><time>2026-04-11T03:05:29.999Z</time></trkpt><trkpt lat="43.224924765743886" lon="11.52606907487526"><ele>177.75</ele><time>2026-04-11T03:05:31.999Z</time></trkpt><trkpt lat="43.22503652648522" lon="11.526102977985637"><ele>178.5</ele><time>2026-04-11T03:05:33.999Z</time></trkpt><trkpt lat="43.22514686872727" lon="11.526124038039931"><ele>179.25</ele><time>2026-04-11T03:05:35.999Z</time></trkpt><trkpt lat="43.22525701268889" lon="11.526154614998875"><ele>180.0</ele><time>2026-04-11T03:05:37.999Z</time></trkpt><trkpt lat="43.22536625613996" lon="11.526189129172632"><ele>180.0</ele><time>2026-04-11T03:05:39.999Z</time></trkpt><trkpt lat="43.225468771458715" lon="11.526220930764984"><ele>180.0</ele><time>2026-04-11T03:05:41.999Z</time></trkpt><trkpt lat="43.22557085908414" lon="11.526250920423955"><ele>180.0</ele><time>2026-04-11T03:05:43.999Z</time></trkpt><trkpt lat="43.22566290375831" lon="11.526282782837573"><ele>180.0</ele><time>2026-04-11T03:05:45.999Z</time></trkpt><trkpt lat="43.22574260282583" lon="11.52631366113135"><ele>180.0</ele><time>2026-04-11T03:05:48.999Z</time></trkpt><trkpt lat="43.2258456194775" lon="11.526352897142395"><ele>179.16666666666666</ele><time>2026-04-11T03:05:50.999Z</time></trkpt><trkpt lat="43.225935899787046" lon="11.526378934088584"><ele>178.33333333333334</ele><time>2026-04-11T03:05:53.999Z</time></trkpt><trkpt lat="43.22600505407494" lon="11.526388987669764"><ele>177.5</ele><time>2026-04-11T03:05:56.999Z</time></trkpt><trkpt lat="43.22607239099372" lon="11.526395918199892"><ele>176.66666666666669</ele><time>2026-04-11T03:05:57.999Z</time></trkpt><trkpt lat="43.22613871095117" lon="11.526393662742812"><ele>175.83333333333334</ele><time>2026-04-11T03:05:59.999Z</time></trkpt><trkpt lat="43.22620509319799" lon="11.526392263568017"><ele>175.0</ele><time>2026-04-11T03:06:02.999Z</time></trkpt><trkpt lat="43.22632691065888" lon="11.52638310251334"><ele>175.0</ele><time>2026-04-11T03:06:03.999Z</time></trkpt><trkpt lat="43.22640750300152" lon="11.526379259062079"><ele>175.0</ele><time>2026-04-11T03:06:05.999Z</time></trkpt><trkpt lat="43.22649080114683" lon="11.526373779819364"><ele>175.0</ele><time>2026-04-11T03:06:07.999Z</time></trkpt><trkpt lat="43.22658517753628" lon="11.526366292577602"><ele>175.0</ele><time>2026-04-11T03:06:09.998Z</time></trkpt><trkpt lat="43.226688897330455" lon="11.526364582756033"><ele>175.0</ele><time>2026-04-11T03:06:11.998Z</time></trkpt><trkpt lat="43.226802579271535" lon="11.526360433322843"><ele>175.4</ele><time>2026-04-11T03:06:13.998Z</time></trkpt><trkpt lat="43.22690918494908" lon="11.52638128112686"><ele>175.8</ele><time>2026-04-11T03:06:15.998Z</time></trkpt><trkpt lat="43.22701183261856" lon="11.526384972044026"><ele>176.2</ele><time>2026-04-11T03:06:17.998Z</time></trkpt><trkpt lat="43.22712422882802" lon="11.526403677955997"><ele>176.6</ele><time>2026-04-11T03:06:19.998Z</time></trkpt><trkpt lat="43.22722926766277" lon="11.526422999626558"><ele>177.0</ele><time>2026-04-11T03:06:21.998Z</time></trkpt><trkpt lat="43.22728271332436" lon="11.526476578734766"><ele>176.42857142857144</ele><time>2026-04-11T03:06:22.998Z</time></trkpt><trkpt lat="43.22735294025877" lon="11.526507188097185"><ele>175.85714285714283</ele><time>2026-04-11T03:06:23.998Z</time></trkpt><trkpt lat="43.22739923664974" lon="11.526598732430378"><ele>175.28571428571428</ele><time>2026-04-11T03:06:24.998Z</time></trkpt><trkpt lat="43.22745183363276" lon="11.526648064455653"><ele>174.71428571428572</ele><time>2026-04-11T03:06:25.998Z</time></trkpt><trkpt lat="43.22751035169398" lon="11.52670183089395"><ele>174.14285714285717</ele><time>2026-04-11T03:06:26.998Z</time></trkpt><trkpt lat="43.22756570279454" lon="11.526763722024876"><ele>173.57142857142856</ele><time>2026-04-11T03:06:27.998Z</time></trkpt><trkpt lat="43.22762437301586" lon="11.52682720724016"><ele>173.0</ele><time>2026-04-11T03:06:28.998Z</time></trkpt><trkpt lat="43.22768787136218" lon="11.526890727806956"><ele>173.0</ele><time>2026-04-11T03:06:29.998Z</time></trkpt><trkpt lat="43.2277497406167" lon="11.526950208225417"><ele>173.0</ele><time>2026-04-11T03:06:30.998Z</time></trkpt><trkpt lat="43.22780403449572" lon="11.527008934529048"><ele>173.0</ele><time>2026-04-11T03:06:31.998Z</time></trkpt><trkpt lat="43.227859768498504" lon="11.527060452616995"><ele>173.0</ele><time>2026-04-11T03:06:32.998Z</time></trkpt><trkpt lat="43.227920508549545" lon="11.527114515798349"><ele>173.0</ele><time>2026-04-11T03:06:33.998Z</time></trkpt><trkpt lat="43.2279860393974" lon="11.527158386443558"><ele>173.0</ele><time>2026-04-11T03:06:34.998Z</time></trkpt><trkpt lat="43.22805436836019" lon="11.52719767162229"><ele>173.0</ele><time>2026-04-11T03:06:35.998Z</time></trkpt><trkpt lat="43.22812230657654" lon="11.527231054137841"><ele>172.28571428571428</ele><time>2026-04-11T03:06:36.998Z</time></trkpt><trkpt lat="43.228190465599674" lon="11.527267566541203"><ele>171.57142857142858</ele><time>2026-04-11T03:06:37.998Z</time></trkpt><trkpt lat="43.22825579733577" lon="11.527300778830101"><ele>170.85714285714286</ele><time>2026-04-11T03:06:38.998Z</time></trkpt><trkpt lat="43.228319534638665" lon="11.527332335828053"><ele>170.14285714285714</ele><time>2026-04-11T03:06:39.998Z</time></trkpt><trkpt lat="43.22838559825616" lon="11.52735898991494"><ele>169.42857142857144</ele><time>2026-04-11T03:06:40.998Z</time></trkpt><trkpt lat="43.228449099241274" lon="11.527387837418527"><ele>168.71428571428572</ele><time>2026-04-11T03:06:41.998Z</time></trkpt><trkpt lat="43.22851200706822" lon="11.527415018105671"><ele>168.0</ele><time>2026-04-11T03:06:42.998Z</time></trkpt><trkpt lat="43.22857166336956" lon="11.527443180715375"><ele>168.0</ele><time>2026-04-11T03:06:43.998Z</time></trkpt><trkpt lat="43.22870638757814" lon="11.52751551614198"><ele>168.0</ele><time>2026-04-11T03:06:45.998Z</time></trkpt><trkpt lat="43.22880070242773" lon="11.527612020549276"><ele>168.0</ele><time>2026-04-11T03:06:47.998Z</time></trkpt><trkpt lat="43.22884216108432" lon="11.527686768659697"><ele>168.0</ele><time>2026-04-11T03:06:48.998Z</time></trkpt><trkpt lat="43.228890916643564" lon="11.52774382425403"><ele>168.0</ele><time>2026-04-11T03:06:49.998Z</time></trkpt><trkpt lat="43.22898596436425" lon="11.527833423328062"><ele>169.0</ele><time>2026-04-11T03:06:51.998Z</time></trkpt><trkpt lat="43.229061743540484" lon="11.5279243418869"><ele>170.0</ele><time>2026-04-11T03:06:53.998Z</time></trkpt><trkpt lat="43.229127920219064" lon="11.52800672731758"><ele>171.0</ele><time>2026-04-11T03:06:56Z</time></trkpt><trkpt lat="43.22919158251211" lon="11.528076976659431"><ele>172.0</ele><time>2026-04-11T03:06:58Z</time></trkpt><trkpt lat="43.22924331560656" lon="11.528147207562613"><ele>173.0</ele><time>2026-04-11T03:07:00Z</time></trkpt><trkpt lat="43.22929520918359" lon="11.528220176150175"><ele>174.0</ele><time>2026-04-11T03:07:02Z</time></trkpt><trkpt lat="43.229350888422594" lon="11.528278327411282"><ele>174.0</ele><time>2026-04-11T03:07:04Z</time></trkpt><trkpt lat="43.2294019679453" lon="11.528341883294983"><ele>174.0</ele><time>2026-04-11T03:07:06Z</time></trkpt><trkpt lat="43.229447108191486" lon="11.528408802036532"><ele>174.0</ele><time>2026-04-11T03:07:08Z</time></trkpt><trkpt lat="43.229498645114376" lon="11.528469077157945"><ele>174.0</ele><time>2026-04-11T03:07:11Z</time></trkpt><trkpt lat="43.22957239910681" lon="11.528549245535443"><ele>174.0</ele><time>2026-04-11T03:07:14Z</time></trkpt><trkpt lat="43.22965000904283" lon="11.528625323152959"><ele>174.0</ele><time>2026-04-11T03:07:17Z</time></trkpt><trkpt lat="43.22974138669716" lon="11.528708581807102"><ele>174.5</ele><time>2026-04-11T03:07:20Z</time></trkpt><trkpt lat="43.22981566095869" lon="11.5287526874409"><ele>175.0</ele><time>2026-04-11T03:07:23Z</time></trkpt><trkpt lat="43.2299455697734" lon="11.528835505920576"><ele>175.5</ele><time>2026-04-11T03:07:25.999Z</time></trkpt><trkpt lat="43.23002036163495" lon="11.528948614788112"><ele>176.0</ele><time>2026-04-11T03:07:27.999Z</time></trkpt><trkpt lat="43.23010804712781" lon="11.529065473310931"><ele>176.0</ele><time>2026-04-11T03:07:29.999Z</time></trkpt><trkpt lat="43.23015651152083" lon="11.529135750889058"><ele>176.0</ele><time>2026-04-11T03:07:30.999Z</time></trkpt><trkpt lat="43.230216153800356" lon="11.529203802195525"><ele>176.0</ele><time>2026-04-11T03:07:31.999Z</time></trkpt><trkpt lat="43.230266641322025" lon="11.52926857097651"><ele>176.0</ele><time>2026-04-11T03:07:32.999Z</time></trkpt><trkpt lat="43.23031612323149" lon="11.52933581499352"><ele>176.0</ele><time>2026-04-11T03:07:33.999Z</time></trkpt><trkpt lat="43.230363312218756" lon="11.529411942757731"><ele>176.0</ele><time>2026-04-11T03:07:34.999Z</time></trkpt><trkpt lat="43.230417941906225" lon="11.52948569298955"><ele>176.0</ele><time>2026-04-11T03:07:35.999Z</time></trkpt><trkpt lat="43.23048180815258" lon="11.52956170298465"><ele>175.33333333333331</ele><time>2026-04-11T03:07:36.999Z</time></trkpt><trkpt lat="43.23052874623076" lon="11.529657564246715"><ele>174.66666666666666</ele><time>2026-04-11T03:07:37.999Z</time></trkpt><trkpt lat="43.230584581215616" lon="11.529733452871648"><ele>174.0</ele><time>2026-04-11T03:07:38.999Z</time></trkpt><trkpt lat="43.23063981335334" lon="11.529808520919447"><ele>173.33333333333334</ele><time>2026-04-11T03:07:39.999Z</time></trkpt><trkpt lat="43.23070453334294" lon="11.529868952069318"><ele>172.66666666666669</ele><time>2026-04-11T03:07:40.999Z</time></trkpt><trkpt lat="43.23076135999507" lon="11.52994458185075"><ele>172.0</ele><time>2026-04-11T03:07:41.999Z</time></trkpt><trkpt lat="43.230817078956406" lon="11.530021811482802"><ele>172.0</ele><time>2026-04-11T03:07:42.999Z</time></trkpt><trkpt lat="43.230872568165225" lon="11.53010032186623"><ele>172.0</ele><time>2026-04-11T03:07:43.999Z</time></trkpt><trkpt lat="43.230931625071555" lon="11.530192882811418"><ele>172.0</ele><time>2026-04-11T03:07:44.999Z</time></trkpt><trkpt lat="43.23098650380624" lon="11.53027028313273"><ele>172.0</ele><time>2026-04-11T03:07:45.999Z</time></trkpt><trkpt lat="43.23104321888577" lon="11.530350367325793"><ele>172.0</ele><time>2026-04-11T03:07:46.999Z</time></trkpt><trkpt lat="43.2310954349493" lon="11.530428518125555"><ele>172.0</ele><time>2026-04-11T03:07:47.999Z</time></trkpt><trkpt lat="43.231152325266585" lon="11.53050815074516"><ele>171.5</ele><time>2026-04-11T03:07:48.999Z</time></trkpt><trkpt lat="43.23120661636123" lon="11.530593001933854"><ele>171.0</ele><time>2026-04-11T03:07:49.999Z</time></trkpt><trkpt lat="43.23125776747676" lon="11.53068470495728"><ele>170.5</ele><time>2026-04-11T03:07:50.999Z</time></trkpt><trkpt lat="43.231304925945935" lon="11.530779002663987"><ele>170.0</ele><time>2026-04-11T03:07:51.999Z</time></trkpt><trkpt lat="43.231343259008064" lon="11.53087763413523"><ele>169.5</ele><time>2026-04-11T03:07:52.999Z</time></trkpt><trkpt lat="43.23137630413955" lon="11.530984640178444"><ele>169.0</ele><time>2026-04-11T03:07:53.999Z</time></trkpt><trkpt lat="43.23140790997492" lon="11.531090303805314"><ele>169.0</ele><time>2026-04-11T03:07:54.999Z</time></trkpt><trkpt lat="43.23143170604897" lon="11.531199392965856"><ele>169.0</ele><time>2026-04-11T03:07:55.999Z</time></trkpt><trkpt lat="43.231454607283716" lon="11.531306804726679"><ele>169.0</ele><time>2026-04-11T03:07:56.999Z</time></trkpt><trkpt lat="43.231476457709114" lon="11.531404830184343"><ele>169.0</ele><time>2026-04-11T03:07:57.999Z</time></trkpt><trkpt lat="43.231496714028545" lon="11.531498872095748"><ele>169.0</ele><time>2026-04-11T03:07:58.999Z</time></trkpt><trkpt lat="43.23151510133599" lon="11.531593089850807"><ele>169.0</ele><time>2026-04-11T03:07:59.999Z</time></trkpt><trkpt lat="43.23153554228179" lon="11.531685982120864"><ele>169.14285714285714</ele><time>2026-04-11T03:08:00.999Z</time></trkpt><trkpt lat="43.2315537678342" lon="11.531779189311735"><ele>169.28571428571428</ele><time>2026-04-11T03:08:01.999Z</time></trkpt><trkpt lat="43.23157064710023" lon="11.531869584703912"><ele>169.42857142857144</ele><time>2026-04-11T03:08:02.999Z</time></trkpt><trkpt lat="43.23158997587641" lon="11.531961795545904"><ele>169.57142857142856</ele><time>2026-04-11T03:08:03.999Z</time></trkpt><trkpt lat="43.23160875900743" lon="11.532052053514464"><ele>169.7142857142857</ele><time>2026-04-11T03:08:04.999Z</time></trkpt><trkpt lat="43.231627598616114" lon="11.532141789012178"><ele>169.85714285714286</ele><time>2026-04-11T03:08:05.999Z</time></trkpt><trkpt lat="43.231644428997484" lon="11.532228868171092"><ele>170.0</ele><time>2026-04-11T03:08:06.999Z</time></trkpt><trkpt lat="43.23166147640895" lon="11.532314425312286"><ele>170.0</ele><time>2026-04-11T03:08:07.999Z</time></trkpt><trkpt lat="43.231692165610376" lon="11.532479482034546"><ele>170.0</ele><time>2026-04-11T03:08:09.999Z</time></trkpt><trkpt lat="43.231725715181504" lon="11.532643174564397"><ele>170.0</ele><time>2026-04-11T03:08:11.999Z</time></trkpt><trkpt lat="43.231759037388315" lon="11.532800497095128"><ele>170.0</ele><time>2026-04-11T03:08:13.999Z</time></trkpt><trkpt lat="43.2317896983129" lon="11.532958093606473"><ele>170.0</ele><time>2026-04-11T03:08:15.999Z</time></trkpt><trkpt lat="43.231816902193344" lon="11.533116247578672"><ele>170.0</ele><time>2026-04-11T03:08:17.998Z</time></trkpt><trkpt lat="43.23184766343942" lon="11.533272744767471"><ele>170.0</ele><time>2026-04-11T03:08:19.998Z</time></trkpt><trkpt lat="43.23188224266229" lon="11.533429063263727"><ele>170.0</ele><time>2026-04-11T03:08:21.998Z</time></trkpt><trkpt lat="43.23190934132593" lon="11.53358437954264"><ele>169.5</ele><time>2026-04-11T03:08:23.998Z</time></trkpt><trkpt lat="43.2319470124809" lon="11.533734600195006"><ele>169.0</ele><time>2026-04-11T03:08:25.998Z</time></trkpt><trkpt lat="43.23198704308592" lon="11.533880207298456"><ele>168.5</ele><time>2026-04-11T03:08:27.998Z</time></trkpt><trkpt lat="43.23204693789659" lon="11.534014797290881"><ele>168.0</ele><time>2026-04-11T03:08:29.998Z</time></trkpt><trkpt lat="43.2321128991784" lon="11.534143896741131"><ele>168.0</ele><time>2026-04-11T03:08:31.998Z</time></trkpt><trkpt lat="43.2321961110677" lon="11.534262201667998"><ele>168.0</ele><time>2026-04-11T03:08:33.998Z</time></trkpt><trkpt lat="43.23229053892889" lon="11.5343618759837"><ele>168.0</ele><time>2026-04-11T03:08:35.998Z</time></trkpt><trkpt lat="43.23238989653997" lon="11.534446685575238"><ele>168.0</ele><time>2026-04-11T03:08:37.998Z</time></trkpt><trkpt lat="43.232491168493524" lon="11.534530779076357"><ele>168.5</ele><time>2026-04-11T03:08:39.998Z</time></trkpt><trkpt lat="43.23259519695215" lon="11.534610848164977"><ele>169.0</ele><time>2026-04-11T03:08:41.998Z</time></trkpt><trkpt lat="43.23269768684894" lon="11.534686835858347"><ele>169.5</ele><time>2026-04-11T03:08:43.998Z</time></trkpt><trkpt lat="43.23280026382677" lon="11.534764553082374"><ele>170.0</ele><time>2026-04-11T03:08:45.998Z</time></trkpt><trkpt lat="43.23290241736471" lon="11.534841557337948"><ele>170.0</ele><time>2026-04-11T03:08:47.998Z</time></trkpt><trkpt lat="43.233005325385996" lon="11.534919058188864"><ele>170.0</ele><time>2026-04-11T03:08:49.998Z</time></trkpt><trkpt lat="43.23311012768585" lon="11.534996089918357"><ele>170.0</ele><time>2026-04-11T03:08:51.998Z</time></trkpt><trkpt lat="43.23321465456356" lon="11.535077876538061"><ele>170.0</ele><time>2026-04-11T03:08:53.998Z</time></trkpt><trkpt lat="43.23331759022361" lon="11.535160791182822"><ele>169.75</ele><time>2026-04-11T03:08:55.998Z</time></trkpt><trkpt lat="43.23341887446844" lon="11.535243513359784"><ele>169.5</ele><time>2026-04-11T03:08:57.998Z</time></trkpt><trkpt lat="43.23351411161191" lon="11.535340337015338"><ele>169.25</ele><time>2026-04-11T03:08:59.998Z</time></trkpt><trkpt lat="43.23359565315923" lon="11.535449371650516"><ele>169.0</ele><time>2026-04-11T03:09:02Z</time></trkpt><trkpt lat="43.23366613599977" lon="11.535564324000234"><ele>169.0</ele><time>2026-04-11T03:09:04Z</time></trkpt><trkpt lat="43.23373169378275" lon="11.535678576650541"><ele>169.0</ele><time>2026-04-11T03:09:06Z</time></trkpt><trkpt lat="43.233795581582335" lon="11.53579636293173"><ele>169.0</ele><time>2026-04-11T03:09:08Z</time></trkpt><trkpt lat="43.23386134660314" lon="11.535917654054233"><ele>169.0</ele><time>2026-04-11T03:09:10Z</time></trkpt><trkpt lat="43.23392427222497" lon="11.536037374348986"><ele>169.0</ele><time>2026-04-11T03:09:12Z</time></trkpt><trkpt lat="43.23398968924208" lon="11.536154513916175"><ele>169.6</ele><time>2026-04-11T03:09:14Z</time></trkpt><trkpt lat="43.23404854769926" lon="11.53627844464093"><ele>170.2</ele><time>2026-04-11T03:09:16Z</time></trkpt><trkpt lat="43.234114826159264" lon="11.536395436398294"><ele>170.79999999999998</ele><time>2026-04-11T03:09:18Z</time></trkpt><trkpt lat="43.23417985378363" lon="11.536516431013256"><ele>171.39999999999998</ele><time>2026-04-11T03:09:20Z</time></trkpt><trkpt lat="43.23424194628232" lon="11.536632085517727"><ele>172.0</ele><time>2026-04-11T03:09:22Z</time></trkpt><trkpt lat="43.23430467784311" lon="11.536749113795242"><ele>172.0</ele><time>2026-04-11T03:09:24Z</time></trkpt><trkpt lat="43.23436509052415" lon="11.53687038900571"><ele>172.0</ele><time>2026-04-11T03:09:26Z</time></trkpt><trkpt lat="43.23443367990205" lon="11.536988636628042"><ele>172.0</ele><time>2026-04-11T03:09:28Z</time></trkpt><trkpt lat="43.23449310192892" lon="11.53711382100758"><ele>172.0</ele><time>2026-04-11T03:09:30Z</time></trkpt><trkpt lat="43.23456002709073" lon="11.53723182840067"><ele>172.0</ele><time>2026-04-11T03:09:32Z</time></trkpt><trkpt lat="43.23462689870526" lon="11.537354003870064"><ele>172.0</ele><time>2026-04-11T03:09:33.999Z</time></trkpt><trkpt lat="43.234693681903714" lon="11.537478602166642"><ele>172.0</ele><time>2026-04-11T03:09:35.999Z</time></trkpt><trkpt lat="43.234758897527854" lon="11.537605227527907"><ele>172.0</ele><time>2026-04-11T03:09:37.999Z</time></trkpt><trkpt lat="43.23482627245779" lon="11.537725175656782"><ele>172.0</ele><time>2026-04-11T03:09:39.999Z</time></trkpt><trkpt lat="43.2348914321639" lon="11.537843488694126"><ele>172.0</ele><time>2026-04-11T03:09:41.999Z</time></trkpt><trkpt lat="43.2349566490334" lon="11.537966595834238"><ele>172.5</ele><time>2026-04-11T03:09:43.999Z</time></trkpt><trkpt lat="43.235025889375926" lon="11.538088845483294"><ele>173.0</ele><time>2026-04-11T03:09:45.999Z</time></trkpt><trkpt lat="43.23509086443079" lon="11.538215403304564"><ele>173.5</ele><time>2026-04-11T03:09:47.999Z</time></trkpt><trkpt lat="43.235155621145346" lon="11.53834697014397"><ele>174.0</ele><time>2026-04-11T03:09:49.999Z</time></trkpt><trkpt lat="43.23522613115339" lon="11.538470991923882"><ele>174.0</ele><time>2026-04-11T03:09:51.999Z</time></trkpt><trkpt lat="43.23529411480448" lon="11.538597453021596"><ele>174.0</ele><time>2026-04-11T03:09:53.999Z</time></trkpt><trkpt lat="43.23536643247106" lon="11.538723434072288"><ele>174.0</ele><time>2026-04-11T03:09:55.999Z</time></trkpt><trkpt lat="43.23543759114603" lon="11.538852895042872"><ele>174.0</ele><time>2026-04-11T03:09:57.999Z</time></trkpt><trkpt lat="43.235505860615014" lon="11.538987396621947"><ele>173.75</ele><time>2026-04-11T03:09:59.999Z</time></trkpt><trkpt lat="43.23558082816612" lon="11.53912016547964"><ele>173.5</ele><time>2026-04-11T03:10:01.999Z</time></trkpt><trkpt lat="43.23565303276399" lon="11.539256729238653"><ele>173.25</ele><time>2026-04-11T03:10:03.999Z</time></trkpt><trkpt lat="43.235721845991286" lon="11.539392259572548"><ele>173.0</ele><time>2026-04-11T03:10:05.999Z</time></trkpt><trkpt lat="43.235794867610046" lon="11.539528021080528"><ele>173.28571428571428</ele><time>2026-04-11T03:10:07.999Z</time></trkpt><trkpt lat="43.23582519938463" lon="11.539605073205234"><ele>173.57142857142858</ele><time>2026-04-11T03:10:08.999Z</time></trkpt><trkpt lat="43.23585192063173" lon="11.539684766096496"><ele>173.85714285714286</ele><time>2026-04-11T03:10:09.999Z</time></trkpt><trkpt lat="43.235872686955865" lon="11.539768086365283"><ele>174.14285714285714</ele><time>2026-04-11T03:10:10.999Z</time></trkpt><trkpt lat="43.23588533242334" lon="11.539854429108763"><ele>174.42857142857144</ele><time>2026-04-11T03:10:11.999Z</time></trkpt><trkpt lat="43.23587633840709" lon="11.540023281041348"><ele>174.71428571428572</ele><time>2026-04-11T03:10:13.999Z</time></trkpt><trkpt lat="43.23588681583089" lon="11.54010906183378"><ele>175.0</ele><time>2026-04-11T03:10:14.999Z</time></trkpt><trkpt lat="43.23587718556568" lon="11.54027420300497"><ele>175.0</ele><time>2026-04-11T03:10:16.999Z</time></trkpt><trkpt lat="43.235868337418985" lon="11.540439993829946"><ele>175.0</ele><time>2026-04-11T03:10:18.999Z</time></trkpt><trkpt lat="43.23585818217777" lon="11.540602253394413"><ele>175.0</ele><time>2026-04-11T03:10:20.999Z</time></trkpt><trkpt lat="43.23585079487816" lon="11.540759512458264"><ele>175.0</ele><time>2026-04-11T03:10:22.999Z</time></trkpt><trkpt lat="43.235845517493274" lon="11.540916206062459"><ele>175.0</ele><time>2026-04-11T03:10:24.998Z</time></trkpt><trkpt lat="43.235838437102885" lon="11.541072556130922"><ele>175.0</ele><time>2026-04-11T03:10:26.998Z</time></trkpt><trkpt lat="43.2358286089042" lon="11.541228446533749"><ele>175.0</ele><time>2026-04-11T03:10:28.998Z</time></trkpt><trkpt lat="43.23582782521478" lon="11.541382164507889"><ele>175.0</ele><time>2026-04-11T03:10:30.998Z</time></trkpt><trkpt lat="43.23581926089353" lon="11.541532635733926"><ele>175.8</ele><time>2026-04-11T03:10:32.998Z</time></trkpt><trkpt lat="43.2358118662211" lon="11.541682753301084"><ele>176.6</ele><time>2026-04-11T03:10:34.998Z</time></trkpt><trkpt lat="43.2358052058468" lon="11.541833561203813"><ele>177.39999999999998</ele><time>2026-04-11T03:10:36.998Z</time></trkpt><trkpt lat="43.23580226441242" lon="11.541982244198689"><ele>178.2</ele><time>2026-04-11T03:10:38.998Z</time></trkpt><trkpt lat="43.23579314042971" lon="11.542128741291856"><ele>179.0</ele><time>2026-04-11T03:10:40.998Z</time></trkpt><trkpt lat="43.235789438789816" lon="11.54227532171334"><ele>179.0</ele><time>2026-04-11T03:10:42.998Z</time></trkpt><trkpt lat="43.23578033767273" lon="11.54242214588436"><ele>179.0</ele><time>2026-04-11T03:10:44.998Z</time></trkpt><trkpt lat="43.235773931806484" lon="11.542566022146811"><ele>179.0</ele><time>2026-04-11T03:10:46.998Z</time></trkpt><trkpt lat="43.235772451124575" lon="11.54270936356138"><ele>179.0</ele><time>2026-04-11T03:10:48.998Z</time></trkpt><trkpt lat="43.2357665804104" lon="11.54285557796613"><ele>179.0</ele><time>2026-04-11T03:10:50.998Z</time></trkpt><trkpt lat="43.23575819578281" lon="11.543008776687664"><ele>178.75</ele><time>2026-04-11T03:10:52.998Z</time></trkpt><trkpt lat="43.23574813684307" lon="11.543164460539678"><ele>178.5</ele><time>2026-04-11T03:10:54.998Z</time></trkpt><trkpt lat="43.23574487406913" lon="11.54331993661253"><ele>178.25</ele><time>2026-04-11T03:10:56.998Z</time></trkpt><trkpt lat="43.23573931170856" lon="11.543477155625771"><ele>178.0</ele><time>2026-04-11T03:10:58.998Z</time></trkpt><trkpt lat="43.23573320408275" lon="11.543636076577721"><ele>177.75</ele><time>2026-04-11T03:11:00.998Z</time></trkpt><trkpt lat="43.23573025650512" lon="11.543795632300236"><ele>177.5</ele><time>2026-04-11T03:11:02.998Z</time></trkpt><trkpt lat="43.235724200475836" lon="11.543956761257135"><ele>177.25</ele><time>2026-04-11T03:11:04.998Z</time></trkpt><trkpt lat="43.235717232964156" lon="11.544115640425108"><ele>177.0</ele><time>2026-04-11T03:11:07Z</time></trkpt><trkpt lat="43.23571192602291" lon="11.544274706348643"><ele>177.0</ele><time>2026-04-11T03:11:09Z</time></trkpt><trkpt lat="43.235705609212836" lon="11.544438126190526"><ele>177.0</ele><time>2026-04-11T03:11:11Z</time></trkpt><trkpt lat="43.23570074929009" lon="11.54460208142863"><ele>177.0</ele><time>2026-04-11T03:11:13Z</time></trkpt><trkpt lat="43.235702415984555" lon="11.544767119459888"><ele>177.0</ele><time>2026-04-11T03:11:15Z</time></trkpt><trkpt lat="43.235713176779164" lon="11.544929442178727"><ele>176.75</ele><time>2026-04-11T03:11:17Z</time></trkpt><trkpt lat="43.23573303146583" lon="11.545092185548757"><ele>176.5</ele><time>2026-04-11T03:11:19Z</time></trkpt><trkpt lat="43.23576038034343" lon="11.545254215694854"><ele>176.25</ele><time>2026-04-11T03:11:21Z</time></trkpt><trkpt lat="43.23580049698306" lon="11.545405720297898"><ele>176.0</ele><time>2026-04-11T03:11:23Z</time></trkpt><trkpt lat="43.23585176931523" lon="11.545552975278662"><ele>176.0</ele><time>2026-04-11T03:11:25Z</time></trkpt><trkpt lat="43.235902458548395" lon="11.545699612332301"><ele>176.0</ele><time>2026-04-11T03:11:27Z</time></trkpt><trkpt lat="43.23594743714254" lon="11.54584598260455"><ele>176.0</ele><time>2026-04-11T03:11:29Z</time></trkpt><trkpt lat="43.23600432342269" lon="11.545986938824697"><ele>176.0</ele><time>2026-04-11T03:11:31Z</time></trkpt><trkpt lat="43.23606326168936" lon="11.54612516509558"><ele>175.25</ele><time>2026-04-11T03:11:33Z</time></trkpt><trkpt lat="43.236129762895494" lon="11.546260394422102"><ele>174.5</ele><time>2026-04-11T03:11:35Z</time></trkpt><trkpt lat="43.23620602811318" lon="11.54638508452118"><ele>173.75</ele><time>2026-04-11T03:11:37Z</time></trkpt><trkpt lat="43.23628811923592" lon="11.546499120746349"><ele>173.0</ele><time>2026-04-11T03:11:38.999Z</time></trkpt><trkpt lat="43.23636338214327" lon="11.546612401245904"><ele>173.0</ele><time>2026-04-11T03:11:40.999Z</time></trkpt><trkpt lat="43.2364296623668" lon="11.546742874256397"><ele>173.0</ele><time>2026-04-11T03:11:42.999Z</time></trkpt><trkpt lat="43.23650609974922" lon="11.546857802878723"><ele>173.0</ele><time>2026-04-11T03:11:44.999Z</time></trkpt><trkpt lat="43.23658263459706" lon="11.54696949063164"><ele>173.0</ele><time>2026-04-11T03:11:46.999Z</time></trkpt><trkpt lat="43.23666046379164" lon="11.547080813741308"><ele>173.25</ele><time>2026-04-11T03:11:48.999Z</time></trkpt><trkpt lat="43.23675309165997" lon="11.54717415136211"><ele>173.5</ele><time>2026-04-11T03:11:50.999Z</time></trkpt><trkpt lat="43.23683873854114" lon="11.547281419598075"><ele>173.75</ele><time>2026-04-11T03:11:52.999Z</time></trkpt><trkpt lat="43.23692599989404" lon="11.547380303548833"><ele>174.0</ele><time>2026-04-11T03:11:54.999Z</time></trkpt><trkpt lat="43.237004892638666" lon="11.547497143183703"><ele>174.0</ele><time>2026-04-11T03:11:56.999Z</time></trkpt><trkpt lat="43.23710428561116" lon="11.547584316970184"><ele>174.0</ele><time>2026-04-11T03:11:58.999Z</time></trkpt><trkpt lat="43.23718623260076" lon="11.547703782090123"><ele>174.0</ele><time>2026-04-11T03:12:00.999Z</time></trkpt><trkpt lat="43.237284550375314" lon="11.54778844743602"><ele>174.0</ele><time>2026-04-11T03:12:02.999Z</time></trkpt><trkpt lat="43.23736502911005" lon="11.547904491402138"><ele>174.5</ele><time>2026-04-11T03:12:04.999Z</time></trkpt><trkpt lat="43.23745542147903" lon="11.548005962028299"><ele>175.0</ele><time>2026-04-11T03:12:06.999Z</time></trkpt><trkpt lat="43.23755726733547" lon="11.548091586548834"><ele>175.5</ele><time>2026-04-11T03:12:08.999Z</time></trkpt><trkpt lat="43.23764862556606" lon="11.548197236323874"><ele>176.0</ele><time>2026-04-11T03:12:10.999Z</time></trkpt><trkpt lat="43.23774187426973" lon="11.548299232302867"><ele>176.0</ele><time>2026-04-11T03:12:12.999Z</time></trkpt><trkpt lat="43.23783254939944" lon="11.548406504715492"><ele>176.0</ele><time>2026-04-11T03:12:14.999Z</time></trkpt><trkpt lat="43.23792797492771" lon="11.548500139286881"><ele>176.0</ele><time>2026-04-11T03:12:16.999Z</time></trkpt><trkpt lat="43.238023366994064" lon="11.5485904975401"><ele>176.0</ele><time>2026-04-11T03:12:18.999Z</time></trkpt><trkpt lat="43.2381183806055" lon="11.548682625447867"><ele>176.0</ele><time>2026-04-11T03:12:20.999Z</time></trkpt><trkpt lat="43.238213259920684" lon="11.548773525141256"><ele>176.0</ele><time>2026-04-11T03:12:22.999Z</time></trkpt><trkpt lat="43.23830854316704" lon="11.548863010253529"><ele>176.0</ele><time>2026-04-11T03:12:24.999Z</time></trkpt><trkpt lat="43.23839407604468" lon="11.548954051753828"><ele>176.0</ele><time>2026-04-11T03:12:26.999Z</time></trkpt><trkpt lat="43.23849542321307" lon="11.549015269072608"><ele>176.0</ele><time>2026-04-11T03:12:28.998Z</time></trkpt><trkpt lat="43.238596688678264" lon="11.54909168650971"><ele>176.0</ele><time>2026-04-11T03:12:30.998Z</time></trkpt><trkpt lat="43.23869954567019" lon="11.54916531374471"><ele>176.0</ele><time>2026-04-11T03:12:32.998Z</time></trkpt><trkpt lat="43.23880385900626" lon="11.549248687932044"><ele>176.0</ele><time>2026-04-11T03:12:34.998Z</time></trkpt><trkpt lat="43.23886057392372" lon="11.54928714845514"><ele>176.0</ele><time>2026-04-11T03:12:35.998Z</time></trkpt><trkpt lat="43.23891528575274" lon="11.549330341159532"><ele>175.8</ele><time>2026-04-11T03:12:36.998Z</time></trkpt><trkpt lat="43.239022008229426" lon="11.54940662328985"><ele>175.60000000000002</ele><time>2026-04-11T03:12:38.998Z</time></trkpt><trkpt lat="43.239122205127394" lon="11.549486876415523"><ele>175.4</ele><time>2026-04-11T03:12:40.998Z</time></trkpt><trkpt lat="43.23922413514375" lon="11.549582863207577"><ele>175.2</ele><time>2026-04-11T03:12:42.998Z</time></trkpt><trkpt lat="43.23927556466837" lon="11.549634707335908"><ele>175.0</ele><time>2026-04-11T03:12:43.998Z</time></trkpt><trkpt lat="43.23932678971361" lon="11.54969117349886"><ele>175.0</ele><time>2026-04-11T03:12:44.998Z</time></trkpt><trkpt lat="43.23937757025441" lon="11.549750591431385"><ele>175.0</ele><time>2026-04-11T03:12:45.998Z</time></trkpt><trkpt lat="43.23942511942558" lon="11.549808754580079"><ele>175.0</ele><time>2026-04-11T03:12:46.998Z</time></trkpt><trkpt lat="43.239474798951214" lon="11.549866193046226"><ele>175.0</ele><time>2026-04-11T03:12:47.998Z</time></trkpt><trkpt lat="43.23952229420025" lon="11.549925185902929"><ele>175.0</ele><time>2026-04-11T03:12:48.998Z</time></trkpt><trkpt lat="43.23961127540938" lon="11.55004458551095"><ele>175.0</ele><time>2026-04-11T03:12:50.998Z</time></trkpt><trkpt lat="43.23970009654435" lon="11.55016520243932"><ele>175.0</ele><time>2026-04-11T03:12:52.998Z</time></trkpt><trkpt lat="43.2397466413265" lon="11.550226442743352"><ele>175.0</ele><time>2026-04-11T03:12:53.998Z</time></trkpt><trkpt lat="43.23979087059545" lon="11.550289321289506"><ele>175.0</ele><time>2026-04-11T03:12:54.998Z</time></trkpt><trkpt lat="43.239834092392854" lon="11.550352226055141"><ele>175.0</ele><time>2026-04-11T03:12:55.998Z</time></trkpt><trkpt lat="43.23987905902286" lon="11.550413700900524"><ele>175.0</ele><time>2026-04-11T03:12:56.998Z</time></trkpt><trkpt lat="43.23992669253883" lon="11.550474641716276"><ele>175.0</ele><time>2026-04-11T03:12:57.998Z</time></trkpt><trkpt lat="43.239974136334915" lon="11.55053759139006"><ele>175.0</ele><time>2026-04-11T03:12:58.998Z</time></trkpt><trkpt lat="43.24002074457393" lon="11.55060080364276"><ele>174.71428571428572</ele><time>2026-04-11T03:12:59.998Z</time></trkpt><trkpt lat="43.240068061895" lon="11.550668533040042"><ele>174.42857142857144</ele><time>2026-04-11T03:13:00.998Z</time></trkpt><trkpt lat="43.240114246118786" lon="11.550736243829535"><ele>174.14285714285714</ele><time>2026-04-11T03:13:01.998Z</time></trkpt><trkpt lat="43.240162346997586" lon="11.550798087490458"><ele>173.85714285714286</ele><time>2026-04-11T03:13:02.998Z</time></trkpt><trkpt lat="43.2401979936884" lon="11.55087811344556"><ele>173.57142857142858</ele><time>2026-04-11T03:13:03.998Z</time></trkpt><trkpt lat="43.240244026901856" lon="11.550941735114318"><ele>173.28571428571428</ele><time>2026-04-11T03:13:04.998Z</time></trkpt><trkpt lat="43.24029072135691" lon="11.551006270697428"><ele>173.0</ele><time>2026-04-11T03:13:05.998Z</time></trkpt><trkpt lat="43.24034984400474" lon="11.55105619253254"><ele>173.0</ele><time>2026-04-11T03:13:06.998Z</time></trkpt><trkpt lat="43.240396844046835" lon="11.551123611309032"><ele>173.0</ele><time>2026-04-11T03:13:07.998Z</time></trkpt><trkpt lat="43.2404458522723" lon="11.551190108486747"><ele>173.0</ele><time>2026-04-11T03:13:08.998Z</time></trkpt><trkpt lat="43.24049337013389" lon="11.55125566107668"><ele>173.0</ele><time>2026-04-11T03:13:09.998Z</time></trkpt><trkpt lat="43.24053921714663" lon="11.551323710843155"><ele>173.0</ele><time>2026-04-11T03:13:11Z</time></trkpt><trkpt lat="43.240587197536826" lon="11.551389704461032"><ele>173.0</ele><time>2026-04-11T03:13:12Z</time></trkpt><trkpt lat="43.240634729898844" lon="11.551455139695303"><ele>173.0</ele><time>2026-04-11T03:13:13Z</time></trkpt><trkpt lat="43.24068258454644" lon="11.551518851544833"><ele>173.85714285714286</ele><time>2026-04-11T03:13:14Z</time></trkpt><trkpt lat="43.24072824568022" lon="11.551580422290359"><ele>174.71428571428572</ele><time>2026-04-11T03:13:15Z</time></trkpt><trkpt lat="43.24075678453251" lon="11.551658411567125"><ele>175.57142857142858</ele><time>2026-04-11T03:13:16Z</time></trkpt><trkpt lat="43.24079199903936" lon="11.551731182302623"><ele>176.42857142857144</ele><time>2026-04-11T03:13:17Z</time></trkpt><trkpt lat="43.24082900783633" lon="11.551802199173977"><ele>177.28571428571428</ele><time>2026-04-11T03:13:18Z</time></trkpt><trkpt lat="43.240831147874204" lon="11.551894316473401"><ele>178.14285714285717</ele><time>2026-04-11T03:13:19Z</time></trkpt><trkpt lat="43.240817664147706" lon="11.551982234279908"><ele>179.0</ele><time>2026-04-11T03:13:20Z</time></trkpt><trkpt lat="43.24078637955106" lon="11.552057381669751"><ele>179.2</ele><time>2026-04-11T03:13:21Z</time></trkpt><trkpt lat="43.240717360776316" lon="11.552189336329537"><ele>179.39999999999998</ele><time>2026-04-11T03:13:23Z</time></trkpt><trkpt lat="43.240664862273526" lon="11.552318152462634"><ele>179.6</ele><time>2026-04-11T03:13:25Z</time></trkpt><trkpt lat="43.24062187549717" lon="11.552450435171938"><ele>179.8</ele><time>2026-04-11T03:13:27Z</time></trkpt><trkpt lat="43.24056405318465" lon="11.552570740050749"><ele>180.0</ele><time>2026-04-11T03:13:29Z</time></trkpt><trkpt lat="43.24050543857789" lon="11.552690764876271"><ele>178.6</ele><time>2026-04-11T03:13:31Z</time></trkpt><trkpt lat="43.240448478695896" lon="11.552806370333645"><ele>177.2</ele><time>2026-04-11T03:13:33Z</time></trkpt><trkpt lat="43.24039736745461" lon="11.552896735735718"><ele>175.8</ele><time>2026-04-11T03:13:35Z</time></trkpt><trkpt lat="43.240348325735" lon="11.552954400660296"><ele>174.4</ele><time>2026-04-11T03:13:37Z</time></trkpt><trkpt lat="43.240428435731445" lon="11.553134777530412"><ele>173.0</ele><time>2026-04-11T03:13:41Z</time></trkpt><trkpt lat="43.24050675420935" lon="11.553181602099968"><ele>173.0</ele><time>2026-04-11T03:13:43Z</time></trkpt><trkpt lat="43.2405804643277" lon="11.553232145392014"><ele>173.0</ele><time>2026-04-11T03:13:44.999Z</time></trkpt><trkpt lat="43.240656627415575" lon="11.553278260270858"><ele>173.0</ele><time>2026-04-11T03:13:46.999Z</time></trkpt><trkpt lat="43.240739147177464" lon="11.553317479183752"><ele>173.0</ele><time>2026-04-11T03:13:48.999Z</time></trkpt><trkpt lat="43.24081282724396" lon="11.553362810425204"><ele>173.0</ele><time>2026-04-11T03:13:50.999Z</time></trkpt><trkpt lat="43.24087552366659" lon="11.553420043459019"><ele>173.0</ele><time>2026-04-11T03:13:52.999Z</time></trkpt><trkpt lat="43.240934462727786" lon="11.553473883623658"><ele>173.0</ele><time>2026-04-11T03:13:54.999Z</time></trkpt><trkpt lat="43.240991770442776" lon="11.55352080335946"><ele>173.0</ele><time>2026-04-11T03:13:56.999Z</time></trkpt><trkpt lat="43.24106997998785" lon="11.553582654111471"><ele>173.0</ele><time>2026-04-11T03:13:59.999Z</time></trkpt><trkpt lat="43.24112452009741" lon="11.553633325040881"><ele>173.0</ele><time>2026-04-11T03:14:01.999Z</time></trkpt><trkpt lat="43.24118036608484" lon="11.553684146795181"><ele>173.0</ele><time>2026-04-11T03:14:03.999Z</time></trkpt><trkpt lat="43.24123564421448" lon="11.553732417590338"><ele>173.0</ele><time>2026-04-11T03:14:05.999Z</time></trkpt><trkpt lat="43.2412957874187" lon="11.553760405574042"><ele>173.0</ele><time>2026-04-11T03:14:07.999Z</time></trkpt><trkpt lat="43.2413550695695" lon="11.553796544251846"><ele>173.0</ele><time>2026-04-11T03:14:10.999Z</time></trkpt><trkpt lat="43.241425265173184" lon="11.55381025876943"><ele>173.0</ele><time>2026-04-11T03:14:13.999Z</time></trkpt><trkpt lat="43.24150396625693" lon="11.553817960036307"><ele>173.0</ele><time>2026-04-11T03:14:16.999Z</time></trkpt><trkpt lat="43.24158381953916" lon="11.553819736236905"><ele>173.0</ele><time>2026-04-11T03:14:19.999Z</time></trkpt><trkpt lat="43.24165297083014" lon="11.553807497002913"><ele>173.0</ele><time>2026-04-11T03:14:22.999Z</time></trkpt><trkpt lat="43.24172356526661" lon="11.553807376035012"><ele>173.0</ele><time>2026-04-11T03:14:25.999Z</time></trkpt><trkpt lat="43.24179056634129" lon="11.553813390553982"><ele>173.0</ele><time>2026-04-11T03:14:28.999Z</time></trkpt><trkpt lat="43.24185360084995" lon="11.553826510131545"><ele>173.7142857142857</ele><time>2026-04-11T03:14:30.999Z</time></trkpt><trkpt lat="43.24192878208776" lon="11.553862741286418"><ele>174.42857142857144</ele><time>2026-04-11T03:14:34.999Z</time></trkpt><trkpt lat="43.24199533514667" lon="11.553902916520153"><ele>175.14285714285714</ele><time>2026-04-11T03:14:38.998Z</time></trkpt><trkpt lat="43.24206778865996" lon="11.553953562315451"><ele>175.85714285714283</ele><time>2026-04-11T03:14:42.998Z</time></trkpt><trkpt lat="43.242139343780565" lon="11.554010244444417"><ele>176.57142857142856</ele><time>2026-04-11T03:14:46.998Z</time></trkpt><trkpt lat="43.242196204554894" lon="11.554050699934761"><ele>177.28571428571428</ele><time>2026-04-11T03:14:49.998Z</time></trkpt><trkpt lat="43.242256978809046" lon="11.554090974999626"><ele>178.0</ele><time>2026-04-11T03:14:52.998Z</time></trkpt><trkpt lat="43.242312668454524" lon="11.55414010195497"><ele>180.28571428571428</ele><time>2026-04-11T03:14:55.998Z</time></trkpt><trkpt lat="43.24237072628669" lon="11.55418513587981"><ele>182.57142857142856</ele><time>2026-04-11T03:14:58.998Z</time></trkpt><trkpt lat="43.242430506430146" lon="11.554237079608649"><ele>184.85714285714283</ele><time>2026-04-11T03:15:01.998Z</time></trkpt><trkpt lat="43.24248775358959" lon="11.554278954055093"><ele>187.14285714285714</ele><time>2026-04-11T03:15:04.998Z</time></trkpt><trkpt lat="43.242546429095356" lon="11.554326783837658"><ele>189.42857142857144</ele><time>2026-04-11T03:15:07.998Z</time></trkpt><trkpt lat="43.24260569060173" lon="11.554373963261066"><ele>191.7142857142857</ele><time>2026-04-11T03:15:10.998Z</time></trkpt><trkpt lat="43.24267852805467" lon="11.554422875311847"><ele>194.0</ele><time>2026-04-11T03:15:13.998Z</time></trkpt><trkpt lat="43.24274423513472" lon="11.55445707938356"><ele>194.00000000000003</ele><time>2026-04-11T03:15:17Z</time></trkpt><trkpt lat="43.24284846137812" lon="11.55449557932763"><ele>194.0</ele><time>2026-04-11T03:15:20Z</time></trkpt><trkpt lat="43.24291822285023" lon="11.554514772410064"><ele>194.0</ele><time>2026-04-11T03:15:23Z</time></trkpt><trkpt lat="43.24300419164084" lon="11.554529671393574"><ele>194.0</ele><time>2026-04-11T03:15:27Z</time></trkpt><trkpt lat="43.24311304189655" lon="11.55453758762625"><ele>194.00000000000003</ele><time>2026-04-11T03:15:30Z</time></trkpt><trkpt lat="43.24318112423632" lon="11.55453440688738"><ele>194.0</ele><time>2026-04-11T03:15:32Z</time></trkpt><trkpt lat="43.24325657305654" lon="11.55453077756372"><ele>195.2</ele><time>2026-04-11T03:15:34Z</time></trkpt><trkpt lat="43.24334208093833" lon="11.554516210046684"><ele>196.39999999999998</ele><time>2026-04-11T03:15:36Z</time></trkpt><trkpt lat="43.24345138099713" lon="11.554503893023385"><ele>197.6</ele><time>2026-04-11T03:15:39Z</time></trkpt><trkpt lat="43.243602697283926" lon="11.554461017182891"><ele>198.8</ele><time>2026-04-11T03:15:41Z</time></trkpt><trkpt lat="43.2436938863204" lon="11.554447106205274"><ele>200.0</ele><time>2026-04-11T03:15:43Z</time></trkpt><trkpt lat="43.24379402838833" lon="11.554439690259562"><ele>200.00000000000003</ele><time>2026-04-11T03:15:45Z</time></trkpt><trkpt lat="43.24391399643915" lon="11.554418545725659"><ele>200.0</ele><time>2026-04-11T03:15:47Z</time></trkpt><trkpt lat="43.24397770529433" lon="11.554408012447523"><ele>200.0</ele><time>2026-04-11T03:15:48Z</time></trkpt><trkpt lat="43.244043292204864" lon="11.554425605268424"><ele>200.0</ele><time>2026-04-11T03:15:49Z</time></trkpt><trkpt lat="43.2441062230352" lon="11.554415870625972"><ele>200.00000000000003</ele><time>2026-04-11T03:15:50Z</time></trkpt><trkpt lat="43.244233547506234" lon="11.554398658697451"><ele>200.0</ele><time>2026-04-11T03:15:51.999Z</time></trkpt><trkpt lat="43.24430458088237" lon="11.554391127589415"><ele>198.33333333333334</ele><time>2026-04-11T03:15:52.999Z</time></trkpt><trkpt lat="43.24436957120732" lon="11.554385550078148"><ele>196.66666666666669</ele><time>2026-04-11T03:15:53.999Z</time></trkpt><trkpt lat="43.24443925137462" lon="11.55437957007922"><ele>195.0</ele><time>2026-04-11T03:15:54.999Z</time></trkpt><trkpt lat="43.24450364519059" lon="11.554373836078454"><ele>193.33333333333334</ele><time>2026-04-11T03:15:55.999Z</time></trkpt><trkpt lat="43.24456962449445" lon="11.554367871056277"><ele>191.66666666666669</ele><time>2026-04-11T03:15:56.999Z</time></trkpt><trkpt lat="43.24463655416412" lon="11.554361820098944"><ele>190.0</ele><time>2026-04-11T03:15:57.999Z</time></trkpt><trkpt lat="43.244769675130826" lon="11.554336344749935"><ele>189.33333333333334</ele><time>2026-04-11T03:15:59.999Z</time></trkpt><trkpt lat="43.24488468962853" lon="11.554324504842418"><ele>188.66666666666669</ele><time>2026-04-11T03:16:01.999Z</time></trkpt><trkpt lat="43.24494787534843" lon="11.554317344217766"><ele>188.0</ele><time>2026-04-11T03:16:02.999Z</time></trkpt><trkpt lat="43.24501206961802" lon="11.554303314626761"><ele>187.33333333333334</ele><time>2026-04-11T03:16:03.999Z</time></trkpt><trkpt lat="43.245085379749284" lon="11.554287696156338"><ele>186.66666666666666</ele><time>2026-04-11T03:16:04.999Z</time></trkpt><trkpt lat="43.245163706985444" lon="11.554279338699361"><ele>186.0</ele><time>2026-04-11T03:16:05.999Z</time></trkpt><trkpt lat="43.24524313731976" lon="11.554272067701387"><ele>186.0</ele><time>2026-04-11T03:16:06.999Z</time></trkpt><trkpt lat="43.24531940419431" lon="11.554260437295472"><ele>186.0</ele><time>2026-04-11T03:16:07.999Z</time></trkpt><trkpt lat="43.245400452491786" lon="11.554245325869985"><ele>186.0</ele><time>2026-04-11T03:16:08.999Z</time></trkpt><trkpt lat="43.24548332068185" lon="11.554229504916478"><ele>186.0</ele><time>2026-04-11T03:16:09.999Z</time></trkpt><trkpt lat="43.245569204683115" lon="11.554214954553622"><ele>186.0</ele><time>2026-04-11T03:16:10.999Z</time></trkpt><trkpt lat="43.24565505226947" lon="11.554203958274707"><ele>186.0</ele><time>2026-04-11T03:16:11.999Z</time></trkpt><trkpt lat="43.24573631034105" lon="11.554191636657633"><ele>184.5</ele><time>2026-04-11T03:16:12.999Z</time></trkpt><trkpt lat="43.245816809298184" lon="11.554180751076089"><ele>183.0</ele><time>2026-04-11T03:16:13.999Z</time></trkpt><trkpt lat="43.24589625689262" lon="11.55416859048415"><ele>181.5</ele><time>2026-04-11T03:16:14.999Z</time></trkpt><trkpt lat="43.24597606813348" lon="11.554158135250873"><ele>180.0</ele><time>2026-04-11T03:16:15.999Z</time></trkpt><trkpt lat="43.24605600423816" lon="11.554145169893019"><ele>178.5</ele><time>2026-04-11T03:16:16.999Z</time></trkpt><trkpt lat="43.24613794269681" lon="11.554135910822238"><ele>177.0</ele><time>2026-04-11T03:16:17.999Z</time></trkpt><trkpt lat="43.246217812152" lon="11.554125340886722"><ele>177.0</ele><time>2026-04-11T03:16:18.999Z</time></trkpt><trkpt lat="43.246299939507956" lon="11.554123938808097"><ele>177.0</ele><time>2026-04-11T03:16:19.999Z</time></trkpt><trkpt lat="43.24638306488458" lon="11.554118050585434"><ele>177.0</ele><time>2026-04-11T03:16:20.999Z</time></trkpt><trkpt lat="43.246463609095144" lon="11.554115096664537"><ele>177.0</ele><time>2026-04-11T03:16:21.999Z</time></trkpt><trkpt lat="43.246544171229374" lon="11.554121401255346"><ele>177.0</ele><time>2026-04-11T03:16:22.999Z</time></trkpt><trkpt lat="43.24662197964266" lon="11.55413733490562"><ele>177.0</ele><time>2026-04-11T03:16:23.999Z</time></trkpt><trkpt lat="43.24669256127691" lon="11.554160889330468"><ele>176.16666666666666</ele><time>2026-04-11T03:16:24.999Z</time></trkpt><trkpt lat="43.24676402499516" lon="11.554193593226834"><ele>175.33333333333334</ele><time>2026-04-11T03:16:25.999Z</time></trkpt><trkpt lat="43.24683463055861" lon="11.554229229268659"><ele>174.5</ele><time>2026-04-11T03:16:26.999Z</time></trkpt><trkpt lat="43.246901378719805" lon="11.554271063752704"><ele>173.66666666666669</ele><time>2026-04-11T03:16:27.999Z</time></trkpt><trkpt lat="43.24696450773778" lon="11.554318597092484"><ele>172.83333333333334</ele><time>2026-04-11T03:16:28.999Z</time></trkpt><trkpt lat="43.24702354708425" lon="11.554363530104899"><ele>172.0</ele><time>2026-04-11T03:16:29.999Z</time></trkpt><trkpt lat="43.247126535245386" lon="11.554444384922421"><ele>172.0</ele><time>2026-04-11T03:16:31.999Z</time></trkpt><trkpt lat="43.247220351735606" lon="11.554509091244888"><ele>172.0</ele><time>2026-04-11T03:16:33.999Z</time></trkpt><trkpt lat="43.24730001897325" lon="11.554558822618684"><ele>172.0</ele><time>2026-04-11T03:16:35.999Z</time></trkpt><trkpt lat="43.24736053152667" lon="11.554604939313142"><ele>172.0</ele><time>2026-04-11T03:16:37.999Z</time></trkpt><trkpt lat="43.247434597072754" lon="11.554660506584558"><ele>172.0</ele><time>2026-04-11T03:16:40.999Z</time></trkpt><trkpt lat="43.247496540638025" lon="11.554707280837956"><ele>172.0</ele><time>2026-04-11T03:16:43.998Z</time></trkpt><trkpt lat="43.24756073238462" lon="11.554758006585978"><ele>173.00000000000003</ele><time>2026-04-11T03:16:46.998Z</time></trkpt><trkpt lat="43.24762520634829" lon="11.554798926324398"><ele>174.0</ele><time>2026-04-11T03:16:49.998Z</time></trkpt><trkpt lat="43.24768753992824" lon="11.554846342346854"><ele>175.0</ele><time>2026-04-11T03:16:52.998Z</time></trkpt><trkpt lat="43.24775000431988" lon="11.554892266346503"><ele>176.0</ele><time>2026-04-11T03:16:55.998Z</time></trkpt><trkpt lat="43.247806261206854" lon="11.554952781897256"><ele>177.0</ele><time>2026-04-11T03:16:59.998Z</time></trkpt><trkpt lat="43.24785376476623" lon="11.555021413093232"><ele>178.00000000000003</ele><time>2026-04-11T03:17:02.998Z</time></trkpt><trkpt lat="43.24790251637397" lon="11.55512270095269"><ele>179.0</ele><time>2026-04-11T03:17:05.998Z</time></trkpt><trkpt lat="43.24793967891903" lon="11.555195461009452"><ele>179.0</ele><time>2026-04-11T03:17:08.998Z</time></trkpt><trkpt lat="43.24798099610429" lon="11.55526171376777"><ele>179.0</ele><time>2026-04-11T03:17:11.998Z</time></trkpt><trkpt lat="43.248032060682135" lon="11.555338951892587"><ele>179.0</ele><time>2026-04-11T03:17:14.998Z</time></trkpt><trkpt lat="43.24808682432094" lon="11.555413227247406"><ele>179.0</ele><time>2026-04-11T03:17:17.998Z</time></trkpt><trkpt lat="43.248141321140835" lon="11.555484165067941"><ele>179.0</ele><time>2026-04-11T03:17:19.998Z</time></trkpt><trkpt lat="43.248209887139026" lon="11.555557955243897"><ele>179.0</ele><time>2026-04-11T03:17:23Z</time></trkpt><trkpt lat="43.24828436414537" lon="11.555628327690872"><ele>180.33333333333331</ele><time>2026-04-11T03:17:26Z</time></trkpt><trkpt lat="43.24836675375709" lon="11.555697691210005"><ele>181.66666666666666</ele><time>2026-04-11T03:17:29Z</time></trkpt><trkpt lat="43.248421145004166" lon="11.55574405239816"><ele>183.0</ele><time>2026-04-11T03:17:31Z</time></trkpt><trkpt lat="43.24847967912523" lon="11.555797803531805"><ele>184.33333333333334</ele><time>2026-04-11T03:17:33Z</time></trkpt><trkpt lat="43.24855137843825" lon="11.555855137658252"><ele>185.66666666666669</ele><time>2026-04-11T03:17:35Z</time></trkpt><trkpt lat="43.24862654742252" lon="11.555915913534692"><ele>187.0</ele><time>2026-04-11T03:17:37Z</time></trkpt><trkpt lat="43.248710631300625" lon="11.555983122707158"><ele>187.0</ele><time>2026-04-11T03:17:39Z</time></trkpt><trkpt lat="43.24880588155133" lon="11.556036838866529"><ele>187.0</ele><time>2026-04-11T03:17:41Z</time></trkpt><trkpt lat="43.24890235910179" lon="11.556106470108697"><ele>187.0</ele><time>2026-04-11T03:17:43Z</time></trkpt><trkpt lat="43.249006950488514" lon="11.556108620267043"><ele>187.0</ele><time>2026-04-11T03:17:45Z</time></trkpt><trkpt lat="43.249073872720075" lon="11.556100911069517"><ele>187.0</ele><time>2026-04-11T03:17:47Z</time></trkpt><trkpt lat="43.24922943996969" lon="11.5560741519363"><ele>188.5</ele><time>2026-04-11T03:17:50Z</time></trkpt><trkpt lat="43.249307983660216" lon="11.556059944062719"><ele>190.0</ele><time>2026-04-11T03:17:52Z</time></trkpt><trkpt lat="43.24938502967217" lon="11.55604629408004"><ele>191.5</ele><time>2026-04-11T03:17:54Z</time></trkpt><trkpt lat="43.249462259351645" lon="11.556032613291059"><ele>193.0</ele><time>2026-04-11T03:17:56Z</time></trkpt><trkpt lat="43.24954203341732" lon="11.556018480002963"><ele>194.49999999999997</ele><time>2026-04-11T03:17:58Z</time></trkpt><trkpt lat="43.24962552013187" lon="11.556003242140044"><ele>196.0</ele><time>2026-04-11T03:17:59.999Z</time></trkpt><trkpt lat="43.24970858548764" lon="11.55599222912192"><ele>196.49999999999997</ele><time>2026-04-11T03:18:01.999Z</time></trkpt><trkpt lat="43.24979974621428" lon="11.55598582470637"><ele>197.0</ele><time>2026-04-11T03:18:03.999Z</time></trkpt><trkpt lat="43.24989155827515" lon="11.555959469170283"><ele>197.5</ele><time>2026-04-11T03:18:05.999Z</time></trkpt><trkpt lat="43.24995572089166" lon="11.555969294168678"><ele>198.0</ele><time>2026-04-11T03:18:07.999Z</time></trkpt><trkpt lat="43.25003225202109" lon="11.555945554855594"><ele>198.49999999999997</ele><time>2026-04-11T03:18:09.999Z</time></trkpt><trkpt lat="43.25009517138002" lon="11.555909567104756"><ele>199.0</ele><time>2026-04-11T03:18:11.999Z</time></trkpt><trkpt lat="43.25016679040142" lon="11.55586430609189"><ele>198.99999999999997</ele><time>2026-04-11T03:18:14.999Z</time></trkpt><trkpt lat="43.250234919441986" lon="11.555802845750428"><ele>199.0</ele><time>2026-04-11T03:18:17.999Z</time></trkpt><trkpt lat="43.25028581203783" lon="11.555737478539275"><ele>199.0</ele><time>2026-04-11T03:18:20.999Z</time></trkpt><trkpt lat="43.250344683356296" lon="11.555688488601703"><ele>199.0</ele><time>2026-04-11T03:18:23.999Z</time></trkpt><trkpt lat="43.250395611274776" lon="11.555634420525786"><ele>199.0</ele><time>2026-04-11T03:18:26.999Z</time></trkpt><trkpt lat="43.25044436323475" lon="11.555574531336175"><ele>198.99999999999997</ele><time>2026-04-11T03:18:29.999Z</time></trkpt><trkpt lat="43.25050828867646" lon="11.555508399501225"><ele>199.0</ele><time>2026-04-11T03:18:33.999Z</time></trkpt><trkpt lat="43.25055974591283" lon="11.555451089228804"><ele>198.99999999999997</ele><time>2026-04-11T03:18:37.999Z</time></trkpt><trkpt lat="43.250618532708685" lon="11.55538739001604"><ele>199.0</ele><time>2026-04-11T03:18:41.999Z</time></trkpt><trkpt lat="43.25066795391503" lon="11.555318186471965"><ele>199.0</ele><time>2026-04-11T03:18:45.999Z</time></trkpt><trkpt lat="43.25073005246062" lon="11.555253523125007"><ele>199.0</ele><time>2026-04-11T03:18:49.999Z</time></trkpt><trkpt lat="43.25078365550867" lon="11.555186788653419"><ele>198.99999999999997</ele><time>2026-04-11T03:18:53.998Z</time></trkpt><trkpt lat="43.25084225526458" lon="11.555115762618009"><ele>199.0</ele><time>2026-04-11T03:18:57.998Z</time></trkpt><trkpt lat="43.25091305320327" lon="11.555057483110835"><ele>201.28571428571428</ele><time>2026-04-11T03:19:01.998Z</time></trkpt><trkpt lat="43.250979908032726" lon="11.555006822609688"><ele>203.57142857142856</ele><time>2026-04-11T03:19:05.998Z</time></trkpt><trkpt lat="43.25105412914153" lon="11.55496159712607"><ele>205.85714285714283</ele><time>2026-04-11T03:19:09.998Z</time></trkpt><trkpt lat="43.251113841934625" lon="11.554923410760747"><ele>208.14285714285714</ele><time>2026-04-11T03:19:12.998Z</time></trkpt><trkpt lat="43.25118110334717" lon="11.554890781643435"><ele>210.42857142857144</ele><time>2026-04-11T03:19:16.998Z</time></trkpt><trkpt lat="43.25125193845826" lon="11.554856219673507"><ele>212.7142857142857</ele><time>2026-04-11T03:19:19.998Z</time></trkpt><trkpt lat="43.25132637687164" lon="11.554821329460037"><ele>215.0</ele><time>2026-04-11T03:19:23.998Z</time></trkpt><trkpt lat="43.25140443120687" lon="11.55479044145253"><ele>214.66666666666669</ele><time>2026-04-11T03:19:28Z</time></trkpt><trkpt lat="43.25148077200835" lon="11.554759634491345"><ele>214.33333333333334</ele><time>2026-04-11T03:19:32Z</time></trkpt><trkpt lat="43.25155730184427" lon="11.554730901723957"><ele>214.0</ele><time>2026-04-11T03:19:36Z</time></trkpt><trkpt lat="43.25163704209367" lon="11.554697928051992"><ele>213.66666666666669</ele><time>2026-04-11T03:19:40Z</time></trkpt><trkpt lat="43.25171631899632" lon="11.55467572276097"><ele>213.33333333333334</ele><time>2026-04-11T03:19:44Z</time></trkpt><trkpt lat="43.251787564857516" lon="11.5546482714537"><ele>213.0</ele><time>2026-04-11T03:19:48Z</time></trkpt><trkpt lat="43.251859568944504" lon="11.554625893288101"><ele>213.0</ele><time>2026-04-11T03:19:52Z</time></trkpt><trkpt lat="43.25193374174266" lon="11.554606774508592"><ele>213.0</ele><time>2026-04-11T03:19:56Z</time></trkpt><trkpt lat="43.25200531367761" lon="11.554591617828999"><ele>213.0</ele><time>2026-04-11T03:20:00Z</time></trkpt><trkpt lat="43.252091723607585" lon="11.554583941377787"><ele>213.0</ele><time>2026-04-11T03:20:04Z</time></trkpt><trkpt lat="43.252180298357004" lon="11.554592388216156"><ele>213.0</ele><time>2026-04-11T03:20:07Z</time></trkpt><trkpt lat="43.25226910025779" lon="11.55461690385286"><ele>213.0</ele><time>2026-04-11T03:20:09.999Z</time></trkpt><trkpt lat="43.25236465647146" lon="11.554648768196584"><ele>213.14285714285714</ele><time>2026-04-11T03:20:11.999Z</time></trkpt><trkpt lat="43.252439896838176" lon="11.554668289038428"><ele>213.28571428571428</ele><time>2026-04-11T03:20:13.999Z</time></trkpt><trkpt lat="43.2525097989121" lon="11.554680474596276"><ele>213.42857142857144</ele><time>2026-04-11T03:20:15.999Z</time></trkpt><trkpt lat="43.25257226713942" lon="11.55469707790103"><ele>213.57142857142856</ele><time>2026-04-11T03:20:17.999Z</time></trkpt><trkpt lat="43.25265427253115" lon="11.554703762950659"><ele>213.71428571428572</ele><time>2026-04-11T03:20:20.999Z</time></trkpt><trkpt lat="43.25272150030735" lon="11.554698093292188"><ele>213.85714285714286</ele><time>2026-04-11T03:20:23.999Z</time></trkpt><trkpt lat="43.252786425367674" lon="11.55469360164429"><ele>214.0</ele><time>2026-04-11T03:20:26.999Z</time></trkpt><trkpt lat="43.2528694216337" lon="11.554684923680322"><ele>214.00000000000003</ele><time>2026-04-11T03:20:30.999Z</time></trkpt><trkpt lat="43.252940162349375" lon="11.554666794084326"><ele>214.0</ele><time>2026-04-11T03:20:34.999Z</time></trkpt><trkpt lat="43.25302418823461" lon="11.55464975283868"><ele>214.0</ele><time>2026-04-11T03:20:38.999Z</time></trkpt><trkpt lat="43.25309056994394" lon="11.554628301381877"><ele>214.0</ele><time>2026-04-11T03:20:41.999Z</time></trkpt><trkpt lat="43.25316010313914" lon="11.55460436869686"><ele>214.0</ele><time>2026-04-11T03:20:45.999Z</time></trkpt><trkpt lat="43.25322179807693" lon="11.554577546969579"><ele>214.00000000000003</ele><time>2026-04-11T03:20:48.999Z</time></trkpt><trkpt lat="43.253287953363916" lon="11.554543841830549"><ele>214.0</ele><time>2026-04-11T03:20:52.999Z</time></trkpt><trkpt lat="43.25335545481943" lon="11.554498389154023"><ele>216.57142857142858</ele><time>2026-04-11T03:20:56.999Z</time></trkpt><trkpt lat="43.25341634571466" lon="11.554459539939863"><ele>219.14285714285717</ele><time>2026-04-11T03:21:00.999Z</time></trkpt><trkpt lat="43.25348608311209" lon="11.554418200881429"><ele>221.71428571428572</ele><time>2026-04-11T03:21:04.998Z</time></trkpt><trkpt lat="43.25354294143256" lon="11.554374109433912"><ele>224.2857142857143</ele><time>2026-04-11T03:21:08.998Z</time></trkpt><trkpt lat="43.25361517343589" lon="11.554325269130796"><ele>226.85714285714286</ele><time>2026-04-11T03:21:12.998Z</time></trkpt><trkpt lat="43.25367497866304" lon="11.554279494653484"><ele>229.42857142857147</ele><time>2026-04-11T03:21:15.998Z</time></trkpt><trkpt lat="43.253745952878944" lon="11.554219238685848"><ele>232.00000000000003</ele><time>2026-04-11T03:21:19.998Z</time></trkpt><trkpt lat="43.25382119576021" lon="11.554161378770523"><ele>232.00000000000003</ele><time>2026-04-11T03:21:23.998Z</time></trkpt><trkpt lat="43.25386991059049" lon="11.554099474400209"><ele>232.0</ele><time>2026-04-11T03:21:26.998Z</time></trkpt><trkpt lat="43.25393355400903" lon="11.554018537652722"><ele>232.00000000000003</ele><time>2026-04-11T03:21:29.998Z</time></trkpt><trkpt lat="43.25396494682509" lon="11.553932272934025"><ele>232.00000000000003</ele><time>2026-04-11T03:21:32.998Z</time></trkpt><trkpt lat="43.25399648829962" lon="11.55385409652721"><ele>232.0</ele><time>2026-04-11T03:21:36Z</time></trkpt><trkpt lat="43.2540100829981" lon="11.553768522614591"><ele>232.00000000000003</ele><time>2026-04-11T03:21:39Z</time></trkpt><trkpt lat="43.25402815773985" lon="11.55366146252697"><ele>232.00000000000003</ele><time>2026-04-11T03:21:43Z</time></trkpt><trkpt lat="43.25403217592843" lon="11.553554553126249"><ele>234.16666666666666</ele><time>2026-04-11T03:21:47Z</time></trkpt><trkpt lat="43.2540313662262" lon="11.553450511539781"><ele>236.33333333333331</ele><time>2026-04-11T03:21:51Z</time></trkpt><trkpt lat="43.25403601264683" lon="11.553345678637426"><ele>238.5</ele><time>2026-04-11T03:21:55Z</time></trkpt><trkpt lat="43.25404993731878" lon="11.553245597907065"><ele>240.66666666666669</ele><time>2026-04-11T03:21:59Z</time></trkpt><trkpt lat="43.25408473883927" lon="11.553160837713795"><ele>242.83333333333334</ele><time>2026-04-11T03:22:03Z</time></trkpt><trkpt lat="43.25413481474006" lon="11.553060987673058"><ele>245.0</ele><time>2026-04-11T03:22:07Z</time></trkpt><trkpt lat="43.25417938407779" lon="11.55298743544774"><ele>245.0</ele><time>2026-04-11T03:22:11Z</time></trkpt><trkpt lat="43.25423933550461" lon="11.552956411911653"><ele>245.0</ele><time>2026-04-11T03:22:15Z</time></trkpt><trkpt lat="43.25430547151499" lon="11.552940546111023"><ele>245.0</ele><time>2026-04-11T03:22:18.999Z</time></trkpt><trkpt lat="43.2543737664539" lon="11.552932081365523"><ele>245.0</ele><time>2026-04-11T03:22:22.999Z</time></trkpt><trkpt lat="43.25447084926762" lon="11.552928264926788"><ele>245.0</ele><time>2026-04-11T03:22:26.999Z</time></trkpt><trkpt lat="43.25454594212629" lon="11.552928464678308"><ele>245.0</ele><time>2026-04-11T03:22:30.999Z</time></trkpt><trkpt lat="43.2546172964336" lon="11.552926182181436"><ele>245.0</ele><time>2026-04-11T03:22:32.999Z</time></trkpt><trkpt lat="43.25468750737368" lon="11.552924624837638"><ele>245.00000000000003</ele><time>2026-04-11T03:22:35.999Z</time></trkpt><trkpt lat="43.254765646502314" lon="11.552917554793005"><ele>245.0</ele><time>2026-04-11T03:22:38.999Z</time></trkpt><trkpt lat="43.25484129513956" lon="11.552906712541978"><ele>245.0</ele><time>2026-04-11T03:22:41.999Z</time></trkpt><trkpt lat="43.25492830775663" lon="11.552905890754916"><ele>245.0</ele><time>2026-04-11T03:22:44.999Z</time></trkpt><trkpt lat="43.254995187404255" lon="11.552901691230916"><ele>245.00000000000003</ele><time>2026-04-11T03:22:47.999Z</time></trkpt><trkpt lat="43.25510333505399" lon="11.552897201508404"><ele>245.0</ele><time>2026-04-11T03:22:50.999Z</time></trkpt><trkpt lat="43.25517922975283" lon="11.552896604762568"><ele>245.50000000000003</ele><time>2026-04-11T03:22:53.999Z</time></trkpt><trkpt lat="43.255246401719305" lon="11.552899135455862"><ele>246.0</ele><time>2026-04-11T03:22:56.999Z</time></trkpt><trkpt lat="43.255337970041275" lon="11.552890203983445"><ele>246.5</ele><time>2026-04-11T03:22:59.999Z</time></trkpt><trkpt lat="43.25543532591462" lon="11.552889661839144"><ele>247.0</ele><time>2026-04-11T03:23:01.999Z</time></trkpt><trkpt lat="43.25550473342939" lon="11.55290450979245"><ele>247.50000000000003</ele><time>2026-04-11T03:23:03.999Z</time></trkpt><trkpt lat="43.25561527034298" lon="11.55293942895082"><ele>248.0</ele><time>2026-04-11T03:23:06.999Z</time></trkpt><trkpt lat="43.255679330763066" lon="11.552961115615876"><ele>248.8</ele><time>2026-04-11T03:23:07.999Z</time></trkpt><trkpt lat="43.255772004513254" lon="11.553018771632807"><ele>249.60000000000002</ele><time>2026-04-11T03:23:09.999Z</time></trkpt><trkpt lat="43.25586673202477" lon="11.553076043786144"><ele>250.39999999999998</ele><time>2026-04-11T03:23:11.999Z</time></trkpt><trkpt lat="43.25596464913792" lon="11.5531405028002"><ele>251.2</ele><time>2026-04-11T03:23:13.998Z</time></trkpt><trkpt lat="43.25606437476706" lon="11.553203493120364"><ele>252.0</ele><time>2026-04-11T03:23:15.998Z</time></trkpt><trkpt lat="43.25615854864066" lon="11.55326996367953"><ele>252.0</ele><time>2026-04-11T03:23:17.998Z</time></trkpt><trkpt lat="43.25624909719025" lon="11.553331996226534"><ele>252.0</ele><time>2026-04-11T03:23:19.998Z</time></trkpt><trkpt lat="43.25633191943415" lon="11.553415245508106"><ele>252.0</ele><time>2026-04-11T03:23:21.998Z</time></trkpt><trkpt lat="43.25641927043825" lon="11.553474961009545"><ele>252.0</ele><time>2026-04-11T03:23:23.998Z</time></trkpt><trkpt lat="43.256506368007166" lon="11.553531960001584"><ele>252.0</ele><time>2026-04-11T03:23:25.998Z</time></trkpt><trkpt lat="43.256603480553075" lon="11.553595513187895"><ele>251.83333333333334</ele><time>2026-04-11T03:23:27.998Z</time></trkpt><trkpt lat="43.25669515338052" lon="11.553651434613704"><ele>251.66666666666669</ele><time>2026-04-11T03:23:29.998Z</time></trkpt><trkpt lat="43.25678522849455" lon="11.553692355614674"><ele>251.5</ele><time>2026-04-11T03:23:31.998Z</time></trkpt><trkpt lat="43.256873263759" lon="11.553699363861378"><ele>251.33333333333334</ele><time>2026-04-11T03:23:33.998Z</time></trkpt><trkpt lat="43.25693621163314" lon="11.553732404377577"><ele>251.16666666666669</ele><time>2026-04-11T03:23:35.998Z</time></trkpt><trkpt lat="43.257023491347965" lon="11.553732422328903"><ele>251.0</ele><time>2026-04-11T03:23:37.998Z</time></trkpt><trkpt lat="43.25710347282005" lon="11.553726124431982"><ele>251.00000000000003</ele><time>2026-04-11T03:23:40Z</time></trkpt><trkpt lat="43.25718964602708" lon="11.553706964243418"><ele>251.0</ele><time>2026-04-11T03:23:42Z</time></trkpt><trkpt lat="43.25726652132715" lon="11.553686883470228"><ele>251.0</ele><time>2026-04-11T03:23:44Z</time></trkpt><trkpt lat="43.257344071829756" lon="11.553637915482454"><ele>251.0</ele><time>2026-04-11T03:23:46Z</time></trkpt><trkpt lat="43.25742860504819" lon="11.55361736690214"><ele>251.00000000000003</ele><time>2026-04-11T03:23:48Z</time></trkpt><trkpt lat="43.25752508859898" lon="11.553580009917518"><ele>251.0</ele><time>2026-04-11T03:23:50Z</time></trkpt><trkpt lat="43.25761817193408" lon="11.553539127942823"><ele>251.16666666666669</ele><time>2026-04-11T03:23:52Z</time></trkpt><trkpt lat="43.25770923674565" lon="11.553494947333006"><ele>251.33333333333334</ele><time>2026-04-11T03:23:54Z</time></trkpt><trkpt lat="43.257779301550514" lon="11.55346029090983"><ele>251.5</ele><time>2026-04-11T03:23:56Z</time></trkpt><trkpt lat="43.257856246347316" lon="11.553416443416253"><ele>251.66666666666669</ele><time>2026-04-11T03:23:58Z</time></trkpt><trkpt lat="43.257915941162075" lon="11.553383603774922"><ele>251.83333333333334</ele><time>2026-04-11T03:23:59Z</time></trkpt><trkpt lat="43.258004207056494" lon="11.553365546595233"><ele>252.0</ele><time>2026-04-11T03:24:01Z</time></trkpt><trkpt lat="43.25809122994274" lon="11.553331535671939"><ele>252.0</ele><time>2026-04-11T03:24:03Z</time></trkpt><trkpt lat="43.258183908396106" lon="11.553305749986913"><ele>252.0</ele><time>2026-04-11T03:24:05Z</time></trkpt><trkpt lat="43.25829235314996" lon="11.553280114455514"><ele>252.0</ele><time>2026-04-11T03:24:07Z</time></trkpt><trkpt lat="43.258357267269034" lon="11.553265122490894"><ele>252.0</ele><time>2026-04-11T03:24:08Z</time></trkpt><trkpt lat="43.25842320263977" lon="11.553249894635236"><ele>252.0</ele><time>2026-04-11T03:24:09Z</time></trkpt><trkpt lat="43.258489854048115" lon="11.553234501480386"><ele>252.0</ele><time>2026-04-11T03:24:10Z</time></trkpt><trkpt lat="43.25856471227579" lon="11.55321721293055"><ele>252.0</ele><time>2026-04-11T03:24:11Z</time></trkpt><trkpt lat="43.25863889843636" lon="11.553200079445343"><ele>252.0</ele><time>2026-04-11T03:24:12Z</time></trkpt><trkpt lat="43.258715096770885" lon="11.55317634299482"><ele>252.0</ele><time>2026-04-11T03:24:13Z</time></trkpt><trkpt lat="43.258789762978765" lon="11.553150483744766"><ele>252.0</ele><time>2026-04-11T03:24:14Z</time></trkpt><trkpt lat="43.258863923239154" lon="11.553119720203327"><ele>252.0</ele><time>2026-04-11T03:24:15Z</time></trkpt><trkpt lat="43.25893502834853" lon="11.553080119960878"><ele>252.0</ele><time>2026-04-11T03:24:16Z</time></trkpt><trkpt lat="43.25900459989257" lon="11.553032804269746"><ele>251.0</ele><time>2026-04-11T03:24:17Z</time></trkpt><trkpt lat="43.259069936497916" lon="11.552977356343943"><ele>250.0</ele><time>2026-04-11T03:24:18Z</time></trkpt><trkpt lat="43.25912095788493" lon="11.55291631899769"><ele>249.0</ele><time>2026-04-11T03:24:19Z</time></trkpt><trkpt lat="43.2591709274207" lon="11.552855369335594"><ele>248.0</ele><time>2026-04-11T03:24:20Z</time></trkpt><trkpt lat="43.25921880865992" lon="11.552794615176882"><ele>247.0</ele><time>2026-04-11T03:24:21Z</time></trkpt><trkpt lat="43.259278368658705" lon="11.552754458666834"><ele>246.0</ele><time>2026-04-11T03:24:22Z</time></trkpt><trkpt lat="43.25936394189007" lon="11.552643854419152"><ele>246.0</ele><time>2026-04-11T03:24:24Z</time></trkpt><trkpt lat="43.25942669679783" lon="11.552511554332579"><ele>246.00000000000003</ele><time>2026-04-11T03:24:26Z</time></trkpt><trkpt lat="43.259477635154916" lon="11.552389473187967"><ele>246.00000000000003</ele><time>2026-04-11T03:24:28Z</time></trkpt><trkpt lat="43.259514265862066" lon="11.55226969248712"><ele>246.0</ele><time>2026-04-11T03:24:29.999Z</time></trkpt><trkpt lat="43.25953906799437" lon="11.552158341594613"><ele>246.0</ele><time>2026-04-11T03:24:31.999Z</time></trkpt><trkpt lat="43.259556094704855" lon="11.552056180953182"><ele>246.00000000000003</ele><time>2026-04-11T03:24:33.999Z</time></trkpt><trkpt lat="43.259581786055506" lon="11.551965542639296"><ele>246.0</ele><time>2026-04-11T03:24:35.999Z</time></trkpt><trkpt lat="43.259605160143856" lon="11.551876635153063"><ele>246.00000000000003</ele><time>2026-04-11T03:24:37.999Z</time></trkpt><trkpt lat="43.259630035000214" lon="11.551754899460258"><ele>246.00000000000003</ele><time>2026-04-11T03:24:40.999Z</time></trkpt><trkpt lat="43.25964808585233" lon="11.551671940067294"><ele>246.0</ele><time>2026-04-11T03:24:42.999Z</time></trkpt><trkpt lat="43.259666176749974" lon="11.551573796510615"><ele>246.00000000000003</ele><time>2026-04-11T03:24:45.999Z</time></trkpt><trkpt lat="43.259688723766544" lon="11.551490530096958"><ele>246.00000000000003</ele><time>2026-04-11T03:24:48.999Z</time></trkpt><trkpt lat="43.25970737755787" lon="11.551403691709266"><ele>246.0</ele><time>2026-04-11T03:24:51.999Z</time></trkpt><trkpt lat="43.259732753919764" lon="11.551319279728903"><ele>246.0</ele><time>2026-04-11T03:24:53.999Z</time></trkpt><trkpt lat="43.25975362322555" lon="11.551225166524832"><ele>246.0</ele><time>2026-04-11T03:24:55.999Z</time></trkpt><trkpt lat="43.25978328935961" lon="11.551118449612288"><ele>246.0</ele><time>2026-04-11T03:24:57.999Z</time></trkpt><trkpt lat="43.25981766331957" lon="11.551040498131071"><ele>246.0</ele><time>2026-04-11T03:24:59.999Z</time></trkpt><trkpt lat="43.259860802304104" lon="11.550939145568465"><ele>246.0</ele><time>2026-04-11T03:25:01.999Z</time></trkpt><trkpt lat="43.259913157642586" lon="11.550834836505869"><ele>246.4</ele><time>2026-04-11T03:25:03.999Z</time></trkpt><trkpt lat="43.25997436336265" lon="11.550730019656507"><ele>246.8</ele><time>2026-04-11T03:25:05.999Z</time></trkpt><trkpt lat="43.26004536084002" lon="11.550606928096997"><ele>247.20000000000002</ele><time>2026-04-11T03:25:07.999Z</time></trkpt><trkpt lat="43.260136277884335" lon="11.55051416182255"><ele>247.60000000000002</ele><time>2026-04-11T03:25:09.999Z</time></trkpt><trkpt lat="43.26021154548225" lon="11.55039793411825"><ele>248.0</ele><time>2026-04-11T03:25:11.999Z</time></trkpt><trkpt lat="43.26029278361184" lon="11.550279900139063"><ele>246.83333333333334</ele><time>2026-04-11T03:25:13.999Z</time></trkpt><trkpt lat="43.2603821342039" lon="11.550167599992893"><ele>245.66666666666669</ele><time>2026-04-11T03:25:15.999Z</time></trkpt><trkpt lat="43.26043544439621" lon="11.550112911206469"><ele>244.5</ele><time>2026-04-11T03:25:16.999Z</time></trkpt><trkpt lat="43.260506737503405" lon="11.550063213864776"><ele>243.33333333333331</ele><time>2026-04-11T03:25:17.999Z</time></trkpt><trkpt lat="43.26056747797742" lon="11.550009256643001"><ele>242.16666666666666</ele><time>2026-04-11T03:25:18.999Z</time></trkpt><trkpt lat="43.26063861079705" lon="11.549977812068592"><ele>241.0</ele><time>2026-04-11T03:25:19.999Z</time></trkpt><trkpt lat="43.260717253956024" lon="11.549970144408963"><ele>239.66666666666666</ele><time>2026-04-11T03:25:20.999Z</time></trkpt><trkpt lat="43.26079135596831" lon="11.549950761986914"><ele>238.33333333333331</ele><time>2026-04-11T03:25:21.998Z</time></trkpt><trkpt lat="43.260862957372" lon="11.549945077310872"><ele>237.0</ele><time>2026-04-11T03:25:22.998Z</time></trkpt><trkpt lat="43.26092785656436" lon="11.549945082683246"><ele>235.66666666666669</ele><time>2026-04-11T03:25:23.998Z</time></trkpt><trkpt lat="43.2610351855049" lon="11.549963313087842"><ele>234.33333333333334</ele><time>2026-04-11T03:25:25.998Z</time></trkpt><trkpt lat="43.26113056155772" lon="11.549984221556256"><ele>233.0</ele><time>2026-04-11T03:25:27.998Z</time></trkpt><trkpt lat="43.26121838751796" lon="11.54999794057905"><ele>233.00000000000003</ele><time>2026-04-11T03:25:29.998Z</time></trkpt><trkpt lat="43.26131136250636" lon="11.549998782675827"><ele>233.0</ele><time>2026-04-11T03:25:31.998Z</time></trkpt><trkpt lat="43.261398695676455" lon="11.54999223615556"><ele>233.0</ele><time>2026-04-11T03:25:33.998Z</time></trkpt><trkpt lat="43.261480525702765" lon="11.549980751377625"><ele>233.0</ele><time>2026-04-11T03:25:35.998Z</time></trkpt><trkpt lat="43.261550613242896" lon="11.549928996103075"><ele>233.00000000000003</ele><time>2026-04-11T03:25:37.998Z</time></trkpt><trkpt lat="43.26162309833302" lon="11.549904957708495"><ele>233.0</ele><time>2026-04-11T03:25:39.998Z</time></trkpt><trkpt lat="43.26168907560407" lon="11.549877120334772"><ele>233.28571428571428</ele><time>2026-04-11T03:25:41.998Z</time></trkpt><trkpt lat="43.261749052911945" lon="11.549842600928232"><ele>233.57142857142856</ele><time>2026-04-11T03:25:43.998Z</time></trkpt><trkpt lat="43.26180887228106" lon="11.549810639798329"><ele>233.85714285714283</ele><time>2026-04-11T03:25:46Z</time></trkpt><trkpt lat="43.26188782556968" lon="11.549753640425857"><ele>234.14285714285714</ele><time>2026-04-11T03:25:49Z</time></trkpt><trkpt lat="43.261971235090016" lon="11.549693449898566"><ele>234.4285714285714</ele><time>2026-04-11T03:25:52Z</time></trkpt><trkpt lat="43.262027228313386" lon="11.549636958569657"><ele>234.7142857142857</ele><time>2026-04-11T03:25:54Z</time></trkpt><trkpt lat="43.26207833171325" lon="11.54958066178309"><ele>235.0</ele><time>2026-04-11T03:25:56Z</time></trkpt><trkpt lat="43.262148755995725" lon="11.549499647212553"><ele>235.28571428571428</ele><time>2026-04-11T03:25:59Z</time></trkpt><trkpt lat="43.2621969561681" lon="11.549441918940818"><ele>235.57142857142856</ele><time>2026-04-11T03:26:01Z</time></trkpt><trkpt lat="43.26224612209787" lon="11.549382903704592"><ele>235.85714285714283</ele><time>2026-04-11T03:26:03Z</time></trkpt><trkpt lat="43.26230619910952" lon="11.549307768942727"><ele>236.1428571428571</ele><time>2026-04-11T03:26:06Z</time></trkpt><trkpt lat="43.26236328063355" lon="11.549245273589655"><ele>236.42857142857142</ele><time>2026-04-11T03:26:08Z</time></trkpt><trkpt lat="43.26242406902304" lon="11.549164083100841"><ele>236.71428571428567</ele><time>2026-04-11T03:26:11Z</time></trkpt><trkpt lat="43.262479506519455" lon="11.549085505209375"><ele>236.99999999999997</ele><time>2026-04-11T03:26:14Z</time></trkpt><trkpt lat="43.26252452776822" lon="11.549005633109418"><ele>238.5</ele><time>2026-04-11T03:26:17Z</time></trkpt><trkpt lat="43.26256829240621" lon="11.548930114583209"><ele>240.0</ele><time>2026-04-11T03:26:20Z</time></trkpt><trkpt lat="43.2626181120789" lon="11.54883949995849"><ele>241.5</ele><time>2026-04-11T03:26:24Z</time></trkpt><trkpt lat="43.262662975927256" lon="11.54875266998393"><ele>243.0</ele><time>2026-04-11T03:26:28Z</time></trkpt><trkpt lat="43.262703669477915" lon="11.5486569770731"><ele>244.5</ele><time>2026-04-11T03:26:31Z</time></trkpt><trkpt lat="43.262738631903495" lon="11.54858457143866"><ele>246.0</ele><time>2026-04-11T03:26:34Z</time></trkpt><trkpt lat="43.26278977452656" lon="11.548495936359746"><ele>247.14285714285717</ele><time>2026-04-11T03:26:38Z</time></trkpt><trkpt lat="43.26283666771212" lon="11.548418662521053"><ele>248.28571428571428</ele><time>2026-04-11T03:26:41.999Z</time></trkpt><trkpt lat="43.26288009268301" lon="11.54834321138125"><ele>249.42857142857144</ele><time>2026-04-11T03:26:45.999Z</time></trkpt><trkpt lat="43.26292364584267" lon="11.548275012232617"><ele>250.57142857142858</ele><time>2026-04-11T03:26:49.999Z</time></trkpt><trkpt lat="43.26296513435822" lon="11.548195982187018"><ele>251.71428571428572</ele><time>2026-04-11T03:26:53.999Z</time></trkpt><trkpt lat="43.26300082540606" lon="11.548113465929136"><ele>252.85714285714286</ele><time>2026-04-11T03:26:57.999Z</time></trkpt><trkpt lat="43.26303920964137" lon="11.548022719569008"><ele>254.0</ele><time>2026-04-11T03:27:01.999Z</time></trkpt><trkpt lat="43.26306072230298" lon="11.547937457988219"><ele>254.00000000000003</ele><time>2026-04-11T03:27:04.999Z</time></trkpt><trkpt lat="43.263088241968795" lon="11.547849194075939"><ele>254.0</ele><time>2026-04-11T03:27:08.999Z</time></trkpt><trkpt lat="43.26312121178905" lon="11.547747176519646"><ele>254.0</ele><time>2026-04-11T03:27:12.999Z</time></trkpt><trkpt lat="43.26315720176704" lon="11.547649508353336"><ele>254.0</ele><time>2026-04-11T03:27:16.999Z</time></trkpt><trkpt lat="43.26319252916426" lon="11.547570675387922"><ele>254.00000000000003</ele><time>2026-04-11T03:27:19.999Z</time></trkpt><trkpt lat="43.263234308395745" lon="11.54748609545456"><ele>254.0</ele><time>2026-04-11T03:27:22.999Z</time></trkpt><trkpt lat="43.263288644592784" lon="11.547409750742629"><ele>255.66666666666669</ele><time>2026-04-11T03:27:26.999Z</time></trkpt><trkpt lat="43.26334347886642" lon="11.547336171244151"><ele>257.33333333333337</ele><time>2026-04-11T03:27:29.999Z</time></trkpt><trkpt lat="43.263403847058285" lon="11.547259556497158"><ele>259.0</ele><time>2026-04-11T03:27:33.998Z</time></trkpt><trkpt lat="43.263464214551405" lon="11.547193641910582"><ele>260.6666666666667</ele><time>2026-04-11T03:27:37.998Z</time></trkpt><trkpt lat="43.26351884200452" lon="11.547131811124554"><ele>262.3333333333333</ele><time>2026-04-11T03:27:42.998Z</time></trkpt><trkpt lat="43.26358395079316" lon="11.547074003233488"><ele>264.0</ele><time>2026-04-11T03:27:45.998Z</time></trkpt><trkpt lat="43.263645169116074" lon="11.547019730443338"><ele>264.0</ele><time>2026-04-11T03:27:47.998Z</time></trkpt><trkpt lat="43.26370894195447" lon="11.546960732144285"><ele>264.0</ele><time>2026-04-11T03:27:49.998Z</time></trkpt><trkpt lat="43.263788319953875" lon="11.546892995572296"><ele>264.0</ele><time>2026-04-11T03:27:52Z</time></trkpt><trkpt lat="43.263873131323976" lon="11.546815145268301"><ele>264.0</ele><time>2026-04-11T03:27:54Z</time></trkpt><trkpt lat="43.26396996482192" lon="11.54672836885473"><ele>264.0</ele><time>2026-04-11T03:27:56Z</time></trkpt><trkpt lat="43.264037328504386" lon="11.546711155698983"><ele>264.0</ele><time>2026-04-11T03:27:57Z</time></trkpt><trkpt lat="43.26413517948253" lon="11.546609079547585"><ele>264.0</ele><time>2026-04-11T03:27:59Z</time></trkpt><trkpt lat="43.26423101075228" lon="11.546499644946644"><ele>264.0</ele><time>2026-04-11T03:28:01Z</time></trkpt><trkpt lat="43.26427697122718" lon="11.546439092427532"><ele>264.0</ele><time>2026-04-11T03:28:02Z</time></trkpt><trkpt lat="43.264354525802936" lon="11.546312219652792"><ele>264.0</ele><time>2026-04-11T03:28:04Z</time></trkpt><trkpt lat="43.26441652257677" lon="11.546177470653257"><ele>266.4</ele><time>2026-04-11T03:28:06Z</time></trkpt><trkpt lat="43.264466612906105" lon="11.546041106113627"><ele>268.79999999999995</ele><time>2026-04-11T03:28:08Z</time></trkpt><trkpt lat="43.26450246209028" lon="11.545902154980707"><ele>271.20000000000005</ele><time>2026-04-11T03:28:10Z</time></trkpt><trkpt lat="43.264512425823725" lon="11.545766309182032"><ele>273.6</ele><time>2026-04-11T03:28:12Z</time></trkpt><trkpt lat="43.26455079503451" lon="11.545652722888976"><ele>276.0</ele><time>2026-04-11T03:28:14Z</time></trkpt><trkpt lat="43.26457093918457" lon="11.545542482744768"><ele>276.0</ele><time>2026-04-11T03:28:16Z</time></trkpt><trkpt lat="43.26458930073745" lon="11.545437649645459"><ele>276.0</ele><time>2026-04-11T03:28:18Z</time></trkpt><trkpt lat="43.26460658393648" lon="11.545333020502209"><ele>276.0</ele><time>2026-04-11T03:28:20Z</time></trkpt><trkpt lat="43.264623049073776" lon="11.545233343354413"><ele>276.0</ele><time>2026-04-11T03:28:22Z</time></trkpt><trkpt lat="43.26460833093398" lon="11.545122353037913"><ele>276.0</ele><time>2026-04-11T03:28:24Z</time></trkpt><trkpt lat="43.264625985610614" lon="11.54500658220621"><ele>276.0</ele><time>2026-04-11T03:28:26Z</time></trkpt><trkpt lat="43.26464531524696" lon="11.544895031864138"><ele>276.1666666666667</ele><time>2026-04-11T03:28:28Z</time></trkpt><trkpt lat="43.2646559895189" lon="11.5447878254138"><ele>276.3333333333333</ele><time>2026-04-11T03:28:30Z</time></trkpt><trkpt lat="43.26467519194822" lon="11.544680723668685"><ele>276.5</ele><time>2026-04-11T03:28:32Z</time></trkpt><trkpt lat="43.264697626548596" lon="11.54459337051683"><ele>276.66666666666663</ele><time>2026-04-11T03:28:34Z</time></trkpt><trkpt lat="43.264744547265124" lon="11.544482049285397"><ele>276.8333333333333</ele><time>2026-04-11T03:28:37Z</time></trkpt><trkpt lat="43.26478313693682" lon="11.54440810671636"><ele>277.0</ele><time>2026-04-11T03:28:39Z</time></trkpt><trkpt lat="43.26483014898087" lon="11.544335421289922"><ele>273.0</ele><time>2026-04-11T03:28:41Z</time></trkpt><trkpt lat="43.26488759759927" lon="11.54424194998559"><ele>269.0</ele><time>2026-04-11T03:28:44Z</time></trkpt><trkpt lat="43.26494546929228" lon="11.544141414696425"><ele>265.0</ele><time>2026-04-11T03:28:46.999Z</time></trkpt><trkpt lat="43.26498510421539" lon="11.544058023750932"><ele>261.0</ele><time>2026-04-11T03:28:48.999Z</time></trkpt><trkpt lat="43.26502339063152" lon="11.543960717615924"><ele>257.0</ele><time>2026-04-11T03:28:50.999Z</time></trkpt><trkpt lat="43.26506550483863" lon="11.543844188808603"><ele>253.0</ele><time>2026-04-11T03:28:52.999Z</time></trkpt><trkpt lat="43.26511127707511" lon="11.543712541214743"><ele>251.49999999999997</ele><time>2026-04-11T03:28:54.999Z</time></trkpt><trkpt lat="43.26516936213599" lon="11.543663996512528"><ele>250.0</ele><time>2026-04-11T03:28:55.999Z</time></trkpt><trkpt lat="43.265212071956775" lon="11.543518989960411"><ele>248.5</ele><time>2026-04-11T03:28:57.999Z</time></trkpt><trkpt lat="43.265230891969225" lon="11.54343641876259"><ele>247.0</ele><time>2026-04-11T03:28:58.999Z</time></trkpt><trkpt lat="43.265246704175134" lon="11.543337783482322"><ele>245.49999999999997</ele><time>2026-04-11T03:28:59.999Z</time></trkpt><trkpt lat="43.26524911978234" lon="11.54322597381966"><ele>244.0</ele><time>2026-04-11T03:29:00.999Z</time></trkpt><trkpt lat="43.265241627477025" lon="11.543112718022579"><ele>243.99999999999997</ele><time>2026-04-11T03:29:01.999Z</time></trkpt><trkpt lat="43.265213737691845" lon="11.543014433775053"><ele>244.0</ele><time>2026-04-11T03:29:02.999Z</time></trkpt><trkpt lat="43.26522061349708" lon="11.542913804072397"><ele>244.0</ele><time>2026-04-11T03:29:03.999Z</time></trkpt><trkpt lat="43.265215032247255" lon="11.542806415036507"><ele>244.0</ele><time>2026-04-11T03:29:04.999Z</time></trkpt><trkpt lat="43.26521125218052" lon="11.542699445040716"><ele>243.99999999999997</ele><time>2026-04-11T03:29:05.999Z</time></trkpt><trkpt lat="43.26521258251931" lon="11.542596252034153"><ele>244.0</ele><time>2026-04-11T03:29:06.999Z</time></trkpt><trkpt lat="43.26522177014772" lon="11.542497909906265"><ele>242.6</ele><time>2026-04-11T03:29:07.999Z</time></trkpt><trkpt lat="43.26524386916716" lon="11.542415320935616"><ele>241.2</ele><time>2026-04-11T03:29:08.999Z</time></trkpt><trkpt lat="43.265269930077665" lon="11.54233595451977"><ele>239.79999999999998</ele><time>2026-04-11T03:29:09.999Z</time></trkpt><trkpt lat="43.265324252962024" lon="11.542187726650836"><ele>238.39999999999998</ele><time>2026-04-11T03:29:11.999Z</time></trkpt><trkpt lat="43.265371437492064" lon="11.542049782166655"><ele>237.0</ele><time>2026-04-11T03:29:13.999Z</time></trkpt><trkpt lat="43.265410598157764" lon="11.54191472944334"><ele>236.39999999999998</ele><time>2026-04-11T03:29:15.999Z</time></trkpt><trkpt lat="43.26545069571416" lon="11.541776413915036"><ele>235.79999999999998</ele><time>2026-04-11T03:29:17.999Z</time></trkpt><trkpt lat="43.26548463670366" lon="11.541636713199576"><ele>235.2</ele><time>2026-04-11T03:29:19.999Z</time></trkpt><trkpt lat="43.2655083857791" lon="11.541503066456826"><ele>234.6</ele><time>2026-04-11T03:29:21.999Z</time></trkpt><trkpt lat="43.265488020619514" lon="11.541366080832319"><ele>234.0</ele><time>2026-04-11T03:29:23.999Z</time></trkpt><trkpt lat="43.26550533561627" lon="11.541250206935532"><ele>234.57142857142858</ele><time>2026-04-11T03:29:25.999Z</time></trkpt><trkpt lat="43.265512210123546" lon="11.541140285923072"><ele>235.14285714285717</ele><time>2026-04-11T03:29:27.999Z</time></trkpt><trkpt lat="43.26552041000721" lon="11.541039103758122"><ele>235.71428571428572</ele><time>2026-04-11T03:29:29.999Z</time></trkpt><trkpt lat="43.26552948738486" lon="11.540943670595523"><ele>236.28571428571428</ele><time>2026-04-11T03:29:31.999Z</time></trkpt><trkpt lat="43.265537697937255" lon="11.540849511971825"><ele>236.85714285714286</ele><time>2026-04-11T03:29:33.999Z</time></trkpt><trkpt lat="43.265537793075495" lon="11.540755131096606"><ele>237.42857142857144</ele><time>2026-04-11T03:29:35.999Z</time></trkpt><trkpt lat="43.265552912441" lon="11.540662107821042"><ele>238.0</ele><time>2026-04-11T03:29:37.999Z</time></trkpt><trkpt lat="43.26557837532558" lon="11.54056474767693"><ele>238.83333333333331</ele><time>2026-04-11T03:29:39.998Z</time></trkpt><trkpt lat="43.26562469418935" lon="11.540484240685615"><ele>239.66666666666666</ele><time>2026-04-11T03:29:42.998Z</time></trkpt><trkpt lat="43.26569379441232" lon="11.540395884443885"><ele>240.5</ele><time>2026-04-11T03:29:45.998Z</time></trkpt><trkpt lat="43.265750137342756" lon="11.540337669294825"><ele>241.33333333333331</ele><time>2026-04-11T03:29:47.998Z</time></trkpt><trkpt lat="43.26583225263494" lon="11.540213732988818"><ele>242.16666666666666</ele><time>2026-04-11T03:29:49.998Z</time></trkpt><trkpt lat="43.265882866463826" lon="11.540132293317843"><ele>243.0</ele><time>2026-04-11T03:29:50.998Z</time></trkpt><trkpt lat="43.265950674600276" lon="11.540090621207302"><ele>243.8</ele><time>2026-04-11T03:29:51.998Z</time></trkpt><trkpt lat="43.26599618154607" lon="11.540022856594982"><ele>244.60000000000002</ele><time>2026-04-11T03:29:52.998Z</time></trkpt><trkpt lat="43.266039856636" lon="11.539957819984233"><ele>245.39999999999998</ele><time>2026-04-11T03:29:53.998Z</time></trkpt><trkpt lat="43.26612518391092" lon="11.539830758889767"><ele>246.2</ele><time>2026-04-11T03:29:55.998Z</time></trkpt><trkpt lat="43.266170205956016" lon="11.539761930869155"><ele>247.0</ele><time>2026-04-11T03:29:56.998Z</time></trkpt><trkpt lat="43.26625344043877" lon="11.53963020053549"><ele>246.99999999999997</ele><time>2026-04-11T03:29:59Z</time></trkpt><trkpt lat="43.26629469637935" lon="11.53956027137714"><ele>247.0</ele><time>2026-04-11T03:30:00Z</time></trkpt><trkpt lat="43.26633185143644" lon="11.539489593118162"><ele>247.0</ele><time>2026-04-11T03:30:01Z</time></trkpt><trkpt lat="43.266370305075064" lon="11.539409436254108"><ele>247.0</ele><time>2026-04-11T03:30:02Z</time></trkpt><trkpt lat="43.26641173368969" lon="11.53932877043734"><ele>246.99999999999997</ele><time>2026-04-11T03:30:03Z</time></trkpt><trkpt lat="43.26645454121753" lon="11.53925268746327"><ele>247.0</ele><time>2026-04-11T03:30:04Z</time></trkpt><trkpt lat="43.26653000157772" lon="11.539136344720584"><ele>245.2</ele><time>2026-04-11T03:30:06Z</time></trkpt><trkpt lat="43.266621341968445" lon="11.539065654466325"><ele>243.39999999999998</ele><time>2026-04-11T03:30:08Z</time></trkpt><trkpt lat="43.26671193338107" lon="11.539017373209756"><ele>241.60000000000002</ele><time>2026-04-11T03:30:10Z</time></trkpt><trkpt lat="43.26681135984247" lon="11.538965613040045"><ele>239.8</ele><time>2026-04-11T03:30:12Z</time></trkpt><trkpt lat="43.26687216188401" lon="11.53893268361565"><ele>238.0</ele><time>2026-04-11T03:30:13Z</time></trkpt><trkpt lat="43.26698888165386" lon="11.538862786687261"><ele>237.99999999999997</ele><time>2026-04-11T03:30:15Z</time></trkpt><trkpt lat="43.26704725903681" lon="11.538826989407214"><ele>238.0</ele><time>2026-04-11T03:30:16Z</time></trkpt><trkpt lat="43.26710654794936" lon="11.538790380868349"><ele>238.0</ele><time>2026-04-11T03:30:17Z</time></trkpt><trkpt lat="43.267165600519824" lon="11.538752974579491"><ele>238.0</ele><time>2026-04-11T03:30:18Z</time></trkpt><trkpt lat="43.26728389765145" lon="11.538676072112036"><ele>237.99999999999997</ele><time>2026-04-11T03:30:20Z</time></trkpt><trkpt lat="43.26734651249709" lon="11.538633731607717"><ele>238.0</ele><time>2026-04-11T03:30:21Z</time></trkpt><trkpt lat="43.2674053032329" lon="11.538593977023263"><ele>237.16666666666666</ele><time>2026-04-11T03:30:22Z</time></trkpt><trkpt lat="43.26746887117663" lon="11.5385500401784"><ele>236.33333333333331</ele><time>2026-04-11T03:30:23Z</time></trkpt><trkpt lat="43.26752856119911" lon="11.538508730883684"><ele>235.5</ele><time>2026-04-11T03:30:24Z</time></trkpt><trkpt lat="43.26762502087687" lon="11.538441974620762"><ele>234.66666666666669</ele><time>2026-04-11T03:30:26Z</time></trkpt><trkpt lat="43.26771423962557" lon="11.538380229674463"><ele>233.83333333333334</ele><time>2026-04-11T03:30:28Z</time></trkpt><trkpt lat="43.26779836806584" lon="11.53832176716143"><ele>233.0</ele><time>2026-04-11T03:30:30Z</time></trkpt><trkpt lat="43.26788969150562" lon="11.538256634413631"><ele>233.0</ele><time>2026-04-11T03:30:32Z</time></trkpt><trkpt lat="43.2679948124317" lon="11.538181661213427"><ele>233.0</ele><time>2026-04-11T03:30:34Z</time></trkpt><trkpt lat="43.26805580960369" lon="11.538137091713885"><ele>233.0</ele><time>2026-04-11T03:30:35Z</time></trkpt><trkpt lat="43.26811347971332" lon="11.538094531585898"><ele>233.0</ele><time>2026-04-11T03:30:36Z</time></trkpt><trkpt lat="43.268207690992625" lon="11.538025004534866"><ele>233.0</ele><time>2026-04-11T03:30:38Z</time></trkpt><trkpt lat="43.26830478015162" lon="11.53795335359279"><ele>229.8</ele><time>2026-04-11T03:30:40Z</time></trkpt><trkpt lat="43.26840259788275" lon="11.537881164926901"><ele>226.60000000000002</ele><time>2026-04-11T03:30:42Z</time></trkpt><trkpt lat="43.26848865520634" lon="11.537818719324884"><ele>223.39999999999998</ele><time>2026-04-11T03:30:44Z</time></trkpt><trkpt lat="43.26859095828406" lon="11.537754129156392"><ele>220.2</ele><time>2026-04-11T03:30:46Z</time></trkpt><trkpt lat="43.26870370584089" lon="11.537712730741353"><ele>217.0</ele><time>2026-04-11T03:30:48Z</time></trkpt><trkpt lat="43.26876686431914" lon="11.537711022289848"><ele>217.0</ele><time>2026-04-11T03:30:49Z</time></trkpt><trkpt lat="43.268876448587804" lon="11.53773337480401"><ele>217.0</ele><time>2026-04-11T03:30:51Z</time></trkpt><trkpt lat="43.26896036508649" lon="11.537766540512768"><ele>217.0</ele><time>2026-04-11T03:30:53Z</time></trkpt><trkpt lat="43.26904626143735" lon="11.537803051283234"><ele>217.0</ele><time>2026-04-11T03:30:55Z</time></trkpt><trkpt lat="43.26916125875028" lon="11.537837472481884"><ele>217.0</ele><time>2026-04-11T03:30:56.999Z</time></trkpt><trkpt lat="43.26928740721932" lon="11.537818063715278"><ele>214.2</ele><time>2026-04-11T03:30:58.999Z</time></trkpt><trkpt lat="43.26935359235789" lon="11.537814514845305"><ele>211.39999999999998</ele><time>2026-04-11T03:30:59.999Z</time></trkpt><trkpt lat="43.269474152212084" lon="11.537788478974383"><ele>208.60000000000002</ele><time>2026-04-11T03:31:01.999Z</time></trkpt><trkpt lat="43.2695951272736" lon="11.537769558533105"><ele>205.8</ele><time>2026-04-11T03:31:03.999Z</time></trkpt><trkpt lat="43.26970340314319" lon="11.537697251702973"><ele>203.0</ele><time>2026-04-11T03:31:05.999Z</time></trkpt><trkpt lat="43.269810648779725" lon="11.537632275926168"><ele>199.75</ele><time>2026-04-11T03:31:07.999Z</time></trkpt><trkpt lat="43.2699139212948" lon="11.537575223880546"><ele>196.5</ele><time>2026-04-11T03:31:09.999Z</time></trkpt><trkpt lat="43.27003145523564" lon="11.537565135639236"><ele>193.25</ele><time>2026-04-11T03:31:11.999Z</time></trkpt><trkpt lat="43.27015423539881" lon="11.537583112556177"><ele>190.0</ele><time>2026-04-11T03:31:13.999Z</time></trkpt><trkpt lat="43.2702639839656" lon="11.537636747902155"><ele>190.0</ele><time>2026-04-11T03:31:15.999Z</time></trkpt><trkpt lat="43.270380125368725" lon="11.537685825315563"><ele>190.0</ele><time>2026-04-11T03:31:17.999Z</time></trkpt><trkpt lat="43.27048540140327" lon="11.537705050950015"><ele>190.0</ele><time>2026-04-11T03:31:19.999Z</time></trkpt><trkpt lat="43.2705789466415" lon="11.537725268636141"><ele>190.0</ele><time>2026-04-11T03:31:21.999Z</time></trkpt><trkpt lat="43.27068311920241" lon="11.537758782693366"><ele>190.0</ele><time>2026-04-11T03:31:23.999Z</time></trkpt><trkpt lat="43.27074233472452" lon="11.537791262340747"><ele>189.16666666666669</ele><time>2026-04-11T03:31:24.999Z</time></trkpt><trkpt lat="43.27080277985994" lon="11.537830350145093"><ele>188.33333333333334</ele><time>2026-04-11T03:31:25.999Z</time></trkpt><trkpt lat="43.27086128932625" lon="11.537871497305057"><ele>187.5</ele><time>2026-04-11T03:31:26.999Z</time></trkpt><trkpt lat="43.270917041013355" lon="11.537914626584874"><ele>186.66666666666666</ele><time>2026-04-11T03:31:27.999Z</time></trkpt><trkpt lat="43.27101500836275" lon="11.538008266698924"><ele>185.83333333333331</ele><time>2026-04-11T03:31:29.999Z</time></trkpt><trkpt lat="43.27106284549974" lon="11.538068574101663"><ele>185.0</ele><time>2026-04-11T03:31:30.999Z</time></trkpt><trkpt lat="43.271145850323386" lon="11.53819458844682"><ele>184.66666666666666</ele><time>2026-04-11T03:31:32.999Z</time></trkpt><trkpt lat="43.27118355440611" lon="11.538264032414851"><ele>184.33333333333331</ele><time>2026-04-11T03:31:33.999Z</time></trkpt><trkpt lat="43.271250839741555" lon="11.538400927991225"><ele>184.0</ele><time>2026-04-11T03:31:35.999Z</time></trkpt><trkpt lat="43.27130074687307" lon="11.538514006337415"><ele>183.66666666666666</ele><time>2026-04-11T03:31:37.999Z</time></trkpt><trkpt lat="43.27133576771107" lon="11.538594717780043"><ele>183.33333333333334</ele><time>2026-04-11T03:31:39.999Z</time></trkpt><trkpt lat="43.271382299786346" lon="11.538702479382888"><ele>183.0</ele><time>2026-04-11T03:31:42.999Z</time></trkpt><trkpt lat="43.271426851419804" lon="11.538807547262556"><ele>183.66666666666666</ele><time>2026-04-11T03:31:45.999Z</time></trkpt><trkpt lat="43.27147028365969" lon="11.538910067921353"><ele>184.33333333333334</ele><time>2026-04-11T03:31:48.998Z</time></trkpt><trkpt lat="43.27152659790573" lon="11.538955096707529"><ele>185.0</ele><time>2026-04-11T03:31:50.998Z</time></trkpt><trkpt lat="43.271570772925514" lon="11.539053497081001"><ele>185.66666666666669</ele><time>2026-04-11T03:31:53.998Z</time></trkpt><trkpt lat="43.27160934937652" lon="11.539153100647999"><ele>186.33333333333334</ele><time>2026-04-11T03:31:56.998Z</time></trkpt><trkpt lat="43.27164740979266" lon="11.53924567474717"><ele>187.0</ele><time>2026-04-11T03:31:59.998Z</time></trkpt><trkpt lat="43.27167945245148" lon="11.539329213939428"><ele>187.0</ele><time>2026-04-11T03:32:02.998Z</time></trkpt><trkpt lat="43.271714765657435" lon="11.539410328997361"><ele>187.0</ele><time>2026-04-11T03:32:06Z</time></trkpt><trkpt lat="43.27174247651988" lon="11.539497891867573"><ele>187.0</ele><time>2026-04-11T03:32:08Z</time></trkpt><trkpt lat="43.2717778008457" lon="11.539583187068086"><ele>187.0</ele><time>2026-04-11T03:32:11Z</time></trkpt><trkpt lat="43.27181408555275" lon="11.539665405073182"><ele>187.0</ele><time>2026-04-11T03:32:14Z</time></trkpt><trkpt lat="43.27184999871996" lon="11.539758655639382"><ele>187.0</ele><time>2026-04-11T03:32:17Z</time></trkpt><trkpt lat="43.27188449662586" lon="11.539852818535307"><ele>187.0</ele><time>2026-04-11T03:32:20Z</time></trkpt><trkpt lat="43.27191440691515" lon="11.539930077963767"><ele>187.33333333333334</ele><time>2026-04-11T03:32:22Z</time></trkpt><trkpt lat="43.27196267956986" lon="11.540050626038195"><ele>187.66666666666669</ele><time>2026-04-11T03:32:25Z</time></trkpt><trkpt lat="43.27200016986304" lon="11.540148831236865"><ele>188.0</ele><time>2026-04-11T03:32:28Z</time></trkpt><trkpt lat="43.27204342021002" lon="11.540244728861635"><ele>188.33333333333334</ele><time>2026-04-11T03:32:31Z</time></trkpt><trkpt lat="43.272089192609265" lon="11.540347834388253"><ele>188.66666666666666</ele><time>2026-04-11T03:32:33Z</time></trkpt><trkpt lat="43.27213122189358" lon="11.540451122865285"><ele>189.0</ele><time>2026-04-11T03:32:36Z</time></trkpt><trkpt lat="43.272171923403114" lon="11.54055783596466"><ele>189.33333333333334</ele><time>2026-04-11T03:32:39Z</time></trkpt><trkpt lat="43.27221180329529" lon="11.540660209715748"><ele>189.66666666666666</ele><time>2026-04-11T03:32:42Z</time></trkpt><trkpt lat="43.27225010595854" lon="11.540765625263699"><ele>190.0</ele><time>2026-04-11T03:32:45Z</time></trkpt><trkpt lat="43.2722812285611" lon="11.540845008767771"><ele>190.33333333333331</ele><time>2026-04-11T03:32:48Z</time></trkpt><trkpt lat="43.27231769097073" lon="11.540940566171821"><ele>190.66666666666666</ele><time>2026-04-11T03:32:51Z</time></trkpt><trkpt lat="43.27235206884094" lon="11.541042300742907"><ele>191.0</ele><time>2026-04-11T03:32:54Z</time></trkpt><trkpt lat="43.272384561178036" lon="11.541144402312664"><ele>192.71428571428572</ele><time>2026-04-11T03:32:57Z</time></trkpt><trkpt lat="43.272410523084055" lon="11.541250625330875"><ele>194.42857142857142</ele><time>2026-04-11T03:33:00Z</time></trkpt><trkpt lat="43.272430534036715" lon="11.541348078472621"><ele>196.14285714285714</ele><time>2026-04-11T03:33:02.999Z</time></trkpt><trkpt lat="43.27244468430768" lon="11.541433064099612"><ele>197.85714285714286</ele><time>2026-04-11T03:33:05.999Z</time></trkpt><trkpt lat="43.2724667200578" lon="11.5415407735513"><ele>199.57142857142856</ele><time>2026-04-11T03:33:09.999Z</time></trkpt><trkpt lat="43.27248168032953" lon="11.54163763944547"><ele>201.28571428571428</ele><time>2026-04-11T03:33:13.999Z</time></trkpt><trkpt lat="43.27248593011812" lon="11.54173939865874"><ele>203.0</ele><time>2026-04-11T03:33:17.999Z</time></trkpt><trkpt lat="43.27250037273225" lon="11.54185235440514"><ele>203.0</ele><time>2026-04-11T03:33:21.999Z</time></trkpt><trkpt lat="43.272508855716545" lon="11.541949571742444"><ele>203.0</ele><time>2026-04-11T03:33:25.999Z</time></trkpt><trkpt lat="43.272517042645994" lon="11.542035981493076"><ele>203.0</ele><time>2026-04-11T03:33:28.999Z</time></trkpt><trkpt lat="43.27252508301045" lon="11.542126686898657"><ele>203.0</ele><time>2026-04-11T03:33:32.999Z</time></trkpt><trkpt lat="43.27254129216433" lon="11.542230308927358"><ele>203.0</ele><time>2026-04-11T03:33:36.999Z</time></trkpt><trkpt lat="43.27254726169606" lon="11.54231805821808"><ele>203.0</ele><time>2026-04-11T03:33:40.999Z</time></trkpt><trkpt lat="43.272559475581176" lon="11.542417486042691"><ele>203.0</ele><time>2026-04-11T03:33:44.999Z</time></trkpt><trkpt lat="43.27257056066046" lon="11.542512825719228"><ele>204.33333333333334</ele><time>2026-04-11T03:33:48.999Z</time></trkpt><trkpt lat="43.27259002976824" lon="11.542616389408575"><ele>205.66666666666669</ele><time>2026-04-11T03:33:52.999Z</time></trkpt><trkpt lat="43.27262517041057" lon="11.542723977961236"><ele>207.0</ele><time>2026-04-11T03:33:57.998Z</time></trkpt><trkpt lat="43.272652208952856" lon="11.54282764007413"><ele>208.33333333333331</ele><time>2026-04-11T03:34:02.998Z</time></trkpt><trkpt lat="43.27269455346309" lon="11.542897331364887"><ele>209.66666666666666</ele><time>2026-04-11T03:34:07.998Z</time></trkpt><trkpt lat="43.27276526797454" lon="11.542927003726392"><ele>211.0</ele><time>2026-04-11T03:34:12Z</time></trkpt><trkpt lat="43.27283562913859" lon="11.542925426772946"><ele>211.0</ele><time>2026-04-11T03:34:16Z</time></trkpt><trkpt lat="43.272903971786526" lon="11.542895934265132"><ele>211.0</ele><time>2026-04-11T03:34:20Z</time></trkpt><trkpt lat="43.272970735577914" lon="11.542881305939234"><ele>211.0</ele><time>2026-04-11T03:34:23Z</time></trkpt><trkpt lat="43.27304149846326" lon="11.542880720553999"><ele>211.0</ele><time>2026-04-11T03:34:27Z</time></trkpt><trkpt lat="43.273109640638545" lon="11.542895788741646"><ele>211.0</ele><time>2026-04-11T03:34:31Z</time></trkpt><trkpt lat="43.27318013057276" lon="11.542922709536072"><ele>211.0</ele><time>2026-04-11T03:34:35Z</time></trkpt><trkpt lat="43.27324615566011" lon="11.542967865528297"><ele>211.0</ele><time>2026-04-11T03:34:39Z</time></trkpt><trkpt lat="43.273302637872426" lon="11.54300845193661"><ele>214.0</ele><time>2026-04-11T03:34:42Z</time></trkpt><trkpt lat="43.273359685183756" lon="11.54305236517671"><ele>217.0</ele><time>2026-04-11T03:34:46Z</time></trkpt><trkpt lat="43.273426083775085" lon="11.543112050251693"><ele>220.0</ele><time>2026-04-11T03:34:50Z</time></trkpt><trkpt lat="43.27347686785484" lon="11.543172787344764"><ele>223.0</ele><time>2026-04-11T03:34:54Z</time></trkpt><trkpt lat="43.27353631406113" lon="11.543237132766484"><ele>226.0</ele><time>2026-04-11T03:34:58Z</time></trkpt><trkpt lat="43.273588372967815" lon="11.543316389696137"><ele>229.00000000000003</ele><time>2026-04-11T03:35:02Z</time></trkpt><trkpt lat="43.27362481287338" lon="11.543408256751556"><ele>232.00000000000003</ele><time>2026-04-11T03:35:06Z</time></trkpt><trkpt lat="43.273642523920344" lon="11.54351333840031"><ele>232.00000000000003</ele><time>2026-04-11T03:35:09.999Z</time></trkpt><trkpt lat="43.2736419311263" lon="11.543621418081417"><ele>232.0</ele><time>2026-04-11T03:35:13.999Z</time></trkpt><trkpt lat="43.273617116165774" lon="11.54370653580691"><ele>232.00000000000003</ele><time>2026-04-11T03:35:16.999Z</time></trkpt><trkpt lat="43.27358698269541" lon="11.543784169341953"><ele>232.00000000000003</ele><time>2026-04-11T03:35:20.999Z</time></trkpt><trkpt lat="43.27354169273968" lon="11.543864931430004"><ele>232.0</ele><time>2026-04-11T03:35:24.999Z</time></trkpt><trkpt lat="43.27349166539497" lon="11.543944746901083"><ele>232.00000000000003</ele><time>2026-04-11T03:35:28.999Z</time></trkpt><trkpt lat="43.273444907065354" lon="11.544009187396528"><ele>232.00000000000003</ele><time>2026-04-11T03:35:32.999Z</time></trkpt><trkpt lat="43.27338462007891" lon="11.544081828514729"><ele>233.33333333333331</ele><time>2026-04-11T03:35:36.999Z</time></trkpt><trkpt lat="43.2733410422522" lon="11.54414469968055"><ele>234.66666666666666</ele><time>2026-04-11T03:35:40.999Z</time></trkpt><trkpt lat="43.273293404680956" lon="11.54422320792308"><ele>236.0</ele><time>2026-04-11T03:35:44.999Z</time></trkpt><trkpt lat="43.27324926098172" lon="11.544299870850235"><ele>237.33333333333331</ele><time>2026-04-11T03:35:48.999Z</time></trkpt><trkpt lat="43.27321397092079" lon="11.54439546186018"><ele>238.66666666666666</ele><time>2026-04-11T03:35:52.999Z</time></trkpt><trkpt lat="43.27318970884606" lon="11.54449468816851"><ele>240.0</ele><time>2026-04-11T03:35:56.999Z</time></trkpt><trkpt lat="43.273175586330076" lon="11.544613879733209"><ele>240.71428571428572</ele><time>2026-04-11T03:36:00.999Z</time></trkpt><trkpt lat="43.273168995060765" lon="11.544701251512578"><ele>241.42857142857142</ele><time>2026-04-11T03:36:03.998Z</time></trkpt><trkpt lat="43.27316448369274" lon="11.544789558547006"><ele>242.14285714285714</ele><time>2026-04-11T03:36:06.998Z</time></trkpt><trkpt lat="43.27316563648854" lon="11.544900213899433"><ele>242.85714285714286</ele><time>2026-04-11T03:36:10.998Z</time></trkpt><trkpt lat="43.273159197573605" lon="11.544991290045772"><ele>243.57142857142856</ele><time>2026-04-11T03:36:13.998Z</time></trkpt><trkpt lat="43.27315760630674" lon="11.545084588681457"><ele>244.28571428571428</ele><time>2026-04-11T03:36:17Z</time></trkpt><trkpt lat="43.27314818196317" lon="11.54519570285305"><ele>245.0</ele><time>2026-04-11T03:36:20Z</time></trkpt><trkpt lat="43.27314054981774" lon="11.54528863475493"><ele>246.0</ele><time>2026-04-11T03:36:23Z</time></trkpt><trkpt lat="43.27313331711165" lon="11.545381504908828"><ele>247.0</ele><time>2026-04-11T03:36:26Z</time></trkpt><trkpt lat="43.273132501754525" lon="11.545473568165795"><ele>248.0</ele><time>2026-04-11T03:36:29Z</time></trkpt><trkpt lat="43.27313163177393" lon="11.545568463807742"><ele>249.0</ele><time>2026-04-11T03:36:32Z</time></trkpt><trkpt lat="43.273134458578554" lon="11.545662223870803"><ele>250.0</ele><time>2026-04-11T03:36:35Z</time></trkpt><trkpt lat="43.273139011780174" lon="11.545756698235943"><ele>251.0</ele><time>2026-04-11T03:36:38Z</time></trkpt><trkpt lat="43.27315138846659" lon="11.545844731268618"><ele>252.0</ele><time>2026-04-11T03:36:41Z</time></trkpt><trkpt lat="43.273169641607886" lon="11.545930900700153"><ele>252.0</ele><time>2026-04-11T03:36:44Z</time></trkpt><trkpt lat="43.27318414773289" lon="11.546017671775637"><ele>252.0</ele><time>2026-04-11T03:36:47Z</time></trkpt><trkpt lat="43.27320522704553" lon="11.546100088332972"><ele>252.0</ele><time>2026-04-11T03:36:50Z</time></trkpt><trkpt lat="43.273231455436" lon="11.546207639733392"><ele>252.0</ele><time>2026-04-11T03:36:54Z</time></trkpt><trkpt lat="43.27325497000163" lon="11.546313995317659"><ele>252.0</ele><time>2026-04-11T03:36:58Z</time></trkpt><trkpt lat="43.273295188292984" lon="11.54641280667114"><ele>252.0</ele><time>2026-04-11T03:37:02Z</time></trkpt><trkpt lat="43.273320625436405" lon="11.546495198338695"><ele>252.0</ele><time>2026-04-11T03:37:05Z</time></trkpt><trkpt lat="43.27335483333119" lon="11.546586208636743"><ele>253.28571428571428</ele><time>2026-04-11T03:37:09Z</time></trkpt><trkpt lat="43.273384397788014" lon="11.546662650300549"><ele>254.57142857142856</ele><time>2026-04-11T03:37:12Z</time></trkpt><trkpt lat="43.27342162858349" lon="11.546748484962054"><ele>255.85714285714286</ele><time>2026-04-11T03:37:15Z</time></trkpt><trkpt lat="43.27347297781383" lon="11.546836863985295"><ele>257.1428571428571</ele><time>2026-04-11T03:37:19Z</time></trkpt><trkpt lat="43.27352079763416" lon="11.546901146004902"><ele>258.42857142857144</ele><time>2026-04-11T03:37:21.999Z</time></trkpt><trkpt lat="43.27356762804733" lon="11.54696363945087"><ele>259.7142857142857</ele><time>2026-04-11T03:37:24.999Z</time></trkpt><trkpt lat="43.27363231679281" lon="11.547015997318185"><ele>261.0</ele><time>2026-04-11T03:37:28.999Z</time></trkpt><trkpt lat="43.273703319058775" lon="11.547062684030479"><ele>262.0</ele><time>2026-04-11T03:37:31.999Z</time></trkpt><trkpt lat="43.2737674221165" lon="11.547078333770735"><ele>263.0</ele><time>2026-04-11T03:37:34.999Z</time></trkpt><trkpt lat="43.27384336723699" lon="11.547098065942636"><ele>264.0</ele><time>2026-04-11T03:37:38.999Z</time></trkpt><trkpt lat="43.273915966605124" lon="11.547095357122632"><ele>265.0</ele><time>2026-04-11T03:37:42.999Z</time></trkpt><trkpt lat="43.27398975472058" lon="11.547088398408684"><ele>266.0</ele><time>2026-04-11T03:37:46.999Z</time></trkpt><trkpt lat="43.27407107419958" lon="11.547091337384881"><ele>267.0</ele><time>2026-04-11T03:37:51.999Z</time></trkpt><trkpt lat="43.274142556886986" lon="11.547095060328793"><ele>268.0</ele><time>2026-04-11T03:37:55.999Z</time></trkpt><trkpt lat="43.27422701391263" lon="11.547095106680752"><ele>269.57142857142856</ele><time>2026-04-11T03:37:59.999Z</time></trkpt><trkpt lat="43.274294627400266" lon="11.54708399936762"><ele>271.1428571428571</ele><time>2026-04-11T03:38:03.999Z</time></trkpt><trkpt lat="43.27437735496791" lon="11.547062115765629"><ele>272.71428571428567</ele><time>2026-04-11T03:38:07.999Z</time></trkpt><trkpt lat="43.27444026481921" lon="11.547051077020267"><ele>274.2857142857143</ele><time>2026-04-11T03:38:11.999Z</time></trkpt><trkpt lat="43.27452085381889" lon="11.547048689844454"><ele>275.85714285714283</ele><time>2026-04-11T03:38:15.998Z</time></trkpt><trkpt lat="43.27458404862516" lon="11.547064565196074"><ele>277.4285714285714</ele><time>2026-04-11T03:38:19.998Z</time></trkpt><trkpt lat="43.274658046632055" lon="11.547103848641688"><ele>279.0</ele><time>2026-04-11T03:38:24.001Z</time></trkpt><trkpt lat="43.27471517537316" lon="11.547141723681028"><ele>279.99999999999994</ele><time>2026-04-11T03:38:28.001Z</time></trkpt><trkpt lat="43.27477909024993" lon="11.54719212750184"><ele>281.0</ele><time>2026-04-11T03:38:32.001Z</time></trkpt><trkpt lat="43.27484307518633" lon="11.547246037841361"><ele>282.0</ele><time>2026-04-11T03:38:36.001Z</time></trkpt><trkpt lat="43.27490490329009" lon="11.547294774903122"><ele>283.0</ele><time>2026-04-11T03:38:40Z</time></trkpt><trkpt lat="43.274969731340335" lon="11.5473403855387"><ele>284.0</ele><time>2026-04-11T03:38:44Z</time></trkpt><trkpt lat="43.27502404074777" lon="11.547389551476154"><ele>284.99999999999994</ele><time>2026-04-11T03:38:48Z</time></trkpt><trkpt lat="43.27509287101072" lon="11.547447216168287"><ele>286.0</ele><time>2026-04-11T03:38:53Z</time></trkpt><trkpt lat="43.27514907236097" lon="11.547494905565038"><ele>286.0</ele><time>2026-04-11T03:38:57Z</time></trkpt><trkpt lat="43.275212486205994" lon="11.547550937768834"><ele>286.0</ele><time>2026-04-11T03:39:01Z</time></trkpt><trkpt lat="43.2752823589114" lon="11.547608369020491"><ele>286.0</ele><time>2026-04-11T03:39:06Z</time></trkpt><trkpt lat="43.27534114376219" lon="11.547657466786731"><ele>286.0</ele><time>2026-04-11T03:39:10Z</time></trkpt><trkpt lat="43.27540231574872" lon="11.54771048321578"><ele>286.0</ele><time>2026-04-11T03:39:14Z</time></trkpt><trkpt lat="43.27546761382898" lon="11.547787072475481"><ele>286.0</ele><time>2026-04-11T03:39:18Z</time></trkpt><trkpt lat="43.27552462944384" lon="11.547837954724628"><ele>288.1428571428571</ele><time>2026-04-11T03:39:22Z</time></trkpt><trkpt lat="43.2756103328694" lon="11.547887675522073"><ele>290.2857142857143</ele><time>2026-04-11T03:39:26Z</time></trkpt><trkpt lat="43.27566774179083" lon="11.547924143301763"><ele>292.42857142857144</ele><time>2026-04-11T03:39:28.999Z</time></trkpt><trkpt lat="43.27572773593312" lon="11.547959665469811"><ele>294.57142857142856</ele><time>2026-04-11T03:39:31.999Z</time></trkpt><trkpt lat="43.27578792125286" lon="11.54799101768338"><ele>296.7142857142857</ele><time>2026-04-11T03:39:34.999Z</time></trkpt><trkpt lat="43.27584824892677" lon="11.548021003277526"><ele>298.85714285714283</ele><time>2026-04-11T03:39:36.999Z</time></trkpt><trkpt lat="43.27591061411392" lon="11.54805593669822"><ele>301.0</ele><time>2026-04-11T03:39:39.999Z</time></trkpt><trkpt lat="43.275973138385986" lon="11.548081790506894"><ele>301.0</ele><time>2026-04-11T03:39:42.999Z</time></trkpt><trkpt lat="43.27603424788057" lon="11.548113653482606"><ele>301.0</ele><time>2026-04-11T03:39:45.999Z</time></trkpt><trkpt lat="43.276101923567744" lon="11.548133586116215"><ele>301.0</ele><time>2026-04-11T03:39:48.999Z</time></trkpt><trkpt lat="43.27616703066816" lon="11.548153385633464"><ele>301.0</ele><time>2026-04-11T03:39:51.999Z</time></trkpt><trkpt lat="43.27623302680552" lon="11.548168898818023"><ele>301.0</ele><time>2026-04-11T03:39:54.999Z</time></trkpt><trkpt lat="43.27630909877339" lon="11.548194202298793"><ele>301.0</ele><time>2026-04-11T03:39:58.999Z</time></trkpt><trkpt lat="43.27637671053562" lon="11.548222023534006"><ele>301.0</ele><time>2026-04-11T03:40:01.999Z</time></trkpt><trkpt lat="43.2764612043323" lon="11.548264112619941"><ele>299.8333333333333</ele><time>2026-04-11T03:40:05.999Z</time></trkpt><trkpt lat="43.27654842132126" lon="11.548305196272544"><ele>298.66666666666663</ele><time>2026-04-11T03:40:08.999Z</time></trkpt><trkpt lat="43.27660729330313" lon="11.548339320107987"><ele>297.5</ele><time>2026-04-11T03:40:10.999Z</time></trkpt><trkpt lat="43.27666529957627" lon="11.548382392446317"><ele>296.3333333333333</ele><time>2026-04-11T03:40:12.999Z</time></trkpt><trkpt lat="43.276738941704394" lon="11.548445557514228"><ele>295.1666666666667</ele><time>2026-04-11T03:40:15.999Z</time></trkpt><trkpt lat="43.27681878891436" lon="11.548511033281741"><ele>294.0</ele><time>2026-04-11T03:40:18.999Z</time></trkpt><trkpt lat="43.276881057875755" lon="11.548574804310746"><ele>294.0</ele><time>2026-04-11T03:40:20.998Z</time></trkpt><trkpt lat="43.27693832355471" lon="11.548630782088182"><ele>294.0</ele><time>2026-04-11T03:40:22.998Z</time></trkpt><trkpt lat="43.27700277909383" lon="11.548703643284773"><ele>294.0</ele><time>2026-04-11T03:40:24.998Z</time></trkpt><trkpt lat="43.277079385670454" lon="11.548777277796999"><ele>294.0</ele><time>2026-04-11T03:40:27.001Z</time></trkpt><trkpt lat="43.27715790229748" lon="11.548844771482754"><ele>294.0</ele><time>2026-04-11T03:40:29.001Z</time></trkpt><trkpt lat="43.27722816337442" lon="11.548906251179833"><ele>294.0</ele><time>2026-04-11T03:40:31.001Z</time></trkpt><trkpt lat="43.27731046791659" lon="11.548966819888879"><ele>293.0</ele><time>2026-04-11T03:40:33.001Z</time></trkpt><trkpt lat="43.27738210251544" lon="11.549028820741032"><ele>292.0</ele><time>2026-04-11T03:40:35.001Z</time></trkpt><trkpt lat="43.277450031845675" lon="11.549088220449129"><ele>291.0</ele><time>2026-04-11T03:40:37.001Z</time></trkpt><trkpt lat="43.27753695343995" lon="11.549158376186906"><ele>290.0</ele><time>2026-04-11T03:40:39.001Z</time></trkpt><trkpt lat="43.27761353729825" lon="11.549227866126614"><ele>289.0</ele><time>2026-04-11T03:40:41.001Z</time></trkpt><trkpt lat="43.27770405075385" lon="11.549308075501505"><ele>289.0</ele><time>2026-04-11T03:40:43.001Z</time></trkpt><trkpt lat="43.277761680082776" lon="11.549348519241667"><ele>289.0</ele><time>2026-04-11T03:40:44.001Z</time></trkpt><trkpt lat="43.27782711721486" lon="11.549385063501934"><ele>289.0</ele><time>2026-04-11T03:40:45Z</time></trkpt><trkpt lat="43.27789200347193" lon="11.549431360683531"><ele>289.0</ele><time>2026-04-11T03:40:46Z</time></trkpt><trkpt lat="43.27796362303519" lon="11.549417956920246"><ele>289.0</ele><time>2026-04-11T03:40:47Z</time></trkpt><trkpt lat="43.27802427476428" lon="11.54944341474736"><ele>289.0</ele><time>2026-04-11T03:40:48Z</time></trkpt><trkpt lat="43.27814269635326" lon="11.549445743844505"><ele>286.5</ele><time>2026-04-11T03:40:50Z</time></trkpt><trkpt lat="43.278269531975596" lon="11.549447256872112"><ele>284.0</ele><time>2026-04-11T03:40:52Z</time></trkpt><trkpt lat="43.278340360152676" lon="11.54944810178413"><ele>281.5</ele><time>2026-04-11T03:40:53Z</time></trkpt><trkpt lat="43.2784124660035" lon="11.549448961933637"><ele>279.0</ele><time>2026-04-11T03:40:54Z</time></trkpt><trkpt lat="43.27848315978897" lon="11.549451087753916"><ele>276.5</ele><time>2026-04-11T03:40:55Z</time></trkpt><trkpt lat="43.27855221722023" lon="11.549453061667197"><ele>274.0</ele><time>2026-04-11T03:40:56Z</time></trkpt><trkpt lat="43.278619493184635" lon="11.549454984658619"><ele>274.0</ele><time>2026-04-11T03:40:57Z</time></trkpt><trkpt lat="43.278683633188514" lon="11.549458354939956"><ele>274.0</ele><time>2026-04-11T03:40:58Z</time></trkpt><trkpt lat="43.278750363809955" lon="11.549465754983263"><ele>274.0</ele><time>2026-04-11T03:40:59Z</time></trkpt><trkpt lat="43.2788194194775" lon="11.549480529885804"><ele>274.0</ele><time>2026-04-11T03:41:00Z</time></trkpt><trkpt lat="43.27888446158363" lon="11.549506089761348"><ele>274.0</ele><time>2026-04-11T03:41:01Z</time></trkpt><trkpt lat="43.27898985128678" lon="11.549570289446462"><ele>274.0</ele><time>2026-04-11T03:41:02.999Z</time></trkpt><trkpt lat="43.279097479641294" lon="11.549649607049489"><ele>273.66666666666663</ele><time>2026-04-11T03:41:04.999Z</time></trkpt><trkpt lat="43.279154235028045" lon="11.549691513742983"><ele>273.3333333333333</ele><time>2026-04-11T03:41:05.999Z</time></trkpt><trkpt lat="43.27926580102277" lon="11.549771494997007"><ele>273.0</ele><time>2026-04-11T03:41:07.999Z</time></trkpt><trkpt lat="43.27933025670686" lon="11.549816963040913"><ele>272.6666666666667</ele><time>2026-04-11T03:41:08.999Z</time></trkpt><trkpt lat="43.279401472588916" lon="11.549861187139093"><ele>272.33333333333337</ele><time>2026-04-11T03:41:09.999Z</time></trkpt><trkpt lat="43.279475425313045" lon="11.549898364708522"><ele>272.0</ele><time>2026-04-11T03:41:10.999Z</time></trkpt><trkpt lat="43.2795554090269" lon="11.549924383747047"><ele>272.0</ele><time>2026-04-11T03:41:11.999Z</time></trkpt><trkpt lat="43.27963064118953" lon="11.549941373259337"><ele>272.0</ele><time>2026-04-11T03:41:12.999Z</time></trkpt><trkpt lat="43.279703271919246" lon="11.549950491262738"><ele>272.0</ele><time>2026-04-11T03:41:13.999Z</time></trkpt><trkpt lat="43.27976795284015" lon="11.549948841317775"><ele>272.0</ele><time>2026-04-11T03:41:14.999Z</time></trkpt><trkpt lat="43.279873484598504" lon="11.549942320558344"><ele>272.0</ele><time>2026-04-11T03:41:16.999Z</time></trkpt><trkpt lat="43.27997584659881" lon="11.549923279932932"><ele>272.0</ele><time>2026-04-11T03:41:18.999Z</time></trkpt><trkpt lat="43.2800859183762" lon="11.549885846865772"><ele>271.5</ele><time>2026-04-11T03:41:20.999Z</time></trkpt><trkpt lat="43.28019246928548" lon="11.54982813920179"><ele>271.0</ele><time>2026-04-11T03:41:22.999Z</time></trkpt><trkpt lat="43.28027350564618" lon="11.549781200798527"><ele>270.5</ele><time>2026-04-11T03:41:24.999Z</time></trkpt><trkpt lat="43.2803314696399" lon="11.549744903971995"><ele>270.0</ele><time>2026-04-11T03:41:26.999Z</time></trkpt><trkpt lat="43.28040868195998" lon="11.549692461112517"><ele>269.5</ele><time>2026-04-11T03:41:29.999Z</time></trkpt><trkpt lat="43.28048035304631" lon="11.549641356457643"><ele>269.0</ele><time>2026-04-11T03:41:32.999Z</time></trkpt><trkpt lat="43.28054349152028" lon="11.549591507466719"><ele>271.0</ele><time>2026-04-11T03:41:35.998Z</time></trkpt><trkpt lat="43.280607102924456" lon="11.549538460857407"><ele>273.0</ele><time>2026-04-11T03:41:38.998Z</time></trkpt><trkpt lat="43.28066721337733" lon="11.549477639604257"><ele>275.0</ele><time>2026-04-11T03:41:41.998Z</time></trkpt><trkpt lat="43.28071386950236" lon="11.549375240870287"><ele>277.0</ele><time>2026-04-11T03:41:45.998Z</time></trkpt><trkpt lat="43.28076408604461" lon="11.549301974234467"><ele>279.0</ele><time>2026-04-11T03:41:49.998Z</time></trkpt><trkpt lat="43.280796851654834" lon="11.549214954095024"><ele>281.0</ele><time>2026-04-11T03:41:53.998Z</time></trkpt><trkpt lat="43.28084073444202" lon="11.549140498843965"><ele>281.0</ele><time>2026-04-11T03:41:57.998Z</time></trkpt><trkpt lat="43.28088570863074" lon="11.549054234160106"><ele>281.0</ele><time>2026-04-11T03:42:02.998Z</time></trkpt><trkpt lat="43.28093834738338" lon="11.548974522374724"><ele>281.0</ele><time>2026-04-11T03:42:07.998Z</time></trkpt><trkpt lat="43.280987394804214" lon="11.548892776391023"><ele>281.0</ele><time>2026-04-11T03:42:12.998Z</time></trkpt><trkpt lat="43.2810427313611" lon="11.5488303386573"><ele>281.0</ele><time>2026-04-11T03:42:16.998Z</time></trkpt><trkpt lat="43.28109108571316" lon="11.548754081000713"><ele>281.0</ele><time>2026-04-11T03:42:20.998Z</time></trkpt><trkpt lat="43.281147252425505" lon="11.548692099583985"><ele>280.83333333333337</ele><time>2026-04-11T03:42:23.998Z</time></trkpt><trkpt lat="43.281206244040185" lon="11.54863181432856"><ele>280.6666666666667</ele><time>2026-04-11T03:42:27.997Z</time></trkpt><trkpt lat="43.28127017799374" lon="11.548569501298065"><ele>280.5</ele><time>2026-04-11T03:42:31.997Z</time></trkpt><trkpt lat="43.28133408172461" lon="11.54850353662624"><ele>280.3333333333333</ele><time>2026-04-11T03:42:36Z</time></trkpt><trkpt lat="43.2813919832219" lon="11.548440256661504"><ele>280.16666666666663</ele><time>2026-04-11T03:42:40Z</time></trkpt><trkpt lat="43.281449731860626" lon="11.548370778862385"><ele>280.0</ele><time>2026-04-11T03:42:43Z</time></trkpt><trkpt lat="43.28150968503084" lon="11.54831791569239"><ele>283.0</ele><time>2026-04-11T03:42:47Z</time></trkpt><trkpt lat="43.281558322237096" lon="11.548261771216918"><ele>286.0</ele><time>2026-04-11T03:42:50Z</time></trkpt><trkpt lat="43.281613307334915" lon="11.548213888342264"><ele>289.0</ele><time>2026-04-11T03:42:52.999Z</time></trkpt><trkpt lat="43.2816733620977" lon="11.548162028327937"><ele>292.0</ele><time>2026-04-11T03:42:56.999Z</time></trkpt><trkpt lat="43.28175101042374" lon="11.548123271714152"><ele>295.0</ele><time>2026-04-11T03:43:00.999Z</time></trkpt><trkpt lat="43.28181964390715" lon="11.548121780510899"><ele>298.0</ele><time>2026-04-11T03:43:03.999Z</time></trkpt><trkpt lat="43.28189948587365" lon="11.548126211472432"><ele>301.0</ele><time>2026-04-11T03:43:07.999Z</time></trkpt><trkpt lat="43.28196724162104" lon="11.548134839396358"><ele>301.0</ele><time>2026-04-11T03:43:10.999Z</time></trkpt><trkpt lat="43.282047281744944" lon="11.5481429520847"><ele>301.0</ele><time>2026-04-11T03:43:14.999Z</time></trkpt><trkpt lat="43.28211202567157" lon="11.548132359494407"><ele>301.0</ele><time>2026-04-11T03:43:17.999Z</time></trkpt><trkpt lat="43.28217899487028" lon="11.54812611564442"><ele>301.0</ele><time>2026-04-11T03:43:18.999Z</time></trkpt><trkpt lat="43.28226375542859" lon="11.548134455203465"><ele>301.0</ele><time>2026-04-11T03:43:20.999Z</time></trkpt><trkpt lat="43.28235774237606" lon="11.548142487897959"><ele>301.0</ele><time>2026-04-11T03:43:22.999Z</time></trkpt><trkpt lat="43.28245996588387" lon="11.548148158257222"><ele>302.75</ele><time>2026-04-11T03:43:24.999Z</time></trkpt><trkpt lat="43.28256685511654" lon="11.548161463603524"><ele>304.5</ele><time>2026-04-11T03:43:26.999Z</time></trkpt><trkpt lat="43.28267726870102" lon="11.548189786387102"><ele>306.25</ele><time>2026-04-11T03:43:28.999Z</time></trkpt><trkpt lat="43.28279034232436" lon="11.548239961784468"><ele>308.0</ele><time>2026-04-11T03:43:30.999Z</time></trkpt><trkpt lat="43.28289784704894" lon="11.548298472936827"><ele>308.0</ele><time>2026-04-11T03:43:32.999Z</time></trkpt><trkpt lat="43.283000279355164" lon="11.548366591653314"><ele>308.0</ele><time>2026-04-11T03:43:34.999Z</time></trkpt><trkpt lat="43.2830951380488" lon="11.548444913863383"><ele>308.0</ele><time>2026-04-11T03:43:36.999Z</time></trkpt><trkpt lat="43.28317840772434" lon="11.54852163577298"><ele>308.0</ele><time>2026-04-11T03:43:38.999Z</time></trkpt><trkpt lat="43.283261984201694" lon="11.548595525620783"><ele>308.0</ele><time>2026-04-11T03:43:40.999Z</time></trkpt><trkpt lat="43.28334451834767" lon="11.548655623180798"><ele>309.6</ele><time>2026-04-11T03:43:42.998Z</time></trkpt><trkpt lat="43.28343438389075" lon="11.548704451589106"><ele>311.20000000000005</ele><time>2026-04-11T03:43:44.998Z</time></trkpt><trkpt lat="43.28352928010235" lon="11.54874167538399"><ele>312.8</ele><time>2026-04-11T03:43:46.998Z</time></trkpt><trkpt lat="43.28362374098059" lon="11.548804704732193"><ele>314.40000000000003</ele><time>2026-04-11T03:43:48.998Z</time></trkpt><trkpt lat="43.28373043692998" lon="11.548837764502482"><ele>316.0</ele><time>2026-04-11T03:43:50.998Z</time></trkpt><trkpt lat="43.28384697174425" lon="11.548852357299824"><ele>311.25</ele><time>2026-04-11T03:43:52.998Z</time></trkpt><trkpt lat="43.283965818949625" lon="11.548840620243938"><ele>306.5</ele><time>2026-04-11T03:43:54.998Z</time></trkpt><trkpt lat="43.28407641219377" lon="11.548825467400468"><ele>301.75</ele><time>2026-04-11T03:43:56.998Z</time></trkpt><trkpt lat="43.284188730948216" lon="11.54879710972695"><ele>297.0</ele><time>2026-04-11T03:43:58.998Z</time></trkpt><trkpt lat="43.28428914641351" lon="11.548708385499138"><ele>296.6</ele><time>2026-04-11T03:44:00.998Z</time></trkpt><trkpt lat="43.284350770346784" lon="11.548573398102551"><ele>296.2</ele><time>2026-04-11T03:44:02.998Z</time></trkpt><trkpt lat="43.284424884544165" lon="11.5484553466822"><ele>295.8</ele><time>2026-04-11T03:44:04.998Z</time></trkpt><trkpt lat="43.28447779572837" lon="11.54832744539319"><ele>295.4</ele><time>2026-04-11T03:44:06.998Z</time></trkpt><trkpt lat="43.28452568077967" lon="11.548207541095934"><ele>295.0</ele><time>2026-04-11T03:44:08.998Z</time></trkpt><trkpt lat="43.284569377676604" lon="11.548095089637183"><ele>295.0</ele><time>2026-04-11T03:44:10.998Z</time></trkpt><trkpt lat="43.28462288815806" lon="11.547950185796108"><ele>295.0</ele><time>2026-04-11T03:44:13.998Z</time></trkpt><trkpt lat="43.28466314925086" lon="11.547834770043753"><ele>295.0</ele><time>2026-04-11T03:44:15.998Z</time></trkpt><trkpt lat="43.284690597673276" lon="11.547747859650919"><ele>295.0</ele><time>2026-04-11T03:44:17.998Z</time></trkpt><trkpt lat="43.28471240458878" lon="11.547659640241095"><ele>295.0</ele><time>2026-04-11T03:44:19.998Z</time></trkpt><trkpt lat="43.28472738934414" lon="11.547563459632345"><ele>295.0</ele><time>2026-04-11T03:44:22.998Z</time></trkpt><trkpt lat="43.284718733931996" lon="11.54745268159532"><ele>293.3333333333333</ele><time>2026-04-11T03:44:25.998Z</time></trkpt><trkpt lat="43.284718291805135" lon="11.547357052288593"><ele>291.66666666666663</ele><time>2026-04-11T03:44:28.998Z</time></trkpt><trkpt lat="43.284754229784255" lon="11.547214550927347"><ele>290.0</ele><time>2026-04-11T03:44:29.998Z</time></trkpt><trkpt lat="43.284769424738826" lon="11.547099625970818"><ele>288.3333333333333</ele><time>2026-04-11T03:44:32.998Z</time></trkpt><trkpt lat="43.28476583053474" lon="11.54699311192447"><ele>286.6666666666667</ele><time>2026-04-11T03:44:38Z</time></trkpt><trkpt lat="43.284824987154735" lon="11.546896194918917"><ele>285.0</ele><time>2026-04-11T03:44:42Z</time></trkpt><trkpt lat="43.28486430222743" lon="11.546823102373203"><ele>289.1666666666667</ele><time>2026-04-11T03:44:45Z</time></trkpt><trkpt lat="43.284912220550154" lon="11.546763743729501"><ele>293.3333333333333</ele><time>2026-04-11T03:44:48Z</time></trkpt><trkpt lat="43.284970130836825" lon="11.546695722314055"><ele>297.5</ele><time>2026-04-11T03:44:51Z</time></trkpt><trkpt lat="43.285052616311326" lon="11.546622089516815"><ele>301.66666666666663</ele><time>2026-04-11T03:44:55Z</time></trkpt><trkpt lat="43.2851539515333" lon="11.546585771932605"><ele>305.8333333333333</ele><time>2026-04-11T03:44:58.999Z</time></trkpt><trkpt lat="43.285226682499776" lon="11.546546066514502"><ele>310.0</ele><time>2026-04-11T03:45:01.999Z</time></trkpt><trkpt lat="43.28528947335648" lon="11.546514740291126"><ele>310.0</ele><time>2026-04-11T03:45:04.999Z</time></trkpt><trkpt lat="43.28535719626526" lon="11.546484931013955"><ele>310.0</ele><time>2026-04-11T03:45:06.999Z</time></trkpt><trkpt lat="43.285436501015496" lon="11.546450547158562"><ele>310.0</ele><time>2026-04-11T03:45:09.999Z</time></trkpt><trkpt lat="43.28551944424474" lon="11.546407125833772"><ele>310.0</ele><time>2026-04-11T03:45:13.999Z</time></trkpt><trkpt lat="43.285597117456035" lon="11.546363474871642"><ele>310.0</ele><time>2026-04-11T03:45:16.999Z</time></trkpt><trkpt lat="43.28567667976859" lon="11.546308929583674"><ele>310.0</ele><time>2026-04-11T03:45:19.999Z</time></trkpt><trkpt lat="43.28573090237995" lon="11.546262992650295"><ele>310.8</ele><time>2026-04-11T03:45:21.999Z</time></trkpt><trkpt lat="43.28582681986975" lon="11.546161663435079"><ele>311.6</ele><time>2026-04-11T03:45:24.999Z</time></trkpt><trkpt lat="43.28594831597066" lon="11.546115733487213"><ele>312.4</ele><time>2026-04-11T03:45:25.999Z</time></trkpt><trkpt lat="43.28602764859288" lon="11.546044401344474"><ele>313.2</ele><time>2026-04-11T03:45:27.999Z</time></trkpt><trkpt lat="43.28609951564579" lon="11.545995987358253"><ele>314.0</ele><time>2026-04-11T03:45:29.999Z</time></trkpt><trkpt lat="43.28617956360226" lon="11.545947189027594"><ele>314.0</ele><time>2026-04-11T03:45:31.999Z</time></trkpt><trkpt lat="43.28627086619297" lon="11.545910252664978"><ele>314.0</ele><time>2026-04-11T03:45:33.999Z</time></trkpt><trkpt lat="43.286368773865306" lon="11.54589901840945"><ele>314.0</ele><time>2026-04-11T03:45:35.999Z</time></trkpt><trkpt lat="43.286464278420034" lon="11.545909175211927"><ele>314.0</ele><time>2026-04-11T03:45:37.999Z</time></trkpt><trkpt lat="43.28654288413264" lon="11.54593439204117"><ele>314.0</ele><time>2026-04-11T03:45:39.999Z</time></trkpt><trkpt lat="43.28662210964548" lon="11.545982211423022"><ele>313.59999999999997</ele><time>2026-04-11T03:45:41.999Z</time></trkpt><trkpt lat="43.286705793568125" lon="11.546049833933905"><ele>313.2</ele><time>2026-04-11T03:45:43.999Z</time></trkpt><trkpt lat="43.28676009395292" lon="11.546136441887148"><ele>312.79999999999995</ele><time>2026-04-11T03:45:45.999Z</time></trkpt><trkpt lat="43.28685229777186" lon="11.54617434801604"><ele>312.4</ele><time>2026-04-11T03:45:47.999Z</time></trkpt><trkpt lat="43.28692296847251" lon="11.546154802660743"><ele>312.0</ele><time>2026-04-11T03:45:48.999Z</time></trkpt><trkpt lat="43.28703224800169" lon="11.546135838471017"><ele>312.0</ele><time>2026-04-11T03:45:50.998Z</time></trkpt><trkpt lat="43.28714818678227" lon="11.546098787103007"><ele>312.0</ele><time>2026-04-11T03:45:52.998Z</time></trkpt><trkpt lat="43.287189035146284" lon="11.54603079141272"><ele>312.0</ele><time>2026-04-11T03:45:53.998Z</time></trkpt><trkpt lat="43.28725257040608" lon="11.545902747689155"><ele>312.0</ele><time>2026-04-11T03:45:55.998Z</time></trkpt><trkpt lat="43.287273355419984" lon="11.54581373942649"><ele>312.0</ele><time>2026-04-11T03:45:56.998Z</time></trkpt><trkpt lat="43.28729217812818" lon="11.545719027448259"><ele>312.0</ele><time>2026-04-11T03:45:57.998Z</time></trkpt><trkpt lat="43.28730491710462" lon="11.54562412576527"><ele>310.1666666666667</ele><time>2026-04-11T03:45:58.998Z</time></trkpt><trkpt lat="43.28732268309377" lon="11.545530144270048"><ele>308.3333333333333</ele><time>2026-04-11T03:45:59.998Z</time></trkpt><trkpt lat="43.287344612617616" lon="11.545434677067313"><ele>306.5</ele><time>2026-04-11T03:46:00.998Z</time></trkpt><trkpt lat="43.2873581959047" lon="11.545337491660222"><ele>304.66666666666663</ele><time>2026-04-11T03:46:01.998Z</time></trkpt><trkpt lat="43.28736476919723" lon="11.545241644017352"><ele>302.8333333333333</ele><time>2026-04-11T03:46:02.998Z</time></trkpt><trkpt lat="43.28737011642713" lon="11.545079167688364"><ele>301.0</ele><time>2026-04-11T03:46:04.998Z</time></trkpt><trkpt lat="43.287369461829925" lon="11.544926886809133"><ele>301.0</ele><time>2026-04-11T03:46:06.998Z</time></trkpt><trkpt lat="43.287385788203345" lon="11.544773698348312"><ele>301.0</ele><time>2026-04-11T03:46:08.998Z</time></trkpt><trkpt lat="43.287424013558955" lon="11.544632346511683"><ele>301.0</ele><time>2026-04-11T03:46:10.998Z</time></trkpt><trkpt lat="43.28745606700015" lon="11.544494820992204"><ele>301.0</ele><time>2026-04-11T03:46:12.998Z</time></trkpt><trkpt lat="43.28749301391656" lon="11.544359246096388"><ele>301.0</ele><time>2026-04-11T03:46:14.998Z</time></trkpt><trkpt lat="43.28753711726896" lon="11.544223535887996"><ele>300.5</ele><time>2026-04-11T03:46:16.998Z</time></trkpt><trkpt lat="43.287584819492196" lon="11.544083530883265"><ele>300.0</ele><time>2026-04-11T03:46:18.998Z</time></trkpt><trkpt lat="43.287624179059506" lon="11.543942265689825"><ele>299.5</ele><time>2026-04-11T03:46:20.998Z</time></trkpt><trkpt lat="43.287643919136656" lon="11.543785336492336"><ele>299.0</ele><time>2026-04-11T03:46:22.998Z</time></trkpt><trkpt lat="43.287637785747094" lon="11.543618588590205"><ele>297.75</ele><time>2026-04-11T03:46:24.998Z</time></trkpt><trkpt lat="43.28762709835276" lon="11.543454653701685"><ele>296.5</ele><time>2026-04-11T03:46:26.998Z</time></trkpt><trkpt lat="43.28764168099121" lon="11.543291041062313"><ele>295.25</ele><time>2026-04-11T03:46:28.998Z</time></trkpt><trkpt lat="43.287678204995444" lon="11.543127324344349"><ele>294.0</ele><time>2026-04-11T03:46:30.998Z</time></trkpt><trkpt lat="43.2877132231694" lon="11.542981442680635"><ele>292.0</ele><time>2026-04-11T03:46:32.998Z</time></trkpt><trkpt lat="43.28774505415289" lon="11.542853313169582"><ele>290.0</ele><time>2026-04-11T03:46:34.998Z</time></trkpt><trkpt lat="43.28777519374649" lon="11.542745001458567"><ele>288.0</ele><time>2026-04-11T03:46:36.998Z</time></trkpt><trkpt lat="43.28780498401134" lon="11.542655700409926"><ele>286.0</ele><time>2026-04-11T03:46:38.998Z</time></trkpt><trkpt lat="43.28783639338025" lon="11.542580342133235"><ele>284.0</ele><time>2026-04-11T03:46:40.997Z</time></trkpt><trkpt lat="43.2878934774656" lon="11.542483627251144"><ele>282.0</ele><time>2026-04-11T03:46:44Z</time></trkpt><trkpt lat="43.287935533982655" lon="11.542410972690758"><ele>282.0</ele><time>2026-04-11T03:46:46Z</time></trkpt><trkpt lat="43.28797663129832" lon="11.542338114010859"><ele>282.0</ele><time>2026-04-11T03:46:48Z</time></trkpt><trkpt lat="43.28798633638323" lon="11.542231150818761"><ele>282.0</ele><time>2026-04-11T03:46:50Z</time></trkpt><trkpt lat="43.28802684195202" lon="11.542157928724036"><ele>282.0</ele><time>2026-04-11T03:46:52Z</time></trkpt><trkpt lat="43.28806581568677" lon="11.54208465964452"><ele>282.0</ele><time>2026-04-11T03:46:54Z</time></trkpt><trkpt lat="43.28810592381069" lon="11.542011013088967"><ele>282.0</ele><time>2026-04-11T03:46:56Z</time></trkpt><trkpt lat="43.28814048171151" lon="11.541930910581348"><ele>282.0</ele><time>2026-04-11T03:46:58Z</time></trkpt><trkpt lat="43.28817314345424" lon="11.541850228929887"><ele>284.8571428571429</ele><time>2026-04-11T03:47:00Z</time></trkpt><trkpt lat="43.28820138004691" lon="11.541768573743989"><ele>287.7142857142857</ele><time>2026-04-11T03:47:02Z</time></trkpt><trkpt lat="43.28822909990828" lon="11.541686739502977"><ele>290.57142857142856</ele><time>2026-04-11T03:47:04Z</time></trkpt><trkpt lat="43.28825536242663" lon="11.541602019800466"><ele>293.42857142857144</ele><time>2026-04-11T03:47:05.999Z</time></trkpt><trkpt lat="43.28829046096112" lon="11.541523225169048"><ele>296.2857142857143</ele><time>2026-04-11T03:47:07.999Z</time></trkpt><trkpt lat="43.2883360292481" lon="11.541453176057603"><ele>299.14285714285717</ele><time>2026-04-11T03:47:09.999Z</time></trkpt><trkpt lat="43.28839093213348" lon="11.541393505780452"><ele>302.0</ele><time>2026-04-11T03:47:11.999Z</time></trkpt><trkpt lat="43.28845545773691" lon="11.541336201851367"><ele>302.0</ele><time>2026-04-11T03:47:13.999Z</time></trkpt><trkpt lat="43.288527659148954" lon="11.54128586486414"><ele>302.0</ele><time>2026-04-11T03:47:15.999Z</time></trkpt><trkpt lat="43.28859865065607" lon="11.541245797655414"><ele>302.0</ele><time>2026-04-11T03:47:17.999Z</time></trkpt><trkpt lat="43.28867333842335" lon="11.541216352361351"><ele>302.0</ele><time>2026-04-11T03:47:19.999Z</time></trkpt><trkpt lat="43.28874679825237" lon="11.541199279475848"><ele>302.0</ele><time>2026-04-11T03:47:21.999Z</time></trkpt><trkpt lat="43.2888201116216" lon="11.54118098742038"><ele>302.0</ele><time>2026-04-11T03:47:23.999Z</time></trkpt><trkpt lat="43.28889144536495" lon="11.541159192419466"><ele>302.00000000000006</ele><time>2026-04-11T03:47:25.999Z</time></trkpt><trkpt lat="43.288961172273076" lon="11.541139707787874"><ele>302.0</ele><time>2026-04-11T03:47:27.999Z</time></trkpt><trkpt lat="43.28902828136754" lon="11.541115445896937"><ele>302.0</ele><time>2026-04-11T03:47:29.999Z</time></trkpt><trkpt lat="43.28909654337966" lon="11.54109348759394"><ele>302.0</ele><time>2026-04-11T03:47:31.999Z</time></trkpt><trkpt lat="43.289164872041134" lon="11.541073713535656"><ele>302.0</ele><time>2026-04-11T03:47:33.999Z</time></trkpt><trkpt lat="43.28923475206421" lon="11.54105363842849"><ele>302.00000000000006</ele><time>2026-04-11T03:47:35.999Z</time></trkpt><trkpt lat="43.289306708771036" lon="11.541055764458642"><ele>302.0</ele><time>2026-04-11T03:47:37.999Z</time></trkpt><trkpt lat="43.28937493234257" lon="11.541072796561371"><ele>302.00000000000006</ele><time>2026-04-11T03:47:39.999Z</time></trkpt><trkpt lat="43.289446155483304" lon="11.54110006233725"><ele>302.0</ele><time>2026-04-11T03:47:41.999Z</time></trkpt><trkpt lat="43.289517790458994" lon="11.541117364341856"><ele>302.0</ele><time>2026-04-11T03:47:43.999Z</time></trkpt><trkpt lat="43.289588621295614" lon="11.541144786887314"><ele>302.0</ele><time>2026-04-11T03:47:45.999Z</time></trkpt><trkpt lat="43.28966012147229" lon="11.541171958078518"><ele>302.0</ele><time>2026-04-11T03:47:47.999Z</time></trkpt><trkpt lat="43.28972904644603" lon="11.54118825384885"><ele>302.00000000000006</ele><time>2026-04-11T03:47:49.999Z</time></trkpt><trkpt lat="43.28980267587542" lon="11.54119521099887"><ele>302.0</ele><time>2026-04-11T03:47:51.999Z</time></trkpt><trkpt lat="43.2899121564339" lon="11.541190526403591"><ele>302.0</ele><time>2026-04-11T03:47:54.999Z</time></trkpt><trkpt lat="43.28998069661183" lon="11.541182495113242"><ele>302.0</ele><time>2026-04-11T03:47:56.998Z</time></trkpt><trkpt lat="43.29006808169933" lon="11.541165138631474"><ele>302.0</ele><time>2026-04-11T03:47:59.998Z</time></trkpt><trkpt lat="43.29015090263874" lon="11.541160601052287"><ele>302.0</ele><time>2026-04-11T03:48:02.998Z</time></trkpt><trkpt lat="43.2902329047397" lon="11.541167115173387"><ele>302.0</ele><time>2026-04-11T03:48:05.998Z</time></trkpt><trkpt lat="43.29030663323923" lon="11.541180886178335"><ele>302.0</ele><time>2026-04-11T03:48:07.998Z</time></trkpt><trkpt lat="43.2903846323519" lon="11.541194981041402"><ele>303.6</ele><time>2026-04-11T03:48:09.998Z</time></trkpt><trkpt lat="43.29047366962453" lon="11.54122918395469"><ele>305.2</ele><time>2026-04-11T03:48:11.998Z</time></trkpt><trkpt lat="43.29056895764405" lon="11.541268692465449"><ele>306.8</ele><time>2026-04-11T03:48:13.998Z</time></trkpt><trkpt lat="43.29067130767782" lon="11.54131867602476"><ele>308.4</ele><time>2026-04-11T03:48:15.998Z</time></trkpt><trkpt lat="43.29077829402298" lon="11.541395641075278"><ele>310.0</ele><time>2026-04-11T03:48:17.998Z</time></trkpt><trkpt lat="43.29084170712" lon="11.54140919799407"><ele>310.0</ele><time>2026-04-11T03:48:18.998Z</time></trkpt><trkpt lat="43.29090468310138" lon="11.541406982114475"><ele>310.0</ele><time>2026-04-11T03:48:19.998Z</time></trkpt><trkpt lat="43.29096755637813" lon="11.541389675159914"><ele>310.0</ele><time>2026-04-11T03:48:20.998Z</time></trkpt><trkpt lat="43.29108064174537" lon="11.541330845155622"><ele>310.0</ele><time>2026-04-11T03:48:22.998Z</time></trkpt><trkpt lat="43.291161012635726" lon="11.541235083685024"><ele>310.0</ele><time>2026-04-11T03:48:24.998Z</time></trkpt><trkpt lat="43.291231728662076" lon="11.541179820376371"><ele>310.0</ele><time>2026-04-11T03:48:26.998Z</time></trkpt><trkpt lat="43.291283485890645" lon="11.541109252067146"><ele>309.0</ele><time>2026-04-11T03:48:28.998Z</time></trkpt><trkpt lat="43.29132829811646" lon="11.541013624148588"><ele>308.0</ele><time>2026-04-11T03:48:30.998Z</time></trkpt><trkpt lat="43.291366176559876" lon="11.540926857007879"><ele>307.0</ele><time>2026-04-11T03:48:32.998Z</time></trkpt><trkpt lat="43.291336326531805" lon="11.540842619526842"><ele>306.0</ele><time>2026-04-11T03:48:33.998Z</time></trkpt><trkpt lat="43.29133173867967" lon="11.540736715245176"><ele>305.0</ele><time>2026-04-11T03:48:35.998Z</time></trkpt><trkpt lat="43.29132729666263" lon="11.540634112728133"><ele>304.0</ele><time>2026-04-11T03:48:37.998Z</time></trkpt><trkpt lat="43.291320507804144" lon="11.540526895589087"><ele>304.0</ele><time>2026-04-11T03:48:39.998Z</time></trkpt><trkpt lat="43.291307900063074" lon="11.540423493595092"><ele>304.0</ele><time>2026-04-11T03:48:41.998Z</time></trkpt><trkpt lat="43.291309719318086" lon="11.540298540751984"><ele>304.0</ele><time>2026-04-11T03:48:44.998Z</time></trkpt><trkpt lat="43.29132001376929" lon="11.540175196072767"><ele>304.0</ele><time>2026-04-11T03:48:49Z</time></trkpt><trkpt lat="43.291331650803315" lon="11.540070340208233"><ele>304.0</ele><time>2026-04-11T03:48:51Z</time></trkpt><trkpt lat="43.291356611929636" lon="11.539968945659187"><ele>304.0</ele><time>2026-04-11T03:48:54Z</time></trkpt><trkpt lat="43.29138773775877" lon="11.5398665592552"><ele>303.66666666666663</ele><time>2026-04-11T03:48:57Z</time></trkpt><trkpt lat="43.291423474129076" lon="11.539756177930702"><ele>303.3333333333333</ele><time>2026-04-11T03:49:00Z</time></trkpt><trkpt lat="43.291448751285195" lon="11.539673091256327"><ele>303.0</ele><time>2026-04-11T03:49:03Z</time></trkpt><trkpt lat="43.2914823981345" lon="11.539583630968293"><ele>302.6666666666667</ele><time>2026-04-11T03:49:06Z</time></trkpt><trkpt lat="43.29151388733199" lon="11.539491691778712"><ele>302.33333333333337</ele><time>2026-04-11T03:49:09Z</time></trkpt><trkpt lat="43.29154788754463" lon="11.539392911917467"><ele>302.0</ele><time>2026-04-11T03:49:11.999Z</time></trkpt><trkpt lat="43.291583303126615" lon="11.539299630578613"><ele>304.5</ele><time>2026-04-11T03:49:14.999Z</time></trkpt><trkpt lat="43.2916186208844" lon="11.539205414424618"><ele>307.0</ele><time>2026-04-11T03:49:17.999Z</time></trkpt><trkpt lat="43.29166372415675" lon="11.539103700713262"><ele>309.5</ele><time>2026-04-11T03:49:20.999Z</time></trkpt><trkpt lat="43.291719886332686" lon="11.538987514365157"><ele>312.0</ele><time>2026-04-11T03:49:23.999Z</time></trkpt><trkpt lat="43.29176486224022" lon="11.53891936587743"><ele>314.5</ele><time>2026-04-11T03:49:26.999Z</time></trkpt><trkpt lat="43.29183211038924" lon="11.538858527002313"><ele>317.0</ele><time>2026-04-11T03:49:29.999Z</time></trkpt><trkpt lat="43.29189739865973" lon="11.538827101125351"><ele>317.0</ele><time>2026-04-11T03:49:31.999Z</time></trkpt><trkpt lat="43.29197550433853" lon="11.538815946518394"><ele>317.0</ele><time>2026-04-11T03:49:34.999Z</time></trkpt><trkpt lat="43.29205968950671" lon="11.538833100395761"><ele>317.0</ele><time>2026-04-11T03:49:37.999Z</time></trkpt><trkpt lat="43.292126453292376" lon="11.53885397917464"><ele>317.0</ele><time>2026-04-11T03:49:39.999Z</time></trkpt><trkpt lat="43.2921972454031" lon="11.538881787524806"><ele>317.0</ele><time>2026-04-11T03:49:41.999Z</time></trkpt><trkpt lat="43.292271893857645" lon="11.53890400038106"><ele>317.0</ele><time>2026-04-11T03:49:44.999Z</time></trkpt><trkpt lat="43.29236393365194" lon="11.538929390339682"><ele>317.0</ele><time>2026-04-11T03:49:47.999Z</time></trkpt><trkpt lat="43.29244645744731" lon="11.538935922516076"><ele>317.0</ele><time>2026-04-11T03:49:50.999Z</time></trkpt><trkpt lat="43.2925316981199" lon="11.538932820358268"><ele>317.0</ele><time>2026-04-11T03:49:53.999Z</time></trkpt><trkpt lat="43.29260575104551" lon="11.538917572361031"><ele>317.0</ele><time>2026-04-11T03:49:55.999Z</time></trkpt><trkpt lat="43.292693747248734" lon="11.538890511706667"><ele>317.0</ele><time>2026-04-11T03:49:58.999Z</time></trkpt><trkpt lat="43.29276502255501" lon="11.538832890045498"><ele>317.0</ele><time>2026-04-11T03:50:01.998Z</time></trkpt><trkpt lat="43.29282460639333" lon="11.538778214315997"><ele>317.0</ele><time>2026-04-11T03:50:03.998Z</time></trkpt><trkpt lat="43.29288557020911" lon="11.538720875154391"><ele>317.0</ele><time>2026-04-11T03:50:05.998Z</time></trkpt><trkpt lat="43.29295989880746" lon="11.538647520904437"><ele>317.0</ele><time>2026-04-11T03:50:07.998Z</time></trkpt><trkpt lat="43.29301548797549" lon="11.538589177957112"><ele>317.0</ele><time>2026-04-11T03:50:09.998Z</time></trkpt><trkpt lat="43.29309528968775" lon="11.538515879117124"><ele>317.0</ele><time>2026-04-11T03:50:11.998Z</time></trkpt><trkpt lat="43.29321666629648" lon="11.538410321290778"><ele>316.1666666666667</ele><time>2026-04-11T03:50:13.998Z</time></trkpt><trkpt lat="43.29327222647152" lon="11.538360955130301"><ele>315.33333333333337</ele><time>2026-04-11T03:50:14.998Z</time></trkpt><trkpt lat="43.29338348897891" lon="11.53829527279905"><ele>314.5</ele><time>2026-04-11T03:50:16.998Z</time></trkpt><trkpt lat="43.29344106244015" lon="11.538244569841964"><ele>313.6666666666667</ele><time>2026-04-11T03:50:17.998Z</time></trkpt><trkpt lat="43.29350126308364" lon="11.53818974232237"><ele>312.8333333333333</ele><time>2026-04-11T03:50:18.998Z</time></trkpt><trkpt lat="43.29356495155172" lon="11.53813173812581"><ele>312.0</ele><time>2026-04-11T03:50:19.998Z</time></trkpt><trkpt lat="43.2936294286844" lon="11.538072489971473"><ele>312.0</ele><time>2026-04-11T03:50:20.998Z</time></trkpt><trkpt lat="43.29369375777053" lon="11.538013237430508"><ele>312.0</ele><time>2026-04-11T03:50:21.998Z</time></trkpt><trkpt lat="43.293757752101136" lon="11.537954872626031"><ele>312.0</ele><time>2026-04-11T03:50:22.998Z</time></trkpt><trkpt lat="43.29381897318939" lon="11.537901140901072"><ele>312.0</ele><time>2026-04-11T03:50:23.998Z</time></trkpt><trkpt lat="43.29387700512423" lon="11.53785020817553"><ele>312.0</ele><time>2026-04-11T03:50:24.998Z</time></trkpt><trkpt lat="43.29393184507631" lon="11.537798090201703"><ele>312.0</ele><time>2026-04-11T03:50:25.998Z</time></trkpt><trkpt lat="43.29398538664636" lon="11.537743520983648"><ele>312.0</ele><time>2026-04-11T03:50:26.998Z</time></trkpt><trkpt lat="43.29408390089843" lon="11.537634517112217"><ele>312.1666666666667</ele><time>2026-04-11T03:50:28.998Z</time></trkpt><trkpt lat="43.29417093178841" lon="11.53752949110477"><ele>312.3333333333333</ele><time>2026-04-11T03:50:30.998Z</time></trkpt><trkpt lat="43.29423698732834" lon="11.537442182554436"><ele>312.5</ele><time>2026-04-11T03:50:32.998Z</time></trkpt><trkpt lat="43.29429421507278" lon="11.537366904787994"><ele>312.66666666666663</ele><time>2026-04-11T03:50:34.998Z</time></trkpt><trkpt lat="43.294347429329044" lon="11.537301630215024"><ele>312.8333333333333</ele><time>2026-04-11T03:50:36.998Z</time></trkpt><trkpt lat="43.29439635085403" lon="11.537242478192178"><ele>313.0</ele><time>2026-04-11T03:50:38.998Z</time></trkpt><trkpt lat="43.2944641514122" lon="11.537167500836246"><ele>313.0</ele><time>2026-04-11T03:50:41.998Z</time></trkpt><trkpt lat="43.294516202930964" lon="11.537068813277449"><ele>313.0</ele><time>2026-04-11T03:50:44.998Z</time></trkpt><trkpt lat="43.29459271805107" lon="11.537018476776923"><ele>313.0</ele><time>2026-04-11T03:50:47.998Z</time></trkpt><trkpt lat="43.294668083343176" lon="11.536974180391232"><ele>313.0</ele><time>2026-04-11T03:50:50.998Z</time></trkpt><trkpt lat="43.29475737739057" lon="11.536922209996346"><ele>313.0</ele><time>2026-04-11T03:50:55Z</time></trkpt><trkpt lat="43.294840860190504" lon="11.536870065646228"><ele>313.0</ele><time>2026-04-11T03:50:58Z</time></trkpt><trkpt lat="43.29493260063587" lon="11.536835400023895"><ele>312.1428571428571</ele><time>2026-04-11T03:51:00Z</time></trkpt><trkpt lat="43.29499737586596" lon="11.536814301186618"><ele>311.2857142857143</ele><time>2026-04-11T03:51:01Z</time></trkpt><trkpt lat="43.295071690018226" lon="11.53680360406901"><ele>310.42857142857144</ele><time>2026-04-11T03:51:02Z</time></trkpt><trkpt lat="43.29514403110007" lon="11.53679420014953"><ele>309.57142857142856</ele><time>2026-04-11T03:51:03Z</time></trkpt><trkpt lat="43.29520838594913" lon="11.536783345678911"><ele>308.7142857142857</ele><time>2026-04-11T03:51:04Z</time></trkpt><trkpt lat="43.29527797283558" lon="11.536780163997364"><ele>307.85714285714283</ele><time>2026-04-11T03:51:05Z</time></trkpt><trkpt lat="43.29535217708991" lon="11.53673950670141"><ele>307.0</ele><time>2026-04-11T03:51:06Z</time></trkpt><trkpt lat="43.29540832995829" lon="11.536689657593726"><ele>307.0</ele><time>2026-04-11T03:51:07Z</time></trkpt><trkpt lat="43.29545783632065" lon="11.536630969077148"><ele>307.0</ele><time>2026-04-11T03:51:08Z</time></trkpt><trkpt lat="43.29553295654517" lon="11.536512208278209"><ele>307.0</ele><time>2026-04-11T03:51:10Z</time></trkpt><trkpt lat="43.295588842516" lon="11.536364195200145"><ele>307.0</ele><time>2026-04-11T03:51:12Z</time></trkpt><trkpt lat="43.29564348679302" lon="11.53621595176052"><ele>307.0</ele><time>2026-04-11T03:51:14Z</time></trkpt><trkpt lat="43.29568860030407" lon="11.536085512445066"><ele>309.2857142857143</ele><time>2026-04-11T03:51:16Z</time></trkpt><trkpt lat="43.29572177962911" lon="11.535987023119478"><ele>311.57142857142856</ele><time>2026-04-11T03:51:18Z</time></trkpt><trkpt lat="43.29574991086331" lon="11.535903518506856"><ele>313.8571428571429</ele><time>2026-04-11T03:51:19.999Z</time></trkpt><trkpt lat="43.29577748405916" lon="11.535810664153063"><ele>316.1428571428571</ele><time>2026-04-11T03:51:22.999Z</time></trkpt><trkpt lat="43.295794556845145" lon="11.535701203241208"><ele>318.42857142857144</ele><time>2026-04-11T03:51:25.999Z</time></trkpt><trkpt lat="43.29580482419269" lon="11.535605834776925"><ele>320.7142857142857</ele><time>2026-04-11T03:51:28.999Z</time></trkpt><trkpt lat="43.29578905280186" lon="11.53551636680063"><ele>323.0</ele><time>2026-04-11T03:51:31.999Z</time></trkpt><trkpt lat="43.2957934419593" lon="11.535409130947702"><ele>323.6666666666667</ele><time>2026-04-11T03:51:35.999Z</time></trkpt><trkpt lat="43.29580650609237" lon="11.535301137699792"><ele>324.33333333333337</ele><time>2026-04-11T03:51:39.999Z</time></trkpt><trkpt lat="43.29582009541426" lon="11.535206265654955"><ele>325.0</ele><time>2026-04-11T03:51:43.999Z</time></trkpt><trkpt lat="43.29582670998985" lon="11.535107889329499"><ele>325.6666666666667</ele><time>2026-04-11T03:51:47.999Z</time></trkpt><trkpt lat="43.2958414810223" lon="11.534996716198508"><ele>326.3333333333333</ele><time>2026-04-11T03:51:51.999Z</time></trkpt><trkpt lat="43.29583553409443" lon="11.534908203431977"><ele>327.0</ele><time>2026-04-11T03:51:55.999Z</time></trkpt><trkpt lat="43.295817340568654" lon="11.534790622041129"><ele>327.0</ele><time>2026-04-11T03:51:59.999Z</time></trkpt><trkpt lat="43.295771450086214" lon="11.534676737567175"><ele>327.0</ele><time>2026-04-11T03:52:03.999Z</time></trkpt><trkpt lat="43.29571976312167" lon="11.534621364368157"><ele>327.0</ele><time>2026-04-11T03:52:06.999Z</time></trkpt><trkpt lat="43.2956677120778" lon="11.534572305412379"><ele>327.0</ele><time>2026-04-11T03:52:09.999Z</time></trkpt><trkpt lat="43.29559526931376" lon="11.534514206119312"><ele>327.0</ele><time>2026-04-11T03:52:13.998Z</time></trkpt><trkpt lat="43.29552353655661" lon="11.534458332250832"><ele>327.0</ele><time>2026-04-11T03:52:17.998Z</time></trkpt><trkpt lat="43.29546272776848" lon="11.53441883441218"><ele>327.42857142857144</ele><time>2026-04-11T03:52:20.998Z</time></trkpt><trkpt lat="43.29540767913088" lon="11.534372338356487"><ele>327.8571428571429</ele><time>2026-04-11T03:52:23.998Z</time></trkpt><trkpt lat="43.295353082988264" lon="11.534322491602868"><ele>328.28571428571433</ele><time>2026-04-11T03:52:26.998Z</time></trkpt><trkpt lat="43.29529684624785" lon="11.534263109552601"><ele>328.7142857142857</ele><time>2026-04-11T03:52:29.998Z</time></trkpt><trkpt lat="43.295233414847424" lon="11.534187104503204"><ele>329.14285714285717</ele><time>2026-04-11T03:52:33.998Z</time></trkpt><trkpt lat="43.29518310893058" lon="11.534106689291898"><ele>329.5714285714286</ele><time>2026-04-11T03:52:36.998Z</time></trkpt><trkpt lat="43.29513646918739" lon="11.534029266655057"><ele>330.0</ele><time>2026-04-11T03:52:38.998Z</time></trkpt><trkpt lat="43.29507115906614" lon="11.53393880259564"><ele>330.0</ele><time>2026-04-11T03:52:40.998Z</time></trkpt><trkpt lat="43.2949791679645" lon="11.53386923728879"><ele>330.0</ele><time>2026-04-11T03:52:42.998Z</time></trkpt><trkpt lat="43.29487318804724" lon="11.533816101961463"><ele>330.0</ele><time>2026-04-11T03:52:44.998Z</time></trkpt><trkpt lat="43.294778420225384" lon="11.533771281150061"><ele>330.0</ele><time>2026-04-11T03:52:46.998Z</time></trkpt><trkpt lat="43.294675290842406" lon="11.533716364538083"><ele>330.0</ele><time>2026-04-11T03:52:48.998Z</time></trkpt><trkpt lat="43.29457840559833" lon="11.533637425719608"><ele>328.6</ele><time>2026-04-11T03:52:50.998Z</time></trkpt><trkpt lat="43.29450396949085" lon="11.533518868222023"><ele>327.2</ele><time>2026-04-11T03:52:52.998Z</time></trkpt><trkpt lat="43.29448183116355" lon="11.533366490264827"><ele>325.79999999999995</ele><time>2026-04-11T03:52:54.998Z</time></trkpt><trkpt lat="43.294464166274636" lon="11.533205618340851"><ele>324.4</ele><time>2026-04-11T03:52:56.998Z</time></trkpt><trkpt lat="43.29448635038969" lon="11.533123561080307"><ele>323.0</ele><time>2026-04-11T03:52:57.998Z</time></trkpt><trkpt lat="43.294460719200806" lon="11.532957791062431"><ele>323.5</ele><time>2026-04-11T03:52:59.998Z</time></trkpt><trkpt lat="43.294456327365104" lon="11.53279608329521"><ele>324.0</ele><time>2026-04-11T03:53:02Z</time></trkpt><trkpt lat="43.29446137218152" lon="11.532638255479629"><ele>324.5</ele><time>2026-04-11T03:53:04Z</time></trkpt><trkpt lat="43.29450946220732" lon="11.532481993554095"><ele>325.0</ele><time>2026-04-11T03:53:06Z</time></trkpt><trkpt lat="43.2945418764157" lon="11.532319381789742"><ele>325.0</ele><time>2026-04-11T03:53:08Z</time></trkpt><trkpt lat="43.29456046322344" lon="11.532231888167235"><ele>325.0</ele><time>2026-04-11T03:53:09Z</time></trkpt><trkpt lat="43.29457883996782" lon="11.532145383659564"><ele>325.0</ele><time>2026-04-11T03:53:10Z</time></trkpt><trkpt lat="43.29462988753233" lon="11.532012098018361"><ele>325.0</ele><time>2026-04-11T03:53:12Z</time></trkpt><trkpt lat="43.29465944804971" lon="11.531933888000125"><ele>325.0</ele><time>2026-04-11T03:53:13Z</time></trkpt><trkpt lat="43.294721887280296" lon="11.531796541162445"><ele>325.0</ele><time>2026-04-11T03:53:15Z</time></trkpt><trkpt lat="43.29475850476937" lon="11.531725959802456"><ele>324.0</ele><time>2026-04-11T03:53:16Z</time></trkpt><trkpt lat="43.29482553933379" lon="11.531594803397255"><ele>323.0</ele><time>2026-04-11T03:53:18Z</time></trkpt><trkpt lat="43.294882170114576" lon="11.531484518709622"><ele>322.0</ele><time>2026-04-11T03:53:20Z</time></trkpt><trkpt lat="43.294953210642475" lon="11.531350983312917"><ele>321.0</ele><time>2026-04-11T03:53:22Z</time></trkpt><trkpt lat="43.29501830640867" lon="11.531232970759094"><ele>320.0</ele><time>2026-04-11T03:53:24Z</time></trkpt><trkpt lat="43.29509668489461" lon="11.531112629354338"><ele>320.0</ele><time>2026-04-11T03:53:25.999Z</time></trkpt><trkpt lat="43.295142186707835" lon="11.531050580814291"><ele>320.0</ele><time>2026-04-11T03:53:26.999Z</time></trkpt><trkpt lat="43.29519249897044" lon="11.530995009578062"><ele>320.0</ele><time>2026-04-11T03:53:27.999Z</time></trkpt><trkpt lat="43.29524496547004" lon="11.530943017549868"><ele>320.0</ele><time>2026-04-11T03:53:28.999Z</time></trkpt><trkpt lat="43.29529805832259" lon="11.530895546295572"><ele>320.0</ele><time>2026-04-11T03:53:29.999Z</time></trkpt><trkpt lat="43.2954080835106" lon="11.530810664037073"><ele>320.0</ele><time>2026-04-11T03:53:31.999Z</time></trkpt><trkpt lat="43.29547008541268" lon="11.530767107818054"><ele>320.0</ele><time>2026-04-11T03:53:32.999Z</time></trkpt><trkpt lat="43.29553690300059" lon="11.530722883950645"><ele>320.0</ele><time>2026-04-11T03:53:33.999Z</time></trkpt><trkpt lat="43.29560346130182" lon="11.53068223237174"><ele>320.0</ele><time>2026-04-11T03:53:34.999Z</time></trkpt><trkpt lat="43.29570895924787" lon="11.530621878819332"><ele>320.0</ele><time>2026-04-11T03:53:36.999Z</time></trkpt><trkpt lat="43.295804517650055" lon="11.53057388369833"><ele>320.0</ele><time>2026-04-11T03:53:38.999Z</time></trkpt><trkpt lat="43.29590919152459" lon="11.530525894899913"><ele>318.2857142857143</ele><time>2026-04-11T03:53:40.999Z</time></trkpt><trkpt lat="43.29596948285995" lon="11.530500899950663"><ele>316.57142857142856</ele><time>2026-04-11T03:53:41.999Z</time></trkpt><trkpt lat="43.29603468343603" lon="11.530473869776285"><ele>314.8571428571429</ele><time>2026-04-11T03:53:42.999Z</time></trkpt><trkpt lat="43.29610020890758" lon="11.530446671423883"><ele>313.1428571428571</ele><time>2026-04-11T03:53:43.999Z</time></trkpt><trkpt lat="43.296161626311005" lon="11.530422821261153"><ele>311.42857142857144</ele><time>2026-04-11T03:53:44.999Z</time></trkpt><trkpt lat="43.29622658941884" lon="11.53039759419858"><ele>309.7142857142857</ele><time>2026-04-11T03:53:45.999Z</time></trkpt><trkpt lat="43.29629643981151" lon="11.530370469259566"><ele>308.0</ele><time>2026-04-11T03:53:46.999Z</time></trkpt><trkpt lat="43.29636979795599" lon="11.530339870254931"><ele>305.6</ele><time>2026-04-11T03:53:47.999Z</time></trkpt><trkpt lat="43.29643404454555" lon="11.530308426341136"><ele>303.20000000000005</ele><time>2026-04-11T03:53:48.999Z</time></trkpt><trkpt lat="43.29653171341086" lon="11.53025109105885"><ele>300.8</ele><time>2026-04-11T03:53:50.999Z</time></trkpt><trkpt lat="43.296613724063135" lon="11.53017203540034"><ele>298.40000000000003</ele><time>2026-04-11T03:53:52.999Z</time></trkpt><trkpt lat="43.29666449079365" lon="11.53005659298594"><ele>296.0</ele><time>2026-04-11T03:53:54.999Z</time></trkpt><trkpt lat="43.29663862613131" lon="11.529908826484672"><ele>296.0</ele><time>2026-04-11T03:53:56.999Z</time></trkpt><trkpt lat="43.29657774321409" lon="11.529795090686978"><ele>296.0</ele><time>2026-04-11T03:53:58.999Z</time></trkpt><trkpt lat="43.2964681718499" lon="11.529719751518684"><ele>296.0</ele><time>2026-04-11T03:54:00.999Z</time></trkpt><trkpt lat="43.296408559440714" lon="11.529689444988032"><ele>296.0</ele><time>2026-04-11T03:54:01.999Z</time></trkpt><trkpt lat="43.29634295948986" lon="11.529658512635908"><ele>296.0</ele><time>2026-04-11T03:54:02.999Z</time></trkpt><trkpt lat="43.29627770580252" lon="11.52962848832216"><ele>296.0</ele><time>2026-04-11T03:54:03.999Z</time></trkpt><trkpt lat="43.296210304291385" lon="11.52960316934085"><ele>295.6666666666667</ele><time>2026-04-11T03:54:04.999Z</time></trkpt><trkpt lat="43.2960892394023" lon="11.52957276152334"><ele>295.33333333333337</ele><time>2026-04-11T03:54:06.999Z</time></trkpt><trkpt lat="43.2960261956024" lon="11.529562485880534"><ele>295.0</ele><time>2026-04-11T03:54:07.999Z</time></trkpt><trkpt lat="43.2959627819163" lon="11.529548233078087"><ele>294.6666666666667</ele><time>2026-04-11T03:54:08.999Z</time></trkpt><trkpt lat="43.295846859108295" lon="11.529484325254048"><ele>294.3333333333333</ele><time>2026-04-11T03:54:10.999Z</time></trkpt><trkpt lat="43.295791926549725" lon="11.529440954213905"><ele>294.0</ele><time>2026-04-11T03:54:11.999Z</time></trkpt><trkpt lat="43.29573556026911" lon="11.529397179016522"><ele>294.0</ele><time>2026-04-11T03:54:12.999Z</time></trkpt><trkpt lat="43.29567581718022" lon="11.529355939555005"><ele>294.0</ele><time>2026-04-11T03:54:13.999Z</time></trkpt><trkpt lat="43.29557206935754" lon="11.529288699226948"><ele>294.0</ele><time>2026-04-11T03:54:15.998Z</time></trkpt><trkpt lat="43.29547113027899" lon="11.529249168939408"><ele>294.0</ele><time>2026-04-11T03:54:17.998Z</time></trkpt><trkpt lat="43.29539158549125" lon="11.529216791836422"><ele>294.0</ele><time>2026-04-11T03:54:19.998Z</time></trkpt><trkpt lat="43.295317924057464" lon="11.529139629319534"><ele>293.59999999999997</ele><time>2026-04-11T03:54:21.998Z</time></trkpt><trkpt lat="43.29530339194291" lon="11.528998028214941"><ele>293.2</ele><time>2026-04-11T03:54:23.998Z</time></trkpt><trkpt lat="43.29539775428674" lon="11.528908465451195"><ele>292.79999999999995</ele><time>2026-04-11T03:54:25.998Z</time></trkpt><trkpt lat="43.295482347548926" lon="11.528849189795357"><ele>292.4</ele><time>2026-04-11T03:54:27.998Z</time></trkpt><trkpt lat="43.29557220394687" lon="11.528783959200876"><ele>292.0</ele><time>2026-04-11T03:54:29.998Z</time></trkpt><trkpt lat="43.29566202864126" lon="11.528714329603197"><ele>292.0</ele><time>2026-04-11T03:54:31.998Z</time></trkpt><trkpt lat="43.295745365986186" lon="11.528628651954667"><ele>292.0</ele><time>2026-04-11T03:54:33.998Z</time></trkpt><trkpt lat="43.295824194370965" lon="11.528526819886986"><ele>292.0</ele><time>2026-04-11T03:54:35.998Z</time></trkpt><trkpt lat="43.29588857139043" lon="11.52838784758109"><ele>292.0</ele><time>2026-04-11T03:54:37.998Z</time></trkpt><trkpt lat="43.29591235556979" lon="11.52830591521475"><ele>292.0</ele><time>2026-04-11T03:54:38.998Z</time></trkpt><trkpt lat="43.29591060805426" lon="11.528211398981963"><ele>292.0</ele><time>2026-04-11T03:54:39.998Z</time></trkpt><trkpt lat="43.29593790438226" lon="11.52812392077814"><ele>292.0</ele><time>2026-04-11T03:54:40.998Z</time></trkpt><trkpt lat="43.29594663373295" lon="11.528025177038346"><ele>292.0</ele><time>2026-04-11T03:54:41.998Z</time></trkpt><trkpt lat="43.29595631855363" lon="11.527926553468067"><ele>292.0</ele><time>2026-04-11T03:54:42.998Z</time></trkpt><trkpt lat="43.29596674902372" lon="11.527825773727217"><ele>292.0</ele><time>2026-04-11T03:54:43.998Z</time></trkpt><trkpt lat="43.29597711362053" lon="11.52772563047515"><ele>292.0</ele><time>2026-04-11T03:54:44.998Z</time></trkpt><trkpt lat="43.29598711391212" lon="11.527628327747141"><ele>292.0</ele><time>2026-04-11T03:54:45.998Z</time></trkpt><trkpt lat="43.29598145757479" lon="11.527534638118489"><ele>292.0</ele><time>2026-04-11T03:54:46.998Z</time></trkpt><trkpt lat="43.29599185350151" lon="11.527446434714113"><ele>292.0</ele><time>2026-04-11T03:54:47.998Z</time></trkpt><trkpt lat="43.29601993786387" lon="11.527363782981642"><ele>292.0</ele><time>2026-04-11T03:54:48.998Z</time></trkpt><trkpt lat="43.2960374486676" lon="11.527274063864596"><ele>292.0</ele><time>2026-04-11T03:54:49.998Z</time></trkpt><trkpt lat="43.29606046408351" lon="11.527192485362594"><ele>292.0</ele><time>2026-04-11T03:54:50.998Z</time></trkpt><trkpt lat="43.29608743203271" lon="11.527113455934144"><ele>292.0</ele><time>2026-04-11T03:54:51.998Z</time></trkpt><trkpt lat="43.29614879747255" lon="11.52697426778639"><ele>292.0</ele><time>2026-04-11T03:54:53.998Z</time></trkpt><trkpt lat="43.29621492920312" lon="11.526854660973749"><ele>291.5</ele><time>2026-04-11T03:54:55.998Z</time></trkpt><trkpt lat="43.29627861625121" lon="11.52675069911025"><ele>291.0</ele><time>2026-04-11T03:54:57.998Z</time></trkpt><trkpt lat="43.29633435121111" lon="11.526659950072707"><ele>290.5</ele><time>2026-04-11T03:54:59.998Z</time></trkpt><trkpt lat="43.29638397428986" lon="11.526579152579826"><ele>290.0</ele><time>2026-04-11T03:55:01.998Z</time></trkpt><trkpt lat="43.296428793623164" lon="11.526506176641188"><ele>289.5</ele><time>2026-04-11T03:55:03.998Z</time></trkpt><trkpt lat="43.29647399180263" lon="11.526432583824143"><ele>289.0</ele><time>2026-04-11T03:55:07Z</time></trkpt><trkpt lat="43.296534980876054" lon="11.5263379201918"><ele>289.0</ele><time>2026-04-11T03:55:09Z</time></trkpt><trkpt lat="43.296588066142405" lon="11.526280517462983"><ele>289.0</ele><time>2026-04-11T03:55:11Z</time></trkpt><trkpt lat="43.296620353735186" lon="11.526186781800769"><ele>289.0</ele><time>2026-04-11T03:55:13Z</time></trkpt><trkpt lat="43.29667418927229" lon="11.52613313723409"><ele>289.0</ele><time>2026-04-11T03:55:15Z</time></trkpt><trkpt lat="43.296719509555516" lon="11.526067923980534"><ele>289.0</ele><time>2026-04-11T03:55:17Z</time></trkpt><trkpt lat="43.296750914668564" lon="11.525986783724832"><ele>289.0</ele><time>2026-04-11T03:55:19Z</time></trkpt><trkpt lat="43.29676305784298" lon="11.525886716900748"><ele>289.0</ele><time>2026-04-11T03:55:21Z</time></trkpt><trkpt lat="43.29676022842161" lon="11.525786844284674"><ele>289.0</ele><time>2026-04-11T03:55:23Z</time></trkpt><trkpt lat="43.296744594309736" lon="11.525690215450167"><ele>289.0</ele><time>2026-04-11T03:55:25Z</time></trkpt><trkpt lat="43.29673158313951" lon="11.525592232038546"><ele>289.0</ele><time>2026-04-11T03:55:27Z</time></trkpt><trkpt lat="43.296728460944706" lon="11.525486729759814"><ele>289.0</ele><time>2026-04-11T03:55:29Z</time></trkpt><trkpt lat="43.29672790594291" lon="11.525385420519163"><ele>289.0</ele><time>2026-04-11T03:55:31Z</time></trkpt><trkpt lat="43.296737398517024" lon="11.525285191530168"><ele>289.0</ele><time>2026-04-11T03:55:33Z</time></trkpt><trkpt lat="43.2967498105598" lon="11.52518675475226"><ele>289.0</ele><time>2026-04-11T03:55:34.999Z</time></trkpt><trkpt lat="43.29676056733391" lon="11.525084935587802"><ele>289.42857142857144</ele><time>2026-04-11T03:55:36.999Z</time></trkpt><trkpt lat="43.296756445927535" lon="11.524983288059005"><ele>289.85714285714283</ele><time>2026-04-11T03:55:38.999Z</time></trkpt><trkpt lat="43.29673269114089" lon="11.5248878211769"><ele>290.2857142857143</ele><time>2026-04-11T03:55:40.999Z</time></trkpt><trkpt lat="43.296698834283966" lon="11.524796785292223"><ele>290.7142857142857</ele><time>2026-04-11T03:55:42.999Z</time></trkpt><trkpt lat="43.296662002606844" lon="11.524706626540977"><ele>291.14285714285717</ele><time>2026-04-11T03:55:44.999Z</time></trkpt><trkpt lat="43.296626592085914" lon="11.524617182661233"><ele>291.57142857142856</ele><time>2026-04-11T03:55:46.999Z</time></trkpt><trkpt lat="43.296595095411895" lon="11.524526855295706"><ele>292.0</ele><time>2026-04-11T03:55:48.999Z</time></trkpt><trkpt lat="43.29657245821503" lon="11.524434952177309"><ele>293.42857142857144</ele><time>2026-04-11T03:55:50.999Z</time></trkpt><trkpt lat="43.2965588608733" lon="11.524337029372134"><ele>294.8571428571429</ele><time>2026-04-11T03:55:52.999Z</time></trkpt><trkpt lat="43.2965470692372" lon="11.524239444201879"><ele>296.28571428571433</ele><time>2026-04-11T03:55:54.999Z</time></trkpt><trkpt lat="43.296535917324235" lon="11.524141176333169"><ele>297.7142857142857</ele><time>2026-04-11T03:55:56.999Z</time></trkpt><trkpt lat="43.296522960484204" lon="11.524044545547971"><ele>299.14285714285717</ele><time>2026-04-11T03:55:58.999Z</time></trkpt><trkpt lat="43.296509484601145" lon="11.523947706147231"><ele>300.5714285714286</ele><time>2026-04-11T03:56:00.999Z</time></trkpt><trkpt lat="43.296499419731596" lon="11.523851647130758"><ele>302.0</ele><time>2026-04-11T03:56:02.999Z</time></trkpt><trkpt lat="43.29648332834305" lon="11.523757997050843"><ele>302.83333333333337</ele><time>2026-04-11T03:56:04.999Z</time></trkpt><trkpt lat="43.296465068560146" lon="11.523665043492123"><ele>303.6666666666667</ele><time>2026-04-11T03:56:06.999Z</time></trkpt><trkpt lat="43.29645193658412" lon="11.523564600685216"><ele>304.5</ele><time>2026-04-11T03:56:08.999Z</time></trkpt><trkpt lat="43.29643604895074" lon="11.523464165061553"><ele>305.3333333333333</ele><time>2026-04-11T03:56:10.999Z</time></trkpt><trkpt lat="43.29642214384421" lon="11.523360638780165"><ele>306.16666666666663</ele><time>2026-04-11T03:56:12.999Z</time></trkpt><trkpt lat="43.29641396026926" lon="11.52325087290253"><ele>307.0</ele><time>2026-04-11T03:56:14.999Z</time></trkpt><trkpt lat="43.29641050419351" lon="11.523131821815307"><ele>306.8</ele><time>2026-04-11T03:56:16.999Z</time></trkpt><trkpt lat="43.296404666268536" lon="11.523005830070414"><ele>306.6</ele><time>2026-04-11T03:56:18.999Z</time></trkpt><trkpt lat="43.29640673597181" lon="11.522873326890313"><ele>306.40000000000003</ele><time>2026-04-11T03:56:20.999Z</time></trkpt><trkpt lat="43.296414061444494" lon="11.522745575249925"><ele>306.2</ele><time>2026-04-11T03:56:22.999Z</time></trkpt><trkpt lat="43.29643574805496" lon="11.522620018589883"><ele>306.0</ele><time>2026-04-11T03:56:24.998Z</time></trkpt><trkpt lat="43.2964748537283" lon="11.522499288733947"><ele>306.0</ele><time>2026-04-11T03:56:26.998Z</time></trkpt><trkpt lat="43.29653519623893" lon="11.522385603829115"><ele>306.0</ele><time>2026-04-11T03:56:28.998Z</time></trkpt><trkpt lat="43.29660140016833" lon="11.522277395136406"><ele>306.0</ele><time>2026-04-11T03:56:30.998Z</time></trkpt><trkpt lat="43.29666156163308" lon="11.522242935665991"><ele>306.0</ele><time>2026-04-11T03:56:31.998Z</time></trkpt><trkpt lat="43.29669906879055" lon="11.52210565861527"><ele>306.0</ele><time>2026-04-11T03:56:33.998Z</time></trkpt><trkpt lat="43.29671760839247" lon="11.521981734247683"><ele>304.3333333333333</ele><time>2026-04-11T03:56:35.998Z</time></trkpt><trkpt lat="43.2967304483381" lon="11.52187645183843"><ele>302.6666666666667</ele><time>2026-04-11T03:56:37.998Z</time></trkpt><trkpt lat="43.29674977302945" lon="11.52176400740771"><ele>301.0</ele><time>2026-04-11T03:56:39.998Z</time></trkpt><trkpt lat="43.29678370761244" lon="11.521650720963958"><ele>299.33333333333337</ele><time>2026-04-11T03:56:41.998Z</time></trkpt><trkpt lat="43.29685136650022" lon="11.521567791904038"><ele>297.6666666666667</ele><time>2026-04-11T03:56:43.998Z</time></trkpt><trkpt lat="43.29694170165776" lon="11.52151462321823"><ele>296.0</ele><time>2026-04-11T03:56:45.998Z</time></trkpt><trkpt lat="43.297039388477536" lon="11.521458022860527"><ele>296.0</ele><time>2026-04-11T03:56:47.998Z</time></trkpt><trkpt lat="43.297134673668324" lon="11.521413407438175"><ele>296.0</ele><time>2026-04-11T03:56:49.998Z</time></trkpt><trkpt lat="43.29723637661304" lon="11.521376075484412"><ele>296.0</ele><time>2026-04-11T03:56:51.998Z</time></trkpt><trkpt lat="43.29734262421249" lon="11.521352072058708"><ele>296.0</ele><time>2026-04-11T03:56:53.998Z</time></trkpt><trkpt lat="43.29744787422413" lon="11.521361897447747"><ele>296.0</ele><time>2026-04-11T03:56:55.998Z</time></trkpt><trkpt lat="43.297536631626286" lon="11.521398665906684"><ele>297.6</ele><time>2026-04-11T03:56:57.998Z</time></trkpt><trkpt lat="43.29762253650228" lon="11.52145384903152"><ele>299.20000000000005</ele><time>2026-04-11T03:56:59.998Z</time></trkpt><trkpt lat="43.29769860815787" lon="11.521533075883882"><ele>300.79999999999995</ele><time>2026-04-11T03:57:01.998Z</time></trkpt><trkpt lat="43.29778067268245" lon="11.521617996105261"><ele>302.4</ele><time>2026-04-11T03:57:03.998Z</time></trkpt><trkpt lat="43.29786144597832" lon="11.52170926380896"><ele>304.0</ele><time>2026-04-11T03:57:05.998Z</time></trkpt><trkpt lat="43.29793990485328" lon="11.52180119260935"><ele>304.0</ele><time>2026-04-11T03:57:07.998Z</time></trkpt><trkpt lat="43.29800335024991" lon="11.52190112449098"><ele>304.0</ele><time>2026-04-11T03:57:09.998Z</time></trkpt><trkpt lat="43.29805797153345" lon="11.522018845156934"><ele>304.0</ele><time>2026-04-11T03:57:12Z</time></trkpt><trkpt lat="43.29811413357738" lon="11.522144224226725"><ele>304.0</ele><time>2026-04-11T03:57:14Z</time></trkpt><trkpt lat="43.29818211603764" lon="11.52226038508318"><ele>304.0</ele><time>2026-04-11T03:57:16Z</time></trkpt><trkpt lat="43.29828546963794" lon="11.522331659217944"><ele>304.25</ele><time>2026-04-11T03:57:18Z</time></trkpt><trkpt lat="43.298406526024415" lon="11.52233099685598"><ele>304.5</ele><time>2026-04-11T03:57:20Z</time></trkpt><trkpt lat="43.298513736525585" lon="11.52228486868516"><ele>304.75</ele><time>2026-04-11T03:57:22Z</time></trkpt><trkpt lat="43.29862275086654" lon="11.522257823222109"><ele>305.0</ele><time>2026-04-11T03:57:24Z</time></trkpt><trkpt lat="43.298737977896906" lon="11.522285695405024"><ele>305.0</ele><time>2026-04-11T03:57:26Z</time></trkpt><trkpt lat="43.29877269911742" lon="11.522367063361342"><ele>305.0</ele><time>2026-04-11T03:57:27Z</time></trkpt><trkpt lat="43.29887272384907" lon="11.52247881858208"><ele>305.0</ele><time>2026-04-11T03:57:29Z</time></trkpt><trkpt lat="43.29894081663571" lon="11.522523464089248"><ele>305.0</ele><time>2026-04-11T03:57:30Z</time></trkpt><trkpt lat="43.299016283176876" lon="11.522543617628411"><ele>305.0</ele><time>2026-04-11T03:57:31Z</time></trkpt><trkpt lat="43.299087897669395" lon="11.52254836416449"><ele>305.0</ele><time>2026-04-11T03:57:32Z</time></trkpt><trkpt lat="43.29916006395087" lon="11.522540556021564"><ele>303.83333333333337</ele><time>2026-04-11T03:57:33Z</time></trkpt><trkpt lat="43.299234118371174" lon="11.5225306382249"><ele>302.6666666666667</ele><time>2026-04-11T03:57:34Z</time></trkpt><trkpt lat="43.29930391273166" lon="11.522518257650807"><ele>301.5</ele><time>2026-04-11T03:57:35Z</time></trkpt><trkpt lat="43.2994219340213" lon="11.522489093752226"><ele>300.3333333333333</ele><time>2026-04-11T03:57:37Z</time></trkpt><trkpt lat="43.29950797942536" lon="11.522440551617647"><ele>299.16666666666663</ele><time>2026-04-11T03:57:39Z</time></trkpt><trkpt lat="43.29958150469821" lon="11.52238348576804"><ele>298.0</ele><time>2026-04-11T03:57:40.999Z</time></trkpt><trkpt lat="43.299667650010434" lon="11.522323574483051"><ele>298.2</ele><time>2026-04-11T03:57:42.999Z</time></trkpt><trkpt lat="43.29977553110647" lon="11.522265287708354"><ele>298.4</ele><time>2026-04-11T03:57:44.999Z</time></trkpt><trkpt lat="43.29983902556882" lon="11.522250437491143"><ele>298.59999999999997</ele><time>2026-04-11T03:57:45.999Z</time></trkpt><trkpt lat="43.29990166882356" lon="11.522238909529646"><ele>298.8</ele><time>2026-04-11T03:57:46.999Z</time></trkpt><trkpt lat="43.300015515141965" lon="11.52224407764493"><ele>299.0</ele><time>2026-04-11T03:57:48.999Z</time></trkpt><trkpt lat="43.30012995555615" lon="11.522264918610237"><ele>299.0</ele><time>2026-04-11T03:57:50.999Z</time></trkpt><trkpt lat="43.30023395638075" lon="11.522291937828962"><ele>299.0</ele><time>2026-04-11T03:57:52.999Z</time></trkpt><trkpt lat="43.30030567593129" lon="11.52231825471505"><ele>299.0</ele><time>2026-04-11T03:57:54.999Z</time></trkpt><trkpt lat="43.30038260793125" lon="11.522355991428817"><ele>299.0</ele><time>2026-04-11T03:57:58.999Z</time></trkpt><trkpt lat="43.30046076228625" lon="11.522356186169098"><ele>299.0</ele><time>2026-04-11T03:58:01.999Z</time></trkpt><trkpt lat="43.300539403696014" lon="11.52239321747586"><ele>299.0</ele><time>2026-04-11T03:58:04.999Z</time></trkpt><trkpt lat="43.30062175066236" lon="11.522427767310282"><ele>298.1666666666667</ele><time>2026-04-11T03:58:07.999Z</time></trkpt><trkpt lat="43.300705341538944" lon="11.52246746346729"><ele>297.33333333333337</ele><time>2026-04-11T03:58:10.999Z</time></trkpt><trkpt lat="43.30079525384754" lon="11.52248986102309"><ele>296.5</ele><time>2026-04-11T03:58:13.999Z</time></trkpt><trkpt lat="43.30086358850822" lon="11.522511662230315"><ele>295.6666666666667</ele><time>2026-04-11T03:58:16.999Z</time></trkpt><trkpt lat="43.300942145321024" lon="11.522538054593165"><ele>294.8333333333333</ele><time>2026-04-11T03:58:19.999Z</time></trkpt><trkpt lat="43.301012903383466" lon="11.522580542428019"><ele>294.0</ele><time>2026-04-11T03:58:22.999Z</time></trkpt><trkpt lat="43.30109035713419" lon="11.522610460279688"><ele>294.0</ele><time>2026-04-11T03:58:25.999Z</time></trkpt><trkpt lat="43.30116496832026" lon="11.522630110354095"><ele>294.0</ele><time>2026-04-11T03:58:27.999Z</time></trkpt><trkpt lat="43.301231714184055" lon="11.522666589457923"><ele>294.0</ele><time>2026-04-11T03:58:29.999Z</time></trkpt><trkpt lat="43.301296675658136" lon="11.522702817729012"><ele>294.0</ele><time>2026-04-11T03:58:32.998Z</time></trkpt><trkpt lat="43.30135726940844" lon="11.522737113862473"><ele>294.0</ele><time>2026-04-11T03:58:35.998Z</time></trkpt><trkpt lat="43.30144469392924" lon="11.522784385513713"><ele>294.0</ele><time>2026-04-11T03:58:38.998Z</time></trkpt><trkpt lat="43.30153951266366" lon="11.522839026601762"><ele>293.3333333333333</ele><time>2026-04-11T03:58:40.998Z</time></trkpt><trkpt lat="43.30162054484341" lon="11.522853984433796"><ele>292.6666666666667</ele><time>2026-04-11T03:58:42.998Z</time></trkpt><trkpt lat="43.3017008662321" lon="11.522864880135504"><ele>292.0</ele><time>2026-04-11T03:58:44.998Z</time></trkpt><trkpt lat="43.3017814690143" lon="11.522875293555312"><ele>291.33333333333337</ele><time>2026-04-11T03:58:46.998Z</time></trkpt><trkpt lat="43.30186807545191" lon="11.522884079218397"><ele>290.6666666666667</ele><time>2026-04-11T03:58:48.998Z</time></trkpt><trkpt lat="43.301951834136176" lon="11.522899795739468"><ele>290.0</ele><time>2026-04-11T03:58:50.998Z</time></trkpt><trkpt lat="43.302037826245055" lon="11.522899748499679"><ele>290.0</ele><time>2026-04-11T03:58:52.998Z</time></trkpt><trkpt lat="43.30212314794664" lon="11.52290046078874"><ele>290.0</ele><time>2026-04-11T03:58:54.998Z</time></trkpt><trkpt lat="43.302201337315545" lon="11.522885916681968"><ele>290.0</ele><time>2026-04-11T03:58:56.998Z</time></trkpt><trkpt lat="43.30227925534047" lon="11.522863039219564"><ele>290.0</ele><time>2026-04-11T03:58:58.998Z</time></trkpt><trkpt lat="43.302422333191956" lon="11.522821749723995"><ele>290.0</ele><time>2026-04-11T03:59:01.998Z</time></trkpt><trkpt lat="43.30249888496874" lon="11.522765817458081"><ele>290.4</ele><time>2026-04-11T03:59:03.998Z</time></trkpt><trkpt lat="43.30259348235739" lon="11.522728033351635"><ele>290.8</ele><time>2026-04-11T03:59:05.998Z</time></trkpt><trkpt lat="43.30269570628932" lon="11.522698297570182"><ele>291.2</ele><time>2026-04-11T03:59:07.998Z</time></trkpt><trkpt lat="43.30279904552622" lon="11.522714214751781"><ele>291.6</ele><time>2026-04-11T03:59:09.998Z</time></trkpt><trkpt lat="43.30289332946229" lon="11.522701203851213"><ele>292.0</ele><time>2026-04-11T03:59:11.998Z</time></trkpt><trkpt lat="43.302976740117444" lon="11.522694220660252"><ele>292.0</ele><time>2026-04-11T03:59:13.998Z</time></trkpt><trkpt lat="43.303053420579474" lon="11.52269371472044"><ele>292.0</ele><time>2026-04-11T03:59:15.998Z</time></trkpt><trkpt lat="43.30313663595695" lon="11.52270090814162"><ele>292.0</ele><time>2026-04-11T03:59:18Z</time></trkpt><trkpt lat="43.30322678715422" lon="11.522721887990082"><ele>292.0</ele><time>2026-04-11T03:59:20Z</time></trkpt><trkpt lat="43.30331342632134" lon="11.522761542738344"><ele>292.0</ele><time>2026-04-11T03:59:22Z</time></trkpt><trkpt lat="43.30337710288473" lon="11.522832707373226"><ele>292.0</ele><time>2026-04-11T03:59:24Z</time></trkpt><trkpt lat="43.30343602383591" lon="11.522918284618326"><ele>294.66666666666663</ele><time>2026-04-11T03:59:26Z</time></trkpt><trkpt lat="43.30348955343598" lon="11.522999791189068"><ele>297.3333333333333</ele><time>2026-04-11T03:59:28Z</time></trkpt><trkpt lat="43.30354326648541" lon="11.523088175581146"><ele>300.0</ele><time>2026-04-11T03:59:30Z</time></trkpt><trkpt lat="43.303597229259694" lon="11.523182278129644"><ele>302.6666666666667</ele><time>2026-04-11T03:59:32Z</time></trkpt><trkpt lat="43.30365141866765" lon="11.523278075490328"><ele>305.33333333333337</ele><time>2026-04-11T03:59:34Z</time></trkpt><trkpt lat="43.30370388151935" lon="11.523372762912974"><ele>308.0</ele><time>2026-04-11T03:59:36Z</time></trkpt><trkpt lat="43.30377387602491" lon="11.523453707949065"><ele>308.0</ele><time>2026-04-11T03:59:38Z</time></trkpt><trkpt lat="43.30383219685985" lon="11.523555213673852"><ele>308.0</ele><time>2026-04-11T03:59:40Z</time></trkpt><trkpt lat="43.30388800599547" lon="11.523656587318413"><ele>308.0</ele><time>2026-04-11T03:59:42Z</time></trkpt><trkpt lat="43.30396091336878" lon="11.523745329990781"><ele>308.0</ele><time>2026-04-11T03:59:44Z</time></trkpt><trkpt lat="43.30404500798353" lon="11.523811512190655"><ele>308.0</ele><time>2026-04-11T03:59:46Z</time></trkpt><trkpt lat="43.30413010166491" lon="11.52387101154786"><ele>305.6666666666667</ele><time>2026-04-11T03:59:47.999Z</time></trkpt><trkpt lat="43.304227233885584" lon="11.523864714247203"><ele>303.33333333333337</ele><time>2026-04-11T03:59:49.999Z</time></trkpt><trkpt lat="43.304307435405754" lon="11.52383352161361"><ele>301.0</ele><time>2026-04-11T03:59:51.999Z</time></trkpt><trkpt lat="43.30437047320597" lon="11.523781504884708"><ele>298.6666666666667</ele><time>2026-04-11T03:59:53.999Z</time></trkpt><trkpt lat="43.30441000666143" lon="11.523705871246268"><ele>296.3333333333333</ele><time>2026-04-11T03:59:55.999Z</time></trkpt><trkpt lat="43.30446597465769" lon="11.52366391042743"><ele>294.0</ele><time>2026-04-11T03:59:57.999Z</time></trkpt><trkpt lat="43.304523978593345" lon="11.523585602724383"><ele>294.0</ele><time>2026-04-11T04:00:00.999Z</time></trkpt><trkpt lat="43.3045797996302" lon="11.52349906072841"><ele>294.0</ele><time>2026-04-11T04:00:03.999Z</time></trkpt><trkpt lat="43.304624529736984" lon="11.523428577415176"><ele>294.0</ele><time>2026-04-11T04:00:06.999Z</time></trkpt><trkpt lat="43.30466884219708" lon="11.523361191911992"><ele>294.0</ele><time>2026-04-11T04:00:09.999Z</time></trkpt><trkpt lat="43.30473198340178" lon="11.523292137867616"><ele>294.0</ele><time>2026-04-11T04:00:12.999Z</time></trkpt><trkpt lat="43.30476892093847" lon="11.523202423407444"><ele>294.0</ele><time>2026-04-11T04:00:15.999Z</time></trkpt><trkpt lat="43.30485061848994" lon="11.523142774056682"><ele>295.3333333333333</ele><time>2026-04-11T04:00:18.999Z</time></trkpt><trkpt lat="43.30492390203217" lon="11.52308958192079"><ele>296.6666666666667</ele><time>2026-04-11T04:00:21.999Z</time></trkpt><trkpt lat="43.30499540856138" lon="11.523041547460998"><ele>298.0</ele><time>2026-04-11T04:00:24.999Z</time></trkpt><trkpt lat="43.30505259684356" lon="11.523005360459287"><ele>299.33333333333337</ele><time>2026-04-11T04:00:26.999Z</time></trkpt><trkpt lat="43.30512338616594" lon="11.522965238945954"><ele>300.6666666666667</ele><time>2026-04-11T04:00:29.999Z</time></trkpt><trkpt lat="43.30520037786798" lon="11.522922470116612"><ele>302.0</ele><time>2026-04-11T04:00:32.999Z</time></trkpt><trkpt lat="43.30527435831411" lon="11.52287864596622"><ele>302.00000000000006</ele><time>2026-04-11T04:00:35.999Z</time></trkpt><trkpt lat="43.305349820499025" lon="11.5228536298565"><ele>302.0</ele><time>2026-04-11T04:00:39.998Z</time></trkpt><trkpt lat="43.30542479407501" lon="11.522811178195601"><ele>302.0</ele><time>2026-04-11T04:00:43.998Z</time></trkpt><trkpt lat="43.305494779294754" lon="11.522793112836544"><ele>302.0</ele><time>2026-04-11T04:00:46.998Z</time></trkpt><trkpt lat="43.30556686550444" lon="11.52277672005787"><ele>302.0</ele><time>2026-04-11T04:00:50.998Z</time></trkpt><trkpt lat="43.305629728386194" lon="11.522781421799847"><ele>302.00000000000006</ele><time>2026-04-11T04:00:54.998Z</time></trkpt><trkpt lat="43.30569420534358" lon="11.522795054852564"><ele>302.0</ele><time>2026-04-11T04:00:57.998Z</time></trkpt><trkpt lat="43.30576582543338" lon="11.522818707229991"><ele>304.0</ele><time>2026-04-11T04:01:01.998Z</time></trkpt><trkpt lat="43.30583288661558" lon="11.52284637199317"><ele>306.0</ele><time>2026-04-11T04:01:03.998Z</time></trkpt><trkpt lat="43.30590997563784" lon="11.52289621144406"><ele>308.0</ele><time>2026-04-11T04:01:06.998Z</time></trkpt><trkpt lat="43.305975922141954" lon="11.522976919041099"><ele>310.0</ele><time>2026-04-11T04:01:08.998Z</time></trkpt><trkpt lat="43.30603366203904" lon="11.523024707638266"><ele>312.0</ele><time>2026-04-11T04:01:11.998Z</time></trkpt><trkpt lat="43.30609560137893" lon="11.523061110954572"><ele>314.0</ele><time>2026-04-11T04:01:13.998Z</time></trkpt><trkpt lat="43.30616607546478" lon="11.523108558707296"><ele>314.6666666666667</ele><time>2026-04-11T04:01:16.998Z</time></trkpt><trkpt lat="43.30623522197857" lon="11.52308653485261"><ele>315.33333333333337</ele><time>2026-04-11T04:01:21.998Z</time></trkpt><trkpt lat="43.306309750762736" lon="11.523081497551557"><ele>316.0</ele><time>2026-04-11T04:01:26Z</time></trkpt><trkpt lat="43.306392459681824" lon="11.52304300215574"><ele>316.6666666666667</ele><time>2026-04-11T04:01:29Z</time></trkpt><trkpt lat="43.306486371806194" lon="11.523012746305957"><ele>317.3333333333333</ele><time>2026-04-11T04:01:33Z</time></trkpt><trkpt lat="43.306546927047464" lon="11.52298366189424"><ele>318.0</ele><time>2026-04-11T04:01:37Z</time></trkpt><trkpt lat="43.306586383926174" lon="11.522897980871182"><ele>319.0</ele><time>2026-04-11T04:01:42Z</time></trkpt><trkpt lat="43.30665205908122" lon="11.522861929510446"><ele>320.0</ele><time>2026-04-11T04:01:47Z</time></trkpt><trkpt lat="43.306714706872626" lon="11.52284747650708"><ele>321.0</ele><time>2026-04-11T04:01:50Z</time></trkpt><trkpt lat="43.30678447997183" lon="11.522904673644867"><ele>322.0</ele><time>2026-04-11T04:01:53Z</time></trkpt><trkpt lat="43.306867037055504" lon="11.52290647842164"><ele>323.0</ele><time>2026-04-11T04:01:56.999Z</time></trkpt><trkpt lat="43.306938894934056" lon="11.522881506618587"><ele>324.0</ele><time>2026-04-11T04:01:59.999Z</time></trkpt><trkpt lat="43.30700197205221" lon="11.522867385635948"><ele>325.0</ele><time>2026-04-11T04:02:02.999Z</time></trkpt><trkpt lat="43.30708587965677" lon="11.522846665443469"><ele>325.16666666666663</ele><time>2026-04-11T04:02:06.999Z</time></trkpt><trkpt lat="43.30714860132357" lon="11.522864350065104"><ele>325.3333333333333</ele><time>2026-04-11T04:02:09.999Z</time></trkpt><trkpt lat="43.30722450511064" lon="11.522887850106125"><ele>325.5</ele><time>2026-04-11T04:02:12.999Z</time></trkpt><trkpt lat="43.3072843306397" lon="11.522976243901178"><ele>325.6666666666667</ele><time>2026-04-11T04:02:14.999Z</time></trkpt><trkpt lat="43.30733996128535" lon="11.523069800547159"><ele>325.83333333333337</ele><time>2026-04-11T04:02:16.999Z</time></trkpt><trkpt lat="43.307431573737276" lon="11.523142446394811"><ele>326.0</ele><time>2026-04-11T04:02:18.999Z</time></trkpt><trkpt lat="43.307513406170436" lon="11.523210070140234"><ele>326.0</ele><time>2026-04-11T04:02:20.999Z</time></trkpt><trkpt lat="43.30760294498944" lon="11.523291136078054"><ele>326.0</ele><time>2026-04-11T04:02:22.999Z</time></trkpt><trkpt lat="43.30768728491818" lon="11.523371236343781"><ele>326.0</ele><time>2026-04-11T04:02:24.999Z</time></trkpt><trkpt lat="43.30773020602851" lon="11.523442814675334"><ele>326.0</ele><time>2026-04-11T04:02:25.999Z</time></trkpt><trkpt lat="43.307801220600005" lon="11.523537971462462"><ele>326.0</ele><time>2026-04-11T04:02:27.999Z</time></trkpt><trkpt lat="43.30786347733327" lon="11.523612381623105"><ele>326.0</ele><time>2026-04-11T04:02:29.999Z</time></trkpt><trkpt lat="43.307924367723" lon="11.523682609773509"><ele>326.0</ele><time>2026-04-11T04:02:31.999Z</time></trkpt><trkpt lat="43.307990159533176" lon="11.52374176283963"><ele>326.0</ele><time>2026-04-11T04:02:33.999Z</time></trkpt><trkpt lat="43.30805378531562" lon="11.523794848478946"><ele>326.0</ele><time>2026-04-11T04:02:35.999Z</time></trkpt><trkpt lat="43.30811231049981" lon="11.523847073345827"><ele>326.0</ele><time>2026-04-11T04:02:37.999Z</time></trkpt><trkpt lat="43.30817395125709" lon="11.523903683129632"><ele>326.0</ele><time>2026-04-11T04:02:39.999Z</time></trkpt><trkpt lat="43.30825082024432" lon="11.523964305099618"><ele>326.0</ele><time>2026-04-11T04:02:42.999Z</time></trkpt><trkpt lat="43.30832520948678" lon="11.524042689918362"><ele>326.0</ele><time>2026-04-11T04:02:45.999Z</time></trkpt><trkpt lat="43.30839083845114" lon="11.524117698289196"><ele>326.0</ele><time>2026-04-11T04:02:47.998Z</time></trkpt><trkpt lat="43.308462550350505" lon="11.52422547656507"><ele>326.0</ele><time>2026-04-11T04:02:49.998Z</time></trkpt><trkpt lat="43.30851844101374" lon="11.524316910321721"><ele>326.0</ele><time>2026-04-11T04:02:51.998Z</time></trkpt><trkpt lat="43.30857994690042" lon="11.524397201056203"><ele>326.0</ele><time>2026-04-11T04:02:53.998Z</time></trkpt><trkpt lat="43.30863489896152" lon="11.524480344652787"><ele>326.0</ele><time>2026-04-11T04:02:55.998Z</time></trkpt><trkpt lat="43.30869919490447" lon="11.524563259952448"><ele>326.0</ele><time>2026-04-11T04:02:57.998Z</time></trkpt><trkpt lat="43.30874955538452" lon="11.5246207429449"><ele>326.0</ele><time>2026-04-11T04:02:59.998Z</time></trkpt><trkpt lat="43.308818954365215" lon="11.52466957412746"><ele>326.0</ele><time>2026-04-11T04:03:23.998Z</time></trkpt><trkpt lat="43.308825508250436" lon="11.5245659277079"><ele>326.0</ele><time>2026-04-11T04:09:54Z</time></trkpt><trkpt lat="43.30880025993143" lon="11.524447565367645"><ele>326.0</ele><time>2026-04-11T04:09:57Z</time></trkpt><trkpt lat="43.30881405395777" lon="11.52431771937733"><ele>326.0</ele><time>2026-04-11T04:10:00Z</time></trkpt><trkpt lat="43.30884219723949" lon="11.524218019769311"><ele>326.0</ele><time>2026-04-11T04:10:02Z</time></trkpt><trkpt lat="43.30886165292912" lon="11.524106128884611"><ele>326.0</ele><time>2026-04-11T04:10:05Z</time></trkpt><trkpt lat="43.30888025507821" lon="11.524003722644492"><ele>326.0</ele><time>2026-04-11T04:10:07Z</time></trkpt><trkpt lat="43.308887181038024" lon="11.523890331079295"><ele>326.0</ele><time>2026-04-11T04:10:09Z</time></trkpt><trkpt lat="43.30887950849003" lon="11.523765043899846"><ele>326.20000000000005</ele><time>2026-04-11T04:10:11Z</time></trkpt><trkpt lat="43.308861096238886" lon="11.523628187022771"><ele>326.40000000000003</ele><time>2026-04-11T04:10:13Z</time></trkpt><trkpt lat="43.308832935696074" lon="11.523487051999789"><ele>326.6</ele><time>2026-04-11T04:10:15Z</time></trkpt><trkpt lat="43.308860029609505" lon="11.523379678288745"><ele>326.8</ele><time>2026-04-11T04:10:17Z</time></trkpt><trkpt lat="43.30887389358534" lon="11.523269298836187"><ele>327.0</ele><time>2026-04-11T04:10:19Z</time></trkpt><trkpt lat="43.30891904522663" lon="11.523166521990174"><ele>324.8</ele><time>2026-04-11T04:10:21Z</time></trkpt><trkpt lat="43.308971805707074" lon="11.52308230126898"><ele>322.6</ele><time>2026-04-11T04:10:23Z</time></trkpt><trkpt lat="43.3090371103714" lon="11.523001524702709"><ele>320.40000000000003</ele><time>2026-04-11T04:10:24.999Z</time></trkpt><trkpt lat="43.30911536790926" lon="11.522919258186898"><ele>318.20000000000005</ele><time>2026-04-11T04:10:26.999Z</time></trkpt><trkpt lat="43.309198800896574" lon="11.522841009123896"><ele>316.0</ele><time>2026-04-11T04:10:28.999Z</time></trkpt><trkpt lat="43.309298149009855" lon="11.522765817935893"><ele>314.5</ele><time>2026-04-11T04:10:30.999Z</time></trkpt><trkpt lat="43.30940431843195" lon="11.522699384543337"><ele>313.0</ele><time>2026-04-11T04:10:32.999Z</time></trkpt><trkpt lat="43.30950858924779" lon="11.522631448697533"><ele>311.5</ele><time>2026-04-11T04:10:34.999Z</time></trkpt><trkpt lat="43.30961266086284" lon="11.522550200006963"><ele>310.0</ele><time>2026-04-11T04:10:36.999Z</time></trkpt><trkpt lat="43.30970481117071" lon="11.522458440788782"><ele>309.25</ele><time>2026-04-11T04:10:38.999Z</time></trkpt><trkpt lat="43.309783952600206" lon="11.522337823857391"><ele>308.5</ele><time>2026-04-11T04:10:40.999Z</time></trkpt><trkpt lat="43.30983574306315" lon="11.522199393149174"><ele>307.75</ele><time>2026-04-11T04:10:42.999Z</time></trkpt><trkpt lat="43.30987060961854" lon="11.522041682982117"><ele>307.0</ele><time>2026-04-11T04:10:44.999Z</time></trkpt><trkpt lat="43.30989519602264" lon="11.521896931375867"><ele>306.66666666666663</ele><time>2026-04-11T04:10:46.999Z</time></trkpt><trkpt lat="43.30986044465854" lon="11.521709272118741"><ele>306.3333333333333</ele><time>2026-04-11T04:10:48.999Z</time></trkpt><trkpt lat="43.30984121926693" lon="11.52162427907449"><ele>306.0</ele><time>2026-04-11T04:10:49.999Z</time></trkpt><trkpt lat="43.30981567700861" lon="11.521540554762447"><ele>305.6666666666667</ele><time>2026-04-11T04:10:50.999Z</time></trkpt><trkpt lat="43.309784778563575" lon="11.521454593541824"><ele>305.33333333333337</ele><time>2026-04-11T04:10:51.999Z</time></trkpt><trkpt lat="43.30975548278745" lon="11.521367734421055"><ele>305.0</ele><time>2026-04-11T04:10:52.999Z</time></trkpt><trkpt lat="43.309734450395894" lon="11.521276031277909"><ele>302.5714285714286</ele><time>2026-04-11T04:10:53.999Z</time></trkpt><trkpt lat="43.30971963408597" lon="11.52118112545663"><ele>300.1428571428571</ele><time>2026-04-11T04:10:54.999Z</time></trkpt><trkpt lat="43.30971095352357" lon="11.521081968942964"><ele>297.7142857142857</ele><time>2026-04-11T04:10:55.999Z</time></trkpt><trkpt lat="43.30970566537205" lon="11.52099047433313"><ele>295.28571428571433</ele><time>2026-04-11T04:10:56.999Z</time></trkpt><trkpt lat="43.309700323272565" lon="11.520893095026342"><ele>292.8571428571429</ele><time>2026-04-11T04:10:57.999Z</time></trkpt><trkpt lat="43.30969531151755" lon="11.520802716737258"><ele>290.42857142857144</ele><time>2026-04-11T04:10:58.999Z</time></trkpt><trkpt lat="43.30969034092613" lon="11.520713081120087"><ele>288.0</ele><time>2026-04-11T04:10:59.999Z</time></trkpt><trkpt lat="43.309685099434404" lon="11.52061855994672"><ele>288.0</ele><time>2026-04-11T04:11:00.999Z</time></trkpt><trkpt lat="43.309678914403975" lon="11.520507023846953"><ele>288.0</ele><time>2026-04-11T04:11:01.999Z</time></trkpt><trkpt lat="43.30967286569844" lon="11.520397946096923"><ele>288.0</ele><time>2026-04-11T04:11:02.999Z</time></trkpt><trkpt lat="43.30966646477175" lon="11.520292496505434"><ele>288.0</ele><time>2026-04-11T04:11:03.999Z</time></trkpt><trkpt lat="43.309658467569" lon="11.520189865752126"><ele>288.0</ele><time>2026-04-11T04:11:04.999Z</time></trkpt><trkpt lat="43.30964994840011" lon="11.520080536538035"><ele>288.0</ele><time>2026-04-11T04:11:05.999Z</time></trkpt><trkpt lat="43.30964795105093" lon="11.519969163366993"><ele>289.3333333333333</ele><time>2026-04-11T04:11:06.999Z</time></trkpt><trkpt lat="43.309656701364" lon="11.519859183346792"><ele>290.6666666666667</ele><time>2026-04-11T04:11:07.999Z</time></trkpt><trkpt lat="43.30967748718522" lon="11.519743792963824"><ele>292.0</ele><time>2026-04-11T04:11:08.999Z</time></trkpt><trkpt lat="43.309710518200056" lon="11.519634691719334"><ele>293.33333333333337</ele><time>2026-04-11T04:11:09.999Z</time></trkpt><trkpt lat="43.30974761101979" lon="11.51952249412815"><ele>294.6666666666667</ele><time>2026-04-11T04:11:10.999Z</time></trkpt><trkpt lat="43.30978714093727" lon="11.519417641905799"><ele>296.0</ele><time>2026-04-11T04:11:11.999Z</time></trkpt><trkpt lat="43.3098270938296" lon="11.519318452959466"><ele>296.0</ele><time>2026-04-11T04:11:12.999Z</time></trkpt><trkpt lat="43.30986368168493" lon="11.519218512133856"><ele>296.0</ele><time>2026-04-11T04:11:13.999Z</time></trkpt><trkpt lat="43.3098952423026" lon="11.519121148965056"><ele>296.0</ele><time>2026-04-11T04:11:14.998Z</time></trkpt><trkpt lat="43.309921264991594" lon="11.519026288787863"><ele>296.0</ele><time>2026-04-11T04:11:15.998Z</time></trkpt><trkpt lat="43.30994109041989" lon="11.518927355734123"><ele>296.0</ele><time>2026-04-11T04:11:16.998Z</time></trkpt><trkpt lat="43.30994923133094" lon="11.518825304267224"><ele>296.0</ele><time>2026-04-11T04:11:17.998Z</time></trkpt><trkpt lat="43.30994855105013" lon="11.518724589004453"><ele>295.8571428571429</ele><time>2026-04-11T04:11:18.998Z</time></trkpt><trkpt lat="43.30992764478024" lon="11.51862759549817"><ele>295.7142857142857</ele><time>2026-04-11T04:11:19.998Z</time></trkpt><trkpt lat="43.309912617330724" lon="11.518530606422992"><ele>295.57142857142856</ele><time>2026-04-11T04:11:20.998Z</time></trkpt><trkpt lat="43.30989030145134" lon="11.518433142946213"><ele>295.42857142857144</ele><time>2026-04-11T04:11:21.998Z</time></trkpt><trkpt lat="43.309881984922754" lon="11.518330953671663"><ele>295.2857142857143</ele><time>2026-04-11T04:11:22.998Z</time></trkpt><trkpt lat="43.30984051647623" lon="11.518240530768757"><ele>295.14285714285717</ele><time>2026-04-11T04:11:23.998Z</time></trkpt><trkpt lat="43.30981006712168" lon="11.518145013479899"><ele>295.0</ele><time>2026-04-11T04:11:24.998Z</time></trkpt><trkpt lat="43.309791685636625" lon="11.518042529605625"><ele>294.16666666666663</ele><time>2026-04-11T04:11:25.998Z</time></trkpt><trkpt lat="43.309741264989924" lon="11.51796192528917"><ele>293.3333333333333</ele><time>2026-04-11T04:11:26.998Z</time></trkpt><trkpt lat="43.30970089766979" lon="11.51787774392462"><ele>292.5</ele><time>2026-04-11T04:11:27.998Z</time></trkpt><trkpt lat="43.30965343550109" lon="11.5177935414407"><ele>291.6666666666667</ele><time>2026-04-11T04:11:28.998Z</time></trkpt><trkpt lat="43.30960118686838" lon="11.517713606013261"><ele>290.83333333333337</ele><time>2026-04-11T04:11:29.998Z</time></trkpt><trkpt lat="43.30954533630557" lon="11.517636729186027"><ele>290.0</ele><time>2026-04-11T04:11:30.998Z</time></trkpt><trkpt lat="43.309482866264496" lon="11.517562424732848"><ele>290.0</ele><time>2026-04-11T04:11:31.998Z</time></trkpt><trkpt lat="43.30943022386362" lon="11.517474351028135"><ele>290.0</ele><time>2026-04-11T04:11:32.998Z</time></trkpt><trkpt lat="43.30936778341129" lon="11.51740343902856"><ele>290.0</ele><time>2026-04-11T04:11:33.998Z</time></trkpt><trkpt lat="43.30930947392256" lon="11.517327089647573"><ele>290.0</ele><time>2026-04-11T04:11:34.998Z</time></trkpt><trkpt lat="43.30924715003929" lon="11.517259150002674"><ele>290.0</ele><time>2026-04-11T04:11:35.998Z</time></trkpt><trkpt lat="43.30920555753993" lon="11.517168845895073"><ele>290.0</ele><time>2026-04-11T04:11:36.998Z</time></trkpt><trkpt lat="43.30918654743434" lon="11.517069644098406"><ele>290.6666666666667</ele><time>2026-04-11T04:11:37.998Z</time></trkpt><trkpt lat="43.30917523882191" lon="11.516975206020062"><ele>291.33333333333337</ele><time>2026-04-11T04:11:38.998Z</time></trkpt><trkpt lat="43.30917122873811" lon="11.516884108891285"><ele>292.0</ele><time>2026-04-11T04:11:39.998Z</time></trkpt><trkpt lat="43.309177126331356" lon="11.516794353653628"><ele>292.6666666666667</ele><time>2026-04-11T04:11:40.998Z</time></trkpt><trkpt lat="43.309194850527064" lon="11.516708746819598"><ele>293.3333333333333</ele><time>2026-04-11T04:11:41.998Z</time></trkpt><trkpt lat="43.30922725937005" lon="11.516632058205293"><ele>294.0</ele><time>2026-04-11T04:11:42.998Z</time></trkpt><trkpt lat="43.30931551278549" lon="11.516513544843324"><ele>294.0</ele><time>2026-04-11T04:11:44.998Z</time></trkpt><trkpt lat="43.309404981955225" lon="11.516398255321416"><ele>294.0</ele><time>2026-04-11T04:11:46.998Z</time></trkpt><trkpt lat="43.309452058007764" lon="11.516338841674507"><ele>294.0</ele><time>2026-04-11T04:11:47.998Z</time></trkpt><trkpt lat="43.30950188330844" lon="11.516276043239344"><ele>294.0</ele><time>2026-04-11T04:11:48.998Z</time></trkpt><trkpt lat="43.30955068174739" lon="11.51621453936266"><ele>294.0</ele><time>2026-04-11T04:11:49.998Z</time></trkpt><trkpt lat="43.30964473577901" lon="11.516095487481117"><ele>294.0</ele><time>2026-04-11T04:11:51.998Z</time></trkpt><trkpt lat="43.3096848759589" lon="11.516014737802804"><ele>293.1666666666667</ele><time>2026-04-11T04:11:53Z</time></trkpt><trkpt lat="43.309748381094" lon="11.515962712788223"><ele>292.3333333333333</ele><time>2026-04-11T04:11:54Z</time></trkpt><trkpt lat="43.30980430178862" lon="11.515891075872739"><ele>291.5</ele><time>2026-04-11T04:11:55Z</time></trkpt><trkpt lat="43.3098626777148" lon="11.515818699395625"><ele>290.66666666666663</ele><time>2026-04-11T04:11:56Z</time></trkpt><trkpt lat="43.309922642514955" lon="11.515745440372712"><ele>289.8333333333333</ele><time>2026-04-11T04:11:57Z</time></trkpt><trkpt lat="43.30998109292268" lon="11.5156750607783"><ele>289.0</ele><time>2026-04-11T04:11:58Z</time></trkpt><trkpt lat="43.31004602947001" lon="11.515604891808273"><ele>289.0</ele><time>2026-04-11T04:11:59Z</time></trkpt><trkpt lat="43.31011397716312" lon="11.515540269889682"><ele>289.0</ele><time>2026-04-11T04:12:00Z</time></trkpt><trkpt lat="43.31017951770412" lon="11.515465997558016"><ele>289.0</ele><time>2026-04-11T04:12:01Z</time></trkpt><trkpt lat="43.310262393173865" lon="11.515416923437389"><ele>289.0</ele><time>2026-04-11T04:12:02Z</time></trkpt><trkpt lat="43.310346984409755" lon="11.515374157117396"><ele>289.0</ele><time>2026-04-11T04:12:03Z</time></trkpt><trkpt lat="43.31043662809956" lon="11.51533711225683"><ele>289.0</ele><time>2026-04-11T04:12:04Z</time></trkpt><trkpt lat="43.310528037056905" lon="11.515305339683652"><ele>287.8</ele><time>2026-04-11T04:12:05Z</time></trkpt><trkpt lat="43.31061902652922" lon="11.515273844643241"><ele>286.59999999999997</ele><time>2026-04-11T04:12:06Z</time></trkpt><trkpt lat="43.310709946098356" lon="11.515241389713678"><ele>285.4</ele><time>2026-04-11T04:12:07Z</time></trkpt><trkpt lat="43.31080011826994" lon="11.515214989493623"><ele>284.2</ele><time>2026-04-11T04:12:08Z</time></trkpt><trkpt lat="43.31089065506086" lon="11.51521073482812"><ele>283.0</ele><time>2026-04-11T04:12:09Z</time></trkpt><trkpt lat="43.310976786960524" lon="11.515195113460289"><ele>283.0</ele><time>2026-04-11T04:12:10Z</time></trkpt><trkpt lat="43.311059813451976" lon="11.51518455557764"><ele>283.0</ele><time>2026-04-11T04:12:11Z</time></trkpt><trkpt lat="43.311141903454896" lon="11.515177330531309"><ele>283.0</ele><time>2026-04-11T04:12:12Z</time></trkpt><trkpt lat="43.31122149326033" lon="11.515175075528932"><ele>283.0</ele><time>2026-04-11T04:12:13Z</time></trkpt><trkpt lat="43.31129918092981" lon="11.515174568021154"><ele>283.0</ele><time>2026-04-11T04:12:14Z</time></trkpt><trkpt lat="43.31137286467323" lon="11.515174086669637"><ele>283.0</ele><time>2026-04-11T04:12:15Z</time></trkpt><trkpt lat="43.31143988121949" lon="11.515176267175205"><ele>284.3333333333333</ele><time>2026-04-11T04:12:16Z</time></trkpt><trkpt lat="43.31150736232206" lon="11.515178363823967"><ele>285.66666666666663</ele><time>2026-04-11T04:12:17Z</time></trkpt><trkpt lat="43.31157405691233" lon="11.515179502506246"><ele>287.0</ele><time>2026-04-11T04:12:18Z</time></trkpt><trkpt lat="43.31163754284001" lon="11.515179502506037"><ele>288.3333333333333</ele><time>2026-04-11T04:12:19Z</time></trkpt><trkpt lat="43.31175959673549" lon="11.515172032909375"><ele>289.6666666666667</ele><time>2026-04-11T04:12:21Z</time></trkpt><trkpt lat="43.311866361800355" lon="11.515148016918644"><ele>291.0</ele><time>2026-04-11T04:12:23Z</time></trkpt><trkpt lat="43.311963945357626" lon="11.51508793303111"><ele>291.0</ele><time>2026-04-11T04:12:25Z</time></trkpt><trkpt lat="43.31203890226824" lon="11.515008576402085"><ele>291.0</ele><time>2026-04-11T04:12:27Z</time></trkpt><trkpt lat="43.31209359578005" lon="11.514914306698076"><ele>291.0</ele><time>2026-04-11T04:12:29Z</time></trkpt><trkpt lat="43.312151955542575" lon="11.51481068743424"><ele>291.0</ele><time>2026-04-11T04:12:32Z</time></trkpt><trkpt lat="43.31219576455941" lon="11.51472070083019"><ele>291.0</ele><time>2026-04-11T04:12:33.999Z</time></trkpt><trkpt lat="43.31225222855331" lon="11.51460445929609"><ele>292.0</ele><time>2026-04-11T04:12:35.999Z</time></trkpt><trkpt lat="43.312293359822306" lon="11.514517875602085"><ele>293.0</ele><time>2026-04-11T04:12:37.999Z</time></trkpt><trkpt lat="43.312339562986566" lon="11.514422454227146"><ele>294.0</ele><time>2026-04-11T04:12:39.999Z</time></trkpt><trkpt lat="43.312363697981624" lon="11.514315569326222"><ele>295.0</ele><time>2026-04-11T04:12:41.999Z</time></trkpt><trkpt lat="43.31241784411913" lon="11.51424515428114"><ele>296.0</ele><time>2026-04-11T04:12:43.999Z</time></trkpt><trkpt lat="43.3124720131253" lon="11.51417927957712"><ele>297.0</ele><time>2026-04-11T04:12:45.999Z</time></trkpt><trkpt lat="43.312540518048394" lon="11.514116127531711"><ele>297.0</ele><time>2026-04-11T04:12:47.999Z</time></trkpt><trkpt lat="43.31261409155486" lon="11.514054069836105"><ele>297.0</ele><time>2026-04-11T04:12:49.999Z</time></trkpt><trkpt lat="43.31269458229643" lon="11.513993639713583"><ele>297.0</ele><time>2026-04-11T04:12:51.999Z</time></trkpt><trkpt lat="43.312759279636396" lon="11.513948946283739"><ele>297.0</ele><time>2026-04-11T04:12:53.999Z</time></trkpt><trkpt lat="43.312832820268284" lon="11.513911642715696"><ele>297.0</ele><time>2026-04-11T04:12:55.999Z</time></trkpt><trkpt lat="43.31293235999657" lon="11.513862392096526"><ele>297.0</ele><time>2026-04-11T04:12:57.999Z</time></trkpt><trkpt lat="43.313018743618954" lon="11.513861206547423"><ele>297.2857142857143</ele><time>2026-04-11T04:12:59.999Z</time></trkpt><trkpt lat="43.31308554917124" lon="11.513837156815043"><ele>297.5714285714286</ele><time>2026-04-11T04:13:01.999Z</time></trkpt><trkpt lat="43.313155427114516" lon="11.513837386255242"><ele>297.8571428571429</ele><time>2026-04-11T04:13:03.999Z</time></trkpt><trkpt lat="43.31322764212821" lon="11.51384886054349"><ele>298.14285714285717</ele><time>2026-04-11T04:13:06.999Z</time></trkpt><trkpt lat="43.313299581345" lon="11.513869181479626"><ele>298.42857142857144</ele><time>2026-04-11T04:13:08.999Z</time></trkpt><trkpt lat="43.3133678169108" lon="11.513898032840032"><ele>298.7142857142857</ele><time>2026-04-11T04:13:10.999Z</time></trkpt><trkpt lat="43.313429155008045" lon="11.513925409012773"><ele>299.0</ele><time>2026-04-11T04:13:12.999Z</time></trkpt><trkpt lat="43.31349982677352" lon="11.5139937247769"><ele>299.0</ele><time>2026-04-11T04:13:14.999Z</time></trkpt><trkpt lat="43.31357487960017" lon="11.514021680320955"><ele>299.0</ele><time>2026-04-11T04:13:16.999Z</time></trkpt><trkpt lat="43.313629571026254" lon="11.51408887666102"><ele>299.0</ele><time>2026-04-11T04:13:18.999Z</time></trkpt><trkpt lat="43.313695217211375" lon="11.51414368162064"><ele>299.0</ele><time>2026-04-11T04:13:20.999Z</time></trkpt><trkpt lat="43.31375086953106" lon="11.514195362681463"><ele>299.0</ele><time>2026-04-11T04:13:23.999Z</time></trkpt><trkpt lat="43.31380770741276" lon="11.514251995087932"><ele>299.0</ele><time>2026-04-11T04:13:24.998Z</time></trkpt><trkpt lat="43.31385793774512" lon="11.514307230136097"><ele>299.0</ele><time>2026-04-11T04:13:26.998Z</time></trkpt><trkpt lat="43.31394437950865" lon="11.514354593584521"><ele>299.0</ele><time>2026-04-11T04:13:28.998Z</time></trkpt><trkpt lat="43.31402323017763" lon="11.514457867464579"><ele>299.0</ele><time>2026-04-11T04:13:31.998Z</time></trkpt><trkpt lat="43.31408390348099" lon="11.514532183912648"><ele>299.0</ele><time>2026-04-11T04:13:33.998Z</time></trkpt><trkpt lat="43.31414830073555" lon="11.514584201455618"><ele>299.0</ele><time>2026-04-11T04:13:35.998Z</time></trkpt><trkpt lat="43.31422389741709" lon="11.514615428193549"><ele>299.0</ele><time>2026-04-11T04:13:37.998Z</time></trkpt><trkpt lat="43.31430617383855" lon="11.514608683594636"><ele>299.0</ele><time>2026-04-11T04:13:39.998Z</time></trkpt><trkpt lat="43.31438949484517" lon="11.514573704218055"><ele>299.2</ele><time>2026-04-11T04:13:41.998Z</time></trkpt><trkpt lat="43.314469191837105" lon="11.514509658466858"><ele>299.4</ele><time>2026-04-11T04:13:43.998Z</time></trkpt><trkpt lat="43.31454259936754" lon="11.514423539755605"><ele>299.6</ele><time>2026-04-11T04:13:45.998Z</time></trkpt><trkpt lat="43.314606349877735" lon="11.51431390765168"><ele>299.8</ele><time>2026-04-11T04:13:47.998Z</time></trkpt><trkpt lat="43.31468654584863" lon="11.51419944301898"><ele>300.0</ele><time>2026-04-11T04:13:49.998Z</time></trkpt><trkpt lat="43.31474695854566" lon="11.514068293033509"><ele>300.8</ele><time>2026-04-11T04:13:51.998Z</time></trkpt><trkpt lat="43.31484007114255" lon="11.513958679118707"><ele>301.6</ele><time>2026-04-11T04:13:53.998Z</time></trkpt><trkpt lat="43.31490419327368" lon="11.513929810411868"><ele>302.4</ele><time>2026-04-11T04:13:54.998Z</time></trkpt><trkpt lat="43.31496773415854" lon="11.51390618203796"><ele>303.2</ele><time>2026-04-11T04:13:55.998Z</time></trkpt><trkpt lat="43.31508188375846" lon="11.513891974410447"><ele>304.0</ele><time>2026-04-11T04:13:57.998Z</time></trkpt><trkpt lat="43.31520401380532" lon="11.513888157259846"><ele>304.0</ele><time>2026-04-11T04:14:00Z</time></trkpt><trkpt lat="43.315319602891506" lon="11.513891392918206"><ele>304.0</ele><time>2026-04-11T04:14:02Z</time></trkpt><trkpt lat="43.31538667197756" lon="11.513879551710632"><ele>304.0</ele><time>2026-04-11T04:14:03Z</time></trkpt><trkpt lat="43.31544936732015" lon="11.513910548952133"><ele>304.0</ele><time>2026-04-11T04:14:04Z</time></trkpt><trkpt lat="43.315499920345005" lon="11.513973820877595"><ele>304.0</ele><time>2026-04-11T04:14:05Z</time></trkpt><trkpt lat="43.315581989763764" lon="11.514068897961444"><ele>304.0</ele><time>2026-04-11T04:14:07Z</time></trkpt><trkpt lat="43.315553541852" lon="11.514219810670188"><ele>304.0</ele><time>2026-04-11T04:14:08Z</time></trkpt><trkpt lat="43.31556379140959" lon="11.514364324770312"><ele>304.0</ele><time>2026-04-11T04:14:10Z</time></trkpt><trkpt lat="43.31557937042643" lon="11.514496379981063"><ele>304.0</ele><time>2026-04-11T04:14:12Z</time></trkpt><trkpt lat="43.31559455226382" lon="11.514627762599916"><ele>304.0</ele><time>2026-04-11T04:14:14Z</time></trkpt><trkpt lat="43.3156265695959" lon="11.514753548548303"><ele>304.0</ele><time>2026-04-11T04:14:16Z</time></trkpt><trkpt lat="43.31567061516793" lon="11.51486847037606"><ele>303.0</ele><time>2026-04-11T04:14:18Z</time></trkpt><trkpt lat="43.315722527394016" lon="11.51497433736988"><ele>302.0</ele><time>2026-04-11T04:14:20Z</time></trkpt><trkpt lat="43.315782417484506" lon="11.515065972116588"><ele>301.0</ele><time>2026-04-11T04:14:22Z</time></trkpt><trkpt lat="43.31585059039091" lon="11.515146294714818"><ele>300.0</ele><time>2026-04-11T04:14:24Z</time></trkpt><trkpt lat="43.31593254982514" lon="11.515208593440114"><ele>299.0</ele><time>2026-04-11T04:14:26Z</time></trkpt><trkpt lat="43.31609939448682" lon="11.515248702825925"><ele>299.0</ele><time>2026-04-11T04:14:29Z</time></trkpt><trkpt lat="43.316190095851766" lon="11.515250597496012"><ele>299.0</ele><time>2026-04-11T04:14:31Z</time></trkpt><trkpt lat="43.31628513458526" lon="11.515243697843252"><ele>299.0</ele><time>2026-04-11T04:14:33Z</time></trkpt><trkpt lat="43.31638259258235" lon="11.51521308061383"><ele>299.0</ele><time>2026-04-11T04:14:35Z</time></trkpt><trkpt lat="43.316484293137194" lon="11.515174827510178"><ele>299.0</ele><time>2026-04-11T04:14:37Z</time></trkpt><trkpt lat="43.31659461281943" lon="11.515172841436629"><ele>299.2</ele><time>2026-04-11T04:14:39Z</time></trkpt><trkpt lat="43.31669504315822" lon="11.515129268160244"><ele>299.4</ele><time>2026-04-11T04:14:40.999Z</time></trkpt><trkpt lat="43.31679433558262" lon="11.515086188501606"><ele>299.6</ele><time>2026-04-11T04:14:42.999Z</time></trkpt><trkpt lat="43.31689574776531" lon="11.515041830210837"><ele>299.8</ele><time>2026-04-11T04:14:44.999Z</time></trkpt><trkpt lat="43.31699901890225" lon="11.514996514371193"><ele>300.0</ele><time>2026-04-11T04:14:46.999Z</time></trkpt><trkpt lat="43.31705832175296" lon="11.514966693526638"><ele>300.0</ele><time>2026-04-11T04:14:48.999Z</time></trkpt><trkpt lat="43.317118195346865" lon="11.514931483900014"><ele>300.0</ele><time>2026-04-11T04:14:49.999Z</time></trkpt><trkpt lat="43.317235393665555" lon="11.514864769797962"><ele>300.0</ele><time>2026-04-11T04:14:51.999Z</time></trkpt><trkpt lat="43.31729626812597" lon="11.514837893321294"><ele>300.0</ele><time>2026-04-11T04:14:52.999Z</time></trkpt><trkpt lat="43.31740472293366" lon="11.51477736095699"><ele>300.0</ele><time>2026-04-11T04:14:54.999Z</time></trkpt><trkpt lat="43.31749214913432" lon="11.514699528627398"><ele>300.2</ele><time>2026-04-11T04:14:56.999Z</time></trkpt><trkpt lat="43.317547163026106" lon="11.514554849800378"><ele>300.4</ele><time>2026-04-11T04:14:58.999Z</time></trkpt><trkpt lat="43.317604493128236" lon="11.514401491448975"><ele>300.6</ele><time>2026-04-11T04:15:00.999Z</time></trkpt><trkpt lat="43.31762545810197" lon="11.514314944929575"><ele>300.8</ele><time>2026-04-11T04:15:01.999Z</time></trkpt><trkpt lat="43.3176604609646" lon="11.51415450112262"><ele>301.0</ele><time>2026-04-11T04:15:03.999Z</time></trkpt><trkpt lat="43.31768575039483" lon="11.513988418621407"><ele>301.0</ele><time>2026-04-11T04:15:05.999Z</time></trkpt><trkpt lat="43.3177065358503" lon="11.513905678843948"><ele>301.0</ele><time>2026-04-11T04:15:06.999Z</time></trkpt><trkpt lat="43.317728492018745" lon="11.513818440483726"><ele>301.0</ele><time>2026-04-11T04:15:07.999Z</time></trkpt><trkpt lat="43.317754262977736" lon="11.513731011481134"><ele>301.0</ele><time>2026-04-11T04:15:08.999Z</time></trkpt><trkpt lat="43.317801993247535" lon="11.513656614002143"><ele>301.0</ele><time>2026-04-11T04:15:09.999Z</time></trkpt><trkpt lat="43.31783311236083" lon="11.513568256717782"><ele>301.0</ele><time>2026-04-11T04:15:10.999Z</time></trkpt><trkpt lat="43.31790083622662" lon="11.513522362114417"><ele>301.0</ele><time>2026-04-11T04:15:11.999Z</time></trkpt><trkpt lat="43.31796269298173" lon="11.513475866812724"><ele>300.57142857142856</ele><time>2026-04-11T04:15:12.999Z</time></trkpt><trkpt lat="43.31802940784172" lon="11.513447652133497"><ele>300.1428571428571</ele><time>2026-04-11T04:15:13.999Z</time></trkpt><trkpt lat="43.318094600328884" lon="11.513401451153054"><ele>299.7142857142857</ele><time>2026-04-11T04:15:14.999Z</time></trkpt><trkpt lat="43.31816474204256" lon="11.513382414451703"><ele>299.2857142857143</ele><time>2026-04-11T04:15:15.999Z</time></trkpt><trkpt lat="43.31823432623594" lon="11.51338913216364"><ele>298.85714285714283</ele><time>2026-04-11T04:15:16.999Z</time></trkpt><trkpt lat="43.3183003234248" lon="11.513387896130258"><ele>298.42857142857144</ele><time>2026-04-11T04:15:17.999Z</time></trkpt><trkpt lat="43.31836678762195" lon="11.513372606798887"><ele>298.0</ele><time>2026-04-11T04:15:18.999Z</time></trkpt><trkpt lat="43.318430533599006" lon="11.51339164916266"><ele>298.0</ele><time>2026-04-11T04:15:19.999Z</time></trkpt><trkpt lat="43.3184909445112" lon="11.51341696435321"><ele>298.0</ele><time>2026-04-11T04:15:20.999Z</time></trkpt><trkpt lat="43.31854937854039" lon="11.513451089360842"><ele>298.0</ele><time>2026-04-11T04:15:21.999Z</time></trkpt><trkpt lat="43.31860366802772" lon="11.513501044291148"><ele>298.0</ele><time>2026-04-11T04:15:22.999Z</time></trkpt><trkpt lat="43.31864938640058" lon="11.51356438302311"><ele>298.0</ele><time>2026-04-11T04:15:23.999Z</time></trkpt><trkpt lat="43.31868541409198" lon="11.513637940778395"><ele>298.0</ele><time>2026-04-11T04:15:24.999Z</time></trkpt><trkpt lat="43.318717121181976" lon="11.513715278603902"><ele>298.0</ele><time>2026-04-11T04:15:25.999Z</time></trkpt><trkpt lat="43.318736481259776" lon="11.513801999346013"><ele>298.2857142857143</ele><time>2026-04-11T04:15:26.999Z</time></trkpt><trkpt lat="43.31874474620834" lon="11.513893476908521"><ele>298.57142857142856</ele><time>2026-04-11T04:15:27.999Z</time></trkpt><trkpt lat="43.318741074656785" lon="11.51398457940428"><ele>298.85714285714283</ele><time>2026-04-11T04:15:28.999Z</time></trkpt><trkpt lat="43.318736638210396" lon="11.514075797790438"><ele>299.1428571428571</ele><time>2026-04-11T04:15:29.999Z</time></trkpt><trkpt lat="43.31872201070999" lon="11.514165564313169"><ele>299.42857142857144</ele><time>2026-04-11T04:15:30.999Z</time></trkpt><trkpt lat="43.31869097362771" lon="11.514251305183123"><ele>299.71428571428567</ele><time>2026-04-11T04:15:31.998Z</time></trkpt><trkpt lat="43.31865418935182" lon="11.514334962439305"><ele>300.0</ele><time>2026-04-11T04:15:32.998Z</time></trkpt><trkpt lat="43.318603740542414" lon="11.514406726256894"><ele>300.0</ele><time>2026-04-11T04:15:33.998Z</time></trkpt><trkpt lat="43.318546754488054" lon="11.514471568772073"><ele>300.0</ele><time>2026-04-11T04:15:34.998Z</time></trkpt><trkpt lat="43.31849003544565" lon="11.5145343493611"><ele>300.0</ele><time>2026-04-11T04:15:35.998Z</time></trkpt><trkpt lat="43.31843680496743" lon="11.514591260287501"><ele>300.0</ele><time>2026-04-11T04:15:36.998Z</time></trkpt><trkpt lat="43.31838842556926" lon="11.514650026132703"><ele>300.0</ele><time>2026-04-11T04:15:37.998Z</time></trkpt><trkpt lat="43.31834541422161" lon="11.514713826635846"><ele>300.0</ele><time>2026-04-11T04:15:38.998Z</time></trkpt><trkpt lat="43.318320451554726" lon="11.51486752595481"><ele>299.6</ele><time>2026-04-11T04:15:40.998Z</time></trkpt><trkpt lat="43.31837996320463" lon="11.515005333946862"><ele>299.2</ele><time>2026-04-11T04:15:42.998Z</time></trkpt><trkpt lat="43.3184913707902" lon="11.51501850979603"><ele>298.8</ele><time>2026-04-11T04:15:44.998Z</time></trkpt><trkpt lat="43.31859071038574" lon="11.514942539071303"><ele>298.4</ele><time>2026-04-11T04:15:46.998Z</time></trkpt><trkpt lat="43.318608491204046" lon="11.514832771113849"><ele>298.0</ele><time>2026-04-11T04:15:47.998Z</time></trkpt><trkpt lat="43.318678653657926" lon="11.514706247993251"><ele>298.0</ele><time>2026-04-11T04:15:49.998Z</time></trkpt><trkpt lat="43.318723894320506" lon="11.514644994431375"><ele>298.0</ele><time>2026-04-11T04:15:50.998Z</time></trkpt><trkpt lat="43.3188152172574" lon="11.51452885487381"><ele>298.0</ele><time>2026-04-11T04:15:52.998Z</time></trkpt><trkpt lat="43.31888506754361" lon="11.514383057635133"><ele>298.0</ele><time>2026-04-11T04:15:54.998Z</time></trkpt><trkpt lat="43.31892220648344" lon="11.514311847758503"><ele>298.0</ele><time>2026-04-11T04:15:55.998Z</time></trkpt><trkpt lat="43.31895387600775" lon="11.51423356978262"><ele>298.0</ele><time>2026-04-11T04:15:56.998Z</time></trkpt><trkpt lat="43.31897791948568" lon="11.514151919669636"><ele>297.2857142857143</ele><time>2026-04-11T04:15:57.998Z</time></trkpt><trkpt lat="43.318991997053764" lon="11.51406298148151"><ele>296.57142857142856</ele><time>2026-04-11T04:15:58.998Z</time></trkpt><trkpt lat="43.318992224615464" lon="11.513969873665046"><ele>295.85714285714283</ele><time>2026-04-11T04:15:59.998Z</time></trkpt><trkpt lat="43.31898799859546" lon="11.51387456167694"><ele>295.1428571428571</ele><time>2026-04-11T04:16:00.998Z</time></trkpt><trkpt lat="43.31898334062067" lon="11.513777387444444"><ele>294.42857142857144</ele><time>2026-04-11T04:16:01.998Z</time></trkpt><trkpt lat="43.318980708179716" lon="11.513673299904324"><ele>293.71428571428567</ele><time>2026-04-11T04:16:02.998Z</time></trkpt><trkpt lat="43.31897822175772" lon="11.513563399314663"><ele>293.0</ele><time>2026-04-11T04:16:04Z</time></trkpt><trkpt lat="43.318978825171314" lon="11.51344599535852"><ele>292.4</ele><time>2026-04-11T04:16:05Z</time></trkpt><trkpt lat="43.318995204724466" lon="11.513325399563296"><ele>291.8</ele><time>2026-04-11T04:16:06Z</time></trkpt><trkpt lat="43.31903081047879" lon="11.51322032535522"><ele>291.2</ele><time>2026-04-11T04:16:07Z</time></trkpt><trkpt lat="43.319082738872005" lon="11.513111827509967"><ele>290.6</ele><time>2026-04-11T04:16:08Z</time></trkpt><trkpt lat="43.319136836361736" lon="11.513010042912327"><ele>290.0</ele><time>2026-04-11T04:16:09Z</time></trkpt><trkpt lat="43.31918973974266" lon="11.512899129391508"><ele>287.75</ele><time>2026-04-11T04:16:10Z</time></trkpt><trkpt lat="43.31923124845785" lon="11.512758166874296"><ele>285.5</ele><time>2026-04-11T04:16:11Z</time></trkpt><trkpt lat="43.31925006353839" lon="11.512591926434663"><ele>283.25</ele><time>2026-04-11T04:16:12Z</time></trkpt><trkpt lat="43.31924946478534" lon="11.512413025407092"><ele>281.0</ele><time>2026-04-11T04:16:13Z</time></trkpt><trkpt lat="43.319243279994886" lon="11.512230058319473"><ele>279.0</ele><time>2026-04-11T04:16:14Z</time></trkpt><trkpt lat="43.31923163247344" lon="11.512058252716367"><ele>277.0</ele><time>2026-04-11T04:16:15Z</time></trkpt><trkpt lat="43.319214661331735" lon="11.5118958122421"><ele>275.0</ele><time>2026-04-11T04:16:16Z</time></trkpt><trkpt lat="43.319196307652675" lon="11.511734396770391"><ele>273.0</ele><time>2026-04-11T04:16:17Z</time></trkpt><trkpt lat="43.31917391555952" lon="11.511575740636108"><ele>273.0</ele><time>2026-04-11T04:16:18Z</time></trkpt><trkpt lat="43.31914458988968" lon="11.511430414202604"><ele>273.0</ele><time>2026-04-11T04:16:19Z</time></trkpt><trkpt lat="43.319118661087934" lon="11.511270699165058"><ele>273.0</ele><time>2026-04-11T04:16:20Z</time></trkpt><trkpt lat="43.31912229523551" lon="11.51109719520778"><ele>273.0</ele><time>2026-04-11T04:16:21Z</time></trkpt><trkpt lat="43.3191087729698" lon="11.510938566959789"><ele>270.75</ele><time>2026-04-11T04:16:22Z</time></trkpt><trkpt lat="43.31914344849043" lon="11.510789759646562"><ele>268.5</ele><time>2026-04-11T04:16:23Z</time></trkpt><trkpt lat="43.319175553247426" lon="11.510653535659069"><ele>266.25</ele><time>2026-04-11T04:16:24Z</time></trkpt><trkpt lat="43.319220150572896" lon="11.510510545241944"><ele>264.0</ele><time>2026-04-11T04:16:25Z</time></trkpt><trkpt lat="43.31929637044325" lon="11.510375322210878"><ele>261.5</ele><time>2026-04-11T04:16:26Z</time></trkpt><trkpt lat="43.31937719159897" lon="11.510241804850871"><ele>259.0</ele><time>2026-04-11T04:16:27Z</time></trkpt><trkpt lat="43.319462044468146" lon="11.510107371939482"><ele>256.5</ele><time>2026-04-11T04:16:28Z</time></trkpt><trkpt lat="43.31954549074341" lon="11.509966362128903"><ele>254.0</ele><time>2026-04-11T04:16:29Z</time></trkpt><trkpt lat="43.3196254249429" lon="11.50982237485967"><ele>254.0</ele><time>2026-04-11T04:16:30Z</time></trkpt><trkpt lat="43.319695447293086" lon="11.509684118710295"><ele>254.0</ele><time>2026-04-11T04:16:31Z</time></trkpt><trkpt lat="43.319744674967204" lon="11.509537597124858"><ele>254.0</ele><time>2026-04-11T04:16:32Z</time></trkpt><trkpt lat="43.31978382445502" lon="11.509378600753712"><ele>254.0</ele><time>2026-04-11T04:16:33Z</time></trkpt><trkpt lat="43.31981457848458" lon="11.50920603894372"><ele>252.25</ele><time>2026-04-11T04:16:34Z</time></trkpt><trkpt lat="43.31984004137448" lon="11.509026135897397"><ele>250.5</ele><time>2026-04-11T04:16:35Z</time></trkpt><trkpt lat="43.31985498827433" lon="11.508837052920343"><ele>248.75</ele><time>2026-04-11T04:16:36Z</time></trkpt><trkpt lat="43.319857788299274" lon="11.508641774171041"><ele>247.0</ele><time>2026-04-11T04:16:37Z</time></trkpt><trkpt lat="43.31984543391095" lon="11.508443777475858"><ele>247.0</ele><time>2026-04-11T04:16:38Z</time></trkpt><trkpt lat="43.319824699901595" lon="11.50824809217019"><ele>247.0</ele><time>2026-04-11T04:16:39Z</time></trkpt><trkpt lat="43.31980527485836" lon="11.50805347408012"><ele>247.0</ele><time>2026-04-11T04:16:40Z</time></trkpt><trkpt lat="43.3197809127586" lon="11.507864732452518"><ele>247.0</ele><time>2026-04-11T04:16:41Z</time></trkpt><trkpt lat="43.31976109346276" lon="11.50767860157502"><ele>246.5</ele><time>2026-04-11T04:16:42Z</time></trkpt><trkpt lat="43.31974370458469" lon="11.507493969120382"><ele>246.0</ele><time>2026-04-11T04:16:43Z</time></trkpt><trkpt lat="43.31972943901288" lon="11.507314684227374"><ele>245.5</ele><time>2026-04-11T04:16:44Z</time></trkpt><trkpt lat="43.31971591257059" lon="11.507140082724977"><ele>245.0</ele><time>2026-04-11T04:16:45Z</time></trkpt><trkpt lat="43.31970399994799" lon="11.506970329233718"><ele>247.6</ele><time>2026-04-11T04:16:45.999Z</time></trkpt><trkpt lat="43.31969279167707" lon="11.506806813172405"><ele>250.2</ele><time>2026-04-11T04:16:46.999Z</time></trkpt><trkpt lat="43.319677332379804" lon="11.506651392031982"><ele>252.8</ele><time>2026-04-11T04:16:47.999Z</time></trkpt><trkpt lat="43.31966557779883" lon="11.506503240464635"><ele>255.4</ele><time>2026-04-11T04:16:48.999Z</time></trkpt><trkpt lat="43.319667899185326" lon="11.506365120377488"><ele>258.0</ele><time>2026-04-11T04:16:49.999Z</time></trkpt><trkpt lat="43.31969929037398" lon="11.506236658204738"><ele>255.66666666666666</ele><time>2026-04-11T04:16:50.999Z</time></trkpt><trkpt lat="43.3197616360242" lon="11.506136149097832"><ele>253.33333333333331</ele><time>2026-04-11T04:16:51.999Z</time></trkpt><trkpt lat="43.319838010398186" lon="11.506068723033394"><ele>251.0</ele><time>2026-04-11T04:16:52.999Z</time></trkpt><trkpt lat="43.31991357501764" lon="11.506032308760979"><ele>248.66666666666666</ele><time>2026-04-11T04:16:53.999Z</time></trkpt><trkpt lat="43.31998265983377" lon="11.506011391936276"><ele>246.33333333333331</ele><time>2026-04-11T04:16:54.999Z</time></trkpt><trkpt lat="43.32004835124415" lon="11.505991155784434"><ele>244.0</ele><time>2026-04-11T04:16:55.999Z</time></trkpt><trkpt lat="43.32010708889394" lon="11.50595828574965"><ele>244.0</ele><time>2026-04-11T04:16:56.999Z</time></trkpt><trkpt lat="43.32017027365305" lon="11.505957721949365"><ele>243.99999999999997</ele><time>2026-04-11T04:16:57.999Z</time></trkpt><trkpt lat="43.32028341801142" lon="11.505915653802862"><ele>243.99999999999997</ele><time>2026-04-11T04:16:59.999Z</time></trkpt><trkpt lat="43.320391102646" lon="11.505874878650028"><ele>244.0</ele><time>2026-04-11T04:17:01.999Z</time></trkpt><trkpt lat="43.320497060589965" lon="11.505834389821251"><ele>244.0</ele><time>2026-04-11T04:17:03.999Z</time></trkpt><trkpt lat="43.32060755224216" lon="11.50579217235925"><ele>244.4285714285714</ele><time>2026-04-11T04:17:05.999Z</time></trkpt><trkpt lat="43.320726981573" lon="11.5057471029919"><ele>244.85714285714283</ele><time>2026-04-11T04:17:07.999Z</time></trkpt><trkpt lat="43.32078885284494" lon="11.505727730441032"><ele>245.28571428571428</ele><time>2026-04-11T04:17:08.999Z</time></trkpt><trkpt lat="43.320852960751566" lon="11.505708957837413"><ele>245.7142857142857</ele><time>2026-04-11T04:17:09.999Z</time></trkpt><trkpt lat="43.320917166401436" lon="11.505693060537983"><ele>246.1428571428571</ele><time>2026-04-11T04:17:10.999Z</time></trkpt><trkpt lat="43.32098091911529" lon="11.505685398913226"><ele>246.57142857142858</ele><time>2026-04-11T04:17:11.999Z</time></trkpt><trkpt lat="43.32104527793859" lon="11.50566084038197"><ele>247.0</ele><time>2026-04-11T04:17:12.999Z</time></trkpt><trkpt lat="43.32116346861497" lon="11.50569357769017"><ele>247.0</ele><time>2026-04-11T04:17:14.999Z</time></trkpt><trkpt lat="43.32126856360743" lon="11.505732276272333"><ele>247.0</ele><time>2026-04-11T04:17:16.999Z</time></trkpt><trkpt lat="43.321350143726576" lon="11.505795518938871"><ele>247.0</ele><time>2026-04-11T04:17:18.999Z</time></trkpt><trkpt lat="43.321418545933014" lon="11.505837628942999"><ele>247.0</ele><time>2026-04-11T04:17:20.999Z</time></trkpt><trkpt lat="43.32147883160512" lon="11.505933278487635"><ele>247.0</ele><time>2026-04-11T04:17:23.999Z</time></trkpt><trkpt lat="43.321540769763004" lon="11.506019550934601"><ele>248.33333333333331</ele><time>2026-04-11T04:17:26.999Z</time></trkpt><trkpt lat="43.321600030011304" lon="11.506102627083484"><ele>249.66666666666666</ele><time>2026-04-11T04:17:29.999Z</time></trkpt><trkpt lat="43.32165955413163" lon="11.506186757029232"><ele>251.0</ele><time>2026-04-11T04:17:32.999Z</time></trkpt><trkpt lat="43.321738312101786" lon="11.506250277055265"><ele>252.33333333333331</ele><time>2026-04-11T04:17:35.999Z</time></trkpt><trkpt lat="43.32179293940175" lon="11.506341083441571"><ele>253.66666666666666</ele><time>2026-04-11T04:17:38.998Z</time></trkpt><trkpt lat="43.321851086141464" lon="11.506418554727047"><ele>255.0</ele><time>2026-04-11T04:17:42.998Z</time></trkpt><trkpt lat="43.321911458732224" lon="11.506493655858089"><ele>255.0</ele><time>2026-04-11T04:17:45.998Z</time></trkpt><trkpt lat="43.321959485710266" lon="11.50656914240348"><ele>255.00000000000003</ele><time>2026-04-11T04:17:48.998Z</time></trkpt><trkpt lat="43.32200903518836" lon="11.50664622716921"><ele>255.0</ele><time>2026-04-11T04:17:51.998Z</time></trkpt><trkpt lat="43.32205876951877" lon="11.506717342523505"><ele>255.0</ele><time>2026-04-11T04:17:54.998Z</time></trkpt><trkpt lat="43.32210822433746" lon="11.506787509769277"><ele>255.00000000000003</ele><time>2026-04-11T04:17:57.998Z</time></trkpt><trkpt lat="43.32215243052391" lon="11.506855850427296"><ele>255.0</ele><time>2026-04-11T04:17:59.998Z</time></trkpt><trkpt lat="43.32219858698588" lon="11.506921682754777"><ele>255.0</ele><time>2026-04-11T04:18:02.998Z</time></trkpt><trkpt lat="43.32224606028667" lon="11.506992899457199"><ele>256.7142857142857</ele><time>2026-04-11T04:18:05.998Z</time></trkpt><trkpt lat="43.322300383857815" lon="11.507068666602702"><ele>258.42857142857144</ele><time>2026-04-11T04:18:08.998Z</time></trkpt><trkpt lat="43.322350191156" lon="11.507145260584863"><ele>260.14285714285717</ele><time>2026-04-11T04:18:12Z</time></trkpt><trkpt lat="43.32241015717166" lon="11.50722887494065"><ele>261.8571428571429</ele><time>2026-04-11T04:18:15Z</time></trkpt><trkpt lat="43.322456027362065" lon="11.507290779016646"><ele>263.57142857142856</ele><time>2026-04-11T04:18:18Z</time></trkpt><trkpt lat="43.32250646438108" lon="11.507359463657636"><ele>265.28571428571433</ele><time>2026-04-11T04:18:21Z</time></trkpt><trkpt lat="43.32255326255826" lon="11.507419861934956"><ele>267.0</ele><time>2026-04-11T04:18:23Z</time></trkpt><trkpt lat="43.3226072540866" lon="11.507476067515567"><ele>267.28571428571433</ele><time>2026-04-11T04:18:26Z</time></trkpt><trkpt lat="43.32266069926906" lon="11.50752736289509"><ele>267.57142857142856</ele><time>2026-04-11T04:18:28Z</time></trkpt><trkpt lat="43.3227294478341" lon="11.507565074418569"><ele>267.8571428571429</ele><time>2026-04-11T04:18:31Z</time></trkpt><trkpt lat="43.322803348861065" lon="11.507597639862835"><ele>268.14285714285717</ele><time>2026-04-11T04:18:34Z</time></trkpt><trkpt lat="43.322874417404975" lon="11.507623246204737"><ele>268.42857142857144</ele><time>2026-04-11T04:18:37Z</time></trkpt><trkpt lat="43.3229459582754" lon="11.507632273014632"><ele>268.7142857142857</ele><time>2026-04-11T04:18:40Z</time></trkpt><trkpt lat="43.32301981395765" lon="11.507639504339636"><ele>269.0</ele><time>2026-04-11T04:18:43Z</time></trkpt><trkpt lat="43.32309697150784" lon="11.50764591667753"><ele>269.8571428571429</ele><time>2026-04-11T04:18:46Z</time></trkpt><trkpt lat="43.323179853489755" lon="11.50764315987673"><ele>270.7142857142857</ele><time>2026-04-11T04:18:49Z</time></trkpt><trkpt lat="43.32324778765472" lon="11.507642933499483"><ele>271.57142857142856</ele><time>2026-04-11T04:18:52Z</time></trkpt><trkpt lat="43.32331123147087" lon="11.507647329297177"><ele>272.42857142857144</ele><time>2026-04-11T04:18:53.999Z</time></trkpt><trkpt lat="43.323397792157465" lon="11.507644218315008"><ele>273.2857142857143</ele><time>2026-04-11T04:18:56.999Z</time></trkpt><trkpt lat="43.323466505298846" lon="11.507653093665244"><ele>274.14285714285717</ele><time>2026-04-11T04:18:59.999Z</time></trkpt><trkpt lat="43.32353731441537" lon="11.507659343675801"><ele>275.0</ele><time>2026-04-11T04:19:02.999Z</time></trkpt><trkpt lat="43.32361109549348" lon="11.50767606371997"><ele>275.0</ele><time>2026-04-11T04:19:05.999Z</time></trkpt><trkpt lat="43.32368953846596" lon="11.507703305505093"><ele>275.0</ele><time>2026-04-11T04:19:08.999Z</time></trkpt><trkpt lat="43.32376639462192" lon="11.5077376998012"><ele>275.0</ele><time>2026-04-11T04:19:11.999Z</time></trkpt><trkpt lat="43.323846096718114" lon="11.507783621353811"><ele>275.0</ele><time>2026-04-11T04:19:14.999Z</time></trkpt><trkpt lat="43.32390022568852" lon="11.50783037587565"><ele>275.0</ele><time>2026-04-11T04:19:17.999Z</time></trkpt><trkpt lat="43.32395709104991" lon="11.507887297078918"><ele>275.0</ele><time>2026-04-11T04:19:20.999Z</time></trkpt><trkpt lat="43.3240018323344" lon="11.50795000901425"><ele>275.0</ele><time>2026-04-11T04:19:22.999Z</time></trkpt><trkpt lat="43.32404538066885" lon="11.5080247182457"><ele>276.5</ele><time>2026-04-11T04:19:25.999Z</time></trkpt><trkpt lat="43.32408722534759" lon="11.508111440646658"><ele>278.0</ele><time>2026-04-11T04:19:28.999Z</time></trkpt><trkpt lat="43.32412784302266" lon="11.50818780920934"><ele>279.5</ele><time>2026-04-11T04:19:30.999Z</time></trkpt><trkpt lat="43.32416284687577" lon="11.508274664015545"><ele>281.0</ele><time>2026-04-11T04:19:33.999Z</time></trkpt><trkpt lat="43.324200750680966" lon="11.508369748865075"><ele>282.5</ele><time>2026-04-11T04:19:36.999Z</time></trkpt><trkpt lat="43.32424030466323" lon="11.508454733140656"><ele>284.0</ele><time>2026-04-11T04:19:38.999Z</time></trkpt><trkpt lat="43.32427633911064" lon="11.508554276591067"><ele>284.0</ele><time>2026-04-11T04:19:41.999Z</time></trkpt><trkpt lat="43.32431703824293" lon="11.508650162138185"><ele>284.0</ele><time>2026-04-11T04:19:44.999Z</time></trkpt><trkpt lat="43.324346580281436" lon="11.50873824090127"><ele>284.0</ele><time>2026-04-11T04:19:46.998Z</time></trkpt><trkpt lat="43.324384467149166" lon="11.508831356445844"><ele>284.0</ele><time>2026-04-11T04:19:49.998Z</time></trkpt><trkpt lat="43.32442064061466" lon="11.508926680890234"><ele>284.0</ele><time>2026-04-11T04:19:51.998Z</time></trkpt><trkpt lat="43.324456823363185" lon="11.509015114044933"><ele>284.0</ele><time>2026-04-11T04:19:54.998Z</time></trkpt><trkpt lat="43.32449357132968" lon="11.509099174841253"><ele>284.83333333333337</ele><time>2026-04-11T04:19:56.998Z</time></trkpt><trkpt lat="43.32454107132405" lon="11.509196879909608"><ele>285.6666666666667</ele><time>2026-04-11T04:19:59.998Z</time></trkpt><trkpt lat="43.32460105921732" lon="11.509281292221202"><ele>286.5</ele><time>2026-04-11T04:20:02.998Z</time></trkpt><trkpt lat="43.324668054466564" lon="11.509361380272578"><ele>287.3333333333333</ele><time>2026-04-11T04:20:05.998Z</time></trkpt><trkpt lat="43.32473376639025" lon="11.509411167584599"><ele>288.16666666666663</ele><time>2026-04-11T04:20:08.998Z</time></trkpt><trkpt lat="43.32479895260282" lon="11.509453570504796"><ele>289.0</ele><time>2026-04-11T04:20:10.998Z</time></trkpt><trkpt lat="43.3248765853124" lon="11.509486512515602"><ele>289.0</ele><time>2026-04-11T04:20:13.998Z</time></trkpt><trkpt lat="43.324964607025244" lon="11.509499394058924"><ele>289.0</ele><time>2026-04-11T04:20:17Z</time></trkpt><trkpt lat="43.3250562782308" lon="11.509501213167173"><ele>289.0</ele><time>2026-04-11T04:20:20Z</time></trkpt><trkpt lat="43.32511966353017" lon="11.509499668271621"><ele>289.0</ele><time>2026-04-11T04:20:22Z</time></trkpt><trkpt lat="43.32518211938303" lon="11.50948657711144"><ele>289.0</ele><time>2026-04-11T04:20:24Z</time></trkpt><trkpt lat="43.325244099695034" lon="11.509466623057241"><ele>289.0</ele><time>2026-04-11T04:20:26Z</time></trkpt><trkpt lat="43.32533840657403" lon="11.509434884583722"><ele>289.0</ele><time>2026-04-11T04:20:29Z</time></trkpt><trkpt lat="43.32540192833997" lon="11.50939912787899"><ele>289.0</ele><time>2026-04-11T04:20:31Z</time></trkpt><trkpt lat="43.32546957652476" lon="11.509367729549705"><ele>289.0</ele><time>2026-04-11T04:20:33Z</time></trkpt><trkpt lat="43.32553677924687" lon="11.509339053044553"><ele>289.0</ele><time>2026-04-11T04:20:35Z</time></trkpt><trkpt lat="43.32564565356242" lon="11.509288252423774"><ele>289.0</ele><time>2026-04-11T04:20:38Z</time></trkpt><trkpt lat="43.32570793649407" lon="11.509260666064996"><ele>289.0</ele><time>2026-04-11T04:20:40Z</time></trkpt><trkpt lat="43.32578526986072" lon="11.509222849213732"><ele>289.16666666666663</ele><time>2026-04-11T04:20:42Z</time></trkpt><trkpt lat="43.325857225065" lon="11.509197067469499"><ele>289.3333333333333</ele><time>2026-04-11T04:20:44Z</time></trkpt><trkpt lat="43.32592765982924" lon="11.509168451382424"><ele>289.5</ele><time>2026-04-11T04:20:46Z</time></trkpt><trkpt lat="43.32599633756278" lon="11.509140268432596"><ele>289.6666666666667</ele><time>2026-04-11T04:20:48Z</time></trkpt><trkpt lat="43.32606682351974" lon="11.509114533990306"><ele>289.83333333333337</ele><time>2026-04-11T04:20:50Z</time></trkpt><trkpt lat="43.32614483223664" lon="11.509086360219701"><ele>290.0</ele><time>2026-04-11T04:20:52Z</time></trkpt><trkpt lat="43.326219419544024" lon="11.50905757180352"><ele>290.0</ele><time>2026-04-11T04:20:54Z</time></trkpt><trkpt lat="43.32629459742345" lon="11.509024893658596"><ele>290.0</ele><time>2026-04-11T04:20:56Z</time></trkpt><trkpt lat="43.326364749139195" lon="11.508987434594854"><ele>290.0</ele><time>2026-04-11T04:20:58Z</time></trkpt><trkpt lat="43.32643730451797" lon="11.508953257742936"><ele>290.0</ele><time>2026-04-11T04:21:00Z</time></trkpt><trkpt lat="43.32650333285641" lon="11.508918900067417"><ele>290.0</ele><time>2026-04-11T04:21:02Z</time></trkpt><trkpt lat="43.32656892427381" lon="11.508880994445457"><ele>290.0</ele><time>2026-04-11T04:21:03.999Z</time></trkpt><trkpt lat="43.32663604442887" lon="11.508843057906072"><ele>290.0</ele><time>2026-04-11T04:21:05.999Z</time></trkpt><trkpt lat="43.32670273841955" lon="11.50880493841698"><ele>290.42857142857144</ele><time>2026-04-11T04:21:07.999Z</time></trkpt><trkpt lat="43.326771533882315" lon="11.508770745777353"><ele>290.8571428571429</ele><time>2026-04-11T04:21:09.999Z</time></trkpt><trkpt lat="43.32683473514033" lon="11.50872578446925"><ele>291.2857142857143</ele><time>2026-04-11T04:21:11.999Z</time></trkpt><trkpt lat="43.326901076793355" lon="11.50867986455138"><ele>291.7142857142857</ele><time>2026-04-11T04:21:13.999Z</time></trkpt><trkpt lat="43.326964952234746" lon="11.50863526628469"><ele>292.1428571428571</ele><time>2026-04-11T04:21:15.999Z</time></trkpt><trkpt lat="43.32703578152501" lon="11.508602004121514"><ele>292.57142857142856</ele><time>2026-04-11T04:21:17.999Z</time></trkpt><trkpt lat="43.32710209393552" lon="11.508561333879479"><ele>293.0</ele><time>2026-04-11T04:21:19.999Z</time></trkpt><trkpt lat="43.32716959774067" lon="11.508523553775461"><ele>294.0</ele><time>2026-04-11T04:21:21.999Z</time></trkpt><trkpt lat="43.32723552864868" lon="11.508487945523468"><ele>295.0</ele><time>2026-04-11T04:21:23.999Z</time></trkpt><trkpt lat="43.32729958940918" lon="11.508441450597875"><ele>296.0</ele><time>2026-04-11T04:21:25.999Z</time></trkpt><trkpt lat="43.32736843851495" lon="11.508398109056891"><ele>297.0</ele><time>2026-04-11T04:21:27.999Z</time></trkpt><trkpt lat="43.32743888230423" lon="11.508351892495952"><ele>298.0</ele><time>2026-04-11T04:21:29.999Z</time></trkpt><trkpt lat="43.32751021692487" lon="11.508306475026174"><ele>299.0</ele><time>2026-04-11T04:21:31.999Z</time></trkpt><trkpt lat="43.32757926159239" lon="11.508260630484079"><ele>299.0</ele><time>2026-04-11T04:21:33.999Z</time></trkpt><trkpt lat="43.32764830243156" lon="11.508217949422564"><ele>299.0</ele><time>2026-04-11T04:21:35.999Z</time></trkpt><trkpt lat="43.327715267290124" lon="11.508171759404041"><ele>299.0</ele><time>2026-04-11T04:21:37.999Z</time></trkpt><trkpt lat="43.32778188472871" lon="11.508125220869434"><ele>299.0</ele><time>2026-04-11T04:21:39.999Z</time></trkpt><trkpt lat="43.327849305068895" lon="11.508082543602846"><ele>299.0</ele><time>2026-04-11T04:21:41.999Z</time></trkpt><trkpt lat="43.327915565431226" lon="11.508039124938971"><ele>299.0</ele><time>2026-04-11T04:21:43.999Z</time></trkpt><trkpt lat="43.32798189251377" lon="11.507998283223706"><ele>299.0</ele><time>2026-04-11T04:21:45.999Z</time></trkpt><trkpt lat="43.32804928141575" lon="11.507952531467005"><ele>299.2857142857143</ele><time>2026-04-11T04:21:47.999Z</time></trkpt><trkpt lat="43.32811304108337" lon="11.507913007211151"><ele>299.57142857142856</ele><time>2026-04-11T04:21:49.999Z</time></trkpt><trkpt lat="43.32817998986264" lon="11.507870866139985"><ele>299.8571428571429</ele><time>2026-04-11T04:21:51.999Z</time></trkpt><trkpt lat="43.328244236710105" lon="11.50782550509088"><ele>300.1428571428571</ele><time>2026-04-11T04:21:53.999Z</time></trkpt><trkpt lat="43.328308844326514" lon="11.507777937694392"><ele>300.42857142857144</ele><time>2026-04-11T04:21:55.999Z</time></trkpt><trkpt lat="43.32837546357901" lon="11.507736661205929"><ele>300.7142857142857</ele><time>2026-04-11T04:21:57.998Z</time></trkpt><trkpt lat="43.32844309789934" lon="11.50769437767238"><ele>301.0</ele><time>2026-04-11T04:21:59.998Z</time></trkpt><trkpt lat="43.32851615356221" lon="11.507652910035924"><ele>301.3333333333333</ele><time>2026-04-11T04:22:01.998Z</time></trkpt><trkpt lat="43.3285821192775" lon="11.50761022935035"><ele>301.66666666666663</ele><time>2026-04-11T04:22:03.998Z</time></trkpt><trkpt lat="43.32864443823111" lon="11.507560532032114"><ele>302.0</ele><time>2026-04-11T04:22:05.998Z</time></trkpt><trkpt lat="43.328714354033146" lon="11.507517949617794"><ele>302.3333333333333</ele><time>2026-04-11T04:22:07.998Z</time></trkpt><trkpt lat="43.328784480065075" lon="11.507476426233824"><ele>302.6666666666667</ele><time>2026-04-11T04:22:09.998Z</time></trkpt><trkpt lat="43.3288790251265" lon="11.50741143112496"><ele>303.0</ele><time>2026-04-11T04:22:12.998Z</time></trkpt><trkpt lat="43.32895460932103" lon="11.50735977447068"><ele>303.57142857142856</ele><time>2026-04-11T04:22:14.998Z</time></trkpt><trkpt lat="43.329020080610825" lon="11.507317513935472"><ele>304.1428571428571</ele><time>2026-04-11T04:22:16.998Z</time></trkpt><trkpt lat="43.32908747715341" lon="11.50728777736414"><ele>304.71428571428567</ele><time>2026-04-11T04:22:18.998Z</time></trkpt><trkpt lat="43.329154062129966" lon="11.507256192596683"><ele>305.2857142857143</ele><time>2026-04-11T04:22:20.998Z</time></trkpt><trkpt lat="43.329220754573605" lon="11.507230693597855"><ele>305.85714285714283</ele><time>2026-04-11T04:22:23Z</time></trkpt><trkpt lat="43.329290601131596" lon="11.507207452376475"><ele>306.4285714285714</ele><time>2026-04-11T04:22:25Z</time></trkpt><trkpt lat="43.329356401125374" lon="11.507186076407061"><ele>307.0</ele><time>2026-04-11T04:22:27Z</time></trkpt><trkpt lat="43.329422740422395" lon="11.507167183075632"><ele>306.99999999999994</ele><time>2026-04-11T04:22:29Z</time></trkpt><trkpt lat="43.3294902849991" lon="11.507156319178076"><ele>307.0</ele><time>2026-04-11T04:22:31Z</time></trkpt><trkpt lat="43.32956008938724" lon="11.507142653751187"><ele>307.0</ele><time>2026-04-11T04:22:33Z</time></trkpt><trkpt lat="43.329638250155874" lon="11.507131832079985"><ele>307.0</ele><time>2026-04-11T04:22:35Z</time></trkpt><trkpt lat="43.329709876343145" lon="11.507125781324127"><ele>307.0</ele><time>2026-04-11T04:22:37Z</time></trkpt><trkpt lat="43.329781485241135" lon="11.507108565845531"><ele>306.99999999999994</ele><time>2026-04-11T04:22:39Z</time></trkpt><trkpt lat="43.32985687957353" lon="11.507086277993995"><ele>307.0</ele><time>2026-04-11T04:22:41Z</time></trkpt><trkpt lat="43.32993307367191" lon="11.507072418477447"><ele>306.99999999999994</ele><time>2026-04-11T04:22:43Z</time></trkpt><trkpt lat="43.330008547254494" lon="11.507051809381034"><ele>307.0</ele><time>2026-04-11T04:22:45Z</time></trkpt><trkpt lat="43.33008149207874" lon="11.50703422502805"><ele>307.0</ele><time>2026-04-11T04:22:47Z</time></trkpt><trkpt lat="43.33015373552137" lon="11.507019857006574"><ele>307.0</ele><time>2026-04-11T04:22:49Z</time></trkpt><trkpt lat="43.330225531817575" lon="11.50701312350262"><ele>307.0</ele><time>2026-04-11T04:22:51Z</time></trkpt><trkpt lat="43.33029322762833" lon="11.507003726983863"><ele>306.99999999999994</ele><time>2026-04-11T04:22:53Z</time></trkpt><trkpt lat="43.33036264340807" lon="11.506985213098885"><ele>307.0</ele><time>2026-04-11T04:22:55Z</time></trkpt><trkpt lat="43.3304352662942" lon="11.506976678230359"><ele>306.99999999999994</ele><time>2026-04-11T04:22:57Z</time></trkpt><trkpt lat="43.33050769443747" lon="11.506962056231874"><ele>307.0</ele><time>2026-04-11T04:22:59Z</time></trkpt><trkpt lat="43.33058010595879" lon="11.506947769937701"><ele>307.0</ele><time>2026-04-11T04:23:01Z</time></trkpt><trkpt lat="43.33065284461654" lon="11.506932661219185"><ele>307.0</ele><time>2026-04-11T04:23:03Z</time></trkpt><trkpt lat="43.330725700465386" lon="11.506918678709786"><ele>307.0</ele><time>2026-04-11T04:23:05Z</time></trkpt><trkpt lat="43.33080081478671" lon="11.506906684565829"><ele>306.99999999999994</ele><time>2026-04-11T04:23:07Z</time></trkpt><trkpt lat="43.33087427769288" lon="11.506895209701467"><ele>307.0</ele><time>2026-04-11T04:23:09Z</time></trkpt><trkpt lat="43.33094731737994" lon="11.506877983434208"><ele>307.57142857142856</ele><time>2026-04-11T04:23:11Z</time></trkpt><trkpt lat="43.331021211858825" lon="11.50686036448286"><ele>308.1428571428571</ele><time>2026-04-11T04:23:12.999Z</time></trkpt><trkpt lat="43.33109543854449" lon="11.506847194738553"><ele>308.71428571428567</ele><time>2026-04-11T04:23:14.999Z</time></trkpt><trkpt lat="43.33116779505165" lon="11.506820791033839"><ele>309.2857142857143</ele><time>2026-04-11T04:23:16.999Z</time></trkpt><trkpt lat="43.33124031509875" lon="11.506801234240395"><ele>309.8571428571429</ele><time>2026-04-11T04:23:18.999Z</time></trkpt><trkpt lat="43.331310409294304" lon="11.50676895740721"><ele>310.4285714285714</ele><time>2026-04-11T04:23:20.999Z</time></trkpt><trkpt lat="43.33138204481069" lon="11.50673124460331"><ele>311.0</ele><time>2026-04-11T04:23:22.999Z</time></trkpt><trkpt lat="43.33145139586207" lon="11.50669572864707"><ele>311.5</ele><time>2026-04-11T04:23:24.999Z</time></trkpt><trkpt lat="43.331519745135346" lon="11.506659405903369"><ele>312.0</ele><time>2026-04-11T04:23:26.999Z</time></trkpt><trkpt lat="43.33158508866976" lon="11.50662095441467"><ele>312.5</ele><time>2026-04-11T04:23:28.999Z</time></trkpt><trkpt lat="43.33165419464524" lon="11.506573677053634"><ele>313.0</ele><time>2026-04-11T04:23:30.999Z</time></trkpt><trkpt lat="43.331721449928764" lon="11.506527248197242"><ele>313.5</ele><time>2026-04-11T04:23:32.999Z</time></trkpt><trkpt lat="43.33179169966374" lon="11.506486347849755"><ele>314.0</ele><time>2026-04-11T04:23:34.999Z</time></trkpt><trkpt lat="43.33185854851414" lon="11.506432707248578"><ele>314.0</ele><time>2026-04-11T04:23:36.999Z</time></trkpt><trkpt lat="43.33192659824753" lon="11.506390236844249"><ele>314.0</ele><time>2026-04-11T04:23:38.999Z</time></trkpt><trkpt lat="43.331997979749985" lon="11.50634679932728"><ele>314.0</ele><time>2026-04-11T04:23:40.999Z</time></trkpt><trkpt lat="43.33206535751146" lon="11.50629413321347"><ele>314.0</ele><time>2026-04-11T04:23:42.999Z</time></trkpt><trkpt lat="43.332136134854316" lon="11.506248009808983"><ele>314.0</ele><time>2026-04-11T04:23:44.999Z</time></trkpt><trkpt lat="43.33220531859409" lon="11.506203946826055"><ele>314.0</ele><time>2026-04-11T04:23:46.999Z</time></trkpt><trkpt lat="43.33227190312232" lon="11.506156859797422"><ele>314.33333333333337</ele><time>2026-04-11T04:23:48.999Z</time></trkpt><trkpt lat="43.33234302052844" lon="11.506112120406437"><ele>314.6666666666667</ele><time>2026-04-11T04:23:50.999Z</time></trkpt><trkpt lat="43.33241478574778" lon="11.506064015310905"><ele>315.0</ele><time>2026-04-11T04:23:52.999Z</time></trkpt><trkpt lat="43.33248597616225" lon="11.506017917964007"><ele>315.3333333333333</ele><time>2026-04-11T04:23:54.999Z</time></trkpt><trkpt lat="43.33256070271754" lon="11.505970000613734"><ele>315.66666666666663</ele><time>2026-04-11T04:23:56.999Z</time></trkpt><trkpt lat="43.33263540434468" lon="11.505938317527004"><ele>316.0</ele><time>2026-04-11T04:23:58.999Z</time></trkpt><trkpt lat="43.332709901800925" lon="11.505904004115243"><ele>316.0</ele><time>2026-04-11T04:24:00.999Z</time></trkpt><trkpt lat="43.33278691113229" lon="11.505878377824503"><ele>316.0</ele><time>2026-04-11T04:24:02.999Z</time></trkpt><trkpt lat="43.33286332061808" lon="11.50585525265944"><ele>316.0</ele><time>2026-04-11T04:24:04.999Z</time></trkpt><trkpt lat="43.3329394304181" lon="11.505837239573996"><ele>316.0</ele><time>2026-04-11T04:24:06.998Z</time></trkpt><trkpt lat="43.33301694134505" lon="11.505821251500326"><ele>316.0</ele><time>2026-04-11T04:24:08.998Z</time></trkpt><trkpt lat="43.33309508264753" lon="11.505803528457866"><ele>316.0</ele><time>2026-04-11T04:24:10.998Z</time></trkpt><trkpt lat="43.33317164697345" lon="11.505783457109171"><ele>316.0</ele><time>2026-04-11T04:24:12.998Z</time></trkpt><trkpt lat="43.333247154797824" lon="11.505765414932606"><ele>316.0</ele><time>2026-04-11T04:24:14.998Z</time></trkpt><trkpt lat="43.33332386244867" lon="11.505755577582924"><ele>316.0</ele><time>2026-04-11T04:24:16.998Z</time></trkpt><trkpt lat="43.3334026153741" lon="11.505741428063892"><ele>316.0</ele><time>2026-04-11T04:24:18.998Z</time></trkpt><trkpt lat="43.333479426411664" lon="11.505726317942568"><ele>316.0</ele><time>2026-04-11T04:24:20.998Z</time></trkpt><trkpt lat="43.33355917076813" lon="11.50571259148458"><ele>316.0</ele><time>2026-04-11T04:24:22.998Z</time></trkpt><trkpt lat="43.3336404985648" lon="11.505689819683992"><ele>316.0</ele><time>2026-04-11T04:24:24.998Z</time></trkpt><trkpt lat="43.333723483061675" lon="11.505679436765446"><ele>316.0</ele><time>2026-04-11T04:24:26.998Z</time></trkpt><trkpt lat="43.3338076777885" lon="11.505664083390045"><ele>316.0</ele><time>2026-04-11T04:24:29Z</time></trkpt><trkpt lat="43.33389416449541" lon="11.505643817612434"><ele>316.0</ele><time>2026-04-11T04:24:31Z</time></trkpt><trkpt lat="43.333979086615415" lon="11.505628610019857"><ele>316.0</ele><time>2026-04-11T04:24:33Z</time></trkpt><trkpt lat="43.33406670661866" lon="11.505608949228154"><ele>316.0</ele><time>2026-04-11T04:24:35Z</time></trkpt><trkpt lat="43.334153455344605" lon="11.50558934447415"><ele>315.8333333333333</ele><time>2026-04-11T04:24:37Z</time></trkpt><trkpt lat="43.334241880928126" lon="11.505571802147585"><ele>315.66666666666663</ele><time>2026-04-11T04:24:39Z</time></trkpt><trkpt lat="43.33432708411907" lon="11.505552155937703"><ele>315.5</ele><time>2026-04-11T04:24:41Z</time></trkpt><trkpt lat="43.33441200732146" lon="11.50554033840288"><ele>315.3333333333333</ele><time>2026-04-11T04:24:43Z</time></trkpt><trkpt lat="43.33449848575706" lon="11.505524372810228"><ele>315.1666666666667</ele><time>2026-04-11T04:24:45Z</time></trkpt><trkpt lat="43.33458237360849" lon="11.505504619024427"><ele>315.0</ele><time>2026-04-11T04:24:47Z</time></trkpt><trkpt lat="43.33466754290846" lon="11.505488548741097"><ele>314.8333333333333</ele><time>2026-04-11T04:24:49Z</time></trkpt><trkpt lat="43.33475505165536" lon="11.505473925483516"><ele>314.6666666666667</ele><time>2026-04-11T04:24:51Z</time></trkpt><trkpt lat="43.334843408797745" lon="11.505455366980435"><ele>314.5</ele><time>2026-04-11T04:24:53Z</time></trkpt><trkpt lat="43.33493101617207" lon="11.50544133904265"><ele>314.33333333333337</ele><time>2026-04-11T04:24:55Z</time></trkpt><trkpt lat="43.33501800567625" lon="11.50541673095165"><ele>314.1666666666667</ele><time>2026-04-11T04:24:57Z</time></trkpt><trkpt lat="43.335105720161394" lon="11.50539675558934"><ele>314.0</ele><time>2026-04-11T04:24:59Z</time></trkpt><trkpt lat="43.33519354552909" lon="11.505378877357193"><ele>314.6666666666667</ele><time>2026-04-11T04:25:01Z</time></trkpt><trkpt lat="43.335279194007434" lon="11.505361810132024"><ele>315.33333333333337</ele><time>2026-04-11T04:25:03Z</time></trkpt><trkpt lat="43.33536460059311" lon="11.5053430536835"><ele>316.0</ele><time>2026-04-11T04:25:05Z</time></trkpt><trkpt lat="43.33545142846837" lon="11.505324919092162"><ele>316.6666666666667</ele><time>2026-04-11T04:25:07Z</time></trkpt><trkpt lat="43.33553548155348" lon="11.505305247464136"><ele>317.3333333333333</ele><time>2026-04-11T04:25:09Z</time></trkpt><trkpt lat="43.335621489112675" lon="11.505289859860236"><ele>318.0</ele><time>2026-04-11T04:25:11Z</time></trkpt><trkpt lat="43.33570478850865" lon="11.505266997337522"><ele>318.0</ele><time>2026-04-11T04:25:13Z</time></trkpt><trkpt lat="43.33578604602989" lon="11.505246919725353"><ele>318.0</ele><time>2026-04-11T04:25:15Z</time></trkpt><trkpt lat="43.33586914381379" lon="11.505235564245346"><ele>318.0</ele><time>2026-04-11T04:25:17Z</time></trkpt><trkpt lat="43.33595146580952" lon="11.505216343556262"><ele>318.0</ele><time>2026-04-11T04:25:19Z</time></trkpt><trkpt lat="43.33603348921119" lon="11.50519774168315"><ele>318.0</ele><time>2026-04-11T04:25:21Z</time></trkpt><trkpt lat="43.336115703287085" lon="11.505184186164074"><ele>318.0</ele><time>2026-04-11T04:25:23Z</time></trkpt><trkpt lat="43.33619770246246" lon="11.5051753047377"><ele>318.0</ele><time>2026-04-11T04:25:24.999Z</time></trkpt><trkpt lat="43.33627899653295" lon="11.505159541042593"><ele>318.0</ele><time>2026-04-11T04:25:26.999Z</time></trkpt><trkpt lat="43.336358953713315" lon="11.505144269246097"><ele>318.0</ele><time>2026-04-11T04:25:28.999Z</time></trkpt><trkpt lat="43.336437815152195" lon="11.50513224693816"><ele>318.0</ele><time>2026-04-11T04:25:30.999Z</time></trkpt><trkpt lat="43.336523125693226" lon="11.5051172069815"><ele>318.0</ele><time>2026-04-11T04:25:33.999Z</time></trkpt><trkpt lat="43.336590672045126" lon="11.505106618262419"><ele>318.0</ele><time>2026-04-11T04:25:34.999Z</time></trkpt><trkpt lat="43.33666511066184" lon="11.505089138234995"><ele>319.0</ele><time>2026-04-11T04:25:36.999Z</time></trkpt><trkpt lat="43.336740758695946" lon="11.505084870903287"><ele>320.0</ele><time>2026-04-11T04:25:38.999Z</time></trkpt><trkpt lat="43.33682266179671" lon="11.505077394932377"><ele>321.0</ele><time>2026-04-11T04:25:40.999Z</time></trkpt><trkpt lat="43.33690240348488" lon="11.505077547884126"><ele>322.0</ele><time>2026-04-11T04:25:42.999Z</time></trkpt><trkpt lat="43.336982639601274" lon="11.505088456653416"><ele>323.0</ele><time>2026-04-11T04:25:44.999Z</time></trkpt><trkpt lat="43.3370593743135" lon="11.505109131805533"><ele>324.0</ele><time>2026-04-11T04:25:46.999Z</time></trkpt><trkpt lat="43.337139271862284" lon="11.505129181189496"><ele>324.0</ele><time>2026-04-11T04:25:48.999Z</time></trkpt><trkpt lat="43.33721852500867" lon="11.50514659769037"><ele>324.0</ele><time>2026-04-11T04:25:50.999Z</time></trkpt><trkpt lat="43.33729324404369" lon="11.50518215019793"><ele>324.0</ele><time>2026-04-11T04:25:52.999Z</time></trkpt><trkpt lat="43.33736959331752" lon="11.50521875445734"><ele>324.0</ele><time>2026-04-11T04:25:54.999Z</time></trkpt><trkpt lat="43.337444434682254" lon="11.505263337111392"><ele>324.0</ele><time>2026-04-11T04:25:56.999Z</time></trkpt><trkpt lat="43.33751676884183" lon="11.505307236486074"><ele>324.0</ele><time>2026-04-11T04:25:58.999Z</time></trkpt><trkpt lat="43.33759320749169" lon="11.505349461117996"><ele>324.1666666666667</ele><time>2026-04-11T04:26:00.999Z</time></trkpt><trkpt lat="43.337667114723416" lon="11.505394887194623"><ele>324.3333333333333</ele><time>2026-04-11T04:26:02.999Z</time></trkpt><trkpt lat="43.33773949339638" lon="11.50543930573206"><ele>324.5</ele><time>2026-04-11T04:26:04.999Z</time></trkpt><trkpt lat="43.33781123251956" lon="11.505500639416082"><ele>324.66666666666663</ele><time>2026-04-11T04:26:06.999Z</time></trkpt><trkpt lat="43.337885607676604" lon="11.505551015649862"><ele>324.8333333333333</ele><time>2026-04-11T04:26:08.999Z</time></trkpt><trkpt lat="43.337955859783094" lon="11.50559988427833"><ele>325.0</ele><time>2026-04-11T04:26:10.999Z</time></trkpt><trkpt lat="43.338026698214634" lon="11.505648550219766"><ele>326.0</ele><time>2026-04-11T04:26:12.999Z</time></trkpt><trkpt lat="43.338097729039426" lon="11.505683295700006"><ele>327.0</ele><time>2026-04-11T04:26:14.999Z</time></trkpt><trkpt lat="43.338163421905385" lon="11.505724890210493"><ele>328.0</ele><time>2026-04-11T04:26:16.999Z</time></trkpt><trkpt lat="43.338231993602555" lon="11.505761540667681"><ele>329.0</ele><time>2026-04-11T04:26:18.998Z</time></trkpt><trkpt lat="43.33829830747217" lon="11.505794366321245"><ele>330.0</ele><time>2026-04-11T04:26:20.998Z</time></trkpt><trkpt lat="43.33836758174803" lon="11.505820172614172"><ele>331.0</ele><time>2026-04-11T04:26:22.998Z</time></trkpt><trkpt lat="43.338436025199584" lon="11.505838354677579"><ele>332.0</ele><time>2026-04-11T04:26:24.998Z</time></trkpt><trkpt lat="43.338503866472614" lon="11.505849289643608"><ele>332.0</ele><time>2026-04-11T04:26:26.998Z</time></trkpt><trkpt lat="43.33856705813199" lon="11.505866157628024"><ele>332.0</ele><time>2026-04-11T04:26:28.998Z</time></trkpt><trkpt lat="43.33865532358568" lon="11.50588983650775"><ele>332.0</ele><time>2026-04-11T04:26:31.998Z</time></trkpt><trkpt lat="43.338746676097166" lon="11.505891433949897"><ele>332.0</ele><time>2026-04-11T04:26:35Z</time></trkpt><trkpt lat="43.33881006000463" lon="11.505888068359999"><ele>332.0</ele><time>2026-04-11T04:26:37Z</time></trkpt><trkpt lat="43.33887941313095" lon="11.505881586334434"><ele>332.0</ele><time>2026-04-11T04:26:39Z</time></trkpt><trkpt lat="43.33895860144958" lon="11.505867165855511"><ele>332.7142857142857</ele><time>2026-04-11T04:26:42Z</time></trkpt><trkpt lat="43.33904944200876" lon="11.505846675390295"><ele>333.42857142857144</ele><time>2026-04-11T04:26:45Z</time></trkpt><trkpt lat="43.33911116271074" lon="11.505826655343757"><ele>334.14285714285717</ele><time>2026-04-11T04:26:47Z</time></trkpt><trkpt lat="43.33920079699591" lon="11.505801601761915"><ele>334.8571428571429</ele><time>2026-04-11T04:26:50Z</time></trkpt><trkpt lat="43.33926370201476" lon="11.505780822614959"><ele>335.57142857142856</ele><time>2026-04-11T04:26:52Z</time></trkpt><trkpt lat="43.339326642973376" lon="11.505757817858768"><ele>336.28571428571433</ele><time>2026-04-11T04:26:54Z</time></trkpt><trkpt lat="43.33939257573169" lon="11.50573205272128"><ele>337.0</ele><time>2026-04-11T04:26:56Z</time></trkpt><trkpt lat="43.339456702417664" lon="11.505706971348621"><ele>337.00000000000006</ele><time>2026-04-11T04:26:58Z</time></trkpt><trkpt lat="43.339522870015166" lon="11.505687573091247"><ele>337.0</ele><time>2026-04-11T04:27:00Z</time></trkpt><trkpt lat="43.33958991296396" lon="11.505664580084463"><ele>337.0</ele><time>2026-04-11T04:27:02Z</time></trkpt><trkpt lat="43.33966367001232" lon="11.505639918493275"><ele>337.0</ele><time>2026-04-11T04:27:04Z</time></trkpt><trkpt lat="43.33973547187761" lon="11.505613747544903"><ele>337.0</ele><time>2026-04-11T04:27:06Z</time></trkpt><trkpt lat="43.339804686653565" lon="11.505590742443049"><ele>337.00000000000006</ele><time>2026-04-11T04:27:07Z</time></trkpt><trkpt lat="43.339879260335586" lon="11.50556071673146"><ele>337.0</ele><time>2026-04-11T04:27:09Z</time></trkpt><trkpt lat="43.33996766943354" lon="11.505555390392221"><ele>336.8333333333333</ele><time>2026-04-11T04:27:11Z</time></trkpt><trkpt lat="43.340047646534444" lon="11.505527029266352"><ele>336.66666666666663</ele><time>2026-04-11T04:27:13Z</time></trkpt><trkpt lat="43.34013227584007" lon="11.505497670936832"><ele>336.5</ele><time>2026-04-11T04:27:15Z</time></trkpt><trkpt lat="43.340219328448974" lon="11.505467924558065"><ele>336.3333333333333</ele><time>2026-04-11T04:27:17Z</time></trkpt><trkpt lat="43.34030845057272" lon="11.505435185820788"><ele>336.1666666666667</ele><time>2026-04-11T04:27:19Z</time></trkpt><trkpt lat="43.3403983545383" lon="11.505402159873032"><ele>336.0</ele><time>2026-04-11T04:27:21Z</time></trkpt><trkpt lat="43.340466568222844" lon="11.505361091795038"><ele>335.75</ele><time>2026-04-11T04:27:23Z</time></trkpt><trkpt lat="43.340630735889555" lon="11.505364820345271"><ele>335.5</ele><time>2026-04-11T04:27:26Z</time></trkpt><trkpt lat="43.34072356791197" lon="11.505380554649934"><ele>335.25</ele><time>2026-04-11T04:27:28Z</time></trkpt><trkpt lat="43.340824283279105" lon="11.505341537510033"><ele>335.0</ele><time>2026-04-11T04:27:30Z</time></trkpt><trkpt lat="43.34092436906364" lon="11.505270843432138"><ele>335.0</ele><time>2026-04-11T04:27:32Z</time></trkpt><trkpt lat="43.34102437080535" lon="11.5052123770062"><ele>335.0</ele><time>2026-04-11T04:27:33.999Z</time></trkpt><trkpt lat="43.341124145312996" lon="11.505167947298201"><ele>335.0</ele><time>2026-04-11T04:27:35.999Z</time></trkpt><trkpt lat="43.341228369467295" lon="11.505124863304506"><ele>335.0</ele><time>2026-04-11T04:27:37.999Z</time></trkpt><trkpt lat="43.34133552553018" lon="11.50509198998071"><ele>335.0</ele><time>2026-04-11T04:27:39.999Z</time></trkpt><trkpt lat="43.3414361269172" lon="11.50506354390863"><ele>335.0</ele><time>2026-04-11T04:27:41.999Z</time></trkpt><trkpt lat="43.34152410718501" lon="11.505042305355484"><ele>335.0</ele><time>2026-04-11T04:27:43.999Z</time></trkpt><trkpt lat="43.34161779452253" lon="11.505022373647032"><ele>335.0</ele><time>2026-04-11T04:27:45.999Z</time></trkpt><trkpt lat="43.34171466278375" lon="11.505004075220146"><ele>335.0</ele><time>2026-04-11T04:27:47.999Z</time></trkpt><trkpt lat="43.34180510720307" lon="11.50498699024002"><ele>335.0</ele><time>2026-04-11T04:27:49.999Z</time></trkpt><trkpt lat="43.341900062236796" lon="11.504969053214955"><ele>335.0</ele><time>2026-04-11T04:27:51.999Z</time></trkpt><trkpt lat="43.341996918998106" lon="11.50495075695014"><ele>335.0</ele><time>2026-04-11T04:27:53.999Z</time></trkpt><trkpt lat="43.34208774080002" lon="11.50493360069751"><ele>335.0</ele><time>2026-04-11T04:27:55.999Z</time></trkpt><trkpt lat="43.3421768948063" lon="11.50491663409984"><ele>335.0</ele><time>2026-04-11T04:27:57.999Z</time></trkpt><trkpt lat="43.3422656107169" lon="11.50489920455574"><ele>335.0</ele><time>2026-04-11T04:27:59.999Z</time></trkpt><trkpt lat="43.34235401776191" lon="11.504881744899263"><ele>335.6</ele><time>2026-04-11T04:28:01.999Z</time></trkpt><trkpt lat="43.34244455088485" lon="11.504865907111709"><ele>336.2</ele><time>2026-04-11T04:28:03.999Z</time></trkpt><trkpt lat="43.342537522402786" lon="11.504849642627224"><ele>336.79999999999995</ele><time>2026-04-11T04:28:05.999Z</time></trkpt><trkpt lat="43.34262167209438" lon="11.504771530025629"><ele>337.4</ele><time>2026-04-11T04:28:07.999Z</time></trkpt><trkpt lat="43.342716667936166" lon="11.504757966427633"><ele>338.0</ele><time>2026-04-11T04:28:09.999Z</time></trkpt><trkpt lat="43.34281163591942" lon="11.504738051710866"><ele>338.0</ele><time>2026-04-11T04:28:11.999Z</time></trkpt><trkpt lat="43.342907722410686" lon="11.504725409047403"><ele>338.0</ele><time>2026-04-11T04:28:13.999Z</time></trkpt><trkpt lat="43.34298243438479" lon="11.504709170711"><ele>338.0</ele><time>2026-04-11T04:28:16.999Z</time></trkpt><trkpt lat="43.343089942124" lon="11.504666986497416"><ele>338.0</ele><time>2026-04-11T04:28:17.999Z</time></trkpt><trkpt lat="43.34318750376531" lon="11.50464842548671"><ele>338.0</ele><time>2026-04-11T04:28:19.999Z</time></trkpt><trkpt lat="43.3432878035937" lon="11.504636644658243"><ele>338.0</ele><time>2026-04-11T04:28:21.999Z</time></trkpt><trkpt lat="43.3433886926265" lon="11.50462376780318"><ele>338.0</ele><time>2026-04-11T04:28:23.999Z</time></trkpt><trkpt lat="43.343489747313846" lon="11.504611294809061"><ele>338.0</ele><time>2026-04-11T04:28:25.998Z</time></trkpt><trkpt lat="43.34360243760748" lon="11.504649578708248"><ele>338.0</ele><time>2026-04-11T04:28:27.998Z</time></trkpt><trkpt lat="43.343709860291064" lon="11.504629272649925"><ele>338.0</ele><time>2026-04-11T04:28:29.998Z</time></trkpt><trkpt lat="43.3438159641205" lon="11.504609367257114"><ele>338.0</ele><time>2026-04-11T04:28:31.998Z</time></trkpt><trkpt lat="43.34391919733852" lon="11.504589978080524"><ele>338.0</ele><time>2026-04-11T04:28:33.998Z</time></trkpt><trkpt lat="43.344028211554395" lon="11.504569504837722"><ele>338.0</ele><time>2026-04-11T04:28:35.998Z</time></trkpt><trkpt lat="43.344137262116064" lon="11.504549023045678"><ele>338.0</ele><time>2026-04-11T04:28:37.998Z</time></trkpt><trkpt lat="43.344243834173405" lon="11.504529320282073"><ele>338.0</ele><time>2026-04-11T04:28:40Z</time></trkpt><trkpt lat="43.344348419934356" lon="11.504511012755591"><ele>337.59999999999997</ele><time>2026-04-11T04:28:42Z</time></trkpt><trkpt lat="43.34445348219027" lon="11.50449262182094"><ele>337.2</ele><time>2026-04-11T04:28:44Z</time></trkpt><trkpt lat="43.34455579664715" lon="11.504480574661955"><ele>336.8</ele><time>2026-04-11T04:28:46Z</time></trkpt><trkpt lat="43.34464465860338" lon="11.504471825812777"><ele>336.4</ele><time>2026-04-11T04:28:48Z</time></trkpt><trkpt lat="43.34472333609597" lon="11.504477545718641"><ele>336.0</ele><time>2026-04-11T04:28:50Z</time></trkpt><trkpt lat="43.344830625317904" lon="11.504256840572712"><ele>337.4</ele><time>2026-04-11T04:28:52Z</time></trkpt><trkpt lat="43.34488823903251" lon="11.504131511705998"><ele>338.8</ele><time>2026-04-11T04:28:54Z</time></trkpt><trkpt lat="43.344943486684414" lon="11.504011329868307"><ele>340.2</ele><time>2026-04-11T04:28:56Z</time></trkpt><trkpt lat="43.344997097173" lon="11.503880264356415"><ele>341.59999999999997</ele><time>2026-04-11T04:28:58Z</time></trkpt><trkpt lat="43.34503839911381" lon="11.503753606783468"><ele>343.0</ele><time>2026-04-11T04:29:00Z</time></trkpt><trkpt lat="43.34507494246251" lon="11.503640812689415"><ele>343.0</ele><time>2026-04-11T04:29:02Z</time></trkpt><trkpt lat="43.3450962139366" lon="11.5035008236195"><ele>343.0</ele><time>2026-04-11T04:29:04Z</time></trkpt><trkpt lat="43.344980093981874" lon="11.503427875195172"><ele>343.0</ele><time>2026-04-11T04:29:05Z</time></trkpt><trkpt lat="43.34494523715626" lon="11.503321267437519"><ele>343.0</ele><time>2026-04-11T04:29:07Z</time></trkpt><trkpt lat="43.34490759792375" lon="11.503209528097852"><ele>343.0</ele><time>2026-04-11T04:29:09Z</time></trkpt><trkpt lat="43.344887847964046" lon="11.503091166894123"><ele>343.0</ele><time>2026-04-11T04:29:11Z</time></trkpt><trkpt lat="43.3448874181807" lon="11.502951413308145"><ele>343.0</ele><time>2026-04-11T04:29:13Z</time></trkpt><trkpt lat="43.344900073237326" lon="11.502815872076365"><ele>343.0</ele><time>2026-04-11T04:29:15Z</time></trkpt><trkpt lat="43.34492532572902" lon="11.502669827793671"><ele>343.0</ele><time>2026-04-11T04:29:17Z</time></trkpt><trkpt lat="43.34500359733454" lon="11.502472398541626"><ele>343.16666666666663</ele><time>2026-04-11T04:29:20Z</time></trkpt><trkpt lat="43.345059914700265" lon="11.502314276621828"><ele>343.3333333333333</ele><time>2026-04-11T04:29:22Z</time></trkpt><trkpt lat="43.34508899168823" lon="11.50223204596514"><ele>343.5</ele><time>2026-04-11T04:29:23Z</time></trkpt><trkpt lat="43.34512137707818" lon="11.502139280890528"><ele>343.6666666666667</ele><time>2026-04-11T04:29:24Z</time></trkpt><trkpt lat="43.34515205095541" lon="11.50204766111176"><ele>343.83333333333337</ele><time>2026-04-11T04:29:25Z</time></trkpt><trkpt lat="43.34518179448425" lon="11.50195231000314"><ele>344.0</ele><time>2026-04-11T04:29:26Z</time></trkpt><trkpt lat="43.34520967114825" lon="11.501854315626524"><ele>342.8571428571429</ele><time>2026-04-11T04:29:27Z</time></trkpt><trkpt lat="43.34523526893506" lon="11.501752749692265"><ele>341.7142857142857</ele><time>2026-04-11T04:29:28Z</time></trkpt><trkpt lat="43.345233725669814" lon="11.501642169729372"><ele>340.57142857142856</ele><time>2026-04-11T04:29:29Z</time></trkpt><trkpt lat="43.34520946552682" lon="11.501541716629475"><ele>339.42857142857144</ele><time>2026-04-11T04:29:30Z</time></trkpt><trkpt lat="43.345188307812805" lon="11.501449108170098"><ele>338.2857142857143</ele><time>2026-04-11T04:29:31Z</time></trkpt><trkpt lat="43.34516031933578" lon="11.50135784489305"><ele>337.14285714285717</ele><time>2026-04-11T04:29:32Z</time></trkpt><trkpt lat="43.34512876363805" lon="11.501270462565557"><ele>336.0</ele><time>2026-04-11T04:29:33Z</time></trkpt><trkpt lat="43.345099371137806" lon="11.501186956564657"><ele>335.8333333333333</ele><time>2026-04-11T04:29:34Z</time></trkpt><trkpt lat="43.34508069637178" lon="11.501099377063202"><ele>335.6666666666667</ele><time>2026-04-11T04:29:35Z</time></trkpt><trkpt lat="43.3450306408888" lon="11.501039731489119"><ele>335.5</ele><time>2026-04-11T04:29:36Z</time></trkpt><trkpt lat="43.34499293579266" lon="11.500932509433731"><ele>335.33333333333337</ele><time>2026-04-11T04:29:38Z</time></trkpt><trkpt lat="43.344928636862704" lon="11.50082850200827"><ele>335.1666666666667</ele><time>2026-04-11T04:29:40Z</time></trkpt><trkpt lat="43.34490814045433" lon="11.500724538708404"><ele>335.0</ele><time>2026-04-11T04:29:41.999Z</time></trkpt><trkpt lat="43.34495618745059" lon="11.500653893275956"><ele>335.0</ele><time>2026-04-11T04:29:43.999Z</time></trkpt><trkpt lat="43.34502286642199" lon="11.50059961880678"><ele>335.0</ele><time>2026-04-11T04:29:46.999Z</time></trkpt><trkpt lat="43.34506901737672" lon="11.500539442707103"><ele>335.0</ele><time>2026-04-11T04:29:49.999Z</time></trkpt><trkpt lat="43.345011348354845" lon="11.500389458288275"><ele>335.0</ele><time>2026-04-11T04:29:51.999Z</time></trkpt><trkpt lat="43.3449659805675" lon="11.500293772962365"><ele>335.0</ele><time>2026-04-11T04:29:53.999Z</time></trkpt><trkpt lat="43.34494376362862" lon="11.500179377412026"><ele>335.0</ele><time>2026-04-11T04:29:55.999Z</time></trkpt><trkpt lat="43.34490435874819" lon="11.500067351638553"><ele>335.0</ele><time>2026-04-11T04:29:57.999Z</time></trkpt><trkpt lat="43.344852372692756" lon="11.499944722261844"><ele>335.0</ele><time>2026-04-11T04:29:59.999Z</time></trkpt><trkpt lat="43.34480566597147" lon="11.499812171481688"><ele>335.0</ele><time>2026-04-11T04:30:01.999Z</time></trkpt><trkpt lat="43.34475511256101" lon="11.499679841254046"><ele>335.0</ele><time>2026-04-11T04:30:03.999Z</time></trkpt><trkpt lat="43.34470272375613" lon="11.499544968803832"><ele>335.0</ele><time>2026-04-11T04:30:05.999Z</time></trkpt><trkpt lat="43.34465050353177" lon="11.499404018550347"><ele>335.2</ele><time>2026-04-11T04:30:07.999Z</time></trkpt><trkpt lat="43.34459481094543" lon="11.499263523574271"><ele>335.4</ele><time>2026-04-11T04:30:09.999Z</time></trkpt><trkpt lat="43.34454325741328" lon="11.499114638900272"><ele>335.6</ele><time>2026-04-11T04:30:11.999Z</time></trkpt><trkpt lat="43.344483706997735" lon="11.498966605411747"><ele>335.8</ele><time>2026-04-11T04:30:13.999Z</time></trkpt><trkpt lat="43.344460313444316" lon="11.498885253542136"><ele>336.0</ele><time>2026-04-11T04:30:14.999Z</time></trkpt><trkpt lat="43.34443479424331" lon="11.498805683901129"><ele>335.7142857142857</ele><time>2026-04-11T04:30:15.999Z</time></trkpt><trkpt lat="43.344405504401756" lon="11.49872882644832"><ele>335.42857142857144</ele><time>2026-04-11T04:30:16.999Z</time></trkpt><trkpt lat="43.34438033507126" lon="11.498647349967797"><ele>335.1428571428571</ele><time>2026-04-11T04:30:17.999Z</time></trkpt><trkpt lat="43.34435738043666" lon="11.498564188897905"><ele>334.8571428571429</ele><time>2026-04-11T04:30:18.999Z</time></trkpt><trkpt lat="43.34433604735581" lon="11.498479514427663"><ele>334.57142857142856</ele><time>2026-04-11T04:30:19.999Z</time></trkpt><trkpt lat="43.344309735602636" lon="11.498399178119914"><ele>334.2857142857143</ele><time>2026-04-11T04:30:20.999Z</time></trkpt><trkpt lat="43.3442813043922" lon="11.498318488492506"><ele>334.0</ele><time>2026-04-11T04:30:21.999Z</time></trkpt><trkpt lat="43.344251474381466" lon="11.49823898754669"><ele>334.0</ele><time>2026-04-11T04:30:22.999Z</time></trkpt><trkpt lat="43.344223935158695" lon="11.498159177649274"><ele>334.0</ele><time>2026-04-11T04:30:23.999Z</time></trkpt><trkpt lat="43.34419487414857" lon="11.498078477000293"><ele>334.0</ele><time>2026-04-11T04:30:24.999Z</time></trkpt><trkpt lat="43.34416514051061" lon="11.498000500761094"><ele>334.0</ele><time>2026-04-11T04:30:25.999Z</time></trkpt><trkpt lat="43.344136997805066" lon="11.497921806369947"><ele>334.0</ele><time>2026-04-11T04:30:26.999Z</time></trkpt><trkpt lat="43.34410860628992" lon="11.497840085662476"><ele>334.0</ele><time>2026-04-11T04:30:27.999Z</time></trkpt><trkpt lat="43.34408083086522" lon="11.497757428810349"><ele>334.0</ele><time>2026-04-11T04:30:28.999Z</time></trkpt><trkpt lat="43.34405233034706" lon="11.497674360038257"><ele>334.0</ele><time>2026-04-11T04:30:29.999Z</time></trkpt><trkpt lat="43.34402012574569" lon="11.497594912465534"><ele>334.0</ele><time>2026-04-11T04:30:30.999Z</time></trkpt><trkpt lat="43.343989328967595" lon="11.497515915313635"><ele>334.0</ele><time>2026-04-11T04:30:31.999Z</time></trkpt><trkpt lat="43.34395721946597" lon="11.497440313337199"><ele>334.0</ele><time>2026-04-11T04:30:32.999Z</time></trkpt><trkpt lat="43.343900325018296" lon="11.497289605736293"><ele>334.0</ele><time>2026-04-11T04:30:34.998Z</time></trkpt><trkpt lat="43.34384591012915" lon="11.49714674437889"><ele>334.0</ele><time>2026-04-11T04:30:36.998Z</time></trkpt><trkpt lat="43.34380991269574" lon="11.497075661175613"><ele>334.0</ele><time>2026-04-11T04:30:37.998Z</time></trkpt><trkpt lat="43.34372734852483" lon="11.496955796372534"><ele>334.0</ele><time>2026-04-11T04:30:39.998Z</time></trkpt><trkpt lat="43.34364381884065" lon="11.496847392274061"><ele>334.0</ele><time>2026-04-11T04:30:41.998Z</time></trkpt><trkpt lat="43.343558254494795" lon="11.496745958383046"><ele>334.0</ele><time>2026-04-11T04:30:43.998Z</time></trkpt><trkpt lat="43.343515096044676" lon="11.496681634876749"><ele>334.0</ele><time>2026-04-11T04:30:44.998Z</time></trkpt><trkpt lat="43.34346740327541" lon="11.496622977990897"><ele>334.0</ele><time>2026-04-11T04:30:46Z</time></trkpt><trkpt lat="43.34337490162578" lon="11.496508097492107"><ele>334.0</ele><time>2026-04-11T04:30:48Z</time></trkpt><trkpt lat="43.343329928026215" lon="11.49644547298212"><ele>334.0</ele><time>2026-04-11T04:30:49Z</time></trkpt><trkpt lat="43.34328205514117" lon="11.49638600214662"><ele>334.0</ele><time>2026-04-11T04:30:50Z</time></trkpt><trkpt lat="43.34323294158943" lon="11.49632544700814"><ele>334.0</ele><time>2026-04-11T04:30:51Z</time></trkpt><trkpt lat="43.34318106421013" lon="11.4962642338571"><ele>334.0</ele><time>2026-04-11T04:30:52Z</time></trkpt><trkpt lat="43.34312896946247" lon="11.496206230450912"><ele>333.57142857142856</ele><time>2026-04-11T04:30:53Z</time></trkpt><trkpt lat="43.34307598295641" lon="11.496143933730787"><ele>333.14285714285717</ele><time>2026-04-11T04:30:54Z</time></trkpt><trkpt lat="43.34302495870669" lon="11.496079511238467"><ele>332.7142857142857</ele><time>2026-04-11T04:30:55Z</time></trkpt><trkpt lat="43.34297156449104" lon="11.496014264949642"><ele>332.2857142857143</ele><time>2026-04-11T04:30:56Z</time></trkpt><trkpt lat="43.34291929019007" lon="11.495948118862536"><ele>331.85714285714283</ele><time>2026-04-11T04:30:57Z</time></trkpt><trkpt lat="43.342863594359" lon="11.49588206648324"><ele>331.42857142857144</ele><time>2026-04-11T04:30:58Z</time></trkpt><trkpt lat="43.342802783073296" lon="11.495817552180732"><ele>331.0</ele><time>2026-04-11T04:30:59Z</time></trkpt><trkpt lat="43.3427440961313" lon="11.495739840132758"><ele>331.0</ele><time>2026-04-11T04:31:00Z</time></trkpt><trkpt lat="43.34268100330945" lon="11.495665272558185"><ele>331.0</ele><time>2026-04-11T04:31:01Z</time></trkpt><trkpt lat="43.342612241354395" lon="11.495589553361693"><ele>331.0</ele><time>2026-04-11T04:31:02Z</time></trkpt><trkpt lat="43.34254578671206" lon="11.49550568560009"><ele>331.0</ele><time>2026-04-11T04:31:03Z</time></trkpt><trkpt lat="43.34247496891972" lon="11.495413796049618"><ele>331.0</ele><time>2026-04-11T04:31:04Z</time></trkpt><trkpt lat="43.34239634769746" lon="11.495326629738178"><ele>329.4</ele><time>2026-04-11T04:31:05Z</time></trkpt><trkpt lat="43.34231722165761" lon="11.495231041672634"><ele>327.8</ele><time>2026-04-11T04:31:06Z</time></trkpt><trkpt lat="43.3422348757926" lon="11.49513330207752"><ele>326.2</ele><time>2026-04-11T04:31:07Z</time></trkpt><trkpt lat="43.34214961058007" lon="11.49503347991194"><ele>324.59999999999997</ele><time>2026-04-11T04:31:08Z</time></trkpt><trkpt lat="43.34205963025653" lon="11.494930582955085"><ele>323.0</ele><time>2026-04-11T04:31:09Z</time></trkpt><trkpt lat="43.34196883136166" lon="11.494825501017212"><ele>321.25</ele><time>2026-04-11T04:31:10Z</time></trkpt><trkpt lat="43.34187755307629" lon="11.494721379543353"><ele>319.5</ele><time>2026-04-11T04:31:11Z</time></trkpt><trkpt lat="43.34178698923563" lon="11.494613534379381"><ele>317.75</ele><time>2026-04-11T04:31:12Z</time></trkpt><trkpt lat="43.34169470596175" lon="11.49450394615684"><ele>316.0</ele><time>2026-04-11T04:31:13Z</time></trkpt><trkpt lat="43.34160094934596" lon="11.494399896936685"><ele>315.25</ele><time>2026-04-11T04:31:14Z</time></trkpt><trkpt lat="43.341509182731805" lon="11.494291246760325"><ele>314.5</ele><time>2026-04-11T04:31:15Z</time></trkpt><trkpt lat="43.34141976161491" lon="11.494182062514628"><ele>313.75</ele><time>2026-04-11T04:31:16Z</time></trkpt><trkpt lat="43.3413312246295" lon="11.494075029789268"><ele>313.0</ele><time>2026-04-11T04:31:17Z</time></trkpt><trkpt lat="43.34124424917417" lon="11.493973158662225"><ele>312.4</ele><time>2026-04-11T04:31:18Z</time></trkpt><trkpt lat="43.34115770639364" lon="11.493870772807472"><ele>311.8</ele><time>2026-04-11T04:31:19Z</time></trkpt><trkpt lat="43.34107379270203" lon="11.493768579481694"><ele>311.2</ele><time>2026-04-11T04:31:20Z</time></trkpt><trkpt lat="43.34098949504123" lon="11.49366911849599"><ele>310.6</ele><time>2026-04-11T04:31:21Z</time></trkpt><trkpt lat="43.34090714048078" lon="11.49357159609398"><ele>310.0</ele><time>2026-04-11T04:31:22Z</time></trkpt><trkpt lat="43.340828009902125" lon="11.493476688907428"><ele>310.0</ele><time>2026-04-11T04:31:23Z</time></trkpt><trkpt lat="43.34074863689115" lon="11.493384856948223"><ele>310.0</ele><time>2026-04-11T04:31:24Z</time></trkpt><trkpt lat="43.34067132697946" lon="11.493296901880004"><ele>310.0</ele><time>2026-04-11T04:31:25Z</time></trkpt><trkpt lat="43.3405967714371" lon="11.49320905473744"><ele>310.0</ele><time>2026-04-11T04:31:26Z</time></trkpt><trkpt lat="43.34052387387043" lon="11.493122359032158"><ele>310.0</ele><time>2026-04-11T04:31:27Z</time></trkpt><trkpt lat="43.340453245690156" lon="11.493029199372103"><ele>310.0</ele><time>2026-04-11T04:31:28Z</time></trkpt><trkpt lat="43.34038084101416" lon="11.492930216000405"><ele>310.0</ele><time>2026-04-11T04:31:29Z</time></trkpt><trkpt lat="43.340304592236734" lon="11.492831366777889"><ele>310.0</ele><time>2026-04-11T04:31:30Z</time></trkpt><trkpt lat="43.34023005257641" lon="11.492732624236103"><ele>310.0</ele><time>2026-04-11T04:31:31Z</time></trkpt><trkpt lat="43.34015604052337" lon="11.492633839497149"><ele>310.0</ele><time>2026-04-11T04:31:32Z</time></trkpt><trkpt lat="43.3400826456951" lon="11.49253328738022"><ele>310.2</ele><time>2026-04-11T04:31:33Z</time></trkpt><trkpt lat="43.340017123988964" lon="11.492430671617093"><ele>310.4</ele><time>2026-04-11T04:31:34Z</time></trkpt><trkpt lat="43.339950188128874" lon="11.492328454499184"><ele>310.6</ele><time>2026-04-11T04:31:35Z</time></trkpt><trkpt lat="43.33988507994588" lon="11.492223639653785"><ele>310.8</ele><time>2026-04-11T04:31:36Z</time></trkpt><trkpt lat="43.339816267847915" lon="11.49211559744836"><ele>311.0</ele><time>2026-04-11T04:31:37Z</time></trkpt><trkpt lat="43.33974468124847" lon="11.492007529789841"><ele>310.2</ele><time>2026-04-11T04:31:38Z</time></trkpt><trkpt lat="43.33967207202282" lon="11.491901063877169"><ele>309.40000000000003</ele><time>2026-04-11T04:31:39Z</time></trkpt><trkpt lat="43.339601761837685" lon="11.491791662773899"><ele>308.6</ele><time>2026-04-11T04:31:40Z</time></trkpt><trkpt lat="43.339532079732265" lon="11.491683303830756"><ele>307.8</ele><time>2026-04-11T04:31:41Z</time></trkpt><trkpt lat="43.339462448647595" lon="11.49157523820011"><ele>307.0</ele><time>2026-04-11T04:31:42Z</time></trkpt><trkpt lat="43.33939355172807" lon="11.49146739637221"><ele>307.0</ele><time>2026-04-11T04:31:43Z</time></trkpt><trkpt lat="43.3393253754855" lon="11.491362614080593"><ele>307.0</ele><time>2026-04-11T04:31:44Z</time></trkpt><trkpt lat="43.33925667529543" lon="11.491258592430178"><ele>307.0</ele><time>2026-04-11T04:31:45Z</time></trkpt><trkpt lat="43.339189170776535" lon="11.491153424787873"><ele>307.0</ele><time>2026-04-11T04:31:46Z</time></trkpt><trkpt lat="43.339119266880935" lon="11.491054103598792"><ele>307.0</ele><time>2026-04-11T04:31:47Z</time></trkpt><trkpt lat="43.33904452718109" lon="11.490959690342914"><ele>306.8</ele><time>2026-04-11T04:31:48Z</time></trkpt><trkpt lat="43.338966633450795" lon="11.490872911359396"><ele>306.6</ele><time>2026-04-11T04:31:49Z</time></trkpt><trkpt lat="43.33888537950223" lon="11.490787962282043"><ele>306.40000000000003</ele><time>2026-04-11T04:31:50Z</time></trkpt><trkpt lat="43.33880272220388" lon="11.490704502176378"><ele>306.2</ele><time>2026-04-11T04:31:51Z</time></trkpt><trkpt lat="43.338722398116644" lon="11.490617375339939"><ele>306.0</ele><time>2026-04-11T04:31:51.999Z</time></trkpt><trkpt lat="43.33864209596015" lon="11.490530601183996"><ele>305.40000000000003</ele><time>2026-04-11T04:31:52.999Z</time></trkpt><trkpt lat="43.338562112023254" lon="11.490446611620051"><ele>304.8</ele><time>2026-04-11T04:31:53.999Z</time></trkpt><trkpt lat="43.33848217532435" lon="11.49036474452913"><ele>304.20000000000005</ele><time>2026-04-11T04:31:54.999Z</time></trkpt><trkpt lat="43.338403057262596" lon="11.490284335101505"><ele>303.6</ele><time>2026-04-11T04:31:55.999Z</time></trkpt><trkpt lat="43.338325281757584" lon="11.49020342621714"><ele>303.0</ele><time>2026-04-11T04:31:56.999Z</time></trkpt><trkpt lat="43.338247938374515" lon="11.490120451825195"><ele>303.0</ele><time>2026-04-11T04:31:57.999Z</time></trkpt><trkpt lat="43.33816844935954" lon="11.490038492561563"><ele>303.0</ele><time>2026-04-11T04:31:58.999Z</time></trkpt><trkpt lat="43.33808735910564" lon="11.489954652273607"><ele>303.0</ele><time>2026-04-11T04:31:59.999Z</time></trkpt><trkpt lat="43.33800434628351" lon="11.489871728268422"><ele>303.0</ele><time>2026-04-11T04:32:00.999Z</time></trkpt><trkpt lat="43.33791923900479" lon="11.48978783223048"><ele>303.0</ele><time>2026-04-11T04:32:01.999Z</time></trkpt><trkpt lat="43.33783692456389" lon="11.48969860643652"><ele>302.0</ele><time>2026-04-11T04:32:02.999Z</time></trkpt><trkpt lat="43.337752597959536" lon="11.4896134655952"><ele>301.0</ele><time>2026-04-11T04:32:03.999Z</time></trkpt><trkpt lat="43.33766971479267" lon="11.48953163111402"><ele>300.0</ele><time>2026-04-11T04:32:04.999Z</time></trkpt><trkpt lat="43.33758937066545" lon="11.489445325515703"><ele>299.0</ele><time>2026-04-11T04:32:05.999Z</time></trkpt><trkpt lat="43.33751045717831" lon="11.489359136961175"><ele>298.0</ele><time>2026-04-11T04:32:06.999Z</time></trkpt><trkpt lat="43.33743116825376" lon="11.489279460512737"><ele>297.8</ele><time>2026-04-11T04:32:07.999Z</time></trkpt><trkpt lat="43.337352960932485" lon="11.489198546075361"><ele>297.6</ele><time>2026-04-11T04:32:08.999Z</time></trkpt><trkpt lat="43.337275411921176" lon="11.489116598852698"><ele>297.4</ele><time>2026-04-11T04:32:09.999Z</time></trkpt><trkpt lat="43.33719606067352" lon="11.489042226679716"><ele>297.2</ele><time>2026-04-11T04:32:10.999Z</time></trkpt><trkpt lat="43.33711732960008" lon="11.488969099176016"><ele>297.0</ele><time>2026-04-11T04:32:11.999Z</time></trkpt><trkpt lat="43.337033678717894" lon="11.488910598537394"><ele>297.4</ele><time>2026-04-11T04:32:12.999Z</time></trkpt><trkpt lat="43.336947599830644" lon="11.48886241766935"><ele>297.79999999999995</ele><time>2026-04-11T04:32:13.999Z</time></trkpt><trkpt lat="43.336863175782845" lon="11.488810502721716"><ele>298.2</ele><time>2026-04-11T04:32:14.999Z</time></trkpt><trkpt lat="43.33677715098454" lon="11.488759458560052"><ele>298.59999999999997</ele><time>2026-04-11T04:32:15.999Z</time></trkpt><trkpt lat="43.33669085121102" lon="11.488702368533465"><ele>299.0</ele><time>2026-04-11T04:32:16.999Z</time></trkpt><trkpt lat="43.336604939707705" lon="11.48864397975874"><ele>299.0</ele><time>2026-04-11T04:32:17.999Z</time></trkpt><trkpt lat="43.33652203895711" lon="11.488576638655664"><ele>299.0</ele><time>2026-04-11T04:32:18.999Z</time></trkpt><trkpt lat="43.336448808696375" lon="11.488492109608526"><ele>299.0</ele><time>2026-04-11T04:32:19.999Z</time></trkpt><trkpt lat="43.336386585163915" lon="11.488387492919923"><ele>299.0</ele><time>2026-04-11T04:32:20.999Z</time></trkpt><trkpt lat="43.336330267246964" lon="11.488282147849322"><ele>299.0</ele><time>2026-04-11T04:32:21.999Z</time></trkpt><trkpt lat="43.33627563123047" lon="11.488178934936615"><ele>299.0</ele><time>2026-04-11T04:32:22.999Z</time></trkpt><trkpt lat="43.33621719875459" lon="11.488080759843166"><ele>299.0</ele><time>2026-04-11T04:32:23.999Z</time></trkpt><trkpt lat="43.336154041493536" lon="11.487988560457302"><ele>299.0</ele><time>2026-04-11T04:32:24.999Z</time></trkpt><trkpt lat="43.336086859376124" lon="11.487897866608934"><ele>299.0</ele><time>2026-04-11T04:32:25.999Z</time></trkpt><trkpt lat="43.33601520278029" lon="11.487814020549761"><ele>299.0</ele><time>2026-04-11T04:32:26.999Z</time></trkpt><trkpt lat="43.33594317754742" lon="11.487732549246118"><ele>297.4</ele><time>2026-04-11T04:32:27.999Z</time></trkpt><trkpt lat="43.33587152256616" lon="11.487651555257717"><ele>295.79999999999995</ele><time>2026-04-11T04:32:28.999Z</time></trkpt><trkpt lat="43.335802108379646" lon="11.487570222760484"><ele>294.20000000000005</ele><time>2026-04-11T04:32:29.999Z</time></trkpt><trkpt lat="43.335731548755696" lon="11.487486589238404"><ele>292.6</ele><time>2026-04-11T04:32:30.999Z</time></trkpt><trkpt lat="43.335666447431855" lon="11.487397164532672"><ele>291.0</ele><time>2026-04-11T04:32:31.999Z</time></trkpt><trkpt lat="43.335608444428054" lon="11.487295745627337"><ele>291.0</ele><time>2026-04-11T04:32:32.999Z</time></trkpt><trkpt lat="43.33555454502034" lon="11.48718772917707"><ele>291.0</ele><time>2026-04-11T04:32:33.999Z</time></trkpt><trkpt lat="43.3355040227171" lon="11.487075849907429"><ele>291.0</ele><time>2026-04-11T04:32:34.999Z</time></trkpt><trkpt lat="43.33545285826914" lon="11.486964211351234"><ele>291.0</ele><time>2026-04-11T04:32:35.999Z</time></trkpt><trkpt lat="43.335404433770684" lon="11.486847170919509"><ele>291.0</ele><time>2026-04-11T04:32:36.999Z</time></trkpt><trkpt lat="43.33535535526279" lon="11.48673066933632"><ele>291.6</ele><time>2026-04-11T04:32:37.999Z</time></trkpt><trkpt lat="43.33530988232852" lon="11.48661169814618"><ele>292.20000000000005</ele><time>2026-04-11T04:32:38.999Z</time></trkpt><trkpt lat="43.335261385291545" lon="11.486491601164259"><ele>292.79999999999995</ele><time>2026-04-11T04:32:39.999Z</time></trkpt><trkpt lat="43.33521077601203" lon="11.486373295853527"><ele>293.4</ele><time>2026-04-11T04:32:40.999Z</time></trkpt><trkpt lat="43.33516295943747" lon="11.486257011479161"><ele>294.0</ele><time>2026-04-11T04:32:41.999Z</time></trkpt><trkpt lat="43.33511443062635" lon="11.486139856683021"><ele>292.2</ele><time>2026-04-11T04:32:42.999Z</time></trkpt><trkpt lat="43.33506673709827" lon="11.486019944976514"><ele>290.4</ele><time>2026-04-11T04:32:43.998Z</time></trkpt><trkpt lat="43.33502335155204" lon="11.485890463878256"><ele>288.6</ele><time>2026-04-11T04:32:44.998Z</time></trkpt><trkpt lat="43.33498585409192" lon="11.485753430424639"><ele>286.8</ele><time>2026-04-11T04:32:45.998Z</time></trkpt><trkpt lat="43.334959387133416" lon="11.485613482140678"><ele>285.0</ele><time>2026-04-11T04:32:46.998Z</time></trkpt><trkpt lat="43.33493853940618" lon="11.48547324470024"><ele>283.8</ele><time>2026-04-11T04:32:47.998Z</time></trkpt><trkpt lat="43.334916643840764" lon="11.48533013033432"><ele>282.6</ele><time>2026-04-11T04:32:48.998Z</time></trkpt><trkpt lat="43.33489275176307" lon="11.48518440631932"><ele>281.4</ele><time>2026-04-11T04:32:49.998Z</time></trkpt><trkpt lat="43.334874896823784" lon="11.485039832676712"><ele>280.2</ele><time>2026-04-11T04:32:50.998Z</time></trkpt><trkpt lat="43.334856466975864" lon="11.484904135533423"><ele>279.0</ele><time>2026-04-11T04:32:52.001Z</time></trkpt><trkpt lat="43.33483977608777" lon="11.484766767706958"><ele>279.0</ele><time>2026-04-11T04:32:53.001Z</time></trkpt><trkpt lat="43.33482433865616" lon="11.484625047484458"><ele>279.0</ele><time>2026-04-11T04:32:54.001Z</time></trkpt><trkpt lat="43.334806708305976" lon="11.484487448139973"><ele>279.0</ele><time>2026-04-11T04:32:55.001Z</time></trkpt><trkpt lat="43.33479106077309" lon="11.484351414019162"><ele>279.0</ele><time>2026-04-11T04:32:56.001Z</time></trkpt><trkpt lat="43.33477738927025" lon="11.48421406045552"><ele>279.0</ele><time>2026-04-11T04:32:57.001Z</time></trkpt><trkpt lat="43.334764879436804" lon="11.484080992513556"><ele>278.3333333333333</ele><time>2026-04-11T04:32:58.001Z</time></trkpt><trkpt lat="43.334753811025124" lon="11.483961622952863"><ele>277.6666666666667</ele><time>2026-04-11T04:32:59.001Z</time></trkpt><trkpt lat="43.3347422264304" lon="11.48384518260546"><ele>277.0</ele><time>2026-04-11T04:33:00.001Z</time></trkpt><trkpt lat="43.33473513639087" lon="11.483724991026293"><ele>276.33333333333337</ele><time>2026-04-11T04:33:01.001Z</time></trkpt><trkpt lat="43.33472615844935" lon="11.483603125502224"><ele>275.6666666666667</ele><time>2026-04-11T04:33:02.001Z</time></trkpt><trkpt lat="43.33471729335585" lon="11.483480061905956"><ele>275.0</ele><time>2026-04-11T04:33:03Z</time></trkpt><trkpt lat="43.33470939018368" lon="11.483356134232357"><ele>276.2</ele><time>2026-04-11T04:33:04.001Z</time></trkpt><trkpt lat="43.334700405164114" lon="11.483229951674826"><ele>277.4</ele><time>2026-04-11T04:33:05.001Z</time></trkpt><trkpt lat="43.33468861237038" lon="11.483106947323117"><ele>278.6</ele><time>2026-04-11T04:33:06Z</time></trkpt><trkpt lat="43.334673145594586" lon="11.482983016281304"><ele>279.8</ele><time>2026-04-11T04:33:07Z</time></trkpt><trkpt lat="43.33465679559767" lon="11.482859450742614"><ele>281.0</ele><time>2026-04-11T04:33:08Z</time></trkpt><trkpt lat="43.33463880885237" lon="11.482737600673914"><ele>281.0</ele><time>2026-04-11T04:33:09Z</time></trkpt><trkpt lat="43.334619523555375" lon="11.482620304703769"><ele>281.0</ele><time>2026-04-11T04:33:10Z</time></trkpt><trkpt lat="43.334602787681995" lon="11.482502403704355"><ele>281.0</ele><time>2026-04-11T04:33:11Z</time></trkpt><trkpt lat="43.33458855724567" lon="11.482384306334545"><ele>281.0</ele><time>2026-04-11T04:33:12Z</time></trkpt><trkpt lat="43.33458095318338" lon="11.48226803963738"><ele>281.0</ele><time>2026-04-11T04:33:13Z</time></trkpt><trkpt lat="43.334585022125744" lon="11.482155754437075"><ele>281.0</ele><time>2026-04-11T04:33:14Z</time></trkpt><trkpt lat="43.33459912428003" lon="11.48204407160189"><ele>279.83333333333337</ele><time>2026-04-11T04:33:15Z</time></trkpt><trkpt lat="43.33462393463373" lon="11.481936690687967"><ele>278.6666666666667</ele><time>2026-04-11T04:33:16Z</time></trkpt><trkpt lat="43.33467505907529" lon="11.481849644493844"><ele>277.5</ele><time>2026-04-11T04:33:17Z</time></trkpt><trkpt lat="43.33472050950891" lon="11.481762481516991"><ele>276.3333333333333</ele><time>2026-04-11T04:33:18Z</time></trkpt><trkpt lat="43.33475464129023" lon="11.48166599390067"><ele>275.16666666666663</ele><time>2026-04-11T04:33:19Z</time></trkpt><trkpt lat="43.33481191389501" lon="11.481597942378624"><ele>274.0</ele><time>2026-04-11T04:33:20Z</time></trkpt><trkpt lat="43.33485578305819" lon="11.481521995714486"><ele>273.66666666666663</ele><time>2026-04-11T04:33:21Z</time></trkpt><trkpt lat="43.334887322391204" lon="11.481435390929505"><ele>273.3333333333333</ele><time>2026-04-11T04:33:22Z</time></trkpt><trkpt lat="43.334928879364085" lon="11.48136448918809"><ele>273.0</ele><time>2026-04-11T04:33:23Z</time></trkpt><trkpt lat="43.33498055633822" lon="11.481305987308883"><ele>272.6666666666667</ele><time>2026-04-11T04:33:24Z</time></trkpt><trkpt lat="43.33502156929482" lon="11.481234985331586"><ele>272.33333333333337</ele><time>2026-04-11T04:33:25Z</time></trkpt><trkpt lat="43.3350507793206" lon="11.481155268410108"><ele>272.0</ele><time>2026-04-11T04:33:26Z</time></trkpt><trkpt lat="43.335133600235" lon="11.481024498168928"><ele>273.4</ele><time>2026-04-11T04:33:28Z</time></trkpt><trkpt lat="43.33521537142228" lon="11.480898858383181"><ele>274.79999999999995</ele><time>2026-04-11T04:33:30Z</time></trkpt><trkpt lat="43.33529013037029" lon="11.480777716260151"><ele>276.2</ele><time>2026-04-11T04:33:32Z</time></trkpt><trkpt lat="43.33536795320986" lon="11.480679294891704"><ele>277.59999999999997</ele><time>2026-04-11T04:33:34Z</time></trkpt><trkpt lat="43.33542881658847" lon="11.4805661726204"><ele>279.0</ele><time>2026-04-11T04:33:36Z</time></trkpt><trkpt lat="43.33550214901299" lon="11.480467489615911"><ele>279.1666666666667</ele><time>2026-04-11T04:33:38Z</time></trkpt><trkpt lat="43.33560015970053" lon="11.48040355346763"><ele>279.3333333333333</ele><time>2026-04-11T04:33:40Z</time></trkpt><trkpt lat="43.33568959164366" lon="11.480321596323655"><ele>279.5</ele><time>2026-04-11T04:33:42Z</time></trkpt><trkpt lat="43.335716943053036" lon="11.48021762236804"><ele>279.66666666666663</ele><time>2026-04-11T04:33:48Z</time></trkpt><trkpt lat="43.33565544865221" lon="11.48028544363312"><ele>279.8333333333333</ele><time>2026-04-11T04:33:52Z</time></trkpt><trkpt lat="43.33559613144375" lon="11.480340702968487"><ele>280.0</ele><time>2026-04-11T04:33:55Z</time></trkpt><trkpt lat="43.335562923046005" lon="11.480437677856042"><ele>279.8333333333333</ele><time>2026-04-11T04:33:57.999Z</time></trkpt><trkpt lat="43.33547064018205" lon="11.48053323096412"><ele>279.66666666666663</ele><time>2026-04-11T04:34:09.999Z</time></trkpt><trkpt lat="43.3354067989875" lon="11.480422530979887"><ele>279.5</ele><time>2026-04-11T04:34:11.999Z</time></trkpt><trkpt lat="43.33542075893978" lon="11.480325109644172"><ele>279.3333333333333</ele><time>2026-04-11T04:34:15.999Z</time></trkpt><trkpt lat="43.3354320243244" lon="11.480217652565806"><ele>279.1666666666667</ele><time>2026-04-11T04:34:19.999Z</time></trkpt><trkpt lat="43.33545098107322" lon="11.480112648758379"><ele>279.0</ele><time>2026-04-11T04:34:22.999Z</time></trkpt><trkpt lat="43.3354750653193" lon="11.480023555481893"><ele>279.2</ele><time>2026-04-11T04:34:24.999Z</time></trkpt><trkpt lat="43.33549409468057" lon="11.47991138393349"><ele>279.4</ele><time>2026-04-11T04:34:26.999Z</time></trkpt><trkpt lat="43.33552482154289" lon="11.47979903299098"><ele>279.6</ele><time>2026-04-11T04:34:28.999Z</time></trkpt><trkpt lat="43.33555658268835" lon="11.47968288423249"><ele>279.8</ele><time>2026-04-11T04:34:30.999Z</time></trkpt><trkpt lat="43.33559339370753" lon="11.479557483710433"><ele>280.0</ele><time>2026-04-11T04:34:32.999Z</time></trkpt><trkpt lat="43.335639413430485" lon="11.479424237918183"><ele>279.6</ele><time>2026-04-11T04:34:34.999Z</time></trkpt><trkpt lat="43.33571750516514" lon="11.479383406612907"><ele>279.2</ele><time>2026-04-11T04:34:35.999Z</time></trkpt><trkpt lat="43.33576721262168" lon="11.479224454982925"><ele>278.8</ele><time>2026-04-11T04:34:37.999Z</time></trkpt><trkpt lat="43.335791384150404" lon="11.479144041787057"><ele>278.4</ele><time>2026-04-11T04:34:38.999Z</time></trkpt><trkpt lat="43.3358152723638" lon="11.479063164196862"><ele>278.0</ele><time>2026-04-11T04:34:39.999Z</time></trkpt><trkpt lat="43.33586071585817" lon="11.478907949147269"><ele>277.2</ele><time>2026-04-11T04:34:41.999Z</time></trkpt><trkpt lat="43.33590634907049" lon="11.478752086088779"><ele>276.4</ele><time>2026-04-11T04:34:43.999Z</time></trkpt><trkpt lat="43.335954155726235" lon="11.478599720566761"><ele>275.59999999999997</ele><time>2026-04-11T04:34:45.999Z</time></trkpt><trkpt lat="43.33600081376096" lon="11.478445863658962"><ele>274.8</ele><time>2026-04-11T04:34:47.999Z</time></trkpt><trkpt lat="43.33602295817508" lon="11.478363368410948"><ele>274.0</ele><time>2026-04-11T04:34:48.998Z</time></trkpt><trkpt lat="43.336038860306125" lon="11.478275495663677"><ele>274.0</ele><time>2026-04-11T04:34:49.997Z</time></trkpt><trkpt lat="43.3360598454498" lon="11.478109235325071"><ele>274.0</ele><time>2026-04-11T04:34:51.997Z</time></trkpt><trkpt lat="43.33606050273904" lon="11.478021577048315"><ele>274.0</ele><time>2026-04-11T04:34:52.997Z</time></trkpt><trkpt lat="43.33605463748519" lon="11.477933311596223"><ele>274.0</ele><time>2026-04-11T04:34:53.997Z</time></trkpt><trkpt lat="43.33604336021225" lon="11.477845267248235"><ele>274.0</ele><time>2026-04-11T04:34:54.997Z</time></trkpt><trkpt lat="43.33601348606607" lon="11.477768312341716"><ele>274.0</ele><time>2026-04-11T04:34:55.997Z</time></trkpt><trkpt lat="43.33597964164756" lon="11.47761638190721"><ele>274.0</ele><time>2026-04-11T04:34:58Z</time></trkpt><trkpt lat="43.3359530121704" lon="11.477459436574948"><ele>274.0</ele><time>2026-04-11T04:35:00Z</time></trkpt><trkpt lat="43.335892157794476" lon="11.47731684125922"><ele>274.0</ele><time>2026-04-11T04:35:01.999Z</time></trkpt><trkpt lat="43.3358437968383" lon="11.477164112789179"><ele>274.0</ele><time>2026-04-11T04:35:04Z</time></trkpt><trkpt lat="43.33578976516478" lon="11.477008800598142"><ele>274.59999999999997</ele><time>2026-04-11T04:35:06Z</time></trkpt><trkpt lat="43.335763445422295" lon="11.476929337549844"><ele>275.2</ele><time>2026-04-11T04:35:07Z</time></trkpt><trkpt lat="43.33571181852472" lon="11.476777092543173"><ele>275.79999999999995</ele><time>2026-04-11T04:35:09Z</time></trkpt><trkpt lat="43.335659208268495" lon="11.476639073311285"><ele>276.4</ele><time>2026-04-11T04:35:11Z</time></trkpt><trkpt lat="43.335614376574085" lon="11.476519354387984"><ele>277.0</ele><time>2026-04-11T04:35:12.999Z</time></trkpt><trkpt lat="43.335576547716165" lon="11.476415100530266"><ele>276.6</ele><time>2026-04-11T04:35:14.999Z</time></trkpt><trkpt lat="43.3355281031255" lon="11.476315890589232"><ele>276.2</ele><time>2026-04-11T04:35:16.999Z</time></trkpt><trkpt lat="43.33548256971131" lon="11.476171026372201"><ele>275.8</ele><time>2026-04-11T04:35:18.999Z</time></trkpt><trkpt lat="43.33545079601963" lon="11.47609392598956"><ele>275.4</ele><time>2026-04-11T04:35:19.999Z</time></trkpt><trkpt lat="43.33539155334945" lon="11.475950170860933"><ele>275.0</ele><time>2026-04-11T04:35:21.999Z</time></trkpt><trkpt lat="43.33535979476163" lon="11.4758731071507"><ele>275.0</ele><time>2026-04-11T04:35:22.999Z</time></trkpt><trkpt lat="43.33532594408001" lon="11.475790966857637"><ele>275.0</ele><time>2026-04-11T04:35:23.999Z</time></trkpt><trkpt lat="43.33527984167055" lon="11.475720716776689"><ele>275.0</ele><time>2026-04-11T04:35:24.999Z</time></trkpt><trkpt lat="43.33526083316788" lon="11.475628414499287"><ele>275.0</ele><time>2026-04-11T04:35:25.999Z</time></trkpt><trkpt lat="43.335228625668094" lon="11.475546423563298"><ele>275.0</ele><time>2026-04-11T04:35:26.999Z</time></trkpt><trkpt lat="43.33518110694106" lon="11.475473118134587"><ele>275.0</ele><time>2026-04-11T04:35:27.999Z</time></trkpt><trkpt lat="43.33514960195251" lon="11.475388014561211"><ele>275.0</ele><time>2026-04-11T04:35:28.999Z</time></trkpt><trkpt lat="43.33511831285959" lon="11.475303560440018"><ele>274.7142857142857</ele><time>2026-04-11T04:35:29.999Z</time></trkpt><trkpt lat="43.33508775984661" lon="11.475214679860901"><ele>274.42857142857144</ele><time>2026-04-11T04:35:30.999Z</time></trkpt><trkpt lat="43.33506597586496" lon="11.475124195782168"><ele>274.1428571428571</ele><time>2026-04-11T04:35:31.999Z</time></trkpt><trkpt lat="43.33504264556425" lon="11.475029683470304"><ele>273.8571428571429</ele><time>2026-04-11T04:35:32.999Z</time></trkpt><trkpt lat="43.335019631964975" lon="11.474938311940369"><ele>273.57142857142856</ele><time>2026-04-11T04:35:33.999Z</time></trkpt><trkpt lat="43.33501475859983" lon="11.474840927012544"><ele>273.2857142857143</ele><time>2026-04-11T04:35:34.999Z</time></trkpt><trkpt lat="43.33500250833093" lon="11.474749175214532"><ele>273.0</ele><time>2026-04-11T04:35:35.999Z</time></trkpt><trkpt lat="43.33499017931807" lon="11.474658038467533"><ele>272.85714285714283</ele><time>2026-04-11T04:35:36.999Z</time></trkpt><trkpt lat="43.33496331648991" lon="11.474571194714512"><ele>272.7142857142857</ele><time>2026-04-11T04:35:37.999Z</time></trkpt><trkpt lat="43.33496824445848" lon="11.474478051917064"><ele>272.57142857142856</ele><time>2026-04-11T04:35:38.999Z</time></trkpt><trkpt lat="43.3349580872038" lon="11.474388418595622"><ele>272.42857142857144</ele><time>2026-04-11T04:35:39.999Z</time></trkpt><trkpt lat="43.33494813665666" lon="11.474300609378528"><ele>272.2857142857143</ele><time>2026-04-11T04:35:40.999Z</time></trkpt><trkpt lat="43.334938255050105" lon="11.474214063760083"><ele>272.1428571428571</ele><time>2026-04-11T04:35:41.999Z</time></trkpt><trkpt lat="43.33492785227379" lon="11.474126297302865"><ele>272.0</ele><time>2026-04-11T04:35:42.999Z</time></trkpt><trkpt lat="43.33491686294726" lon="11.474033581993652"><ele>271.99999999999994</ele><time>2026-04-11T04:35:43.999Z</time></trkpt><trkpt lat="43.334894562769314" lon="11.473943589254196"><ele>272.0</ele><time>2026-04-11T04:35:44.999Z</time></trkpt><trkpt lat="43.334885307877954" lon="11.47384978029448"><ele>272.0</ele><time>2026-04-11T04:35:45.999Z</time></trkpt><trkpt lat="43.33487329721305" lon="11.473754467224438"><ele>272.0</ele><time>2026-04-11T04:35:46.999Z</time></trkpt><trkpt lat="43.33486211604564" lon="11.473659861201732"><ele>272.0</ele><time>2026-04-11T04:35:47.999Z</time></trkpt><trkpt lat="43.33485601276752" lon="11.473567569449326"><ele>271.99999999999994</ele><time>2026-04-11T04:35:48.999Z</time></trkpt><trkpt lat="43.33485090395701" lon="11.473471185801925"><ele>272.0</ele><time>2026-04-11T04:35:49.999Z</time></trkpt><trkpt lat="43.334844076312116" lon="11.4733759113914"><ele>271.83333333333337</ele><time>2026-04-11T04:35:50.999Z</time></trkpt><trkpt lat="43.33483514175149" lon="11.47328313428894"><ele>271.6666666666667</ele><time>2026-04-11T04:35:51.999Z</time></trkpt><trkpt lat="43.33483124100522" lon="11.473188686115543"><ele>271.5</ele><time>2026-04-11T04:35:52.999Z</time></trkpt><trkpt lat="43.33483208381842" lon="11.473092615197283"><ele>271.3333333333333</ele><time>2026-04-11T04:35:53.999Z</time></trkpt><trkpt lat="43.33484397205498" lon="11.472986798519274"><ele>271.16666666666663</ele><time>2026-04-11T04:35:54.999Z</time></trkpt><trkpt lat="43.33486485703567" lon="11.472873922733873"><ele>271.0</ele><time>2026-04-11T04:35:55.999Z</time></trkpt><trkpt lat="43.33488815302714" lon="11.472765761197177"><ele>271.0</ele><time>2026-04-11T04:35:56.999Z</time></trkpt><trkpt lat="43.33491459816815" lon="11.472662409593777"><ele>271.0</ele><time>2026-04-11T04:35:57.999Z</time></trkpt><trkpt lat="43.334941619290134" lon="11.472560293628254"><ele>271.0</ele><time>2026-04-11T04:35:58.999Z</time></trkpt><trkpt lat="43.33498527028204" lon="11.47246732518921"><ele>271.0</ele><time>2026-04-11T04:35:59.999Z</time></trkpt><trkpt lat="43.33501411466463" lon="11.47236955412519"><ele>271.0</ele><time>2026-04-11T04:36:00.999Z</time></trkpt><trkpt lat="43.335043991123484" lon="11.472267925537269"><ele>271.0</ele><time>2026-04-11T04:36:01.999Z</time></trkpt><trkpt lat="43.3350781655503" lon="11.472162681744988"><ele>270.3333333333333</ele><time>2026-04-11T04:36:02.999Z</time></trkpt><trkpt lat="43.33511344865618" lon="11.472058110435846"><ele>269.66666666666663</ele><time>2026-04-11T04:36:03.999Z</time></trkpt><trkpt lat="43.33515108710572" lon="11.471952952231014"><ele>269.0</ele><time>2026-04-11T04:36:04.998Z</time></trkpt><trkpt lat="43.33518704894" lon="11.471857795867189"><ele>268.3333333333333</ele><time>2026-04-11T04:36:05.998Z</time></trkpt><trkpt lat="43.33522953144386" lon="11.471755687924215"><ele>267.6666666666667</ele><time>2026-04-11T04:36:06.998Z</time></trkpt><trkpt lat="43.335276678596195" lon="11.471642746489348"><ele>267.0</ele><time>2026-04-11T04:36:07.998Z</time></trkpt><trkpt lat="43.33532961140192" lon="11.47151898312826"><ele>267.0</ele><time>2026-04-11T04:36:08.998Z</time></trkpt><trkpt lat="43.33538750061283" lon="11.471386920538"><ele>267.0</ele><time>2026-04-11T04:36:09.998Z</time></trkpt><trkpt lat="43.33545189888401" lon="11.471249749287447"><ele>267.0</ele><time>2026-04-11T04:36:10.998Z</time></trkpt><trkpt lat="43.33551894002754" lon="11.471107941155614"><ele>267.0</ele><time>2026-04-11T04:36:11.998Z</time></trkpt><trkpt lat="43.335583836695825" lon="11.470959915814337"><ele>266.0</ele><time>2026-04-11T04:36:12.998Z</time></trkpt><trkpt lat="43.33563905333824" lon="11.470818407818404"><ele>265.0</ele><time>2026-04-11T04:36:13.998Z</time></trkpt><trkpt lat="43.33568854241511" lon="11.470682750176847"><ele>264.0</ele><time>2026-04-11T04:36:14.998Z</time></trkpt><trkpt lat="43.33572162465355" lon="11.470535488927739"><ele>263.0</ele><time>2026-04-11T04:36:15.998Z</time></trkpt><trkpt lat="43.33576125155105" lon="11.470401049340397"><ele>262.0</ele><time>2026-04-11T04:36:16.998Z</time></trkpt><trkpt lat="43.33579020481263" lon="11.470262754695204"><ele>261.2</ele><time>2026-04-11T04:36:17.998Z</time></trkpt><trkpt lat="43.33579932154403" lon="11.470123569433852"><ele>260.4</ele><time>2026-04-11T04:36:18.998Z</time></trkpt><trkpt lat="43.33579312237005" lon="11.469986975801843"><ele>259.6</ele><time>2026-04-11T04:36:19.998Z</time></trkpt><trkpt lat="43.33578107266574" lon="11.469856778115828"><ele>258.8</ele><time>2026-04-11T04:36:20.998Z</time></trkpt><trkpt lat="43.33576034881936" lon="11.469735518649232"><ele>258.0</ele><time>2026-04-11T04:36:21.998Z</time></trkpt><trkpt lat="43.335729849160764" lon="11.469619751206205"><ele>258.0</ele><time>2026-04-11T04:36:22.998Z</time></trkpt><trkpt lat="43.33569705824768" lon="11.469511577330346"><ele>258.0</ele><time>2026-04-11T04:36:23.998Z</time></trkpt><trkpt lat="43.335668628078814" lon="11.469401716048655"><ele>258.0</ele><time>2026-04-11T04:36:24.998Z</time></trkpt><trkpt lat="43.33563536356424" lon="11.469298722391041"><ele>258.0</ele><time>2026-04-11T04:36:25.998Z</time></trkpt><trkpt lat="43.33559808931201" lon="11.469199105077907"><ele>258.0</ele><time>2026-04-11T04:36:26.998Z</time></trkpt><trkpt lat="43.335559373997405" lon="11.46910734844972"><ele>258.0</ele><time>2026-04-11T04:36:27.998Z</time></trkpt><trkpt lat="43.335516863608106" lon="11.46902061698648"><ele>257.6666666666667</ele><time>2026-04-11T04:36:28.998Z</time></trkpt><trkpt lat="43.33547337175716" lon="11.468936165249756"><ele>257.3333333333333</ele><time>2026-04-11T04:36:29.998Z</time></trkpt><trkpt lat="43.335423805863144" lon="11.468859434391426"><ele>257.0</ele><time>2026-04-11T04:36:30.998Z</time></trkpt><trkpt lat="43.33536593730787" lon="11.46878480339866"><ele>256.66666666666663</ele><time>2026-04-11T04:36:31.998Z</time></trkpt><trkpt lat="43.335307337894626" lon="11.46871287776435"><ele>256.3333333333333</ele><time>2026-04-11T04:36:32.998Z</time></trkpt><trkpt lat="43.33525108669367" lon="11.468633636208786"><ele>256.0</ele><time>2026-04-11T04:36:33.998Z</time></trkpt><trkpt lat="43.33519821947275" lon="11.468546594332734"><ele>255.99999999999997</ele><time>2026-04-11T04:36:34.998Z</time></trkpt><trkpt lat="43.33514139572805" lon="11.4684630234801"><ele>256.0</ele><time>2026-04-11T04:36:35.998Z</time></trkpt><trkpt lat="43.33508640880763" lon="11.468369735252697"><ele>256.0</ele><time>2026-04-11T04:36:36.998Z</time></trkpt><trkpt lat="43.335030218507995" lon="11.468274599210826"><ele>256.0</ele><time>2026-04-11T04:36:37.998Z</time></trkpt><trkpt lat="43.33497824539767" lon="11.468174763131247"><ele>255.99999999999997</ele><time>2026-04-11T04:36:38.998Z</time></trkpt><trkpt lat="43.3349334599877" lon="11.468067395253529"><ele>256.0</ele><time>2026-04-11T04:36:39.998Z</time></trkpt><trkpt lat="43.33488984160566" lon="11.467959969094489"><ele>256.16666666666663</ele><time>2026-04-11T04:36:40.998Z</time></trkpt><trkpt lat="43.3348540566116" lon="11.467844397449541"><ele>256.3333333333333</ele><time>2026-04-11T04:36:41.998Z</time></trkpt><trkpt lat="43.33483220425343" lon="11.467733840324232"><ele>256.5</ele><time>2026-04-11T04:36:42.998Z</time></trkpt><trkpt lat="43.334813862793844" lon="11.467613979947703"><ele>256.6666666666667</ele><time>2026-04-11T04:36:43.998Z</time></trkpt><trkpt lat="43.33478594553749" lon="11.467491266620103"><ele>256.83333333333337</ele><time>2026-04-11T04:36:44.998Z</time></trkpt><trkpt lat="43.334771105298195" lon="11.467373368444623"><ele>257.0</ele><time>2026-04-11T04:36:45.998Z</time></trkpt><trkpt lat="43.334759243154615" lon="11.467249775243681"><ele>257.0</ele><time>2026-04-11T04:36:46.998Z</time></trkpt><trkpt lat="43.33474741785426" lon="11.467120655583813"><ele>257.0</ele><time>2026-04-11T04:36:47.998Z</time></trkpt><trkpt lat="43.334733427190145" lon="11.466999347166283"><ele>257.0</ele><time>2026-04-11T04:36:48.998Z</time></trkpt><trkpt lat="43.33472088986874" lon="11.466868760702823"><ele>257.0</ele><time>2026-04-11T04:36:49.998Z</time></trkpt><trkpt lat="43.33471470034669" lon="11.46673308816341"><ele>257.0</ele><time>2026-04-11T04:36:50.998Z</time></trkpt><trkpt lat="43.334712125834635" lon="11.466597259121162"><ele>255.39999999999998</ele><time>2026-04-11T04:36:51.998Z</time></trkpt><trkpt lat="43.33472078488665" lon="11.466458855344603"><ele>253.79999999999998</ele><time>2026-04-11T04:36:52.998Z</time></trkpt><trkpt lat="43.33474006827498" lon="11.466321556616862"><ele>252.2</ele><time>2026-04-11T04:36:53.998Z</time></trkpt><trkpt lat="43.33476393355793" lon="11.466185949836206"><ele>250.6</ele><time>2026-04-11T04:36:54.998Z</time></trkpt><trkpt lat="43.33479537935905" lon="11.466051174591534"><ele>249.0</ele><time>2026-04-11T04:36:55.998Z</time></trkpt><trkpt lat="43.33483356350075" lon="11.46592077145518"><ele>248.39999999999998</ele><time>2026-04-11T04:36:56.998Z</time></trkpt><trkpt lat="43.334872094445835" lon="11.465788507202074"><ele>247.79999999999998</ele><time>2026-04-11T04:36:57.997Z</time></trkpt><trkpt lat="43.3349097469972" lon="11.465656432364696"><ele>247.20000000000002</ele><time>2026-04-11T04:36:58.997Z</time></trkpt><trkpt lat="43.33494395350402" lon="11.465521853985669"><ele>246.60000000000002</ele><time>2026-04-11T04:36:59.997Z</time></trkpt><trkpt lat="43.33497872490177" lon="11.46538305927305"><ele>246.0</ele><time>2026-04-11T04:37:00.997Z</time></trkpt><trkpt lat="43.33501422356421" lon="11.465246658488969"><ele>245.8</ele><time>2026-04-11T04:37:01.997Z</time></trkpt><trkpt lat="43.335048480867144" lon="11.465105413907049"><ele>245.60000000000002</ele><time>2026-04-11T04:37:03Z</time></trkpt><trkpt lat="43.33508295601523" lon="11.464966508637636"><ele>245.4</ele><time>2026-04-11T04:37:04Z</time></trkpt><trkpt lat="43.33511888927082" lon="11.464827783266811"><ele>245.2</ele><time>2026-04-11T04:37:05Z</time></trkpt><trkpt lat="43.335153726128276" lon="11.464686999188476"><ele>245.0</ele><time>2026-04-11T04:37:06Z</time></trkpt><trkpt lat="43.335188073043085" lon="11.464541640450992"><ele>244.0</ele><time>2026-04-11T04:37:07Z</time></trkpt><trkpt lat="43.33522650846306" lon="11.464400577376995"><ele>243.0</ele><time>2026-04-11T04:37:08Z</time></trkpt><trkpt lat="43.335280400677874" lon="11.464264685266766"><ele>242.0</ele><time>2026-04-11T04:37:09Z</time></trkpt><trkpt lat="43.335319699260836" lon="11.464130281740035"><ele>241.0</ele><time>2026-04-11T04:37:10Z</time></trkpt><trkpt lat="43.33536071455303" lon="11.463994449449649"><ele>240.0</ele><time>2026-04-11T04:37:11Z</time></trkpt><trkpt lat="43.335401500474575" lon="11.463865220079509"><ele>240.2</ele><time>2026-04-11T04:37:12Z</time></trkpt><trkpt lat="43.33544132119328" lon="11.463739587279324"><ele>240.4</ele><time>2026-04-11T04:37:13Z</time></trkpt><trkpt lat="43.33548124277016" lon="11.463619767359457"><ele>240.60000000000002</ele><time>2026-04-11T04:37:14Z</time></trkpt><trkpt lat="43.335520630670025" lon="11.463504294034454"><ele>240.8</ele><time>2026-04-11T04:37:15Z</time></trkpt><trkpt lat="43.33556102935701" lon="11.463394910099593"><ele>241.0</ele><time>2026-04-11T04:37:16Z</time></trkpt><trkpt lat="43.33560341951632" lon="11.463292326474244"><ele>240.16666666666666</ele><time>2026-04-11T04:37:17Z</time></trkpt><trkpt lat="43.33564527279145" lon="11.463194164450426"><ele>239.33333333333331</ele><time>2026-04-11T04:37:18Z</time></trkpt><trkpt lat="43.33566989204426" lon="11.463091113521992"><ele>238.5</ele><time>2026-04-11T04:37:19Z</time></trkpt><trkpt lat="43.33570710046297" lon="11.463004558223782"><ele>237.66666666666669</ele><time>2026-04-11T04:37:19.999Z</time></trkpt><trkpt lat="43.335741340842674" lon="11.462922120690711"><ele>236.83333333333334</ele><time>2026-04-11T04:37:20.999Z</time></trkpt><trkpt lat="43.3357706552206" lon="11.46284145120076"><ele>236.0</ele><time>2026-04-11T04:37:21.999Z</time></trkpt><trkpt lat="43.335818343040465" lon="11.462692351223877"><ele>237.83333333333334</ele><time>2026-04-11T04:37:23.999Z</time></trkpt><trkpt lat="43.335849851099816" lon="11.462572864982794"><ele>239.66666666666669</ele><time>2026-04-11T04:37:25.999Z</time></trkpt><trkpt lat="43.33586855115852" lon="11.462467265412913"><ele>241.5</ele><time>2026-04-11T04:37:27.999Z</time></trkpt><trkpt lat="43.33589774373101" lon="11.462388551118575"><ele>243.33333333333331</ele><time>2026-04-11T04:37:29.999Z</time></trkpt><trkpt lat="43.335913255315965" lon="11.462280887095078"><ele>245.16666666666666</ele><time>2026-04-11T04:37:32.999Z</time></trkpt><trkpt lat="43.33591194820845" lon="11.462189554274726"><ele>247.0</ele><time>2026-04-11T04:37:35.999Z</time></trkpt><trkpt lat="43.335912433292506" lon="11.462066391160132"><ele>247.39999999999998</ele><time>2026-04-11T04:37:37.999Z</time></trkpt><trkpt lat="43.33595203561276" lon="11.461827004880885"><ele>247.79999999999998</ele><time>2026-04-11T04:37:39.999Z</time></trkpt><trkpt lat="43.3359605719528" lon="11.461716780903364"><ele>248.2</ele><time>2026-04-11T04:37:40.999Z</time></trkpt><trkpt lat="43.3359514642568" lon="11.461606352556368"><ele>248.6</ele><time>2026-04-11T04:37:41.999Z</time></trkpt><trkpt lat="43.33594663573474" lon="11.461498689164356"><ele>249.0</ele><time>2026-04-11T04:37:42.999Z</time></trkpt><trkpt lat="43.33595305252696" lon="11.461382934054367"><ele>248.33333333333334</ele><time>2026-04-11T04:37:43.999Z</time></trkpt><trkpt lat="43.33595923233205" lon="11.461274773964519"><ele>247.66666666666669</ele><time>2026-04-11T04:37:44.999Z</time></trkpt><trkpt lat="43.33596057606288" lon="11.461159598641744"><ele>247.0</ele><time>2026-04-11T04:37:45.999Z</time></trkpt><trkpt lat="43.335960237261986" lon="11.461049020888874"><ele>246.33333333333334</ele><time>2026-04-11T04:37:46.999Z</time></trkpt><trkpt lat="43.33596864559408" lon="11.460944427465892"><ele>245.66666666666669</ele><time>2026-04-11T04:37:47.999Z</time></trkpt><trkpt lat="43.33597496105596" lon="11.460844178759752"><ele>245.0</ele><time>2026-04-11T04:37:48.999Z</time></trkpt><trkpt lat="43.33600305305503" lon="11.460744927462212"><ele>245.00000000000003</ele><time>2026-04-11T04:37:49.999Z</time></trkpt><trkpt lat="43.33600053452443" lon="11.460639561622227"><ele>245.0</ele><time>2026-04-11T04:37:50.999Z</time></trkpt><trkpt lat="43.33601687181563" lon="11.46053812203475"><ele>245.0</ele><time>2026-04-11T04:37:51.999Z</time></trkpt><trkpt lat="43.336032930676836" lon="11.460438599150455"><ele>245.0</ele><time>2026-04-11T04:37:52.999Z</time></trkpt><trkpt lat="43.33605104795113" lon="11.46033940445907"><ele>245.00000000000003</ele><time>2026-04-11T04:37:53.999Z</time></trkpt><trkpt lat="43.33606554919845" lon="11.460234557880284"><ele>245.0</ele><time>2026-04-11T04:37:54.999Z</time></trkpt><trkpt lat="43.33608035599754" lon="11.46012155700235"><ele>244.50000000000003</ele><time>2026-04-11T04:37:55.999Z</time></trkpt><trkpt lat="43.336093243009245" lon="11.460009489094482"><ele>244.0</ele><time>2026-04-11T04:37:56.999Z</time></trkpt><trkpt lat="43.336105170548876" lon="11.459898070970839"><ele>243.5</ele><time>2026-04-11T04:37:57.999Z</time></trkpt><trkpt lat="43.33610845640765" lon="11.459782796175025"><ele>243.0</ele><time>2026-04-11T04:37:58.999Z</time></trkpt><trkpt lat="43.336115743052964" lon="11.459657129940032"><ele>242.50000000000003</ele><time>2026-04-11T04:37:59.999Z</time></trkpt><trkpt lat="43.33611089605467" lon="11.459539499670463"><ele>242.0</ele><time>2026-04-11T04:38:00.999Z</time></trkpt><trkpt lat="43.336086535140424" lon="11.45943131962392"><ele>242.00000000000003</ele><time>2026-04-11T04:38:01.999Z</time></trkpt><trkpt lat="43.33608566966679" lon="11.45931758421638"><ele>242.0</ele><time>2026-04-11T04:38:02.999Z</time></trkpt><trkpt lat="43.336068546940616" lon="11.459211380509768"><ele>242.0</ele><time>2026-04-11T04:38:03.999Z</time></trkpt><trkpt lat="43.33605157596941" lon="11.459106117766144"><ele>242.0</ele><time>2026-04-11T04:38:04.999Z</time></trkpt><trkpt lat="43.336034651205956" lon="11.45900174527027"><ele>242.00000000000003</ele><time>2026-04-11T04:38:05.999Z</time></trkpt><trkpt lat="43.33602089195974" lon="11.458899225343714"><ele>242.0</ele><time>2026-04-11T04:38:06.999Z</time></trkpt><trkpt lat="43.336021345314464" lon="11.45880023656274"><ele>242.00000000000003</ele><time>2026-04-11T04:38:07.999Z</time></trkpt><trkpt lat="43.33604106297627" lon="11.458705394435547"><ele>242.0</ele><time>2026-04-11T04:38:08.999Z</time></trkpt><trkpt lat="43.33607730502317" lon="11.458618280744709"><ele>242.0</ele><time>2026-04-11T04:38:09.999Z</time></trkpt><trkpt lat="43.336117286692605" lon="11.458522777041809"><ele>242.0</ele><time>2026-04-11T04:38:10.998Z</time></trkpt><trkpt lat="43.33615080744623" lon="11.458434842976196"><ele>242.00000000000003</ele><time>2026-04-11T04:38:11.998Z</time></trkpt><trkpt lat="43.336159463786096" lon="11.458336439228136"><ele>242.0</ele><time>2026-04-11T04:38:12.998Z</time></trkpt><trkpt lat="43.336207590890425" lon="11.458181456010479"><ele>242.0</ele><time>2026-04-11T04:38:14.998Z</time></trkpt><trkpt lat="43.336235770079824" lon="11.458036527713958"><ele>242.0</ele><time>2026-04-11T04:38:16.998Z</time></trkpt><trkpt lat="43.33626124634145" lon="11.457893465766853"><ele>242.0</ele><time>2026-04-11T04:38:18.998Z</time></trkpt><trkpt lat="43.33628655649087" lon="11.457748954731171"><ele>242.0</ele><time>2026-04-11T04:38:20.998Z</time></trkpt><trkpt lat="43.33631553894879" lon="11.45761317730565"><ele>242.0</ele><time>2026-04-11T04:38:22.998Z</time></trkpt><trkpt lat="43.33634969115652" lon="11.457462098512034"><ele>242.00000000000003</ele><time>2026-04-11T04:38:24.998Z</time></trkpt><trkpt lat="43.33637355419056" lon="11.457292923218603"><ele>242.0</ele><time>2026-04-11T04:38:26.998Z</time></trkpt><trkpt lat="43.33637044919649" lon="11.457204594106328"><ele>242.0</ele><time>2026-04-11T04:38:27.998Z</time></trkpt><trkpt lat="43.33637592721993" lon="11.457113265896982"><ele>242.0</ele><time>2026-04-11T04:38:28.998Z</time></trkpt><trkpt lat="43.33637433443061" lon="11.45701951406469"><ele>242.00000000000003</ele><time>2026-04-11T04:38:29.998Z</time></trkpt><trkpt lat="43.336367981836226" lon="11.456923382075628"><ele>242.0</ele><time>2026-04-11T04:38:30.998Z</time></trkpt><trkpt lat="43.336358952447576" lon="11.456822141780055"><ele>241.14285714285714</ele><time>2026-04-11T04:38:31.998Z</time></trkpt><trkpt lat="43.336346351334235" lon="11.456722177638015"><ele>240.28571428571428</ele><time>2026-04-11T04:38:32.998Z</time></trkpt><trkpt lat="43.33633376154047" lon="11.456624210411668"><ele>239.42857142857142</ele><time>2026-04-11T04:38:33.998Z</time></trkpt><trkpt lat="43.33633926292778" lon="11.45652508757553"><ele>238.57142857142856</ele><time>2026-04-11T04:38:34.998Z</time></trkpt><trkpt lat="43.33633217138307" lon="11.456429969751898"><ele>237.71428571428572</ele><time>2026-04-11T04:38:35.998Z</time></trkpt><trkpt lat="43.336315090960184" lon="11.456333971382202"><ele>236.85714285714283</ele><time>2026-04-11T04:38:36.998Z</time></trkpt><trkpt lat="43.33632454059899" lon="11.456243216057866"><ele>236.0</ele><time>2026-04-11T04:38:37.998Z</time></trkpt><trkpt lat="43.33634093355534" lon="11.456156576474031"><ele>235.50000000000003</ele><time>2026-04-11T04:38:38.998Z</time></trkpt><trkpt lat="43.33639287584228" lon="11.456007391767692"><ele>235.0</ele><time>2026-04-11T04:38:40.998Z</time></trkpt><trkpt lat="43.33640293992688" lon="11.455917633627084"><ele>234.5</ele><time>2026-04-11T04:38:41.998Z</time></trkpt><trkpt lat="43.33643340796109" lon="11.45583057322683"><ele>234.0</ele><time>2026-04-11T04:38:42.998Z</time></trkpt><trkpt lat="43.3364826145459" lon="11.455747545106147"><ele>233.50000000000003</ele><time>2026-04-11T04:38:43.998Z</time></trkpt><trkpt lat="43.3365016205291" lon="11.455643686286976"><ele>233.0</ele><time>2026-04-11T04:38:44.998Z</time></trkpt><trkpt lat="43.336532344224274" lon="11.455548422643117"><ele>233.00000000000003</ele><time>2026-04-11T04:38:45.998Z</time></trkpt><trkpt lat="43.33657843490899" lon="11.455463752865835"><ele>233.0</ele><time>2026-04-11T04:38:46.998Z</time></trkpt><trkpt lat="43.33660936738172" lon="11.455371354447843"><ele>233.0</ele><time>2026-04-11T04:38:47.998Z</time></trkpt><trkpt lat="43.336640136313996" lon="11.455279444534494"><ele>233.0</ele><time>2026-04-11T04:38:48.998Z</time></trkpt><trkpt lat="43.33667162497915" lon="11.455183079755077"><ele>233.00000000000003</ele><time>2026-04-11T04:38:49.998Z</time></trkpt><trkpt lat="43.336688868580694" lon="11.455078860241093"><ele>233.0</ele><time>2026-04-11T04:38:50.998Z</time></trkpt><trkpt lat="43.336723491351016" lon="11.454982211123676"><ele>232.66666666666669</ele><time>2026-04-11T04:38:51.998Z</time></trkpt><trkpt lat="43.336757168606724" lon="11.454884714175202"><ele>232.33333333333334</ele><time>2026-04-11T04:38:52.998Z</time></trkpt><trkpt lat="43.33678759216508" lon="11.454787224269747"><ele>232.0</ele><time>2026-04-11T04:38:53.998Z</time></trkpt><trkpt lat="43.33681065741067" lon="11.454692233463058"><ele>231.66666666666669</ele><time>2026-04-11T04:38:54.998Z</time></trkpt><trkpt lat="43.3368210115112" lon="11.454592806036596"><ele>231.33333333333334</ele><time>2026-04-11T04:38:55.998Z</time></trkpt><trkpt lat="43.33684258195161" lon="11.454494617018671"><ele>231.0</ele><time>2026-04-11T04:38:56.998Z</time></trkpt><trkpt lat="43.336843553652905" lon="11.454393116088823"><ele>231.0</ele><time>2026-04-11T04:38:57.998Z</time></trkpt><trkpt lat="43.33684526860852" lon="11.45429406859619"><ele>231.0</ele><time>2026-04-11T04:38:58.998Z</time></trkpt><trkpt lat="43.33684820196167" lon="11.454196854458226"><ele>231.0</ele><time>2026-04-11T04:38:59.998Z</time></trkpt><trkpt lat="43.336838285992854" lon="11.454097156595749"><ele>231.0</ele><time>2026-04-11T04:39:00.998Z</time></trkpt><trkpt lat="43.336859782469496" lon="11.45400127253301"><ele>231.0</ele><time>2026-04-11T04:39:01.998Z</time></trkpt><trkpt lat="43.33685963426915" lon="11.45390487498573"><ele>231.0</ele><time>2026-04-11T04:39:02.997Z</time></trkpt><trkpt lat="43.336864918259614" lon="11.453811446747"><ele>231.0</ele><time>2026-04-11T04:39:03.997Z</time></trkpt><trkpt lat="43.33686817367154" lon="11.453716002063716"><ele>231.0</ele><time>2026-04-11T04:39:04.997Z</time></trkpt><trkpt lat="43.33687256037976" lon="11.45362178682288"><ele>231.0</ele><time>2026-04-11T04:39:05.997Z</time></trkpt><trkpt lat="43.33686906110717" lon="11.453525435012455"><ele>231.0</ele><time>2026-04-11T04:39:06.997Z</time></trkpt><trkpt lat="43.33685631272686" lon="11.453426469051179"><ele>231.0</ele><time>2026-04-11T04:39:07.997Z</time></trkpt><trkpt lat="43.33683332191559" lon="11.453325255801355"><ele>231.0</ele><time>2026-04-11T04:39:09Z</time></trkpt><trkpt lat="43.336802228208" lon="11.453221561229899"><ele>231.0</ele><time>2026-04-11T04:39:10Z</time></trkpt><trkpt lat="43.33676441809458" lon="11.453114941202026"><ele>231.0</ele><time>2026-04-11T04:39:11Z</time></trkpt><trkpt lat="43.336723978785336" lon="11.453005703844388"><ele>231.0</ele><time>2026-04-11T04:39:12Z</time></trkpt><trkpt lat="43.336682558053184" lon="11.452898593170774"><ele>231.0</ele><time>2026-04-11T04:39:13Z</time></trkpt><trkpt lat="43.33663965672263" lon="11.452792882532492"><ele>231.0</ele><time>2026-04-11T04:39:14Z</time></trkpt><trkpt lat="43.33659508940184" lon="11.452686862894085"><ele>231.0</ele><time>2026-04-11T04:39:15Z</time></trkpt><trkpt lat="43.33655496061653" lon="11.452576944647799"><ele>231.0</ele><time>2026-04-11T04:39:16Z</time></trkpt><trkpt lat="43.33651462023889" lon="11.452463072768087"><ele>230.60000000000002</ele><time>2026-04-11T04:39:17Z</time></trkpt><trkpt lat="43.33646917177625" lon="11.452347145250178"><ele>230.20000000000002</ele><time>2026-04-11T04:39:18Z</time></trkpt><trkpt lat="43.33642327228386" lon="11.452229430698429"><ele>229.79999999999998</ele><time>2026-04-11T04:39:19Z</time></trkpt><trkpt lat="43.33637440679741" lon="11.452109208869047"><ele>229.39999999999998</ele><time>2026-04-11T04:39:20Z</time></trkpt><trkpt lat="43.336323572010954" lon="11.451982338619388"><ele>229.0</ele><time>2026-04-11T04:39:21Z</time></trkpt><trkpt lat="43.33627436284091" lon="11.451852561862077"><ele>227.39999999999998</ele><time>2026-04-11T04:39:22Z</time></trkpt><trkpt lat="43.336226537603025" lon="11.451729196319778"><ele>225.79999999999998</ele><time>2026-04-11T04:39:23Z</time></trkpt><trkpt lat="43.33617927494934" lon="11.451610407810904"><ele>224.20000000000002</ele><time>2026-04-11T04:39:24Z</time></trkpt><trkpt lat="43.33613621007718" lon="11.451503474234563"><ele>222.60000000000002</ele><time>2026-04-11T04:39:25Z</time></trkpt><trkpt lat="43.336096451623646" lon="11.451412652216634"><ele>221.0</ele><time>2026-04-11T04:39:26Z</time></trkpt><trkpt lat="43.33604518920028" lon="11.45131649322526"><ele>220.8</ele><time>2026-04-11T04:39:26.999Z</time></trkpt><trkpt lat="43.335975844154845" lon="11.45122417155816"><ele>220.60000000000002</ele><time>2026-04-11T04:39:27.999Z</time></trkpt><trkpt lat="43.335888224071255" lon="11.451146668781995"><ele>220.4</ele><time>2026-04-11T04:39:28.999Z</time></trkpt><trkpt lat="43.33579311177616" lon="11.45108122077098"><ele>220.2</ele><time>2026-04-11T04:39:29.999Z</time></trkpt><trkpt lat="43.33569474898171" lon="11.451024732308746"><ele>220.0</ele><time>2026-04-11T04:39:30.999Z</time></trkpt><trkpt lat="43.335607725997534" lon="11.450978578918534"><ele>218.49999999999997</ele><time>2026-04-11T04:39:31.999Z</time></trkpt><trkpt lat="43.335532727361674" lon="11.450933369362154"><ele>217.0</ele><time>2026-04-11T04:39:32.999Z</time></trkpt><trkpt lat="43.33547224747457" lon="11.45086426004403"><ele>215.5</ele><time>2026-04-11T04:39:33.999Z</time></trkpt><trkpt lat="43.33542936123451" lon="11.450779481411308"><ele>214.0</ele><time>2026-04-11T04:39:34.999Z</time></trkpt><trkpt lat="43.3354144467523" lon="11.450670207101274"><ele>212.49999999999997</ele><time>2026-04-11T04:39:35.999Z</time></trkpt><trkpt lat="43.33543614296014" lon="11.450553850355515"><ele>211.0</ele><time>2026-04-11T04:39:36.999Z</time></trkpt><trkpt lat="43.33551226874687" lon="11.45046685947474"><ele>211.20000000000002</ele><time>2026-04-11T04:39:37.999Z</time></trkpt><trkpt lat="43.33555955986624" lon="11.450354368722797"><ele>211.4</ele><time>2026-04-11T04:39:38.999Z</time></trkpt><trkpt lat="43.335625537866974" lon="11.450260091486976"><ele>211.6</ele><time>2026-04-11T04:39:39.999Z</time></trkpt><trkpt lat="43.3356947191609" lon="11.45016420317661"><ele>211.8</ele><time>2026-04-11T04:39:40.999Z</time></trkpt><trkpt lat="43.33577721247038" lon="11.450085274091746"><ele>212.0</ele><time>2026-04-11T04:39:41.999Z</time></trkpt><trkpt lat="43.33585117614765" lon="11.450008285377178"><ele>212.00000000000003</ele><time>2026-04-11T04:39:42.999Z</time></trkpt><trkpt lat="43.33592900828923" lon="11.449951008616488"><ele>212.0</ele><time>2026-04-11T04:39:43.999Z</time></trkpt><trkpt lat="43.33601309688263" lon="11.449917049977179"><ele>212.0</ele><time>2026-04-11T04:39:44.999Z</time></trkpt><trkpt lat="43.336099469930566" lon="11.449928372021388"><ele>212.0</ele><time>2026-04-11T04:39:45.999Z</time></trkpt><trkpt lat="43.33618927261102" lon="11.449935809483915"><ele>212.00000000000003</ele><time>2026-04-11T04:39:46.999Z</time></trkpt><trkpt lat="43.3362690180641" lon="11.449940441453942"><ele>212.0</ele><time>2026-04-11T04:39:47.999Z</time></trkpt><trkpt lat="43.33635170155928" lon="11.449904089984381"><ele>211.6</ele><time>2026-04-11T04:39:48.999Z</time></trkpt><trkpt lat="43.336425977050276" lon="11.449802917884545"><ele>211.2</ele><time>2026-04-11T04:39:49.999Z</time></trkpt><trkpt lat="43.33643957601952" lon="11.449633407478894"><ele>210.8</ele><time>2026-04-11T04:39:50.999Z</time></trkpt><trkpt lat="43.336453680218575" lon="11.44950110554512"><ele>210.4</ele><time>2026-04-11T04:39:51.999Z</time></trkpt><trkpt lat="43.33647939271685" lon="11.449380189891498"><ele>210.0</ele><time>2026-04-11T04:39:52.999Z</time></trkpt><trkpt lat="43.33649548349911" lon="11.449260487654954"><ele>210.0</ele><time>2026-04-11T04:39:53.999Z</time></trkpt><trkpt lat="43.33650591670801" lon="11.44914312456649"><ele>210.0</ele><time>2026-04-11T04:39:54.999Z</time></trkpt><trkpt lat="43.33649903442356" lon="11.449024499694788"><ele>210.0</ele><time>2026-04-11T04:39:55.999Z</time></trkpt><trkpt lat="43.33649131444232" lon="11.448903071245985"><ele>210.0</ele><time>2026-04-11T04:39:56.999Z</time></trkpt><trkpt lat="43.336464739295515" lon="11.448783461763178"><ele>210.0</ele><time>2026-04-11T04:39:57.999Z</time></trkpt><trkpt lat="43.3364252608255" lon="11.448670351541223"><ele>210.0</ele><time>2026-04-11T04:39:58.999Z</time></trkpt><trkpt lat="43.336378587128685" lon="11.448565868515534"><ele>209.5</ele><time>2026-04-11T04:39:59.999Z</time></trkpt><trkpt lat="43.3363329919855" lon="11.448464088653123"><ele>209.0</ele><time>2026-04-11T04:40:00.999Z</time></trkpt><trkpt lat="43.336284535381694" lon="11.448367583051665"><ele>208.5</ele><time>2026-04-11T04:40:01.999Z</time></trkpt><trkpt lat="43.336235046872936" lon="11.448279792888709"><ele>208.0</ele><time>2026-04-11T04:40:02.999Z</time></trkpt><trkpt lat="43.336193568931" lon="11.448197708545669"><ele>207.5</ele><time>2026-04-11T04:40:03.999Z</time></trkpt><trkpt lat="43.33615590358961" lon="11.44811868839465"><ele>207.0</ele><time>2026-04-11T04:40:04.999Z</time></trkpt><trkpt lat="43.3361279860455" lon="11.448028389999573"><ele>207.0</ele><time>2026-04-11T04:40:05.999Z</time></trkpt><trkpt lat="43.33612522420739" lon="11.447920205488666"><ele>207.0</ele><time>2026-04-11T04:40:06.999Z</time></trkpt><trkpt lat="43.336186756298645" lon="11.447828494889423"><ele>207.0</ele><time>2026-04-11T04:40:07.999Z</time></trkpt><trkpt lat="43.336225472408394" lon="11.447726245103967"><ele>207.0</ele><time>2026-04-11T04:40:08.999Z</time></trkpt><trkpt lat="43.33627109086756" lon="11.44764134797135"><ele>207.0</ele><time>2026-04-11T04:40:09.999Z</time></trkpt><trkpt lat="43.336316887460505" lon="11.447552738119379"><ele>207.0</ele><time>2026-04-11T04:40:10.999Z</time></trkpt><trkpt lat="43.3363613174067" lon="11.447463410094977"><ele>207.16666666666666</ele><time>2026-04-11T04:40:11.999Z</time></trkpt><trkpt lat="43.3364009048565" lon="11.447357211935575"><ele>207.33333333333331</ele><time>2026-04-11T04:40:12.999Z</time></trkpt><trkpt lat="43.33643396544674" lon="11.447257110871211"><ele>207.5</ele><time>2026-04-11T04:40:13.999Z</time></trkpt><trkpt lat="43.33646356520975" lon="11.447147718636083"><ele>207.66666666666666</ele><time>2026-04-11T04:40:14.999Z</time></trkpt><trkpt lat="43.33648223672884" lon="11.447034735717743"><ele>207.83333333333331</ele><time>2026-04-11T04:40:15.999Z</time></trkpt><trkpt lat="43.33649068145104" lon="11.446920517676364"><ele>208.0</ele><time>2026-04-11T04:40:16.999Z</time></trkpt><trkpt lat="43.33646812727" lon="11.446810367558598"><ele>208.16666666666666</ele><time>2026-04-11T04:40:17.999Z</time></trkpt><trkpt lat="43.33646518326324" lon="11.446709628595576"><ele>208.33333333333331</ele><time>2026-04-11T04:40:18.999Z</time></trkpt><trkpt lat="43.336451771751605" lon="11.446613583735214"><ele>208.5</ele><time>2026-04-11T04:40:19.998Z</time></trkpt><trkpt lat="43.336432718930276" lon="11.446524888384534"><ele>208.66666666666669</ele><time>2026-04-11T04:40:20.998Z</time></trkpt><trkpt lat="43.3364115168324" lon="11.446440659268216"><ele>208.83333333333334</ele><time>2026-04-11T04:40:21.998Z</time></trkpt><trkpt lat="43.33636263633822" lon="11.446288346890528"><ele>209.0</ele><time>2026-04-11T04:40:23.998Z</time></trkpt><trkpt lat="43.33633811921505" lon="11.446135279835838"><ele>209.83333333333334</ele><time>2026-04-11T04:40:25.998Z</time></trkpt><trkpt lat="43.336305837895516" lon="11.446000294214313"><ele>210.66666666666669</ele><time>2026-04-11T04:40:27.998Z</time></trkpt><trkpt lat="43.33626342006861" lon="11.4458837675472"><ele>211.5</ele><time>2026-04-11T04:40:29.998Z</time></trkpt><trkpt lat="43.33624453367942" lon="11.44576868454183"><ele>212.33333333333331</ele><time>2026-04-11T04:40:31.998Z</time></trkpt><trkpt lat="43.336220594475535" lon="11.445667120384973"><ele>213.16666666666666</ele><time>2026-04-11T04:40:33.998Z</time></trkpt><trkpt lat="43.33619331045544" lon="11.445574561487335"><ele>214.0</ele><time>2026-04-11T04:40:35.998Z</time></trkpt><trkpt lat="43.33616159208536" lon="11.4454902672528"><ele>215.16666666666666</ele><time>2026-04-11T04:40:37.998Z</time></trkpt><trkpt lat="43.33612986274857" lon="11.445411347953259"><ele>216.33333333333331</ele><time>2026-04-11T04:40:40.998Z</time></trkpt><trkpt lat="43.33608487010254" lon="11.445311168418232"><ele>217.5</ele><time>2026-04-11T04:40:43.998Z</time></trkpt><trkpt lat="43.33603511570919" lon="11.445212555334951"><ele>218.66666666666669</ele><time>2026-04-11T04:40:46.998Z</time></trkpt><trkpt lat="43.335975134764524" lon="11.445116326436374"><ele>219.83333333333334</ele><time>2026-04-11T04:40:49.998Z</time></trkpt><trkpt lat="43.33592525534861" lon="11.445017916433162"><ele>221.0</ele><time>2026-04-11T04:40:52.998Z</time></trkpt><trkpt lat="43.33588794300071" lon="11.44493934812034"><ele>221.00000000000003</ele><time>2026-04-11T04:40:54.998Z</time></trkpt><trkpt lat="43.33582404385333" lon="11.444817304600626"><ele>221.0</ele><time>2026-04-11T04:40:56.998Z</time></trkpt><trkpt lat="43.33577099244032" lon="11.444703162148015"><ele>221.0</ele><time>2026-04-11T04:40:58.998Z</time></trkpt><trkpt lat="43.33572338265839" lon="11.444600188828504"><ele>221.0</ele><time>2026-04-11T04:41:00.998Z</time></trkpt><trkpt lat="43.33567728964357" lon="11.444526450122655"><ele>221.00000000000003</ele><time>2026-04-11T04:41:02.998Z</time></trkpt><trkpt lat="43.33564168688368" lon="11.444443148337431"><ele>221.0</ele><time>2026-04-11T04:41:04.998Z</time></trkpt><trkpt lat="43.33559715552267" lon="11.444381525927502"><ele>221.14285714285717</ele><time>2026-04-11T04:41:06.998Z</time></trkpt><trkpt lat="43.33556115016907" lon="11.444302991547685"><ele>221.28571428571428</ele><time>2026-04-11T04:41:08.998Z</time></trkpt><trkpt lat="43.33551898548851" lon="11.444226546133425"><ele>221.42857142857144</ele><time>2026-04-11T04:41:10.998Z</time></trkpt><trkpt lat="43.33547789937082" lon="11.444151442871537"><ele>221.57142857142858</ele><time>2026-04-11T04:41:12.997Z</time></trkpt><trkpt lat="43.3354382276838" lon="11.44407990160843"><ele>221.71428571428572</ele><time>2026-04-11T04:41:15Z</time></trkpt><trkpt lat="43.33539740330229" lon="11.44399261250846"><ele>221.85714285714286</ele><time>2026-04-11T04:41:17Z</time></trkpt><trkpt lat="43.33535967330174" lon="11.443911262649475"><ele>222.0</ele><time>2026-04-11T04:41:20Z</time></trkpt><trkpt lat="43.33530346357981" lon="11.443809821819702"><ele>221.8</ele><time>2026-04-11T04:41:23Z</time></trkpt><trkpt lat="43.33525113147121" lon="11.443706684712458"><ele>221.6</ele><time>2026-04-11T04:41:26Z</time></trkpt><trkpt lat="43.3352053719519" lon="11.443606099370392"><ele>221.40000000000003</ele><time>2026-04-11T04:41:29Z</time></trkpt><trkpt lat="43.33513332370322" lon="11.443420998753835"><ele>221.20000000000002</ele><time>2026-04-11T04:41:31Z</time></trkpt><trkpt lat="43.335110742539506" lon="11.443286948635368"><ele>221.0</ele><time>2026-04-11T04:41:32.999Z</time></trkpt><trkpt lat="43.33510494429535" lon="11.443106334592875"><ele>221.0</ele><time>2026-04-11T04:41:34.999Z</time></trkpt><trkpt lat="43.33513300859163" lon="11.443007715006038"><ele>221.00000000000003</ele><time>2026-04-11T04:41:35.999Z</time></trkpt><trkpt lat="43.33514078872277" lon="11.442896699961379"><ele>221.00000000000003</ele><time>2026-04-11T04:41:36.999Z</time></trkpt><trkpt lat="43.335164353983174" lon="11.442767537419346"><ele>221.0</ele><time>2026-04-11T04:41:37.999Z</time></trkpt><trkpt lat="43.33520037375441" lon="11.442627768792862"><ele>221.0</ele><time>2026-04-11T04:41:38.999Z</time></trkpt><trkpt lat="43.335251732301074" lon="11.442471658937938"><ele>219.20000000000002</ele><time>2026-04-11T04:41:39.999Z</time></trkpt><trkpt lat="43.33528457929108" lon="11.442324077889813"><ele>217.40000000000003</ele><time>2026-04-11T04:41:40.999Z</time></trkpt><trkpt lat="43.335306897849826" lon="11.44218414296616"><ele>215.6</ele><time>2026-04-11T04:41:41.999Z</time></trkpt><trkpt lat="43.33531818338972" lon="11.442044405726389"><ele>213.8</ele><time>2026-04-11T04:41:42.999Z</time></trkpt><trkpt lat="43.33531250056334" lon="11.441904474951672"><ele>212.0</ele><time>2026-04-11T04:41:43.999Z</time></trkpt><trkpt lat="43.33528470732318" lon="11.441775261515481"><ele>212.0</ele><time>2026-04-11T04:41:44.999Z</time></trkpt><trkpt lat="43.3352390148364" lon="11.441657734612656"><ele>212.0</ele><time>2026-04-11T04:41:45.999Z</time></trkpt><trkpt lat="43.33519183134757" lon="11.441552069592841"><ele>212.0</ele><time>2026-04-11T04:41:46.999Z</time></trkpt><trkpt lat="43.335155968332714" lon="11.44143196599177"><ele>212.0</ele><time>2026-04-11T04:41:47.999Z</time></trkpt><trkpt lat="43.33512319063724" lon="11.441309541754903"><ele>212.0</ele><time>2026-04-11T04:41:48.999Z</time></trkpt><trkpt lat="43.33512851218576" lon="11.441199945302069"><ele>213.16666666666669</ele><time>2026-04-11T04:41:49.999Z</time></trkpt><trkpt lat="43.335133185375014" lon="11.441096691845026"><ele>214.33333333333334</ele><time>2026-04-11T04:41:50.999Z</time></trkpt><trkpt lat="43.33513805760048" lon="11.440998834385459"><ele>215.5</ele><time>2026-04-11T04:41:51.999Z</time></trkpt><trkpt lat="43.33514522146108" lon="11.440907283614845"><ele>216.66666666666669</ele><time>2026-04-11T04:41:52.999Z</time></trkpt><trkpt lat="43.335149951206404" lon="11.440744241801461"><ele>217.83333333333334</ele><time>2026-04-11T04:41:54.999Z</time></trkpt><trkpt lat="43.33514164618993" lon="11.440608886135868"><ele>219.0</ele><time>2026-04-11T04:41:56.999Z</time></trkpt><trkpt lat="43.33513060336072" lon="11.440499529383672"><ele>219.85714285714286</ele><time>2026-04-11T04:41:58.999Z</time></trkpt><trkpt lat="43.33511657892246" lon="11.440404310317076"><ele>220.71428571428572</ele><time>2026-04-11T04:42:00.999Z</time></trkpt><trkpt lat="43.33507167905023" lon="11.440312944154053"><ele>221.57142857142858</ele><time>2026-04-11T04:42:03.999Z</time></trkpt><trkpt lat="43.3350469128571" lon="11.440233279476804"><ele>222.42857142857144</ele><time>2026-04-11T04:42:06.999Z</time></trkpt><trkpt lat="43.33501166976283" lon="11.440142560777742"><ele>223.28571428571428</ele><time>2026-04-11T04:42:09.999Z</time></trkpt><trkpt lat="43.33497799991699" lon="11.440052513986076"><ele>224.14285714285717</ele><time>2026-04-11T04:42:12.999Z</time></trkpt><trkpt lat="43.334951441065776" lon="11.43995770593265"><ele>225.00000000000003</ele><time>2026-04-11T04:42:16.999Z</time></trkpt><trkpt lat="43.334920459492395" lon="11.43985896855121"><ele>225.0</ele><time>2026-04-11T04:42:20.999Z</time></trkpt><trkpt lat="43.33488125403721" lon="11.439768311004308"><ele>225.0</ele><time>2026-04-11T04:42:24.998Z</time></trkpt><trkpt lat="43.334841214873876" lon="11.439679579897383"><ele>225.0</ele><time>2026-04-11T04:42:28.998Z</time></trkpt><trkpt lat="43.33480873380431" lon="11.43959761704286"><ele>225.0</ele><time>2026-04-11T04:42:31.998Z</time></trkpt><trkpt lat="43.33477195693084" lon="11.439492785264772"><ele>225.0</ele><time>2026-04-11T04:42:34.998Z</time></trkpt><trkpt lat="43.33472993419313" lon="11.439403601571959"><ele>225.0</ele><time>2026-04-11T04:42:37.998Z</time></trkpt><trkpt lat="43.334688355252396" lon="11.439312546146041"><ele>226.00000000000003</ele><time>2026-04-11T04:42:40.998Z</time></trkpt><trkpt lat="43.33465162030583" lon="11.43922752851584"><ele>227.0</ele><time>2026-04-11T04:42:43.998Z</time></trkpt><trkpt lat="43.33461379378322" lon="11.439153235029355"><ele>228.00000000000003</ele><time>2026-04-11T04:42:46.998Z</time></trkpt><trkpt lat="43.33457011503603" lon="11.439084297382122"><ele>229.00000000000003</ele><time>2026-04-11T04:42:49.998Z</time></trkpt><trkpt lat="43.33452635518158" lon="11.439007924670321"><ele>230.0</ele><time>2026-04-11T04:42:52.998Z</time></trkpt><trkpt lat="43.33449364658915" lon="11.438916915058314"><ele>231.00000000000003</ele><time>2026-04-11T04:42:55.998Z</time></trkpt><trkpt lat="43.334438133933055" lon="11.438838171734753"><ele>232.00000000000003</ele><time>2026-04-11T04:42:58.998Z</time></trkpt><trkpt lat="43.33436811993241" lon="11.438784822471918"><ele>232.00000000000003</ele><time>2026-04-11T04:43:01.998Z</time></trkpt><trkpt lat="43.33429535194893" lon="11.438740719254529"><ele>232.0</ele><time>2026-04-11T04:43:04.998Z</time></trkpt><trkpt lat="43.33421480910578" lon="11.438697763595135"><ele>232.00000000000003</ele><time>2026-04-11T04:43:07.998Z</time></trkpt><trkpt lat="43.33414930541126" lon="11.43867865872125"><ele>232.00000000000003</ele><time>2026-04-11T04:43:09.998Z</time></trkpt><trkpt lat="43.334081388969935" lon="11.438652730239037"><ele>232.0</ele><time>2026-04-11T04:43:11.998Z</time></trkpt><trkpt lat="43.33402036241102" lon="11.43861225895274"><ele>232.00000000000003</ele><time>2026-04-11T04:43:13.998Z</time></trkpt><trkpt lat="43.333960927241236" lon="11.438574326681902"><ele>232.00000000000003</ele><time>2026-04-11T04:43:15.998Z</time></trkpt><trkpt lat="43.333887137031226" lon="11.438496860271261"><ele>232.5714285714286</ele><time>2026-04-11T04:43:19Z</time></trkpt><trkpt lat="43.3338207320132" lon="11.438403448594283"><ele>233.14285714285717</ele><time>2026-04-11T04:43:22Z</time></trkpt><trkpt lat="43.33377500708006" lon="11.43833237457807"><ele>233.71428571428572</ele><time>2026-04-11T04:43:24Z</time></trkpt><trkpt lat="43.333736584062585" lon="11.43825717320696"><ele>234.2857142857143</ele><time>2026-04-11T04:43:26Z</time></trkpt><trkpt lat="43.33370487265742" lon="11.438175250618965"><ele>234.8571428571429</ele><time>2026-04-11T04:43:28Z</time></trkpt><trkpt lat="43.33368780045331" lon="11.438091750438815"><ele>235.42857142857142</ele><time>2026-04-11T04:43:30Z</time></trkpt><trkpt lat="43.33366781938204" lon="11.437977368982866"><ele>236.0</ele><time>2026-04-11T04:43:33Z</time></trkpt><trkpt lat="43.333659684950305" lon="11.43786811565851"><ele>236.57142857142856</ele><time>2026-04-11T04:43:36Z</time></trkpt><trkpt lat="43.33365251145659" lon="11.437764811979948"><ele>237.14285714285717</ele><time>2026-04-11T04:43:38.999Z</time></trkpt><trkpt lat="43.33364552652328" lon="11.437663854086237"><ele>237.71428571428572</ele><time>2026-04-11T04:43:41.999Z</time></trkpt><trkpt lat="43.33364316987547" lon="11.437553019854604"><ele>238.28571428571428</ele><time>2026-04-11T04:43:44.999Z</time></trkpt><trkpt lat="43.333648114671206" lon="11.437437377044665"><ele>238.85714285714283</ele><time>2026-04-11T04:43:47.999Z</time></trkpt><trkpt lat="43.33365529944482" lon="11.437345407345436"><ele>239.42857142857144</ele><time>2026-04-11T04:43:50.999Z</time></trkpt><trkpt lat="43.333650842851476" lon="11.437252371110848"><ele>240.0</ele><time>2026-04-11T04:43:52.999Z</time></trkpt><trkpt lat="43.33364165820436" lon="11.437148889717344"><ele>240.5</ele><time>2026-04-11T04:43:55.999Z</time></trkpt><trkpt lat="43.33362557871896" lon="11.43703653888184"><ele>241.0</ele><time>2026-04-11T04:43:58.999Z</time></trkpt><trkpt lat="43.3336048700033" lon="11.436917956681734"><ele>241.5</ele><time>2026-04-11T04:44:00.999Z</time></trkpt><trkpt lat="43.333587064202725" lon="11.436790306243092"><ele>242.0</ele><time>2026-04-11T04:44:03.999Z</time></trkpt><trkpt lat="43.33357428299096" lon="11.436697818478665"><ele>242.5</ele><time>2026-04-11T04:44:05.999Z</time></trkpt><trkpt lat="43.33355991076339" lon="11.436599202051857"><ele>243.0</ele><time>2026-04-11T04:44:07.999Z</time></trkpt><trkpt lat="43.333548053802325" lon="11.436497067574352"><ele>243.0</ele><time>2026-04-11T04:44:09.999Z</time></trkpt><trkpt lat="43.33353897529787" lon="11.436391484118415"><ele>243.0</ele><time>2026-04-11T04:44:11.999Z</time></trkpt><trkpt lat="43.33352347561526" lon="11.436287665023057"><ele>243.0</ele><time>2026-04-11T04:44:13.999Z</time></trkpt><trkpt lat="43.33351235609387" lon="11.43618299352034"><ele>243.0</ele><time>2026-04-11T04:44:15.999Z</time></trkpt><trkpt lat="43.333506475181224" lon="11.436074722737825"><ele>243.0</ele><time>2026-04-11T04:44:17.999Z</time></trkpt><trkpt lat="43.33350099375313" lon="11.435966300254856"><ele>243.0</ele><time>2026-04-11T04:44:19.999Z</time></trkpt><trkpt lat="43.33349736264496" lon="11.435858057592034"><ele>242.85714285714283</ele><time>2026-04-11T04:44:21.999Z</time></trkpt><trkpt lat="43.33349621016605" lon="11.435750469940414"><ele>242.71428571428572</ele><time>2026-04-11T04:44:23.999Z</time></trkpt><trkpt lat="43.33349998694142" lon="11.435650546537596"><ele>242.57142857142856</ele><time>2026-04-11T04:44:25.999Z</time></trkpt><trkpt lat="43.3335113275571" lon="11.43555531557802"><ele>242.42857142857142</ele><time>2026-04-11T04:44:27.999Z</time></trkpt><trkpt lat="43.33353662661008" lon="11.435464096308078"><ele>242.28571428571428</ele><time>2026-04-11T04:44:29.999Z</time></trkpt><trkpt lat="43.3335702780176" lon="11.435371382681037"><ele>242.14285714285714</ele><time>2026-04-11T04:44:31.998Z</time></trkpt><trkpt lat="43.33358889857776" lon="11.435283143448572"><ele>242.0</ele><time>2026-04-11T04:44:33.998Z</time></trkpt><trkpt lat="43.33364249995658" lon="11.43518706132226"><ele>242.16666666666669</ele><time>2026-04-11T04:44:36.998Z</time></trkpt><trkpt lat="43.33368074242229" lon="11.435110177494787"><ele>242.33333333333334</ele><time>2026-04-11T04:44:38.998Z</time></trkpt><trkpt lat="43.33371120061281" lon="11.435015369980706"><ele>242.5</ele><time>2026-04-11T04:44:40.998Z</time></trkpt><trkpt lat="43.3337473243692" lon="11.434908733174092"><ele>242.66666666666669</ele><time>2026-04-11T04:44:42.998Z</time></trkpt><trkpt lat="43.33376743254745" lon="11.43479414418838"><ele>242.83333333333334</ele><time>2026-04-11T04:44:44.998Z</time></trkpt><trkpt lat="43.33378929454926" lon="11.434679681250302"><ele>243.0</ele><time>2026-04-11T04:44:46.998Z</time></trkpt><trkpt lat="43.333811339151545" lon="11.43457207169307"><ele>243.0</ele><time>2026-04-11T04:44:48.998Z</time></trkpt><trkpt lat="43.333839616992734" lon="11.434469545139121"><ele>243.0</ele><time>2026-04-11T04:44:50.998Z</time></trkpt><trkpt lat="43.33385820058243" lon="11.43437525712739"><ele>243.0</ele><time>2026-04-11T04:44:52.998Z</time></trkpt><trkpt lat="43.33387202602467" lon="11.434288638970896"><ele>243.0</ele><time>2026-04-11T04:44:54.998Z</time></trkpt><trkpt lat="43.33388087489642" lon="11.434171635716826"><ele>243.0</ele><time>2026-04-11T04:44:57.998Z</time></trkpt><trkpt lat="43.3338656038374" lon="11.434080860374074"><ele>243.0</ele><time>2026-04-11T04:45:00.998Z</time></trkpt><trkpt lat="43.33384110830476" lon="11.433999347450978"><ele>243.0</ele><time>2026-04-11T04:45:03.998Z</time></trkpt><trkpt lat="43.33379430075839" lon="11.43390491919817"><ele>243.0</ele><time>2026-04-11T04:45:07.998Z</time></trkpt><trkpt lat="43.3337513731684" lon="11.433816534167642"><ele>243.0</ele><time>2026-04-11T04:45:11.998Z</time></trkpt><trkpt lat="43.333710127196056" lon="11.433736190987219"><ele>243.0</ele><time>2026-04-11T04:45:15.998Z</time></trkpt><trkpt lat="43.3336765380066" lon="11.433639248711195"><ele>243.0</ele><time>2026-04-11T04:45:20.998Z</time></trkpt><trkpt lat="43.33363630194165" lon="11.433560314760829"><ele>243.0</ele><time>2026-04-11T04:45:26Z</time></trkpt><trkpt lat="43.33359160299767" lon="11.433494773215417"><ele>243.0</ele><time>2026-04-11T04:45:30Z</time></trkpt><trkpt lat="43.33355459495334" lon="11.433418908868564"><ele>243.0</ele><time>2026-04-11T04:45:34Z</time></trkpt><trkpt lat="43.33352597123323" lon="11.43334050344165"><ele>244.16666666666666</ele><time>2026-04-11T04:45:39Z</time></trkpt><trkpt lat="43.3335733140435" lon="11.433251724998684"><ele>245.33333333333331</ele><time>2026-04-11T04:45:47.999Z</time></trkpt><trkpt lat="43.33366419833971" lon="11.433189125463509"><ele>246.5</ele><time>2026-04-11T04:45:51.999Z</time></trkpt><trkpt lat="43.33373548515307" lon="11.433149670229687"><ele>247.66666666666666</ele><time>2026-04-11T04:45:53.999Z</time></trkpt><trkpt lat="43.33381176158762" lon="11.433108358738258"><ele>248.83333333333331</ele><time>2026-04-11T04:45:55.999Z</time></trkpt><trkpt lat="43.33390041978768" lon="11.43305281457927"><ele>250.0</ele><time>2026-04-11T04:45:57.999Z</time></trkpt><trkpt lat="43.33398718784087" lon="11.433003803243071"><ele>250.2</ele><time>2026-04-11T04:45:59.999Z</time></trkpt><trkpt lat="43.334055472690814" lon="11.432966670589408"><ele>250.4</ele><time>2026-04-11T04:46:01.999Z</time></trkpt><trkpt lat="43.334175913166746" lon="11.432897988917968"><ele>250.60000000000002</ele><time>2026-04-11T04:46:03.999Z</time></trkpt><trkpt lat="43.334266955556714" lon="11.432850277392015"><ele>250.8</ele><time>2026-04-11T04:46:05.999Z</time></trkpt><trkpt lat="43.33436932074447" lon="11.43283276647282"><ele>251.0</ele><time>2026-04-11T04:46:07.999Z</time></trkpt><trkpt lat="43.33446340082418" lon="11.432781939046667"><ele>251.0</ele><time>2026-04-11T04:46:09.999Z</time></trkpt><trkpt lat="43.334552371686605" lon="11.43271020504515"><ele>251.00000000000003</ele><time>2026-04-11T04:46:11.999Z</time></trkpt><trkpt lat="43.334645069565404" lon="11.432657969950437"><ele>251.00000000000003</ele><time>2026-04-11T04:46:13.999Z</time></trkpt><trkpt lat="43.33474301690268" lon="11.432627856967175"><ele>251.0</ele><time>2026-04-11T04:46:15.999Z</time></trkpt><trkpt lat="43.334839441549946" lon="11.432574198827442"><ele>251.0</ele><time>2026-04-11T04:46:17.999Z</time></trkpt><trkpt lat="43.334938286255024" lon="11.43251919390335"><ele>251.20000000000002</ele><time>2026-04-11T04:46:19.999Z</time></trkpt><trkpt lat="43.33503812104442" lon="11.432463638104286"><ele>251.40000000000003</ele><time>2026-04-11T04:46:21.999Z</time></trkpt><trkpt lat="43.33513454332071" lon="11.432409981245543"><ele>251.6</ele><time>2026-04-11T04:46:23.999Z</time></trkpt><trkpt lat="43.335195163245906" lon="11.432376247639246"><ele>251.8</ele><time>2026-04-11T04:46:24.999Z</time></trkpt><trkpt lat="43.33529115508952" lon="11.432322830292462"><ele>252.0</ele><time>2026-04-11T04:46:26.999Z</time></trkpt><trkpt lat="43.33538433006721" lon="11.43227098045941"><ele>252.0</ele><time>2026-04-11T04:46:28.999Z</time></trkpt><trkpt lat="43.33547756582718" lon="11.432219096878319"><ele>252.0</ele><time>2026-04-11T04:46:30.999Z</time></trkpt><trkpt lat="43.335568500348124" lon="11.432167262031221"><ele>252.0</ele><time>2026-04-11T04:46:32.999Z</time></trkpt><trkpt lat="43.33565999968857" lon="11.432114995844039"><ele>252.0</ele><time>2026-04-11T04:46:34.999Z</time></trkpt><trkpt lat="43.33573751044864" lon="11.432070720287896"><ele>252.0</ele><time>2026-04-11T04:46:36.999Z</time></trkpt><trkpt lat="43.335824600384356" lon="11.432020972882261"><ele>252.66666666666666</ele><time>2026-04-11T04:46:38.999Z</time></trkpt><trkpt lat="43.33590033426578" lon="11.431977711559055"><ele>253.33333333333331</ele><time>2026-04-11T04:46:40.999Z</time></trkpt><trkpt lat="43.33597062477444" lon="11.43194041721391"><ele>254.0</ele><time>2026-04-11T04:46:42.999Z</time></trkpt><trkpt lat="43.336047554118586" lon="11.431897986875718"><ele>254.66666666666666</ele><time>2026-04-11T04:46:44.998Z</time></trkpt><trkpt lat="43.3361264465458" lon="11.431831838032279"><ele>255.33333333333331</ele><time>2026-04-11T04:46:46.998Z</time></trkpt><trkpt lat="43.33621821753216" lon="11.431780097374466"><ele>256.0</ele><time>2026-04-11T04:46:48.998Z</time></trkpt><trkpt lat="43.33631432488134" lon="11.431728741372165"><ele>255.0</ele><time>2026-04-11T04:46:50.998Z</time></trkpt><trkpt lat="43.336422967879926" lon="11.431693326384545"><ele>254.0</ele><time>2026-04-11T04:46:52.998Z</time></trkpt><trkpt lat="43.33652755744529" lon="11.431636597317453"><ele>253.0</ele><time>2026-04-11T04:46:54.998Z</time></trkpt><trkpt lat="43.336636340544736" lon="11.431577593662421"><ele>252.0</ele><time>2026-04-11T04:46:56.998Z</time></trkpt><trkpt lat="43.33674467940794" lon="11.431497718302612"><ele>252.0</ele><time>2026-04-11T04:46:58.998Z</time></trkpt><trkpt lat="43.336867441935944" lon="11.43146156221756"><ele>252.0</ele><time>2026-04-11T04:47:00.998Z</time></trkpt><trkpt lat="43.33699191438396" lon="11.431423311082206"><ele>252.0</ele><time>2026-04-11T04:47:02.998Z</time></trkpt><trkpt lat="43.33711443278113" lon="11.431405152517874"><ele>252.0</ele><time>2026-04-11T04:47:04.998Z</time></trkpt><trkpt lat="43.337232111945816" lon="11.431403017469941"><ele>251.0</ele><time>2026-04-11T04:47:06.998Z</time></trkpt><trkpt lat="43.33735002369148" lon="11.43140427990727"><ele>250.0</ele><time>2026-04-11T04:47:08.998Z</time></trkpt><trkpt lat="43.337468121475226" lon="11.43140554433731"><ele>249.0</ele><time>2026-04-11T04:47:10.998Z</time></trkpt><trkpt lat="43.3375825823787" lon="11.431407051438267"><ele>248.0</ele><time>2026-04-11T04:47:12.998Z</time></trkpt><trkpt lat="43.33769532089408" lon="11.431409565912933"><ele>248.0</ele><time>2026-04-11T04:47:14.998Z</time></trkpt><trkpt lat="43.337808884230505" lon="11.431412098781864"><ele>248.0</ele><time>2026-04-11T04:47:16.998Z</time></trkpt><trkpt lat="43.33791795674486" lon="11.431415118099627"><ele>248.0</ele><time>2026-04-11T04:47:18.998Z</time></trkpt><trkpt lat="43.33802510085694" lon="11.431418525383178"><ele>248.0</ele><time>2026-04-11T04:47:20.998Z</time></trkpt><trkpt lat="43.33813238665725" lon="11.43142665894619"><ele>248.0</ele><time>2026-04-11T04:47:22.998Z</time></trkpt><trkpt lat="43.33824150415808" lon="11.431447787441583"><ele>248.4</ele><time>2026-04-11T04:47:24.998Z</time></trkpt><trkpt lat="43.338347938196534" lon="11.431491008195849"><ele>248.8</ele><time>2026-04-11T04:47:26.998Z</time></trkpt><trkpt lat="43.33844186123913" lon="11.431559292113583"><ele>249.2</ele><time>2026-04-11T04:47:28.998Z</time></trkpt><trkpt lat="43.33853142520526" lon="11.43163864800098"><ele>249.6</ele><time>2026-04-11T04:47:31Z</time></trkpt><trkpt lat="43.33861595921732" lon="11.431725471137959"><ele>250.0</ele><time>2026-04-11T04:47:33Z</time></trkpt><trkpt lat="43.33869880470837" lon="11.431817721308393"><ele>250.0</ele><time>2026-04-11T04:47:35Z</time></trkpt><trkpt lat="43.33878204130983" lon="11.431913220779306"><ele>250.0</ele><time>2026-04-11T04:47:37Z</time></trkpt><trkpt lat="43.338863687216936" lon="11.432008571237782"><ele>250.0</ele><time>2026-04-11T04:47:39Z</time></trkpt><trkpt lat="43.33894613621664" lon="11.432104859638224"><ele>250.0</ele><time>2026-04-11T04:47:41Z</time></trkpt><trkpt lat="43.33902873676237" lon="11.43220184819354"><ele>250.0</ele><time>2026-04-11T04:47:43Z</time></trkpt><trkpt lat="43.33914493290192" lon="11.432342609187879"><ele>250.0</ele><time>2026-04-11T04:47:46Z</time></trkpt><trkpt lat="43.33922088923583" lon="11.432443282073121"><ele>250.0</ele><time>2026-04-11T04:47:48Z</time></trkpt><trkpt lat="43.33929473046938" lon="11.432552591483358"><ele>250.0</ele><time>2026-04-11T04:47:50Z</time></trkpt><trkpt lat="43.33936352178097" lon="11.432669444238376"><ele>250.0</ele><time>2026-04-11T04:47:52Z</time></trkpt><trkpt lat="43.3394347219576" lon="11.432806298043316"><ele>250.0</ele><time>2026-04-11T04:47:54Z</time></trkpt><trkpt lat="43.33950289132572" lon="11.432949464588749"><ele>249.85714285714283</ele><time>2026-04-11T04:47:56Z</time></trkpt><trkpt lat="43.33953570797943" lon="11.43302375867593"><ele>249.71428571428572</ele><time>2026-04-11T04:47:57Z</time></trkpt><trkpt lat="43.33956852645998" lon="11.433100297654976"><ele>249.57142857142856</ele><time>2026-04-11T04:47:57.999Z</time></trkpt><trkpt lat="43.339602101539235" lon="11.433180338480295"><ele>249.42857142857142</ele><time>2026-04-11T04:47:58.999Z</time></trkpt><trkpt lat="43.339635208464536" lon="11.433259263288907"><ele>249.28571428571428</ele><time>2026-04-11T04:47:59.999Z</time></trkpt><trkpt lat="43.339668192866625" lon="11.43333789600192"><ele>249.14285714285714</ele><time>2026-04-11T04:48:00.999Z</time></trkpt><trkpt lat="43.339701855030896" lon="11.433418144451476"><ele>249.0</ele><time>2026-04-11T04:48:01.999Z</time></trkpt><trkpt lat="43.33973597168612" lon="11.433499476385359"><ele>249.0</ele><time>2026-04-11T04:48:02.999Z</time></trkpt><trkpt lat="43.33978502658469" lon="11.43357277451976"><ele>248.99999999999997</ele><time>2026-04-11T04:48:03.999Z</time></trkpt><trkpt lat="43.33981084022748" lon="11.433677958189058"><ele>249.0</ele><time>2026-04-11T04:48:04.999Z</time></trkpt><trkpt lat="43.339845936885915" lon="11.433761626389122"><ele>249.0</ele><time>2026-04-11T04:48:05.999Z</time></trkpt><trkpt lat="43.339879785637756" lon="11.433842319634628"><ele>248.99999999999997</ele><time>2026-04-11T04:48:06.999Z</time></trkpt><trkpt lat="43.33991189877649" lon="11.433918461856873"><ele>249.0</ele><time>2026-04-11T04:48:07.999Z</time></trkpt><trkpt lat="43.3399526332916" lon="11.43401404001254"><ele>249.0</ele><time>2026-04-11T04:48:08.999Z</time></trkpt><trkpt lat="43.339988929927465" lon="11.43409371299845"><ele>249.0</ele><time>2026-04-11T04:48:09.999Z</time></trkpt><trkpt lat="43.34002617978344" lon="11.434173898557336"><ele>248.99999999999997</ele><time>2026-04-11T04:48:10.999Z</time></trkpt><trkpt lat="43.34006389273118" lon="11.434251576918976"><ele>249.0</ele><time>2026-04-11T04:48:11.999Z</time></trkpt><trkpt lat="43.34010418138004" lon="11.434328120838959"><ele>249.0</ele><time>2026-04-11T04:48:12.999Z</time></trkpt><trkpt lat="43.340148248941" lon="11.434402087323383"><ele>248.99999999999997</ele><time>2026-04-11T04:48:13.999Z</time></trkpt><trkpt lat="43.340196361548145" lon="11.434471324529948"><ele>249.0</ele><time>2026-04-11T04:48:14.999Z</time></trkpt><trkpt lat="43.34025124212752" lon="11.434531083786043"><ele>249.0</ele><time>2026-04-11T04:48:15.999Z</time></trkpt><trkpt lat="43.34032155720892" lon="11.434561147118005"><ele>249.0</ele><time>2026-04-11T04:48:16.999Z</time></trkpt><trkpt lat="43.340377930224314" lon="11.434623182456564"><ele>248.99999999999997</ele><time>2026-04-11T04:48:17.999Z</time></trkpt><trkpt lat="43.34045120714086" lon="11.434630596705833"><ele>249.0</ele><time>2026-04-11T04:48:18.999Z</time></trkpt><trkpt lat="43.34052271671449" lon="11.43464849716515"><ele>249.0</ele><time>2026-04-11T04:48:19.999Z</time></trkpt><trkpt lat="43.34059708618546" lon="11.434643922541085"><ele>248.99999999999997</ele><time>2026-04-11T04:48:20.999Z</time></trkpt><trkpt lat="43.34067179467099" lon="11.434628729045922"><ele>249.0</ele><time>2026-04-11T04:48:21.999Z</time></trkpt><trkpt lat="43.34074859751415" lon="11.434612321187377"><ele>249.0</ele><time>2026-04-11T04:48:22.999Z</time></trkpt><trkpt lat="43.34082711355778" lon="11.434586929490976"><ele>248.33333333333334</ele><time>2026-04-11T04:48:23.999Z</time></trkpt><trkpt lat="43.340905349440675" lon="11.434556316769685"><ele>247.66666666666669</ele><time>2026-04-11T04:48:24.999Z</time></trkpt><trkpt lat="43.34098415968879" lon="11.434526383324725"><ele>247.0</ele><time>2026-04-11T04:48:25.999Z</time></trkpt><trkpt lat="43.34106251641578" lon="11.434502784019774"><ele>246.33333333333334</ele><time>2026-04-11T04:48:26.999Z</time></trkpt><trkpt lat="43.341139086513415" lon="11.434476167282513"><ele>245.66666666666669</ele><time>2026-04-11T04:48:27.999Z</time></trkpt><trkpt lat="43.34121910014384" lon="11.434469496967596"><ele>245.0</ele><time>2026-04-11T04:48:28.999Z</time></trkpt><trkpt lat="43.341294575850675" lon="11.434443906491936"><ele>245.00000000000003</ele><time>2026-04-11T04:48:29.999Z</time></trkpt><trkpt lat="43.34136705295301" lon="11.434398499056735"><ele>245.0</ele><time>2026-04-11T04:48:30.999Z</time></trkpt><trkpt lat="43.34144572616759" lon="11.43437842199954"><ele>245.0</ele><time>2026-04-11T04:48:31.999Z</time></trkpt><trkpt lat="43.341522743576505" lon="11.434349640338548"><ele>245.0</ele><time>2026-04-11T04:48:32.999Z</time></trkpt><trkpt lat="43.34159913519881" lon="11.43431911530134"><ele>245.00000000000003</ele><time>2026-04-11T04:48:33.999Z</time></trkpt><trkpt lat="43.341674572873934" lon="11.434293509384997"><ele>245.0</ele><time>2026-04-11T04:48:34.999Z</time></trkpt><trkpt lat="43.34174999699835" lon="11.434272387526134"><ele>245.16666666666669</ele><time>2026-04-11T04:48:35.999Z</time></trkpt><trkpt lat="43.341825652819246" lon="11.434248622195698"><ele>245.33333333333334</ele><time>2026-04-11T04:48:36.999Z</time></trkpt><trkpt lat="43.341899179150296" lon="11.434221963332678"><ele>245.5</ele><time>2026-04-11T04:48:37.999Z</time></trkpt><trkpt lat="43.34197282233302" lon="11.434193560514736"><ele>245.66666666666669</ele><time>2026-04-11T04:48:38.999Z</time></trkpt><trkpt lat="43.342046388610434" lon="11.43417092854906"><ele>245.83333333333334</ele><time>2026-04-11T04:48:39.999Z</time></trkpt><trkpt lat="43.34211997789439" lon="11.43414855223484"><ele>246.0</ele><time>2026-04-11T04:48:40.999Z</time></trkpt><trkpt lat="43.34219378344553" lon="11.434120355294624"><ele>246.14285714285717</ele><time>2026-04-11T04:48:41.999Z</time></trkpt><trkpt lat="43.3422676023756" lon="11.434097486232966"><ele>246.28571428571428</ele><time>2026-04-11T04:48:42.999Z</time></trkpt><trkpt lat="43.342340071816245" lon="11.434075426862242"><ele>246.42857142857144</ele><time>2026-04-11T04:48:43.999Z</time></trkpt><trkpt lat="43.342412913332375" lon="11.434050077889882"><ele>246.57142857142858</ele><time>2026-04-11T04:48:44.999Z</time></trkpt><trkpt lat="43.34248464883347" lon="11.434020729106624"><ele>246.71428571428572</ele><time>2026-04-11T04:48:45.999Z</time></trkpt><trkpt lat="43.34255908842553" lon="11.434018876622218"><ele>246.85714285714286</ele><time>2026-04-11T04:48:46.999Z</time></trkpt><trkpt lat="43.34262761564257" lon="11.433995784269667"><ele>247.0</ele><time>2026-04-11T04:48:47.999Z</time></trkpt><trkpt lat="43.34269374577981" lon="11.433973737612808"><ele>246.99999999999997</ele><time>2026-04-11T04:48:48.999Z</time></trkpt><trkpt lat="43.342757873033136" lon="11.43395270115622"><ele>247.0</ele><time>2026-04-11T04:48:49.999Z</time></trkpt><trkpt lat="43.34281491378925" lon="11.433911606620267"><ele>247.0</ele><time>2026-04-11T04:48:50.999Z</time></trkpt><trkpt lat="43.34293171223385" lon="11.43390190655472"><ele>247.0</ele><time>2026-04-11T04:48:52.998Z</time></trkpt><trkpt lat="43.34303057580471" lon="11.433886627377415"><ele>246.99999999999997</ele><time>2026-04-11T04:48:54.998Z</time></trkpt><trkpt lat="43.3431190321046" lon="11.433887499106927"><ele>247.0</ele><time>2026-04-11T04:48:56.998Z</time></trkpt><trkpt lat="43.343198178641515" lon="11.433904135486054"><ele>247.83333333333331</ele><time>2026-04-11T04:48:58.998Z</time></trkpt><trkpt lat="43.34326624465737" lon="11.433941949441001"><ele>248.66666666666666</ele><time>2026-04-11T04:49:00.998Z</time></trkpt><trkpt lat="43.343328557859614" lon="11.43398899721472"><ele>249.5</ele><time>2026-04-11T04:49:02.998Z</time></trkpt><trkpt lat="43.34340753061241" lon="11.434018100016267"><ele>250.33333333333331</ele><time>2026-04-11T04:49:04.998Z</time></trkpt><trkpt lat="43.343468431277586" lon="11.434096243139821"><ele>251.16666666666666</ele><time>2026-04-11T04:49:06.998Z</time></trkpt><trkpt lat="43.34352575385019" lon="11.434179101273497"><ele>252.0</ele><time>2026-04-11T04:49:08.998Z</time></trkpt><trkpt lat="43.34357813002101" lon="11.434264076137307"><ele>252.0</ele><time>2026-04-11T04:49:10.998Z</time></trkpt><trkpt lat="43.343637398645456" lon="11.434343922816414"><ele>252.0</ele><time>2026-04-11T04:49:13.998Z</time></trkpt><trkpt lat="43.34369614744402" lon="11.434432770174316"><ele>252.0</ele><time>2026-04-11T04:49:16.998Z</time></trkpt><trkpt lat="43.343756536081074" lon="11.43452443753222"><ele>252.0</ele><time>2026-04-11T04:49:19.998Z</time></trkpt><trkpt lat="43.34382428184723" lon="11.434617144622166"><ele>252.0</ele><time>2026-04-11T04:49:22.998Z</time></trkpt><trkpt lat="43.34388631116054" lon="11.434709850142735"><ele>252.0</ele><time>2026-04-11T04:49:25.998Z</time></trkpt><trkpt lat="43.3439491498861" lon="11.434798451978335"><ele>253.2</ele><time>2026-04-11T04:49:28.998Z</time></trkpt><trkpt lat="43.344015206576984" lon="11.434885045101105"><ele>254.39999999999998</ele><time>2026-04-11T04:49:31.998Z</time></trkpt><trkpt lat="43.34405625351591" lon="11.434961703613455"><ele>255.60000000000002</ele><time>2026-04-11T04:49:34.998Z</time></trkpt><trkpt lat="43.344110251075016" lon="11.435047507771378"><ele>256.8</ele><time>2026-04-11T04:49:37Z</time></trkpt><trkpt lat="43.34425860945315" lon="11.43519443790329"><ele>258.0</ele><time>2026-04-11T04:49:38Z</time></trkpt><trkpt lat="43.34432015593864" lon="11.435260226087797"><ele>258.0</ele><time>2026-04-11T04:49:40Z</time></trkpt><trkpt lat="43.34438012364873" lon="11.435321607559578"><ele>258.0</ele><time>2026-04-11T04:49:42Z</time></trkpt><trkpt lat="43.34444137314891" lon="11.435380450312469"><ele>258.0</ele><time>2026-04-11T04:49:44Z</time></trkpt><trkpt lat="43.34450775245546" lon="11.435436413467722"><ele>258.0</ele><time>2026-04-11T04:49:46Z</time></trkpt><trkpt lat="43.34457557475479" lon="11.435490513267066"><ele>258.0</ele><time>2026-04-11T04:49:48Z</time></trkpt><trkpt lat="43.34464570806576" lon="11.435528433754058"><ele>258.0</ele><time>2026-04-11T04:49:50Z</time></trkpt><trkpt lat="43.34471899507158" lon="11.435549456865619"><ele>258.6</ele><time>2026-04-11T04:49:52Z</time></trkpt><trkpt lat="43.34478874510359" lon="11.435575108536765"><ele>259.20000000000005</ele><time>2026-04-11T04:49:54Z</time></trkpt><trkpt lat="43.34490657168941" lon="11.4355516372732"><ele>259.8</ele><time>2026-04-11T04:49:58Z</time></trkpt><trkpt lat="43.34502098192193" lon="11.43555827360438"><ele>260.40000000000003</ele><time>2026-04-11T04:50:01Z</time></trkpt><trkpt lat="43.34510785292448" lon="11.435586415237788"><ele>261.0</ele><time>2026-04-11T04:50:02Z</time></trkpt><trkpt lat="43.34518729682098" lon="11.435590861654413"><ele>261.0</ele><time>2026-04-11T04:50:03.999Z</time></trkpt><trkpt lat="43.34526625895743" lon="11.435595436314108"><ele>261.0</ele><time>2026-04-11T04:50:05.999Z</time></trkpt><trkpt lat="43.34534331060961" lon="11.435600213984639"><ele>261.0</ele><time>2026-04-11T04:50:07.999Z</time></trkpt><trkpt lat="43.345439744814996" lon="11.435622625712327"><ele>261.0</ele><time>2026-04-11T04:50:09.999Z</time></trkpt><trkpt lat="43.34553933125171" lon="11.435627970104747"><ele>261.0</ele><time>2026-04-11T04:50:11.999Z</time></trkpt><trkpt lat="43.34562180327823" lon="11.435625374778606"><ele>261.0</ele><time>2026-04-11T04:50:13.999Z</time></trkpt><trkpt lat="43.34570039808552" lon="11.435635787920004"><ele>261.8333333333333</ele><time>2026-04-11T04:50:15.999Z</time></trkpt><trkpt lat="43.34577993865116" lon="11.435660727818034"><ele>262.6666666666667</ele><time>2026-04-11T04:50:17.999Z</time></trkpt><trkpt lat="43.345856634562665" lon="11.435703492532662"><ele>263.5</ele><time>2026-04-11T04:50:19.999Z</time></trkpt><trkpt lat="43.345930970755624" lon="11.435777082172054"><ele>264.33333333333337</ele><time>2026-04-11T04:50:21.999Z</time></trkpt><trkpt lat="43.34601936817315" lon="11.435846936026525"><ele>265.1666666666667</ele><time>2026-04-11T04:50:23.999Z</time></trkpt><trkpt lat="43.346093909211405" lon="11.435912383447747"><ele>266.0</ele><time>2026-04-11T04:50:25.999Z</time></trkpt><trkpt lat="43.346179550252636" lon="11.435987217366053"><ele>266.0</ele><time>2026-04-11T04:50:27.999Z</time></trkpt><trkpt lat="43.34626822916345" lon="11.436051932938302"><ele>266.0</ele><time>2026-04-11T04:50:29.999Z</time></trkpt><trkpt lat="43.34634313453106" lon="11.436147718008414"><ele>266.0</ele><time>2026-04-11T04:50:31.999Z</time></trkpt><trkpt lat="43.34642766641297" lon="11.43622033630717"><ele>266.0</ele><time>2026-04-11T04:50:33.999Z</time></trkpt><trkpt lat="43.34651845513813" lon="11.436304843111353"><ele>266.0</ele><time>2026-04-11T04:50:35.999Z</time></trkpt><trkpt lat="43.34660626961173" lon="11.436400861448647"><ele>265.6</ele><time>2026-04-11T04:50:37.999Z</time></trkpt><trkpt lat="43.34669007785473" lon="11.436516648407075"><ele>265.20000000000005</ele><time>2026-04-11T04:50:39.999Z</time></trkpt><trkpt lat="43.34677300212762" lon="11.436646371426237"><ele>264.79999999999995</ele><time>2026-04-11T04:50:41.999Z</time></trkpt><trkpt lat="43.346815244567125" lon="11.436720739103464"><ele>264.4</ele><time>2026-04-11T04:50:42.999Z</time></trkpt><trkpt lat="43.34685826966386" lon="11.43679568816136"><ele>264.0</ele><time>2026-04-11T04:50:43.999Z</time></trkpt><trkpt lat="43.34690269418203" lon="11.436873752879588"><ele>264.0</ele><time>2026-04-11T04:50:44.999Z</time></trkpt><trkpt lat="43.34694799959911" lon="11.436953365461791"><ele>264.0</ele><time>2026-04-11T04:50:45.999Z</time></trkpt><trkpt lat="43.34699347527926" lon="11.437033277132187"><ele>264.0</ele><time>2026-04-11T04:50:46.999Z</time></trkpt><trkpt lat="43.34703896143928" lon="11.437113207300348"><ele>264.0</ele><time>2026-04-11T04:50:47.999Z</time></trkpt><trkpt lat="43.34708554663063" lon="11.43719385961375"><ele>264.0</ele><time>2026-04-11T04:50:48.999Z</time></trkpt><trkpt lat="43.34713234022499" lon="11.437272727036387"><ele>264.0</ele><time>2026-04-11T04:50:49.999Z</time></trkpt><trkpt lat="43.347176655144764" lon="11.437346757686553"><ele>264.0</ele><time>2026-04-11T04:50:50.999Z</time></trkpt><trkpt lat="43.347219724038986" lon="11.437420561369269"><ele>263.2857142857143</ele><time>2026-04-11T04:50:51.999Z</time></trkpt><trkpt lat="43.34726315067176" lon="11.437497315442428"><ele>262.57142857142856</ele><time>2026-04-11T04:50:52.999Z</time></trkpt><trkpt lat="43.34730807127695" lon="11.437576710033882"><ele>261.8571428571429</ele><time>2026-04-11T04:50:53.999Z</time></trkpt><trkpt lat="43.34735141017054" lon="11.437653309047827"><ele>261.1428571428571</ele><time>2026-04-11T04:50:54.999Z</time></trkpt><trkpt lat="43.3473959083959" lon="11.437730615052992"><ele>260.42857142857144</ele><time>2026-04-11T04:50:55.999Z</time></trkpt><trkpt lat="43.34743780272523" lon="11.437802631062755"><ele>259.7142857142857</ele><time>2026-04-11T04:50:56.999Z</time></trkpt><trkpt lat="43.3474799473447" lon="11.437875077432667"><ele>259.0</ele><time>2026-04-11T04:50:57.999Z</time></trkpt><trkpt lat="43.34752277659779" lon="11.437948700682915"><ele>259.0</ele><time>2026-04-11T04:50:58.998Z</time></trkpt><trkpt lat="43.347564004811794" lon="11.438019571597225"><ele>259.0</ele><time>2026-04-11T04:50:59.998Z</time></trkpt><trkpt lat="43.34760646535577" lon="11.438089560042021"><ele>259.0</ele><time>2026-04-11T04:51:00.998Z</time></trkpt><trkpt lat="43.34764980854179" lon="11.438157377787704"><ele>259.0</ele><time>2026-04-11T04:51:01.998Z</time></trkpt><trkpt lat="43.347696410309844" lon="11.438222780781631"><ele>259.0</ele><time>2026-04-11T04:51:02.998Z</time></trkpt><trkpt lat="43.34774353148045" lon="11.438288716290584"><ele>259.0</ele><time>2026-04-11T04:51:03.998Z</time></trkpt><trkpt lat="43.34779036319582" lon="11.438354246535516"><ele>259.0</ele><time>2026-04-11T04:51:04.998Z</time></trkpt><trkpt lat="43.347870642573646" lon="11.438385332042893"><ele>259.0</ele><time>2026-04-11T04:51:05.998Z</time></trkpt><trkpt lat="43.34793748347492" lon="11.438420831015423"><ele>259.0</ele><time>2026-04-11T04:51:06.998Z</time></trkpt><trkpt lat="43.34800797041872" lon="11.438447588678617"><ele>259.0</ele><time>2026-04-11T04:51:07.998Z</time></trkpt><trkpt lat="43.3480836501934" lon="11.43844301448019"><ele>259.0</ele><time>2026-04-11T04:51:08.998Z</time></trkpt><trkpt lat="43.34815386226899" lon="11.438479608120847"><ele>259.0</ele><time>2026-04-11T04:51:09.998Z</time></trkpt><trkpt lat="43.34822565972423" lon="11.438490337793024"><ele>259.0</ele><time>2026-04-11T04:51:10.998Z</time></trkpt><trkpt lat="43.3482977222435" lon="11.438501106989582"><ele>259.0</ele><time>2026-04-11T04:51:11.998Z</time></trkpt><trkpt lat="43.34836872611224" lon="11.43851187051992"><ele>258.42857142857144</ele><time>2026-04-11T04:51:12.998Z</time></trkpt><trkpt lat="43.3484399497399" lon="11.438522890661407"><ele>257.8571428571429</ele><time>2026-04-11T04:51:13.998Z</time></trkpt><trkpt lat="43.34851004097584" lon="11.438533848542182"><ele>257.2857142857143</ele><time>2026-04-11T04:51:14.998Z</time></trkpt><trkpt lat="43.348578680044746" lon="11.438544579392072"><ele>256.7142857142857</ele><time>2026-04-11T04:51:15.998Z</time></trkpt><trkpt lat="43.34864764999678" lon="11.438555361975666"><ele>256.14285714285717</ele><time>2026-04-11T04:51:16.998Z</time></trkpt><trkpt lat="43.34871577428462" lon="11.438566012349494"><ele>255.57142857142858</ele><time>2026-04-11T04:51:17.998Z</time></trkpt><trkpt lat="43.348782701577846" lon="11.438576475584275"><ele>255.0</ele><time>2026-04-11T04:51:18.998Z</time></trkpt><trkpt lat="43.348850153631204" lon="11.438587710914797"><ele>255.0</ele><time>2026-04-11T04:51:19.998Z</time></trkpt><trkpt lat="43.34891675007348" lon="11.438599596619657"><ele>255.00000000000003</ele><time>2026-04-11T04:51:20.998Z</time></trkpt><trkpt lat="43.34898297661605" lon="11.43861141630694"><ele>255.0</ele><time>2026-04-11T04:51:21.998Z</time></trkpt><trkpt lat="43.34904956210344" lon="11.438623300057344"><ele>255.0</ele><time>2026-04-11T04:51:22.998Z</time></trkpt><trkpt lat="43.34911369677721" lon="11.43863638836387"><ele>255.00000000000003</ele><time>2026-04-11T04:51:23.998Z</time></trkpt><trkpt lat="43.34917750466505" lon="11.43865197927885"><ele>255.0</ele><time>2026-04-11T04:51:24.998Z</time></trkpt><trkpt lat="43.349241775563215" lon="11.43867177767817"><ele>255.0</ele><time>2026-04-11T04:51:25.998Z</time></trkpt><trkpt lat="43.34930754460682" lon="11.43869797592458"><ele>255.0</ele><time>2026-04-11T04:51:26.998Z</time></trkpt><trkpt lat="43.34936713610228" lon="11.43873921962397"><ele>255.00000000000003</ele><time>2026-04-11T04:51:27.998Z</time></trkpt><trkpt lat="43.34943505701764" lon="11.438767986890145"><ele>255.0</ele><time>2026-04-11T04:51:28.998Z</time></trkpt><trkpt lat="43.34947937030715" lon="11.438848721844167"><ele>255.0</ele><time>2026-04-11T04:51:29.998Z</time></trkpt><trkpt lat="43.34952879572704" lon="11.438919648408925"><ele>255.00000000000003</ele><time>2026-04-11T04:51:30.998Z</time></trkpt><trkpt lat="43.34957368029858" lon="11.438995740445787"><ele>255.0</ele><time>2026-04-11T04:51:31.998Z</time></trkpt><trkpt lat="43.34961585523403" lon="11.43907785117205"><ele>255.0</ele><time>2026-04-11T04:51:32.998Z</time></trkpt><trkpt lat="43.3496579742407" lon="11.439162786090586"><ele>254.33333333333334</ele><time>2026-04-11T04:51:33.998Z</time></trkpt><trkpt lat="43.34970084513003" lon="11.439256453122011"><ele>253.66666666666669</ele><time>2026-04-11T04:51:34.998Z</time></trkpt><trkpt lat="43.34974608594473" lon="11.439350158761282"><ele>253.0</ele><time>2026-04-11T04:51:35.998Z</time></trkpt><trkpt lat="43.349807104968846" lon="11.439429158769368"><ele>252.33333333333334</ele><time>2026-04-11T04:51:36.998Z</time></trkpt><trkpt lat="43.34984497421334" lon="11.439537599638433"><ele>251.66666666666669</ele><time>2026-04-11T04:51:37.998Z</time></trkpt><trkpt lat="43.349898690153466" lon="11.4396269918561"><ele>251.0</ele><time>2026-04-11T04:51:38.998Z</time></trkpt><trkpt lat="43.3499583407019" lon="11.439710580526903"><ele>250.33333333333334</ele><time>2026-04-11T04:51:39.998Z</time></trkpt><trkpt lat="43.35002561659212" lon="11.439784205207378"><ele>249.66666666666669</ele><time>2026-04-11T04:51:40.998Z</time></trkpt><trkpt lat="43.35009029017196" lon="11.439850872971402"><ele>249.0</ele><time>2026-04-11T04:51:41.998Z</time></trkpt><trkpt lat="43.350158530660245" lon="11.439912411472127"><ele>248.33333333333331</ele><time>2026-04-11T04:51:43Z</time></trkpt><trkpt lat="43.350227447328756" lon="11.439966542444655"><ele>247.66666666666666</ele><time>2026-04-11T04:51:44Z</time></trkpt><trkpt lat="43.350296374452796" lon="11.44001592447414"><ele>247.0</ele><time>2026-04-11T04:51:45Z</time></trkpt><trkpt lat="43.350368670842656" lon="11.440058606683454"><ele>246.99999999999997</ele><time>2026-04-11T04:51:46Z</time></trkpt><trkpt lat="43.350440784088605" lon="11.440093756097156"><ele>247.0</ele><time>2026-04-11T04:51:47Z</time></trkpt><trkpt lat="43.35052098835304" lon="11.44011588603679"><ele>247.0</ele><time>2026-04-11T04:51:48Z</time></trkpt><trkpt lat="43.350600593926266" lon="11.44012771806672"><ele>247.0</ele><time>2026-04-11T04:51:49Z</time></trkpt><trkpt lat="43.35068090404458" lon="11.440133046129496"><ele>246.99999999999997</ele><time>2026-04-11T04:51:50Z</time></trkpt><trkpt lat="43.35075860912227" lon="11.440134552869463"><ele>247.0</ele><time>2026-04-11T04:51:51Z</time></trkpt><trkpt lat="43.35084084230409" lon="11.440124264538996"><ele>247.16666666666666</ele><time>2026-04-11T04:51:52Z</time></trkpt><trkpt lat="43.3509179243748" lon="11.440108120898405"><ele>247.33333333333331</ele><time>2026-04-11T04:51:53Z</time></trkpt><trkpt lat="43.35099448578001" lon="11.440083552703214"><ele>247.5</ele><time>2026-04-11T04:51:54Z</time></trkpt><trkpt lat="43.351068272326444" lon="11.440047399273293"><ele>247.66666666666669</ele><time>2026-04-11T04:51:55Z</time></trkpt><trkpt lat="43.351135836597265" lon="11.440005789289872"><ele>247.83333333333334</ele><time>2026-04-11T04:51:56Z</time></trkpt><trkpt lat="43.351200290523806" lon="11.4399583087304"><ele>248.0</ele><time>2026-04-11T04:51:57Z</time></trkpt><trkpt lat="43.351261494193515" lon="11.439915336684026"><ele>248.0</ele><time>2026-04-11T04:51:58Z</time></trkpt><trkpt lat="43.35130883498625" lon="11.439844187208465"><ele>248.0</ele><time>2026-04-11T04:51:59Z</time></trkpt><trkpt lat="43.351364157759164" lon="11.439801015844074"><ele>248.0</ele><time>2026-04-11T04:52:00Z</time></trkpt><trkpt lat="43.351469897276694" lon="11.439719255879227"><ele>248.0</ele><time>2026-04-11T04:52:02Z</time></trkpt><trkpt lat="43.351570197034505" lon="11.439640403879618"><ele>248.0</ele><time>2026-04-11T04:52:04Z</time></trkpt><trkpt lat="43.351673276196315" lon="11.439588951451775"><ele>248.50000000000003</ele><time>2026-04-11T04:52:06Z</time></trkpt><trkpt lat="43.351764325969256" lon="11.439525387260106"><ele>249.0</ele><time>2026-04-11T04:52:08Z</time></trkpt><trkpt lat="43.35184862796665" lon="11.439473463803235"><ele>249.5</ele><time>2026-04-11T04:52:10Z</time></trkpt><trkpt lat="43.35193349467145" lon="11.439435905525665"><ele>250.0</ele><time>2026-04-11T04:52:12Z</time></trkpt><trkpt lat="43.352008816041646" lon="11.439413340003393"><ele>250.50000000000003</ele><time>2026-04-11T04:52:15Z</time></trkpt><trkpt lat="43.3520735089517" lon="11.439399227716628"><ele>251.0</ele><time>2026-04-11T04:52:16.999Z</time></trkpt><trkpt lat="43.35217698880828" lon="11.439379860549405"><ele>252.4</ele><time>2026-04-11T04:52:19.999Z</time></trkpt><trkpt lat="43.35224044668318" lon="11.439294756605156"><ele>253.8</ele><time>2026-04-11T04:52:21.999Z</time></trkpt><trkpt lat="43.35233078998667" lon="11.439234363329007"><ele>255.20000000000002</ele><time>2026-04-11T04:52:23.999Z</time></trkpt><trkpt lat="43.352399985271745" lon="11.439162202039704"><ele>256.6</ele><time>2026-04-11T04:52:25.999Z</time></trkpt><trkpt lat="43.35247419527869" lon="11.439081511558472"><ele>258.0</ele><time>2026-04-11T04:52:27.999Z</time></trkpt><trkpt lat="43.35253651264444" lon="11.439005270425026"><ele>258.0</ele><time>2026-04-11T04:52:29.999Z</time></trkpt><trkpt lat="43.352603145284384" lon="11.438927639125426"><ele>258.0</ele><time>2026-04-11T04:52:31.999Z</time></trkpt><trkpt lat="43.352672299130965" lon="11.438859096732077"><ele>258.0</ele><time>2026-04-11T04:52:33.999Z</time></trkpt><trkpt lat="43.35278237071519" lon="11.438751026595883"><ele>258.0</ele><time>2026-04-11T04:52:36.999Z</time></trkpt><trkpt lat="43.35284488836722" lon="11.438687189021932"><ele>258.0</ele><time>2026-04-11T04:52:38.999Z</time></trkpt><trkpt lat="43.35290465017056" lon="11.43862346588715"><ele>258.0</ele><time>2026-04-11T04:52:40.999Z</time></trkpt><trkpt lat="43.352983948483185" lon="11.438573891779335"><ele>258.0</ele><time>2026-04-11T04:52:42.999Z</time></trkpt><trkpt lat="43.35305989368353" lon="11.438511139599202"><ele>258.0</ele><time>2026-04-11T04:52:44.999Z</time></trkpt><trkpt lat="43.35313563530325" lon="11.438457345626551"><ele>258.0</ele><time>2026-04-11T04:52:46.999Z</time></trkpt><trkpt lat="43.35321090476983" lon="11.438412060739962"><ele>258.0</ele><time>2026-04-11T04:52:48.999Z</time></trkpt><trkpt lat="43.35328442791521" lon="11.438385581548042"><ele>258.0</ele><time>2026-04-11T04:52:50.999Z</time></trkpt><trkpt lat="43.35335642186324" lon="11.438353425873787"><ele>259.1666666666667</ele><time>2026-04-11T04:52:52.999Z</time></trkpt><trkpt lat="43.35343303975581" lon="11.438335319408413"><ele>260.3333333333333</ele><time>2026-04-11T04:52:54.999Z</time></trkpt><trkpt lat="43.35350617617999" lon="11.438298306560688"><ele>261.5</ele><time>2026-04-11T04:52:56.999Z</time></trkpt><trkpt lat="43.35358904877162" lon="11.438286311748401"><ele>262.66666666666663</ele><time>2026-04-11T04:52:58.999Z</time></trkpt><trkpt lat="43.3536647876391" lon="11.438287233232277"><ele>263.8333333333333</ele><time>2026-04-11T04:53:00.999Z</time></trkpt><trkpt lat="43.35377745050321" lon="11.438250064106478"><ele>265.0</ele><time>2026-04-11T04:53:03.999Z</time></trkpt><trkpt lat="43.35384983028246" lon="11.438234879167746"><ele>265.1428571428571</ele><time>2026-04-11T04:53:05.999Z</time></trkpt><trkpt lat="43.353915530241416" lon="11.43821813069928"><ele>265.2857142857143</ele><time>2026-04-11T04:53:07.999Z</time></trkpt><trkpt lat="43.3539855418665" lon="11.438196332813055"><ele>265.42857142857144</ele><time>2026-04-11T04:53:09.999Z</time></trkpt><trkpt lat="43.354061218607896" lon="11.438166108518606"><ele>265.57142857142856</ele><time>2026-04-11T04:53:11.998Z</time></trkpt><trkpt lat="43.354142673969996" lon="11.438155098881891"><ele>265.7142857142857</ele><time>2026-04-11T04:53:13.998Z</time></trkpt><trkpt lat="43.35422094049884" lon="11.438132083964106"><ele>265.85714285714283</ele><time>2026-04-11T04:53:15.998Z</time></trkpt><trkpt lat="43.35428714494982" lon="11.438125822183649"><ele>266.0</ele><time>2026-04-11T04:53:17.998Z</time></trkpt><trkpt lat="43.354354007303634" lon="11.438117428878696"><ele>266.0</ele><time>2026-04-11T04:53:18.998Z</time></trkpt><trkpt lat="43.354426712100995" lon="11.438110435985838"><ele>266.0</ele><time>2026-04-11T04:53:20.998Z</time></trkpt><trkpt lat="43.35452940037769" lon="11.438093989822018"><ele>266.0</ele><time>2026-04-11T04:53:23.998Z</time></trkpt><trkpt lat="43.35460118441025" lon="11.438099876507273"><ele>266.0</ele><time>2026-04-11T04:53:25.998Z</time></trkpt><trkpt lat="43.354682491768045" lon="11.438102162161218"><ele>266.0</ele><time>2026-04-11T04:53:27.998Z</time></trkpt><trkpt lat="43.354781491611966" lon="11.438106910198645"><ele>266.0</ele><time>2026-04-11T04:53:29.998Z</time></trkpt><trkpt lat="43.35487120310593" lon="11.438122794562721"><ele>266.40000000000003</ele><time>2026-04-11T04:53:31.998Z</time></trkpt><trkpt lat="43.35496619555218" lon="11.438140178583131"><ele>266.8</ele><time>2026-04-11T04:53:33.998Z</time></trkpt><trkpt lat="43.35506395417831" lon="11.438164143810804"><ele>267.20000000000005</ele><time>2026-04-11T04:53:35.998Z</time></trkpt><trkpt lat="43.35516388928167" lon="11.438186096892826"><ele>267.6</ele><time>2026-04-11T04:53:37.998Z</time></trkpt><trkpt lat="43.355265359792575" lon="11.438202891632127"><ele>268.0</ele><time>2026-04-11T04:53:39.998Z</time></trkpt><trkpt lat="43.35536753630348" lon="11.438268676996252"><ele>268.0</ele><time>2026-04-11T04:53:41.998Z</time></trkpt><trkpt lat="43.355481571863606" lon="11.43829299282115"><ele>268.0</ele><time>2026-04-11T04:53:43.998Z</time></trkpt><trkpt lat="43.35559286737292" lon="11.438317884350237"><ele>268.0</ele><time>2026-04-11T04:53:45.998Z</time></trkpt><trkpt lat="43.35571360468278" lon="11.438344922515762"><ele>268.0</ele><time>2026-04-11T04:53:47.998Z</time></trkpt><trkpt lat="43.355792313669895" lon="11.438362548772306"><ele>268.0</ele><time>2026-04-11T04:53:49Z</time></trkpt><trkpt lat="43.35590015482266" lon="11.43838669890256"><ele>267.6</ele><time>2026-04-11T04:53:51Z</time></trkpt><trkpt lat="43.356010082036036" lon="11.438413440586647"><ele>267.20000000000005</ele><time>2026-04-11T04:53:53Z</time></trkpt><trkpt lat="43.356114493490495" lon="11.438438799736199"><ele>266.8</ele><time>2026-04-11T04:53:55Z</time></trkpt><trkpt lat="43.35622170620368" lon="11.43846156094451"><ele>266.40000000000003</ele><time>2026-04-11T04:53:57Z</time></trkpt><trkpt lat="43.35633316912473" lon="11.438485836048386"><ele>266.0</ele><time>2026-04-11T04:53:59Z</time></trkpt><trkpt lat="43.35643876981466" lon="11.438509284236773"><ele>265.8</ele><time>2026-04-11T04:54:01Z</time></trkpt><trkpt lat="43.356544041493564" lon="11.438533408241542"><ele>265.6</ele><time>2026-04-11T04:54:03Z</time></trkpt><trkpt lat="43.3566483972818" lon="11.438557322353365"><ele>265.4</ele><time>2026-04-11T04:54:05Z</time></trkpt><trkpt lat="43.3567445653118" lon="11.43857867554145"><ele>265.2</ele><time>2026-04-11T04:54:07Z</time></trkpt><trkpt lat="43.35684197469471" lon="11.438599860634552"><ele>265.0</ele><time>2026-04-11T04:54:09Z</time></trkpt><trkpt lat="43.35694216249993" lon="11.43861546644609"><ele>265.0</ele><time>2026-04-11T04:54:11Z</time></trkpt><trkpt lat="43.35705416033641" lon="11.438614261039989"><ele>265.0</ele><time>2026-04-11T04:54:13Z</time></trkpt><trkpt lat="43.35714808333069" lon="11.438608168481325"><ele>265.0</ele><time>2026-04-11T04:54:16Z</time></trkpt><trkpt lat="43.35723646776365" lon="11.43859369150872"><ele>265.0</ele><time>2026-04-11T04:54:17Z</time></trkpt><trkpt lat="43.35732787654842" lon="11.4385707927558"><ele>265.0</ele><time>2026-04-11T04:54:19Z</time></trkpt><trkpt lat="43.35741970197415" lon="11.438541247475595"><ele>265.0</ele><time>2026-04-11T04:54:21Z</time></trkpt><trkpt lat="43.35751422013543" lon="11.438509941572585"><ele>265.0</ele><time>2026-04-11T04:54:23Z</time></trkpt><trkpt lat="43.357608224585775" lon="11.43847880579402"><ele>265.0</ele><time>2026-04-11T04:54:24.999Z</time></trkpt><trkpt lat="43.35770525525709" lon="11.438446667681117"><ele>265.0</ele><time>2026-04-11T04:54:26.999Z</time></trkpt><trkpt lat="43.35780196475267" lon="11.438414635912338"><ele>265.0</ele><time>2026-04-11T04:54:28.999Z</time></trkpt><trkpt lat="43.35789747001792" lon="11.43838300313682"><ele>265.0</ele><time>2026-04-11T04:54:30.999Z</time></trkpt><trkpt lat="43.357994925933" lon="11.438347417767963"><ele>265.0</ele><time>2026-04-11T04:54:32.999Z</time></trkpt><trkpt lat="43.35809199211721" lon="11.438299495725458"><ele>265.0</ele><time>2026-04-11T04:54:34.999Z</time></trkpt><trkpt lat="43.358177304456646" lon="11.43822901735909"><ele>265.0</ele><time>2026-04-11T04:54:36.999Z</time></trkpt><trkpt lat="43.35822321079742" lon="11.438126202452315"><ele>265.0</ele><time>2026-04-11T04:54:38.999Z</time></trkpt><trkpt lat="43.358279057454034" lon="11.438023921054407"><ele>265.8</ele><time>2026-04-11T04:54:40.999Z</time></trkpt><trkpt lat="43.35832851444531" lon="11.437914812288078"><ele>266.6</ele><time>2026-04-11T04:54:42.999Z</time></trkpt><trkpt lat="43.35836300398988" lon="11.437797370717941"><ele>267.4</ele><time>2026-04-11T04:54:44.999Z</time></trkpt><trkpt lat="43.35838893542021" lon="11.437680456884687"><ele>268.2</ele><time>2026-04-11T04:54:46.999Z</time></trkpt><trkpt lat="43.3584057273103" lon="11.437561861992389"><ele>269.0</ele><time>2026-04-11T04:54:48.999Z</time></trkpt><trkpt lat="43.35840103677875" lon="11.437438680117173"><ele>269.0</ele><time>2026-04-11T04:54:50.999Z</time></trkpt><trkpt lat="43.358391839538186" lon="11.437315487933914"><ele>269.0</ele><time>2026-04-11T04:54:52.999Z</time></trkpt><trkpt lat="43.35838293849215" lon="11.437193245209771"><ele>269.0</ele><time>2026-04-11T04:54:54.999Z</time></trkpt><trkpt lat="43.35835631432936" lon="11.437007004025956"><ele>269.0</ele><time>2026-04-11T04:54:57.999Z</time></trkpt><trkpt lat="43.35834541033471" lon="11.436895476954778"><ele>269.0</ele><time>2026-04-11T04:54:59.999Z</time></trkpt><trkpt lat="43.35835138508733" lon="11.436751627931597"><ele>269.0</ele><time>2026-04-11T04:55:01.999Z</time></trkpt><trkpt lat="43.35835983062462" lon="11.436623499712075"><ele>269.0</ele><time>2026-04-11T04:55:03.999Z</time></trkpt><trkpt lat="43.3583761156677" lon="11.436489981548357"><ele>269.0</ele><time>2026-04-11T04:55:05.999Z</time></trkpt><trkpt lat="43.35839893638524" lon="11.436353896076922"><ele>269.0</ele><time>2026-04-11T04:55:07.999Z</time></trkpt><trkpt lat="43.35842172514051" lon="11.43621497799366"><ele>269.0</ele><time>2026-04-11T04:55:09.999Z</time></trkpt><trkpt lat="43.35845149283286" lon="11.436073099888745"><ele>269.0</ele><time>2026-04-11T04:55:11.999Z</time></trkpt><trkpt lat="43.35847925055843" lon="11.435930447827973"><ele>269.0</ele><time>2026-04-11T04:55:13.999Z</time></trkpt><trkpt lat="43.3585111834053" lon="11.435784485195619"><ele>269.0</ele><time>2026-04-11T04:55:15.999Z</time></trkpt><trkpt lat="43.35854920318016" lon="11.435632521533659"><ele>269.0</ele><time>2026-04-11T04:55:17.999Z</time></trkpt><trkpt lat="43.358588430433635" lon="11.435483143763108"><ele>269.4</ele><time>2026-04-11T04:55:19.998Z</time></trkpt><trkpt lat="43.35865444290576" lon="11.435352787449224"><ele>269.79999999999995</ele><time>2026-04-11T04:55:21.998Z</time></trkpt><trkpt lat="43.35868414018252" lon="11.435276082774186"><ele>270.20000000000005</ele><time>2026-04-11T04:55:22.998Z</time></trkpt><trkpt lat="43.358740975801744" lon="11.435133274148216"><ele>270.6</ele><time>2026-04-11T04:55:24.998Z</time></trkpt><trkpt lat="43.358798933218516" lon="11.43498371101432"><ele>271.0</ele><time>2026-04-11T04:55:26.998Z</time></trkpt><trkpt lat="43.358855415554174" lon="11.43483168166519"><ele>269.40000000000003</ele><time>2026-04-11T04:55:28.998Z</time></trkpt><trkpt lat="43.35888322558989" lon="11.434749790199637"><ele>267.8</ele><time>2026-04-11T04:55:29.998Z</time></trkpt><trkpt lat="43.35889440588276" lon="11.43465987837554"><ele>266.20000000000005</ele><time>2026-04-11T04:55:30.998Z</time></trkpt><trkpt lat="43.35893151265554" lon="11.434494669484577"><ele>264.6</ele><time>2026-04-11T04:55:32.998Z</time></trkpt><trkpt lat="43.35895292937328" lon="11.434408357489767"><ele>263.0</ele><time>2026-04-11T04:55:33.998Z</time></trkpt><trkpt lat="43.35897004979852" lon="11.434234926172381"><ele>263.0</ele><time>2026-04-11T04:55:35.998Z</time></trkpt><trkpt lat="43.35897367748987" lon="11.434145082941203"><ele>263.0</ele><time>2026-04-11T04:55:36.998Z</time></trkpt><trkpt lat="43.35897648444815" lon="11.43405332146144"><ele>263.0</ele><time>2026-04-11T04:55:37.998Z</time></trkpt><trkpt lat="43.35897390915071" lon="11.433960221211809"><ele>263.0</ele><time>2026-04-11T04:55:38.998Z</time></trkpt><trkpt lat="43.35896665736046" lon="11.433864142133418"><ele>263.0</ele><time>2026-04-11T04:55:39.998Z</time></trkpt><trkpt lat="43.35895745329328" lon="11.433767931944969"><ele>263.0</ele><time>2026-04-11T04:55:40.998Z</time></trkpt><trkpt lat="43.35894453178508" lon="11.433671882285328"><ele>263.0</ele><time>2026-04-11T04:55:41.998Z</time></trkpt><trkpt lat="43.35893129455087" lon="11.43357643516936"><ele>263.0</ele><time>2026-04-11T04:55:42.998Z</time></trkpt><trkpt lat="43.3589121046578" lon="11.433480692603846"><ele>263.0</ele><time>2026-04-11T04:55:43.998Z</time></trkpt><trkpt lat="43.35889126089265" lon="11.43338303505722"><ele>263.0</ele><time>2026-04-11T04:55:44.998Z</time></trkpt><trkpt lat="43.358880658083756" lon="11.433283164508193"><ele>263.0</ele><time>2026-04-11T04:55:45.998Z</time></trkpt><trkpt lat="43.35887710371009" lon="11.433180250044492"><ele>263.0</ele><time>2026-04-11T04:55:46.998Z</time></trkpt><trkpt lat="43.358867510898534" lon="11.433078842685326"><ele>263.0</ele><time>2026-04-11T04:55:47.998Z</time></trkpt><trkpt lat="43.35885614705017" lon="11.432975491221452"><ele>263.0</ele><time>2026-04-11T04:55:48.998Z</time></trkpt><trkpt lat="43.35884699603136" lon="11.432873004480397"><ele>263.0</ele><time>2026-04-11T04:55:49.998Z</time></trkpt><trkpt lat="43.35883846132854" lon="11.43276715809549"><ele>263.0</ele><time>2026-04-11T04:55:50.998Z</time></trkpt><trkpt lat="43.358834881931216" lon="11.43265979387284"><ele>263.0</ele><time>2026-04-11T04:55:51.998Z</time></trkpt><trkpt lat="43.358831848142174" lon="11.432549435246132"><ele>263.0</ele><time>2026-04-11T04:55:52.998Z</time></trkpt><trkpt lat="43.358833940120164" lon="11.432437399378939"><ele>263.0</ele><time>2026-04-11T04:55:53.998Z</time></trkpt><trkpt lat="43.35884340700938" lon="11.432323983552003"><ele>263.0</ele><time>2026-04-11T04:55:55Z</time></trkpt><trkpt lat="43.35887293437163" lon="11.43221730763326"><ele>262.6666666666667</ele><time>2026-04-11T04:55:56Z</time></trkpt><trkpt lat="43.35889285228018" lon="11.43210789913772"><ele>262.33333333333337</ele><time>2026-04-11T04:55:57Z</time></trkpt><trkpt lat="43.35891372888461" lon="11.431999352098646"><ele>262.0</ele><time>2026-04-11T04:55:58Z</time></trkpt><trkpt lat="43.358935997773486" lon="11.431891917929642"><ele>261.6666666666667</ele><time>2026-04-11T04:55:59Z</time></trkpt><trkpt lat="43.35894335640256" lon="11.431777774632671"><ele>261.3333333333333</ele><time>2026-04-11T04:56:00Z</time></trkpt><trkpt lat="43.3589676487308" lon="11.431671335281571"><ele>261.0</ele><time>2026-04-11T04:56:01Z</time></trkpt><trkpt lat="43.358989265013626" lon="11.431563306571148"><ele>261.0</ele><time>2026-04-11T04:56:02Z</time></trkpt><trkpt lat="43.35901081286199" lon="11.431458531658881"><ele>261.0</ele><time>2026-04-11T04:56:03Z</time></trkpt><trkpt lat="43.35903019665816" lon="11.431354769259087"><ele>261.0</ele><time>2026-04-11T04:56:04Z</time></trkpt><trkpt lat="43.35905339003045" lon="11.431253722319573"><ele>261.0</ele><time>2026-04-11T04:56:05Z</time></trkpt><trkpt lat="43.35907627224922" lon="11.431153308017418"><ele>261.0</ele><time>2026-04-11T04:56:06Z</time></trkpt><trkpt lat="43.35909927736155" lon="11.431055095616228"><ele>261.0</ele><time>2026-04-11T04:56:07Z</time></trkpt><trkpt lat="43.35912265014274" lon="11.430956939393802"><ele>261.5</ele><time>2026-04-11T04:56:08Z</time></trkpt><trkpt lat="43.359140254623874" lon="11.430854407746024"><ele>262.0</ele><time>2026-04-11T04:56:09Z</time></trkpt><trkpt lat="43.35916083830231" lon="11.430755153024121"><ele>262.5</ele><time>2026-04-11T04:56:10Z</time></trkpt><trkpt lat="43.359178774453135" lon="11.430653074977503"><ele>263.0</ele><time>2026-04-11T04:56:11Z</time></trkpt><trkpt lat="43.35919423731877" lon="11.430548384876479"><ele>263.5</ele><time>2026-04-11T04:56:12Z</time></trkpt><trkpt lat="43.35920381391028" lon="11.430444404884861"><ele>264.0</ele><time>2026-04-11T04:56:13Z</time></trkpt><trkpt lat="43.359216593073285" lon="11.43033799332736"><ele>264.1666666666667</ele><time>2026-04-11T04:56:14Z</time></trkpt><trkpt lat="43.35922623436856" lon="11.430231613967546"><ele>264.3333333333333</ele><time>2026-04-11T04:56:15Z</time></trkpt><trkpt lat="43.35922519982057" lon="11.43012922354837"><ele>264.5</ele><time>2026-04-11T04:56:16Z</time></trkpt><trkpt lat="43.35922099009726" lon="11.4300288181997"><ele>264.66666666666663</ele><time>2026-04-11T04:56:17Z</time></trkpt><trkpt lat="43.35921621148288" lon="11.42992273159752"><ele>264.8333333333333</ele><time>2026-04-11T04:56:18Z</time></trkpt><trkpt lat="43.359211039095115" lon="11.429817009879171"><ele>265.0</ele><time>2026-04-11T04:56:19Z</time></trkpt><trkpt lat="43.35920202202651" lon="11.429708268401233"><ele>264.0</ele><time>2026-04-11T04:56:20Z</time></trkpt><trkpt lat="43.359189704007626" lon="11.429603490271322"><ele>263.0</ele><time>2026-04-11T04:56:21Z</time></trkpt><trkpt lat="43.35917930461756" lon="11.429500163955204"><ele>262.0</ele><time>2026-04-11T04:56:22Z</time></trkpt><trkpt lat="43.35916000983593" lon="11.429394155967332"><ele>261.0</ele><time>2026-04-11T04:56:23Z</time></trkpt><trkpt lat="43.35913527857376" lon="11.429295976557158"><ele>260.0</ele><time>2026-04-11T04:56:24Z</time></trkpt><trkpt lat="43.35910933913972" lon="11.429196397074415"><ele>259.0</ele><time>2026-04-11T04:56:25Z</time></trkpt><trkpt lat="43.35908211988168" lon="11.429093578012456"><ele>259.0</ele><time>2026-04-11T04:56:26Z</time></trkpt><trkpt lat="43.3590533009148" lon="11.42899672215075"><ele>259.0</ele><time>2026-04-11T04:56:27Z</time></trkpt><trkpt lat="43.359017130376145" lon="11.42890535949741"><ele>259.0</ele><time>2026-04-11T04:56:28Z</time></trkpt><trkpt lat="43.3589742440719" lon="11.42881730008306"><ele>259.0</ele><time>2026-04-11T04:56:29Z</time></trkpt><trkpt lat="43.358927474752235" lon="11.428738201049338"><ele>259.0</ele><time>2026-04-11T04:56:30Z</time></trkpt><trkpt lat="43.358883970370144" lon="11.428658863234487"><ele>259.0</ele><time>2026-04-11T04:56:31Z</time></trkpt><trkpt lat="43.35883891987764" lon="11.428580926344095"><ele>259.0</ele><time>2026-04-11T04:56:32Z</time></trkpt><trkpt lat="43.358787416115035" lon="11.428512736122123"><ele>260.14285714285717</ele><time>2026-04-11T04:56:33Z</time></trkpt><trkpt lat="43.35873835909467" lon="11.428443609414762"><ele>261.2857142857143</ele><time>2026-04-11T04:56:34Z</time></trkpt><trkpt lat="43.358687746383886" lon="11.428375088373711"><ele>262.42857142857144</ele><time>2026-04-11T04:56:34.999Z</time></trkpt><trkpt lat="43.358638764440514" lon="11.42830436769541"><ele>263.57142857142856</ele><time>2026-04-11T04:56:35.999Z</time></trkpt><trkpt lat="43.358592937950355" lon="11.42823357425844"><ele>264.7142857142857</ele><time>2026-04-11T04:56:36.999Z</time></trkpt><trkpt lat="43.35854539105311" lon="11.428167025435013"><ele>265.8571428571429</ele><time>2026-04-11T04:56:37.999Z</time></trkpt><trkpt lat="43.35849630223939" lon="11.428100608289892"><ele>267.0</ele><time>2026-04-11T04:56:38.999Z</time></trkpt><trkpt lat="43.35844873136499" lon="11.428031004147375"><ele>265.42857142857144</ele><time>2026-04-11T04:56:39.999Z</time></trkpt><trkpt lat="43.35840337799232" lon="11.4279591444596"><ele>263.8571428571429</ele><time>2026-04-11T04:56:40.999Z</time></trkpt><trkpt lat="43.35836183886839" lon="11.427886622636064"><ele>262.2857142857143</ele><time>2026-04-11T04:56:41.999Z</time></trkpt><trkpt lat="43.358318099569985" lon="11.427821161560695"><ele>260.7142857142857</ele><time>2026-04-11T04:56:42.999Z</time></trkpt><trkpt lat="43.35827943900657" lon="11.42775049813374"><ele>259.1428571428571</ele><time>2026-04-11T04:56:43.999Z</time></trkpt><trkpt lat="43.35824366713388" lon="11.427677110227405"><ele>257.57142857142856</ele><time>2026-04-11T04:56:44.999Z</time></trkpt><trkpt lat="43.358208735089654" lon="11.427600943329278"><ele>256.0</ele><time>2026-04-11T04:56:45.999Z</time></trkpt><trkpt lat="43.35812916399213" lon="11.427467431129326"><ele>256.0</ele><time>2026-04-11T04:56:47.999Z</time></trkpt><trkpt lat="43.35804267934279" lon="11.427345008008214"><ele>255.99999999999997</ele><time>2026-04-11T04:56:49.999Z</time></trkpt><trkpt lat="43.35799709578308" lon="11.427283480663466"><ele>256.0</ele><time>2026-04-11T04:56:50.999Z</time></trkpt><trkpt lat="43.35794899315546" lon="11.427226827972971"><ele>256.0</ele><time>2026-04-11T04:56:51.999Z</time></trkpt><trkpt lat="43.357899725557296" lon="11.427172794708985"><ele>255.99999999999997</ele><time>2026-04-11T04:56:52.999Z</time></trkpt><trkpt lat="43.35784933646556" lon="11.427120416148531"><ele>256.0</ele><time>2026-04-11T04:56:53.999Z</time></trkpt><trkpt lat="43.357793753986684" lon="11.427077536015302"><ele>256.0</ele><time>2026-04-11T04:56:54.999Z</time></trkpt><trkpt lat="43.35773639003848" lon="11.42703985232292"><ele>255.49999999999997</ele><time>2026-04-11T04:56:55.999Z</time></trkpt><trkpt lat="43.35762325082736" lon="11.42696324570322"><ele>255.0</ele><time>2026-04-11T04:56:57.999Z</time></trkpt><trkpt lat="43.35756364031974" lon="11.426923893282577"><ele>254.5</ele><time>2026-04-11T04:56:58.999Z</time></trkpt><trkpt lat="43.357502698417385" lon="11.426885881215101"><ele>254.0</ele><time>2026-04-11T04:56:59.999Z</time></trkpt><trkpt lat="43.3574357066499" lon="11.426855129605295"><ele>253.49999999999997</ele><time>2026-04-11T04:57:00.999Z</time></trkpt><trkpt lat="43.357366979400936" lon="11.426812827633723"><ele>253.0</ele><time>2026-04-11T04:57:01.999Z</time></trkpt><trkpt lat="43.357297614468486" lon="11.426766723229926"><ele>252.99999999999997</ele><time>2026-04-11T04:57:02.999Z</time></trkpt><trkpt lat="43.35722880076765" lon="11.426719812019629"><ele>253.0</ele><time>2026-04-11T04:57:03.999Z</time></trkpt><trkpt lat="43.35714893477983" lon="11.42667192577758"><ele>253.0</ele><time>2026-04-11T04:57:04.999Z</time></trkpt><trkpt lat="43.35706700350433" lon="11.426624054671949"><ele>253.0</ele><time>2026-04-11T04:57:05.999Z</time></trkpt><trkpt lat="43.35698620110626" lon="11.426568294336908"><ele>252.99999999999997</ele><time>2026-04-11T04:57:06.999Z</time></trkpt><trkpt lat="43.35691302846866" lon="11.426518677298322"><ele>253.0</ele><time>2026-04-11T04:57:07.999Z</time></trkpt><trkpt lat="43.35683468060601" lon="11.42647137553381"><ele>253.49999999999997</ele><time>2026-04-11T04:57:08.999Z</time></trkpt><trkpt lat="43.35676086123678" lon="11.426419649579243"><ele>254.0</ele><time>2026-04-11T04:57:09.999Z</time></trkpt><trkpt lat="43.35668079148737" lon="11.426362260983536"><ele>254.5</ele><time>2026-04-11T04:57:10.999Z</time></trkpt><trkpt lat="43.35660358759573" lon="11.426294791986885"><ele>255.0</ele><time>2026-04-11T04:57:11.999Z</time></trkpt><trkpt lat="43.35653227740987" lon="11.426220217973693"><ele>255.49999999999997</ele><time>2026-04-11T04:57:12.999Z</time></trkpt><trkpt lat="43.35646821308434" lon="11.426140332684513"><ele>256.0</ele><time>2026-04-11T04:57:13.999Z</time></trkpt><trkpt lat="43.35640197360005" lon="11.4260519486123"><ele>254.0</ele><time>2026-04-11T04:57:14.999Z</time></trkpt><trkpt lat="43.35633303489074" lon="11.425961723429616"><ele>252.00000000000003</ele><time>2026-04-11T04:57:15.999Z</time></trkpt><trkpt lat="43.356263709725546" lon="11.425872105008208"><ele>250.00000000000003</ele><time>2026-04-11T04:57:16.999Z</time></trkpt><trkpt lat="43.35620164504518" lon="11.425783499714198"><ele>248.0</ele><time>2026-04-11T04:57:17.999Z</time></trkpt><trkpt lat="43.356136583355735" lon="11.425693998051626"><ele>246.0</ele><time>2026-04-11T04:57:18.999Z</time></trkpt><trkpt lat="43.35607084007349" lon="11.425607131839442"><ele>246.0</ele><time>2026-04-11T04:57:19.999Z</time></trkpt><trkpt lat="43.356004479981074" lon="11.425519250996954"><ele>246.00000000000003</ele><time>2026-04-11T04:57:20.999Z</time></trkpt><trkpt lat="43.355935917558874" lon="11.425427517991658"><ele>246.00000000000003</ele><time>2026-04-11T04:57:21.999Z</time></trkpt><trkpt lat="43.35586788530278" lon="11.425338568815903"><ele>246.0</ele><time>2026-04-11T04:57:22.999Z</time></trkpt><trkpt lat="43.35579908806523" lon="11.425258988421772"><ele>246.0</ele><time>2026-04-11T04:57:23.999Z</time></trkpt><trkpt lat="43.355737796250764" lon="11.425181776408202"><ele>244.8</ele><time>2026-04-11T04:57:24.999Z</time></trkpt><trkpt lat="43.355678056568436" lon="11.425099876172055"><ele>243.60000000000002</ele><time>2026-04-11T04:57:25.999Z</time></trkpt><trkpt lat="43.35561397970462" lon="11.425015677573313"><ele>242.4</ele><time>2026-04-11T04:57:26.999Z</time></trkpt><trkpt lat="43.35554681496094" lon="11.42493070165399"><ele>241.2</ele><time>2026-04-11T04:57:27.999Z</time></trkpt><trkpt lat="43.355478916397026" lon="11.424843612093847"><ele>240.0</ele><time>2026-04-11T04:57:28.999Z</time></trkpt><trkpt lat="43.35541087150174" lon="11.42475223561149"><ele>240.0</ele><time>2026-04-11T04:57:29.998Z</time></trkpt><trkpt lat="43.35534438218684" lon="11.424662919422685"><ele>240.0</ele><time>2026-04-11T04:57:30.998Z</time></trkpt><trkpt lat="43.35527872643387" lon="11.424577567797927"><ele>240.0</ele><time>2026-04-11T04:57:31.998Z</time></trkpt><trkpt lat="43.35520958695061" lon="11.424485985876505"><ele>240.0</ele><time>2026-04-11T04:57:32.998Z</time></trkpt><trkpt lat="43.35513980698636" lon="11.424394349303105"><ele>240.0</ele><time>2026-04-11T04:57:33.998Z</time></trkpt><trkpt lat="43.35507112141847" lon="11.424302367755276"><ele>239.2</ele><time>2026-04-11T04:57:34.998Z</time></trkpt><trkpt lat="43.35501525300719" lon="11.424209305629908"><ele>238.4</ele><time>2026-04-11T04:57:35.998Z</time></trkpt><trkpt lat="43.354970163926886" lon="11.424102114332689"><ele>237.60000000000002</ele><time>2026-04-11T04:57:36.998Z</time></trkpt><trkpt lat="43.354944626714826" lon="11.42397524365193"><ele>236.8</ele><time>2026-04-11T04:57:37.998Z</time></trkpt><trkpt lat="43.35494591281259" lon="11.423842362060665"><ele>236.0</ele><time>2026-04-11T04:57:38.998Z</time></trkpt><trkpt lat="43.354983010881305" lon="11.423717990073838"><ele>235.20000000000002</ele><time>2026-04-11T04:57:39.998Z</time></trkpt><trkpt lat="43.35500816695588" lon="11.423584823884307"><ele>234.40000000000003</ele><time>2026-04-11T04:57:40.998Z</time></trkpt><trkpt lat="43.35504666651059" lon="11.423458574917918"><ele>233.6</ele><time>2026-04-11T04:57:41.998Z</time></trkpt><trkpt lat="43.35507971616269" lon="11.423329748038466"><ele>232.8</ele><time>2026-04-11T04:57:42.998Z</time></trkpt><trkpt lat="43.355113950597705" lon="11.42320037689334"><ele>232.0</ele><time>2026-04-11T04:57:43.998Z</time></trkpt><trkpt lat="43.35514732341728" lon="11.423064928075222"><ele>230.6</ele><time>2026-04-11T04:57:44.998Z</time></trkpt><trkpt lat="43.35518257452228" lon="11.422927478248663"><ele>229.2</ele><time>2026-04-11T04:57:45.998Z</time></trkpt><trkpt lat="43.35521062246398" lon="11.422783876564024"><ele>227.8</ele><time>2026-04-11T04:57:46.998Z</time></trkpt><trkpt lat="43.35523594935822" lon="11.422639800788456"><ele>226.4</ele><time>2026-04-11T04:57:47.998Z</time></trkpt><trkpt lat="43.35525837387414" lon="11.422494430135746"><ele>225.0</ele><time>2026-04-11T04:57:48.998Z</time></trkpt><trkpt lat="43.35528102747361" lon="11.422346474727297"><ele>225.0</ele><time>2026-04-11T04:57:49.998Z</time></trkpt><trkpt lat="43.35530215338164" lon="11.422198681130812"><ele>225.0</ele><time>2026-04-11T04:57:50.998Z</time></trkpt><trkpt lat="43.355320104131614" lon="11.422052230162944"><ele>225.0</ele><time>2026-04-11T04:57:51.998Z</time></trkpt><trkpt lat="43.35533226784361" lon="11.421903348770206"><ele>225.0</ele><time>2026-04-11T04:57:52.998Z</time></trkpt><trkpt lat="43.35534375560563" lon="11.421751998829928"><ele>225.0</ele><time>2026-04-11T04:57:53.998Z</time></trkpt><trkpt lat="43.35535408559433" lon="11.421600544576453"><ele>223.6</ele><time>2026-04-11T04:57:54.998Z</time></trkpt><trkpt lat="43.355365862488604" lon="11.421452337545754"><ele>222.2</ele><time>2026-04-11T04:57:55.998Z</time></trkpt><trkpt lat="43.35538187259026" lon="11.421307693256525"><ele>220.8</ele><time>2026-04-11T04:57:56.998Z</time></trkpt><trkpt lat="43.35540068332868" lon="11.421162627861595"><ele>219.4</ele><time>2026-04-11T04:57:57.998Z</time></trkpt><trkpt lat="43.35542214585776" lon="11.42102155654947"><ele>218.0</ele><time>2026-04-11T04:57:58.998Z</time></trkpt><trkpt lat="43.35544622214137" lon="11.420883798139451"><ele>217.8</ele><time>2026-04-11T04:58:00Z</time></trkpt><trkpt lat="43.35547100005902" lon="11.420750894840653"><ele>217.60000000000002</ele><time>2026-04-11T04:58:01Z</time></trkpt><trkpt lat="43.35549561272244" lon="11.420619024712474"><ele>217.39999999999998</ele><time>2026-04-11T04:58:02Z</time></trkpt><trkpt lat="43.35552093814651" lon="11.420488858895814"><ele>217.2</ele><time>2026-04-11T04:58:03Z</time></trkpt><trkpt lat="43.35554645427549" lon="11.420362574129783"><ele>217.0</ele><time>2026-04-11T04:58:04Z</time></trkpt><trkpt lat="43.35556884811121" lon="11.420237227733628"><ele>216.99999999999997</ele><time>2026-04-11T04:58:05Z</time></trkpt><trkpt lat="43.35558984234868" lon="11.42011395224219"><ele>217.0</ele><time>2026-04-11T04:58:06Z</time></trkpt><trkpt lat="43.35561669050412" lon="11.419997677820307"><ele>217.0</ele><time>2026-04-11T04:58:07Z</time></trkpt><trkpt lat="43.35564288528429" lon="11.419884161174567"><ele>217.0</ele><time>2026-04-11T04:58:08Z</time></trkpt><trkpt lat="43.3556696700344" lon="11.419773477571992"><ele>216.99999999999997</ele><time>2026-04-11T04:58:09Z</time></trkpt><trkpt lat="43.3557027263644" lon="11.419663083525775"><ele>217.0</ele><time>2026-04-11T04:58:10Z</time></trkpt><trkpt lat="43.355742124118464" lon="11.419559722645328"><ele>216.83333333333331</ele><time>2026-04-11T04:58:11Z</time></trkpt><trkpt lat="43.3557824049674" lon="11.419456395108528"><ele>216.66666666666666</ele><time>2026-04-11T04:58:12Z</time></trkpt><trkpt lat="43.355823542107885" lon="11.419355926480762"><ele>216.5</ele><time>2026-04-11T04:58:13Z</time></trkpt><trkpt lat="43.3558666666961" lon="11.419259970848929"><ele>216.33333333333331</ele><time>2026-04-11T04:58:14Z</time></trkpt><trkpt lat="43.355908304189775" lon="11.419166425730849"><ele>216.16666666666666</ele><time>2026-04-11T04:58:15Z</time></trkpt><trkpt lat="43.35594843623777" lon="11.419075770236562"><ele>216.0</ele><time>2026-04-11T04:58:16Z</time></trkpt><trkpt lat="43.35598905492379" lon="11.418987530794059"><ele>216.0</ele><time>2026-04-11T04:58:17Z</time></trkpt><trkpt lat="43.35603085897913" lon="11.418902002719447"><ele>216.0</ele><time>2026-04-11T04:58:18Z</time></trkpt><trkpt lat="43.35607248111411" lon="11.418815372108089"><ele>216.0</ele><time>2026-04-11T04:58:19Z</time></trkpt><trkpt lat="43.356110973346915" lon="11.418731160013879"><ele>216.0</ele><time>2026-04-11T04:58:20Z</time></trkpt><trkpt lat="43.35614795756794" lon="11.418647627851053"><ele>216.0</ele><time>2026-04-11T04:58:21Z</time></trkpt><trkpt lat="43.35618689584383" lon="11.418568631442865"><ele>216.0</ele><time>2026-04-11T04:58:22Z</time></trkpt><trkpt lat="43.356228860084414" lon="11.418496022658633"><ele>216.0</ele><time>2026-04-11T04:58:23Z</time></trkpt><trkpt lat="43.35626661209864" lon="11.418419014177001"><ele>216.14285714285714</ele><time>2026-04-11T04:58:24Z</time></trkpt><trkpt lat="43.35630014451782" lon="11.418338362727386"><ele>216.28571428571428</ele><time>2026-04-11T04:58:25Z</time></trkpt><trkpt lat="43.35634648990598" lon="11.418272575100826"><ele>216.42857142857144</ele><time>2026-04-11T04:58:26Z</time></trkpt><trkpt lat="43.35638338172761" lon="11.418195798886638"><ele>216.57142857142856</ele><time>2026-04-11T04:58:27Z</time></trkpt><trkpt lat="43.356405366067854" lon="11.418108243029554"><ele>216.71428571428572</ele><time>2026-04-11T04:58:28Z</time></trkpt><trkpt lat="43.35644514175774" lon="11.418035365428375"><ele>216.85714285714286</ele><time>2026-04-11T04:58:29Z</time></trkpt><trkpt lat="43.35647848451621" lon="11.417960209673836"><ele>217.0</ele><time>2026-04-11T04:58:30Z</time></trkpt><trkpt lat="43.35651345981586" lon="11.41788615096781"><ele>217.5</ele><time>2026-04-11T04:58:31Z</time></trkpt><trkpt lat="43.35658095011996" lon="11.417746326685274"><ele>218.0</ele><time>2026-04-11T04:58:33Z</time></trkpt><trkpt lat="43.3566425945165" lon="11.417607117912683"><ele>218.5</ele><time>2026-04-11T04:58:35Z</time></trkpt><trkpt lat="43.35670314614889" lon="11.417476609160952"><ele>219.0</ele><time>2026-04-11T04:58:37Z</time></trkpt><trkpt lat="43.356756352150875" lon="11.417347280390876"><ele>219.0</ele><time>2026-04-11T04:58:39Z</time></trkpt><trkpt lat="43.356818387787314" lon="11.417231971092658"><ele>219.0</ele><time>2026-04-11T04:58:41Z</time></trkpt><trkpt lat="43.35683626949583" lon="11.417103997181874"><ele>219.0</ele><time>2026-04-11T04:58:43Z</time></trkpt><trkpt lat="43.35685785767144" lon="11.416987364143418"><ele>219.0</ele><time>2026-04-11T04:58:44.999Z</time></trkpt><trkpt lat="43.356852382642366" lon="11.416891292658502"><ele>219.0</ele><time>2026-04-11T04:58:46.999Z</time></trkpt><trkpt lat="43.35688647871104" lon="11.416814256597318"><ele>219.0</ele><time>2026-04-11T04:58:49.999Z</time></trkpt><trkpt lat="43.356932215612616" lon="11.416717014703675"><ele>219.0</ele><time>2026-04-11T04:58:51.999Z</time></trkpt><trkpt lat="43.35686966615338" lon="11.41663570544223"><ele>219.0</ele><time>2026-04-11T04:58:52.999Z</time></trkpt><trkpt lat="43.35681474441593" lon="11.416554295613157"><ele>219.0</ele><time>2026-04-11T04:58:54.999Z</time></trkpt><trkpt lat="43.35675640108813" lon="11.416462937612058"><ele>219.0</ele><time>2026-04-11T04:58:56.999Z</time></trkpt><trkpt lat="43.356696358511066" lon="11.41636062804986"><ele>219.0</ele><time>2026-04-11T04:58:58.999Z</time></trkpt><trkpt lat="43.35663542366636" lon="11.416266680006062"><ele>219.0</ele><time>2026-04-11T04:59:00.999Z</time></trkpt><trkpt lat="43.35657807447571" lon="11.416170385136724"><ele>219.39999999999998</ele><time>2026-04-11T04:59:02.999Z</time></trkpt><trkpt lat="43.35652068694491" lon="11.416071328213715"><ele>219.79999999999998</ele><time>2026-04-11T04:59:04.999Z</time></trkpt><trkpt lat="43.3564589853768" lon="11.415978733524215"><ele>220.20000000000002</ele><time>2026-04-11T04:59:06.999Z</time></trkpt><trkpt lat="43.35639681356525" lon="11.415883162813286"><ele>220.60000000000002</ele><time>2026-04-11T04:59:08.999Z</time></trkpt><trkpt lat="43.356346901202066" lon="11.415774321429177"><ele>221.0</ele><time>2026-04-11T04:59:10.999Z</time></trkpt><trkpt lat="43.35633622070147" lon="11.415649853970853"><ele>221.16666666666669</ele><time>2026-04-11T04:59:12.999Z</time></trkpt><trkpt lat="43.35634637866577" lon="11.415544017429099"><ele>221.33333333333334</ele><time>2026-04-11T04:59:14.999Z</time></trkpt><trkpt lat="43.3563566768627" lon="11.415448664274148"><ele>221.5</ele><time>2026-04-11T04:59:17.999Z</time></trkpt><trkpt lat="43.35638340713875" lon="11.415325781122446"><ele>221.66666666666669</ele><time>2026-04-11T04:59:19.999Z</time></trkpt><trkpt lat="43.356405897008806" lon="11.415209770371566"><ele>221.83333333333334</ele><time>2026-04-11T04:59:22.999Z</time></trkpt><trkpt lat="43.35642912819697" lon="11.415093843318669"><ele>222.0</ele><time>2026-04-11T04:59:25.999Z</time></trkpt><trkpt lat="43.356448886014746" lon="11.4150081608088"><ele>222.83333333333334</ele><time>2026-04-11T04:59:28.999Z</time></trkpt><trkpt lat="43.35647611348065" lon="11.414911444420007"><ele>223.66666666666669</ele><time>2026-04-11T04:59:31.999Z</time></trkpt><trkpt lat="43.35649638841825" lon="11.4148128107222"><ele>224.5</ele><time>2026-04-11T04:59:34.999Z</time></trkpt><trkpt lat="43.356506904062954" lon="11.41470494736578"><ele>225.33333333333334</ele><time>2026-04-11T04:59:37.999Z</time></trkpt><trkpt lat="43.35653340944187" lon="11.414586136765234"><ele>226.16666666666669</ele><time>2026-04-11T04:59:40.998Z</time></trkpt><trkpt lat="43.356559613917526" lon="11.414475157036605"><ele>227.0</ele><time>2026-04-11T04:59:43.998Z</time></trkpt><trkpt lat="43.35659903783464" lon="11.414354045820073"><ele>227.66666666666669</ele><time>2026-04-11T04:59:45.998Z</time></trkpt><trkpt lat="43.35662462124442" lon="11.41424276667772"><ele>228.33333333333334</ele><time>2026-04-11T04:59:48.998Z</time></trkpt><trkpt lat="43.356647321643365" lon="11.41416051958681"><ele>229.0</ele><time>2026-04-11T04:59:50.998Z</time></trkpt><trkpt lat="43.35666776768114" lon="11.41407473199342"><ele>229.66666666666669</ele><time>2026-04-11T04:59:52.998Z</time></trkpt><trkpt lat="43.35669285782678" lon="11.413981618625717"><ele>230.33333333333334</ele><time>2026-04-11T04:59:55.998Z</time></trkpt><trkpt lat="43.35671892331271" lon="11.413878458148272"><ele>231.0</ele><time>2026-04-11T04:59:58.998Z</time></trkpt><trkpt lat="43.35676999813918" lon="11.413742392329821"><ele>231.5</ele><time>2026-04-11T05:00:00.998Z</time></trkpt><trkpt lat="43.356795900777335" lon="11.413622142371068"><ele>232.0</ele><time>2026-04-11T05:00:03.998Z</time></trkpt><trkpt lat="43.356831408853104" lon="11.413501050016569"><ele>232.5</ele><time>2026-04-11T05:00:07Z</time></trkpt><trkpt lat="43.35685398571519" lon="11.413418024273764"><ele>233.0</ele><time>2026-04-11T05:00:09Z</time></trkpt><trkpt lat="43.35687946277921" lon="11.413337334487478"><ele>233.5</ele><time>2026-04-11T05:00:11Z</time></trkpt><trkpt lat="43.35690500091385" lon="11.41325726645285"><ele>234.0</ele><time>2026-04-11T05:00:13Z</time></trkpt><trkpt lat="43.35693973979058" lon="11.413136578160374"><ele>234.0</ele><time>2026-04-11T05:00:16Z</time></trkpt><trkpt lat="43.356944377849224" lon="11.413025641627282"><ele>234.0</ele><time>2026-04-11T05:00:19Z</time></trkpt><trkpt lat="43.3569898418028" lon="11.41295292287637"><ele>234.0</ele><time>2026-04-11T05:00:22Z</time></trkpt><trkpt lat="43.35703677003964" lon="11.412832241173017"><ele>234.0</ele><time>2026-04-11T05:00:24Z</time></trkpt><trkpt lat="43.35708431351207" lon="11.41273336968647"><ele>234.0</ele><time>2026-04-11T05:00:27Z</time></trkpt><trkpt lat="43.35712620411079" lon="11.412632210814714"><ele>234.0</ele><time>2026-04-11T05:00:30Z</time></trkpt><trkpt lat="43.357168161332744" lon="11.412546579253595"><ele>235.33333333333334</ele><time>2026-04-11T05:00:33Z</time></trkpt><trkpt lat="43.357206055698356" lon="11.412468657547477"><ele>236.66666666666669</ele><time>2026-04-11T05:00:36Z</time></trkpt><trkpt lat="43.35728815183713" lon="11.412377803636252"><ele>238.0</ele><time>2026-04-11T05:03:03.999Z</time></trkpt><trkpt lat="43.35734639543469" lon="11.412331743674994"><ele>239.33333333333334</ele><time>2026-04-11T05:03:06.999Z</time></trkpt><trkpt lat="43.35741373626714" lon="11.412290054704394"><ele>240.66666666666669</ele><time>2026-04-11T05:03:09.999Z</time></trkpt><trkpt lat="43.35748768087447" lon="11.412264711165006"><ele>242.0</ele><time>2026-04-11T05:03:12.999Z</time></trkpt><trkpt lat="43.3575614364707" lon="11.412251264008269"><ele>242.0</ele><time>2026-04-11T05:03:15.999Z</time></trkpt><trkpt lat="43.357693154266116" lon="11.412259552518863"><ele>242.0</ele><time>2026-04-11T05:03:20.999Z</time></trkpt><trkpt lat="43.35777021681733" lon="11.412285279324568"><ele>242.0</ele><time>2026-04-11T05:03:23.999Z</time></trkpt><trkpt lat="43.35785018180037" lon="11.41231798839777"><ele>242.0</ele><time>2026-04-11T05:03:26.999Z</time></trkpt><trkpt lat="43.35793357904584" lon="11.412340626154398"><ele>242.0</ele><time>2026-04-11T05:03:29.999Z</time></trkpt><trkpt lat="43.35801208556304" lon="11.4123824723893"><ele>243.0</ele><time>2026-04-11T05:03:32.999Z</time></trkpt><trkpt lat="43.358089409152946" lon="11.412398226630968"><ele>244.0</ele><time>2026-04-11T05:03:35.999Z</time></trkpt><trkpt lat="43.35816817645223" lon="11.412403172309244"><ele>245.0</ele><time>2026-04-11T05:03:38.999Z</time></trkpt><trkpt lat="43.35832521324411" lon="11.412405262014783"><ele>246.0</ele><time>2026-04-11T05:03:44.999Z</time></trkpt><trkpt lat="43.35839865123625" lon="11.412401152971897"><ele>247.0</ele><time>2026-04-11T05:03:47.999Z</time></trkpt><trkpt lat="43.35847918436618" lon="11.412394897768722"><ele>247.0</ele><time>2026-04-11T05:03:51.999Z</time></trkpt><trkpt lat="43.3585422479211" lon="11.41238836209577"><ele>247.0</ele><time>2026-04-11T05:03:54.999Z</time></trkpt><trkpt lat="43.358616878695955" lon="11.412374364011395"><ele>247.0</ele><time>2026-04-11T05:03:57.998Z</time></trkpt><trkpt lat="43.35869066956258" lon="11.412347908128318"><ele>247.0</ele><time>2026-04-11T05:04:00.998Z</time></trkpt><trkpt lat="43.358763199133215" lon="11.412311296395474"><ele>247.0</ele><time>2026-04-11T05:04:03.998Z</time></trkpt><trkpt lat="43.358833312148704" lon="11.412264165671099"><ele>247.0</ele><time>2026-04-11T05:04:06.998Z</time></trkpt><trkpt lat="43.358889540050555" lon="11.412215718839557"><ele>247.0</ele><time>2026-04-11T05:04:09.998Z</time></trkpt><trkpt lat="43.35895288183195" lon="11.412101301551854"><ele>248.57142857142858</ele><time>2026-04-11T05:04:13.998Z</time></trkpt><trkpt lat="43.35897235041107" lon="11.411981972850384"><ele>250.1428571428571</ele><time>2026-04-11T05:04:19Z</time></trkpt><trkpt lat="43.35897364043374" lon="11.411893714158788"><ele>251.7142857142857</ele><time>2026-04-11T05:04:22Z</time></trkpt><trkpt lat="43.35897504312596" lon="11.411782431717644"><ele>253.28571428571428</ele><time>2026-04-11T05:04:26Z</time></trkpt><trkpt lat="43.358970611068244" lon="11.41168512361677"><ele>254.85714285714283</ele><time>2026-04-11T05:04:29Z</time></trkpt><trkpt lat="43.35897270144126" lon="11.411594832850861"><ele>256.4285714285714</ele><time>2026-04-11T05:04:32Z</time></trkpt><trkpt lat="43.35898380526672" lon="11.411508138492659"><ele>258.0</ele><time>2026-04-11T05:04:35Z</time></trkpt><trkpt lat="43.35899293700364" lon="11.411403534950727"><ele>259.0</ele><time>2026-04-11T05:04:38Z</time></trkpt><trkpt lat="43.359008871497366" lon="11.411292253541333"><ele>260.0</ele><time>2026-04-11T05:04:41Z</time></trkpt><trkpt lat="43.35903559621788" lon="11.411198947678312"><ele>261.0</ele><time>2026-04-11T05:04:45Z</time></trkpt><trkpt lat="43.35906864011779" lon="11.411111625677847"><ele>262.0</ele><time>2026-04-11T05:04:48Z</time></trkpt><trkpt lat="43.359102225267236" lon="11.411025016262693"><ele>263.0</ele><time>2026-04-11T05:04:51Z</time></trkpt><trkpt lat="43.3591654258944" lon="11.410966631996642"><ele>264.0</ele><time>2026-04-11T05:04:54Z</time></trkpt><trkpt lat="43.359233310273375" lon="11.410918409711098"><ele>264.0</ele><time>2026-04-11T05:04:58Z</time></trkpt><trkpt lat="43.35930656694546" lon="11.410929810571577"><ele>264.0</ele><time>2026-04-11T05:05:01Z</time></trkpt><trkpt lat="43.35938266045696" lon="11.410973627852268"><ele>264.0</ele><time>2026-04-11T05:05:04Z</time></trkpt><trkpt lat="43.35944182989546" lon="11.411036821134559"><ele>264.0</ele><time>2026-04-11T05:05:07Z</time></trkpt><trkpt lat="43.35948899065731" lon="11.41112583383814"><ele>264.0</ele><time>2026-04-11T05:05:09.999Z</time></trkpt><trkpt lat="43.359519140208896" lon="11.411211262164349"><ele>264.0</ele><time>2026-04-11T05:05:12.999Z</time></trkpt><trkpt lat="43.359552891579526" lon="11.411301322744121"><ele>263.0</ele><time>2026-04-11T05:05:15.999Z</time></trkpt><trkpt lat="43.35957866896727" lon="11.411381694391103"><ele>262.0</ele><time>2026-04-11T05:05:17.999Z</time></trkpt><trkpt lat="43.359600021008234" lon="11.411491853062017"><ele>261.0</ele><time>2026-04-11T05:05:19.999Z</time></trkpt><trkpt lat="43.35961587704232" lon="11.4115962911908"><ele>260.0</ele><time>2026-04-11T05:05:22.999Z</time></trkpt><trkpt lat="43.35964160586098" lon="11.41171771221115"><ele>259.0</ele><time>2026-04-11T05:05:25.999Z</time></trkpt><trkpt lat="43.35967396780768" lon="11.411810039754432"><ele>258.0</ele><time>2026-04-11T05:05:28.999Z</time></trkpt><trkpt lat="43.359728366162045" lon="11.411903498612048"><ele>259.71428571428567</ele><time>2026-04-11T05:05:31.999Z</time></trkpt><trkpt lat="43.359787738898724" lon="11.411960765197785"><ele>261.42857142857144</ele><time>2026-04-11T05:05:34.999Z</time></trkpt><trkpt lat="43.359860482120105" lon="11.411986173188687"><ele>263.1428571428571</ele><time>2026-04-11T05:05:37.999Z</time></trkpt><trkpt lat="43.359925244111146" lon="11.411949034244193"><ele>264.85714285714283</ele><time>2026-04-11T05:05:40.999Z</time></trkpt><trkpt lat="43.359964121160964" lon="11.411876401519399"><ele>266.57142857142856</ele><time>2026-04-11T05:05:43.999Z</time></trkpt><trkpt lat="43.35995369059151" lon="11.411772210933194"><ele>268.2857142857143</ele><time>2026-04-11T05:05:47.999Z</time></trkpt><trkpt lat="43.35994048477578" lon="11.411660113977188"><ele>270.0</ele><time>2026-04-11T05:05:51.999Z</time></trkpt><trkpt lat="43.3599238384247" lon="11.41157547866047"><ele>270.0</ele><time>2026-04-11T05:05:54.999Z</time></trkpt><trkpt lat="43.35992491238633" lon="11.411475420275005"><ele>270.0</ele><time>2026-04-11T05:05:57.999Z</time></trkpt><trkpt lat="43.35994400079335" lon="11.411365293414649"><ele>270.0</ele><time>2026-04-11T05:06:00.999Z</time></trkpt><trkpt lat="43.359971234954486" lon="11.411258437857198"><ele>270.0</ele><time>2026-04-11T05:06:02.998Z</time></trkpt><trkpt lat="43.36000404649498" lon="11.411175334152855"><ele>270.0</ele><time>2026-04-11T05:06:05.998Z</time></trkpt><trkpt lat="43.36004654627424" lon="11.41109495057286"><ele>270.0</ele><time>2026-04-11T05:06:09.998Z</time></trkpt><trkpt lat="43.36009895379711" lon="11.411034647798358"><ele>270.0</ele><time>2026-04-11T05:06:12.998Z</time></trkpt><trkpt lat="43.360157149967144" lon="11.41098085813238"><ele>270.0</ele><time>2026-04-11T05:06:15.998Z</time></trkpt><trkpt lat="43.36021828324873" lon="11.410939881302166"><ele>270.0</ele><time>2026-04-11T05:06:18.998Z</time></trkpt><trkpt lat="43.36029114188498" lon="11.410915012665695"><ele>270.0</ele><time>2026-04-11T05:06:21.998Z</time></trkpt><trkpt lat="43.36036145447018" lon="11.410889280733501"><ele>270.0</ele><time>2026-04-11T05:06:25Z</time></trkpt><trkpt lat="43.360427896059946" lon="11.410856825874816"><ele>270.0</ele><time>2026-04-11T05:06:28Z</time></trkpt><trkpt lat="43.360496897607945" lon="11.4108182210138"><ele>270.0</ele><time>2026-04-11T05:06:31Z</time></trkpt><trkpt lat="43.36057133996643" lon="11.410777937264884"><ele>270.0</ele><time>2026-04-11T05:06:35Z</time></trkpt><trkpt lat="43.36064762286013" lon="11.41073256394959"><ele>271.1428571428571</ele><time>2026-04-11T05:06:39Z</time></trkpt><trkpt lat="43.360703054864864" lon="11.41068952999527"><ele>272.2857142857143</ele><time>2026-04-11T05:06:42Z</time></trkpt><trkpt lat="43.36075127230667" lon="11.41062788385074"><ele>273.42857142857144</ele><time>2026-04-11T05:06:45Z</time></trkpt><trkpt lat="43.3607945112899" lon="11.41055232489984"><ele>274.57142857142856</ele><time>2026-04-11T05:06:48Z</time></trkpt><trkpt lat="43.36082409467063" lon="11.410473121003328"><ele>275.7142857142857</ele><time>2026-04-11T05:06:51Z</time></trkpt><trkpt lat="43.36084699702781" lon="11.410373468043717"><ele>276.85714285714283</ele><time>2026-04-11T05:06:54Z</time></trkpt><trkpt lat="43.36085803538924" lon="11.410259679114983"><ele>278.0</ele><time>2026-04-11T05:06:57Z</time></trkpt><trkpt lat="43.360850890279025" lon="11.410147853043771"><ele>278.42857142857144</ele><time>2026-04-11T05:07:00Z</time></trkpt><trkpt lat="43.360828939150366" lon="11.410028500746854"><ele>278.8571428571429</ele><time>2026-04-11T05:07:03Z</time></trkpt><trkpt lat="43.360802284380576" lon="11.409938571481373"><ele>279.28571428571433</ele><time>2026-04-11T05:07:06Z</time></trkpt><trkpt lat="43.360774877142795" lon="11.409859652848873"><ele>279.7142857142857</ele><time>2026-04-11T05:07:08Z</time></trkpt><trkpt lat="43.36074783923652" lon="11.409772736379155"><ele>280.14285714285717</ele><time>2026-04-11T05:07:11Z</time></trkpt><trkpt lat="43.36071953556455" lon="11.409687883953117"><ele>280.5714285714286</ele><time>2026-04-11T05:07:13Z</time></trkpt><trkpt lat="43.360689151958766" lon="11.409598962422947"><ele>281.0</ele><time>2026-04-11T05:07:15.999Z</time></trkpt><trkpt lat="43.36064705868519" lon="11.409504795582288"><ele>280.83333333333337</ele><time>2026-04-11T05:07:18.999Z</time></trkpt><trkpt lat="43.360613318733094" lon="11.409425942177302"><ele>280.6666666666667</ele><time>2026-04-11T05:07:20.999Z</time></trkpt><trkpt lat="43.360572570885985" lon="11.409335171079993"><ele>280.5</ele><time>2026-04-11T05:07:23.999Z</time></trkpt><trkpt lat="43.360529760810486" lon="11.409241139278606"><ele>280.3333333333333</ele><time>2026-04-11T05:07:26.999Z</time></trkpt><trkpt lat="43.36048228281394" lon="11.40914748810822"><ele>280.16666666666663</ele><time>2026-04-11T05:07:29.999Z</time></trkpt><trkpt lat="43.36043529291155" lon="11.409054209995869"><ele>280.0</ele><time>2026-04-11T05:07:32.999Z</time></trkpt><trkpt lat="43.36037874327757" lon="11.408969258595633"><ele>280.0</ele><time>2026-04-11T05:07:36.999Z</time></trkpt><trkpt lat="43.36031652140487" lon="11.408878104072027"><ele>280.0</ele><time>2026-04-11T05:07:39.999Z</time></trkpt><trkpt lat="43.36025674986665" lon="11.408820152257485"><ele>280.0</ele><time>2026-04-11T05:07:42.999Z</time></trkpt><trkpt lat="43.36019667304942" lon="11.40875727441877"><ele>280.0</ele><time>2026-04-11T05:07:45.999Z</time></trkpt><trkpt lat="43.36012072311696" lon="11.408695141594734"><ele>280.0</ele><time>2026-04-11T05:07:48.999Z</time></trkpt><trkpt lat="43.36006114725807" lon="11.408642984870818"><ele>280.0</ele><time>2026-04-11T05:07:51.999Z</time></trkpt><trkpt lat="43.35998988442326" lon="11.40858262635298"><ele>281.2857142857143</ele><time>2026-04-11T05:07:54.999Z</time></trkpt><trkpt lat="43.35992776426911" lon="11.408529458616526"><ele>282.57142857142856</ele><time>2026-04-11T05:07:57.999Z</time></trkpt><trkpt lat="43.359871037984405" lon="11.408486113640066"><ele>283.8571428571429</ele><time>2026-04-11T05:07:59.999Z</time></trkpt><trkpt lat="43.35981162429205" lon="11.40844005662217"><ele>285.1428571428571</ele><time>2026-04-11T05:08:02.999Z</time></trkpt><trkpt lat="43.35974618137621" lon="11.408391692994554"><ele>286.42857142857144</ele><time>2026-04-11T05:08:05.999Z</time></trkpt><trkpt lat="43.3596792979243" lon="11.408342281561007"><ele>287.7142857142857</ele><time>2026-04-11T05:08:08.998Z</time></trkpt><trkpt lat="43.35961617352771" lon="11.408282926722705"><ele>289.0</ele><time>2026-04-11T05:08:11.998Z</time></trkpt><trkpt lat="43.35956135084058" lon="11.408213927673957"><ele>289.0</ele><time>2026-04-11T05:08:14.998Z</time></trkpt><trkpt lat="43.35951922340277" lon="11.408134703682784"><ele>289.0</ele><time>2026-04-11T05:08:17.998Z</time></trkpt><trkpt lat="43.359500335103604" lon="11.408041863834896"><ele>289.0</ele><time>2026-04-11T05:08:20.998Z</time></trkpt><trkpt lat="43.35948961480741" lon="11.40794069237193"><ele>289.0</ele><time>2026-04-11T05:08:23.998Z</time></trkpt><trkpt lat="43.35949914673143" lon="11.407843999460592"><ele>289.0</ele><time>2026-04-11T05:08:27.998Z</time></trkpt><trkpt lat="43.35952069158453" lon="11.407759246040934"><ele>289.0</ele><time>2026-04-11T05:08:31Z</time></trkpt><trkpt lat="43.35954938177803" lon="11.40767602944766"><ele>289.0</ele><time>2026-04-11T05:08:34Z</time></trkpt><trkpt lat="43.35958778970776" lon="11.407599564951212"><ele>289.8571428571429</ele><time>2026-04-11T05:08:37Z</time></trkpt><trkpt lat="43.35964254965244" lon="11.407525457688756"><ele>290.7142857142857</ele><time>2026-04-11T05:08:40Z</time></trkpt><trkpt lat="43.359699639396354" lon="11.407475016032068"><ele>291.57142857142856</ele><time>2026-04-11T05:08:43Z</time></trkpt><trkpt lat="43.35975716430657" lon="11.407426770492739"><ele>292.42857142857144</ele><time>2026-04-11T05:08:46Z</time></trkpt><trkpt lat="43.35982657102085" lon="11.407408789213108"><ele>293.2857142857143</ele><time>2026-04-11T05:08:49Z</time></trkpt><trkpt lat="43.359894498399875" lon="11.407404205761358"><ele>294.14285714285717</ele><time>2026-04-11T05:08:52Z</time></trkpt><trkpt lat="43.35996756968491" lon="11.407422858919068"><ele>295.0</ele><time>2026-04-11T05:08:55Z</time></trkpt><trkpt lat="43.36004576342123" lon="11.407451556205492"><ele>295.0</ele><time>2026-04-11T05:08:59Z</time></trkpt><trkpt lat="43.36012031251577" lon="11.407459503786937"><ele>295.0</ele><time>2026-04-11T05:09:02Z</time></trkpt><trkpt lat="43.36019725718719" lon="11.40747418781485"><ele>295.0</ele><time>2026-04-11T05:09:05Z</time></trkpt><trkpt lat="43.36027392170207" lon="11.407491651864216"><ele>295.0</ele><time>2026-04-11T05:09:08Z</time></trkpt><trkpt lat="43.36035069982762" lon="11.407507597335025"><ele>295.0</ele><time>2026-04-11T05:09:11Z</time></trkpt><trkpt lat="43.360414579863544" lon="11.407518347288388"><ele>295.0</ele><time>2026-04-11T05:09:14Z</time></trkpt><trkpt lat="43.36049165975561" lon="11.407528677390241"><ele>295.5</ele><time>2026-04-11T05:09:17Z</time></trkpt><trkpt lat="43.360583168112726" lon="11.407539749908576"><ele>296.0</ele><time>2026-04-11T05:09:20Z</time></trkpt><trkpt lat="43.36065853865385" lon="11.407551025921189"><ele>296.5</ele><time>2026-04-11T05:09:22.999Z</time></trkpt><trkpt lat="43.3607367729884" lon="11.407556690143489"><ele>297.0</ele><time>2026-04-11T05:09:25.999Z</time></trkpt><trkpt lat="43.360817597275464" lon="11.40756117772899"><ele>297.5</ele><time>2026-04-11T05:09:28.999Z</time></trkpt><trkpt lat="43.36089581185606" lon="11.407557618868923"><ele>298.0</ele><time>2026-04-11T05:09:32.999Z</time></trkpt><trkpt lat="43.360973287941796" lon="11.407557696570949"><ele>298.0</ele><time>2026-04-11T05:09:35.999Z</time></trkpt><trkpt lat="43.36105967660616" lon="11.40754667179624"><ele>298.0</ele><time>2026-04-11T05:09:38.999Z</time></trkpt><trkpt lat="43.36112687655361" lon="11.407538377680368"><ele>298.0</ele><time>2026-04-11T05:09:41.999Z</time></trkpt><trkpt lat="43.361195693633" lon="11.407533973958806"><ele>298.0</ele><time>2026-04-11T05:09:44.999Z</time></trkpt><trkpt lat="43.36127008516108" lon="11.407518771717989"><ele>298.0</ele><time>2026-04-11T05:09:47.999Z</time></trkpt><trkpt lat="43.36134809255771" lon="11.407503502863777"><ele>298.0</ele><time>2026-04-11T05:09:50.999Z</time></trkpt><trkpt lat="43.361424122455944" lon="11.407493407191565"><ele>299.1428571428571</ele><time>2026-04-11T05:09:52.999Z</time></trkpt><trkpt lat="43.36149283924303" lon="11.407467079237936"><ele>300.2857142857143</ele><time>2026-04-11T05:09:55.999Z</time></trkpt><trkpt lat="43.36157689045549" lon="11.407442950357419"><ele>301.42857142857144</ele><time>2026-04-11T05:09:59.999Z</time></trkpt><trkpt lat="43.36164295022346" lon="11.407433776602849"><ele>302.57142857142856</ele><time>2026-04-11T05:10:02.999Z</time></trkpt><trkpt lat="43.3617132861993" lon="11.407412503054621"><ele>303.7142857142857</ele><time>2026-04-11T05:10:05.999Z</time></trkpt><trkpt lat="43.36178180533242" lon="11.407393524937868"><ele>304.85714285714283</ele><time>2026-04-11T05:10:08.999Z</time></trkpt><trkpt lat="43.36185119434495" lon="11.407370509874585"><ele>306.0</ele><time>2026-04-11T05:10:11.999Z</time></trkpt><trkpt lat="43.36192083435748" lon="11.407350307979044"><ele>306.0</ele><time>2026-04-11T05:10:14.999Z</time></trkpt><trkpt lat="43.36200124080617" lon="11.407332395837704"><ele>306.0</ele><time>2026-04-11T05:10:17.998Z</time></trkpt><trkpt lat="43.36206356831911" lon="11.407315442913614"><ele>306.0</ele><time>2026-04-11T05:10:20.998Z</time></trkpt><trkpt lat="43.362139105231435" lon="11.407289783846979"><ele>306.0</ele><time>2026-04-11T05:10:23.998Z</time></trkpt><trkpt lat="43.362204200883795" lon="11.407274716016985"><ele>306.0</ele><time>2026-04-11T05:10:26.998Z</time></trkpt><trkpt lat="43.36228152165565" lon="11.40725255608293"><ele>306.0</ele><time>2026-04-11T05:10:30.998Z</time></trkpt><trkpt lat="43.362358522213555" lon="11.407217051629315"><ele>306.0</ele><time>2026-04-11T05:10:33.998Z</time></trkpt><trkpt lat="43.36242895394369" lon="11.407205222483276"><ele>306.7142857142857</ele><time>2026-04-11T05:10:37Z</time></trkpt><trkpt lat="43.36249765827806" lon="11.40717252427268"><ele>307.42857142857144</ele><time>2026-04-11T05:10:40Z</time></trkpt><trkpt lat="43.36256579321986" lon="11.407140106043114"><ele>308.1428571428571</ele><time>2026-04-11T05:10:44Z</time></trkpt><trkpt lat="43.36262740464469" lon="11.407112649839414"><ele>308.8571428571429</ele><time>2026-04-11T05:10:47Z</time></trkpt><trkpt lat="43.36270422964508" lon="11.407073169127392"><ele>309.5714285714286</ele><time>2026-04-11T05:10:51Z</time></trkpt><trkpt lat="43.36276690344395" lon="11.407038922648228"><ele>310.2857142857143</ele><time>2026-04-11T05:10:54Z</time></trkpt><trkpt lat="43.362844677278325" lon="11.40700088209434"><ele>311.0</ele><time>2026-04-11T05:10:57Z</time></trkpt><trkpt lat="43.36291641690509" lon="11.406960108688185"><ele>311.0</ele><time>2026-04-11T05:11:00Z</time></trkpt><trkpt lat="43.36298226213955" lon="11.406930607402069"><ele>311.0</ele><time>2026-04-11T05:11:03Z</time></trkpt><trkpt lat="43.36305195268544" lon="11.406890952261113"><ele>311.0</ele><time>2026-04-11T05:11:07Z</time></trkpt><trkpt lat="43.36311774345501" lon="11.406858065587341"><ele>311.0</ele><time>2026-04-11T05:11:10Z</time></trkpt><trkpt lat="43.36320713913839" lon="11.406803345042777"><ele>311.0</ele><time>2026-04-11T05:11:13Z</time></trkpt><trkpt lat="43.36326901456166" lon="11.406770228040703"><ele>311.0</ele><time>2026-04-11T05:11:16Z</time></trkpt><trkpt lat="43.36333522326844" lon="11.406728485940066"><ele>312.33333333333337</ele><time>2026-04-11T05:11:19Z</time></trkpt><trkpt lat="43.36340391759802" lon="11.406690570126809"><ele>313.6666666666667</ele><time>2026-04-11T05:11:22Z</time></trkpt><trkpt lat="43.363493030212" lon="11.40664299222421"><ele>315.0</ele><time>2026-04-11T05:11:26Z</time></trkpt><trkpt lat="43.36356554285412" lon="11.406595568504482"><ele>316.3333333333333</ele><time>2026-04-11T05:11:30Z</time></trkpt><trkpt lat="43.36363729339113" lon="11.406550447446465"><ele>317.66666666666663</ele><time>2026-04-11T05:11:32.999Z</time></trkpt><trkpt lat="43.36370409401791" lon="11.406507394422592"><ele>319.0</ele><time>2026-04-11T05:11:35.999Z</time></trkpt><trkpt lat="43.36376169720084" lon="11.406464841616591"><ele>319.0</ele><time>2026-04-11T05:11:38.999Z</time></trkpt><trkpt lat="43.36382141196525" lon="11.406424240191777"><ele>319.0</ele><time>2026-04-11T05:11:41.999Z</time></trkpt><trkpt lat="43.36388399021787" lon="11.406381331800446"><ele>319.0</ele><time>2026-04-11T05:11:44.999Z</time></trkpt><trkpt lat="43.36395037945519" lon="11.406338273150322"><ele>319.0</ele><time>2026-04-11T05:11:47.999Z</time></trkpt><trkpt lat="43.36402664800382" lon="11.40628667224531"><ele>319.0</ele><time>2026-04-11T05:11:50.999Z</time></trkpt><trkpt lat="43.36409409320838" lon="11.406242723519002"><ele>319.0</ele><time>2026-04-11T05:11:54.999Z</time></trkpt><trkpt lat="43.36415491584414" lon="11.406198369209639"><ele>319.0</ele><time>2026-04-11T05:11:57.999Z</time></trkpt><trkpt lat="43.364217774375916" lon="11.406154823826437"><ele>320.42857142857144</ele><time>2026-04-11T05:12:00.999Z</time></trkpt><trkpt lat="43.36427921507001" lon="11.406116613722814"><ele>321.85714285714283</ele><time>2026-04-11T05:12:03.999Z</time></trkpt><trkpt lat="43.364349924268254" lon="11.406071693956711"><ele>323.2857142857143</ele><time>2026-04-11T05:12:06.999Z</time></trkpt><trkpt lat="43.36441767379239" lon="11.406030752370281"><ele>324.7142857142857</ele><time>2026-04-11T05:12:10.999Z</time></trkpt><trkpt lat="43.36448136209743" lon="11.406002774674551"><ele>326.1428571428571</ele><time>2026-04-11T05:12:13.999Z</time></trkpt><trkpt lat="43.364545440234586" lon="11.405994613645019"><ele>327.57142857142856</ele><time>2026-04-11T05:12:16.999Z</time></trkpt><trkpt lat="43.36462864827967" lon="11.406018823939057"><ele>329.0</ele><time>2026-04-11T05:12:19.999Z</time></trkpt><trkpt lat="43.36468097273994" lon="11.406074145999662"><ele>330.42857142857144</ele><time>2026-04-11T05:12:22.999Z</time></trkpt><trkpt lat="43.364730417085724" lon="11.406137091124561"><ele>331.8571428571429</ele><time>2026-04-11T05:12:26.998Z</time></trkpt><trkpt lat="43.364783682617905" lon="11.406210664423577"><ele>333.2857142857143</ele><time>2026-04-11T05:12:29.998Z</time></trkpt><trkpt lat="43.3648374407459" lon="11.406285532028368"><ele>334.7142857142857</ele><time>2026-04-11T05:12:33.998Z</time></trkpt><trkpt lat="43.364900101935476" lon="11.406357847409145"><ele>336.14285714285717</ele><time>2026-04-11T05:12:36.998Z</time></trkpt><trkpt lat="43.364965875784584" lon="11.406416670650204"><ele>337.57142857142856</ele><time>2026-04-11T05:12:40.998Z</time></trkpt><trkpt lat="43.3650311958014" lon="11.406442942491065"><ele>339.0</ele><time>2026-04-11T05:12:44Z</time></trkpt><trkpt lat="43.3651105046975" lon="11.406457243415595"><ele>339.0</ele><time>2026-04-11T05:12:47Z</time></trkpt><trkpt lat="43.365177128763605" lon="11.40645343487183"><ele>339.0</ele><time>2026-04-11T05:12:50Z</time></trkpt><trkpt lat="43.36524210016804" lon="11.40643774743833"><ele>339.0</ele><time>2026-04-11T05:12:52Z</time></trkpt><trkpt lat="43.36531147512542" lon="11.406405986651711"><ele>339.0</ele><time>2026-04-11T05:12:55Z</time></trkpt><trkpt lat="43.36537239503571" lon="11.406379707414963"><ele>339.0</ele><time>2026-04-11T05:12:57Z</time></trkpt><trkpt lat="43.36544210929746" lon="11.406349474361802"><ele>339.0</ele><time>2026-04-11T05:13:00Z</time></trkpt><trkpt lat="43.365512104969845" lon="11.406318393427194"><ele>339.0</ele><time>2026-04-11T05:13:03Z</time></trkpt><trkpt lat="43.365577385402894" lon="11.406287515434384"><ele>339.7142857142857</ele><time>2026-04-11T05:13:05Z</time></trkpt><trkpt lat="43.36565338117421" lon="11.406256189352408"><ele>340.42857142857144</ele><time>2026-04-11T05:13:08Z</time></trkpt><trkpt lat="43.365723843536344" lon="11.406233431075595"><ele>341.14285714285717</ele><time>2026-04-11T05:13:10Z</time></trkpt><trkpt lat="43.36580444153796" lon="11.406187493873368"><ele>341.8571428571429</ele><time>2026-04-11T05:13:13Z</time></trkpt><trkpt lat="43.365860323355065" lon="11.406137100097078"><ele>342.57142857142856</ele><time>2026-04-11T05:13:16Z</time></trkpt><trkpt lat="43.365916350309504" lon="11.406074384317225"><ele>343.28571428571433</ele><time>2026-04-11T05:13:19Z</time></trkpt><trkpt lat="43.36596144251681" lon="11.406004181840068"><ele>344.0</ele><time>2026-04-11T05:13:21Z</time></trkpt><trkpt lat="43.365997122336765" lon="11.40592580290857"><ele>344.0</ele><time>2026-04-11T05:13:24Z</time></trkpt><trkpt lat="43.36604214447309" lon="11.405813592993026"><ele>344.0</ele><time>2026-04-11T05:13:27Z</time></trkpt><trkpt lat="43.366082014936524" lon="11.405718442433223"><ele>344.0</ele><time>2026-04-11T05:13:30Z</time></trkpt><trkpt lat="43.36612229238811" lon="11.405638420385898"><ele>344.0</ele><time>2026-04-11T05:13:32Z</time></trkpt><trkpt lat="43.36616035137862" lon="11.405540266113395"><ele>344.0</ele><time>2026-04-11T05:13:35Z</time></trkpt><trkpt lat="43.36619578271112" lon="11.405454717439241"><ele>344.0</ele><time>2026-04-11T05:13:37.999Z</time></trkpt><trkpt lat="43.36623817318188" lon="11.405360644225956"><ele>344.0</ele><time>2026-04-11T05:13:40.999Z</time></trkpt><trkpt lat="43.366279916815806" lon="11.405261554758448"><ele>344.0</ele><time>2026-04-11T05:13:43.999Z</time></trkpt><trkpt lat="43.366318347693586" lon="11.405162074866373"><ele>344.0</ele><time>2026-04-11T05:13:45.999Z</time></trkpt><trkpt lat="43.36635515421107" lon="11.40506409187845"><ele>344.0</ele><time>2026-04-11T05:13:48.999Z</time></trkpt><trkpt lat="43.36640153310898" lon="11.404963804561236"><ele>344.0</ele><time>2026-04-11T05:13:51.999Z</time></trkpt><trkpt lat="43.36645649512715" lon="11.404843368439646"><ele>344.0</ele><time>2026-04-11T05:13:55.999Z</time></trkpt><trkpt lat="43.366500825088494" lon="11.404760680477617"><ele>344.0</ele><time>2026-04-11T05:13:58.999Z</time></trkpt><trkpt lat="43.36655166356717" lon="11.404670836857308"><ele>344.0</ele><time>2026-04-11T05:14:01.999Z</time></trkpt><trkpt lat="43.36659977482092" lon="11.404600887824579"><ele>344.0</ele><time>2026-04-11T05:14:03.999Z</time></trkpt><trkpt lat="43.366656648561715" lon="11.404536640232322"><ele>344.0</ele><time>2026-04-11T05:14:06.999Z</time></trkpt><trkpt lat="43.3667278586997" lon="11.404468016501996"><ele>344.0</ele><time>2026-04-11T05:14:09.999Z</time></trkpt><trkpt lat="43.36679710341111" lon="11.40440698205686"><ele>344.0</ele><time>2026-04-11T05:14:11.999Z</time></trkpt><trkpt lat="43.36687989086926" lon="11.404355096842727"><ele>344.83333333333337</ele><time>2026-04-11T05:14:14.999Z</time></trkpt><trkpt lat="43.36694215157885" lon="11.404326036097844"><ele>345.6666666666667</ele><time>2026-04-11T05:14:17.999Z</time></trkpt><trkpt lat="43.367020915401746" lon="11.40428523664068"><ele>346.5</ele><time>2026-04-11T05:14:20.999Z</time></trkpt><trkpt lat="43.367108432320194" lon="11.404273085074342"><ele>347.3333333333333</ele><time>2026-04-11T05:14:23.999Z</time></trkpt><trkpt lat="43.3671959011244" lon="11.404263398127187"><ele>348.16666666666663</ele><time>2026-04-11T05:14:26.999Z</time></trkpt><trkpt lat="43.367288013058484" lon="11.404265556811318"><ele>349.0</ele><time>2026-04-11T05:14:29.998Z</time></trkpt><trkpt lat="43.36737346044026" lon="11.404277829826187"><ele>349.0</ele><time>2026-04-11T05:14:32.998Z</time></trkpt><trkpt lat="43.36746177706018" lon="11.404288239368402"><ele>349.0</ele><time>2026-04-11T05:14:35.998Z</time></trkpt><trkpt lat="43.3675642222155" lon="11.404291805153106"><ele>349.0</ele><time>2026-04-11T05:14:38.998Z</time></trkpt><trkpt lat="43.367638082232" lon="11.404307728447723"><ele>349.0</ele><time>2026-04-11T05:14:40.998Z</time></trkpt><trkpt lat="43.36771232929613" lon="11.404322781932247"><ele>349.0</ele><time>2026-04-11T05:14:43.998Z</time></trkpt><trkpt lat="43.36778309236755" lon="11.404336559770007"><ele>349.0</ele><time>2026-04-11T05:14:45.998Z</time></trkpt><trkpt lat="43.367862593014976" lon="11.40435362161139"><ele>348.99999999999994</ele><time>2026-04-11T05:14:49Z</time></trkpt><trkpt lat="43.367928327163206" lon="11.404363292667263"><ele>349.0</ele><time>2026-04-11T05:14:50Z</time></trkpt><trkpt lat="43.36799349575145" lon="11.404372015196977"><ele>349.0</ele><time>2026-04-11T05:14:52Z</time></trkpt><trkpt lat="43.368060019370674" lon="11.404386700166498"><ele>349.0</ele><time>2026-04-11T05:14:54Z</time></trkpt><trkpt lat="43.36812662470784" lon="11.404399084915015"><ele>349.0</ele><time>2026-04-11T05:14:56Z</time></trkpt><trkpt lat="43.36819185273884" lon="11.404409126005444"><ele>348.99999999999994</ele><time>2026-04-11T05:14:58Z</time></trkpt><trkpt lat="43.36825930308644" lon="11.404417410264825"><ele>349.0</ele><time>2026-04-11T05:15:00Z</time></trkpt><trkpt lat="43.36832912168031" lon="11.404430321530196"><ele>349.4285714285714</ele><time>2026-04-11T05:15:02Z</time></trkpt><trkpt lat="43.368402343113154" lon="11.404445573136227"><ele>349.85714285714283</ele><time>2026-04-11T05:15:05Z</time></trkpt><trkpt lat="43.368478993238796" lon="11.404456340676722"><ele>350.2857142857143</ele><time>2026-04-11T05:15:07Z</time></trkpt><trkpt lat="43.36856108952469" lon="11.404467027583895"><ele>350.71428571428567</ele><time>2026-04-11T05:15:09Z</time></trkpt><trkpt lat="43.36862392132666" lon="11.404483364436361"><ele>351.1428571428571</ele><time>2026-04-11T05:15:11Z</time></trkpt><trkpt lat="43.36870275559818" lon="11.404489330847989"><ele>351.57142857142856</ele><time>2026-04-11T05:15:13Z</time></trkpt><trkpt lat="43.36877206897002" lon="11.404487851803717"><ele>352.0</ele><time>2026-04-11T05:15:16Z</time></trkpt><trkpt lat="43.368849353631546" lon="11.404486545907803"><ele>352.5</ele><time>2026-04-11T05:15:18Z</time></trkpt><trkpt lat="43.36893388137414" lon="11.404481787856799"><ele>353.0</ele><time>2026-04-11T05:15:20Z</time></trkpt><trkpt lat="43.369008990984135" lon="11.404479595498685"><ele>353.5</ele><time>2026-04-11T05:15:23Z</time></trkpt><trkpt lat="43.36908521532997" lon="11.404469355593095"><ele>354.0</ele><time>2026-04-11T05:15:25Z</time></trkpt><trkpt lat="43.36917765449124" lon="11.404457414364574"><ele>354.5</ele><time>2026-04-11T05:15:28Z</time></trkpt><trkpt lat="43.369293637356456" lon="11.404445747873476"><ele>355.0</ele><time>2026-04-11T05:15:31Z</time></trkpt><trkpt lat="43.36937002361518" lon="11.40444193208909"><ele>355.0</ele><time>2026-04-11T05:15:33Z</time></trkpt><trkpt lat="43.36944111088044" lon="11.404445201973838"><ele>355.0</ele><time>2026-04-11T05:15:36Z</time></trkpt><trkpt lat="43.36952389247049" lon="11.404454102371615"><ele>355.0</ele><time>2026-04-11T05:15:39Z</time></trkpt><trkpt lat="43.36962778676862" lon="11.404457106181596"><ele>355.0</ele><time>2026-04-11T05:15:42Z</time></trkpt><trkpt lat="43.36971298602804" lon="11.404461066004592"><ele>355.0</ele><time>2026-04-11T05:15:45Z</time></trkpt><trkpt lat="43.369790430381116" lon="11.40446806285094"><ele>355.0</ele><time>2026-04-11T05:15:47.999Z</time></trkpt><trkpt lat="43.36986370626447" lon="11.404472913337766"><ele>356.0</ele><time>2026-04-11T05:15:50.999Z</time></trkpt><trkpt lat="43.36994047422411" lon="11.404478816415281"><ele>357.0</ele><time>2026-04-11T05:15:53.999Z</time></trkpt><trkpt lat="43.37001773102157" lon="11.404484595638486"><ele>358.0</ele><time>2026-04-11T05:15:56.999Z</time></trkpt><trkpt lat="43.370093109621095" lon="11.404478796419946"><ele>359.0</ele><time>2026-04-11T05:15:59.999Z</time></trkpt><trkpt lat="43.3701735468672" lon="11.404484150051484"><ele>360.0</ele><time>2026-04-11T05:16:02.999Z</time></trkpt><trkpt lat="43.370256283840774" lon="11.404491237591316"><ele>361.0</ele><time>2026-04-11T05:16:04.999Z</time></trkpt><trkpt lat="43.370330363428025" lon="11.404488820895837"><ele>361.0</ele><time>2026-04-11T05:16:07.999Z</time></trkpt><trkpt lat="43.370414195046315" lon="11.404489316562232"><ele>361.0</ele><time>2026-04-11T05:16:10.999Z</time></trkpt><trkpt lat="43.370501345326005" lon="11.404483376733408"><ele>361.0</ele><time>2026-04-11T05:16:14.999Z</time></trkpt><trkpt lat="43.3705966511484" lon="11.40447469739497"><ele>361.0</ele><time>2026-04-11T05:16:17.999Z</time></trkpt><trkpt lat="43.37066223881342" lon="11.404457377771202"><ele>361.0</ele><time>2026-04-11T05:16:20.999Z</time></trkpt><trkpt lat="43.37072888172575" lon="11.40443281110976"><ele>361.0</ele><time>2026-04-11T05:16:23.999Z</time></trkpt><trkpt lat="43.37079791323755" lon="11.404390440176378"><ele>361.8333333333333</ele><time>2026-04-11T05:16:26.999Z</time></trkpt><trkpt lat="43.37087507080762" lon="11.404327874586773"><ele>362.66666666666663</ele><time>2026-04-11T05:16:29.999Z</time></trkpt><trkpt lat="43.370928593356744" lon="11.404274042464547"><ele>363.5</ele><time>2026-04-11T05:16:31.999Z</time></trkpt><trkpt lat="43.37097450934386" lon="11.404212555221477"><ele>364.3333333333333</ele><time>2026-04-11T05:16:34.999Z</time></trkpt><trkpt lat="43.37102281082563" lon="11.404129719299057"><ele>365.1666666666667</ele><time>2026-04-11T05:16:37.999Z</time></trkpt><trkpt lat="43.37106632776862" lon="11.404030336281599"><ele>366.0</ele><time>2026-04-11T05:16:40.998Z</time></trkpt><trkpt lat="43.37110242875561" lon="11.403945986373218"><ele>366.0</ele><time>2026-04-11T05:16:43.998Z</time></trkpt><trkpt lat="43.371141163295796" lon="11.40386136857949"><ele>366.0</ele><time>2026-04-11T05:16:46.998Z</time></trkpt><trkpt lat="43.371174288560404" lon="11.403785636651607"><ele>366.0</ele><time>2026-04-11T05:16:48.998Z</time></trkpt><trkpt lat="43.37120724106503" lon="11.403708326329882"><ele>366.0</ele><time>2026-04-11T05:16:51.998Z</time></trkpt><trkpt lat="43.37124389654705" lon="11.403615810917222"><ele>366.0</ele><time>2026-04-11T05:16:54Z</time></trkpt><trkpt lat="43.37128414539884" lon="11.403521246063153"><ele>366.0</ele><time>2026-04-11T05:16:57Z</time></trkpt><trkpt lat="43.37133247609022" lon="11.40342076341851"><ele>366.0</ele><time>2026-04-11T05:17:01Z</time></trkpt><trkpt lat="43.37137204650348" lon="11.403327627550006"><ele>366.8571428571429</ele><time>2026-04-11T05:17:04Z</time></trkpt><trkpt lat="43.37142108387735" lon="11.40322597046367"><ele>367.7142857142857</ele><time>2026-04-11T05:17:07Z</time></trkpt><trkpt lat="43.371452579764714" lon="11.403142692726677"><ele>368.57142857142856</ele><time>2026-04-11T05:17:10Z</time></trkpt><trkpt lat="43.371486225252845" lon="11.403066073250502"><ele>369.42857142857144</ele><time>2026-04-11T05:17:12Z</time></trkpt><trkpt lat="43.37152430524148" lon="11.402992421274615"><ele>370.2857142857143</ele><time>2026-04-11T05:17:15Z</time></trkpt><trkpt lat="43.371553075309755" lon="11.402914260833963"><ele>371.14285714285717</ele><time>2026-04-11T05:17:18Z</time></trkpt><trkpt lat="43.371588865932246" lon="11.402824991365842"><ele>372.0</ele><time>2026-04-11T05:17:21Z</time></trkpt><trkpt lat="43.37163314095714" lon="11.402704742950542"><ele>373.00000000000006</ele><time>2026-04-11T05:17:24Z</time></trkpt><trkpt lat="43.371667277270866" lon="11.40261573142614"><ele>374.0</ele><time>2026-04-11T05:17:27Z</time></trkpt><trkpt lat="43.37170209636819" lon="11.402536031654135"><ele>375.0</ele><time>2026-04-11T05:17:30Z</time></trkpt><trkpt lat="43.371738934653344" lon="11.40245096509063"><ele>376.0</ele><time>2026-04-11T05:17:33Z</time></trkpt><trkpt lat="43.37177573538331" lon="11.402370187612448"><ele>377.0</ele><time>2026-04-11T05:17:36Z</time></trkpt><trkpt lat="43.371805534495856" lon="11.402279040065897"><ele>378.00000000000006</ele><time>2026-04-11T05:17:39Z</time></trkpt><trkpt lat="43.37182969369291" lon="11.402184941711894"><ele>379.0</ele><time>2026-04-11T05:17:42Z</time></trkpt><trkpt lat="43.371841885415286" lon="11.402074915441508"><ele>379.3333333333333</ele><time>2026-04-11T05:17:45Z</time></trkpt><trkpt lat="43.37185356495744" lon="11.40197062643304"><ele>379.66666666666663</ele><time>2026-04-11T05:17:48Z</time></trkpt><trkpt lat="43.371864590640214" lon="11.401854944414419"><ele>380.0</ele><time>2026-04-11T05:17:51Z</time></trkpt><trkpt lat="43.37188934679929" lon="11.401756781703325"><ele>380.3333333333333</ele><time>2026-04-11T05:17:54Z</time></trkpt><trkpt lat="43.37192361483485" lon="11.401668690437145"><ele>380.6666666666667</ele><time>2026-04-11T05:17:56.999Z</time></trkpt><trkpt lat="43.371964183907345" lon="11.401592515154196"><ele>381.0</ele><time>2026-04-11T05:17:58.999Z</time></trkpt><trkpt lat="43.37201578725637" lon="11.401520785605664"><ele>381.0</ele><time>2026-04-11T05:18:01.999Z</time></trkpt><trkpt lat="43.37207399228308" lon="11.40146068874802"><ele>381.0</ele><time>2026-04-11T05:18:03.999Z</time></trkpt><trkpt lat="43.37213729338685" lon="11.401387398830911"><ele>381.0</ele><time>2026-04-11T05:18:06.999Z</time></trkpt><trkpt lat="43.3722076525899" lon="11.401314408697527"><ele>381.0</ele><time>2026-04-11T05:18:09.999Z</time></trkpt><trkpt lat="43.37227879527031" lon="11.401235632313101"><ele>381.0</ele><time>2026-04-11T05:18:12.999Z</time></trkpt><trkpt lat="43.37235128887529" lon="11.4011573473238"><ele>381.0</ele><time>2026-04-11T05:18:15.999Z</time></trkpt><trkpt lat="43.372406621993214" lon="11.401100489266199"><ele>381.7142857142857</ele><time>2026-04-11T05:18:17.999Z</time></trkpt><trkpt lat="43.37245759922279" lon="11.401040810025979"><ele>382.42857142857144</ele><time>2026-04-11T05:18:19.999Z</time></trkpt><trkpt lat="43.37251999749549" lon="11.400980225395083"><ele>383.14285714285717</ele><time>2026-04-11T05:18:21.999Z</time></trkpt><trkpt lat="43.37257001035722" lon="11.400921749742892"><ele>383.8571428571429</ele><time>2026-04-11T05:18:23.999Z</time></trkpt><trkpt lat="43.37262076615161" lon="11.400866893677009"><ele>384.57142857142856</ele><time>2026-04-11T05:18:25.999Z</time></trkpt><trkpt lat="43.372676524454306" lon="11.400795575273518"><ele>385.28571428571433</ele><time>2026-04-11T05:18:27.999Z</time></trkpt><trkpt lat="43.37273612376962" lon="11.4007293537236"><ele>386.0</ele><time>2026-04-11T05:18:29.999Z</time></trkpt><trkpt lat="43.372793932087184" lon="11.4006611564828"><ele>385.99999999999994</ele><time>2026-04-11T05:18:31.999Z</time></trkpt><trkpt lat="43.3728498865931" lon="11.400597105942305"><ele>386.0</ele><time>2026-04-11T05:18:33.999Z</time></trkpt><trkpt lat="43.37291130155865" lon="11.400532355172336"><ele>386.0</ele><time>2026-04-11T05:18:35.999Z</time></trkpt><trkpt lat="43.3729744918197" lon="11.400466677427811"><ele>386.0</ele><time>2026-04-11T05:18:37.999Z</time></trkpt><trkpt lat="43.37303817295736" lon="11.400401960906235"><ele>385.99999999999994</ele><time>2026-04-11T05:18:39.999Z</time></trkpt><trkpt lat="43.37310408923085" lon="11.400339344655576"><ele>386.0</ele><time>2026-04-11T05:18:41.999Z</time></trkpt><trkpt lat="43.37317381122399" lon="11.400274855020982"><ele>385.49999999999994</ele><time>2026-04-11T05:18:43.999Z</time></trkpt><trkpt lat="43.37324534392286" lon="11.400224238673545"><ele>385.0</ele><time>2026-04-11T05:18:45.999Z</time></trkpt><trkpt lat="43.373316277810304" lon="11.400179923409402"><ele>384.5</ele><time>2026-04-11T05:18:47.998Z</time></trkpt><trkpt lat="43.37338963775899" lon="11.400139366204685"><ele>384.0</ele><time>2026-04-11T05:18:49.998Z</time></trkpt><trkpt lat="43.373460491759026" lon="11.400109021285795"><ele>383.5</ele><time>2026-04-11T05:18:51.998Z</time></trkpt><trkpt lat="43.37353431621929" lon="11.400082481797666"><ele>383.0</ele><time>2026-04-11T05:18:53.998Z</time></trkpt><trkpt lat="43.37360982689188" lon="11.400056032802588"><ele>383.0</ele><time>2026-04-11T05:18:55.998Z</time></trkpt><trkpt lat="43.373685119392746" lon="11.40002299860617"><ele>383.0</ele><time>2026-04-11T05:18:57.998Z</time></trkpt><trkpt lat="43.37375984563501" lon="11.399990978247745"><ele>383.0</ele><time>2026-04-11T05:19:00Z</time></trkpt><trkpt lat="43.37383503231106" lon="11.399960540139947"><ele>383.0</ele><time>2026-04-11T05:19:02Z</time></trkpt><trkpt lat="43.37390799430563" lon="11.39992601801544"><ele>383.0</ele><time>2026-04-11T05:19:04.001Z</time></trkpt><trkpt lat="43.373976983731126" lon="11.399891122715633"><ele>383.0</ele><time>2026-04-11T05:19:06Z</time></trkpt><trkpt lat="43.3740432314732" lon="11.39985034454671"><ele>383.0</ele><time>2026-04-11T05:19:08Z</time></trkpt><trkpt lat="43.374109897807095" lon="11.3998141791249"><ele>383.0</ele><time>2026-04-11T05:19:11Z</time></trkpt><trkpt lat="43.374177896060615" lon="11.399771069542085"><ele>383.0</ele><time>2026-04-11T05:19:12Z</time></trkpt><trkpt lat="43.37424566320131" lon="11.399714615834087"><ele>383.0</ele><time>2026-04-11T05:19:14Z</time></trkpt><trkpt lat="43.37431381808757" lon="11.399660798009824"><ele>383.0</ele><time>2026-04-11T05:19:16Z</time></trkpt><trkpt lat="43.37438438291392" lon="11.399595537916346"><ele>383.0</ele><time>2026-04-11T05:19:18Z</time></trkpt><trkpt lat="43.374454105253726" lon="11.399525436886869"><ele>382.83333333333337</ele><time>2026-04-11T05:19:20Z</time></trkpt><trkpt lat="43.37452037372487" lon="11.39945744233885"><ele>382.6666666666667</ele><time>2026-04-11T05:19:22Z</time></trkpt><trkpt lat="43.37458574098496" lon="11.39938883436826"><ele>382.5</ele><time>2026-04-11T05:19:24Z</time></trkpt><trkpt lat="43.37465682388598" lon="11.399313605438099"><ele>382.3333333333333</ele><time>2026-04-11T05:19:26Z</time></trkpt><trkpt lat="43.374725108585096" lon="11.39923858160852"><ele>382.16666666666663</ele><time>2026-04-11T05:19:28Z</time></trkpt><trkpt lat="43.374790223457424" lon="11.39915977674461"><ele>382.0</ele><time>2026-04-11T05:19:30Z</time></trkpt><trkpt lat="43.374857600179844" lon="11.399062568406208"><ele>382.0</ele><time>2026-04-11T05:19:32Z</time></trkpt><trkpt lat="43.37492676360607" lon="11.39899430081359"><ele>382.0</ele><time>2026-04-11T05:19:34Z</time></trkpt><trkpt lat="43.37499614144558" lon="11.39891463772834"><ele>382.0</ele><time>2026-04-11T05:19:36Z</time></trkpt><trkpt lat="43.3750658177618" lon="11.398842688070461"><ele>382.0</ele><time>2026-04-11T05:19:38Z</time></trkpt><trkpt lat="43.37513453286206" lon="11.39876959219347"><ele>382.0</ele><time>2026-04-11T05:19:40Z</time></trkpt><trkpt lat="43.37520156296089" lon="11.398702408099002"><ele>382.0</ele><time>2026-04-11T05:19:42Z</time></trkpt><trkpt lat="43.375274173993056" lon="11.398635571833577"><ele>382.16666666666663</ele><time>2026-04-11T05:19:44Z</time></trkpt><trkpt lat="43.37534704182596" lon="11.39857521962388"><ele>382.3333333333333</ele><time>2026-04-11T05:19:46Z</time></trkpt><trkpt lat="43.37542108808835" lon="11.398523457762431"><ele>382.5</ele><time>2026-04-11T05:19:48Z</time></trkpt><trkpt lat="43.375509729257274" lon="11.398465298168624"><ele>382.6666666666667</ele><time>2026-04-11T05:19:51Z</time></trkpt><trkpt lat="43.37560317541532" lon="11.398421926751897"><ele>382.83333333333337</ele><time>2026-04-11T05:19:53Z</time></trkpt><trkpt lat="43.37568250722385" lon="11.39838553653227"><ele>383.0</ele><time>2026-04-11T05:19:55Z</time></trkpt><trkpt lat="43.37575667709614" lon="11.398355176942864"><ele>383.0</ele><time>2026-04-11T05:19:57Z</time></trkpt><trkpt lat="43.375833347260134" lon="11.398312751127303"><ele>383.0</ele><time>2026-04-11T05:19:59Z</time></trkpt><trkpt lat="43.37590735616056" lon="11.39828530233355"><ele>383.0</ele><time>2026-04-11T05:20:01Z</time></trkpt><trkpt lat="43.375977368153066" lon="11.398259213700936"><ele>383.0</ele><time>2026-04-11T05:20:02.999Z</time></trkpt><trkpt lat="43.37604202661779" lon="11.398230020801776"><ele>383.0</ele><time>2026-04-11T05:20:04.999Z</time></trkpt><trkpt lat="43.37611175712735" lon="11.398199077604106"><ele>383.0</ele><time>2026-04-11T05:20:06.999Z</time></trkpt><trkpt lat="43.37619244756037" lon="11.398177793803104"><ele>383.0</ele><time>2026-04-11T05:20:08.999Z</time></trkpt><trkpt lat="43.37626427052312" lon="11.398158712578544"><ele>383.0</ele><time>2026-04-11T05:20:10.999Z</time></trkpt><trkpt lat="43.37634599242275" lon="11.398129982023"><ele>383.0</ele><time>2026-04-11T05:20:13.999Z</time></trkpt><trkpt lat="43.3764068296966" lon="11.398106969890174"><ele>383.0</ele><time>2026-04-11T05:20:15.999Z</time></trkpt><trkpt lat="43.37646961771247" lon="11.398086203731914"><ele>383.0</ele><time>2026-04-11T05:20:17.999Z</time></trkpt><trkpt lat="43.376536188579614" lon="11.398060311318165"><ele>383.0</ele><time>2026-04-11T05:20:19.999Z</time></trkpt><trkpt lat="43.376613967929906" lon="11.398011294522327"><ele>383.0</ele><time>2026-04-11T05:20:21.999Z</time></trkpt><trkpt lat="43.376675750797006" lon="11.397951879848273"><ele>383.6666666666667</ele><time>2026-04-11T05:20:23.999Z</time></trkpt><trkpt lat="43.376730714697906" lon="11.397895821159942"><ele>384.33333333333337</ele><time>2026-04-11T05:20:25.999Z</time></trkpt><trkpt lat="43.37681212423239" lon="11.397814293973045"><ele>385.0</ele><time>2026-04-11T05:20:26.999Z</time></trkpt><trkpt lat="43.37687112336012" lon="11.397749992488526"><ele>385.6666666666667</ele><time>2026-04-11T05:20:28.999Z</time></trkpt><trkpt lat="43.37692750958357" lon="11.397685306182204"><ele>386.3333333333333</ele><time>2026-04-11T05:20:30.999Z</time></trkpt><trkpt lat="43.3769902121975" lon="11.39762384878706"><ele>387.0</ele><time>2026-04-11T05:20:32.999Z</time></trkpt><trkpt lat="43.37705740465634" lon="11.397559434078824"><ele>387.0</ele><time>2026-04-11T05:20:34.999Z</time></trkpt><trkpt lat="43.377127859264235" lon="11.397493595330848"><ele>387.0</ele><time>2026-04-11T05:20:36.999Z</time></trkpt><trkpt lat="43.37719182231031" lon="11.39742897200634"><ele>387.0</ele><time>2026-04-11T05:20:38.999Z</time></trkpt><trkpt lat="43.377256637668545" lon="11.397374284571793"><ele>387.0</ele><time>2026-04-11T05:20:40.999Z</time></trkpt><trkpt lat="43.3773213574798" lon="11.397322470461475"><ele>387.0</ele><time>2026-04-11T05:20:42.999Z</time></trkpt><trkpt lat="43.37738703752198" lon="11.39727240867174"><ele>387.0</ele><time>2026-04-11T05:20:44.999Z</time></trkpt><trkpt lat="43.377463069008414" lon="11.397242130676167"><ele>386.8333333333333</ele><time>2026-04-11T05:20:46.999Z</time></trkpt><trkpt lat="43.377517105837605" lon="11.397194083370863"><ele>386.66666666666663</ele><time>2026-04-11T05:20:48.999Z</time></trkpt><trkpt lat="43.37757853553755" lon="11.397157981738339"><ele>386.5</ele><time>2026-04-11T05:20:50.999Z</time></trkpt><trkpt lat="43.37764683211834" lon="11.397142147131591"><ele>386.3333333333333</ele><time>2026-04-11T05:20:52.998Z</time></trkpt><trkpt lat="43.377742123846176" lon="11.39713211469136"><ele>386.16666666666663</ele><time>2026-04-11T05:20:55.998Z</time></trkpt><trkpt lat="43.377820201105436" lon="11.397127725937525"><ele>386.0</ele><time>2026-04-11T05:20:58.998Z</time></trkpt><trkpt lat="43.37790520489444" lon="11.397111298043331"><ele>386.49999999999994</ele><time>2026-04-11T05:21:01.998Z</time></trkpt><trkpt lat="43.3779899441282" lon="11.397070872638443"><ele>387.0</ele><time>2026-04-11T05:21:06Z</time></trkpt><trkpt lat="43.37808438135449" lon="11.3970590966838"><ele>387.5</ele><time>2026-04-11T05:21:09Z</time></trkpt><trkpt lat="43.37814658665107" lon="11.397038562574641"><ele>388.0</ele><time>2026-04-11T05:21:11Z</time></trkpt><trkpt lat="43.37821650410368" lon="11.397021882111494"><ele>388.49999999999994</ele><time>2026-04-11T05:21:13.001Z</time></trkpt><trkpt lat="43.37830225473606" lon="11.396983302265394"><ele>389.0</ele><time>2026-04-11T05:21:16.001Z</time></trkpt><trkpt lat="43.37836587978743" lon="11.396970693964638"><ele>389.8333333333333</ele><time>2026-04-11T05:21:18Z</time></trkpt><trkpt lat="43.37851496908725" lon="11.396912742634859"><ele>390.66666666666663</ele><time>2026-04-11T05:21:21Z</time></trkpt><trkpt lat="43.37857784596712" lon="11.396887909473026"><ele>391.5</ele><time>2026-04-11T05:21:23Z</time></trkpt><trkpt lat="43.378668514191276" lon="11.396854176987809"><ele>392.33333333333337</ele><time>2026-04-11T05:21:26Z</time></trkpt><trkpt lat="43.378731767838524" lon="11.396824043489408"><ele>393.1666666666667</ele><time>2026-04-11T05:21:28Z</time></trkpt><trkpt lat="43.37879316454204" lon="11.396803087898062"><ele>394.0</ele><time>2026-04-11T05:21:30Z</time></trkpt><trkpt lat="43.37885775020012" lon="11.396787554518568"><ele>395.00000000000006</ele><time>2026-04-11T05:21:32Z</time></trkpt><trkpt lat="43.37892272930197" lon="11.396768571122427"><ele>396.0</ele><time>2026-04-11T05:21:34Z</time></trkpt><trkpt lat="43.378983876013166" lon="11.39674620881717"><ele>397.0</ele><time>2026-04-11T05:21:36Z</time></trkpt><trkpt lat="43.379046954291404" lon="11.396727819577295"><ele>398.0</ele><time>2026-04-11T05:21:38Z</time></trkpt><trkpt lat="43.37911371468756" lon="11.39671719877762"><ele>399.00000000000006</ele><time>2026-04-11T05:21:40Z</time></trkpt><trkpt lat="43.37922446502254" lon="11.396669869586848"><ele>400.0</ele><time>2026-04-11T05:21:44Z</time></trkpt><trkpt lat="43.37931872580066" lon="11.396645030371449"><ele>400.00000000000006</ele><time>2026-04-11T05:21:47Z</time></trkpt><trkpt lat="43.37938161231178" lon="11.396619161724134"><ele>400.0</ele><time>2026-04-11T05:21:49Z</time></trkpt><trkpt lat="43.379447535656276" lon="11.39660569322727"><ele>400.0</ele><time>2026-04-11T05:21:51Z</time></trkpt><trkpt lat="43.379537911949384" lon="11.396583090216536"><ele>400.0</ele><time>2026-04-11T05:21:54Z</time></trkpt><trkpt lat="43.379599017424404" lon="11.396561094016388"><ele>400.0</ele><time>2026-04-11T05:21:56Z</time></trkpt><trkpt lat="43.37966376348058" lon="11.396540656826565"><ele>400.00000000000006</ele><time>2026-04-11T05:21:58Z</time></trkpt><trkpt lat="43.37972697578492" lon="11.39652852098389"><ele>400.0</ele><time>2026-04-11T05:22:00Z</time></trkpt><trkpt lat="43.37981705133135" lon="11.39650369073298"><ele>400.6666666666667</ele><time>2026-04-11T05:22:03Z</time></trkpt><trkpt lat="43.37988407357498" lon="11.396487891756681"><ele>401.33333333333337</ele><time>2026-04-11T05:22:06Z</time></trkpt><trkpt lat="43.3799720999502" lon="11.396465372496879"><ele>402.0</ele><time>2026-04-11T05:22:09Z</time></trkpt><trkpt lat="43.38006124218992" lon="11.396448077259576"><ele>402.66666666666663</ele><time>2026-04-11T05:22:11.999Z</time></trkpt><trkpt lat="43.38016649642675" lon="11.396423377062897"><ele>403.3333333333333</ele><time>2026-04-11T05:22:14.999Z</time></trkpt><trkpt lat="43.38024622875542" lon="11.396402030060301"><ele>404.0</ele><time>2026-04-11T05:22:17.999Z</time></trkpt><trkpt lat="43.38032869098239" lon="11.396377930894023"><ele>403.99999999999994</ele><time>2026-04-11T05:22:20.999Z</time></trkpt><trkpt lat="43.38040158010202" lon="11.396362124901502"><ele>404.0</ele><time>2026-04-11T05:22:22.999Z</time></trkpt><trkpt lat="43.38048305331007" lon="11.396337930404117"><ele>404.0</ele><time>2026-04-11T05:22:25.999Z</time></trkpt><trkpt lat="43.38056840945311" lon="11.396314316526734"><ele>404.0</ele><time>2026-04-11T05:22:28.999Z</time></trkpt><trkpt lat="43.380646424946306" lon="11.396299976578126"><ele>403.99999999999994</ele><time>2026-04-11T05:22:31.999Z</time></trkpt><trkpt lat="43.38072402890045" lon="11.39628630377086"><ele>404.0</ele><time>2026-04-11T05:22:34.999Z</time></trkpt><trkpt lat="43.3808050372525" lon="11.396268924143238"><ele>404.57142857142856</ele><time>2026-04-11T05:22:36.999Z</time></trkpt><trkpt lat="43.380888142661526" lon="11.396259106775098"><ele>405.1428571428571</ele><time>2026-04-11T05:22:38.999Z</time></trkpt><trkpt lat="43.38095748996442" lon="11.396253799562562"><ele>405.7142857142857</ele><time>2026-04-11T05:22:40.999Z</time></trkpt><trkpt lat="43.3810246494022" lon="11.396259944657956"><ele>406.2857142857143</ele><time>2026-04-11T05:22:42.999Z</time></trkpt><trkpt lat="43.381092023681255" lon="11.39625856030242"><ele>406.8571428571429</ele><time>2026-04-11T05:22:44.999Z</time></trkpt><trkpt lat="43.381155239590335" lon="11.396262111074563"><ele>407.42857142857144</ele><time>2026-04-11T05:22:46.999Z</time></trkpt><trkpt lat="43.38121979363132" lon="11.396268256492837"><ele>408.0</ele><time>2026-04-11T05:22:48.999Z</time></trkpt><trkpt lat="43.38129248809835" lon="11.396261923130238"><ele>408.4</ele><time>2026-04-11T05:22:51.999Z</time></trkpt><trkpt lat="43.38137625759267" lon="11.396257684416469"><ele>408.79999999999995</ele><time>2026-04-11T05:22:54.999Z</time></trkpt><trkpt lat="43.38146835334334" lon="11.396248423954686"><ele>409.2</ele><time>2026-04-11T05:22:56.999Z</time></trkpt><trkpt lat="43.38154406132884" lon="11.396237556384072"><ele>409.6</ele><time>2026-04-11T05:22:59.999Z</time></trkpt><trkpt lat="43.381635375210294" lon="11.396226272510757"><ele>410.0</ele><time>2026-04-11T05:23:02.998Z</time></trkpt><trkpt lat="43.38174737640722" lon="11.396208676550986"><ele>409.99999999999994</ele><time>2026-04-11T05:23:05.998Z</time></trkpt><trkpt lat="43.38183141717174" lon="11.39619345095512"><ele>410.0</ele><time>2026-04-11T05:23:08.998Z</time></trkpt><trkpt lat="43.381914468001916" lon="11.396183106053947"><ele>410.0</ele><time>2026-04-11T05:23:10.998Z</time></trkpt><trkpt lat="43.38198302880916" lon="11.396168468193789"><ele>410.0</ele><time>2026-04-11T05:23:13.001Z</time></trkpt><trkpt lat="43.382056905787955" lon="11.396153114060025"><ele>409.99999999999994</ele><time>2026-04-11T05:23:16.001Z</time></trkpt><trkpt lat="43.38215576357354" lon="11.39613338249756"><ele>410.0</ele><time>2026-04-11T05:23:18.001Z</time></trkpt><trkpt lat="43.38225356471319" lon="11.396113893236013"><ele>410.66666666666663</ele><time>2026-04-11T05:23:21.001Z</time></trkpt><trkpt lat="43.38232021118968" lon="11.396096269586419"><ele>411.3333333333333</ele><time>2026-04-11T05:23:23.001Z</time></trkpt><trkpt lat="43.38239570678799" lon="11.39607704647454"><ele>412.0</ele><time>2026-04-11T05:23:26.001Z</time></trkpt><trkpt lat="43.3824696424231" lon="11.396057268607226"><ele>412.66666666666663</ele><time>2026-04-11T05:23:28Z</time></trkpt><trkpt lat="43.38255077153304" lon="11.396032210159689"><ele>413.3333333333333</ele><time>2026-04-11T05:23:31Z</time></trkpt><trkpt lat="43.382642344264546" lon="11.396012625355688"><ele>414.0</ele><time>2026-04-11T05:23:34Z</time></trkpt><trkpt lat="43.38271817805129" lon="11.395989571157207"><ele>414.0</ele><time>2026-04-11T05:23:36Z</time></trkpt><trkpt lat="43.38284797758843" lon="11.39593682898833"><ele>414.0</ele><time>2026-04-11T05:23:39Z</time></trkpt><trkpt lat="43.382913645088045" lon="11.395909218167954"><ele>414.0</ele><time>2026-04-11T05:23:41Z</time></trkpt><trkpt lat="43.38298031176467" lon="11.395883392231964"><ele>414.0</ele><time>2026-04-11T05:23:43Z</time></trkpt><trkpt lat="43.38305012525549" lon="11.395860645891405"><ele>414.0</ele><time>2026-04-11T05:23:45Z</time></trkpt><trkpt lat="43.38311918985739" lon="11.395834567840277"><ele>414.0</ele><time>2026-04-11T05:23:47Z</time></trkpt><trkpt lat="43.38321866228257" lon="11.39579703016991"><ele>414.6666666666667</ele><time>2026-04-11T05:23:50Z</time></trkpt><trkpt lat="43.38330178975694" lon="11.395774624257552"><ele>415.33333333333337</ele><time>2026-04-11T05:23:52Z</time></trkpt><trkpt lat="43.38338075075458" lon="11.395753531210913"><ele>416.0</ele><time>2026-04-11T05:23:54Z</time></trkpt><trkpt lat="43.38345778533346" lon="11.395717189501234"><ele>416.6666666666667</ele><time>2026-04-11T05:23:55.999Z</time></trkpt><trkpt lat="43.38353661524256" lon="11.395682928789368"><ele>417.33333333333337</ele><time>2026-04-11T05:23:57.999Z</time></trkpt><trkpt lat="43.38361452605153" lon="11.39566109637988"><ele>418.0</ele><time>2026-04-11T05:23:59.999Z</time></trkpt><trkpt lat="43.383682346907136" lon="11.395630766016689"><ele>418.00000000000006</ele><time>2026-04-11T05:24:01.999Z</time></trkpt><trkpt lat="43.38375243930767" lon="11.395602101596214"><ele>418.0</ele><time>2026-04-11T05:24:03.999Z</time></trkpt><trkpt lat="43.383824123655074" lon="11.395569511943593"><ele>418.0</ele><time>2026-04-11T05:24:05.999Z</time></trkpt><trkpt lat="43.3839018858852" lon="11.39554502174594"><ele>418.0</ele><time>2026-04-11T05:24:07.999Z</time></trkpt><trkpt lat="43.38397811820381" lon="11.395518222918934"><ele>418.00000000000006</ele><time>2026-04-11T05:24:09.999Z</time></trkpt><trkpt lat="43.38405137306113" lon="11.39549128910393"><ele>418.0</ele><time>2026-04-11T05:24:11.999Z</time></trkpt><trkpt lat="43.38412392957304" lon="11.395459563599308"><ele>417.6666666666667</ele><time>2026-04-11T05:24:13.999Z</time></trkpt><trkpt lat="43.38419502637173" lon="11.395440042791712"><ele>417.33333333333337</ele><time>2026-04-11T05:24:15.999Z</time></trkpt><trkpt lat="43.3842645752345" lon="11.395412138297853"><ele>417.0</ele><time>2026-04-11T05:24:17.998Z</time></trkpt><trkpt lat="43.384353020496256" lon="11.395381777397745"><ele>416.66666666666663</ele><time>2026-04-11T05:24:20.998Z</time></trkpt><trkpt lat="43.384420121984355" lon="11.395351583516357"><ele>416.3333333333333</ele><time>2026-04-11T05:24:22.998Z</time></trkpt><trkpt lat="43.384506650014956" lon="11.395299186074523"><ele>416.0</ele><time>2026-04-11T05:24:25.998Z</time></trkpt><trkpt lat="43.38455388591087" lon="11.395232440789544"><ele>415.99999999999994</ele><time>2026-04-11T05:24:28.998Z</time></trkpt><trkpt lat="43.38463627703067" lon="11.395139863736743"><ele>416.0</ele><time>2026-04-11T05:24:31.998Z</time></trkpt><trkpt lat="43.38469332663395" lon="11.39507932825933"><ele>416.0</ele><time>2026-04-11T05:24:33.998Z</time></trkpt><trkpt lat="43.384750240944314" lon="11.395033880297227"><ele>416.0</ele><time>2026-04-11T05:24:35.998Z</time></trkpt><trkpt lat="43.384801794038864" lon="11.394961782217873"><ele>415.99999999999994</ele><time>2026-04-11T05:24:38.998Z</time></trkpt><trkpt lat="43.38484202981981" lon="11.39489504423756"><ele>416.0</ele><time>2026-04-11T05:24:40.998Z</time></trkpt><trkpt lat="43.384889630632706" lon="11.394816860235233"><ele>417.0</ele><time>2026-04-11T05:24:42.998Z</time></trkpt><trkpt lat="43.38494792297578" lon="11.394772806620656"><ele>418.0</ele><time>2026-04-11T05:24:44.998Z</time></trkpt><trkpt lat="43.38500096973801" lon="11.394704165311708"><ele>419.0</ele><time>2026-04-11T05:24:46.998Z</time></trkpt><trkpt lat="43.385048083888826" lon="11.394626494191522"><ele>420.0</ele><time>2026-04-11T05:24:48.998Z</time></trkpt><trkpt lat="43.38509859441537" lon="11.39453953423164"><ele>421.0</ele><time>2026-04-11T05:24:50.998Z</time></trkpt><trkpt lat="43.385145847775654" lon="11.39446263266409"><ele>422.0</ele><time>2026-04-11T05:24:52.998Z</time></trkpt><trkpt lat="43.38519723788364" lon="11.394382843742534"><ele>423.0</ele><time>2026-04-11T05:24:54.998Z</time></trkpt><trkpt lat="43.3852429427506" lon="11.394306635962375"><ele>423.3333333333333</ele><time>2026-04-11T05:24:56.998Z</time></trkpt><trkpt lat="43.38529373526216" lon="11.394232288416417"><ele>423.66666666666663</ele><time>2026-04-11T05:24:58.998Z</time></trkpt><trkpt lat="43.385347272593606" lon="11.394154525589192"><ele>424.0</ele><time>2026-04-11T05:25:01.998Z</time></trkpt><trkpt lat="43.38538871460187" lon="11.394078183543437"><ele>424.3333333333333</ele><time>2026-04-11T05:25:03.998Z</time></trkpt><trkpt lat="43.385445713831814" lon="11.393976530442224"><ele>424.66666666666663</ele><time>2026-04-11T05:25:06.998Z</time></trkpt><trkpt lat="43.385491218086756" lon="11.393912012109203"><ele>425.0</ele><time>2026-04-11T05:25:08.997Z</time></trkpt><trkpt lat="43.385560891695555" lon="11.393824175924372"><ele>425.42857142857144</ele><time>2026-04-11T05:25:11.997Z</time></trkpt><trkpt lat="43.385610276794274" lon="11.393758387195888"><ele>425.85714285714283</ele><time>2026-04-11T05:25:14.997Z</time></trkpt><trkpt lat="43.38565454261048" lon="11.393690438454769"><ele>426.28571428571433</ele><time>2026-04-11T05:25:18Z</time></trkpt><trkpt lat="43.38570328420961" lon="11.393612582393118"><ele>426.7142857142857</ele><time>2026-04-11T05:25:20Z</time></trkpt><trkpt lat="43.385744869939536" lon="11.3935378746381"><ele>427.14285714285717</ele><time>2026-04-11T05:25:22Z</time></trkpt><trkpt lat="43.38578769724559" lon="11.393470095208215"><ele>427.5714285714286</ele><time>2026-04-11T05:25:24Z</time></trkpt><trkpt lat="43.3858432476189" lon="11.393410359793293"><ele>428.0</ele><time>2026-04-11T05:25:26Z</time></trkpt><trkpt lat="43.38596358109989" lon="11.393227997965075"><ele>427.99999999999994</ele><time>2026-04-11T05:25:29Z</time></trkpt><trkpt lat="43.38600907291536" lon="11.393167860485855"><ele>428.0</ele><time>2026-04-11T05:25:31Z</time></trkpt><trkpt lat="43.38606929474138" lon="11.39307689819568"><ele>428.0</ele><time>2026-04-11T05:25:34Z</time></trkpt><trkpt lat="43.38613359712496" lon="11.392985443884132"><ele>428.0</ele><time>2026-04-11T05:25:36.999Z</time></trkpt><trkpt lat="43.386192431193464" lon="11.392897989113605"><ele>427.99999999999994</ele><time>2026-04-11T05:25:39.999Z</time></trkpt><trkpt lat="43.38625182057737" lon="11.392813358767695"><ele>428.0</ele><time>2026-04-11T05:25:42.999Z</time></trkpt><trkpt lat="43.38631667061904" lon="11.39273380775485"><ele>428.49999999999994</ele><time>2026-04-11T05:25:45.999Z</time></trkpt><trkpt lat="43.38637590845555" lon="11.39267186580374"><ele>429.0</ele><time>2026-04-11T05:25:48.999Z</time></trkpt><trkpt lat="43.38643161630777" lon="11.39262597419462"><ele>429.5</ele><time>2026-04-11T05:25:51.999Z</time></trkpt><trkpt lat="43.38648177745324" lon="11.392572380436231"><ele>430.0</ele><time>2026-04-11T05:25:54.999Z</time></trkpt><trkpt lat="43.386551552443834" lon="11.392507101617525"><ele>430.49999999999994</ele><time>2026-04-11T05:25:56.999Z</time></trkpt><trkpt lat="43.38661936408349" lon="11.392444189587668"><ele>431.0</ele><time>2026-04-11T05:25:59.999Z</time></trkpt><trkpt lat="43.38668493704927" lon="11.39237940077275"><ele>430.99999999999994</ele><time>2026-04-11T05:26:02.999Z</time></trkpt><trkpt lat="43.386753729525005" lon="11.39231360522003"><ele>431.0</ele><time>2026-04-11T05:26:05.999Z</time></trkpt><trkpt lat="43.38681923361338" lon="11.39224285304438"><ele>431.0</ele><time>2026-04-11T05:26:08.999Z</time></trkpt><trkpt lat="43.38688072054814" lon="11.3921716978294"><ele>431.0</ele><time>2026-04-11T05:26:11.999Z</time></trkpt><trkpt lat="43.38694924225724" lon="11.392090544708676"><ele>430.99999999999994</ele><time>2026-04-11T05:26:14.999Z</time></trkpt><trkpt lat="43.387014720209564" lon="11.392001941962459"><ele>431.0</ele><time>2026-04-11T05:26:17.999Z</time></trkpt><trkpt lat="43.387078044640084" lon="11.391912352400645"><ele>430.8333333333333</ele><time>2026-04-11T05:26:20.999Z</time></trkpt><trkpt lat="43.38714319407779" lon="11.39181884575496"><ele>430.66666666666663</ele><time>2026-04-11T05:26:23.998Z</time></trkpt><trkpt lat="43.38721532210248" lon="11.391711614324969"><ele>430.5</ele><time>2026-04-11T05:26:25.998Z</time></trkpt><trkpt lat="43.38727778049461" lon="11.391618621364607"><ele>430.33333333333337</ele><time>2026-04-11T05:26:28.998Z</time></trkpt><trkpt lat="43.38732552755822" lon="11.391547100161345"><ele>430.1666666666667</ele><time>2026-04-11T05:26:30.998Z</time></trkpt><trkpt lat="43.38737268387351" lon="11.391472974504035"><ele>430.0</ele><time>2026-04-11T05:26:32.998Z</time></trkpt><trkpt lat="43.387423812285995" lon="11.391400939757059"><ele>430.85714285714283</ele><time>2026-04-11T05:26:34.998Z</time></trkpt><trkpt lat="43.38746907563405" lon="11.391326596099573"><ele>431.7142857142857</ele><time>2026-04-11T05:26:36.998Z</time></trkpt><trkpt lat="43.38751738164774" lon="11.3912519902718"><ele>432.57142857142856</ele><time>2026-04-11T05:26:38.998Z</time></trkpt><trkpt lat="43.3875691508798" lon="11.391176484465863"><ele>433.42857142857144</ele><time>2026-04-11T05:26:40.998Z</time></trkpt><trkpt lat="43.38761578525893" lon="11.391101548608797"><ele>434.28571428571433</ele><time>2026-04-11T05:26:42.998Z</time></trkpt><trkpt lat="43.387665239611415" lon="11.391024217199238"><ele>435.14285714285717</ele><time>2026-04-11T05:26:44.998Z</time></trkpt><trkpt lat="43.38771908851889" lon="11.390941251491459"><ele>436.0</ele><time>2026-04-11T05:26:46.998Z</time></trkpt><trkpt lat="43.38776949412236" lon="11.390856282472424"><ele>436.00000000000006</ele><time>2026-04-11T05:26:48.998Z</time></trkpt><trkpt lat="43.38782499745547" lon="11.390774338024071"><ele>436.0</ele><time>2026-04-11T05:26:50.998Z</time></trkpt><trkpt lat="43.38788216423165" lon="11.390690843867125"><ele>436.0</ele><time>2026-04-11T05:26:52.998Z</time></trkpt><trkpt lat="43.387932894689115" lon="11.39062176120515"><ele>436.0</ele><time>2026-04-11T05:26:54.998Z</time></trkpt><trkpt lat="43.387982853701864" lon="11.390541350162444"><ele>436.00000000000006</ele><time>2026-04-11T05:26:56.998Z</time></trkpt><trkpt lat="43.38803430689434" lon="11.390463401127086"><ele>436.0</ele><time>2026-04-11T05:26:58.998Z</time></trkpt><trkpt lat="43.38807368794138" lon="11.390366226334336"><ele>434.4</ele><time>2026-04-11T05:27:00.998Z</time></trkpt><trkpt lat="43.38809971204499" lon="11.390248035978876"><ele>432.8</ele><time>2026-04-11T05:27:02.998Z</time></trkpt><trkpt lat="43.388116813926864" lon="11.390121912793033"><ele>431.19999999999993</ele><time>2026-04-11T05:27:04.998Z</time></trkpt><trkpt lat="43.38813030982037" lon="11.38998329476949"><ele>429.59999999999997</ele><time>2026-04-11T05:27:06.998Z</time></trkpt><trkpt lat="43.388151986084495" lon="11.389842390449159"><ele>428.0</ele><time>2026-04-11T05:27:08.998Z</time></trkpt><trkpt lat="43.38818840120152" lon="11.389691263991605"><ele>427.79999999999995</ele><time>2026-04-11T05:27:10.998Z</time></trkpt><trkpt lat="43.388211791177156" lon="11.38961028441005"><ele>427.59999999999997</ele><time>2026-04-11T05:27:11.998Z</time></trkpt><trkpt lat="43.38825330860438" lon="11.389543690099364"><ele>427.40000000000003</ele><time>2026-04-11T05:27:12.998Z</time></trkpt><trkpt lat="43.38830532887692" lon="11.389409348291279"><ele>427.20000000000005</ele><time>2026-04-11T05:27:14.997Z</time></trkpt><trkpt lat="43.38836076011037" lon="11.389276409177722"><ele>427.0</ele><time>2026-04-11T05:27:16.997Z</time></trkpt><trkpt lat="43.38842353952663" lon="11.38913107056212"><ele>427.0</ele><time>2026-04-11T05:27:18.997Z</time></trkpt><trkpt lat="43.38844296021063" lon="11.389044135332414"><ele>427.0</ele><time>2026-04-11T05:27:19.997Z</time></trkpt><trkpt lat="43.38847776433298" lon="11.388965714657779"><ele>427.0</ele><time>2026-04-11T05:27:20.997Z</time></trkpt><trkpt lat="43.38851460006763" lon="11.388884239553757"><ele>427.0</ele><time>2026-04-11T05:27:21.997Z</time></trkpt><trkpt lat="43.38855228710659" lon="11.388800726286801"><ele>427.0</ele><time>2026-04-11T05:27:22.997Z</time></trkpt><trkpt lat="43.38858955647646" lon="11.388714379250674"><ele>427.0</ele><time>2026-04-11T05:27:24Z</time></trkpt><trkpt lat="43.3886290113476" lon="11.388628564802476"><ele>427.0</ele><time>2026-04-11T05:27:25Z</time></trkpt><trkpt lat="43.388668718031674" lon="11.388542212465772"><ele>427.33333333333337</ele><time>2026-04-11T05:27:26Z</time></trkpt><trkpt lat="43.38870887574971" lon="11.388453463980122"><ele>427.6666666666667</ele><time>2026-04-11T05:27:27Z</time></trkpt><trkpt lat="43.388748072286425" lon="11.388364453948975"><ele>428.0</ele><time>2026-04-11T05:27:28Z</time></trkpt><trkpt lat="43.38878802702758" lon="11.388275178477647"><ele>428.33333333333337</ele><time>2026-04-11T05:27:29Z</time></trkpt><trkpt lat="43.388841375428235" lon="11.388195084663643"><ele>428.6666666666667</ele><time>2026-04-11T05:27:30Z</time></trkpt><trkpt lat="43.388881354589365" lon="11.388104110556597"><ele>429.0</ele><time>2026-04-11T05:27:31Z</time></trkpt><trkpt lat="43.38892086114013" lon="11.388012603430528"><ele>428.0</ele><time>2026-04-11T05:27:32Z</time></trkpt><trkpt lat="43.38895864257988" lon="11.387923469549232"><ele>427.0</ele><time>2026-04-11T05:27:33Z</time></trkpt><trkpt lat="43.38899654780988" lon="11.3878338006921"><ele>426.0</ele><time>2026-04-11T05:27:34Z</time></trkpt><trkpt lat="43.38903221423307" lon="11.387742281035324"><ele>425.0</ele><time>2026-04-11T05:27:35Z</time></trkpt><trkpt lat="43.38904896986988" lon="11.387638832722152"><ele>424.0</ele><time>2026-04-11T05:27:36Z</time></trkpt><trkpt lat="43.38907739134646" lon="11.387552742471081"><ele>423.0</ele><time>2026-04-11T05:27:37Z</time></trkpt><trkpt lat="43.38910938327265" lon="11.387465587464956"><ele>422.0</ele><time>2026-04-11T05:27:38Z</time></trkpt><trkpt lat="43.38914168936528" lon="11.387385110426047"><ele>421.99999999999994</ele><time>2026-04-11T05:27:39Z</time></trkpt><trkpt lat="43.38917929804396" lon="11.387305417681091"><ele>422.0</ele><time>2026-04-11T05:27:40Z</time></trkpt><trkpt lat="43.38923164494006" lon="11.387244369541854"><ele>422.0</ele><time>2026-04-11T05:27:41Z</time></trkpt><trkpt lat="43.38926878051558" lon="11.387173441156657"><ele>422.0</ele><time>2026-04-11T05:27:41.999Z</time></trkpt><trkpt lat="43.389338898011324" lon="11.387045331025764"><ele>421.99999999999994</ele><time>2026-04-11T05:27:43.999Z</time></trkpt><trkpt lat="43.38940132704287" lon="11.386926536653727"><ele>422.0</ele><time>2026-04-11T05:27:45.999Z</time></trkpt><trkpt lat="43.389459688992154" lon="11.386812422117798"><ele>422.0</ele><time>2026-04-11T05:27:47.999Z</time></trkpt><trkpt lat="43.389518066955276" lon="11.38669130793841"><ele>422.0</ele><time>2026-04-11T05:27:49.999Z</time></trkpt><trkpt lat="43.389575898313346" lon="11.38656838286737"><ele>422.0</ele><time>2026-04-11T05:27:51.999Z</time></trkpt><trkpt lat="43.389631547309286" lon="11.386446500060908"><ele>422.0</ele><time>2026-04-11T05:27:53.999Z</time></trkpt><trkpt lat="43.38968489936386" lon="11.386321837633306"><ele>422.0</ele><time>2026-04-11T05:27:55.999Z</time></trkpt><trkpt lat="43.38973195788255" lon="11.386193193912119"><ele>422.0</ele><time>2026-04-11T05:27:57.999Z</time></trkpt><trkpt lat="43.389760388085975" lon="11.386062082776814"><ele>422.0</ele><time>2026-04-11T05:27:59.999Z</time></trkpt><trkpt lat="43.3897961496001" lon="11.385940221732374"><ele>422.0</ele><time>2026-04-11T05:28:01.999Z</time></trkpt><trkpt lat="43.38983269925051" lon="11.385814010559583"><ele>422.0</ele><time>2026-04-11T05:28:03.999Z</time></trkpt><trkpt lat="43.38988030829028" lon="11.38569434973544"><ele>422.0</ele><time>2026-04-11T05:28:05.999Z</time></trkpt><trkpt lat="43.389923534737896" lon="11.385629541836998"><ele>422.0</ele><time>2026-04-11T05:28:07.999Z</time></trkpt><trkpt lat="43.38998182013643" lon="11.385571979686254"><ele>422.0</ele><time>2026-04-11T05:28:08.999Z</time></trkpt><trkpt lat="43.390068048366196" lon="11.385592068363204"><ele>422.0</ele><time>2026-04-11T05:28:09.999Z</time></trkpt><trkpt lat="43.39017330280221" lon="11.385523072580797"><ele>422.0</ele><time>2026-04-11T05:28:11.999Z</time></trkpt><trkpt lat="43.39027236415682" lon="11.385460097007362"><ele>422.0</ele><time>2026-04-11T05:28:13.999Z</time></trkpt><trkpt lat="43.39037459619806" lon="11.385395105786445"><ele>422.25</ele><time>2026-04-11T05:28:15.999Z</time></trkpt><trkpt lat="43.39048075627233" lon="11.38532400746672"><ele>422.5</ele><time>2026-04-11T05:28:17.999Z</time></trkpt><trkpt lat="43.39057836477402" lon="11.385249253586299"><ele>422.75</ele><time>2026-04-11T05:28:19.999Z</time></trkpt><trkpt lat="43.39067172719869" lon="11.3851706992803"><ele>423.0</ele><time>2026-04-11T05:28:21.999Z</time></trkpt><trkpt lat="43.39076639111306" lon="11.385089397155127"><ele>423.0</ele><time>2026-04-11T05:28:23.999Z</time></trkpt><trkpt lat="43.39086060059092" lon="11.38500843432388"><ele>423.0</ele><time>2026-04-11T05:28:25.999Z</time></trkpt><trkpt lat="43.39095746280584" lon="11.384920505587157"><ele>423.0</ele><time>2026-04-11T05:28:27.999Z</time></trkpt><trkpt lat="43.391050224766445" lon="11.384836371216215"><ele>423.0</ele><time>2026-04-11T05:28:29.999Z</time></trkpt><trkpt lat="43.39114305540641" lon="11.38475217456155"><ele>423.0</ele><time>2026-04-11T05:28:31.998Z</time></trkpt><trkpt lat="43.391236722028175" lon="11.384667220177644"><ele>423.0</ele><time>2026-04-11T05:28:33.998Z</time></trkpt><trkpt lat="43.39133123542399" lon="11.384582198181816"><ele>423.0</ele><time>2026-04-11T05:28:35.998Z</time></trkpt><trkpt lat="43.39141482429897" lon="11.384485360445415"><ele>423.0</ele><time>2026-04-11T05:28:37.998Z</time></trkpt><trkpt lat="43.39150488610885" lon="11.384404860629159"><ele>423.0</ele><time>2026-04-11T05:28:39.998Z</time></trkpt><trkpt lat="43.39159405008118" lon="11.384327390942254"><ele>423.0</ele><time>2026-04-11T05:28:41.998Z</time></trkpt><trkpt lat="43.391677906736284" lon="11.384249233836204"><ele>423.4</ele><time>2026-04-11T05:28:43.998Z</time></trkpt><trkpt lat="43.391756410029146" lon="11.38416102588731"><ele>423.79999999999995</ele><time>2026-04-11T05:28:45.998Z</time></trkpt><trkpt lat="43.39182421172383" lon="11.384052579092902"><ele>424.2</ele><time>2026-04-11T05:28:47.998Z</time></trkpt><trkpt lat="43.391878366828834" lon="11.383925012547058"><ele>424.6</ele><time>2026-04-11T05:28:49.998Z</time></trkpt><trkpt lat="43.39191975194851" lon="11.383782671920162"><ele>425.0</ele><time>2026-04-11T05:28:51.998Z</time></trkpt><trkpt lat="43.39194960037357" lon="11.383635569353636"><ele>425.25</ele><time>2026-04-11T05:28:53.998Z</time></trkpt><trkpt lat="43.39197336807901" lon="11.38348398102254"><ele>425.5</ele><time>2026-04-11T05:28:55.998Z</time></trkpt><trkpt lat="43.391986752145414" lon="11.383324697455249"><ele>425.75</ele><time>2026-04-11T05:28:57.998Z</time></trkpt><trkpt lat="43.39200423697903" lon="11.383168807550678"><ele>426.0</ele><time>2026-04-11T05:28:59.998Z</time></trkpt><trkpt lat="43.3920330817155" lon="11.38301851672242"><ele>425.8</ele><time>2026-04-11T05:29:01.998Z</time></trkpt><trkpt lat="43.39207604699213" lon="11.382878096145676"><ele>425.6</ele><time>2026-04-11T05:29:03.998Z</time></trkpt><trkpt lat="43.3921505975611" lon="11.382774709872079"><ele>425.4</ele><time>2026-04-11T05:29:05.998Z</time></trkpt><trkpt lat="43.39222698187917" lon="11.382663461839929"><ele>425.2</ele><time>2026-04-11T05:29:07.998Z</time></trkpt><trkpt lat="43.392309313623905" lon="11.38256148354248"><ele>425.0</ele><time>2026-04-11T05:29:09.998Z</time></trkpt><trkpt lat="43.392397182582634" lon="11.382468529153877"><ele>425.0</ele><time>2026-04-11T05:29:11.998Z</time></trkpt><trkpt lat="43.39249009189924" lon="11.382377392763377"><ele>425.0</ele><time>2026-04-11T05:29:13.998Z</time></trkpt><trkpt lat="43.392588677237796" lon="11.382285797555454"><ele>425.0</ele><time>2026-04-11T05:29:15.998Z</time></trkpt><trkpt lat="43.39268297797573" lon="11.382204283262704"><ele>425.0</ele><time>2026-04-11T05:29:17.998Z</time></trkpt><trkpt lat="43.39278363677555" lon="11.382121733066453"><ele>425.2</ele><time>2026-04-11T05:29:19.998Z</time></trkpt><trkpt lat="43.392886103334014" lon="11.382038673004152"><ele>425.4</ele><time>2026-04-11T05:29:21.997Z</time></trkpt><trkpt lat="43.39298996292426" lon="11.381954728048651"><ele>425.6</ele><time>2026-04-11T05:29:23.997Z</time></trkpt><trkpt lat="43.3930445360358" lon="11.381910619121731"><ele>425.8</ele><time>2026-04-11T05:29:24.997Z</time></trkpt><trkpt lat="43.39315420652007" lon="11.381822457335392"><ele>426.0</ele><time>2026-04-11T05:29:26.997Z</time></trkpt><trkpt lat="43.393211943413554" lon="11.381776223900182"><ele>425.2857142857143</ele><time>2026-04-11T05:29:27.997Z</time></trkpt><trkpt lat="43.393269123835175" lon="11.381730436106448"><ele>424.57142857142856</ele><time>2026-04-11T05:29:28.997Z</time></trkpt><trkpt lat="43.39332724705504" lon="11.381684734921258"><ele>423.8571428571429</ele><time>2026-04-11T05:29:30Z</time></trkpt><trkpt lat="43.393387570421005" lon="11.381638102471653"><ele>423.1428571428571</ele><time>2026-04-11T05:29:31Z</time></trkpt><trkpt lat="43.39344612375676" lon="11.381597136350491"><ele>422.42857142857144</ele><time>2026-04-11T05:29:32Z</time></trkpt><trkpt lat="43.39350435757465" lon="11.3815568029432"><ele>421.7142857142857</ele><time>2026-04-11T05:29:33Z</time></trkpt><trkpt lat="43.393563775012986" lon="11.381515937322007"><ele>421.0</ele><time>2026-04-11T05:29:34Z</time></trkpt><trkpt lat="43.39362066162972" lon="11.381476812752686"><ele>421.00000000000006</ele><time>2026-04-11T05:29:35Z</time></trkpt><trkpt lat="43.39367722676262" lon="11.381437909288472"><ele>421.0</ele><time>2026-04-11T05:29:36Z</time></trkpt><trkpt lat="43.39373228630237" lon="11.381394690533835"><ele>421.0</ele><time>2026-04-11T05:29:37Z</time></trkpt><trkpt lat="43.39378964463994" lon="11.381356791753412"><ele>421.0</ele><time>2026-04-11T05:29:38Z</time></trkpt><trkpt lat="43.393849892762844" lon="11.381325148876464"><ele>421.0</ele><time>2026-04-11T05:29:39Z</time></trkpt><trkpt lat="43.393910162441436" lon="11.38129425830276"><ele>421.00000000000006</ele><time>2026-04-11T05:29:40Z</time></trkpt><trkpt lat="43.39397252952306" lon="11.381263201008096"><ele>421.0</ele><time>2026-04-11T05:29:41Z</time></trkpt><trkpt lat="43.39403531180963" lon="11.381232831432456"><ele>420.14285714285717</ele><time>2026-04-11T05:29:42Z</time></trkpt><trkpt lat="43.39409981854889" lon="11.381203599901166"><ele>419.2857142857143</ele><time>2026-04-11T05:29:43Z</time></trkpt><trkpt lat="43.39416762854665" lon="11.381172871457133"><ele>418.42857142857144</ele><time>2026-04-11T05:29:44Z</time></trkpt><trkpt lat="43.39423372683369" lon="11.38114701333508"><ele>417.57142857142856</ele><time>2026-04-11T05:29:45Z</time></trkpt><trkpt lat="43.39430058556437" lon="11.381123675204655"><ele>416.7142857142857</ele><time>2026-04-11T05:29:46Z</time></trkpt><trkpt lat="43.3943705377959" lon="11.381101521548644"><ele>415.8571428571429</ele><time>2026-04-11T05:29:47Z</time></trkpt><trkpt lat="43.394441043210186" lon="11.381081831843673"><ele>415.0</ele><time>2026-04-11T05:29:48Z</time></trkpt><trkpt lat="43.39451369677414" lon="11.381062557882036"><ele>415.0</ele><time>2026-04-11T05:29:49Z</time></trkpt><trkpt lat="43.3945871019829" lon="11.381045516483377"><ele>415.0</ele><time>2026-04-11T05:29:49.999Z</time></trkpt><trkpt lat="43.394657969447614" lon="11.381029719942855"><ele>415.0</ele><time>2026-04-11T05:29:50.999Z</time></trkpt><trkpt lat="43.39472838211942" lon="11.381015935145928"><ele>415.0</ele><time>2026-04-11T05:29:51.999Z</time></trkpt><trkpt lat="43.39479836953189" lon="11.381003664635378"><ele>415.0</ele><time>2026-04-11T05:29:52.999Z</time></trkpt><trkpt lat="43.39486811026343" lon="11.380993932715615"><ele>415.0</ele><time>2026-04-11T05:29:53.999Z</time></trkpt><trkpt lat="43.39493666960335" lon="11.380984265713435"><ele>415.0</ele><time>2026-04-11T05:29:54.999Z</time></trkpt><trkpt lat="43.39500217867058" lon="11.380977395979519"><ele>415.14285714285717</ele><time>2026-04-11T05:29:55.999Z</time></trkpt><trkpt lat="43.39506987313231" lon="11.380972488359108"><ele>415.28571428571433</ele><time>2026-04-11T05:29:56.999Z</time></trkpt><trkpt lat="43.39513612067289" lon="11.380973658168246"><ele>415.42857142857144</ele><time>2026-04-11T05:29:57.999Z</time></trkpt><trkpt lat="43.39520297709593" lon="11.380978679866178"><ele>415.57142857142856</ele><time>2026-04-11T05:29:58.999Z</time></trkpt><trkpt lat="43.395271869855236" lon="11.380990533407823"><ele>415.7142857142857</ele><time>2026-04-11T05:29:59.999Z</time></trkpt><trkpt lat="43.395342404778944" lon="11.381001453271992"><ele>415.85714285714283</ele><time>2026-04-11T05:30:00.999Z</time></trkpt><trkpt lat="43.39541452969108" lon="11.381014495547797"><ele>416.0</ele><time>2026-04-11T05:30:01.999Z</time></trkpt><trkpt lat="43.39548764645047" lon="11.381027717177071"><ele>415.4285714285714</ele><time>2026-04-11T05:30:02.999Z</time></trkpt><trkpt lat="43.395559443960586" lon="11.381040700175868"><ele>414.8571428571429</ele><time>2026-04-11T05:30:03.999Z</time></trkpt><trkpt lat="43.39563262355373" lon="11.38104999880427"><ele>414.2857142857143</ele><time>2026-04-11T05:30:04.999Z</time></trkpt><trkpt lat="43.3957064333019" lon="11.381058190100571"><ele>413.71428571428567</ele><time>2026-04-11T05:30:05.999Z</time></trkpt><trkpt lat="43.39577994388823" lon="11.381062965209539"><ele>413.1428571428571</ele><time>2026-04-11T05:30:06.999Z</time></trkpt><trkpt lat="43.39585197439373" lon="11.381066744020771"><ele>412.57142857142856</ele><time>2026-04-11T05:30:07.999Z</time></trkpt><trkpt lat="43.395923493198765" lon="11.381067432515286"><ele>412.0</ele><time>2026-04-11T05:30:08.999Z</time></trkpt><trkpt lat="43.395995293089484" lon="11.38105917172783"><ele>411.99999999999994</ele><time>2026-04-11T05:30:09.999Z</time></trkpt><trkpt lat="43.39606301885742" lon="11.381037089151691"><ele>412.0</ele><time>2026-04-11T05:30:10.999Z</time></trkpt><trkpt lat="43.39612758910899" lon="11.381009947399402"><ele>412.0</ele><time>2026-04-11T05:30:11.999Z</time></trkpt><trkpt lat="43.39619044550069" lon="11.380977880874294"><ele>412.0</ele><time>2026-04-11T05:30:12.999Z</time></trkpt><trkpt lat="43.396244219394866" lon="11.380915968601386"><ele>412.0</ele><time>2026-04-11T05:30:13.999Z</time></trkpt><trkpt lat="43.396301190402056" lon="11.380874140036719"><ele>411.99999999999994</ele><time>2026-04-11T05:30:14.999Z</time></trkpt><trkpt lat="43.39635379483935" lon="11.380822272752054"><ele>412.0</ele><time>2026-04-11T05:30:15.999Z</time></trkpt><trkpt lat="43.3964007776269" lon="11.38076143385231"><ele>411.57142857142856</ele><time>2026-04-11T05:30:16.999Z</time></trkpt><trkpt lat="43.39644542859224" lon="11.38069366896685"><ele>411.1428571428571</ele><time>2026-04-11T05:30:17.999Z</time></trkpt><trkpt lat="43.39649001860883" lon="11.38062511258188"><ele>410.71428571428567</ele><time>2026-04-11T05:30:18.999Z</time></trkpt><trkpt lat="43.396525796741294" lon="11.38054964617516"><ele>410.2857142857143</ele><time>2026-04-11T05:30:19.999Z</time></trkpt><trkpt lat="43.396553584810114" lon="11.380471633530247"><ele>409.8571428571429</ele><time>2026-04-11T05:30:20.999Z</time></trkpt><trkpt lat="43.39658180790599" lon="11.38039169310761"><ele>409.4285714285714</ele><time>2026-04-11T05:30:21.999Z</time></trkpt><trkpt lat="43.39660308713061" lon="11.380307226519916"><ele>409.0</ele><time>2026-04-11T05:30:22.999Z</time></trkpt><trkpt lat="43.396621669271845" lon="11.38022395330179"><ele>409.0</ele><time>2026-04-11T05:30:23.999Z</time></trkpt><trkpt lat="43.3966493900051" lon="11.380061190105629"><ele>409.0</ele><time>2026-04-11T05:30:25.999Z</time></trkpt><trkpt lat="43.39667903669409" lon="11.379903567490894"><ele>409.0</ele><time>2026-04-11T05:30:27.999Z</time></trkpt><trkpt lat="43.396708488297584" lon="11.379745258524077"><ele>409.0</ele><time>2026-04-11T05:30:29.999Z</time></trkpt><trkpt lat="43.396738379527974" lon="11.379594978063356"><ele>410.0</ele><time>2026-04-11T05:30:31.999Z</time></trkpt><trkpt lat="43.39676451080241" lon="11.379450503747682"><ele>411.0</ele><time>2026-04-11T05:30:33.999Z</time></trkpt><trkpt lat="43.39678780447889" lon="11.379313720079802"><ele>412.0</ele><time>2026-04-11T05:30:35.999Z</time></trkpt><trkpt lat="43.39681303361184" lon="11.379184066363514"><ele>413.0</ele><time>2026-04-11T05:30:37.999Z</time></trkpt><trkpt lat="43.39683710832095" lon="11.379055628612045"><ele>414.0</ele><time>2026-04-11T05:30:39.998Z</time></trkpt><trkpt lat="43.39685641429881" lon="11.378931628879467"><ele>414.6666666666667</ele><time>2026-04-11T05:30:41.998Z</time></trkpt><trkpt lat="43.396882869375915" lon="11.378818461556326"><ele>415.33333333333337</ele><time>2026-04-11T05:30:43.998Z</time></trkpt><trkpt lat="43.396909786209186" lon="11.378726664659688"><ele>416.0</ele><time>2026-04-11T05:30:45.998Z</time></trkpt><trkpt lat="43.3969559173718" lon="11.378603541233998"><ele>416.6666666666667</ele><time>2026-04-11T05:30:47.998Z</time></trkpt><trkpt lat="43.39700904274615" lon="11.378502253685399"><ele>417.33333333333337</ele><time>2026-04-11T05:30:49.998Z</time></trkpt><trkpt lat="43.39705711767655" lon="11.378416947227395"><ele>418.0</ele><time>2026-04-11T05:30:51.998Z</time></trkpt><trkpt lat="43.39710338722259" lon="11.378325591600309"><ele>418.00000000000006</ele><time>2026-04-11T05:30:53.998Z</time></trkpt><trkpt lat="43.397150904988244" lon="11.378236848240773"><ele>418.0</ele><time>2026-04-11T05:30:55.998Z</time></trkpt><trkpt lat="43.39719862843063" lon="11.378145625721775"><ele>418.0</ele><time>2026-04-11T05:30:57.998Z</time></trkpt><trkpt lat="43.3972491521663" lon="11.378041982256255"><ele>418.0</ele><time>2026-04-11T05:30:59.998Z</time></trkpt><trkpt lat="43.39729606151093" lon="11.377944841951376"><ele>418.00000000000006</ele><time>2026-04-11T05:31:01.998Z</time></trkpt><trkpt lat="43.397343539796296" lon="11.377846651019654"><ele>418.0</ele><time>2026-04-11T05:31:03.998Z</time></trkpt><trkpt lat="43.39739242519313" lon="11.377750261028886"><ele>418.2</ele><time>2026-04-11T05:31:05.998Z</time></trkpt><trkpt lat="43.3974584329964" lon="11.377645823354198"><ele>418.4</ele><time>2026-04-11T05:31:07.998Z</time></trkpt><trkpt lat="43.397516383868556" lon="11.377551115550613"><ele>418.59999999999997</ele><time>2026-04-11T05:31:09.998Z</time></trkpt><trkpt lat="43.39757949314557" lon="11.377457351936913"><ele>418.79999999999995</ele><time>2026-04-11T05:31:11.998Z</time></trkpt><trkpt lat="43.39763944632312" lon="11.377366267833137"><ele>419.0</ele><time>2026-04-11T05:31:13.998Z</time></trkpt><trkpt lat="43.39770181493506" lon="11.377268766494641"><ele>418.6</ele><time>2026-04-11T05:31:15.998Z</time></trkpt><trkpt lat="43.39776702506904" lon="11.377168283902314"><ele>418.2</ele><time>2026-04-11T05:31:17.998Z</time></trkpt><trkpt lat="43.397815693679405" lon="11.377105298970962"><ele>417.8</ele><time>2026-04-11T05:31:20.998Z</time></trkpt><trkpt lat="43.397888628623406" lon="11.376972686832094"><ele>417.40000000000003</ele><time>2026-04-11T05:31:21.998Z</time></trkpt><trkpt lat="43.39795904642565" lon="11.376881506210923"><ele>417.0</ele><time>2026-04-11T05:31:23.998Z</time></trkpt><trkpt lat="43.3980311799566" lon="11.376789755189105"><ele>417.8</ele><time>2026-04-11T05:31:25.998Z</time></trkpt><trkpt lat="43.398098972291514" lon="11.376706989166923"><ele>418.6</ele><time>2026-04-11T05:31:27.998Z</time></trkpt><trkpt lat="43.39816945591031" lon="11.376622497851146"><ele>419.40000000000003</ele><time>2026-04-11T05:31:29.997Z</time></trkpt><trkpt lat="43.39824146788263" lon="11.376539102254627"><ele>420.20000000000005</ele><time>2026-04-11T05:31:31.997Z</time></trkpt><trkpt lat="43.39831410453324" lon="11.376457269912459"><ele>421.0</ele><time>2026-04-11T05:31:33.997Z</time></trkpt><trkpt lat="43.39839146918115" lon="11.376374420084439"><ele>421.4</ele><time>2026-04-11T05:31:36Z</time></trkpt><trkpt lat="43.39847356338068" lon="11.376297858071457"><ele>421.8</ele><time>2026-04-11T05:31:38Z</time></trkpt><trkpt lat="43.3985570620493" lon="11.376228601768206"><ele>422.2</ele><time>2026-04-11T05:31:40Z</time></trkpt><trkpt lat="43.39865035805109" lon="11.376171904413289"><ele>422.59999999999997</ele><time>2026-04-11T05:31:42Z</time></trkpt><trkpt lat="43.3987310006469" lon="11.376114112016507"><ele>423.0</ele><time>2026-04-11T05:31:44Z</time></trkpt><trkpt lat="43.39880517391161" lon="11.37606635860368"><ele>423.8333333333333</ele><time>2026-04-11T05:31:46Z</time></trkpt><trkpt lat="43.39888262296986" lon="11.376030793780968"><ele>424.66666666666663</ele><time>2026-04-11T05:31:48Z</time></trkpt><trkpt lat="43.398992689419195" lon="11.376005130981472"><ele>425.5</ele><time>2026-04-11T05:31:51Z</time></trkpt><trkpt lat="43.39906431096194" lon="11.375983883589056"><ele>426.3333333333333</ele><time>2026-04-11T05:31:53Z</time></trkpt><trkpt lat="43.39914284872363" lon="11.375976174494786"><ele>427.16666666666663</ele><time>2026-04-11T05:31:55Z</time></trkpt><trkpt lat="43.39921818950578" lon="11.375947270954338"><ele>428.0</ele><time>2026-04-11T05:31:57Z</time></trkpt><trkpt lat="43.39928959997843" lon="11.375928123787043"><ele>428.00000000000006</ele><time>2026-04-11T05:31:59.999Z</time></trkpt><trkpt lat="43.39937438171428" lon="11.375884940707515"><ele>428.0</ele><time>2026-04-11T05:32:02.999Z</time></trkpt><trkpt lat="43.39944143899768" lon="11.375847350029316"><ele>428.0</ele><time>2026-04-11T05:32:04.999Z</time></trkpt><trkpt lat="43.39949990857763" lon="11.375799879822658"><ele>428.0</ele><time>2026-04-11T05:32:06.999Z</time></trkpt><trkpt lat="43.39954562183561" lon="11.375739600619792"><ele>428.0</ele><time>2026-04-11T05:32:08.999Z</time></trkpt><trkpt lat="43.399596066168584" lon="11.37567490787635"><ele>428.00000000000006</ele><time>2026-04-11T05:32:10.999Z</time></trkpt><trkpt lat="43.39964202303612" lon="11.375601037250396"><ele>428.0</ele><time>2026-04-11T05:32:12.999Z</time></trkpt><trkpt lat="43.399706545050236" lon="11.37550625022354"><ele>429.3333333333333</ele><time>2026-04-11T05:32:14.999Z</time></trkpt><trkpt lat="43.399767825859236" lon="11.375410367750296"><ele>430.66666666666663</ele><time>2026-04-11T05:32:16.999Z</time></trkpt><trkpt lat="43.39981588957897" lon="11.375323133059384"><ele>432.0</ele><time>2026-04-11T05:32:18.999Z</time></trkpt><trkpt lat="43.39986936825912" lon="11.375244448441729"><ele>433.33333333333337</ele><time>2026-04-11T05:32:20.999Z</time></trkpt><trkpt lat="43.399913844326534" lon="11.375173970765108"><ele>434.6666666666667</ele><time>2026-04-11T05:32:22.999Z</time></trkpt><trkpt lat="43.39995393794125" lon="11.37508360786713"><ele>436.0</ele><time>2026-04-11T05:32:24.999Z</time></trkpt><trkpt lat="43.4000068530019" lon="11.374985076518685"><ele>436.00000000000006</ele><time>2026-04-11T05:32:27.999Z</time></trkpt><trkpt lat="43.40005680644342" lon="11.374907612818381"><ele>436.0</ele><time>2026-04-11T05:32:30.999Z</time></trkpt><trkpt lat="43.400112921395106" lon="11.374808851147842"><ele>436.0</ele><time>2026-04-11T05:32:32.999Z</time></trkpt><trkpt lat="43.400172287424816" lon="11.374714422590879"><ele>436.0</ele><time>2026-04-11T05:32:35.999Z</time></trkpt><trkpt lat="43.40021465215517" lon="11.374645747792608"><ele>436.00000000000006</ele><time>2026-04-11T05:32:37.999Z</time></trkpt><trkpt lat="43.40026013426715" lon="11.37457683603268"><ele>436.0</ele><time>2026-04-11T05:32:39.999Z</time></trkpt><trkpt lat="43.40030800973897" lon="11.374510210059361"><ele>436.00000000000006</ele><time>2026-04-11T05:32:41.999Z</time></trkpt><trkpt lat="43.40035620785651" lon="11.37442665298325"><ele>436.0</ele><time>2026-04-11T05:32:44.999Z</time></trkpt><trkpt lat="43.40041652410931" lon="11.374318083862208"><ele>436.0</ele><time>2026-04-11T05:32:47.998Z</time></trkpt><trkpt lat="43.40045899547627" lon="11.374229949971257"><ele>436.0</ele><time>2026-04-11T05:32:50.998Z</time></trkpt><trkpt lat="43.40050202884406" lon="11.374133664844011"><ele>436.00000000000006</ele><time>2026-04-11T05:32:53.998Z</time></trkpt><trkpt lat="43.400533369743364" lon="11.37404724241018"><ele>436.0</ele><time>2026-04-11T05:32:55.998Z</time></trkpt><trkpt lat="43.40055827295495" lon="11.373965145196207"><ele>436.00000000000006</ele><time>2026-04-11T05:32:57.998Z</time></trkpt><trkpt lat="43.40057504220694" lon="11.37387813738985"><ele>436.0</ele><time>2026-04-11T05:32:59.998Z</time></trkpt><trkpt lat="43.400591726245" lon="11.37379148775227"><ele>436.0</ele><time>2026-04-11T05:33:01.998Z</time></trkpt><trkpt lat="43.40061112480635" lon="11.37367197404107"><ele>436.0</ele><time>2026-04-11T05:33:04.998Z</time></trkpt><trkpt lat="43.400633801456515" lon="11.37358034944032"><ele>436.00000000000006</ele><time>2026-04-11T05:33:06.998Z</time></trkpt><trkpt lat="43.40065620455367" lon="11.373479000427702"><ele>436.0</ele><time>2026-04-11T05:33:08.998Z</time></trkpt><trkpt lat="43.400690668032205" lon="11.373372645482725"><ele>436.0</ele><time>2026-04-11T05:33:10.998Z</time></trkpt><trkpt lat="43.400748610436146" lon="11.373225261630589"><ele>436.0</ele><time>2026-04-11T05:33:12.998Z</time></trkpt><trkpt lat="43.40081621286612" lon="11.373124524623943"><ele>436.0</ele><time>2026-04-11T05:33:14.998Z</time></trkpt><trkpt lat="43.400900092418176" lon="11.373030474528894"><ele>436.0</ele><time>2026-04-11T05:33:16.998Z</time></trkpt><trkpt lat="43.40098753525381" lon="11.372927591840435"><ele>436.0</ele><time>2026-04-11T05:33:18.998Z</time></trkpt><trkpt lat="43.40107114076715" lon="11.372815840520637"><ele>436.0</ele><time>2026-04-11T05:33:20.998Z</time></trkpt><trkpt lat="43.401157710297966" lon="11.372713426584161"><ele>436.0</ele><time>2026-04-11T05:33:22.998Z</time></trkpt><trkpt lat="43.401230650011115" lon="11.37258760539168"><ele>436.0</ele><time>2026-04-11T05:33:24.998Z</time></trkpt><trkpt lat="43.40127681330924" lon="11.372431483820058"><ele>436.0</ele><time>2026-04-11T05:33:26.998Z</time></trkpt><trkpt lat="43.40129221178686" lon="11.372346004044322"><ele>436.0</ele><time>2026-04-11T05:33:27.998Z</time></trkpt><trkpt lat="43.40129717522444" lon="11.372257038600141"><ele>435.7142857142857</ele><time>2026-04-11T05:33:28.998Z</time></trkpt><trkpt lat="43.40129729779635" lon="11.372164210483943"><ele>435.42857142857144</ele><time>2026-04-11T05:33:29.998Z</time></trkpt><trkpt lat="43.40129551600864" lon="11.372071950342097"><ele>435.1428571428571</ele><time>2026-04-11T05:33:30.998Z</time></trkpt><trkpt lat="43.40129125220427" lon="11.371978223019584"><ele>434.8571428571429</ele><time>2026-04-11T05:33:31.998Z</time></trkpt><trkpt lat="43.40128269398307" lon="11.371885039215341"><ele>434.57142857142856</ele><time>2026-04-11T05:33:32.998Z</time></trkpt><trkpt lat="43.40128065840717" lon="11.371797614437655"><ele>434.2857142857143</ele><time>2026-04-11T05:33:33.998Z</time></trkpt><trkpt lat="43.401277941814115" lon="11.371710416164918"><ele>434.0</ele><time>2026-04-11T05:33:34.998Z</time></trkpt><trkpt lat="43.40127449975994" lon="11.371618774310827"><ele>434.0</ele><time>2026-04-11T05:33:35.998Z</time></trkpt><trkpt lat="43.40126652355806" lon="11.37152352207266"><ele>434.0</ele><time>2026-04-11T05:33:36.998Z</time></trkpt><trkpt lat="43.40126278434073" lon="11.371430583456945"><ele>434.0</ele><time>2026-04-11T05:33:37.997Z</time></trkpt><trkpt lat="43.401263032139866" lon="11.371333594430695"><ele>434.0</ele><time>2026-04-11T05:33:38.997Z</time></trkpt><trkpt lat="43.40126213607108" lon="11.371235558873549"><ele>434.0</ele><time>2026-04-11T05:33:39.997Z</time></trkpt><trkpt lat="43.40126531723214" lon="11.371137677620096"><ele>434.0</ele><time>2026-04-11T05:33:40.997Z</time></trkpt><trkpt lat="43.401275017436376" lon="11.371031764107205"><ele>434.0</ele><time>2026-04-11T05:33:42Z</time></trkpt><trkpt lat="43.401279531188784" lon="11.370926856684646"><ele>433.3333333333333</ele><time>2026-04-11T05:33:43Z</time></trkpt><trkpt lat="43.401288063108304" lon="11.370822983581888"><ele>432.66666666666663</ele><time>2026-04-11T05:33:44Z</time></trkpt><trkpt lat="43.401303421837795" lon="11.37072016745868"><ele>432.0</ele><time>2026-04-11T05:33:45Z</time></trkpt><trkpt lat="43.40133128871709" lon="11.37061054768885"><ele>431.33333333333337</ele><time>2026-04-11T05:33:46Z</time></trkpt><trkpt lat="43.40136089026328" lon="11.37051171140457"><ele>430.6666666666667</ele><time>2026-04-11T05:33:47Z</time></trkpt><trkpt lat="43.40139426094768" lon="11.370413901339772"><ele>430.0</ele><time>2026-04-11T05:33:48Z</time></trkpt><trkpt lat="43.401425726369055" lon="11.370320860255104"><ele>430.0</ele><time>2026-04-11T05:33:49Z</time></trkpt><trkpt lat="43.4014576341277" lon="11.370221986719306"><ele>430.0</ele><time>2026-04-11T05:33:50Z</time></trkpt><trkpt lat="43.40148746004738" lon="11.370125473096692"><ele>430.0</ele><time>2026-04-11T05:33:51Z</time></trkpt><trkpt lat="43.4015173577951" lon="11.370033227748342"><ele>430.0</ele><time>2026-04-11T05:33:52Z</time></trkpt><trkpt lat="43.40154712768746" lon="11.369939596182512"><ele>430.0</ele><time>2026-04-11T05:33:53Z</time></trkpt><trkpt lat="43.40157181135192" lon="11.36984602996507"><ele>430.0</ele><time>2026-04-11T05:33:54Z</time></trkpt><trkpt lat="43.40159578161697" lon="11.369751022561397"><ele>430.0</ele><time>2026-04-11T05:33:55Z</time></trkpt><trkpt lat="43.401615001330505" lon="11.36965655409501"><ele>430.0</ele><time>2026-04-11T05:33:56Z</time></trkpt><trkpt lat="43.401633847137944" lon="11.369562098016885"><ele>430.0</ele><time>2026-04-11T05:33:57Z</time></trkpt><trkpt lat="43.4016520299831" lon="11.36947247816276"><ele>430.0</ele><time>2026-04-11T05:33:58Z</time></trkpt><trkpt lat="43.401670483562235" lon="11.369381497041765"><ele>430.0</ele><time>2026-04-11T05:33:59Z</time></trkpt><trkpt lat="43.40168404316109" lon="11.36928973909286"><ele>430.0</ele><time>2026-04-11T05:34:00Z</time></trkpt><trkpt lat="43.40169778753068" lon="11.369196565436404"><ele>430.0</ele><time>2026-04-11T05:34:01Z</time></trkpt><trkpt lat="43.401710832471494" lon="11.369105985874853"><ele>430.0</ele><time>2026-04-11T05:34:02Z</time></trkpt><trkpt lat="43.40172062871476" lon="11.369013597271529"><ele>430.00000000000006</ele><time>2026-04-11T05:34:03Z</time></trkpt><trkpt lat="43.40172669486321" lon="11.368923191580379"><ele>430.0</ele><time>2026-04-11T05:34:04Z</time></trkpt><trkpt lat="43.40173009264662" lon="11.368832597468161"><ele>430.0</ele><time>2026-04-11T05:34:04.999Z</time></trkpt><trkpt lat="43.40172833225705" lon="11.368742562337781"><ele>430.0</ele><time>2026-04-11T05:34:05.999Z</time></trkpt><trkpt lat="43.40171255920443" lon="11.368576254948016"><ele>430.00000000000006</ele><time>2026-04-11T05:34:07.999Z</time></trkpt><trkpt lat="43.401691039466954" lon="11.368411942954086"><ele>430.0</ele><time>2026-04-11T05:34:09.999Z</time></trkpt><trkpt lat="43.40168015308657" lon="11.368248923736058"><ele>430.4</ele><time>2026-04-11T05:34:11.999Z</time></trkpt><trkpt lat="43.401670198406194" lon="11.368095759940074"><ele>430.8</ele><time>2026-04-11T05:34:13.999Z</time></trkpt><trkpt lat="43.40165642991999" lon="11.367947063645595"><ele>431.20000000000005</ele><time>2026-04-11T05:34:15.999Z</time></trkpt><trkpt lat="43.40164578914274" lon="11.367811507781685"><ele>431.6</ele><time>2026-04-11T05:34:17.999Z</time></trkpt><trkpt lat="43.40163386697195" lon="11.367682281784141"><ele>432.0</ele><time>2026-04-11T05:34:19.999Z</time></trkpt><trkpt lat="43.40161617482407" lon="11.36753139818996"><ele>432.40000000000003</ele><time>2026-04-11T05:34:22.999Z</time></trkpt><trkpt lat="43.40160674268831" lon="11.367400157828405"><ele>432.80000000000007</ele><time>2026-04-11T05:34:24.999Z</time></trkpt><trkpt lat="43.401591593828606" lon="11.367165537715051"><ele>433.2</ele><time>2026-04-11T05:34:27.999Z</time></trkpt><trkpt lat="43.40157150339039" lon="11.367056093162283"><ele>433.6</ele><time>2026-04-11T05:34:29.999Z</time></trkpt><trkpt lat="43.40153762488518" lon="11.366951184078914"><ele>434.0</ele><time>2026-04-11T05:34:31.999Z</time></trkpt><trkpt lat="43.40150437615052" lon="11.366852047081666"><ele>434.14285714285717</ele><time>2026-04-11T05:34:33.999Z</time></trkpt><trkpt lat="43.401465542554135" lon="11.36676103830747"><ele>434.2857142857143</ele><time>2026-04-11T05:34:35.999Z</time></trkpt><trkpt lat="43.40142561453567" lon="11.366675173808726"><ele>434.42857142857144</ele><time>2026-04-11T05:34:37.999Z</time></trkpt><trkpt lat="43.401384262594135" lon="11.36658963158964"><ele>434.57142857142856</ele><time>2026-04-11T05:34:39.999Z</time></trkpt><trkpt lat="43.40134671093436" lon="11.366504671769775"><ele>434.7142857142857</ele><time>2026-04-11T05:34:41.999Z</time></trkpt><trkpt lat="43.40131203517484" lon="11.366408810204343"><ele>434.8571428571429</ele><time>2026-04-11T05:34:43.999Z</time></trkpt><trkpt lat="43.40128206984033" lon="11.366327567635595"><ele>435.0</ele><time>2026-04-11T05:34:45.999Z</time></trkpt><trkpt lat="43.40125565726028" lon="11.366225784584893"><ele>436.2</ele><time>2026-04-11T05:34:48.999Z</time></trkpt><trkpt lat="43.40123392874706" lon="11.36611397709717"><ele>437.4</ele><time>2026-04-11T05:34:51.999Z</time></trkpt><trkpt lat="43.40121312952773" lon="11.366014341973957"><ele>438.6</ele><time>2026-04-11T05:34:54.998Z</time></trkpt><trkpt lat="43.4011926219445" lon="11.365886782879082"><ele>439.8</ele><time>2026-04-11T05:34:56.998Z</time></trkpt><trkpt lat="43.40118883038424" lon="11.365716135250556"><ele>441.0</ele><time>2026-04-11T05:34:57.998Z</time></trkpt><trkpt lat="43.40116970139117" lon="11.365615614302966"><ele>440.8333333333333</ele><time>2026-04-11T05:34:59.998Z</time></trkpt><trkpt lat="43.4011530151083" lon="11.365515208537591"><ele>440.66666666666663</ele><time>2026-04-11T05:35:01.998Z</time></trkpt><trkpt lat="43.40112275164554" lon="11.365394312999115"><ele>440.5</ele><time>2026-04-11T05:35:04.998Z</time></trkpt><trkpt lat="43.40111456489447" lon="11.365285818106885"><ele>440.3333333333333</ele><time>2026-04-11T05:35:07.998Z</time></trkpt><trkpt lat="43.401110959568676" lon="11.36517925993638"><ele>440.16666666666663</ele><time>2026-04-11T05:35:10.998Z</time></trkpt><trkpt lat="43.40110304794361" lon="11.365040344228563"><ele>440.0</ele><time>2026-04-11T05:35:13.998Z</time></trkpt><trkpt lat="43.401099696809275" lon="11.364936529577875"><ele>439.99999999999994</ele><time>2026-04-11T05:35:15.998Z</time></trkpt><trkpt lat="43.40108536788321" lon="11.364766348556824"><ele>440.0</ele><time>2026-04-11T05:35:18.998Z</time></trkpt><trkpt lat="43.40106606580607" lon="11.364662708373025"><ele>440.0</ele><time>2026-04-11T05:35:20.998Z</time></trkpt><trkpt lat="43.40103372680273" lon="11.364571723379013"><ele>440.0</ele><time>2026-04-11T05:35:22.998Z</time></trkpt><trkpt lat="43.40098924106455" lon="11.36447443528865"><ele>439.99999999999994</ele><time>2026-04-11T05:35:24.998Z</time></trkpt><trkpt lat="43.40094606858742" lon="11.364373597961483"><ele>440.0</ele><time>2026-04-11T05:35:26.998Z</time></trkpt><trkpt lat="43.40090487960605" lon="11.364274356097493"><ele>440.0</ele><time>2026-04-11T05:35:28.998Z</time></trkpt><trkpt lat="43.40086494693282" lon="11.364171498473604"><ele>440.0</ele><time>2026-04-11T05:35:30.998Z</time></trkpt><trkpt lat="43.40083253799195" lon="11.364081052645298"><ele>440.0</ele><time>2026-04-11T05:35:32.998Z</time></trkpt><trkpt lat="43.40080674369659" lon="11.36394803092275"><ele>440.0</ele><time>2026-04-11T05:35:34.998Z</time></trkpt><trkpt lat="43.40079040235061" lon="11.36380486357905"><ele>440.0</ele><time>2026-04-11T05:35:36.998Z</time></trkpt><trkpt lat="43.4007816049753" lon="11.363666003849357"><ele>440.0</ele><time>2026-04-11T05:35:38.998Z</time></trkpt><trkpt lat="43.40081052312311" lon="11.363528906995148"><ele>440.0</ele><time>2026-04-11T05:35:40.998Z</time></trkpt><trkpt lat="43.40086763017795" lon="11.363406295918933"><ele>440.0</ele><time>2026-04-11T05:35:42.998Z</time></trkpt><trkpt lat="43.40095361159999" lon="11.363315485250004"><ele>440.0</ele><time>2026-04-11T05:35:44.997Z</time></trkpt><trkpt lat="43.40104329267671" lon="11.36324762039955"><ele>440.0</ele><time>2026-04-11T05:35:47Z</time></trkpt><trkpt lat="43.40113583320414" lon="11.363199163983445"><ele>440.0</ele><time>2026-04-11T05:35:49Z</time></trkpt><trkpt lat="43.4012388919809" lon="11.3631422833918"><ele>440.0</ele><time>2026-04-11T05:35:51Z</time></trkpt><trkpt lat="43.40133479967898" lon="11.363054110344569"><ele>440.0</ele><time>2026-04-11T05:35:53Z</time></trkpt><trkpt lat="43.40140374320141" lon="11.362916139061204"><ele>440.0</ele><time>2026-04-11T05:35:55Z</time></trkpt><trkpt lat="43.401424119905286" lon="11.362757807697362"><ele>438.6</ele><time>2026-04-11T05:35:57Z</time></trkpt><trkpt lat="43.40143636273282" lon="11.362610898778376"><ele>437.2</ele><time>2026-04-11T05:35:59Z</time></trkpt><trkpt lat="43.4014334384002" lon="11.362477558234394"><ele>435.79999999999995</ele><time>2026-04-11T05:36:01Z</time></trkpt><trkpt lat="43.401397889163654" lon="11.362339702963354"><ele>434.4</ele><time>2026-04-11T05:36:03Z</time></trkpt><trkpt lat="43.40135580166683" lon="11.362209794554522"><ele>433.0</ele><time>2026-04-11T05:36:05Z</time></trkpt><trkpt lat="43.401326610512875" lon="11.362095695512402"><ele>435.2</ele><time>2026-04-11T05:36:07Z</time></trkpt><trkpt lat="43.40134698919318" lon="11.361952855712712"><ele>437.4</ele><time>2026-04-11T05:36:09Z</time></trkpt><trkpt lat="43.40142549048811" lon="11.361853419613182"><ele>439.59999999999997</ele><time>2026-04-11T05:36:10.999Z</time></trkpt><trkpt lat="43.40151205660048" lon="11.361765854038328"><ele>441.79999999999995</ele><time>2026-04-11T05:36:12.999Z</time></trkpt><trkpt lat="43.40160023850163" lon="11.361671821830944"><ele>444.0</ele><time>2026-04-11T05:36:14.999Z</time></trkpt><trkpt lat="43.40168960226889" lon="11.361576529379652"><ele>444.0</ele><time>2026-04-11T05:36:16.999Z</time></trkpt><trkpt lat="43.40177207497407" lon="11.361488584951147"><ele>444.0</ele><time>2026-04-11T05:36:18.999Z</time></trkpt><trkpt lat="43.40185712701227" lon="11.36139275903811"><ele>444.0</ele><time>2026-04-11T05:36:20.999Z</time></trkpt><trkpt lat="43.401936240133416" lon="11.361292604849082"><ele>444.0</ele><time>2026-04-11T05:36:22.999Z</time></trkpt><trkpt lat="43.40201064095137" lon="11.36119760610068"><ele>444.0</ele><time>2026-04-11T05:36:24.999Z</time></trkpt><trkpt lat="43.40208577550092" lon="11.361107358140854"><ele>443.4</ele><time>2026-04-11T05:36:26.999Z</time></trkpt><trkpt lat="43.40216067108535" lon="11.361022275830527"><ele>442.79999999999995</ele><time>2026-04-11T05:36:28.999Z</time></trkpt><trkpt lat="43.40221596882871" lon="11.360973684777846"><ele>442.20000000000005</ele><time>2026-04-11T05:36:31.999Z</time></trkpt><trkpt lat="43.40237296488432" lon="11.360895202532836"><ele>441.6</ele><time>2026-04-11T05:36:35.999Z</time></trkpt><trkpt lat="43.402484006978284" lon="11.360886734806755"><ele>441.0</ele><time>2026-04-11T05:36:37.999Z</time></trkpt><trkpt lat="43.40254833351048" lon="11.360896863764385"><ele>441.0</ele><time>2026-04-11T05:36:38.999Z</time></trkpt><trkpt lat="43.40261482479493" lon="11.36084898697065"><ele>441.0</ele><time>2026-04-11T05:36:39.999Z</time></trkpt><trkpt lat="43.402721244688244" lon="11.360884851654694"><ele>441.0</ele><time>2026-04-11T05:36:41.999Z</time></trkpt><trkpt lat="43.40281816566461" lon="11.36089809722264"><ele>441.0</ele><time>2026-04-11T05:36:43.999Z</time></trkpt><trkpt lat="43.40291914384022" lon="11.360898873974737"><ele>441.0</ele><time>2026-04-11T05:36:45.999Z</time></trkpt><trkpt lat="43.403009363335904" lon="11.360878693173499"><ele>442.0</ele><time>2026-04-11T05:36:47.999Z</time></trkpt><trkpt lat="43.40308977467597" lon="11.360854201941072"><ele>443.0</ele><time>2026-04-11T05:36:49.999Z</time></trkpt><trkpt lat="43.4031761828386" lon="11.360830632498187"><ele>444.0</ele><time>2026-04-11T05:36:51.999Z</time></trkpt><trkpt lat="43.40327496136074" lon="11.360803971519593"><ele>445.0</ele><time>2026-04-11T05:36:53.999Z</time></trkpt><trkpt lat="43.40336665943853" lon="11.360763224969618"><ele>446.0</ele><time>2026-04-11T05:36:55.999Z</time></trkpt><trkpt lat="43.403449292705844" lon="11.360690096595084"><ele>446.0</ele><time>2026-04-11T05:36:57.999Z</time></trkpt><trkpt lat="43.40349983628188" lon="11.360573428925353"><ele>446.0</ele><time>2026-04-11T05:36:59.998Z</time></trkpt><trkpt lat="43.40350477444808" lon="11.360438570888338"><ele>446.0</ele><time>2026-04-11T05:37:01.998Z</time></trkpt><trkpt lat="43.40349672887944" lon="11.360316928355392"><ele>446.0</ele><time>2026-04-11T05:37:03.998Z</time></trkpt><trkpt lat="43.40348948292157" lon="11.360186915843304"><ele>446.0</ele><time>2026-04-11T05:37:05.998Z</time></trkpt><trkpt lat="43.40348900070485" lon="11.360051316807603"><ele>445.8</ele><time>2026-04-11T05:37:07.998Z</time></trkpt><trkpt lat="43.40350104780902" lon="11.359919474602632"><ele>445.6</ele><time>2026-04-11T05:37:09.998Z</time></trkpt><trkpt lat="43.40352359500478" lon="11.359786608212476"><ele>445.4</ele><time>2026-04-11T05:37:11.998Z</time></trkpt><trkpt lat="43.403551359733015" lon="11.359664370729224"><ele>445.2</ele><time>2026-04-11T05:37:13.998Z</time></trkpt><trkpt lat="43.40357524667175" lon="11.359538647829867"><ele>445.0</ele><time>2026-04-11T05:37:15.998Z</time></trkpt><trkpt lat="43.40359485521996" lon="11.359403784601476"><ele>445.0</ele><time>2026-04-11T05:37:17.998Z</time></trkpt><trkpt lat="43.403577801824376" lon="11.359267925076349"><ele>445.0</ele><time>2026-04-11T05:37:19.998Z</time></trkpt><trkpt lat="43.40353342801602" lon="11.3591485234015"><ele>445.0</ele><time>2026-04-11T05:37:21.998Z</time></trkpt><trkpt lat="43.40346360317281" lon="11.35904376396322"><ele>445.0</ele><time>2026-04-11T05:37:23.998Z</time></trkpt><trkpt lat="43.40337656818127" lon="11.358970457889685"><ele>445.0</ele><time>2026-04-11T05:37:25.998Z</time></trkpt><trkpt lat="43.40328052351317" lon="11.35893220780552"><ele>445.0</ele><time>2026-04-11T05:37:27.998Z</time></trkpt><trkpt lat="43.40319159607778" lon="11.358910377517928"><ele>445.0</ele><time>2026-04-11T05:37:29.998Z</time></trkpt><trkpt lat="43.40310606272195" lon="11.358876702449304"><ele>445.0</ele><time>2026-04-11T05:37:31.998Z</time></trkpt><trkpt lat="43.403022617056955" lon="11.358797416877168"><ele>445.0</ele><time>2026-04-11T05:37:33.998Z</time></trkpt><trkpt lat="43.402957014914456" lon="11.358688748231204"><ele>445.0</ele><time>2026-04-11T05:37:35.998Z</time></trkpt><trkpt lat="43.402907547279966" lon="11.35857800262819"><ele>444.6</ele><time>2026-04-11T05:37:37.998Z</time></trkpt><trkpt lat="43.40287676276236" lon="11.35845811948811"><ele>444.2</ele><time>2026-04-11T05:37:39.998Z</time></trkpt><trkpt lat="43.40285010751795" lon="11.358333631815402"><ele>443.79999999999995</ele><time>2026-04-11T05:37:41.998Z</time></trkpt><trkpt lat="43.402846166115175" lon="11.358196248417755"><ele>443.4</ele><time>2026-04-11T05:37:43.998Z</time></trkpt><trkpt lat="43.40282308857119" lon="11.358067462991501"><ele>443.0</ele><time>2026-04-11T05:37:45.998Z</time></trkpt><trkpt lat="43.40279774550217" lon="11.357934669168435"><ele>443.0</ele><time>2026-04-11T05:37:47.997Z</time></trkpt><trkpt lat="43.40277253606585" lon="11.357795839280929"><ele>442.99999999999994</ele><time>2026-04-11T05:37:49.997Z</time></trkpt><trkpt lat="43.40276085530338" lon="11.357665000418205"><ele>442.99999999999994</ele><time>2026-04-11T05:37:51.997Z</time></trkpt><trkpt lat="43.40275032030548" lon="11.357534561794719"><ele>443.0</ele><time>2026-04-11T05:37:54Z</time></trkpt><trkpt lat="43.40280406101998" lon="11.357410447910176"><ele>443.0</ele><time>2026-04-11T05:37:56Z</time></trkpt><trkpt lat="43.4028622156504" lon="11.357296519410914"><ele>443.0</ele><time>2026-04-11T05:37:58Z</time></trkpt><trkpt lat="43.40294139287886" lon="11.357217638783535"><ele>442.99999999999994</ele><time>2026-04-11T05:38:00Z</time></trkpt><trkpt lat="43.40303112440157" lon="11.357156364852397"><ele>442.99999999999994</ele><time>2026-04-11T05:38:02Z</time></trkpt><trkpt lat="43.4031135733006" lon="11.357133792760477"><ele>443.0</ele><time>2026-04-11T05:38:04Z</time></trkpt><trkpt lat="43.403215237235145" lon="11.357132534813596"><ele>443.0</ele><time>2026-04-11T05:38:06Z</time></trkpt><trkpt lat="43.40331021785137" lon="11.357137535652244"><ele>443.79999999999995</ele><time>2026-04-11T05:38:08Z</time></trkpt><trkpt lat="43.40340218860949" lon="11.357148869435553"><ele>444.59999999999997</ele><time>2026-04-11T05:38:10Z</time></trkpt><trkpt lat="43.40349674671151" lon="11.357149480240903"><ele>445.40000000000003</ele><time>2026-04-11T05:38:12Z</time></trkpt><trkpt lat="43.403596943601734" lon="11.357134384501435"><ele>446.20000000000005</ele><time>2026-04-11T05:38:14Z</time></trkpt><trkpt lat="43.403698768485164" lon="11.357100099827186"><ele>447.0</ele><time>2026-04-11T05:38:16Z</time></trkpt><trkpt lat="43.40378731362941" lon="11.357018408523079"><ele>447.0</ele><time>2026-04-11T05:38:18Z</time></trkpt><trkpt lat="43.40385634043603" lon="11.356903697715383"><ele>447.00000000000006</ele><time>2026-04-11T05:38:19.999Z</time></trkpt><trkpt lat="43.40387666610494" lon="11.356756833328443"><ele>447.00000000000006</ele><time>2026-04-11T05:38:21.999Z</time></trkpt><trkpt lat="43.40382955263072" lon="11.356623674603554"><ele>447.0</ele><time>2026-04-11T05:38:23.999Z</time></trkpt><trkpt lat="43.40378942808021" lon="11.356529534554099"><ele>447.0</ele><time>2026-04-11T05:38:25.999Z</time></trkpt><trkpt lat="43.40373705719917" lon="11.356441874081435"><ele>446.8</ele><time>2026-04-11T05:38:27.999Z</time></trkpt><trkpt lat="43.40368500784241" lon="11.356366123490858"><ele>446.6</ele><time>2026-04-11T05:38:29.999Z</time></trkpt><trkpt lat="43.40362925594723" lon="11.356266479385946"><ele>446.40000000000003</ele><time>2026-04-11T05:38:31.999Z</time></trkpt><trkpt lat="43.40358111529042" lon="11.35616125542449"><ele>446.20000000000005</ele><time>2026-04-11T05:38:33.999Z</time></trkpt><trkpt lat="43.40359019990208" lon="11.356036669188864"><ele>446.0</ele><time>2026-04-11T05:38:35.999Z</time></trkpt><trkpt lat="43.403637769503774" lon="11.355913385387309"><ele>446.0</ele><time>2026-04-11T05:38:37.999Z</time></trkpt><trkpt lat="43.40372174592647" lon="11.355824614664728"><ele>446.0</ele><time>2026-04-11T05:38:39.999Z</time></trkpt><trkpt lat="43.40378574188924" lon="11.355827671259927"><ele>446.0</ele><time>2026-04-11T05:38:40.999Z</time></trkpt><trkpt lat="43.40387081570733" lon="11.355754087128446"><ele>446.0</ele><time>2026-04-11T05:38:42.999Z</time></trkpt><trkpt lat="43.40396355472665" lon="11.355682444210434"><ele>446.0</ele><time>2026-04-11T05:38:44.999Z</time></trkpt><trkpt lat="43.40405222978888" lon="11.35563366990317"><ele>447.20000000000005</ele><time>2026-04-11T05:38:46.999Z</time></trkpt><trkpt lat="43.404141444996576" lon="11.355609204642333"><ele>448.40000000000003</ele><time>2026-04-11T05:38:48.999Z</time></trkpt><trkpt lat="43.404236862481085" lon="11.355608337148098"><ele>449.6</ele><time>2026-04-11T05:38:50.999Z</time></trkpt><trkpt lat="43.40433232212394" lon="11.355609454907242"><ele>450.8</ele><time>2026-04-11T05:38:52.999Z</time></trkpt><trkpt lat="43.40441848209563" lon="11.355619789180816"><ele>452.0</ele><time>2026-04-11T05:38:54.999Z</time></trkpt><trkpt lat="43.4045058024151" lon="11.35564909456755"><ele>451.99999999999994</ele><time>2026-04-11T05:38:56.999Z</time></trkpt><trkpt lat="43.404582151432365" lon="11.355690917293584"><ele>452.0</ele><time>2026-04-11T05:38:58.999Z</time></trkpt><trkpt lat="43.40465839230367" lon="11.355750725402293"><ele>452.0</ele><time>2026-04-11T05:39:00.999Z</time></trkpt><trkpt lat="43.404728880150884" lon="11.355809727939093"><ele>452.0</ele><time>2026-04-11T05:39:02.999Z</time></trkpt><trkpt lat="43.40479805547841" lon="11.355865681754516"><ele>451.99999999999994</ele><time>2026-04-11T05:39:04.999Z</time></trkpt><trkpt lat="43.40487691886713" lon="11.35592734691868"><ele>452.0</ele><time>2026-04-11T05:39:06.999Z</time></trkpt><trkpt lat="43.40495939862542" lon="11.355945592062852"><ele>452.66666666666663</ele><time>2026-04-11T05:39:08.999Z</time></trkpt><trkpt lat="43.40503779431148" lon="11.35599088120413"><ele>453.3333333333333</ele><time>2026-04-11T05:39:10.998Z</time></trkpt><trkpt lat="43.40511153143622" lon="11.356011181823277"><ele>454.0</ele><time>2026-04-11T05:39:12.998Z</time></trkpt><trkpt lat="43.40518578990874" lon="11.35601215775572"><ele>454.66666666666663</ele><time>2026-04-11T05:39:14.998Z</time></trkpt><trkpt lat="43.40525446109594" lon="11.35597567412995"><ele>455.3333333333333</ele><time>2026-04-11T05:39:17.998Z</time></trkpt><trkpt lat="43.40532470329722" lon="11.355892134004534"><ele>456.0</ele><time>2026-04-11T05:39:19.998Z</time></trkpt><trkpt lat="43.405342712383" lon="11.355806343251178"><ele>456.0</ele><time>2026-04-11T05:39:21.998Z</time></trkpt><trkpt lat="43.40536369564445" lon="11.355682417283454"><ele>456.0</ele><time>2026-04-11T05:39:24.998Z</time></trkpt><trkpt lat="43.40539764128873" lon="11.355573906672852"><ele>456.0</ele><time>2026-04-11T05:39:26.998Z</time></trkpt><trkpt lat="43.40546071745054" lon="11.3554699438465"><ele>456.0</ele><time>2026-04-11T05:39:28.998Z</time></trkpt><trkpt lat="43.40554735742308" lon="11.355396117835374"><ele>456.0</ele><time>2026-04-11T05:39:30.998Z</time></trkpt><trkpt lat="43.40562809066863" lon="11.355377329136637"><ele>455.5</ele><time>2026-04-11T05:39:32.998Z</time></trkpt><trkpt lat="43.405724417260245" lon="11.355391747211776"><ele>455.0</ele><time>2026-04-11T05:39:34.998Z</time></trkpt><trkpt lat="43.405807592496096" lon="11.355430338071114"><ele>454.5</ele><time>2026-04-11T05:39:36.998Z</time></trkpt><trkpt lat="43.40588375384145" lon="11.355475251370846"><ele>454.0</ele><time>2026-04-11T05:39:38.998Z</time></trkpt><trkpt lat="43.405958800944866" lon="11.355530506452538"><ele>453.5</ele><time>2026-04-11T05:39:40.998Z</time></trkpt><trkpt lat="43.4060322013163" lon="11.355582063838913"><ele>453.0</ele><time>2026-04-11T05:39:42.998Z</time></trkpt><trkpt lat="43.406107434435484" lon="11.355637023956556"><ele>454.6666666666667</ele><time>2026-04-11T05:39:44.998Z</time></trkpt><trkpt lat="43.406184102336844" lon="11.355713562925843"><ele>456.33333333333337</ele><time>2026-04-11T05:39:46.998Z</time></trkpt><trkpt lat="43.40625683130518" lon="11.355787189177637"><ele>458.0</ele><time>2026-04-11T05:39:48.998Z</time></trkpt><trkpt lat="43.406329203394094" lon="11.355845889454796"><ele>459.6666666666667</ele><time>2026-04-11T05:39:50.998Z</time></trkpt><trkpt lat="43.406402573935765" lon="11.355915159417055"><ele>461.33333333333337</ele><time>2026-04-11T05:39:52.998Z</time></trkpt><trkpt lat="43.40647446267638" lon="11.35597379881727"><ele>463.0</ele><time>2026-04-11T05:39:54.998Z</time></trkpt><trkpt lat="43.406556581538155" lon="11.355995509188572"><ele>462.83333333333337</ele><time>2026-04-11T05:39:56.998Z</time></trkpt><trkpt lat="43.40662930283385" lon="11.355976087686884"><ele>462.6666666666667</ele><time>2026-04-11T05:39:59Z</time></trkpt><trkpt lat="43.40668744368903" lon="11.355898807600687"><ele>462.5</ele><time>2026-04-11T05:40:01Z</time></trkpt><trkpt lat="43.40669198422017" lon="11.35578785566105"><ele>462.33333333333337</ele><time>2026-04-11T05:40:03Z</time></trkpt><trkpt lat="43.40667076790059" lon="11.355683680067138"><ele>462.1666666666667</ele><time>2026-04-11T05:40:05Z</time></trkpt><trkpt lat="43.40665292355929" lon="11.355591082745006"><ele>462.0</ele><time>2026-04-11T05:40:07Z</time></trkpt><trkpt lat="43.406629578880164" lon="11.355481805164523"><ele>462.0</ele><time>2026-04-11T05:40:09Z</time></trkpt><trkpt lat="43.406608750073595" lon="11.35536915565824"><ele>462.00000000000006</ele><time>2026-04-11T05:40:11Z</time></trkpt><trkpt lat="43.40660039464906" lon="11.355242408633314"><ele>462.00000000000006</ele><time>2026-04-11T05:40:13Z</time></trkpt><trkpt lat="43.40658323675598" lon="11.355111693868484"><ele>462.0</ele><time>2026-04-11T05:40:15Z</time></trkpt><trkpt lat="43.406580634830064" lon="11.354979447731084"><ele>462.0</ele><time>2026-04-11T05:40:17Z</time></trkpt><trkpt lat="43.40659386272955" lon="11.354850904376283"><ele>462.0</ele><time>2026-04-11T05:40:19Z</time></trkpt><trkpt lat="43.40665198759838" lon="11.354746571144437"><ele>462.00000000000006</ele><time>2026-04-11T05:40:21Z</time></trkpt><trkpt lat="43.40670796128408" lon="11.35464221214595"><ele>462.00000000000006</ele><time>2026-04-11T05:40:23Z</time></trkpt><trkpt lat="43.40678513073398" lon="11.354575596851952"><ele>462.0</ele><time>2026-04-11T05:40:25Z</time></trkpt><trkpt lat="43.40686027648402" lon="11.354507829800765"><ele>462.0</ele><time>2026-04-11T05:40:27Z</time></trkpt><trkpt lat="43.40693833865074" lon="11.354449281316771"><ele>462.5</ele><time>2026-04-11T05:40:28.999Z</time></trkpt><trkpt lat="43.40701669335626" lon="11.35440082497157"><ele>463.0</ele><time>2026-04-11T05:40:30.999Z</time></trkpt><trkpt lat="43.40709935459032" lon="11.35435256827328"><ele>463.5</ele><time>2026-04-11T05:40:32.999Z</time></trkpt><trkpt lat="43.407185230036106" lon="11.354324814378172"><ele>464.0</ele><time>2026-04-11T05:40:34.999Z</time></trkpt><trkpt lat="43.40727673969693" lon="11.354325643773446"><ele>464.5</ele><time>2026-04-11T05:40:36.999Z</time></trkpt><trkpt lat="43.40735994647502" lon="11.354345870728723"><ele>465.0</ele><time>2026-04-11T05:40:38.999Z</time></trkpt><trkpt lat="43.40743926136816" lon="11.354386513671928"><ele>465.0</ele><time>2026-04-11T05:40:40.999Z</time></trkpt><trkpt lat="43.40752258692257" lon="11.354394443891847"><ele>465.0</ele><time>2026-04-11T05:40:42.999Z</time></trkpt><trkpt lat="43.407590117203654" lon="11.354351078131439"><ele>465.0</ele><time>2026-04-11T05:40:44.999Z</time></trkpt><trkpt lat="43.407635246107795" lon="11.35426360345575"><ele>465.0</ele><time>2026-04-11T05:40:46.999Z</time></trkpt><trkpt lat="43.40766171701283" lon="11.35416450087777"><ele>465.0</ele><time>2026-04-11T05:40:48.999Z</time></trkpt><trkpt lat="43.40767556347384" lon="11.354053595493278"><ele>465.0</ele><time>2026-04-11T05:40:50.999Z</time></trkpt><trkpt lat="43.407703587944134" lon="11.353944518881713"><ele>464.1666666666667</ele><time>2026-04-11T05:40:52.999Z</time></trkpt><trkpt lat="43.40775354444222" lon="11.353847063810006"><ele>463.33333333333337</ele><time>2026-04-11T05:40:54.999Z</time></trkpt><trkpt lat="43.40782082126634" lon="11.353769498137696"><ele>462.5</ele><time>2026-04-11T05:40:56.999Z</time></trkpt><trkpt lat="43.40790261308244" lon="11.353720053242908"><ele>461.6666666666667</ele><time>2026-04-11T05:40:58.999Z</time></trkpt><trkpt lat="43.40799255903054" lon="11.353710878696454"><ele>460.83333333333337</ele><time>2026-04-11T05:41:00.999Z</time></trkpt><trkpt lat="43.40808179400544" lon="11.353732376326997"><ele>460.0</ele><time>2026-04-11T05:41:02.999Z</time></trkpt><trkpt lat="43.40816097270845" lon="11.353783102471088"><ele>460.00000000000006</ele><time>2026-04-11T05:41:04.999Z</time></trkpt><trkpt lat="43.40822877790316" lon="11.353857196900403"><ele>460.0</ele><time>2026-04-11T05:41:06.999Z</time></trkpt><trkpt lat="43.40829070359272" lon="11.353937666047775"><ele>460.0</ele><time>2026-04-11T05:41:08.999Z</time></trkpt><trkpt lat="43.40835370411749" lon="11.35400497778049"><ele>460.0</ele><time>2026-04-11T05:41:10.999Z</time></trkpt><trkpt lat="43.40841934194299" lon="11.354062680653469"><ele>460.00000000000006</ele><time>2026-04-11T05:41:12.999Z</time></trkpt><trkpt lat="43.408498468754914" lon="11.354115989432403"><ele>460.0</ele><time>2026-04-11T05:41:14.999Z</time></trkpt><trkpt lat="43.408578273076905" lon="11.354117963963475"><ele>460.00000000000006</ele><time>2026-04-11T05:41:16.998Z</time></trkpt><trkpt lat="43.408654106795126" lon="11.35407299520465"><ele>460.0</ele><time>2026-04-11T05:41:18.998Z</time></trkpt><trkpt lat="43.408709978331395" lon="11.353991340090792"><ele>460.0</ele><time>2026-04-11T05:41:20.998Z</time></trkpt><trkpt lat="43.40874712122195" lon="11.35389363949994"><ele>460.0</ele><time>2026-04-11T05:41:22.998Z</time></trkpt><trkpt lat="43.40876686715148" lon="11.353792865951577"><ele>460.00000000000006</ele><time>2026-04-11T05:41:24.998Z</time></trkpt><trkpt lat="43.40878134922643" lon="11.353698320178527"><ele>460.0</ele><time>2026-04-11T05:41:26.998Z</time></trkpt><trkpt lat="43.40878809011976" lon="11.353593871793015"><ele>460.00000000000006</ele><time>2026-04-11T05:41:28.998Z</time></trkpt><trkpt lat="43.40880174204224" lon="11.353486239164882"><ele>460.0</ele><time>2026-04-11T05:41:30.998Z</time></trkpt><trkpt lat="43.408830532373045" lon="11.353378604469798"><ele>460.0</ele><time>2026-04-11T05:41:32.998Z</time></trkpt><trkpt lat="43.408875694060356" lon="11.353317248465657"><ele>460.0</ele><time>2026-04-11T05:41:34.998Z</time></trkpt><trkpt lat="43.40895924685385" lon="11.35321893419722"><ele>460.00000000000006</ele><time>2026-04-11T05:41:36.998Z</time></trkpt><trkpt lat="43.40903968004929" lon="11.353176855754914"><ele>460.0</ele><time>2026-04-11T05:41:38.998Z</time></trkpt><trkpt lat="43.409119183468626" lon="11.353154437928724"><ele>461.33333333333337</ele><time>2026-04-11T05:41:40.998Z</time></trkpt><trkpt lat="43.40920047950143" lon="11.35314962445669"><ele>462.6666666666667</ele><time>2026-04-11T05:41:42.998Z</time></trkpt><trkpt lat="43.40928320056492" lon="11.353163882452714"><ele>464.0</ele><time>2026-04-11T05:41:44.998Z</time></trkpt><trkpt lat="43.40936376019745" lon="11.3531923903321"><ele>465.33333333333337</ele><time>2026-04-11T05:41:46.998Z</time></trkpt><trkpt lat="43.40944321073099" lon="11.353233292304255"><ele>466.6666666666667</ele><time>2026-04-11T05:41:48.998Z</time></trkpt><trkpt lat="43.40952067567428" lon="11.353277531509399"><ele>468.0</ele><time>2026-04-11T05:41:50.998Z</time></trkpt><trkpt lat="43.40959832331974" lon="11.353301466851702"><ele>468.1666666666667</ele><time>2026-04-11T05:41:52.998Z</time></trkpt><trkpt lat="43.40967941971714" lon="11.35330175120429"><ele>468.33333333333337</ele><time>2026-04-11T05:41:54.998Z</time></trkpt><trkpt lat="43.40977234244884" lon="11.353263978484174"><ele>468.5</ele><time>2026-04-11T05:41:56.998Z</time></trkpt><trkpt lat="43.40981857300669" lon="11.353188420635199"><ele>468.6666666666667</ele><time>2026-04-11T05:41:58.998Z</time></trkpt><trkpt lat="43.40980718297706" lon="11.353098812924882"><ele>468.83333333333337</ele><time>2026-04-11T05:41:59.998Z</time></trkpt><trkpt lat="43.40980441835681" lon="11.353007261802158"><ele>469.0</ele><time>2026-04-11T05:42:01.998Z</time></trkpt><trkpt lat="43.409831000143726" lon="11.352886414159762"><ele>469.00000000000006</ele><time>2026-04-11T05:42:03.998Z</time></trkpt><trkpt lat="43.40986857914308" lon="11.352770899489295"><ele>469.0</ele><time>2026-04-11T05:42:06Z</time></trkpt><trkpt lat="43.40991906535686" lon="11.352680077090417"><ele>469.0</ele><time>2026-04-11T05:42:08Z</time></trkpt><trkpt lat="43.409981975694706" lon="11.352593580124184"><ele>469.0</ele><time>2026-04-11T05:42:10Z</time></trkpt><trkpt lat="43.410033042352914" lon="11.352525231681593"><ele>469.00000000000006</ele><time>2026-04-11T05:42:13Z</time></trkpt><trkpt lat="43.41011019422061" lon="11.352440975528015"><ele>469.0</ele><time>2026-04-11T05:42:14Z</time></trkpt><trkpt lat="43.410176258659675" lon="11.352374671447377"><ele>469.00000000000006</ele><time>2026-04-11T05:42:16Z</time></trkpt><trkpt lat="43.41023090051617" lon="11.352324410968796"><ele>469.0</ele><time>2026-04-11T05:42:18Z</time></trkpt><trkpt lat="43.410286620348295" lon="11.352276135204654"><ele>469.0</ele><time>2026-04-11T05:42:20Z</time></trkpt><trkpt lat="43.41036327496032" lon="11.352243012856627"><ele>469.0</ele><time>2026-04-11T05:42:22Z</time></trkpt><trkpt lat="43.41045666673509" lon="11.352227094174237"><ele>469.00000000000006</ele><time>2026-04-11T05:42:24Z</time></trkpt><trkpt lat="43.410540195980914" lon="11.352204444689542"><ele>469.0</ele><time>2026-04-11T05:42:26Z</time></trkpt><trkpt lat="43.41061265140447" lon="11.352187195095565"><ele>469.4</ele><time>2026-04-11T05:42:28Z</time></trkpt><trkpt lat="43.41069800220357" lon="11.352165767367454"><ele>469.79999999999995</ele><time>2026-04-11T05:42:30Z</time></trkpt><trkpt lat="43.41079544134322" lon="11.352150640019355"><ele>470.20000000000005</ele><time>2026-04-11T05:42:32Z</time></trkpt><trkpt lat="43.410940428795826" lon="11.35212240784663"><ele>470.6</ele><time>2026-04-11T05:42:34.999Z</time></trkpt><trkpt lat="43.41104543390722" lon="11.352085530503615"><ele>471.0</ele><time>2026-04-11T05:42:37.999Z</time></trkpt><trkpt lat="43.41113378358767" lon="11.352064916151049"><ele>471.0</ele><time>2026-04-11T05:42:39.999Z</time></trkpt><trkpt lat="43.411190859706565" lon="11.352116267328693"><ele>471.0</ele><time>2026-04-11T05:42:40.999Z</time></trkpt><trkpt lat="43.41128158793384" lon="11.352093241891598"><ele>471.0</ele><time>2026-04-11T05:42:42.999Z</time></trkpt><trkpt lat="43.411374541422" lon="11.352069651783754"><ele>471.0</ele><time>2026-04-11T05:42:44.999Z</time></trkpt><trkpt lat="43.411469947480974" lon="11.352045564551544"><ele>471.0</ele><time>2026-04-11T05:42:46.999Z</time></trkpt><trkpt lat="43.41155531575275" lon="11.352024039941217"><ele>471.0</ele><time>2026-04-11T05:42:48.999Z</time></trkpt><trkpt lat="43.41164323805683" lon="11.352001871365161"><ele>471.1666666666667</ele><time>2026-04-11T05:42:50.999Z</time></trkpt><trkpt lat="43.41173391672954" lon="11.351979661532887"><ele>471.33333333333337</ele><time>2026-04-11T05:42:52.999Z</time></trkpt><trkpt lat="43.41182147184573" lon="11.35195878083418"><ele>471.5</ele><time>2026-04-11T05:42:54.999Z</time></trkpt><trkpt lat="43.411908784324346" lon="11.351937958102303"><ele>471.6666666666667</ele><time>2026-04-11T05:42:56.999Z</time></trkpt><trkpt lat="43.41199478260692" lon="11.351916867378183"><ele>471.83333333333337</ele><time>2026-04-11T05:42:58.999Z</time></trkpt><trkpt lat="43.41208036861113" lon="11.351895902113382"><ele>472.0</ele><time>2026-04-11T05:43:00.999Z</time></trkpt><trkpt lat="43.41216290273354" lon="11.351875682804154"><ele>472.0</ele><time>2026-04-11T05:43:02.999Z</time></trkpt><trkpt lat="43.412243054698685" lon="11.351856047088267"><ele>472.0</ele><time>2026-04-11T05:43:04.999Z</time></trkpt><trkpt lat="43.41230849744661" lon="11.351792643278037"><ele>472.0</ele><time>2026-04-11T05:43:06.999Z</time></trkpt><trkpt lat="43.412381871474516" lon="11.351780071544386"><ele>472.0</ele><time>2026-04-11T05:43:08.999Z</time></trkpt><trkpt lat="43.41245289906424" lon="11.35176538518262"><ele>472.0</ele><time>2026-04-11T05:43:10.999Z</time></trkpt><trkpt lat="43.412517409418335" lon="11.35175535347321"><ele>472.0</ele><time>2026-04-11T05:43:12.999Z</time></trkpt><trkpt lat="43.41258013788909" lon="11.351738405532672"><ele>472.0</ele><time>2026-04-11T05:43:14.999Z</time></trkpt><trkpt lat="43.41264197760148" lon="11.351718514226565"><ele>472.00000000000006</ele><time>2026-04-11T05:43:16.999Z</time></trkpt><trkpt lat="43.41272624763586" lon="11.351688181731786"><ele>472.0</ele><time>2026-04-11T05:43:19.999Z</time></trkpt><trkpt lat="43.4128099479003" lon="11.351645188348403"><ele>472.0</ele><time>2026-04-11T05:43:22.999Z</time></trkpt><trkpt lat="43.412885975345766" lon="11.351586623038122"><ele>472.0</ele><time>2026-04-11T05:43:25.998Z</time></trkpt><trkpt lat="43.412960147574644" lon="11.351506351551466"><ele>472.00000000000006</ele><time>2026-04-11T05:43:28.998Z</time></trkpt><trkpt lat="43.41302507786563" lon="11.35142306650466"><ele>472.0</ele><time>2026-04-11T05:43:31.998Z</time></trkpt><trkpt lat="43.4130730030429" lon="11.351362474812111"><ele>473.1428571428571</ele><time>2026-04-11T05:43:33.998Z</time></trkpt><trkpt lat="43.413120608982474" lon="11.351296570116315"><ele>474.28571428571433</ele><time>2026-04-11T05:43:35.998Z</time></trkpt><trkpt lat="43.413169929388594" lon="11.351228882095006"><ele>475.42857142857144</ele><time>2026-04-11T05:43:37.998Z</time></trkpt><trkpt lat="43.41321782531283" lon="11.3511647782356"><ele>476.57142857142856</ele><time>2026-04-11T05:43:39.998Z</time></trkpt><trkpt lat="43.41326613374272" lon="11.351102894612318"><ele>477.71428571428567</ele><time>2026-04-11T05:43:41.998Z</time></trkpt><trkpt lat="43.41330945478489" lon="11.351038374322286"><ele>478.8571428571429</ele><time>2026-04-11T05:43:43.998Z</time></trkpt><trkpt lat="43.41335422476018" lon="11.350976381128802"><ele>480.0</ele><time>2026-04-11T05:43:45.998Z</time></trkpt><trkpt lat="43.41339784362447" lon="11.3509125478138"><ele>480.0</ele><time>2026-04-11T05:43:47.998Z</time></trkpt><trkpt lat="43.41346086294972" lon="11.350819475338625"><ele>480.0</ele><time>2026-04-11T05:43:50.998Z</time></trkpt><trkpt lat="43.413521372178984" lon="11.350729504387472"><ele>480.0</ele><time>2026-04-11T05:43:53.998Z</time></trkpt><trkpt lat="43.41358244349974" lon="11.350641551153961"><ele>480.0</ele><time>2026-04-11T05:43:56.998Z</time></trkpt><trkpt lat="43.413652720562894" lon="11.350541445111217"><ele>480.0</ele><time>2026-04-11T05:44:00.998Z</time></trkpt><trkpt lat="43.41370511245698" lon="11.350465633322527"><ele>480.0</ele><time>2026-04-11T05:44:02.998Z</time></trkpt><trkpt lat="43.413775249056776" lon="11.350385605521268"><ele>482.3333333333333</ele><time>2026-04-11T05:44:05.998Z</time></trkpt><trkpt lat="43.41382927390604" lon="11.350338269446716"><ele>484.66666666666663</ele><time>2026-04-11T05:44:07.998Z</time></trkpt><trkpt lat="43.413890276789154" lon="11.35030231189298"><ele>487.0</ele><time>2026-04-11T05:44:10Z</time></trkpt><trkpt lat="43.41398499697825" lon="11.350288051672619"><ele>489.3333333333333</ele><time>2026-04-11T05:44:13Z</time></trkpt><trkpt lat="43.41407395786128" lon="11.350295470588202"><ele>491.66666666666663</ele><time>2026-04-11T05:44:16Z</time></trkpt><trkpt lat="43.414152120223775" lon="11.35033077423741"><ele>494.0</ele><time>2026-04-11T05:44:19Z</time></trkpt><trkpt lat="43.414235083132276" lon="11.350381136049664"><ele>493.99999999999994</ele><time>2026-04-11T05:44:22Z</time></trkpt><trkpt lat="43.414295258256395" lon="11.350409122305525"><ele>494.0</ele><time>2026-04-11T05:44:24Z</time></trkpt><trkpt lat="43.414379048759976" lon="11.350426698314179"><ele>494.0</ele><time>2026-04-11T05:44:27Z</time></trkpt><trkpt lat="43.4144594701185" lon="11.350414151084465"><ele>494.0</ele><time>2026-04-11T05:44:30Z</time></trkpt><trkpt lat="43.414532439377105" lon="11.350352832966495"><ele>493.99999999999994</ele><time>2026-04-11T05:44:33Z</time></trkpt><trkpt lat="43.41457932476701" lon="11.350258052197484"><ele>494.0</ele><time>2026-04-11T05:44:36Z</time></trkpt><trkpt lat="43.41460643308751" lon="11.350150413152802"><ele>493.99999999999994</ele><time>2026-04-11T05:44:39Z</time></trkpt><trkpt lat="43.41460626368887" lon="11.350032020428994"><ele>494.0</ele><time>2026-04-11T05:44:41.999Z</time></trkpt><trkpt lat="43.41460783099256" lon="11.34991323296293"><ele>494.0</ele><time>2026-04-11T05:44:44.999Z</time></trkpt><trkpt lat="43.414623627887245" lon="11.34979492241098"><ele>494.0</ele><time>2026-04-11T05:44:47.999Z</time></trkpt><trkpt lat="43.4146285123737" lon="11.349708161781662"><ele>493.99999999999994</ele><time>2026-04-11T05:44:49.999Z</time></trkpt><trkpt lat="43.41463093692666" lon="11.349618218764352"><ele>494.0</ele><time>2026-04-11T05:44:51.999Z</time></trkpt><trkpt lat="43.41464069803708" lon="11.349486016933222"><ele>493.49999999999994</ele><time>2026-04-11T05:44:54.999Z</time></trkpt><trkpt lat="43.414661117517056" lon="11.34936088409956"><ele>493.0</ele><time>2026-04-11T05:44:57.999Z</time></trkpt><trkpt lat="43.41468639353455" lon="11.349270245675743"><ele>492.5</ele><time>2026-04-11T05:44:59.999Z</time></trkpt><trkpt lat="43.414733916962895" lon="11.349185716185556"><ele>492.0</ele><time>2026-04-11T05:45:01.999Z</time></trkpt><trkpt lat="43.41477459066464" lon="11.349114585217873"><ele>491.49999999999994</ele><time>2026-04-11T05:45:03.999Z</time></trkpt><trkpt lat="43.41481887310288" lon="11.349048602367892"><ele>491.0</ele><time>2026-04-11T05:45:05.999Z</time></trkpt><trkpt lat="43.4148928071468" lon="11.348969581743262"><ele>491.0</ele><time>2026-04-11T05:45:08.999Z</time></trkpt><trkpt lat="43.41494752050528" lon="11.348924348191922"><ele>490.99999999999994</ele><time>2026-04-11T05:45:10.999Z</time></trkpt><trkpt lat="43.41500093268428" lon="11.348873753409206"><ele>491.0</ele><time>2026-04-11T05:45:12.999Z</time></trkpt><trkpt lat="43.41506657915741" lon="11.34883080267763"><ele>491.0</ele><time>2026-04-11T05:45:14.999Z</time></trkpt><trkpt lat="43.4151346016988" lon="11.348792146608746"><ele>490.99999999999994</ele><time>2026-04-11T05:45:16.999Z</time></trkpt><trkpt lat="43.41520052202562" lon="11.34877195378574"><ele>491.0</ele><time>2026-04-11T05:45:19.999Z</time></trkpt><trkpt lat="43.41530291229633" lon="11.348766678842356"><ele>491.0</ele><time>2026-04-11T05:45:21.999Z</time></trkpt><trkpt lat="43.41538788487913" lon="11.348795192075672"><ele>490.8333333333333</ele><time>2026-04-11T05:45:24.999Z</time></trkpt><trkpt lat="43.41544967509978" lon="11.348825176574858"><ele>490.66666666666663</ele><time>2026-04-11T05:45:26.999Z</time></trkpt><trkpt lat="43.415509391716235" lon="11.34885272113832"><ele>490.5</ele><time>2026-04-11T05:45:28.998Z</time></trkpt><trkpt lat="43.41559862344789" lon="11.348875618347924"><ele>490.33333333333337</ele><time>2026-04-11T05:45:31.998Z</time></trkpt><trkpt lat="43.415660826048914" lon="11.348895870236143"><ele>490.1666666666667</ele><time>2026-04-11T05:45:33.998Z</time></trkpt><trkpt lat="43.41574881788518" lon="11.348913935120736"><ele>490.0</ele><time>2026-04-11T05:45:36.998Z</time></trkpt><trkpt lat="43.41583443932887" lon="11.348900312014958"><ele>490.00000000000006</ele><time>2026-04-11T05:45:39.998Z</time></trkpt><trkpt lat="43.4159194331143" lon="11.348876073926917"><ele>490.0</ele><time>2026-04-11T05:45:42.998Z</time></trkpt><trkpt lat="43.41600065178914" lon="11.348850077198934"><ele>490.0</ele><time>2026-04-11T05:45:45.998Z</time></trkpt><trkpt lat="43.41606374469418" lon="11.348823620643339"><ele>490.0</ele><time>2026-04-11T05:45:47.998Z</time></trkpt><trkpt lat="43.416131673498654" lon="11.348819561086524"><ele>490.00000000000006</ele><time>2026-04-11T05:45:49.998Z</time></trkpt><trkpt lat="43.416216653511356" lon="11.348812266041897"><ele>490.0</ele><time>2026-04-11T05:45:51.998Z</time></trkpt><trkpt lat="43.4162794525723" lon="11.34880182128909"><ele>492.50000000000006</ele><time>2026-04-11T05:45:53.998Z</time></trkpt><trkpt lat="43.416369358081745" lon="11.348793527820995"><ele>495.0</ele><time>2026-04-11T05:45:56.998Z</time></trkpt><trkpt lat="43.41646286195689" lon="11.348784256243137"><ele>497.5</ele><time>2026-04-11T05:45:59.998Z</time></trkpt><trkpt lat="43.41655073568864" lon="11.34877698684693"><ele>500.0</ele><time>2026-04-11T05:46:02.998Z</time></trkpt><trkpt lat="43.416633851284395" lon="11.348767269393134"><ele>502.50000000000006</ele><time>2026-04-11T05:46:05.998Z</time></trkpt><trkpt lat="43.41670783294671" lon="11.348769606244383"><ele>505.0</ele><time>2026-04-11T05:46:07.998Z</time></trkpt><trkpt lat="43.41677563507484" lon="11.348754909570573"><ele>505.00000000000006</ele><time>2026-04-11T05:46:09.998Z</time></trkpt><trkpt lat="43.41684120023091" lon="11.348742126494946"><ele>505.0</ele><time>2026-04-11T05:46:11.998Z</time></trkpt><trkpt lat="43.41690837962116" lon="11.348720769693166"><ele>505.0</ele><time>2026-04-11T05:46:13.998Z</time></trkpt><trkpt lat="43.416978139378266" lon="11.348685750693415"><ele>505.0</ele><time>2026-04-11T05:46:17Z</time></trkpt><trkpt lat="43.41710583108306" lon="11.34860352050182"><ele>505.00000000000006</ele><time>2026-04-11T05:46:20Z</time></trkpt><trkpt lat="43.41715914573896" lon="11.348535100154303"><ele>505.0</ele><time>2026-04-11T05:46:22Z</time></trkpt><trkpt lat="43.41719988222463" lon="11.348451202689313"><ele>506.00000000000006</ele><time>2026-04-11T05:46:24Z</time></trkpt><trkpt lat="43.417213942962704" lon="11.348351326157049"><ele>507.0</ele><time>2026-04-11T05:46:26Z</time></trkpt><trkpt lat="43.41720671580688" lon="11.348250099292637"><ele>508.0</ele><time>2026-04-11T05:46:28Z</time></trkpt><trkpt lat="43.41719493867072" lon="11.348145549283071"><ele>509.0</ele><time>2026-04-11T05:46:30Z</time></trkpt><trkpt lat="43.41717528875978" lon="11.348041238150515"><ele>510.00000000000006</ele><time>2026-04-11T05:46:32Z</time></trkpt><trkpt lat="43.417151948008254" lon="11.347946716597203"><ele>511.0</ele><time>2026-04-11T05:46:34Z</time></trkpt><trkpt lat="43.4171449328072" lon="11.347841002986158"><ele>511.0</ele><time>2026-04-11T05:46:36Z</time></trkpt><trkpt lat="43.417116166925275" lon="11.347722639665605"><ele>511.0</ele><time>2026-04-11T05:46:38Z</time></trkpt><trkpt lat="43.41711564282826" lon="11.347605823697693"><ele>511.0</ele><time>2026-04-11T05:46:40Z</time></trkpt><trkpt lat="43.417124359334885" lon="11.347486345646882"><ele>511.0</ele><time>2026-04-11T05:46:42Z</time></trkpt><trkpt lat="43.41714931100204" lon="11.347358329046795"><ele>511.0</ele><time>2026-04-11T05:46:44Z</time></trkpt><trkpt lat="43.417238054460086" lon="11.34727433331296"><ele>511.0</ele><time>2026-04-11T05:46:46Z</time></trkpt><trkpt lat="43.417314143681644" lon="11.347193151251012"><ele>511.0</ele><time>2026-04-11T05:46:47.999Z</time></trkpt><trkpt lat="43.41738446358359" lon="11.34710787356199"><ele>511.0</ele><time>2026-04-11T05:46:49.999Z</time></trkpt><trkpt lat="43.41746373945812" lon="11.347026417607127"><ele>511.0</ele><time>2026-04-11T05:46:51.999Z</time></trkpt><trkpt lat="43.41753894896967" lon="11.346951437362579"><ele>511.0</ele><time>2026-04-11T05:46:53.999Z</time></trkpt><trkpt lat="43.41761306955911" lon="11.346883642734268"><ele>511.0</ele><time>2026-04-11T05:46:55.999Z</time></trkpt><trkpt lat="43.417691740271316" lon="11.34681334160006"><ele>511.0</ele><time>2026-04-11T05:46:57.999Z</time></trkpt><trkpt lat="43.41777330701542" lon="11.346745996565994"><ele>511.0</ele><time>2026-04-11T05:46:59.999Z</time></trkpt><trkpt lat="43.41785576785529" lon="11.346680937203184"><ele>511.0</ele><time>2026-04-11T05:47:01.999Z</time></trkpt><trkpt lat="43.41794113741822" lon="11.346619726201395"><ele>511.0</ele><time>2026-04-11T05:47:03.999Z</time></trkpt><trkpt lat="43.41803217887066" lon="11.346576095055068"><ele>508.6</ele><time>2026-04-11T05:47:05.999Z</time></trkpt><trkpt lat="43.41812310272596" lon="11.346538170170609"><ele>506.20000000000005</ele><time>2026-04-11T05:47:07.999Z</time></trkpt><trkpt lat="43.41821492124533" lon="11.346499433468079"><ele>503.79999999999995</ele><time>2026-04-11T05:47:09.999Z</time></trkpt><trkpt lat="43.41830951359737" lon="11.346474285549107"><ele>501.4</ele><time>2026-04-11T05:47:11.999Z</time></trkpt><trkpt lat="43.41840559728387" lon="11.346442182498418"><ele>499.0</ele><time>2026-04-11T05:47:13.999Z</time></trkpt><trkpt lat="43.41850557142514" lon="11.346420418381054"><ele>499.0</ele><time>2026-04-11T05:47:15.999Z</time></trkpt><trkpt lat="43.41860017892426" lon="11.346394883587358"><ele>499.0</ele><time>2026-04-11T05:47:17.999Z</time></trkpt><trkpt lat="43.418697856978405" lon="11.346384069156885"><ele>499.0</ele><time>2026-04-11T05:47:19.999Z</time></trkpt><trkpt lat="43.418799006613014" lon="11.346400349547006"><ele>499.0</ele><time>2026-04-11T05:47:21.999Z</time></trkpt><trkpt lat="43.41889257143206" lon="11.346463725317914"><ele>499.0</ele><time>2026-04-11T05:47:23.999Z</time></trkpt><trkpt lat="43.41897790303233" lon="11.346541672619683"><ele>499.4</ele><time>2026-04-11T05:47:25.999Z</time></trkpt><trkpt lat="43.41903917785793" lon="11.346660837256133"><ele>499.79999999999995</ele><time>2026-04-11T05:47:27.999Z</time></trkpt><trkpt lat="43.41912032423649" lon="11.346731295909281"><ele>500.20000000000005</ele><time>2026-04-11T05:47:29.999Z</time></trkpt><trkpt lat="43.41919736064241" lon="11.346798186276011"><ele>500.6</ele><time>2026-04-11T05:47:31.999Z</time></trkpt><trkpt lat="43.419278056654676" lon="11.346861719749691"><ele>501.0</ele><time>2026-04-11T05:47:33.999Z</time></trkpt><trkpt lat="43.419362645337436" lon="11.34692346683211"><ele>501.0</ele><time>2026-04-11T05:47:35.999Z</time></trkpt><trkpt lat="43.41945459703191" lon="11.346976058851146"><ele>501.0</ele><time>2026-04-11T05:47:37.998Z</time></trkpt><trkpt lat="43.41956016637525" lon="11.347001307717067"><ele>501.0</ele><time>2026-04-11T05:47:39.998Z</time></trkpt><trkpt lat="43.419663079688384" lon="11.347005434398097"><ele>501.0</ele><time>2026-04-11T05:47:41.998Z</time></trkpt><trkpt lat="43.41976522962697" lon="11.346995319164018"><ele>501.0</ele><time>2026-04-11T05:47:43.998Z</time></trkpt><trkpt lat="43.41986074784972" lon="11.346983302919023"><ele>502.20000000000005</ele><time>2026-04-11T05:47:45.998Z</time></trkpt><trkpt lat="43.41995340487981" lon="11.346986221829793"><ele>503.40000000000003</ele><time>2026-04-11T05:47:47.998Z</time></trkpt><trkpt lat="43.42004783823894" lon="11.347004070037928"><ele>504.6</ele><time>2026-04-11T05:47:49.998Z</time></trkpt><trkpt lat="43.420142930315116" lon="11.346984498226995"><ele>505.8</ele><time>2026-04-11T05:47:51.998Z</time></trkpt><trkpt lat="43.42022663801059" lon="11.347022696624203"><ele>507.0</ele><time>2026-04-11T05:47:53.998Z</time></trkpt><trkpt lat="43.4203055469082" lon="11.347076594416754"><ele>507.0</ele><time>2026-04-11T05:47:55.998Z</time></trkpt><trkpt lat="43.420381366582184" lon="11.347137495538126"><ele>507.0</ele><time>2026-04-11T05:47:57.998Z</time></trkpt><trkpt lat="43.42045870148416" lon="11.347194222585335"><ele>507.0</ele><time>2026-04-11T05:47:59.998Z</time></trkpt><trkpt lat="43.42054284739163" lon="11.34722006565933"><ele>507.0</ele><time>2026-04-11T05:48:01.998Z</time></trkpt><trkpt lat="43.42063118974047" lon="11.347208205874509"><ele>507.0</ele><time>2026-04-11T05:48:03.998Z</time></trkpt><trkpt lat="43.42071907507931" lon="11.347201274732136"><ele>507.0</ele><time>2026-04-11T05:48:05.998Z</time></trkpt><trkpt lat="43.420804510501476" lon="11.347209299280571"><ele>506.0</ele><time>2026-04-11T05:48:07.998Z</time></trkpt><trkpt lat="43.42088846041231" lon="11.347213526827787"><ele>505.0</ele><time>2026-04-11T05:48:09.998Z</time></trkpt><trkpt lat="43.42097848552121" lon="11.347223811193095"><ele>504.0</ele><time>2026-04-11T05:48:11.998Z</time></trkpt><trkpt lat="43.42106504334132" lon="11.347248250638517"><ele>503.0</ele><time>2026-04-11T05:48:13.998Z</time></trkpt><trkpt lat="43.42114591063995" lon="11.347266188105"><ele>502.0</ele><time>2026-04-11T05:48:15.998Z</time></trkpt><trkpt lat="43.421219802836355" lon="11.347306849885175"><ele>501.0</ele><time>2026-04-11T05:48:17.998Z</time></trkpt><trkpt lat="43.42128194559632" lon="11.347374669511472"><ele>501.0</ele><time>2026-04-11T05:48:19.998Z</time></trkpt><trkpt lat="43.42134340308852" lon="11.347451616419468"><ele>501.0</ele><time>2026-04-11T05:48:22Z</time></trkpt><trkpt lat="43.42138521971815" lon="11.347526073537464"><ele>501.0</ele><time>2026-04-11T05:48:24Z</time></trkpt><trkpt lat="43.42141735297347" lon="11.347601207627259"><ele>501.0</ele><time>2026-04-11T05:48:26Z</time></trkpt><trkpt lat="43.42147142847258" lon="11.347689280243268"><ele>501.0</ele><time>2026-04-11T05:48:29Z</time></trkpt><trkpt lat="43.42150409887131" lon="11.347775273552132"><ele>501.0</ele><time>2026-04-11T05:48:33Z</time></trkpt><trkpt lat="43.42144754629307" lon="11.34788150434588"><ele>501.0</ele><time>2026-04-11T05:53:04.999Z</time></trkpt><trkpt lat="43.42146670771306" lon="11.34778133581918"><ele>501.0</ele><time>2026-04-11T05:59:47.999Z</time></trkpt><trkpt lat="43.42141178730317" lon="11.347726732738852"><ele>501.0</ele><time>2026-04-11T05:59:50.999Z</time></trkpt><trkpt lat="43.42139446309435" lon="11.347839478593094"><ele>501.0</ele><time>2026-04-11T05:59:52.999Z</time></trkpt><trkpt lat="43.42141418653587" lon="11.34797853426508"><ele>501.0</ele><time>2026-04-11T05:59:54.999Z</time></trkpt><trkpt lat="43.42141330740948" lon="11.34813117393378"><ele>501.0</ele><time>2026-04-11T05:59:56.999Z</time></trkpt><trkpt lat="43.42139722288409" lon="11.348257746893207"><ele>501.5</ele><time>2026-04-11T05:59:58.999Z</time></trkpt><trkpt lat="43.42137892167003" lon="11.348376677700394"><ele>502.0</ele><time>2026-04-11T06:00:00.999Z</time></trkpt><trkpt lat="43.42132835629698" lon="11.348516074313503"><ele>502.5</ele><time>2026-04-11T06:00:02.999Z</time></trkpt><trkpt lat="43.421316827340554" lon="11.348602935088921"><ele>503.0</ele><time>2026-04-11T06:00:03.999Z</time></trkpt><trkpt lat="43.42130773419813" lon="11.348693148290915"><ele>503.5</ele><time>2026-04-11T06:00:04.999Z</time></trkpt><trkpt lat="43.421300493693806" lon="11.348780944403218"><ele>504.0</ele><time>2026-04-11T06:00:05.999Z</time></trkpt><trkpt lat="43.4212938801669" lon="11.348961830999302"><ele>503.0</ele><time>2026-04-11T06:00:07.999Z</time></trkpt><trkpt lat="43.421295038902265" lon="11.349056242858545"><ele>502.0</ele><time>2026-04-11T06:00:08.999Z</time></trkpt><trkpt lat="43.421297451238075" lon="11.3491492838034"><ele>501.0</ele><time>2026-04-11T06:00:09.999Z</time></trkpt><trkpt lat="43.421302481067144" lon="11.349239484177684"><ele>500.0</ele><time>2026-04-11T06:00:10.999Z</time></trkpt><trkpt lat="43.421323266764766" lon="11.349394913203946"><ele>499.0</ele><time>2026-04-11T06:00:12.999Z</time></trkpt><trkpt lat="43.42137914432277" lon="11.349538957538345"><ele>498.0</ele><time>2026-04-11T06:00:14.999Z</time></trkpt><trkpt lat="43.42146533717161" lon="11.349567029438138"><ele>498.0</ele><time>2026-04-11T06:00:15.999Z</time></trkpt><trkpt lat="43.42152952430834" lon="11.349597029261862"><ele>497.99999999999994</ele><time>2026-04-11T06:00:16.999Z</time></trkpt><trkpt lat="43.421603028604856" lon="11.349596149136843"><ele>498.0</ele><time>2026-04-11T06:00:17.999Z</time></trkpt><trkpt lat="43.42167573586968" lon="11.349574782381136"><ele>498.0</ele><time>2026-04-11T06:00:18.999Z</time></trkpt><trkpt lat="43.421749304155206" lon="11.349552803762093"><ele>497.99999999999994</ele><time>2026-04-11T06:00:19.999Z</time></trkpt><trkpt lat="43.421828874478216" lon="11.34953595903181"><ele>498.0</ele><time>2026-04-11T06:00:20.999Z</time></trkpt><trkpt lat="43.42189608382483" lon="11.349554984295375"><ele>498.0</ele><time>2026-04-11T06:00:21.999Z</time></trkpt><trkpt lat="43.421957783294935" lon="11.349597399062773"><ele>498.0</ele><time>2026-04-11T06:00:22.999Z</time></trkpt><trkpt lat="43.42202142871617" lon="11.34963760458573"><ele>498.0</ele><time>2026-04-11T06:00:23.999Z</time></trkpt><trkpt lat="43.42210582533102" lon="11.349747776896873"><ele>498.0</ele><time>2026-04-11T06:00:25.999Z</time></trkpt><trkpt lat="43.42215113453652" lon="11.349809287464007"><ele>498.0</ele><time>2026-04-11T06:00:26.998Z</time></trkpt><trkpt lat="43.42222564437735" lon="11.349888952409993"><ele>498.0</ele><time>2026-04-11T06:00:28.998Z</time></trkpt><trkpt lat="43.422281983920016" lon="11.349933137840646"><ele>498.0</ele><time>2026-04-11T06:00:30.998Z</time></trkpt><trkpt lat="43.42235549357975" lon="11.349981007543436"><ele>496.0</ele><time>2026-04-11T06:00:32.998Z</time></trkpt><trkpt lat="43.422433750383384" lon="11.350007448311265"><ele>493.99999999999994</ele><time>2026-04-11T06:00:35.998Z</time></trkpt><trkpt lat="43.422495818004826" lon="11.35006910325795"><ele>492.0</ele><time>2026-04-11T06:00:37.998Z</time></trkpt><trkpt lat="43.4225577812125" lon="11.350104079993406"><ele>490.0</ele><time>2026-04-11T06:00:39.998Z</time></trkpt><trkpt lat="43.42262450588016" lon="11.35012032758271"><ele>487.99999999999994</ele><time>2026-04-11T06:00:41.998Z</time></trkpt><trkpt lat="43.42267965714014" lon="11.350204553619205"><ele>486.0</ele><time>2026-04-11T06:00:43.998Z</time></trkpt><trkpt lat="43.42272810332068" lon="11.350272245781323"><ele>484.0</ele><time>2026-04-11T06:00:45.998Z</time></trkpt><trkpt lat="43.42276581118567" lon="11.350351249315638"><ele>484.00000000000006</ele><time>2026-04-11T06:00:48.998Z</time></trkpt><trkpt lat="43.42279397083453" lon="11.350432284519572"><ele>484.0</ele><time>2026-04-11T06:00:50.998Z</time></trkpt><trkpt lat="43.42281520721184" lon="11.350521205942552"><ele>484.0</ele><time>2026-04-11T06:00:52.998Z</time></trkpt><trkpt lat="43.42284941183298" lon="11.350624130893143"><ele>484.0</ele><time>2026-04-11T06:00:55Z</time></trkpt><trkpt lat="43.42291600545463" lon="11.350659742913928"><ele>484.00000000000006</ele><time>2026-04-11T06:00:57Z</time></trkpt><trkpt lat="43.42300730069483" lon="11.35066082185039"><ele>484.0</ele><time>2026-04-11T06:01:00Z</time></trkpt><trkpt lat="43.423099469162246" lon="11.350615469653832"><ele>482.4</ele><time>2026-04-11T06:01:02Z</time></trkpt><trkpt lat="43.423183041184885" lon="11.350505420319054"><ele>480.79999999999995</ele><time>2026-04-11T06:01:04Z</time></trkpt><trkpt lat="43.42325302008055" lon="11.350408959276091"><ele>479.20000000000005</ele><time>2026-04-11T06:01:06Z</time></trkpt><trkpt lat="43.42332806366747" lon="11.350351779054632"><ele>477.6</ele><time>2026-04-11T06:01:08Z</time></trkpt><trkpt lat="43.423415168542334" lon="11.35031293955905"><ele>476.0</ele><time>2026-04-11T06:01:10Z</time></trkpt><trkpt lat="43.42348798192021" lon="11.350283176954333"><ele>475.99999999999994</ele><time>2026-04-11T06:01:12Z</time></trkpt><trkpt lat="43.42356980718837" lon="11.350250574054487"><ele>476.0</ele><time>2026-04-11T06:01:14Z</time></trkpt><trkpt lat="43.42363155490409" lon="11.350228781855632"><ele>476.0</ele><time>2026-04-11T06:01:16Z</time></trkpt><trkpt lat="43.423713724041676" lon="11.350210016375595"><ele>476.0</ele><time>2026-04-11T06:01:19Z</time></trkpt><trkpt lat="43.42378425211531" lon="11.350206142819943"><ele>475.99999999999994</ele><time>2026-04-11T06:01:21Z</time></trkpt><trkpt lat="43.423851206594975" lon="11.350222898622311"><ele>476.0</ele><time>2026-04-11T06:01:23Z</time></trkpt><trkpt lat="43.423928654624206" lon="11.350291635114436"><ele>473.6</ele><time>2026-04-11T06:01:26Z</time></trkpt><trkpt lat="43.423966766527116" lon="11.350414312181673"><ele>471.20000000000005</ele><time>2026-04-11T06:01:28Z</time></trkpt><trkpt lat="43.4239746216184" lon="11.350551354778068"><ele>468.79999999999995</ele><time>2026-04-11T06:01:30Z</time></trkpt><trkpt lat="43.423969978724635" lon="11.350707446322968"><ele>466.4</ele><time>2026-04-11T06:01:32Z</time></trkpt><trkpt lat="43.423964179775986" lon="11.350864447397946"><ele>464.0</ele><time>2026-04-11T06:01:34Z</time></trkpt><trkpt lat="43.42395310875277" lon="11.35102279609461"><ele>461.25</ele><time>2026-04-11T06:01:36Z</time></trkpt><trkpt lat="43.423933490728174" lon="11.351172904146619"><ele>458.5</ele><time>2026-04-11T06:01:38Z</time></trkpt><trkpt lat="43.42390275520528" lon="11.351328336013378"><ele>455.75</ele><time>2026-04-11T06:01:39.999Z</time></trkpt><trkpt lat="43.42386447875735" lon="11.351486660208712"><ele>453.0</ele><time>2026-04-11T06:01:41.999Z</time></trkpt><trkpt lat="43.423822319182044" lon="11.351625289630478"><ele>452.0</ele><time>2026-04-11T06:01:43.999Z</time></trkpt><trkpt lat="43.42377571651979" lon="11.351748857080988"><ele>450.99999999999994</ele><time>2026-04-11T06:01:45.999Z</time></trkpt><trkpt lat="43.423725219737776" lon="11.351891859820675"><ele>449.99999999999994</ele><time>2026-04-11T06:01:47.999Z</time></trkpt><trkpt lat="43.423685649090885" lon="11.352036377824259"><ele>449.0</ele><time>2026-04-11T06:01:49.999Z</time></trkpt><trkpt lat="43.423663972469626" lon="11.352198708818458"><ele>448.0</ele><time>2026-04-11T06:01:51.999Z</time></trkpt><trkpt lat="43.42365786068196" lon="11.352342159907728"><ele>447.0</ele><time>2026-04-11T06:01:53.999Z</time></trkpt><trkpt lat="43.42366317158605" lon="11.352490345101446"><ele>445.99999999999994</ele><time>2026-04-11T06:01:55.999Z</time></trkpt><trkpt lat="43.42367994001513" lon="11.352648932947911"><ele>444.99999999999994</ele><time>2026-04-11T06:01:57.999Z</time></trkpt><trkpt lat="43.423689623100074" lon="11.35273614049856"><ele>444.0</ele><time>2026-04-11T06:01:58.999Z</time></trkpt><trkpt lat="43.42370731924048" lon="11.352895514581752"><ele>443.0</ele><time>2026-04-11T06:02:00.999Z</time></trkpt><trkpt lat="43.42372645771304" lon="11.353056616320822"><ele>441.0</ele><time>2026-04-11T06:02:02.999Z</time></trkpt><trkpt lat="43.42374557000443" lon="11.353210240064053"><ele>438.99999999999994</ele><time>2026-04-11T06:02:04.999Z</time></trkpt><trkpt lat="43.423766029151274" lon="11.353359071199767"><ele>436.99999999999994</ele><time>2026-04-11T06:02:06.999Z</time></trkpt><trkpt lat="43.42378678597659" lon="11.353510067992737"><ele>435.0</ele><time>2026-04-11T06:02:08.999Z</time></trkpt><trkpt lat="43.42380249688191" lon="11.353638889123102"><ele>433.0</ele><time>2026-04-11T06:02:10.999Z</time></trkpt><trkpt lat="43.423811909434825" lon="11.353740443279134"><ele>433.33333333333337</ele><time>2026-04-11T06:02:12.999Z</time></trkpt><trkpt lat="43.42382033800767" lon="11.353841888906956"><ele>433.6666666666667</ele><time>2026-04-11T06:02:15.999Z</time></trkpt><trkpt lat="43.423831901069136" lon="11.353960071468324"><ele>434.0</ele><time>2026-04-11T06:02:18.999Z</time></trkpt><trkpt lat="43.423849940840526" lon="11.354085740073728"><ele>434.33333333333337</ele><time>2026-04-11T06:02:20.999Z</time></trkpt><trkpt lat="43.423877105910826" lon="11.354192384826302"><ele>434.6666666666667</ele><time>2026-04-11T06:02:22.999Z</time></trkpt><trkpt lat="43.423907925444546" lon="11.354285594131692"><ele>435.0</ele><time>2026-04-11T06:02:24.999Z</time></trkpt><trkpt lat="43.423947105704436" lon="11.354378288777722"><ele>435.0</ele><time>2026-04-11T06:02:26.999Z</time></trkpt><trkpt lat="43.423998915706" lon="11.35447629977301"><ele>435.0</ele><time>2026-04-11T06:02:28.999Z</time></trkpt><trkpt lat="43.42405898074093" lon="11.354578803481841"><ele>435.0</ele><time>2026-04-11T06:02:30.999Z</time></trkpt><trkpt lat="43.42412752700057" lon="11.35468755266968"><ele>435.0</ele><time>2026-04-11T06:02:32.998Z</time></trkpt><trkpt lat="43.424179916208836" lon="11.354750966205664"><ele>435.0</ele><time>2026-04-11T06:02:33.998Z</time></trkpt><trkpt lat="43.424288216023726" lon="11.354814132297331"><ele>433.1666666666667</ele><time>2026-04-11T06:02:35.998Z</time></trkpt><trkpt lat="43.424393517694014" lon="11.354818746039616"><ele>431.33333333333337</ele><time>2026-04-11T06:02:37.998Z</time></trkpt><trkpt lat="43.42451684113764" lon="11.35484125708846"><ele>429.5</ele><time>2026-04-11T06:02:39.998Z</time></trkpt><trkpt lat="43.4245800968909" lon="11.354843378951035"><ele>427.6666666666667</ele><time>2026-04-11T06:02:40.998Z</time></trkpt><trkpt lat="43.42464417898425" lon="11.354845452490716"><ele>425.83333333333337</ele><time>2026-04-11T06:02:41.998Z</time></trkpt><trkpt lat="43.42470875137509" lon="11.354851843851026"><ele>424.0</ele><time>2026-04-11T06:02:42.998Z</time></trkpt><trkpt lat="43.42483231704416" lon="11.354862211714376"><ele>424.00000000000006</ele><time>2026-04-11T06:02:44.998Z</time></trkpt><trkpt lat="43.42493719126093" lon="11.354855979794353"><ele>424.0</ele><time>2026-04-11T06:02:46.998Z</time></trkpt><trkpt lat="43.42502145650428" lon="11.354773477105592"><ele>424.0</ele><time>2026-04-11T06:02:48.998Z</time></trkpt><trkpt lat="43.425041013338316" lon="11.35467171277104"><ele>424.0</ele><time>2026-04-11T06:02:49.998Z</time></trkpt><trkpt lat="43.42504987642849" lon="11.354570743741007"><ele>424.00000000000006</ele><time>2026-04-11T06:02:50.998Z</time></trkpt><trkpt lat="43.425077799741736" lon="11.35448490330081"><ele>424.0</ele><time>2026-04-11T06:02:51.998Z</time></trkpt><trkpt lat="43.425137541518666" lon="11.354408595371636"><ele>424.1666666666667</ele><time>2026-04-11T06:02:52.998Z</time></trkpt><trkpt lat="43.42522923083518" lon="11.354416191253963"><ele>424.33333333333337</ele><time>2026-04-11T06:02:53.998Z</time></trkpt><trkpt lat="43.4253322886826" lon="11.354427825279124"><ele>424.5</ele><time>2026-04-11T06:02:54.998Z</time></trkpt><trkpt lat="43.42541813333768" lon="11.354402448184134"><ele>424.66666666666663</ele><time>2026-04-11T06:02:55.998Z</time></trkpt><trkpt lat="43.425491752303536" lon="11.354394782973152"><ele>424.8333333333333</ele><time>2026-04-11T06:02:56.998Z</time></trkpt><trkpt lat="43.42556571835217" lon="11.354372825943305"><ele>425.0</ele><time>2026-04-11T06:02:57.998Z</time></trkpt><trkpt lat="43.42563674386342" lon="11.354311562161485"><ele>421.4</ele><time>2026-04-11T06:02:58.998Z</time></trkpt><trkpt lat="43.42570093576329" lon="11.354191443899524"><ele>417.8</ele><time>2026-04-11T06:03:00Z</time></trkpt><trkpt lat="43.42575136990119" lon="11.354063072136446"><ele>414.20000000000005</ele><time>2026-04-11T06:03:01Z</time></trkpt><trkpt lat="43.42579684095457" lon="11.353951685342645"><ele>410.6</ele><time>2026-04-11T06:03:02Z</time></trkpt><trkpt lat="43.42581955424231" lon="11.3538385576121"><ele>407.0</ele><time>2026-04-11T06:03:03Z</time></trkpt><trkpt lat="43.42581902424097" lon="11.353714247095763"><ele>405.66666666666663</ele><time>2026-04-11T06:03:04Z</time></trkpt><trkpt lat="43.42580959492607" lon="11.353596269281528"><ele>404.3333333333333</ele><time>2026-04-11T06:03:05Z</time></trkpt><trkpt lat="43.425796300042435" lon="11.353488768917307"><ele>403.0</ele><time>2026-04-11T06:03:06Z</time></trkpt><trkpt lat="43.42578177714023" lon="11.353387245264255"><ele>401.66666666666663</ele><time>2026-04-11T06:03:07Z</time></trkpt><trkpt lat="43.42577004332946" lon="11.353298334200566"><ele>400.3333333333333</ele><time>2026-04-11T06:03:08Z</time></trkpt><trkpt lat="43.42576578944356" lon="11.35315597942527"><ele>399.0</ele><time>2026-04-11T06:03:10Z</time></trkpt><trkpt lat="43.42577110537745" lon="11.353043549179006"><ele>399.4</ele><time>2026-04-11T06:03:12Z</time></trkpt><trkpt lat="43.42577895775875" lon="11.35292774212708"><ele>399.79999999999995</ele><time>2026-04-11T06:03:14Z</time></trkpt><trkpt lat="43.425800515863216" lon="11.352779888188024"><ele>400.20000000000005</ele><time>2026-04-11T06:03:16Z</time></trkpt><trkpt lat="43.42583166038743" lon="11.352617439024439"><ele>400.6</ele><time>2026-04-11T06:03:18Z</time></trkpt><trkpt lat="43.42584507695735" lon="11.3525280492827"><ele>401.0</ele><time>2026-04-11T06:03:19Z</time></trkpt><trkpt lat="43.425860455699414" lon="11.352421479052861"><ele>401.0</ele><time>2026-04-11T06:03:20Z</time></trkpt><trkpt lat="43.42588514576303" lon="11.352332804259946"><ele>401.0</ele><time>2026-04-11T06:03:21Z</time></trkpt><trkpt lat="43.42591479641728" lon="11.352241095349655"><ele>401.0</ele><time>2026-04-11T06:03:22Z</time></trkpt><trkpt lat="43.4259551953228" lon="11.352155592352535"><ele>401.0</ele><time>2026-04-11T06:03:23Z</time></trkpt><trkpt lat="43.42601505441784" lon="11.352105700440136"><ele>401.0</ele><time>2026-04-11T06:03:24Z</time></trkpt><trkpt lat="43.426068611620956" lon="11.352052427870623"><ele>401.0</ele><time>2026-04-11T06:03:25Z</time></trkpt><trkpt lat="43.42612262735962" lon="11.352005424690581"><ele>401.0</ele><time>2026-04-11T06:03:26Z</time></trkpt><trkpt lat="43.42622359309299" lon="11.35192269365186"><ele>401.8333333333333</ele><time>2026-04-11T06:03:28Z</time></trkpt><trkpt lat="43.42630708546248" lon="11.351841430648161"><ele>402.66666666666663</ele><time>2026-04-11T06:03:30Z</time></trkpt><trkpt lat="43.426384761437944" lon="11.351758371149014"><ele>403.5</ele><time>2026-04-11T06:03:32Z</time></trkpt><trkpt lat="43.426469120710415" lon="11.351664825954673"><ele>404.33333333333337</ele><time>2026-04-11T06:03:34Z</time></trkpt><trkpt lat="43.42652085829828" lon="11.351606217222074"><ele>405.1666666666667</ele><time>2026-04-11T06:03:35Z</time></trkpt><trkpt lat="43.42657004640469" lon="11.351541173804307"><ele>406.0</ele><time>2026-04-11T06:03:36Z</time></trkpt><trkpt lat="43.42660960340903" lon="11.351470902552807"><ele>403.6</ele><time>2026-04-11T06:03:37Z</time></trkpt><trkpt lat="43.42667116557934" lon="11.35131803545069"><ele>401.20000000000005</ele><time>2026-04-11T06:03:39Z</time></trkpt><trkpt lat="43.42670084663259" lon="11.351239069118476"><ele>398.79999999999995</ele><time>2026-04-11T06:03:40Z</time></trkpt><trkpt lat="43.42674980402849" lon="11.351111134931832"><ele>396.4</ele><time>2026-04-11T06:03:42Z</time></trkpt><trkpt lat="43.42679377041083" lon="11.350980452365995"><ele>394.0</ele><time>2026-04-11T06:03:44Z</time></trkpt><trkpt lat="43.42682604251097" lon="11.350904544149557"><ele>394.00000000000006</ele><time>2026-04-11T06:03:45Z</time></trkpt><trkpt lat="43.42686847871079" lon="11.3507807147339"><ele>394.0</ele><time>2026-04-11T06:03:47Z</time></trkpt><trkpt lat="43.4269196389041" lon="11.35069358116787"><ele>394.0</ele><time>2026-04-11T06:03:48.999Z</time></trkpt><trkpt lat="43.42696449918274" lon="11.350619709633229"><ele>394.0</ele><time>2026-04-11T06:03:50.999Z</time></trkpt><trkpt lat="43.427015111724195" lon="11.35054468381638"><ele>394.00000000000006</ele><time>2026-04-11T06:03:52.999Z</time></trkpt><trkpt lat="43.42706994152349" lon="11.350489376282741"><ele>394.0</ele><time>2026-04-11T06:03:54.999Z</time></trkpt><trkpt lat="43.427169241827016" lon="11.350446567624783"><ele>390.79999999999995</ele><time>2026-04-11T06:03:56.999Z</time></trkpt><trkpt lat="43.427243959816735" lon="11.35042566329691"><ele>387.59999999999997</ele><time>2026-04-11T06:03:57.999Z</time></trkpt><trkpt lat="43.427330303784466" lon="11.350402463771053"><ele>384.4</ele><time>2026-04-11T06:03:58.999Z</time></trkpt><trkpt lat="43.42742500215948" lon="11.350373523138359"><ele>381.2</ele><time>2026-04-11T06:03:59.999Z</time></trkpt><trkpt lat="43.42752235718803" lon="11.35034377065775"><ele>378.0</ele><time>2026-04-11T06:04:00.999Z</time></trkpt><trkpt lat="43.427620203624556" lon="11.350311348226096"><ele>378.0</ele><time>2026-04-11T06:04:01.999Z</time></trkpt><trkpt lat="43.42772100748854" lon="11.350260910277205"><ele>378.0</ele><time>2026-04-11T06:04:02.999Z</time></trkpt><trkpt lat="43.42780824023359" lon="11.35020138393834"><ele>378.0</ele><time>2026-04-11T06:04:03.999Z</time></trkpt><trkpt lat="43.427887714732904" lon="11.350138647168643"><ele>378.0</ele><time>2026-04-11T06:04:04.999Z</time></trkpt><trkpt lat="43.42796472831201" lon="11.350079031849651"><ele>378.0</ele><time>2026-04-11T06:04:05.999Z</time></trkpt><trkpt lat="43.42803239152746" lon="11.350007076523811"><ele>377.8333333333333</ele><time>2026-04-11T06:04:06.999Z</time></trkpt><trkpt lat="43.42810966807169" lon="11.349977940987587"><ele>377.6666666666667</ele><time>2026-04-11T06:04:07.999Z</time></trkpt><trkpt lat="43.4281877767399" lon="11.349963418277627"><ele>377.5</ele><time>2026-04-11T06:04:08.999Z</time></trkpt><trkpt lat="43.42826052168482" lon="11.34995740746706"><ele>377.33333333333337</ele><time>2026-04-11T06:04:09.999Z</time></trkpt><trkpt lat="43.42832556425064" lon="11.349952924197563"><ele>377.1666666666667</ele><time>2026-04-11T06:04:10.999Z</time></trkpt><trkpt lat="43.428387007393994" lon="11.349977171811442"><ele>377.0</ele><time>2026-04-11T06:04:11.999Z</time></trkpt><trkpt lat="43.42850185857385" lon="11.350003608660348"><ele>377.0</ele><time>2026-04-11T06:04:13.999Z</time></trkpt><trkpt lat="43.42859428220069" lon="11.35006795553882"><ele>377.0</ele><time>2026-04-11T06:04:15.999Z</time></trkpt><trkpt lat="43.42868612327155" lon="11.350147414152131"><ele>377.0</ele><time>2026-04-11T06:04:17.999Z</time></trkpt><trkpt lat="43.42876358505227" lon="11.350206766993821"><ele>377.0</ele><time>2026-04-11T06:04:19.999Z</time></trkpt><trkpt lat="43.42883875493241" lon="11.35026367128077"><ele>377.0</ele><time>2026-04-11T06:04:21.999Z</time></trkpt><trkpt lat="43.42891563437931" lon="11.350329238142155"><ele>377.0</ele><time>2026-04-11T06:04:23.999Z</time></trkpt><trkpt lat="43.42899169927689" lon="11.350377961883405"><ele>377.0</ele><time>2026-04-11T06:04:25.999Z</time></trkpt><trkpt lat="43.42907576145882" lon="11.350426402106784"><ele>377.0</ele><time>2026-04-11T06:04:27.999Z</time></trkpt><trkpt lat="43.42915474587954" lon="11.350483517687637"><ele>377.0</ele><time>2026-04-11T06:04:29.999Z</time></trkpt><trkpt lat="43.429164912938404" lon="11.350572755144405"><ele>377.0</ele><time>2026-04-11T06:04:30.999Z</time></trkpt><trkpt lat="43.42926602559491" lon="11.350560288875373"><ele>377.0</ele><time>2026-04-11T06:04:32.999Z</time></trkpt><trkpt lat="43.42934170988958" lon="11.350615441349168"><ele>377.33333333333337</ele><time>2026-04-11T06:04:34.999Z</time></trkpt><trkpt lat="43.4294090519899" lon="11.350671248086718"><ele>377.6666666666667</ele><time>2026-04-11T06:04:36.999Z</time></trkpt><trkpt lat="43.429475696453196" lon="11.35071440737107"><ele>378.0</ele><time>2026-04-11T06:04:38.998Z</time></trkpt><trkpt lat="43.42954071838468" lon="11.350756434594155"><ele>378.3333333333333</ele><time>2026-04-11T06:04:40.998Z</time></trkpt><trkpt lat="43.429602484898616" lon="11.350805247210747"><ele>378.66666666666663</ele><time>2026-04-11T06:04:42.998Z</time></trkpt><trkpt lat="43.42966939698184" lon="11.350836448874869"><ele>379.0</ele><time>2026-04-11T06:04:44.998Z</time></trkpt><trkpt lat="43.429757596784874" lon="11.35085404788845"><ele>379.00000000000006</ele><time>2026-04-11T06:04:47.998Z</time></trkpt><trkpt lat="43.42983263466343" lon="11.350850608501853"><ele>379.0</ele><time>2026-04-11T06:04:50.998Z</time></trkpt><trkpt lat="43.42990191666449" lon="11.350841711662309"><ele>379.0</ele><time>2026-04-11T06:04:53.998Z</time></trkpt><trkpt lat="43.42996971644464" lon="11.350826722725254"><ele>379.0</ele><time>2026-04-11T06:04:56.998Z</time></trkpt><trkpt lat="43.43003650050287" lon="11.35082498085038"><ele>379.0</ele><time>2026-04-11T06:04:59.998Z</time></trkpt><trkpt lat="43.43010893102978" lon="11.35081166930025"><ele>379.00000000000006</ele><time>2026-04-11T06:05:02.998Z</time></trkpt><trkpt lat="43.43019060471198" lon="11.350809705944938"><ele>379.0</ele><time>2026-04-11T06:05:06Z</time></trkpt><trkpt lat="43.430268407785874" lon="11.350807708689217"><ele>379.0</ele><time>2026-04-11T06:05:09Z</time></trkpt><trkpt lat="43.43035927894252" lon="11.350816153271357"><ele>379.0</ele><time>2026-04-11T06:05:12Z</time></trkpt><trkpt lat="43.430466578070764" lon="11.350837654524227"><ele>379.0</ele><time>2026-04-11T06:05:14Z</time></trkpt><trkpt lat="43.430531191963105" lon="11.350854922599744"><ele>379.0</ele><time>2026-04-11T06:05:16Z</time></trkpt><trkpt lat="43.43060932661396" lon="11.350882062647615"><ele>379.0</ele><time>2026-04-11T06:05:19Z</time></trkpt><trkpt lat="43.43068736276024" lon="11.350914942565034"><ele>379.0</ele><time>2026-04-11T06:05:22Z</time></trkpt><trkpt lat="43.43077877766342" lon="11.35091637309187"><ele>379.5</ele><time>2026-04-11T06:05:25Z</time></trkpt><trkpt lat="43.430870479376075" lon="11.350907478516259"><ele>380.0</ele><time>2026-04-11T06:05:28Z</time></trkpt><trkpt lat="43.4309512023014" lon="11.35089128277603"><ele>380.5</ele><time>2026-04-11T06:05:30Z</time></trkpt><trkpt lat="43.43101592965875" lon="11.350857851767218"><ele>381.0</ele><time>2026-04-11T06:05:32Z</time></trkpt><trkpt lat="43.43107746607621" lon="11.350811594528826"><ele>381.5</ele><time>2026-04-11T06:05:34Z</time></trkpt><trkpt lat="43.43115136671828" lon="11.350742287235976"><ele>382.0</ele><time>2026-04-11T06:05:37Z</time></trkpt><trkpt lat="43.43120726688025" lon="11.350689704894798"><ele>382.0</ele><time>2026-04-11T06:05:40Z</time></trkpt><trkpt lat="43.431263958256054" lon="11.350651377597234"><ele>382.0</ele><time>2026-04-11T06:05:43Z</time></trkpt><trkpt lat="43.43134062617634" lon="11.350620237042174"><ele>382.0</ele><time>2026-04-11T06:05:48Z</time></trkpt><trkpt lat="43.431419152067065" lon="11.350650903183173"><ele>382.0</ele><time>2026-04-11T06:05:52Z</time></trkpt><trkpt lat="43.431476563868046" lon="11.350711598929923"><ele>382.0</ele><time>2026-04-11T06:05:56Z</time></trkpt><trkpt lat="43.43152027539762" lon="11.35078477521103"><ele>382.0</ele><time>2026-04-11T06:05:59.999Z</time></trkpt><trkpt lat="43.43157135447691" lon="11.350871622122074"><ele>382.0</ele><time>2026-04-11T06:06:03.999Z</time></trkpt><trkpt lat="43.43162578816457" lon="11.350947540128374"><ele>384.0</ele><time>2026-04-11T06:06:07.999Z</time></trkpt><trkpt lat="43.43167346284028" lon="11.351004887638643"><ele>386.0</ele><time>2026-04-11T06:06:10.999Z</time></trkpt><trkpt lat="43.43174519096705" lon="11.35107562996952"><ele>388.0</ele><time>2026-04-11T06:06:14.999Z</time></trkpt><trkpt lat="43.43179944334532" lon="11.351127476275622"><ele>390.0</ele><time>2026-04-11T06:06:17.999Z</time></trkpt><trkpt lat="43.43185366139062" lon="11.351173447266223"><ele>392.0</ele><time>2026-04-11T06:06:20.999Z</time></trkpt><trkpt lat="43.43191352767837" lon="11.351244788861926"><ele>394.0</ele><time>2026-04-11T06:06:23.999Z</time></trkpt><trkpt lat="43.43197758818785" lon="11.35129677441691"><ele>396.0</ele><time>2026-04-11T06:06:26.999Z</time></trkpt><trkpt lat="43.43203984271556" lon="11.351314456711915"><ele>396.1666666666667</ele><time>2026-04-11T06:06:28.999Z</time></trkpt><trkpt lat="43.432142860997004" lon="11.351341867904708"><ele>396.33333333333337</ele><time>2026-04-11T06:06:30.999Z</time></trkpt><trkpt lat="43.432225998662396" lon="11.351354400746493"><ele>396.5</ele><time>2026-04-11T06:06:32.999Z</time></trkpt><trkpt lat="43.43229205077006" lon="11.351361167638489"><ele>396.6666666666667</ele><time>2026-04-11T06:06:34.999Z</time></trkpt><trkpt lat="43.43239222892317" lon="11.351376468010521"><ele>396.83333333333337</ele><time>2026-04-11T06:06:37.999Z</time></trkpt><trkpt lat="43.43248057946358" lon="11.351393912700631"><ele>397.0</ele><time>2026-04-11T06:06:39.999Z</time></trkpt><trkpt lat="43.43259787319129" lon="11.351400013318187"><ele>397.0</ele><time>2026-04-11T06:06:41.999Z</time></trkpt><trkpt lat="43.43271429209486" lon="11.351379770567714"><ele>397.0</ele><time>2026-04-11T06:06:43.999Z</time></trkpt><trkpt lat="43.432822430542544" lon="11.35132999444783"><ele>397.0</ele><time>2026-04-11T06:06:45.999Z</time></trkpt><trkpt lat="43.43292404835974" lon="11.351257059709347"><ele>397.0</ele><time>2026-04-11T06:06:47.999Z</time></trkpt><trkpt lat="43.43303417593332" lon="11.351171414239984"><ele>394.33333333333337</ele><time>2026-04-11T06:06:49.998Z</time></trkpt><trkpt lat="43.433092310196514" lon="11.351124881309305"><ele>391.6666666666667</ele><time>2026-04-11T06:06:50.998Z</time></trkpt><trkpt lat="43.433151138270944" lon="11.351072969607905"><ele>389.0</ele><time>2026-04-11T06:06:51.998Z</time></trkpt><trkpt lat="43.43321715018085" lon="11.351013775009687"><ele>386.33333333333337</ele><time>2026-04-11T06:06:52.998Z</time></trkpt><trkpt lat="43.43328867636166" lon="11.350952220542405"><ele>383.6666666666667</ele><time>2026-04-11T06:06:53.998Z</time></trkpt><trkpt lat="43.43336179308107" lon="11.350889975626643"><ele>381.0</ele><time>2026-04-11T06:06:54.998Z</time></trkpt><trkpt lat="43.433435548611016" lon="11.350827330648885"><ele>381.0</ele><time>2026-04-11T06:06:55.998Z</time></trkpt><trkpt lat="43.43350242611832" lon="11.35075838694086"><ele>381.0</ele><time>2026-04-11T06:06:56.998Z</time></trkpt><trkpt lat="43.433565863556005" lon="11.350690645652033"><ele>381.0</ele><time>2026-04-11T06:06:57.998Z</time></trkpt><trkpt lat="43.43362779079577" lon="11.350625448290838"><ele>381.0</ele><time>2026-04-11T06:06:58.998Z</time></trkpt><trkpt lat="43.43368419334526" lon="11.350558585971209"><ele>381.0</ele><time>2026-04-11T06:06:59.998Z</time></trkpt><trkpt lat="43.433736892517814" lon="11.350492916539675"><ele>381.0</ele><time>2026-04-11T06:07:00.998Z</time></trkpt><trkpt lat="43.433794366102035" lon="11.35043044564473"><ele>381.1666666666667</ele><time>2026-04-11T06:07:01.998Z</time></trkpt><trkpt lat="43.43385096391031" lon="11.350362969743669"><ele>381.3333333333333</ele><time>2026-04-11T06:07:02.998Z</time></trkpt><trkpt lat="43.433908284674835" lon="11.3502950673763"><ele>381.5</ele><time>2026-04-11T06:07:03.998Z</time></trkpt><trkpt lat="43.4339705635826" lon="11.350220328306907"><ele>381.66666666666663</ele><time>2026-04-11T06:07:04.998Z</time></trkpt><trkpt lat="43.43403538503381" lon="11.350146824935011"><ele>381.8333333333333</ele><time>2026-04-11T06:07:05.998Z</time></trkpt><trkpt lat="43.43410044607218" lon="11.350069947912603"><ele>382.0</ele><time>2026-04-11T06:07:06.998Z</time></trkpt><trkpt lat="43.434162447465454" lon="11.349998113838074"><ele>382.0</ele><time>2026-04-11T06:07:07.998Z</time></trkpt><trkpt lat="43.43421939289148" lon="11.34992941122468"><ele>382.0</ele><time>2026-04-11T06:07:08.998Z</time></trkpt><trkpt lat="43.434270597391716" lon="11.349859292795085"><ele>382.0</ele><time>2026-04-11T06:07:09.998Z</time></trkpt><trkpt lat="43.43431310653718" lon="11.349785020619287"><ele>382.0</ele><time>2026-04-11T06:07:10.998Z</time></trkpt><trkpt lat="43.43434910926254" lon="11.34970970806352"><ele>382.0</ele><time>2026-04-11T06:07:12Z</time></trkpt><trkpt lat="43.434380539730114" lon="11.349631028364161"><ele>382.0</ele><time>2026-04-11T06:07:13Z</time></trkpt><trkpt lat="43.43441228036855" lon="11.349551113523976"><ele>382.0</ele><time>2026-04-11T06:07:14Z</time></trkpt><trkpt lat="43.43444488079533" lon="11.349463694003733"><ele>383.66666666666663</ele><time>2026-04-11T06:07:15Z</time></trkpt><trkpt lat="43.434476072860726" lon="11.34937168889514"><ele>385.3333333333333</ele><time>2026-04-11T06:07:16Z</time></trkpt><trkpt lat="43.434505732346096" lon="11.34927422443263"><ele>387.0</ele><time>2026-04-11T06:07:17Z</time></trkpt><trkpt lat="43.43453658700443" lon="11.349176752867576"><ele>388.66666666666663</ele><time>2026-04-11T06:07:18Z</time></trkpt><trkpt lat="43.43456828112479" lon="11.349092393104149"><ele>390.3333333333333</ele><time>2026-04-11T06:07:19Z</time></trkpt><trkpt lat="43.434589389204305" lon="11.349009966936048"><ele>392.0</ele><time>2026-04-11T06:07:20Z</time></trkpt><trkpt lat="43.434634969591734" lon="11.348864906555892"><ele>390.40000000000003</ele><time>2026-04-11T06:07:22Z</time></trkpt><trkpt lat="43.434704114723694" lon="11.348753657601117"><ele>388.8</ele><time>2026-04-11T06:07:24Z</time></trkpt><trkpt lat="43.434798411030435" lon="11.348676649636063"><ele>387.2</ele><time>2026-04-11T06:07:26Z</time></trkpt><trkpt lat="43.43486292827717" lon="11.34865614237894"><ele>385.6</ele><time>2026-04-11T06:07:27Z</time></trkpt><trkpt lat="43.434974895171244" lon="11.348691068777654"><ele>384.0</ele><time>2026-04-11T06:07:29Z</time></trkpt><trkpt lat="43.435064196715665" lon="11.348745182378211"><ele>384.0</ele><time>2026-04-11T06:07:31Z</time></trkpt><trkpt lat="43.435137815695754" lon="11.348770583133893"><ele>384.0</ele><time>2026-04-11T06:07:33Z</time></trkpt><trkpt lat="43.43521307501693" lon="11.348782180813494"><ele>384.0</ele><time>2026-04-11T06:07:35Z</time></trkpt><trkpt lat="43.43528597164083" lon="11.348778239110827"><ele>384.0</ele><time>2026-04-11T06:07:37Z</time></trkpt><trkpt lat="43.435367713525174" lon="11.348748786436207"><ele>384.0</ele><time>2026-04-11T06:07:39Z</time></trkpt><trkpt lat="43.435460163953685" lon="11.348723696049051"><ele>384.0</ele><time>2026-04-11T06:07:41Z</time></trkpt><trkpt lat="43.43554296050645" lon="11.348699386158358"><ele>383.8333333333333</ele><time>2026-04-11T06:07:44Z</time></trkpt><trkpt lat="43.4356273343119" lon="11.348673793002181"><ele>383.6666666666667</ele><time>2026-04-11T06:07:45Z</time></trkpt><trkpt lat="43.43571563981068" lon="11.348635003935353"><ele>383.5</ele><time>2026-04-11T06:07:47Z</time></trkpt><trkpt lat="43.43580202858138" lon="11.348629546413191"><ele>383.33333333333337</ele><time>2026-04-11T06:07:49Z</time></trkpt><trkpt lat="43.43589085343338" lon="11.348650751261129"><ele>383.1666666666667</ele><time>2026-04-11T06:07:51Z</time></trkpt><trkpt lat="43.4359656059441" lon="11.348676856627176"><ele>383.0</ele><time>2026-04-11T06:07:53Z</time></trkpt><trkpt lat="43.43603421044057" lon="11.348702819488555"><ele>383.0</ele><time>2026-04-11T06:07:55Z</time></trkpt><trkpt lat="43.436116091849435" lon="11.34874332229706"><ele>383.0</ele><time>2026-04-11T06:07:57Z</time></trkpt><trkpt lat="43.43617394297128" lon="11.348779812437709"><ele>383.0</ele><time>2026-04-11T06:07:59Z</time></trkpt><trkpt lat="43.43625938382373" lon="11.348846492519426"><ele>383.0</ele><time>2026-04-11T06:08:02Z</time></trkpt><trkpt lat="43.43632632476055" lon="11.348906027679998"><ele>383.0</ele><time>2026-04-11T06:08:03.999Z</time></trkpt><trkpt lat="43.436408042510955" lon="11.348972633580155"><ele>383.0</ele><time>2026-04-11T06:08:05.999Z</time></trkpt><trkpt lat="43.43647758464459" lon="11.349070853691666"><ele>381.0</ele><time>2026-04-11T06:08:07.999Z</time></trkpt><trkpt lat="43.43655978021026" lon="11.349144818268401"><ele>379.0</ele><time>2026-04-11T06:08:09.999Z</time></trkpt><trkpt lat="43.43663462818297" lon="11.349241326949393"><ele>377.0</ele><time>2026-04-11T06:08:11.999Z</time></trkpt><trkpt lat="43.43672496468974" lon="11.349324935571794"><ele>375.0</ele><time>2026-04-11T06:08:13.999Z</time></trkpt><trkpt lat="43.43684136159662" lon="11.349360618823656"><ele>373.0</ele><time>2026-04-11T06:08:15.999Z</time></trkpt><trkpt lat="43.43694955721506" lon="11.349342031254444"><ele>373.0</ele><time>2026-04-11T06:08:17.999Z</time></trkpt><trkpt lat="43.437056517864775" lon="11.349270627683357"><ele>373.0</ele><time>2026-04-11T06:08:19.999Z</time></trkpt><trkpt lat="43.43710624314711" lon="11.349210530492739"><ele>373.0</ele><time>2026-04-11T06:08:20.999Z</time></trkpt><trkpt lat="43.437140390856165" lon="11.349131826769485"><ele>373.0</ele><time>2026-04-11T06:08:21.999Z</time></trkpt><trkpt lat="43.437165913630864" lon="11.34905054074062"><ele>373.0</ele><time>2026-04-11T06:08:22.999Z</time></trkpt><trkpt lat="43.437193682651724" lon="11.348969286620001"><ele>373.0</ele><time>2026-04-11T06:08:23.999Z</time></trkpt><trkpt lat="43.43721859668276" lon="11.348882489436539"><ele>373.0</ele><time>2026-04-11T06:08:24.999Z</time></trkpt><trkpt lat="43.4372403188848" lon="11.348799475456895"><ele>373.79999999999995</ele><time>2026-04-11T06:08:25.999Z</time></trkpt><trkpt lat="43.4372614715957" lon="11.348717554027834"><ele>374.6</ele><time>2026-04-11T06:08:26.999Z</time></trkpt><trkpt lat="43.437300477632526" lon="11.348569786518334"><ele>375.4</ele><time>2026-04-11T06:08:28.999Z</time></trkpt><trkpt lat="43.4373649450674" lon="11.348452729722084"><ele>376.20000000000005</ele><time>2026-04-11T06:08:30.999Z</time></trkpt><trkpt lat="43.43744199194347" lon="11.34836720028229"><ele>377.0</ele><time>2026-04-11T06:08:32.999Z</time></trkpt><trkpt lat="43.43753559378345" lon="11.348332800131509"><ele>377.0</ele><time>2026-04-11T06:08:34.999Z</time></trkpt><trkpt lat="43.437627627571274" lon="11.34833679248446"><ele>377.0</ele><time>2026-04-11T06:08:36.999Z</time></trkpt><trkpt lat="43.437706779622104" lon="11.348365184449687"><ele>377.0</ele><time>2026-04-11T06:08:38.999Z</time></trkpt><trkpt lat="43.437773863069246" lon="11.348420975961698"><ele>377.0</ele><time>2026-04-11T06:08:40.999Z</time></trkpt><trkpt lat="43.43782826666623" lon="11.348493464185005"><ele>377.0</ele><time>2026-04-11T06:08:42.999Z</time></trkpt><trkpt lat="43.43787130348913" lon="11.34858142093094"><ele>377.0</ele><time>2026-04-11T06:08:44.999Z</time></trkpt><trkpt lat="43.437897238249526" lon="11.348679088043871"><ele>377.0</ele><time>2026-04-11T06:08:46.999Z</time></trkpt><trkpt lat="43.4379253955834" lon="11.348778719405543"><ele>377.0</ele><time>2026-04-11T06:08:48.999Z</time></trkpt><trkpt lat="43.43794849084577" lon="11.348878596767952"><ele>377.0</ele><time>2026-04-11T06:08:50.999Z</time></trkpt><trkpt lat="43.4379716114637" lon="11.348976189566848"><ele>377.0</ele><time>2026-04-11T06:08:52.999Z</time></trkpt><trkpt lat="43.43798858005777" lon="11.34908075547642"><ele>377.0</ele><time>2026-04-11T06:08:54.998Z</time></trkpt><trkpt lat="43.43802026727564" lon="11.349176613448213"><ele>377.0</ele><time>2026-04-11T06:08:56.998Z</time></trkpt><trkpt lat="43.438046923022945" lon="11.349270361055446"><ele>376.71428571428567</ele><time>2026-04-11T06:08:58.998Z</time></trkpt><trkpt lat="43.438084568838626" lon="11.349353135769892"><ele>376.42857142857144</ele><time>2026-04-11T06:09:00.998Z</time></trkpt><trkpt lat="43.43812813033617" lon="11.349429799851642"><ele>376.1428571428571</ele><time>2026-04-11T06:09:02.998Z</time></trkpt><trkpt lat="43.43815963316647" lon="11.349510259890508"><ele>375.85714285714283</ele><time>2026-04-11T06:09:04.998Z</time></trkpt><trkpt lat="43.43820386797848" lon="11.349578482405564"><ele>375.57142857142856</ele><time>2026-04-11T06:09:06.998Z</time></trkpt><trkpt lat="43.43825150220231" lon="11.349642290545042"><ele>375.2857142857143</ele><time>2026-04-11T06:09:08.998Z</time></trkpt><trkpt lat="43.43830579270363" lon="11.349697358996838"><ele>375.0</ele><time>2026-04-11T06:09:10.998Z</time></trkpt><trkpt lat="43.438382856497064" lon="11.349768257539429"><ele>375.0</ele><time>2026-04-11T06:09:13.998Z</time></trkpt><trkpt lat="43.43844246550339" lon="11.349809756281978"><ele>375.0</ele><time>2026-04-11T06:09:15.998Z</time></trkpt><trkpt lat="43.438497593688496" lon="11.349858192681005"><ele>375.0</ele><time>2026-04-11T06:09:18Z</time></trkpt><trkpt lat="43.43856106543261" lon="11.349886568714087"><ele>375.0</ele><time>2026-04-11T06:09:20Z</time></trkpt><trkpt lat="43.43862437079753" lon="11.349914475241597"><ele>375.0</ele><time>2026-04-11T06:09:22Z</time></trkpt><trkpt lat="43.43870726033225" lon="11.349955827061779"><ele>375.0</ele><time>2026-04-11T06:09:24Z</time></trkpt><trkpt lat="43.43880981135613" lon="11.349996688964582"><ele>375.2857142857143</ele><time>2026-04-11T06:09:26Z</time></trkpt><trkpt lat="43.43887453712583" lon="11.350017916005074"><ele>375.57142857142856</ele><time>2026-04-11T06:09:27Z</time></trkpt><trkpt lat="43.43893897726025" lon="11.350042400092777"><ele>375.85714285714283</ele><time>2026-04-11T06:09:28Z</time></trkpt><trkpt lat="43.43901028786579" lon="11.350070383779782"><ele>376.1428571428571</ele><time>2026-04-11T06:09:30Z</time></trkpt><trkpt lat="43.439069292615564" lon="11.350100730048784"><ele>376.42857142857144</ele><time>2026-04-11T06:09:32Z</time></trkpt><trkpt lat="43.43914257297569" lon="11.35013240721661"><ele>376.71428571428567</ele><time>2026-04-11T06:09:35Z</time></trkpt><trkpt lat="43.43920394560428" lon="11.350152541001096"><ele>377.0</ele><time>2026-04-11T06:10:05Z</time></trkpt><trkpt lat="43.43929783807926" lon="11.350193905483426"><ele>377.0</ele><time>2026-04-11T06:10:07Z</time></trkpt><trkpt lat="43.43938142954036" lon="11.350231538933786"><ele>377.0</ele><time>2026-04-11T06:10:09Z</time></trkpt><trkpt lat="43.43944864774008" lon="11.350261018885211"><ele>377.0</ele><time>2026-04-11T06:10:10.999Z</time></trkpt><trkpt lat="43.43951254422405" lon="11.350289494601885"><ele>377.0</ele><time>2026-04-11T06:10:12.999Z</time></trkpt><trkpt lat="43.43962678249386" lon="11.350326749570225"><ele>377.0</ele><time>2026-04-11T06:10:14.999Z</time></trkpt><trkpt lat="43.439695816290985" lon="11.350364277613947"><ele>377.0</ele><time>2026-04-11T06:10:15.999Z</time></trkpt><trkpt lat="43.43975945202525" lon="11.35040510609162"><ele>376.83333333333337</ele><time>2026-04-11T06:10:16.999Z</time></trkpt><trkpt lat="43.43982106100491" lon="11.350450256845894"><ele>376.6666666666667</ele><time>2026-04-11T06:10:17.999Z</time></trkpt><trkpt lat="43.43990225271438" lon="11.350507856017739"><ele>376.5</ele><time>2026-04-11T06:10:18.999Z</time></trkpt><trkpt lat="43.43998177803428" lon="11.35056034752016"><ele>376.3333333333333</ele><time>2026-04-11T06:10:19.999Z</time></trkpt><trkpt lat="43.44005637267759" lon="11.350615306829475"><ele>376.16666666666663</ele><time>2026-04-11T06:10:20.999Z</time></trkpt><trkpt lat="43.44012499616367" lon="11.350683868042593"><ele>376.0</ele><time>2026-04-11T06:10:21.999Z</time></trkpt><trkpt lat="43.44018250799462" lon="11.350750886121636"><ele>375.5</ele><time>2026-04-11T06:10:22.999Z</time></trkpt><trkpt lat="43.440233406791016" lon="11.35082040664749"><ele>375.0</ele><time>2026-04-11T06:10:23.999Z</time></trkpt><trkpt lat="43.4402706609654" lon="11.350906188865153"><ele>374.5</ele><time>2026-04-11T06:10:24.999Z</time></trkpt><trkpt lat="43.440297759623476" lon="11.351008304974899"><ele>374.0</ele><time>2026-04-11T06:10:25.999Z</time></trkpt><trkpt lat="43.4403238115961" lon="11.351108065724468"><ele>373.5</ele><time>2026-04-11T06:10:26.999Z</time></trkpt><trkpt lat="43.44035976620344" lon="11.351209808228647"><ele>373.0</ele><time>2026-04-11T06:10:27.999Z</time></trkpt><trkpt lat="43.4403947504978" lon="11.351309284779978"><ele>373.0</ele><time>2026-04-11T06:10:28.999Z</time></trkpt><trkpt lat="43.4404251987278" lon="11.351406903668593"><ele>373.0</ele><time>2026-04-11T06:10:29.999Z</time></trkpt><trkpt lat="43.440461551833664" lon="11.351504035345421"><ele>373.0</ele><time>2026-04-11T06:10:30.999Z</time></trkpt><trkpt lat="43.4404995602007" lon="11.351586512444458"><ele>373.0</ele><time>2026-04-11T06:10:31.999Z</time></trkpt><trkpt lat="43.44054360419971" lon="11.351663932786048"><ele>373.0</ele><time>2026-04-11T06:10:32.999Z</time></trkpt><trkpt lat="43.44056840075619" lon="11.35175255280386"><ele>373.0</ele><time>2026-04-11T06:10:33.999Z</time></trkpt><trkpt lat="43.4405808286604" lon="11.351858956472457"><ele>373.0</ele><time>2026-04-11T06:10:34.999Z</time></trkpt><trkpt lat="43.44057980957224" lon="11.351969535343391"><ele>373.0</ele><time>2026-04-11T06:10:35.999Z</time></trkpt><trkpt lat="43.44058368007386" lon="11.352076337648851"><ele>373.0</ele><time>2026-04-11T06:10:36.999Z</time></trkpt><trkpt lat="43.440597535170916" lon="11.352177854598292"><ele>373.0</ele><time>2026-04-11T06:10:37.999Z</time></trkpt><trkpt lat="43.44061324852922" lon="11.35228338167389"><ele>373.0</ele><time>2026-04-11T06:10:38.999Z</time></trkpt><trkpt lat="43.440632105990126" lon="11.352387478123477"><ele>373.0</ele><time>2026-04-11T06:10:39.999Z</time></trkpt><trkpt lat="43.440655234626156" lon="11.352490233490002"><ele>373.0</ele><time>2026-04-11T06:10:40.999Z</time></trkpt><trkpt lat="43.44067492078168" lon="11.35259809658716"><ele>372.0</ele><time>2026-04-11T06:10:41.999Z</time></trkpt><trkpt lat="43.44068897095855" lon="11.352708035037464"><ele>371.0</ele><time>2026-04-11T06:10:42.999Z</time></trkpt><trkpt lat="43.44070106368478" lon="11.352819641190951"><ele>370.0</ele><time>2026-04-11T06:10:43.999Z</time></trkpt><trkpt lat="43.44071424405688" lon="11.352928513378993"><ele>369.0</ele><time>2026-04-11T06:10:44.999Z</time></trkpt><trkpt lat="43.440727187904876" lon="11.353038115941581"><ele>368.0</ele><time>2026-04-11T06:10:45.999Z</time></trkpt><trkpt lat="43.44073620232764" lon="11.353144394875944"><ele>367.0</ele><time>2026-04-11T06:10:46.999Z</time></trkpt><trkpt lat="43.44074752748286" lon="11.353247692344059"><ele>366.1428571428571</ele><time>2026-04-11T06:10:47.999Z</time></trkpt><trkpt lat="43.44075868487456" lon="11.353347764793703"><ele>365.28571428571433</ele><time>2026-04-11T06:10:48.999Z</time></trkpt><trkpt lat="43.44077278420692" lon="11.353442641771814"><ele>364.42857142857144</ele><time>2026-04-11T06:10:49.999Z</time></trkpt><trkpt lat="43.44078594929355" lon="11.353535066282994"><ele>363.57142857142856</ele><time>2026-04-11T06:10:50.999Z</time></trkpt><trkpt lat="43.440794310519124" lon="11.35363132248168"><ele>362.71428571428567</ele><time>2026-04-11T06:10:51.999Z</time></trkpt><trkpt lat="43.44080049377091" lon="11.353723093969895"><ele>361.8571428571429</ele><time>2026-04-11T06:10:52.999Z</time></trkpt><trkpt lat="43.440804818789225" lon="11.3538169304227"><ele>361.0</ele><time>2026-04-11T06:10:53.999Z</time></trkpt><trkpt lat="43.44081554829494" lon="11.353911274029453"><ele>360.14285714285717</ele><time>2026-04-11T06:10:54.999Z</time></trkpt><trkpt lat="43.4408277546606" lon="11.353998006805943"><ele>359.2857142857143</ele><time>2026-04-11T06:10:55.999Z</time></trkpt><trkpt lat="43.440839610836555" lon="11.354085832184238"><ele>358.42857142857144</ele><time>2026-04-11T06:10:56.999Z</time></trkpt><trkpt lat="43.44085674551792" lon="11.354174845246696"><ele>357.57142857142856</ele><time>2026-04-11T06:10:57.999Z</time></trkpt><trkpt lat="43.44087887477976" lon="11.354265644976543"><ele>356.7142857142857</ele><time>2026-04-11T06:10:58.999Z</time></trkpt><trkpt lat="43.4409007084733" lon="11.354357935139957"><ele>355.85714285714283</ele><time>2026-04-11T06:10:59.999Z</time></trkpt><trkpt lat="43.44091955892127" lon="11.354451404872627"><ele>355.0</ele><time>2026-04-11T06:11:00.998Z</time></trkpt><trkpt lat="43.440938512953146" lon="11.354543165171739"><ele>355.0</ele><time>2026-04-11T06:11:01.998Z</time></trkpt><trkpt lat="43.440957442743105" lon="11.354635484908714"><ele>355.0</ele><time>2026-04-11T06:11:02.998Z</time></trkpt><trkpt lat="43.44097831185097" lon="11.354722977094266"><ele>355.0</ele><time>2026-04-11T06:11:03.998Z</time></trkpt><trkpt lat="43.44099889501999" lon="11.354809324577896"><ele>355.0</ele><time>2026-04-11T06:11:04.998Z</time></trkpt><trkpt lat="43.44102880044543" lon="11.35497334845123"><ele>355.0</ele><time>2026-04-11T06:11:06.998Z</time></trkpt><trkpt lat="43.44104383435461" lon="11.355129252824591"><ele>355.0</ele><time>2026-04-11T06:11:08.998Z</time></trkpt><trkpt lat="43.44105494159558" lon="11.355275825533747"><ele>354.66666666666663</ele><time>2026-04-11T06:11:10.998Z</time></trkpt><trkpt lat="43.44105497646142" lon="11.35541318237115"><ele>354.3333333333333</ele><time>2026-04-11T06:11:12.998Z</time></trkpt><trkpt lat="43.44104288781987" lon="11.355508124414367"><ele>354.0</ele><time>2026-04-11T06:11:14.998Z</time></trkpt><trkpt lat="43.44100937672572" lon="11.35560374881682"><ele>353.6666666666667</ele><time>2026-04-11T06:11:16.998Z</time></trkpt><trkpt lat="43.44097800429306" lon="11.355695959791314"><ele>353.33333333333337</ele><time>2026-04-11T06:11:18.998Z</time></trkpt><trkpt lat="43.4409930963596" lon="11.355805742644437"><ele>353.0</ele><time>2026-04-11T06:11:21.998Z</time></trkpt><trkpt lat="43.44104755930653" lon="11.355852700825496"><ele>352.83333333333337</ele><time>2026-04-11T06:11:24Z</time></trkpt><trkpt lat="43.441119958765285" lon="11.35587148296927"><ele>352.6666666666667</ele><time>2026-04-11T06:11:26Z</time></trkpt><trkpt lat="43.44120631171082" lon="11.355843197934817"><ele>352.5</ele><time>2026-04-11T06:11:28Z</time></trkpt><trkpt lat="43.44129115064858" lon="11.355801306204683"><ele>352.3333333333333</ele><time>2026-04-11T06:11:30Z</time></trkpt><trkpt lat="43.44136598820055" lon="11.355725816666368"><ele>352.16666666666663</ele><time>2026-04-11T06:11:32Z</time></trkpt><trkpt lat="43.44142413013067" lon="11.355633853608445"><ele>352.0</ele><time>2026-04-11T06:11:34Z</time></trkpt><trkpt lat="43.44148563634899" lon="11.35554041049234"><ele>352.5</ele><time>2026-04-11T06:11:36Z</time></trkpt><trkpt lat="43.4415445896547" lon="11.355426625118668"><ele>353.0</ele><time>2026-04-11T06:11:38Z</time></trkpt><trkpt lat="43.44161179152106" lon="11.35533209347806"><ele>353.5</ele><time>2026-04-11T06:11:40Z</time></trkpt><trkpt lat="43.44168731525196" lon="11.3552888820933"><ele>354.0</ele><time>2026-04-11T06:11:42Z</time></trkpt><trkpt lat="43.44177152461058" lon="11.355270051530235"><ele>354.5</ele><time>2026-04-11T06:11:44Z</time></trkpt><trkpt lat="43.44185549033175" lon="11.355269480476808"><ele>355.0</ele><time>2026-04-11T06:11:46Z</time></trkpt><trkpt lat="43.441955367413314" lon="11.355312375184184"><ele>355.0</ele><time>2026-04-11T06:11:48Z</time></trkpt><trkpt lat="43.44205094396135" lon="11.355301699469603"><ele>355.0</ele><time>2026-04-11T06:11:50Z</time></trkpt><trkpt lat="43.4421501514555" lon="11.35528239044046"><ele>355.0</ele><time>2026-04-11T06:11:52Z</time></trkpt><trkpt lat="43.442266050989694" lon="11.355228909343584"><ele>355.0</ele><time>2026-04-11T06:11:54Z</time></trkpt><trkpt lat="43.442363797975986" lon="11.35516582664654"><ele>355.0</ele><time>2026-04-11T06:11:56Z</time></trkpt><trkpt lat="43.44245790187372" lon="11.355091267690137"><ele>355.2</ele><time>2026-04-11T06:11:58Z</time></trkpt><trkpt lat="43.442549766821806" lon="11.35501570717096"><ele>355.4</ele><time>2026-04-11T06:12:00Z</time></trkpt><trkpt lat="43.44263975542798" lon="11.35493378517883"><ele>355.6</ele><time>2026-04-11T06:12:02Z</time></trkpt><trkpt lat="43.44272138457283" lon="11.354862122589246"><ele>355.8</ele><time>2026-04-11T06:12:04Z</time></trkpt><trkpt lat="43.44280311805142" lon="11.354802000596733"><ele>356.0</ele><time>2026-04-11T06:12:06Z</time></trkpt><trkpt lat="43.442871325732135" lon="11.354685739857732"><ele>356.0</ele><time>2026-04-11T06:12:08Z</time></trkpt><trkpt lat="43.44296119435852" lon="11.354639674592718"><ele>356.0</ele><time>2026-04-11T06:12:10Z</time></trkpt><trkpt lat="43.443027208472" lon="11.354669391348601"><ele>356.0</ele><time>2026-04-11T06:12:11Z</time></trkpt><trkpt lat="43.44311996330922" lon="11.3546154726971"><ele>356.0</ele><time>2026-04-11T06:12:13Z</time></trkpt><trkpt lat="43.44322370224887" lon="11.354554890916255"><ele>356.0</ele><time>2026-04-11T06:12:15Z</time></trkpt><trkpt lat="43.44334340338985" lon="11.354483623451177"><ele>352.85714285714283</ele><time>2026-04-11T06:12:16.999Z</time></trkpt><trkpt lat="43.443404320946996" lon="11.354445049191998"><ele>349.7142857142857</ele><time>2026-04-11T06:12:17.999Z</time></trkpt><trkpt lat="43.443473760377444" lon="11.354398798781808"><ele>346.57142857142856</ele><time>2026-04-11T06:12:18.999Z</time></trkpt><trkpt lat="43.4435400349121" lon="11.35435331712928"><ele>343.42857142857144</ele><time>2026-04-11T06:12:19.999Z</time></trkpt><trkpt lat="43.443602593623346" lon="11.354307204367938"><ele>340.2857142857143</ele><time>2026-04-11T06:12:20.999Z</time></trkpt><trkpt lat="43.44366348196269" lon="11.354262322907843"><ele>337.1428571428571</ele><time>2026-04-11T06:12:21.999Z</time></trkpt><trkpt lat="43.443725616942814" lon="11.354216522500817"><ele>334.0</ele><time>2026-04-11T06:12:22.999Z</time></trkpt><trkpt lat="43.44378606545561" lon="11.354172600133364"><ele>332.0</ele><time>2026-04-11T06:12:23.999Z</time></trkpt><trkpt lat="43.443846342985125" lon="11.354133087258727"><ele>330.0</ele><time>2026-04-11T06:12:24.999Z</time></trkpt><trkpt lat="43.44390796220675" lon="11.354095061673933"><ele>328.0</ele><time>2026-04-11T06:12:25.999Z</time></trkpt><trkpt lat="43.444014091964334" lon="11.354033127032794"><ele>326.0</ele><time>2026-04-11T06:12:27.999Z</time></trkpt><trkpt lat="43.44411667891192" lon="11.353978834502099"><ele>324.0</ele><time>2026-04-11T06:12:29.999Z</time></trkpt><trkpt lat="43.4442152282303" lon="11.353933297185378"><ele>324.0</ele><time>2026-04-11T06:12:31.999Z</time></trkpt><trkpt lat="43.444315858851695" lon="11.353892405715829"><ele>324.0</ele><time>2026-04-11T06:12:33.999Z</time></trkpt><trkpt lat="43.444423622359906" lon="11.3538505873258"><ele>324.0</ele><time>2026-04-11T06:12:35.999Z</time></trkpt><trkpt lat="43.44451596224998" lon="11.35381631279788"><ele>324.0</ele><time>2026-04-11T06:12:37.999Z</time></trkpt><trkpt lat="43.44460775056588" lon="11.353786780676304"><ele>324.0</ele><time>2026-04-11T06:12:39.999Z</time></trkpt><trkpt lat="43.4446904673009" lon="11.353712714437837"><ele>324.5</ele><time>2026-04-11T06:12:41.999Z</time></trkpt><trkpt lat="43.444779353663584" lon="11.353702632582419"><ele>325.0</ele><time>2026-04-11T06:12:43.999Z</time></trkpt><trkpt lat="43.44485675851368" lon="11.35374072721151"><ele>325.5</ele><time>2026-04-11T06:12:45.999Z</time></trkpt><trkpt lat="43.44490639904236" lon="11.353837238498796"><ele>326.0</ele><time>2026-04-11T06:12:47.999Z</time></trkpt><trkpt lat="43.44492263857388" lon="11.35396923606421"><ele>326.5</ele><time>2026-04-11T06:12:49.999Z</time></trkpt><trkpt lat="43.44493418572942" lon="11.35409764780501"><ele>327.0</ele><time>2026-04-11T06:12:51.999Z</time></trkpt><trkpt lat="43.44495322914152" lon="11.354219412828039"><ele>327.1666666666667</ele><time>2026-04-11T06:12:53.999Z</time></trkpt><trkpt lat="43.44497510462262" lon="11.35433134999489"><ele>327.3333333333333</ele><time>2026-04-11T06:12:55.999Z</time></trkpt><trkpt lat="43.44500931012425" lon="11.354441094640599"><ele>327.5</ele><time>2026-04-11T06:12:57.999Z</time></trkpt><trkpt lat="43.445047627368396" lon="11.354547866233835"><ele>327.66666666666663</ele><time>2026-04-11T06:12:59.999Z</time></trkpt><trkpt lat="43.44510291119104" lon="11.354654553255417"><ele>327.8333333333333</ele><time>2026-04-11T06:13:01.999Z</time></trkpt><trkpt lat="43.44516597707817" lon="11.354749453803546"><ele>328.0</ele><time>2026-04-11T06:13:03.999Z</time></trkpt><trkpt lat="43.44524235834299" lon="11.354837982067131"><ele>327.59999999999997</ele><time>2026-04-11T06:13:05.998Z</time></trkpt><trkpt lat="43.44532000949266" lon="11.354921293599682"><ele>327.2</ele><time>2026-04-11T06:13:07.998Z</time></trkpt><trkpt lat="43.44540197345729" lon="11.354986347024106"><ele>326.8</ele><time>2026-04-11T06:13:09.998Z</time></trkpt><trkpt lat="43.445488622215166" lon="11.355049952259979"><ele>326.4</ele><time>2026-04-11T06:13:11.998Z</time></trkpt><trkpt lat="43.44557471601473" lon="11.355101456524503"><ele>326.0</ele><time>2026-04-11T06:13:13.998Z</time></trkpt><trkpt lat="43.445668591141484" lon="11.355141277114704"><ele>327.0</ele><time>2026-04-11T06:13:15.998Z</time></trkpt><trkpt lat="43.44575588216714" lon="11.355190564910407"><ele>328.0</ele><time>2026-04-11T06:13:17.998Z</time></trkpt><trkpt lat="43.4458390561362" lon="11.3552053423411"><ele>329.0</ele><time>2026-04-11T06:13:20.998Z</time></trkpt><trkpt lat="43.445919393469225" lon="11.355215674796195"><ele>330.0</ele><time>2026-04-11T06:13:22.998Z</time></trkpt><trkpt lat="43.446006662145976" lon="11.355226015982392"><ele>331.0</ele><time>2026-04-11T06:13:24.998Z</time></trkpt><trkpt lat="43.44607434910672" lon="11.355234036811007"><ele>332.0</ele><time>2026-04-11T06:13:26.998Z</time></trkpt><trkpt lat="43.44614216255025" lon="11.355242074372423"><ele>332.0</ele><time>2026-04-11T06:13:29Z</time></trkpt><trkpt lat="43.4462299539152" lon="11.355252477522644"><ele>332.0</ele><time>2026-04-11T06:13:31Z</time></trkpt><trkpt lat="43.44633542214339" lon="11.355266896186508"><ele>332.0</ele><time>2026-04-11T06:13:33Z</time></trkpt><trkpt lat="43.44642996161126" lon="11.355282369265986"><ele>332.0</ele><time>2026-04-11T06:13:35Z</time></trkpt><trkpt lat="43.44650331765787" lon="11.355295060064867"><ele>332.0</ele><time>2026-04-11T06:13:37Z</time></trkpt><trkpt lat="43.4465863005313" lon="11.355310117839203"><ele>332.0</ele><time>2026-04-11T06:13:39Z</time></trkpt><trkpt lat="43.446672066237575" lon="11.35532568058428"><ele>332.83333333333337</ele><time>2026-04-11T06:13:41Z</time></trkpt><trkpt lat="43.44676234086396" lon="11.355341963114292"><ele>333.6666666666667</ele><time>2026-04-11T06:13:43Z</time></trkpt><trkpt lat="43.446848496034626" lon="11.355357413522706"><ele>334.5</ele><time>2026-04-11T06:13:45Z</time></trkpt><trkpt lat="43.446928662178884" lon="11.355323932867337"><ele>335.3333333333333</ele><time>2026-04-11T06:13:48Z</time></trkpt><trkpt lat="43.44699794623473" lon="11.3553517321252"><ele>336.16666666666663</ele><time>2026-04-11T06:13:51Z</time></trkpt><trkpt lat="43.447102636830884" lon="11.355368709930595"><ele>337.0</ele><time>2026-04-11T06:13:54Z</time></trkpt><trkpt lat="43.44717308267265" lon="11.355381464907849"><ele>336.0</ele><time>2026-04-11T06:13:56Z</time></trkpt><trkpt lat="43.4472728197654" lon="11.355408928223913"><ele>335.0</ele><time>2026-04-11T06:13:58Z</time></trkpt><trkpt lat="43.447375735805934" lon="11.355442603897282"><ele>334.0</ele><time>2026-04-11T06:14:00Z</time></trkpt><trkpt lat="43.44746502884647" lon="11.355451630627078"><ele>333.0</ele><time>2026-04-11T06:14:02Z</time></trkpt><trkpt lat="43.44752804258287" lon="11.355463939878469"><ele>332.0</ele><time>2026-04-11T06:14:04Z</time></trkpt><trkpt lat="43.44760686750415" lon="11.35550242218436"><ele>331.0</ele><time>2026-04-11T06:14:06Z</time></trkpt><trkpt lat="43.44773128545534" lon="11.355563497724193"><ele>331.0</ele><time>2026-04-11T06:14:08Z</time></trkpt><trkpt lat="43.44780639905646" lon="11.355611781488925"><ele>331.0</ele><time>2026-04-11T06:14:10Z</time></trkpt><trkpt lat="43.447880971679844" lon="11.355661619030519"><ele>331.0</ele><time>2026-04-11T06:14:12Z</time></trkpt><trkpt lat="43.44795128990918" lon="11.355714661203768"><ele>331.0</ele><time>2026-04-11T06:14:14Z</time></trkpt><trkpt lat="43.44803413189693" lon="11.355761336926452"><ele>331.0</ele><time>2026-04-11T06:14:16Z</time></trkpt><trkpt lat="43.44812247786053" lon="11.355814078160238"><ele>331.0</ele><time>2026-04-11T06:14:18Z</time></trkpt><trkpt lat="43.44822095089656" lon="11.355875818950906"><ele>332.0</ele><time>2026-04-11T06:14:20Z</time></trkpt><trkpt lat="43.44830405980774" lon="11.355969213271443"><ele>333.0</ele><time>2026-04-11T06:14:21.999Z</time></trkpt><trkpt lat="43.448397488224295" lon="11.356025361780134"><ele>334.0</ele><time>2026-04-11T06:14:23.999Z</time></trkpt><trkpt lat="43.448490303894154" lon="11.356080342926784"><ele>335.0</ele><time>2026-04-11T06:14:25.999Z</time></trkpt><trkpt lat="43.44858483066194" lon="11.356136337764017"><ele>336.0</ele><time>2026-04-11T06:14:27.999Z</time></trkpt><trkpt lat="43.448661987731825" lon="11.356182043200219"><ele>336.0</ele><time>2026-04-11T06:14:29.999Z</time></trkpt><trkpt lat="43.44873161581995" lon="11.356224216040353"><ele>336.0</ele><time>2026-04-11T06:14:31.999Z</time></trkpt><trkpt lat="43.448810985330326" lon="11.35627429958571"><ele>336.0</ele><time>2026-04-11T06:14:34.999Z</time></trkpt><trkpt lat="43.448868647593684" lon="11.356314577635086"><ele>336.0</ele><time>2026-04-11T06:14:36.999Z</time></trkpt><trkpt lat="43.44892753386357" lon="11.356359860972375"><ele>336.0</ele><time>2026-04-11T06:14:38.999Z</time></trkpt><trkpt lat="43.44900256134308" lon="11.356423102080125"><ele>336.0</ele><time>2026-04-11T06:14:42.999Z</time></trkpt><trkpt lat="43.44907387312561" lon="11.356483695940765"><ele>335.3333333333333</ele><time>2026-04-11T06:14:44.999Z</time></trkpt><trkpt lat="43.44914610146227" lon="11.356542024356514"><ele>334.6666666666667</ele><time>2026-04-11T06:14:46.999Z</time></trkpt><trkpt lat="43.44920538498252" lon="11.356589899130348"><ele>334.0</ele><time>2026-04-11T06:14:48.999Z</time></trkpt><trkpt lat="43.449280875008675" lon="11.356585839814935"><ele>333.33333333333337</ele><time>2026-04-11T06:14:51.999Z</time></trkpt><trkpt lat="43.4493573934669" lon="11.356617248109758"><ele>332.6666666666667</ele><time>2026-04-11T06:14:54.999Z</time></trkpt><trkpt lat="43.44943978173285" lon="11.356647104929182"><ele>332.0</ele><time>2026-04-11T06:14:57.999Z</time></trkpt><trkpt lat="43.44951597999976" lon="11.356667202544424"><ele>332.0</ele><time>2026-04-11T06:15:00.999Z</time></trkpt><trkpt lat="43.449592938176906" lon="11.35669308658952"><ele>332.0</ele><time>2026-04-11T06:15:03.999Z</time></trkpt><trkpt lat="43.4496782227383" lon="11.35670166588682"><ele>332.0</ele><time>2026-04-11T06:15:06.999Z</time></trkpt><trkpt lat="43.44975206992434" lon="11.356717985935914"><ele>332.0</ele><time>2026-04-11T06:15:09.999Z</time></trkpt><trkpt lat="43.449830152214574" lon="11.35672669582792"><ele>332.0</ele><time>2026-04-11T06:15:12.998Z</time></trkpt><trkpt lat="43.44991536975805" lon="11.356699785889143"><ele>332.0</ele><time>2026-04-11T06:15:15.998Z</time></trkpt><trkpt lat="43.44999108200072" lon="11.356674499799851"><ele>333.33333333333337</ele><time>2026-04-11T06:15:18.998Z</time></trkpt><trkpt lat="43.45006186533881" lon="11.356636087964592"><ele>334.6666666666667</ele><time>2026-04-11T06:15:21.998Z</time></trkpt><trkpt lat="43.45014458390361" lon="11.356580728676974"><ele>336.0</ele><time>2026-04-11T06:15:24.998Z</time></trkpt><trkpt lat="43.450187357363276" lon="11.35647283974353"><ele>337.3333333333333</ele><time>2026-04-11T06:15:29.998Z</time></trkpt><trkpt lat="43.45025679378774" lon="11.35640100708002"><ele>338.66666666666663</ele><time>2026-04-11T06:15:32.998Z</time></trkpt><trkpt lat="43.45031270499559" lon="11.356316692377062"><ele>340.0</ele><time>2026-04-11T06:15:35Z</time></trkpt><trkpt lat="43.45037806720695" lon="11.35624504966648"><ele>341.4</ele><time>2026-04-11T06:15:37Z</time></trkpt><trkpt lat="43.450463638285065" lon="11.35618430044391"><ele>342.8</ele><time>2026-04-11T06:15:40Z</time></trkpt><trkpt lat="43.45052108545105" lon="11.356141491525587"><ele>344.20000000000005</ele><time>2026-04-11T06:15:43Z</time></trkpt><trkpt lat="43.450578493741766" lon="11.35607630519201"><ele>345.6</ele><time>2026-04-11T06:15:45Z</time></trkpt><trkpt lat="43.45063997608353" lon="11.355991046521453"><ele>347.0</ele><time>2026-04-11T06:15:47Z</time></trkpt><trkpt lat="43.45092998741238" lon="11.355840577990476"><ele>347.0</ele><time>2026-04-11T06:15:49Z</time></trkpt><trkpt lat="43.45099365641637" lon="11.355759519991263"><ele>347.0</ele><time>2026-04-11T06:15:51Z</time></trkpt><trkpt lat="43.45107537986975" lon="11.355660192511433"><ele>347.0</ele><time>2026-04-11T06:15:53Z</time></trkpt><trkpt lat="43.45120469916451" lon="11.355627127693175"><ele>347.0</ele><time>2026-04-11T06:15:55Z</time></trkpt><trkpt lat="43.45126526999333" lon="11.355583990040152"><ele>347.0</ele><time>2026-04-11T06:15:56Z</time></trkpt><trkpt lat="43.45133161858614" lon="11.355538915872783"><ele>347.33333333333337</ele><time>2026-04-11T06:15:57Z</time></trkpt><trkpt lat="43.45139038778431" lon="11.355498990806499"><ele>347.6666666666667</ele><time>2026-04-11T06:15:58Z</time></trkpt><trkpt lat="43.45144846244856" lon="11.355459537571297"><ele>348.0</ele><time>2026-04-11T06:15:59Z</time></trkpt><trkpt lat="43.45154038869264" lon="11.355401071354366"><ele>348.3333333333333</ele><time>2026-04-11T06:16:01Z</time></trkpt><trkpt lat="43.4516272893874" lon="11.355356802642836"><ele>348.66666666666663</ele><time>2026-04-11T06:16:03Z</time></trkpt><trkpt lat="43.45171820793946" lon="11.355331720634272"><ele>349.0</ele><time>2026-04-11T06:16:05Z</time></trkpt><trkpt lat="43.451816934813905" lon="11.35531176121494"><ele>349.0</ele><time>2026-04-11T06:16:07Z</time></trkpt><trkpt lat="43.45174553617105" lon="11.355326742146959"><ele>349.0</ele><time>2026-04-11T06:16:08Z</time></trkpt><trkpt lat="43.45185256677071" lon="11.355304284831325"><ele>349.0</ele><time>2026-04-11T06:16:10Z</time></trkpt><trkpt lat="43.45195378596714" lon="11.355278028452323"><ele>349.0</ele><time>2026-04-11T06:16:12Z</time></trkpt><trkpt lat="43.4520546233565" lon="11.355243746776166"><ele>349.0</ele><time>2026-04-11T06:16:14Z</time></trkpt><trkpt lat="43.452155794825664" lon="11.355204040357238"><ele>347.6</ele><time>2026-04-11T06:16:16Z</time></trkpt><trkpt lat="43.45226601406124" lon="11.35515994327571"><ele>346.2</ele><time>2026-04-11T06:16:18Z</time></trkpt><trkpt lat="43.45236958585919" lon="11.355115917621585"><ele>344.8</ele><time>2026-04-11T06:16:20Z</time></trkpt><trkpt lat="43.452469742816774" lon="11.355071015161974"><ele>343.40000000000003</ele><time>2026-04-11T06:16:22Z</time></trkpt><trkpt lat="43.45257018293021" lon="11.355021088477883"><ele>342.0</ele><time>2026-04-11T06:16:24Z</time></trkpt><trkpt lat="43.45266874875445" lon="11.354967734503036"><ele>342.0</ele><time>2026-04-11T06:16:26Z</time></trkpt><trkpt lat="43.452837057850004" lon="11.354871012153055"><ele>342.0</ele><time>2026-04-11T06:16:29Z</time></trkpt><trkpt lat="43.45293508821987" lon="11.354811126920303"><ele>342.0</ele><time>2026-04-11T06:16:30.999Z</time></trkpt><trkpt lat="43.45303375613754" lon="11.354750852106344"><ele>342.0</ele><time>2026-04-11T06:16:32.999Z</time></trkpt><trkpt lat="43.45313226612138" lon="11.354690673771652"><ele>342.5</ele><time>2026-04-11T06:16:34.999Z</time></trkpt><trkpt lat="43.45321898619688" lon="11.354576521570749"><ele>343.0</ele><time>2026-04-11T06:16:36.999Z</time></trkpt><trkpt lat="43.45332500934709" lon="11.354518032972747"><ele>343.5</ele><time>2026-04-11T06:16:38.999Z</time></trkpt><trkpt lat="43.45343205510508" lon="11.354469879218929"><ele>344.0</ele><time>2026-04-11T06:16:40.999Z</time></trkpt><trkpt lat="43.45353328520771" lon="11.3544204830939"><ele>344.0</ele><time>2026-04-11T06:16:42.999Z</time></trkpt><trkpt lat="43.45363345764298" lon="11.3543743145831"><ele>344.0</ele><time>2026-04-11T06:16:44.999Z</time></trkpt><trkpt lat="43.45373143290326" lon="11.354322748618277"><ele>344.0</ele><time>2026-04-11T06:16:46.999Z</time></trkpt><trkpt lat="43.45380998674458" lon="11.3542653198026"><ele>344.0</ele><time>2026-04-11T06:16:48.999Z</time></trkpt><trkpt lat="43.45391826146127" lon="11.35421615698751"><ele>344.0</ele><time>2026-04-11T06:16:50.999Z</time></trkpt><trkpt lat="43.45401908034383" lon="11.354213860091082"><ele>342.6666666666667</ele><time>2026-04-11T06:16:52.999Z</time></trkpt><trkpt lat="43.45409963466303" lon="11.354255631475645"><ele>341.33333333333337</ele><time>2026-04-11T06:16:54.999Z</time></trkpt><trkpt lat="43.45417320303348" lon="11.354296740945951"><ele>340.0</ele><time>2026-04-11T06:16:56.999Z</time></trkpt><trkpt lat="43.454278827035566" lon="11.354307345744811"><ele>338.6666666666667</ele><time>2026-04-11T06:16:59.999Z</time></trkpt><trkpt lat="43.45436591622439" lon="11.354296047126027"><ele>337.3333333333333</ele><time>2026-04-11T06:17:01.999Z</time></trkpt><trkpt lat="43.45444509933109" lon="11.354264140406306"><ele>336.0</ele><time>2026-04-11T06:17:03.999Z</time></trkpt><trkpt lat="43.454521306278764" lon="11.354220305304572"><ele>336.0</ele><time>2026-04-11T06:17:05.999Z</time></trkpt><trkpt lat="43.454584745884205" lon="11.354175555424288"><ele>336.0</ele><time>2026-04-11T06:17:07.999Z</time></trkpt><trkpt lat="43.45465122556365" lon="11.354116014828508"><ele>336.0</ele><time>2026-04-11T06:17:10.999Z</time></trkpt><trkpt lat="43.45473059635204" lon="11.354081628384002"><ele>336.0</ele><time>2026-04-11T06:17:13.999Z</time></trkpt><trkpt lat="43.454790049022556" lon="11.354030225134869"><ele>336.0</ele><time>2026-04-11T06:17:16.999Z</time></trkpt><trkpt lat="43.45486158227167" lon="11.353999224922092"><ele>336.0</ele><time>2026-04-11T06:17:19.998Z</time></trkpt><trkpt lat="43.454927721440875" lon="11.35397502553036"><ele>336.0</ele><time>2026-04-11T06:17:23.998Z</time></trkpt><trkpt lat="43.45499740419559" lon="11.353959005006915"><ele>337.1666666666667</ele><time>2026-04-11T06:17:26.998Z</time></trkpt><trkpt lat="43.455064963535975" lon="11.353946229641089"><ele>338.3333333333333</ele><time>2026-04-11T06:17:29.998Z</time></trkpt><trkpt lat="43.455160297638244" lon="11.353931753060554"><ele>339.5</ele><time>2026-04-11T06:17:32.998Z</time></trkpt><trkpt lat="43.45524313350405" lon="11.353913256590339"><ele>340.66666666666663</ele><time>2026-04-11T06:17:35.998Z</time></trkpt><trkpt lat="43.45532656053889" lon="11.353881522314628"><ele>341.8333333333333</ele><time>2026-04-11T06:17:38.998Z</time></trkpt><trkpt lat="43.45542245769703" lon="11.353877805904744"><ele>343.0</ele><time>2026-04-11T06:17:41Z</time></trkpt><trkpt lat="43.45552307878169" lon="11.353900483148806"><ele>343.4</ele><time>2026-04-11T06:17:43Z</time></trkpt><trkpt lat="43.45562524778663" lon="11.353940135853568"><ele>343.79999999999995</ele><time>2026-04-11T06:17:45Z</time></trkpt><trkpt lat="43.45572253012362" lon="11.353974150462339"><ele>344.2</ele><time>2026-04-11T06:17:47Z</time></trkpt><trkpt lat="43.4558436714583" lon="11.354020675812698"><ele>344.6</ele><time>2026-04-11T06:17:49Z</time></trkpt><trkpt lat="43.45591540921269" lon="11.354041755528606"><ele>345.0</ele><time>2026-04-11T06:17:50Z</time></trkpt><trkpt lat="43.45598781783375" lon="11.354067092535844"><ele>345.0</ele><time>2026-04-11T06:17:51Z</time></trkpt><trkpt lat="43.45606270498791" lon="11.354087334502763"><ele>345.0</ele><time>2026-04-11T06:17:52Z</time></trkpt><trkpt lat="43.45613848848331" lon="11.354104723514633"><ele>345.0</ele><time>2026-04-11T06:17:53Z</time></trkpt><trkpt lat="43.45620949696128" lon="11.354117305239177"><ele>345.0</ele><time>2026-04-11T06:17:54Z</time></trkpt><trkpt lat="43.456276503336575" lon="11.354122013132049"><ele>345.0</ele><time>2026-04-11T06:17:55Z</time></trkpt><trkpt lat="43.45634266296543" lon="11.35413004149611"><ele>345.0</ele><time>2026-04-11T06:17:56Z</time></trkpt><trkpt lat="43.45646289660644" lon="11.35414580880285"><ele>345.25</ele><time>2026-04-11T06:17:58Z</time></trkpt><trkpt lat="43.45658390189284" lon="11.354171889758618"><ele>345.5</ele><time>2026-04-11T06:18:00Z</time></trkpt><trkpt lat="43.4567051328501" lon="11.354192255960477"><ele>345.75</ele><time>2026-04-11T06:18:02Z</time></trkpt><trkpt lat="43.456817129843" lon="11.354215581411864"><ele>346.0</ele><time>2026-04-11T06:18:04Z</time></trkpt><trkpt lat="43.45692492894433" lon="11.354248274319835"><ele>346.0</ele><time>2026-04-11T06:18:06Z</time></trkpt><trkpt lat="43.45702759519937" lon="11.354274719298095"><ele>346.0</ele><time>2026-04-11T06:18:08Z</time></trkpt><trkpt lat="43.45712715036569" lon="11.35430921071476"><ele>346.0</ele><time>2026-04-11T06:18:10Z</time></trkpt><trkpt lat="43.45724290327097" lon="11.354362356612254"><ele>346.0</ele><time>2026-04-11T06:18:12Z</time></trkpt><trkpt lat="43.45730368425793" lon="11.354394668721158"><ele>346.0</ele><time>2026-04-11T06:18:13Z</time></trkpt><trkpt lat="43.45741333847245" lon="11.3544813939439"><ele>347.5</ele><time>2026-04-11T06:18:15Z</time></trkpt><trkpt lat="43.45748045296092" lon="11.354507120515128"><ele>349.0</ele><time>2026-04-11T06:18:16Z</time></trkpt><trkpt lat="43.45754073046167" lon="11.354537284999331"><ele>350.5</ele><time>2026-04-11T06:18:17Z</time></trkpt><trkpt lat="43.457603687585085" lon="11.354561591104707"><ele>352.0</ele><time>2026-04-11T06:18:18Z</time></trkpt><trkpt lat="43.457721900000266" lon="11.354611544077924"><ele>353.5</ele><time>2026-04-11T06:18:20Z</time></trkpt><trkpt lat="43.45783019922257" lon="11.354654164379749"><ele>355.0</ele><time>2026-04-11T06:18:22Z</time></trkpt><trkpt lat="43.45791721801407" lon="11.354681245424873"><ele>354.16666666666663</ele><time>2026-04-11T06:18:24Z</time></trkpt><trkpt lat="43.45798276586264" lon="11.35470795948664"><ele>353.3333333333333</ele><time>2026-04-11T06:18:26Z</time></trkpt><trkpt lat="43.45804334752683" lon="11.354733553684945"><ele>352.5</ele><time>2026-04-11T06:18:28Z</time></trkpt><trkpt lat="43.45811034123679" lon="11.354763767079827"><ele>351.6666666666667</ele><time>2026-04-11T06:18:30Z</time></trkpt><trkpt lat="43.45818122415569" lon="11.354813372330712"><ele>350.83333333333337</ele><time>2026-04-11T06:18:32Z</time></trkpt><trkpt lat="43.45825606511906" lon="11.354864335085612"><ele>350.0</ele><time>2026-04-11T06:18:34Z</time></trkpt><trkpt lat="43.458337668755235" lon="11.354958434639244"><ele>350.0</ele><time>2026-04-11T06:18:36Z</time></trkpt><trkpt lat="43.45843145478667" lon="11.35504796510342"><ele>350.0</ele><time>2026-04-11T06:18:37.999Z</time></trkpt><trkpt lat="43.45853087365615" lon="11.355125124235723"><ele>350.0</ele><time>2026-04-11T06:18:39.999Z</time></trkpt><trkpt lat="43.458628277741035" lon="11.3552057608186"><ele>350.0</ele><time>2026-04-11T06:18:41.999Z</time></trkpt><trkpt lat="43.45872917890341" lon="11.355283557486588"><ele>351.2</ele><time>2026-04-11T06:18:43.999Z</time></trkpt><trkpt lat="43.45882695878576" lon="11.35534358523748"><ele>352.4</ele><time>2026-04-11T06:18:45.999Z</time></trkpt><trkpt lat="43.45892111768148" lon="11.355390237289814"><ele>353.6</ele><time>2026-04-11T06:18:47.999Z</time></trkpt><trkpt lat="43.45901240154991" lon="11.355419659325147"><ele>354.8</ele><time>2026-04-11T06:18:49.999Z</time></trkpt><trkpt lat="43.45910382859777" lon="11.35544493707045"><ele>356.0</ele><time>2026-04-11T06:18:51.999Z</time></trkpt><trkpt lat="43.459192807948625" lon="11.355468274840266"><ele>356.0</ele><time>2026-04-11T06:18:53.999Z</time></trkpt><trkpt lat="43.45928572036034" lon="11.355489852900932"><ele>356.0</ele><time>2026-04-11T06:18:55.999Z</time></trkpt><trkpt lat="43.4593759466872" lon="11.355514028562911"><ele>356.0</ele><time>2026-04-11T06:18:57.999Z</time></trkpt><trkpt lat="43.45946114736141" lon="11.355531764290259"><ele>356.0</ele><time>2026-04-11T06:18:59.999Z</time></trkpt><trkpt lat="43.4595420827466" lon="11.355541725972202"><ele>356.0</ele><time>2026-04-11T06:19:01.999Z</time></trkpt><trkpt lat="43.459627318533855" lon="11.35556473293459"><ele>356.0</ele><time>2026-04-11T06:19:03.999Z</time></trkpt><trkpt lat="43.45971409303316" lon="11.355585855564247"><ele>355.1666666666667</ele><time>2026-04-11T06:19:05.999Z</time></trkpt><trkpt lat="43.45980778312828" lon="11.355585898511098"><ele>354.33333333333337</ele><time>2026-04-11T06:19:07.999Z</time></trkpt><trkpt lat="43.459902411755415" lon="11.355567771434485"><ele>353.5</ele><time>2026-04-11T06:19:09.999Z</time></trkpt><trkpt lat="43.459987620759144" lon="11.355543510486275"><ele>352.6666666666667</ele><time>2026-04-11T06:19:11.999Z</time></trkpt><trkpt lat="43.46006402544713" lon="11.355500379147843"><ele>351.8333333333333</ele><time>2026-04-11T06:19:13.999Z</time></trkpt><trkpt lat="43.460143687222214" lon="11.355484192860061"><ele>351.0</ele><time>2026-04-11T06:19:15.999Z</time></trkpt><trkpt lat="43.46022770573054" lon="11.35548246205179"><ele>351.5</ele><time>2026-04-11T06:19:17.999Z</time></trkpt><trkpt lat="43.46031097284428" lon="11.355502104582394"><ele>352.0</ele><time>2026-04-11T06:19:19.999Z</time></trkpt><trkpt lat="43.4603875446555" lon="11.355525182796473"><ele>352.5</ele><time>2026-04-11T06:19:21.999Z</time></trkpt><trkpt lat="43.460464902241874" lon="11.355547403612125"><ele>353.0</ele><time>2026-04-11T06:19:23.999Z</time></trkpt><trkpt lat="43.4605422262754" lon="11.355561635889845"><ele>353.5</ele><time>2026-04-11T06:19:25.999Z</time></trkpt><trkpt lat="43.46061681788134" lon="11.355571568928815"><ele>354.0</ele><time>2026-04-11T06:19:27.998Z</time></trkpt><trkpt lat="43.46068593880417" lon="11.355589594280646"><ele>354.0</ele><time>2026-04-11T06:19:29.998Z</time></trkpt><trkpt lat="43.46075592225903" lon="11.355589722553335"><ele>354.0</ele><time>2026-04-11T06:19:31.998Z</time></trkpt><trkpt lat="43.46082311413059" lon="11.355590259363458"><ele>354.0</ele><time>2026-04-11T06:19:33.998Z</time></trkpt><trkpt lat="43.46088781684342" lon="11.35558240260206"><ele>354.0</ele><time>2026-04-11T06:19:35.998Z</time></trkpt><trkpt lat="43.46095075752289" lon="11.3555633090643"><ele>354.0</ele><time>2026-04-11T06:19:37.998Z</time></trkpt><trkpt lat="43.46103484155142" lon="11.355533812671126"><ele>354.0</ele><time>2026-04-11T06:19:40.998Z</time></trkpt><trkpt lat="43.461113061685026" lon="11.355516160835704"><ele>354.0</ele><time>2026-04-11T06:19:43.998Z</time></trkpt><trkpt lat="43.46119041664487" lon="11.355505029662925"><ele>354.3333333333333</ele><time>2026-04-11T06:19:47Z</time></trkpt><trkpt lat="43.46125960418443" lon="11.355482384858067"><ele>354.6666666666667</ele><time>2026-04-11T06:19:50Z</time></trkpt><trkpt lat="43.46133353869511" lon="11.355478082936276"><ele>355.0</ele><time>2026-04-11T06:19:53Z</time></trkpt><trkpt lat="43.46140073618207" lon="11.355475250737799"><ele>355.33333333333337</ele><time>2026-04-11T06:19:56Z</time></trkpt><trkpt lat="43.461467958277574" lon="11.355497286687797"><ele>355.6666666666667</ele><time>2026-04-11T06:19:59Z</time></trkpt><trkpt lat="43.461557751067" lon="11.355551670459041"><ele>356.0</ele><time>2026-04-11T06:20:02Z</time></trkpt><trkpt lat="43.46163733044999" lon="11.355614692426602"><ele>356.0</ele><time>2026-04-11T06:20:04Z</time></trkpt><trkpt lat="43.46173930325216" lon="11.355699601353479"><ele>356.0</ele><time>2026-04-11T06:20:06Z</time></trkpt><trkpt lat="43.46179576337859" lon="11.355746583329042"><ele>356.0</ele><time>2026-04-11T06:20:07Z</time></trkpt><trkpt lat="43.461854779765616" lon="11.355792716004846"><ele>356.0</ele><time>2026-04-11T06:20:08Z</time></trkpt><trkpt lat="43.4619177453513" lon="11.355843108898778"><ele>356.0</ele><time>2026-04-11T06:20:09Z</time></trkpt><trkpt lat="43.461978819144086" lon="11.35589819964931"><ele>356.0</ele><time>2026-04-11T06:20:10Z</time></trkpt><trkpt lat="43.46203909068196" lon="11.355958597377832"><ele>355.99999999999994</ele><time>2026-04-11T06:20:11Z</time></trkpt><trkpt lat="43.462097614229656" lon="11.356017562381107"><ele>356.0</ele><time>2026-04-11T06:20:12Z</time></trkpt><trkpt lat="43.4621547256642" lon="11.356077397713182"><ele>356.0</ele><time>2026-04-11T06:20:13Z</time></trkpt><trkpt lat="43.462211073681544" lon="11.35613663108948"><ele>356.0</ele><time>2026-04-11T06:20:14Z</time></trkpt><trkpt lat="43.46227028250729" lon="11.356195440799544"><ele>356.0</ele><time>2026-04-11T06:20:15Z</time></trkpt><trkpt lat="43.462330581488935" lon="11.356252002519366"><ele>355.99999999999994</ele><time>2026-04-11T06:20:16Z</time></trkpt><trkpt lat="43.46238932373067" lon="11.35630559407454"><ele>356.0</ele><time>2026-04-11T06:20:17Z</time></trkpt><trkpt lat="43.46244871220386" lon="11.356356703147098"><ele>355.85714285714283</ele><time>2026-04-11T06:20:18Z</time></trkpt><trkpt lat="43.462505965056394" lon="11.356406029934252"><ele>355.7142857142857</ele><time>2026-04-11T06:20:19Z</time></trkpt><trkpt lat="43.462567229372254" lon="11.356454249605225"><ele>355.57142857142856</ele><time>2026-04-11T06:20:20Z</time></trkpt><trkpt lat="43.462627641052926" lon="11.35650788149182"><ele>355.42857142857144</ele><time>2026-04-11T06:20:21Z</time></trkpt><trkpt lat="43.462686442022424" lon="11.35656356811713"><ele>355.2857142857143</ele><time>2026-04-11T06:20:22Z</time></trkpt><trkpt lat="43.46274506395823" lon="11.356622880631914"><ele>355.1428571428571</ele><time>2026-04-11T06:20:23Z</time></trkpt><trkpt lat="43.46280118017593" lon="11.356680903451577"><ele>355.0</ele><time>2026-04-11T06:20:24Z</time></trkpt><trkpt lat="43.46285881285312" lon="11.3567357293092"><ele>355.0</ele><time>2026-04-11T06:20:25Z</time></trkpt><trkpt lat="43.46291705648923" lon="11.356792154681736"><ele>355.0</ele><time>2026-04-11T06:20:26Z</time></trkpt><trkpt lat="43.46297055288269" lon="11.356854017385372"><ele>355.0</ele><time>2026-04-11T06:20:27Z</time></trkpt><trkpt lat="43.463028456842444" lon="11.356904847352443"><ele>355.0</ele><time>2026-04-11T06:20:28Z</time></trkpt><trkpt lat="43.46308914827086" lon="11.356941434296415"><ele>355.0</ele><time>2026-04-11T06:20:29Z</time></trkpt><trkpt lat="43.463153808595415" lon="11.356964363535175"><ele>355.0</ele><time>2026-04-11T06:20:30Z</time></trkpt><trkpt lat="43.463217105899" lon="11.356974815387657"><ele>355.0</ele><time>2026-04-11T06:20:31Z</time></trkpt><trkpt lat="43.46332509222124" lon="11.356976943447105"><ele>356.85714285714283</ele><time>2026-04-11T06:20:33Z</time></trkpt><trkpt lat="43.46341446311416" lon="11.35698593231315"><ele>358.7142857142857</ele><time>2026-04-11T06:20:35Z</time></trkpt><trkpt lat="43.46348132672784" lon="11.357008934399515"><ele>360.57142857142856</ele><time>2026-04-11T06:20:37Z</time></trkpt><trkpt lat="43.463542579319785" lon="11.357029492330765"><ele>362.42857142857144</ele><time>2026-04-11T06:20:39Z</time></trkpt><trkpt lat="43.463607122089684" lon="11.357035141489828"><ele>364.2857142857143</ele><time>2026-04-11T06:20:41Z</time></trkpt><trkpt lat="43.46367603638613" lon="11.357040503045585"><ele>366.14285714285717</ele><time>2026-04-11T06:20:43Z</time></trkpt><trkpt lat="43.463741336068" lon="11.357039189838064"><ele>368.0</ele><time>2026-04-11T06:20:44.999Z</time></trkpt><trkpt lat="43.4638044311233" lon="11.357056902886743"><ele>367.33333333333337</ele><time>2026-04-11T06:20:46.999Z</time></trkpt><trkpt lat="43.46388971504182" lon="11.357103774476931"><ele>366.6666666666667</ele><time>2026-04-11T06:20:49.999Z</time></trkpt><trkpt lat="43.463953916942934" lon="11.357131882201537"><ele>366.0</ele><time>2026-04-11T06:20:51.999Z</time></trkpt><trkpt lat="43.46403168186129" lon="11.35718086543791"><ele>365.3333333333333</ele><time>2026-04-11T06:20:54.999Z</time></trkpt><trkpt lat="43.464094068308505" lon="11.357231939396963"><ele>364.66666666666663</ele><time>2026-04-11T06:20:57.999Z</time></trkpt><trkpt lat="43.464161320501155" lon="11.35729699370367"><ele>364.0</ele><time>2026-04-11T06:21:00.999Z</time></trkpt><trkpt lat="43.464246753837934" lon="11.357348497965313"><ele>364.0</ele><time>2026-04-11T06:21:03.999Z</time></trkpt><trkpt lat="43.46430395239225" lon="11.357417239605192"><ele>364.0</ele><time>2026-04-11T06:21:05.999Z</time></trkpt><trkpt lat="43.46435437264067" lon="11.357475634533031"><ele>364.0</ele><time>2026-04-11T06:21:07.999Z</time></trkpt><trkpt lat="43.46439485632145" lon="11.357558836895157"><ele>364.0</ele><time>2026-04-11T06:21:09.999Z</time></trkpt><trkpt lat="43.46445617695435" lon="11.35763114132414"><ele>364.0</ele><time>2026-04-11T06:21:10.999Z</time></trkpt><trkpt lat="43.46454307324893" lon="11.35773952876861"><ele>364.0</ele><time>2026-04-11T06:21:12.999Z</time></trkpt><trkpt lat="43.46458853455359" lon="11.357802760054478"><ele>365.0</ele><time>2026-04-11T06:21:13.999Z</time></trkpt><trkpt lat="43.46462905215109" lon="11.357873027979453"><ele>366.0</ele><time>2026-04-11T06:21:14.999Z</time></trkpt><trkpt lat="43.46469415537208" lon="11.357997709419049"><ele>367.0</ele><time>2026-04-11T06:21:16.999Z</time></trkpt><trkpt lat="43.46476163828031" lon="11.358139728282016"><ele>368.0</ele><time>2026-04-11T06:21:18.999Z</time></trkpt><trkpt lat="43.464800600210445" lon="11.358255458690714"><ele>369.0</ele><time>2026-04-11T06:21:20.999Z</time></trkpt><trkpt lat="43.46483797758007" lon="11.358393875222527"><ele>369.0</ele><time>2026-04-11T06:21:22.999Z</time></trkpt><trkpt lat="43.46487980198374" lon="11.358537160719095"><ele>369.0</ele><time>2026-04-11T06:21:24.999Z</time></trkpt><trkpt lat="43.46491629937709" lon="11.358691905538604"><ele>369.0</ele><time>2026-04-11T06:21:26.999Z</time></trkpt><trkpt lat="43.46493585007816" lon="11.358845389281942"><ele>369.0</ele><time>2026-04-11T06:21:28.999Z</time></trkpt><trkpt lat="43.464958741403564" lon="11.358992394438854"><ele>368.2</ele><time>2026-04-11T06:21:30.999Z</time></trkpt><trkpt lat="43.46498313030115" lon="11.359150157992566"><ele>367.4</ele><time>2026-04-11T06:21:32.999Z</time></trkpt><trkpt lat="43.464996103970236" lon="11.359292258731955"><ele>366.6</ele><time>2026-04-11T06:21:34.998Z</time></trkpt><trkpt lat="43.46501913090817" lon="11.359433777367665"><ele>365.8</ele><time>2026-04-11T06:21:36.998Z</time></trkpt><trkpt lat="43.465065848441576" lon="11.359572490561796"><ele>365.0</ele><time>2026-04-11T06:21:38.998Z</time></trkpt><trkpt lat="43.4651138577946" lon="11.35971726858125"><ele>364.6</ele><time>2026-04-11T06:21:40.998Z</time></trkpt><trkpt lat="43.46516524278928" lon="11.35986320626316"><ele>364.2</ele><time>2026-04-11T06:21:42.998Z</time></trkpt><trkpt lat="43.46521831234286" lon="11.359994711568367"><ele>363.79999999999995</ele><time>2026-04-11T06:21:44.998Z</time></trkpt><trkpt lat="43.465282888200925" lon="11.360112604798822"><ele>363.4</ele><time>2026-04-11T06:21:46.998Z</time></trkpt><trkpt lat="43.46536068524069" lon="11.360194670224711"><ele>363.0</ele><time>2026-04-11T06:21:48.998Z</time></trkpt><trkpt lat="43.46543965467072" lon="11.360293519002767"><ele>364.4</ele><time>2026-04-11T06:21:50.998Z</time></trkpt><trkpt lat="43.465504742214954" lon="11.360423173742333"><ele>365.79999999999995</ele><time>2026-04-11T06:21:53Z</time></trkpt><trkpt lat="43.465562105454495" lon="11.360550301944341"><ele>367.2</ele><time>2026-04-11T06:21:55Z</time></trkpt><trkpt lat="43.46561898689488" lon="11.360670131982321"><ele>368.6</ele><time>2026-04-11T06:21:57Z</time></trkpt><trkpt lat="43.46567656931812" lon="11.360773453333664"><ele>370.0</ele><time>2026-04-11T06:21:59Z</time></trkpt><trkpt lat="43.46574676583172" lon="11.360871095018657"><ele>370.0</ele><time>2026-04-11T06:22:01Z</time></trkpt><trkpt lat="43.465826447673386" lon="11.360953795519201"><ele>370.0</ele><time>2026-04-11T06:22:03Z</time></trkpt><trkpt lat="43.46591407368471" lon="11.361019968582777"><ele>370.0</ele><time>2026-04-11T06:22:05Z</time></trkpt><trkpt lat="43.4659898306518" lon="11.361071927303213"><ele>370.0</ele><time>2026-04-11T06:22:07Z</time></trkpt><trkpt lat="43.466047338625806" lon="11.3611097568383"><ele>370.0</ele><time>2026-04-11T06:22:09Z</time></trkpt><trkpt lat="43.46610444595139" lon="11.361177292385213"><ele>370.0</ele><time>2026-04-11T06:22:12Z</time></trkpt><trkpt lat="43.46615163248299" lon="11.361275031658918"><ele>369.5</ele><time>2026-04-11T06:22:15Z</time></trkpt><trkpt lat="43.466199540999405" lon="11.361383193173381"><ele>369.0</ele><time>2026-04-11T06:22:18Z</time></trkpt><trkpt lat="43.46622487643026" lon="11.361473918309425"><ele>368.5</ele><time>2026-04-11T06:22:20Z</time></trkpt><trkpt lat="43.466258179317805" lon="11.361570291609537"><ele>368.0</ele><time>2026-04-11T06:22:23Z</time></trkpt><trkpt lat="43.46627931035894" lon="11.361724511632541"><ele>367.5</ele><time>2026-04-11T06:22:25Z</time></trkpt><trkpt lat="43.466308226693265" lon="11.361837778393364"><ele>367.0</ele><time>2026-04-11T06:22:27Z</time></trkpt><trkpt lat="43.46634711480231" lon="11.361940549091486"><ele>367.3333333333333</ele><time>2026-04-11T06:22:29Z</time></trkpt><trkpt lat="43.46637825857111" lon="11.362037322164522"><ele>367.66666666666663</ele><time>2026-04-11T06:22:31Z</time></trkpt><trkpt lat="43.46641774122681" lon="11.362145538083277"><ele>368.0</ele><time>2026-04-11T06:22:33Z</time></trkpt><trkpt lat="43.46646318657805" lon="11.36224607766263"><ele>368.3333333333333</ele><time>2026-04-11T06:22:35Z</time></trkpt><trkpt lat="43.466499607323364" lon="11.36234002751099"><ele>368.6666666666667</ele><time>2026-04-11T06:22:37Z</time></trkpt><trkpt lat="43.46653847345516" lon="11.362427900542544"><ele>369.0</ele><time>2026-04-11T06:22:39Z</time></trkpt><trkpt lat="43.4665814593308" lon="11.362506472567013"><ele>369.0</ele><time>2026-04-11T06:22:41Z</time></trkpt><trkpt lat="43.4666395253786" lon="11.362606534169155"><ele>369.0</ele><time>2026-04-11T06:22:44Z</time></trkpt><trkpt lat="43.46668715000202" lon="11.362667701204883"><ele>369.0</ele><time>2026-04-11T06:22:46Z</time></trkpt><trkpt lat="43.4667440887147" lon="11.362757981532372"><ele>369.0</ele><time>2026-04-11T06:22:48Z</time></trkpt><trkpt lat="43.46679916420483" lon="11.362863880660163"><ele>369.0</ele><time>2026-04-11T06:22:50Z</time></trkpt><trkpt lat="43.466838292613154" lon="11.362991162663919"><ele>369.0</ele><time>2026-04-11T06:22:51.999Z</time></trkpt><trkpt lat="43.46685028900806" lon="11.363127017519894"><ele>368.5</ele><time>2026-04-11T06:22:53.999Z</time></trkpt><trkpt lat="43.46682545372692" lon="11.363248834368111"><ele>368.0</ele><time>2026-04-11T06:22:55.999Z</time></trkpt><trkpt lat="43.466797772872575" lon="11.363364392027384"><ele>367.5</ele><time>2026-04-11T06:22:57.999Z</time></trkpt><trkpt lat="43.46676558879175" lon="11.363479942406613"><ele>367.0</ele><time>2026-04-11T06:22:59.999Z</time></trkpt><trkpt lat="43.46673565427781" lon="11.363591193963986"><ele>366.5</ele><time>2026-04-11T06:23:01.999Z</time></trkpt><trkpt lat="43.466709116988504" lon="11.363700123979168"><ele>366.0</ele><time>2026-04-11T06:23:03.999Z</time></trkpt><trkpt lat="43.46668925174685" lon="11.363803976175113"><ele>366.5</ele><time>2026-04-11T06:23:05.999Z</time></trkpt><trkpt lat="43.46666608940931" lon="11.36390519443818"><ele>367.0</ele><time>2026-04-11T06:23:07.999Z</time></trkpt><trkpt lat="43.46664376677517" lon="11.364005460808416"><ele>367.5</ele><time>2026-04-11T06:23:09.999Z</time></trkpt><trkpt lat="43.46662405237043" lon="11.364106175953548"><ele>368.0</ele><time>2026-04-11T06:23:11.999Z</time></trkpt><trkpt lat="43.46659955453236" lon="11.36421110314516"><ele>368.5</ele><time>2026-04-11T06:23:13.999Z</time></trkpt><trkpt lat="43.46658768929276" lon="11.364314542001944"><ele>369.0</ele><time>2026-04-11T06:23:15.999Z</time></trkpt><trkpt lat="43.4665698859892" lon="11.364417683467726"><ele>369.0</ele><time>2026-04-11T06:23:17.999Z</time></trkpt><trkpt lat="43.46654370891668" lon="11.364515679897023"><ele>369.0</ele><time>2026-04-11T06:23:19.999Z</time></trkpt><trkpt lat="43.46652598259497" lon="11.364614348965127"><ele>369.0</ele><time>2026-04-11T06:23:21.999Z</time></trkpt><trkpt lat="43.46650835382135" lon="11.36471345772374"><ele>369.0</ele><time>2026-04-11T06:23:23.999Z</time></trkpt><trkpt lat="43.46648544434144" lon="11.36481891216019"><ele>369.0</ele><time>2026-04-11T06:23:26.999Z</time></trkpt><trkpt lat="43.46646340764441" lon="11.365025702056439"><ele>369.1666666666667</ele><time>2026-04-11T06:23:29.999Z</time></trkpt><trkpt lat="43.466438621416714" lon="11.365136352859656"><ele>369.3333333333333</ele><time>2026-04-11T06:23:31.999Z</time></trkpt><trkpt lat="43.46641154721545" lon="11.365240109230424"><ele>369.5</ele><time>2026-04-11T06:23:33.999Z</time></trkpt><trkpt lat="43.466374021505864" lon="11.36536078884629"><ele>369.66666666666663</ele><time>2026-04-11T06:23:35.999Z</time></trkpt><trkpt lat="43.46634905458836" lon="11.365482864273028"><ele>369.8333333333333</ele><time>2026-04-11T06:23:37.999Z</time></trkpt><trkpt lat="43.466322408394284" lon="11.365601703645845"><ele>370.0</ele><time>2026-04-11T06:23:39.999Z</time></trkpt><trkpt lat="43.46629892165401" lon="11.365722428865645"><ele>369.8333333333333</ele><time>2026-04-11T06:23:41.998Z</time></trkpt><trkpt lat="43.466276394231684" lon="11.365837018983544"><ele>369.66666666666663</ele><time>2026-04-11T06:23:43.998Z</time></trkpt><trkpt lat="43.466255060204915" lon="11.365948138926473"><ele>369.5</ele><time>2026-04-11T06:23:45.998Z</time></trkpt><trkpt lat="43.466225092302814" lon="11.36602586473944"><ele>369.3333333333333</ele><time>2026-04-11T06:23:46.998Z</time></trkpt><trkpt lat="43.46619861933661" lon="11.366142235769926"><ele>369.1666666666667</ele><time>2026-04-11T06:23:48.998Z</time></trkpt><trkpt lat="43.466175387595186" lon="11.366241838295203"><ele>369.0</ele><time>2026-04-11T06:23:50.998Z</time></trkpt><trkpt lat="43.466163836087446" lon="11.366373268990918"><ele>369.0</ele><time>2026-04-11T06:23:53.998Z</time></trkpt><trkpt lat="43.466144024045214" lon="11.366470276839825"><ele>369.0</ele><time>2026-04-11T06:23:55.998Z</time></trkpt><trkpt lat="43.46611819890685" lon="11.366561255492844"><ele>369.0</ele><time>2026-04-11T06:23:57.998Z</time></trkpt><trkpt lat="43.46610357271048" lon="11.36665615988374"><ele>369.0</ele><time>2026-04-11T06:24:00Z</time></trkpt><trkpt lat="43.46607876097982" lon="11.366747637285906"><ele>369.0</ele><time>2026-04-11T06:24:02Z</time></trkpt><trkpt lat="43.466056929052" lon="11.366837563514508"><ele>369.0</ele><time>2026-04-11T06:24:04Z</time></trkpt><trkpt lat="43.46604031633881" lon="11.366934808074113"><ele>369.0</ele><time>2026-04-11T06:24:06Z</time></trkpt><trkpt lat="43.46602070671161" lon="11.367027115126332"><ele>369.0</ele><time>2026-04-11T06:24:08Z</time></trkpt><trkpt lat="43.46600378120373" lon="11.36711698888973"><ele>369.0</ele><time>2026-04-11T06:24:10Z</time></trkpt><trkpt lat="43.465983402624836" lon="11.367209773807375"><ele>369.0</ele><time>2026-04-11T06:24:12Z</time></trkpt><trkpt lat="43.46596074450621" lon="11.36732214617729"><ele>369.0</ele><time>2026-04-11T06:24:15Z</time></trkpt><trkpt lat="43.46593564966309" lon="11.36744389189131"><ele>369.0</ele><time>2026-04-11T06:24:17Z</time></trkpt><trkpt lat="43.46591819994248" lon="11.367543001987881"><ele>369.0</ele><time>2026-04-11T06:24:20Z</time></trkpt><trkpt lat="43.4658866089043" lon="11.36769696583299"><ele>369.3333333333333</ele><time>2026-04-11T06:24:22Z</time></trkpt><trkpt lat="43.46586844124558" lon="11.36780747395956"><ele>369.6666666666667</ele><time>2026-04-11T06:24:24Z</time></trkpt><trkpt lat="43.46584578498893" lon="11.367916960056887"><ele>370.0</ele><time>2026-04-11T06:24:26Z</time></trkpt><trkpt lat="43.465818535252026" lon="11.368024612224536"><ele>370.33333333333337</ele><time>2026-04-11T06:24:28Z</time></trkpt><trkpt lat="43.465796777181296" lon="11.368134910912454"><ele>370.6666666666667</ele><time>2026-04-11T06:24:30Z</time></trkpt><trkpt lat="43.46578177678211" lon="11.368252324202578"><ele>371.0</ele><time>2026-04-11T06:24:32Z</time></trkpt><trkpt lat="43.46576429839747" lon="11.368366343083682"><ele>371.5</ele><time>2026-04-11T06:24:34Z</time></trkpt><trkpt lat="43.465752120074555" lon="11.368478740662853"><ele>372.0</ele><time>2026-04-11T06:24:36Z</time></trkpt><trkpt lat="43.46575449229958" lon="11.368597164488163"><ele>372.5</ele><time>2026-04-11T06:24:38Z</time></trkpt><trkpt lat="43.46576265745455" lon="11.36871295352013"><ele>373.0</ele><time>2026-04-11T06:24:40Z</time></trkpt><trkpt lat="43.465767683781124" lon="11.368810670364372"><ele>373.5</ele><time>2026-04-11T06:24:42Z</time></trkpt><trkpt lat="43.465805778330754" lon="11.368939043277395"><ele>374.0</ele><time>2026-04-11T06:24:44Z</time></trkpt><trkpt lat="43.46582982122004" lon="11.369055169164428"><ele>374.0</ele><time>2026-04-11T06:24:46Z</time></trkpt><trkpt lat="43.46585924688475" lon="11.369171099322713"><ele>374.0</ele><time>2026-04-11T06:24:48Z</time></trkpt><trkpt lat="43.46588449616359" lon="11.369287103505041"><ele>374.0</ele><time>2026-04-11T06:24:50Z</time></trkpt><trkpt lat="43.465914212052034" lon="11.369403624158991"><ele>374.0</ele><time>2026-04-11T06:24:52Z</time></trkpt><trkpt lat="43.46594423571281" lon="11.36952265062923"><ele>374.0</ele><time>2026-04-11T06:24:54Z</time></trkpt><trkpt lat="43.46597618734149" lon="11.369641059254322"><ele>374.4</ele><time>2026-04-11T06:24:56Z</time></trkpt><trkpt lat="43.46601176545352" lon="11.36975730530064"><ele>374.79999999999995</ele><time>2026-04-11T06:24:58Z</time></trkpt><trkpt lat="43.466051390743786" lon="11.369870834723883"><ele>375.20000000000005</ele><time>2026-04-11T06:24:59.999Z</time></trkpt><trkpt lat="43.466092416530024" lon="11.369981844752228"><ele>375.6</ele><time>2026-04-11T06:25:01.999Z</time></trkpt><trkpt lat="43.46613472358507" lon="11.370082641175557"><ele>376.0</ele><time>2026-04-11T06:25:03.999Z</time></trkpt><trkpt lat="43.46619273732935" lon="11.370194262938709"><ele>376.0</ele><time>2026-04-11T06:25:05.999Z</time></trkpt><trkpt lat="43.46623873968844" lon="11.370309401407345"><ele>376.0</ele><time>2026-04-11T06:25:07.999Z</time></trkpt><trkpt lat="43.46629549023032" lon="11.370417966017431"><ele>376.0</ele><time>2026-04-11T06:25:09.999Z</time></trkpt><trkpt lat="43.46635165568351" lon="11.37053436520011"><ele>376.0</ele><time>2026-04-11T06:25:11.999Z</time></trkpt><trkpt lat="43.466421286805286" lon="11.370642136658383"><ele>376.0</ele><time>2026-04-11T06:25:13.999Z</time></trkpt><trkpt lat="43.466478447679684" lon="11.370751863133195"><ele>376.6</ele><time>2026-04-11T06:25:15.999Z</time></trkpt><trkpt lat="43.466542500057564" lon="11.370848478107321"><ele>377.20000000000005</ele><time>2026-04-11T06:25:17.999Z</time></trkpt><trkpt lat="43.466608700511344" lon="11.3709482900845"><ele>377.79999999999995</ele><time>2026-04-11T06:25:19.999Z</time></trkpt><trkpt lat="43.46666692480495" lon="11.371060437783326"><ele>378.4</ele><time>2026-04-11T06:25:21.999Z</time></trkpt><trkpt lat="43.46674330875612" lon="11.371141150629853"><ele>379.0</ele><time>2026-04-11T06:25:23.999Z</time></trkpt><trkpt lat="43.466818782656" lon="11.371223150635503"><ele>379.0</ele><time>2026-04-11T06:25:25.999Z</time></trkpt><trkpt lat="43.46689452242101" lon="11.371289178163751"><ele>379.0</ele><time>2026-04-11T06:25:27.999Z</time></trkpt><trkpt lat="43.4669775495286" lon="11.371338265924186"><ele>379.0</ele><time>2026-04-11T06:25:29.999Z</time></trkpt><trkpt lat="43.46706307833455" lon="11.371396726921576"><ele>379.0</ele><time>2026-04-11T06:25:31.999Z</time></trkpt><trkpt lat="43.46714363040503" lon="11.371441628069293"><ele>379.0</ele><time>2026-04-11T06:25:33.999Z</time></trkpt><trkpt lat="43.467225329584785" lon="11.371497395837078"><ele>379.16666666666663</ele><time>2026-04-11T06:25:35.999Z</time></trkpt><trkpt lat="43.46730373416399" lon="11.371562915385757"><ele>379.3333333333333</ele><time>2026-04-11T06:25:37.999Z</time></trkpt><trkpt lat="43.4673795574616" lon="11.371626779585227"><ele>379.5</ele><time>2026-04-11T06:25:39.999Z</time></trkpt><trkpt lat="43.467443935232616" lon="11.371700203348027"><ele>379.6666666666667</ele><time>2026-04-11T06:25:41.999Z</time></trkpt><trkpt lat="43.4675057716136" lon="11.371785668880575"><ele>379.83333333333337</ele><time>2026-04-11T06:25:43.999Z</time></trkpt><trkpt lat="43.467560833333856" lon="11.371883584864761"><ele>380.0</ele><time>2026-04-11T06:25:45.999Z</time></trkpt><trkpt lat="43.46760425318125" lon="11.371992686340766"><ele>380.0</ele><time>2026-04-11T06:25:47.999Z</time></trkpt><trkpt lat="43.467651521494766" lon="11.37210160045447"><ele>380.0</ele><time>2026-04-11T06:25:49.998Z</time></trkpt><trkpt lat="43.467695376600176" lon="11.3722151797319"><ele>380.0</ele><time>2026-04-11T06:25:51.998Z</time></trkpt><trkpt lat="43.467734751359416" lon="11.372333943981294"><ele>380.0</ele><time>2026-04-11T06:25:53.998Z</time></trkpt><trkpt lat="43.46777247946945" lon="11.372453878337936"><ele>380.0</ele><time>2026-04-11T06:25:55.998Z</time></trkpt><trkpt lat="43.46780759532592" lon="11.372564645852062"><ele>379.5</ele><time>2026-04-11T06:25:57.998Z</time></trkpt><trkpt lat="43.46783540040604" lon="11.372676924920984"><ele>379.0</ele><time>2026-04-11T06:25:59.998Z</time></trkpt><trkpt lat="43.46785114729721" lon="11.37279069806736"><ele>378.5</ele><time>2026-04-11T06:26:01.998Z</time></trkpt><trkpt lat="43.467863806588866" lon="11.372904697136125"><ele>378.0</ele><time>2026-04-11T06:26:03.998Z</time></trkpt><trkpt lat="43.46788318508628" lon="11.372992365441064"><ele>377.5</ele><time>2026-04-11T06:26:06Z</time></trkpt><trkpt lat="43.46788948363647" lon="11.373104788864438"><ele>377.0</ele><time>2026-04-11T06:26:08.999Z</time></trkpt><trkpt lat="43.467886178705896" lon="11.373217286032396"><ele>378.0</ele><time>2026-04-11T06:26:12.999Z</time></trkpt><trkpt lat="43.46794902961074" lon="11.373272782106083"><ele>379.0</ele><time>2026-04-11T06:26:15.999Z</time></trkpt><trkpt lat="43.46801621409961" lon="11.373303062561247"><ele>380.0</ele><time>2026-04-11T06:26:18.999Z</time></trkpt><trkpt lat="43.46808898682129" lon="11.373342493457468"><ele>381.0</ele><time>2026-04-11T06:26:20.999Z</time></trkpt><trkpt lat="43.46817365479723" lon="11.373379232968523"><ele>382.0</ele><time>2026-04-11T06:26:23.999Z</time></trkpt><trkpt lat="43.468257872088834" lon="11.373421564035384"><ele>383.0</ele><time>2026-04-11T06:26:27.999Z</time></trkpt><trkpt lat="43.46833545797067" lon="11.373455411988395"><ele>383.0</ele><time>2026-04-11T06:26:30.999Z</time></trkpt><trkpt lat="43.46842412120765" lon="11.373506523691889"><ele>383.0</ele><time>2026-04-11T06:26:33.999Z</time></trkpt><trkpt lat="43.468478672359346" lon="11.373562913485424"><ele>383.0</ele><time>2026-04-11T06:26:36.999Z</time></trkpt><trkpt lat="43.46855199243597" lon="11.37364674823268"><ele>383.0</ele><time>2026-04-11T06:26:38.999Z</time></trkpt><trkpt lat="43.4686026807172" lon="11.37370575343515"><ele>383.0</ele><time>2026-04-11T06:26:40.999Z</time></trkpt><trkpt lat="43.468643317835124" lon="11.373772061600311"><ele>383.0</ele><time>2026-04-11T06:26:42.999Z</time></trkpt><trkpt lat="43.46868714119453" lon="11.373836490414947"><ele>383.0</ele><time>2026-04-11T06:26:44.999Z</time></trkpt><trkpt lat="43.468736877100554" lon="11.373902980582386"><ele>383.0</ele><time>2026-04-11T06:26:46.999Z</time></trkpt><trkpt lat="43.468783340568294" lon="11.373980824174609"><ele>383.0</ele><time>2026-04-11T06:26:48.999Z</time></trkpt><trkpt lat="43.46883794097022" lon="11.374038859425504"><ele>383.0</ele><time>2026-04-11T06:26:51.999Z</time></trkpt><trkpt lat="43.46889384926447" lon="11.374094342714443"><ele>383.0</ele><time>2026-04-11T06:26:53.999Z</time></trkpt><trkpt lat="43.46899415285511" lon="11.374167219286338"><ele>383.0</ele><time>2026-04-11T06:26:55.999Z</time></trkpt><trkpt lat="43.46906227787935" lon="11.374201534565366"><ele>383.33333333333337</ele><time>2026-04-11T06:26:57.999Z</time></trkpt><trkpt lat="43.4691365113192" lon="11.374219016767077"><ele>383.6666666666667</ele><time>2026-04-11T06:26:59.999Z</time></trkpt><trkpt lat="43.46921064044996" lon="11.374227663154034"><ele>384.0</ele><time>2026-04-11T06:27:02.999Z</time></trkpt><trkpt lat="43.46929485148549" lon="11.374234077837043"><ele>384.33333333333337</ele><time>2026-04-11T06:27:04.999Z</time></trkpt><trkpt lat="43.469368169792375" lon="11.374228673640836"><ele>384.6666666666667</ele><time>2026-04-11T06:27:07.998Z</time></trkpt><trkpt lat="43.46945175395244" lon="11.374223616679384"><ele>385.0</ele><time>2026-04-11T06:27:10.998Z</time></trkpt><trkpt lat="43.469542916371026" lon="11.374227335943761"><ele>386.1666666666667</ele><time>2026-04-11T06:27:13.998Z</time></trkpt><trkpt lat="43.469623443978264" lon="11.374232485457105"><ele>387.33333333333337</ele><time>2026-04-11T06:27:16.998Z</time></trkpt><trkpt lat="43.469744562287985" lon="11.374232593111433"><ele>388.5</ele><time>2026-04-11T06:27:19.998Z</time></trkpt><trkpt lat="43.46981480611587" lon="11.374242718019817"><ele>389.66666666666663</ele><time>2026-04-11T06:27:22.998Z</time></trkpt><trkpt lat="43.46989051329991" lon="11.37424517946531"><ele>390.8333333333333</ele><time>2026-04-11T06:27:24.998Z</time></trkpt><trkpt lat="43.4699670587089" lon="11.374245009886247"><ele>392.0</ele><time>2026-04-11T06:27:26.998Z</time></trkpt><trkpt lat="43.47003988352208" lon="11.374259330423596"><ele>391.99999999999994</ele><time>2026-04-11T06:27:28.998Z</time></trkpt><trkpt lat="43.47011922106462" lon="11.374266737761602"><ele>392.0</ele><time>2026-04-11T06:27:31.998Z</time></trkpt><trkpt lat="43.470200972319994" lon="11.37426585450369"><ele>392.0</ele><time>2026-04-11T06:27:34.998Z</time></trkpt><trkpt lat="43.4702782366674" lon="11.374259564510915"><ele>392.0</ele><time>2026-04-11T06:27:36.998Z</time></trkpt><trkpt lat="43.47035845581576" lon="11.374251357630992"><ele>391.99999999999994</ele><time>2026-04-11T06:27:39.998Z</time></trkpt><trkpt lat="43.47045296721122" lon="11.374250253905403"><ele>392.0</ele><time>2026-04-11T06:27:42.998Z</time></trkpt><trkpt lat="43.470534724795556" lon="11.374245395369774"><ele>392.49999999999994</ele><time>2026-04-11T06:27:44.998Z</time></trkpt><trkpt lat="43.47063190763211" lon="11.37424848031878"><ele>393.0</ele><time>2026-04-11T06:27:47.998Z</time></trkpt><trkpt lat="43.47071583806469" lon="11.37424937378005"><ele>393.5</ele><time>2026-04-11T06:27:50.998Z</time></trkpt><trkpt lat="43.470805175725836" lon="11.374245805144351"><ele>394.0</ele><time>2026-04-11T06:27:53.998Z</time></trkpt><trkpt lat="43.47088143041561" lon="11.374237099799974"><ele>394.49999999999994</ele><time>2026-04-11T06:27:55.998Z</time></trkpt><trkpt lat="43.47096798147036" lon="11.374223949694013"><ele>395.0</ele><time>2026-04-11T06:27:58.997Z</time></trkpt><trkpt lat="43.47104879443502" lon="11.374206726441955"><ele>394.99999999999994</ele><time>2026-04-11T06:28:01.997Z</time></trkpt><trkpt lat="43.47114101494511" lon="11.374185646184273"><ele>395.0</ele><time>2026-04-11T06:28:04.997Z</time></trkpt><trkpt lat="43.47122869122532" lon="11.374164435829218"><ele>395.0</ele><time>2026-04-11T06:28:07.997Z</time></trkpt><trkpt lat="43.471290972423745" lon="11.37414800627806"><ele>395.0</ele><time>2026-04-11T06:28:09.997Z</time></trkpt><trkpt lat="43.471380646625775" lon="11.37411557596144"><ele>394.99999999999994</ele><time>2026-04-11T06:28:11.999Z</time></trkpt><trkpt lat="43.47144574252601" lon="11.374097463217904"><ele>395.0</ele><time>2026-04-11T06:28:15Z</time></trkpt><trkpt lat="43.471510484173635" lon="11.374076394908018"><ele>395.3333333333333</ele><time>2026-04-11T06:28:16.999Z</time></trkpt><trkpt lat="43.47159863527499" lon="11.374058572068304"><ele>395.66666666666663</ele><time>2026-04-11T06:28:20Z</time></trkpt><trkpt lat="43.47168926399567" lon="11.374039876452755"><ele>396.0</ele><time>2026-04-11T06:28:22Z</time></trkpt><trkpt lat="43.471762938608215" lon="11.374023687094372"><ele>396.33333333333337</ele><time>2026-04-11T06:28:25Z</time></trkpt><trkpt lat="43.47185402212604" lon="11.374003855517033"><ele>396.6666666666667</ele><time>2026-04-11T06:28:27.999Z</time></trkpt><trkpt lat="43.47193537229125" lon="11.373987081451272"><ele>397.0</ele><time>2026-04-11T06:28:30.999Z</time></trkpt><trkpt lat="43.472008432675395" lon="11.37396936269817"><ele>397.0</ele><time>2026-04-11T06:28:33.999Z</time></trkpt><trkpt lat="43.47208704882543" lon="11.373945604889519"><ele>397.0</ele><time>2026-04-11T06:28:36.999Z</time></trkpt><trkpt lat="43.47215127627068" lon="11.373923716306384"><ele>397.0</ele><time>2026-04-11T06:28:38.999Z</time></trkpt><trkpt lat="43.47221915594042" lon="11.373911430118378"><ele>397.0</ele><time>2026-04-11T06:28:41.999Z</time></trkpt><trkpt lat="43.47229545848915" lon="11.373905900914751"><ele>397.0</ele><time>2026-04-11T06:28:44.999Z</time></trkpt><trkpt lat="43.47236543407072" lon="11.373911348355703"><ele>397.0</ele><time>2026-04-11T06:28:46.999Z</time></trkpt><trkpt lat="43.47243953560942" lon="11.373932662235323"><ele>397.0</ele><time>2026-04-11T06:28:49.999Z</time></trkpt><trkpt lat="43.47250796220377" lon="11.373959465156602"><ele>397.85714285714283</ele><time>2026-04-11T06:28:52.999Z</time></trkpt><trkpt lat="43.4725683157948" lon="11.373985502726688"><ele>398.71428571428567</ele><time>2026-04-11T06:28:55.999Z</time></trkpt><trkpt lat="43.47262779456917" lon="11.374029755086475"><ele>399.57142857142856</ele><time>2026-04-11T06:28:58.999Z</time></trkpt><trkpt lat="43.47269725407331" lon="11.374075030408603"><ele>400.42857142857144</ele><time>2026-04-11T06:29:01.999Z</time></trkpt><trkpt lat="43.472761773081636" lon="11.374110312960308"><ele>401.2857142857143</ele><time>2026-04-11T06:29:04.999Z</time></trkpt><trkpt lat="43.472823352627564" lon="11.37413380743868"><ele>402.14285714285717</ele><time>2026-04-11T06:29:06.999Z</time></trkpt><trkpt lat="43.47289432886102" lon="11.37417239089242"><ele>403.0</ele><time>2026-04-11T06:29:09.999Z</time></trkpt><trkpt lat="43.47297324499278" lon="11.374224722922195"><ele>404.5714285714286</ele><time>2026-04-11T06:29:13.998Z</time></trkpt><trkpt lat="43.47303601430943" lon="11.374258863184362"><ele>406.1428571428571</ele><time>2026-04-11T06:29:16.998Z</time></trkpt><trkpt lat="43.473108057865275" lon="11.374293185319301"><ele>407.7142857142857</ele><time>2026-04-11T06:29:19.998Z</time></trkpt><trkpt lat="43.47317638747264" lon="11.37432313870013"><ele>409.28571428571433</ele><time>2026-04-11T06:29:22.998Z</time></trkpt><trkpt lat="43.47325082934581" lon="11.374347663335238"><ele>410.8571428571429</ele><time>2026-04-11T06:29:25.998Z</time></trkpt><trkpt lat="43.47332213087952" lon="11.37437077119184"><ele>412.42857142857144</ele><time>2026-04-11T06:29:28.998Z</time></trkpt><trkpt lat="43.47340502029166" lon="11.374376595022467"><ele>414.0</ele><time>2026-04-11T06:29:31.998Z</time></trkpt><trkpt lat="43.47347289537043" lon="11.374366645471321"><ele>414.00000000000006</ele><time>2026-04-11T06:29:34.998Z</time></trkpt><trkpt lat="43.473535975928506" lon="11.374344283162912"><ele>414.0</ele><time>2026-04-11T06:29:37.998Z</time></trkpt><trkpt lat="43.47360519030663" lon="11.374307107032122"><ele>414.0</ele><time>2026-04-11T06:29:40.998Z</time></trkpt><trkpt lat="43.473668879172" lon="11.374260531550512"><ele>414.0</ele><time>2026-04-11T06:29:43.998Z</time></trkpt><trkpt lat="43.473735376363074" lon="11.374200919112296"><ele>414.0</ele><time>2026-04-11T06:29:46.998Z</time></trkpt><trkpt lat="43.473779407583244" lon="11.374136659639454"><ele>414.00000000000006</ele><time>2026-04-11T06:29:49.998Z</time></trkpt><trkpt lat="43.47382564724608" lon="11.374067629832131"><ele>414.0</ele><time>2026-04-11T06:29:52.998Z</time></trkpt><trkpt lat="43.473894008015996" lon="11.373965355335821"><ele>414.00000000000006</ele><time>2026-04-11T06:29:56.998Z</time></trkpt><trkpt lat="43.47394064552379" lon="11.37389224188667"><ele>414.0</ele><time>2026-04-11T06:29:59.998Z</time></trkpt><trkpt lat="43.47398346937715" lon="11.373815210421789"><ele>414.0</ele><time>2026-04-11T06:30:02.998Z</time></trkpt><trkpt lat="43.47403246981772" lon="11.373743061305095"><ele>414.0</ele><time>2026-04-11T06:30:05.997Z</time></trkpt><trkpt lat="43.4740822276276" lon="11.373675381755488"><ele>414.0</ele><time>2026-04-11T06:30:08.997Z</time></trkpt><trkpt lat="43.4741386001039" lon="11.373623687020993"><ele>414.00000000000006</ele><time>2026-04-11T06:30:11.997Z</time></trkpt><trkpt lat="43.47420100669492" lon="11.373572932787996"><ele>414.0</ele><time>2026-04-11T06:30:14.997Z</time></trkpt><trkpt lat="43.47427993589814" lon="11.37352924040538"><ele>416.14285714285717</ele><time>2026-04-11T06:30:18Z</time></trkpt><trkpt lat="43.47434298576966" lon="11.373517275084865"><ele>418.2857142857143</ele><time>2026-04-11T06:30:21Z</time></trkpt><trkpt lat="43.474407088462954" lon="11.37352404997765"><ele>420.42857142857144</ele><time>2026-04-11T06:30:24Z</time></trkpt><trkpt lat="43.47447227871293" lon="11.373551363331858"><ele>422.57142857142856</ele><time>2026-04-11T06:30:27Z</time></trkpt><trkpt lat="43.47453187555292" lon="11.373605311369534"><ele>424.7142857142857</ele><time>2026-04-11T06:30:30Z</time></trkpt><trkpt lat="43.47458588008417" lon="11.373666147571255"><ele>426.8571428571429</ele><time>2026-04-11T06:30:32Z</time></trkpt><trkpt lat="43.4746455120653" lon="11.373734946244445"><ele>429.0</ele><time>2026-04-11T06:30:34.999Z</time></trkpt><trkpt lat="43.47470038780698" lon="11.373800313732014"><ele>427.5</ele><time>2026-04-11T06:30:37.999Z</time></trkpt><trkpt lat="43.4747703466768" lon="11.373860493309833"><ele>426.0</ele><time>2026-04-11T06:30:41.999Z</time></trkpt><trkpt lat="43.47483645173591" lon="11.37388244370699"><ele>424.5</ele><time>2026-04-11T06:30:44.999Z</time></trkpt><trkpt lat="43.47491043746795" lon="11.373904026217986"><ele>423.0</ele><time>2026-04-11T06:30:47.999Z</time></trkpt><trkpt lat="43.47499898813991" lon="11.373908833563018"><ele>421.5</ele><time>2026-04-11T06:30:50.999Z</time></trkpt><trkpt lat="43.4750707045399" lon="11.373896514344674"><ele>420.0</ele><time>2026-04-11T06:30:53.999Z</time></trkpt><trkpt lat="43.47514166829212" lon="11.37389033418014"><ele>420.0</ele><time>2026-04-11T06:30:56.999Z</time></trkpt><trkpt lat="43.475224168759375" lon="11.373870416959939"><ele>420.0</ele><time>2026-04-11T06:30:59.999Z</time></trkpt><trkpt lat="43.4753066335255" lon="11.37386227184454"><ele>420.0</ele><time>2026-04-11T06:31:03.999Z</time></trkpt><trkpt lat="43.47537633232149" lon="11.373850381563425"><ele>420.0</ele><time>2026-04-11T06:31:06.999Z</time></trkpt><trkpt lat="43.475448345871854" lon="11.373851702198603"><ele>420.0</ele><time>2026-04-11T06:31:09.999Z</time></trkpt><trkpt lat="43.475520711653985" lon="11.373835268859832"><ele>420.0</ele><time>2026-04-11T06:31:12.999Z</time></trkpt><trkpt lat="43.475594456099586" lon="11.373824854071747"><ele>422.85714285714283</ele><time>2026-04-11T06:31:15.999Z</time></trkpt><trkpt lat="43.475669430001325" lon="11.37380579756842"><ele>425.7142857142857</ele><time>2026-04-11T06:31:18.999Z</time></trkpt><trkpt lat="43.47574383264147" lon="11.373799287067992"><ele>428.57142857142856</ele><time>2026-04-11T06:31:21.999Z</time></trkpt><trkpt lat="43.47582286740824" lon="11.373792007581605"><ele>431.42857142857144</ele><time>2026-04-11T06:31:24.998Z</time></trkpt><trkpt lat="43.47589782839556" lon="11.373790414755907"><ele>434.2857142857143</ele><time>2026-04-11T06:31:26.998Z</time></trkpt><trkpt lat="43.47597058041933" lon="11.373776950777222"><ele>437.1428571428571</ele><time>2026-04-11T06:31:29.998Z</time></trkpt><trkpt lat="43.476040665712404" lon="11.37376935750301"><ele>440.0</ele><time>2026-04-11T06:31:32.998Z</time></trkpt><trkpt lat="43.4761490709291" lon="11.37376661090142"><ele>439.99999999999994</ele><time>2026-04-11T06:31:35.998Z</time></trkpt><trkpt lat="43.476222087992944" lon="11.373746123709498"><ele>440.0</ele><time>2026-04-11T06:31:38.998Z</time></trkpt><trkpt lat="43.476290715713695" lon="11.37372053845988"><ele>440.0</ele><time>2026-04-11T06:31:41.998Z</time></trkpt><trkpt lat="43.47636330802407" lon="11.373698292788701"><ele>440.0</ele><time>2026-04-11T06:31:44.998Z</time></trkpt><trkpt lat="43.47642083455991" lon="11.37365514520099"><ele>440.0</ele><time>2026-04-11T06:31:47.998Z</time></trkpt><trkpt lat="43.476472734667745" lon="11.373591759743906"><ele>439.99999999999994</ele><time>2026-04-11T06:31:50.998Z</time></trkpt><trkpt lat="43.476514972178954" lon="11.373510649865917"><ele>440.0</ele><time>2026-04-11T06:31:54.998Z</time></trkpt><trkpt lat="43.476544615353006" lon="11.373413548621972"><ele>439.1428571428571</ele><time>2026-04-11T06:31:58.998Z</time></trkpt><trkpt lat="43.476555037854645" lon="11.373322390935348"><ele>438.2857142857143</ele><time>2026-04-11T06:32:01.998Z</time></trkpt><trkpt lat="43.47656962277277" lon="11.37323055357232"><ele>437.42857142857144</ele><time>2026-04-11T06:32:04.998Z</time></trkpt><trkpt lat="43.47657987160278" lon="11.373135159878565"><ele>436.57142857142856</ele><time>2026-04-11T06:32:07.998Z</time></trkpt><trkpt lat="43.47659531344449" lon="11.373039208585652"><ele>435.7142857142857</ele><time>2026-04-11T06:32:09.998Z</time></trkpt><trkpt lat="43.47661291624952" lon="11.372940341836685"><ele>434.85714285714283</ele><time>2026-04-11T06:32:12.997Z</time></trkpt><trkpt lat="43.47663252518661" lon="11.372834251878977"><ele>434.0</ele><time>2026-04-11T06:32:16.997Z</time></trkpt><trkpt lat="43.4766429922016" lon="11.372747124928619"><ele>435.7142857142857</ele><time>2026-04-11T06:32:19.997Z</time></trkpt><trkpt lat="43.47665503248147" lon="11.372635802939719"><ele>437.42857142857144</ele><time>2026-04-11T06:32:23Z</time></trkpt><trkpt lat="43.47665870135943" lon="11.372547037860784"><ele>439.1428571428571</ele><time>2026-04-11T06:32:26Z</time></trkpt><trkpt lat="43.47666590909659" lon="11.372450546067112"><ele>440.8571428571429</ele><time>2026-04-11T06:32:29Z</time></trkpt><trkpt lat="43.476680700499976" lon="11.372356585467417"><ele>442.57142857142856</ele><time>2026-04-11T06:32:32Z</time></trkpt><trkpt lat="43.476688065790704" lon="11.372264236311414"><ele>444.2857142857143</ele><time>2026-04-11T06:32:35Z</time></trkpt><trkpt lat="43.476709306421284" lon="11.372164540837023"><ele>446.0</ele><time>2026-04-11T06:32:38Z</time></trkpt><trkpt lat="43.47673056444574" lon="11.372070148916924"><ele>447.2857142857143</ele><time>2026-04-11T06:32:41Z</time></trkpt><trkpt lat="43.47676233441511" lon="11.371984089724684"><ele>448.57142857142856</ele><time>2026-04-11T06:32:43.999Z</time></trkpt><trkpt lat="43.476815778779425" lon="11.371907290101769"><ele>449.8571428571429</ele><time>2026-04-11T06:32:46.999Z</time></trkpt><trkpt lat="43.47687457524063" lon="11.37185274759205"><ele>451.1428571428571</ele><time>2026-04-11T06:32:49.999Z</time></trkpt><trkpt lat="43.476942749088806" lon="11.371816108808817"><ele>452.42857142857144</ele><time>2026-04-11T06:32:53.999Z</time></trkpt><trkpt lat="43.47701632165106" lon="11.371805213373914"><ele>453.7142857142857</ele><time>2026-04-11T06:32:56.999Z</time></trkpt><trkpt lat="43.477093738136595" lon="11.371807552827493"><ele>455.0</ele><time>2026-04-11T06:32:59.999Z</time></trkpt><trkpt lat="43.47715994513634" lon="11.371827533107105"><ele>455.2857142857143</ele><time>2026-04-11T06:33:03.999Z</time></trkpt><trkpt lat="43.477223309859696" lon="11.371840286774244"><ele>455.57142857142856</ele><time>2026-04-11T06:33:06.999Z</time></trkpt><trkpt lat="43.47730100635746" lon="11.371882287857336"><ele>455.8571428571429</ele><time>2026-04-11T06:33:10.999Z</time></trkpt><trkpt lat="43.477362370812706" lon="11.37190534146486"><ele>456.14285714285717</ele><time>2026-04-11T06:33:13.999Z</time></trkpt><trkpt lat="43.477427922681706" lon="11.371933637649851"><ele>456.42857142857144</ele><time>2026-04-11T06:33:16.999Z</time></trkpt><trkpt lat="43.4774961089948" lon="11.37195907244788"><ele>456.7142857142858</ele><time>2026-04-11T06:33:19.999Z</time></trkpt><trkpt lat="43.47756471845199" lon="11.37196760026149"><ele>457.00000000000006</ele><time>2026-04-11T06:33:22.999Z</time></trkpt><trkpt lat="43.47763778045955" lon="11.3719835185259"><ele>457.00000000000006</ele><time>2026-04-11T06:33:25.999Z</time></trkpt><trkpt lat="43.477720249080335" lon="11.371970790465822"><ele>457.0</ele><time>2026-04-11T06:33:29.999Z</time></trkpt><trkpt lat="43.47780607357834" lon="11.371965110751256"><ele>457.0</ele><time>2026-04-11T06:33:32.998Z</time></trkpt><trkpt lat="43.47789329337061" lon="11.37194741925962"><ele>457.0</ele><time>2026-04-11T06:33:35.998Z</time></trkpt><trkpt lat="43.47796251317343" lon="11.371915836450896"><ele>457.00000000000006</ele><time>2026-04-11T06:33:38.998Z</time></trkpt><trkpt lat="43.478028569364355" lon="11.37187373232842"><ele>457.0</ele><time>2026-04-11T06:33:41.998Z</time></trkpt><trkpt lat="43.47810583855074" lon="11.37182130253261"><ele>456.50000000000006</ele><time>2026-04-11T06:33:44.998Z</time></trkpt><trkpt lat="43.47814981292182" lon="11.371758928151026"><ele>456.0</ele><time>2026-04-11T06:33:47.998Z</time></trkpt><trkpt lat="43.478199083484256" lon="11.371676472657013"><ele>455.5</ele><time>2026-04-11T06:33:50.998Z</time></trkpt><trkpt lat="43.47823175775158" lon="11.371571595285042"><ele>455.0</ele><time>2026-04-11T06:33:54.998Z</time></trkpt><trkpt lat="43.47824563353929" lon="11.371476927086974"><ele>454.50000000000006</ele><time>2026-04-11T06:33:57.998Z</time></trkpt><trkpt lat="43.478245556292464" lon="11.371359581414675"><ele>454.0</ele><time>2026-04-11T06:34:00.998Z</time></trkpt><trkpt lat="43.47823259656718" lon="11.371257430613603"><ele>455.28571428571433</ele><time>2026-04-11T06:34:04.998Z</time></trkpt><trkpt lat="43.47821458894568" lon="11.371167201453801"><ele>456.5714285714286</ele><time>2026-04-11T06:34:07.998Z</time></trkpt><trkpt lat="43.47819303340662" lon="11.371072650660379"><ele>457.8571428571429</ele><time>2026-04-11T06:34:10.998Z</time></trkpt><trkpt lat="43.47817194899177" lon="11.370980171531421"><ele>459.1428571428571</ele><time>2026-04-11T06:34:13.998Z</time></trkpt><trkpt lat="43.47814679129345" lon="11.370888536486248"><ele>460.4285714285714</ele><time>2026-04-11T06:34:16.998Z</time></trkpt><trkpt lat="43.47811597953931" lon="11.37078313589793"><ele>461.71428571428567</ele><time>2026-04-11T06:34:20.998Z</time></trkpt><trkpt lat="43.47809426351451" lon="11.370687025984495"><ele>463.0</ele><time>2026-04-11T06:34:23.997Z</time></trkpt><trkpt lat="43.478070435746055" lon="11.370595436983244"><ele>464.33333333333337</ele><time>2026-04-11T06:34:26.997Z</time></trkpt><trkpt lat="43.478035293309645" lon="11.37048788700872"><ele>465.6666666666667</ele><time>2026-04-11T06:34:31Z</time></trkpt><trkpt lat="43.47801130652401" lon="11.370391563480396"><ele>467.0</ele><time>2026-04-11T06:34:34Z</time></trkpt><trkpt lat="43.47798336916002" lon="11.370293704157813"><ele>468.33333333333337</ele><time>2026-04-11T06:34:38Z</time></trkpt><trkpt lat="43.47796756789113" lon="11.370165327152282"><ele>469.6666666666667</ele><time>2026-04-11T06:34:42Z</time></trkpt><trkpt lat="43.47797500780029" lon="11.370072449426734"><ele>471.0</ele><time>2026-04-11T06:34:45Z</time></trkpt><trkpt lat="43.47798791249836" lon="11.369983219376708"><ele>471.0</ele><time>2026-04-11T06:34:48Z</time></trkpt><trkpt lat="43.478031115782976" lon="11.369886321358807"><ele>471.0</ele><time>2026-04-11T06:34:50.999Z</time></trkpt><trkpt lat="43.47809611947266" lon="11.369818085041574"><ele>471.0</ele><time>2026-04-11T06:34:53.999Z</time></trkpt><trkpt lat="43.47816221202333" lon="11.369789857730451"><ele>471.0</ele><time>2026-04-11T06:34:56.999Z</time></trkpt><trkpt lat="43.4782492436334" lon="11.369788236144366"><ele>471.0</ele><time>2026-04-11T06:35:00.999Z</time></trkpt><trkpt lat="43.4783271737951" lon="11.369798091027437"><ele>471.0</ele><time>2026-04-11T06:35:03.999Z</time></trkpt><trkpt lat="43.47839308928665" lon="11.369807403858314"><ele>471.0</ele><time>2026-04-11T06:35:06.999Z</time></trkpt><trkpt lat="43.4784689732333" lon="11.369814055065394"><ele>471.0</ele><time>2026-04-11T06:35:09.999Z</time></trkpt><trkpt lat="43.47853500448248" lon="11.369803119325267"><ele>471.0</ele><time>2026-04-11T06:35:11.999Z</time></trkpt><trkpt lat="43.47860802364793" lon="11.369783222764058"><ele>471.0</ele><time>2026-04-11T06:35:14.999Z</time></trkpt><trkpt lat="43.47867562929389" lon="11.369746327478788"><ele>471.0</ele><time>2026-04-11T06:35:17.999Z</time></trkpt><trkpt lat="43.47874625226311" lon="11.369680992360097"><ele>471.0</ele><time>2026-04-11T06:35:20.999Z</time></trkpt><trkpt lat="43.478813855898736" lon="11.369612611270513"><ele>472.4285714285715</ele><time>2026-04-11T06:35:23.999Z</time></trkpt><trkpt lat="43.478862652072436" lon="11.36954266304518"><ele>473.8571428571429</ele><time>2026-04-11T06:35:26.999Z</time></trkpt><trkpt lat="43.47891154340978" lon="11.369479941235769"><ele>475.2857142857143</ele><time>2026-04-11T06:35:29.999Z</time></trkpt><trkpt lat="43.47896134387251" lon="11.369417590380898"><ele>476.7142857142857</ele><time>2026-04-11T06:35:32.999Z</time></trkpt><trkpt lat="43.47900708263697" lon="11.369344344460215"><ele>478.1428571428571</ele><time>2026-04-11T06:35:35.999Z</time></trkpt><trkpt lat="43.479059618567206" lon="11.369278116076927"><ele>479.5714285714285</ele><time>2026-04-11T06:35:38.999Z</time></trkpt><trkpt lat="43.47910606287625" lon="11.369205725301725"><ele>480.99999999999994</ele><time>2026-04-11T06:35:41.998Z</time></trkpt><trkpt lat="43.479151067972566" lon="11.369133977192897"><ele>480.99999999999994</ele><time>2026-04-11T06:35:44.998Z</time></trkpt><trkpt lat="43.47919808544471" lon="11.369064973014355"><ele>481.0</ele><time>2026-04-11T06:35:47.998Z</time></trkpt><trkpt lat="43.479245485616715" lon="11.368997554358284"><ele>480.99999999999994</ele><time>2026-04-11T06:35:50.998Z</time></trkpt><trkpt lat="43.47930238262167" lon="11.368931052014126"><ele>480.99999999999994</ele><time>2026-04-11T06:35:53.998Z</time></trkpt><trkpt lat="43.47935456702681" lon="11.368850279851147"><ele>481.0</ele><time>2026-04-11T06:35:57.998Z</time></trkpt><trkpt lat="43.479407959887986" lon="11.3687819687036"><ele>480.99999999999994</ele><time>2026-04-11T06:36:00.998Z</time></trkpt><trkpt lat="43.479466491154454" lon="11.368731618496438"><ele>480.99999999999994</ele><time>2026-04-11T06:36:02.998Z</time></trkpt><trkpt lat="43.479519357188465" lon="11.368665433695504"><ele>481.1666666666667</ele><time>2026-04-11T06:36:04.998Z</time></trkpt><trkpt lat="43.479579187909835" lon="11.368583772333434"><ele>481.33333333333337</ele><time>2026-04-11T06:36:07.998Z</time></trkpt><trkpt lat="43.479631852809966" lon="11.368492403383177"><ele>481.5</ele><time>2026-04-11T06:36:10.998Z</time></trkpt><trkpt lat="43.47968511186268" lon="11.368417278331462"><ele>481.66666666666663</ele><time>2026-04-11T06:36:12.998Z</time></trkpt><trkpt lat="43.479735877765414" lon="11.368323367388896"><ele>481.8333333333333</ele><time>2026-04-11T06:36:15.998Z</time></trkpt><trkpt lat="43.47979091904876" lon="11.368236158827253"><ele>482.0</ele><time>2026-04-11T06:36:18.998Z</time></trkpt><trkpt lat="43.47984799410137" lon="11.368161230665685"><ele>481.99999999999994</ele><time>2026-04-11T06:36:21.998Z</time></trkpt><trkpt lat="43.479903233646084" lon="11.368084900274884"><ele>482.0</ele><time>2026-04-11T06:36:24.998Z</time></trkpt><trkpt lat="43.479955333711246" lon="11.368006357011675"><ele>482.0</ele><time>2026-04-11T06:36:27.998Z</time></trkpt><trkpt lat="43.48000602495431" lon="11.367917875512154"><ele>482.0</ele><time>2026-04-11T06:36:30.997Z</time></trkpt><trkpt lat="43.4800569414557" lon="11.367828750239026"><ele>481.99999999999994</ele><time>2026-04-11T06:36:34Z</time></trkpt><trkpt lat="43.4801130939122" lon="11.367739319366478"><ele>482.0</ele><time>2026-04-11T06:36:37Z</time></trkpt><trkpt lat="43.480183073267355" lon="11.367669551900768"><ele>483.14285714285717</ele><time>2026-04-11T06:36:40Z</time></trkpt><trkpt lat="43.48024276157037" lon="11.367630464163517"><ele>484.28571428571433</ele><time>2026-04-11T06:36:43Z</time></trkpt><trkpt lat="43.48030560334578" lon="11.367622812893694"><ele>485.42857142857144</ele><time>2026-04-11T06:36:45Z</time></trkpt><trkpt lat="43.48039269304219" lon="11.367640397468579"><ele>486.57142857142856</ele><time>2026-04-11T06:36:48Z</time></trkpt><trkpt lat="43.48046398037315" lon="11.367675022615026"><ele>487.7142857142857</ele><time>2026-04-11T06:36:50Z</time></trkpt><trkpt lat="43.480526542501025" lon="11.367710569330269"><ele>488.8571428571429</ele><time>2026-04-11T06:36:52Z</time></trkpt><trkpt lat="43.48061088605668" lon="11.367733888698007"><ele>490.0</ele><time>2026-04-11T06:36:55Z</time></trkpt><trkpt lat="43.48068195603163" lon="11.367720079625792"><ele>490.00000000000006</ele><time>2026-04-11T06:36:57.999Z</time></trkpt><trkpt lat="43.480759759382416" lon="11.367664829318153"><ele>490.0</ele><time>2026-04-11T06:37:00.999Z</time></trkpt><trkpt lat="43.48081368951722" lon="11.367605486190083"><ele>490.0</ele><time>2026-04-11T06:37:02.999Z</time></trkpt><trkpt lat="43.480870921646655" lon="11.367509055948696"><ele>490.0</ele><time>2026-04-11T06:37:05.999Z</time></trkpt><trkpt lat="43.480908428675775" lon="11.367438479372785"><ele>490.00000000000006</ele><time>2026-04-11T06:37:07.999Z</time></trkpt><trkpt lat="43.480968629458026" lon="11.367329838549994"><ele>490.0</ele><time>2026-04-11T06:37:10.999Z</time></trkpt><trkpt lat="43.48101590706274" lon="11.367265866848555"><ele>490.0</ele><time>2026-04-11T06:37:12.999Z</time></trkpt><trkpt lat="43.48107019820163" lon="11.36722000741273"><ele>490.0</ele><time>2026-04-11T06:37:14.999Z</time></trkpt><trkpt lat="43.48112900153005" lon="11.367178254292389"><ele>490.0</ele><time>2026-04-11T06:37:16.999Z</time></trkpt><trkpt lat="43.48121238717056" lon="11.367137443619388"><ele>490.0</ele><time>2026-04-11T06:37:19.999Z</time></trkpt><trkpt lat="43.48130389414431" lon="11.367112712787314"><ele>490.0</ele><time>2026-04-11T06:37:22.999Z</time></trkpt><trkpt lat="43.481370330066376" lon="11.367108278895627"><ele>490.0</ele><time>2026-04-11T06:37:24.999Z</time></trkpt><trkpt lat="43.481434337891486" lon="11.367127909362257"><ele>490.0</ele><time>2026-04-11T06:37:26.999Z</time></trkpt><trkpt lat="43.48150060962607" lon="11.367136419499053"><ele>491.00000000000006</ele><time>2026-04-11T06:37:28.999Z</time></trkpt><trkpt lat="43.48159109519424" lon="11.367124212201883"><ele>492.0</ele><time>2026-04-11T06:37:31.999Z</time></trkpt><trkpt lat="43.481682752057694" lon="11.367100561811577"><ele>493.0</ele><time>2026-04-11T06:37:34.999Z</time></trkpt><trkpt lat="43.48177216500702" lon="11.367059581714937"><ele>494.0</ele><time>2026-04-11T06:37:37.999Z</time></trkpt><trkpt lat="43.48185302850579" lon="11.36699377689529"><ele>495.00000000000006</ele><time>2026-04-11T06:37:40.999Z</time></trkpt><trkpt lat="43.48190261364501" lon="11.366937713864978"><ele>496.0</ele><time>2026-04-11T06:37:42.999Z</time></trkpt><trkpt lat="43.48196495522455" lon="11.366844153096725"><ele>496.0</ele><time>2026-04-11T06:37:45.998Z</time></trkpt><trkpt lat="43.48200613974294" lon="11.366777643075688"><ele>496.00000000000006</ele><time>2026-04-11T06:37:47.998Z</time></trkpt><trkpt lat="43.4820510619395" lon="11.366713463009225"><ele>496.0</ele><time>2026-04-11T06:37:49.998Z</time></trkpt><trkpt lat="43.482093588390704" lon="11.366644052276719"><ele>496.0</ele><time>2026-04-11T06:37:51.998Z</time></trkpt><trkpt lat="43.482138504846255" lon="11.366574102601305"><ele>496.00000000000006</ele><time>2026-04-11T06:37:53.998Z</time></trkpt><trkpt lat="43.482191344216" lon="11.366512182450057"><ele>496.0</ele><time>2026-04-11T06:37:55.998Z</time></trkpt><trkpt lat="43.48224964157829" lon="11.366455416601132"><ele>496.0</ele><time>2026-04-11T06:37:57.998Z</time></trkpt><trkpt lat="43.48231599119854" lon="11.366413392162421"><ele>495.33333333333337</ele><time>2026-04-11T06:37:59.998Z</time></trkpt><trkpt lat="43.48238734990397" lon="11.366390348725337"><ele>494.6666666666667</ele><time>2026-04-11T06:38:01.998Z</time></trkpt><trkpt lat="43.48246824849727" lon="11.366404526713081"><ele>494.0</ele><time>2026-04-11T06:38:03.998Z</time></trkpt><trkpt lat="43.482553636097315" lon="11.36641686328742"><ele>493.33333333333337</ele><time>2026-04-11T06:38:05.998Z</time></trkpt><trkpt lat="43.48263493246254" lon="11.36642878974246"><ele>492.6666666666667</ele><time>2026-04-11T06:38:07.998Z</time></trkpt><trkpt lat="43.48270874401536" lon="11.366442071743437"><ele>492.0</ele><time>2026-04-11T06:38:09.998Z</time></trkpt><trkpt lat="43.482779139389905" lon="11.366457708398476"><ele>492.00000000000006</ele><time>2026-04-11T06:38:11.998Z</time></trkpt><trkpt lat="43.482847404031865" lon="11.366484025595497"><ele>492.0</ele><time>2026-04-11T06:38:13.998Z</time></trkpt><trkpt lat="43.48291159607945" lon="11.366501586948475"><ele>492.00000000000006</ele><time>2026-04-11T06:38:15.998Z</time></trkpt><trkpt lat="43.482974764628345" lon="11.366506189832622"><ele>492.00000000000006</ele><time>2026-04-11T06:38:17.998Z</time></trkpt><trkpt lat="43.483037740626074" lon="11.366504750538487"><ele>492.0</ele><time>2026-04-11T06:38:19.998Z</time></trkpt><trkpt lat="43.48310612827291" lon="11.366494051600075"><ele>492.00000000000006</ele><time>2026-04-11T06:38:21.998Z</time></trkpt><trkpt lat="43.48317475959712" lon="11.366464445192545"><ele>492.00000000000006</ele><time>2026-04-11T06:38:23.998Z</time></trkpt><trkpt lat="43.483245094708906" lon="11.366410510505398"><ele>494.5</ele><time>2026-04-11T06:38:26.998Z</time></trkpt><trkpt lat="43.483302868672496" lon="11.36635822308026"><ele>497.0</ele><time>2026-04-11T06:38:28.998Z</time></trkpt><trkpt lat="43.48337943804499" lon="11.366288266704041"><ele>499.5</ele><time>2026-04-11T06:38:31.998Z</time></trkpt><trkpt lat="43.483448963169465" lon="11.366199386103768"><ele>502.0</ele><time>2026-04-11T06:38:33.998Z</time></trkpt><trkpt lat="43.483517929684574" lon="11.366098262317232"><ele>504.5</ele><time>2026-04-11T06:38:35.997Z</time></trkpt><trkpt lat="43.483566378068375" lon="11.366028937574804"><ele>507.0</ele><time>2026-04-11T06:38:37.997Z</time></trkpt><trkpt lat="43.48362276254012" lon="11.365935712272101"><ele>507.0</ele><time>2026-04-11T06:38:41Z</time></trkpt><trkpt lat="43.48367446529542" lon="11.365852787860058"><ele>507.00000000000006</ele><time>2026-04-11T06:38:44Z</time></trkpt><trkpt lat="43.48373260854294" lon="11.365751328105555"><ele>507.00000000000006</ele><time>2026-04-11T06:38:47Z</time></trkpt><trkpt lat="43.48378385085702" lon="11.365684634167346"><ele>507.0</ele><time>2026-04-11T06:38:49Z</time></trkpt><trkpt lat="43.48383938126911" lon="11.365632359216573"><ele>507.0</ele><time>2026-04-11T06:38:51Z</time></trkpt><trkpt lat="43.483962339973296" lon="11.365537112316401"><ele>507.5</ele><time>2026-04-11T06:38:53Z</time></trkpt><trkpt lat="43.48402967404146" lon="11.365505809130369"><ele>508.0</ele><time>2026-04-11T06:38:55Z</time></trkpt><trkpt lat="43.484099545068375" lon="11.36551045096935"><ele>508.5</ele><time>2026-04-11T06:38:57Z</time></trkpt><trkpt lat="43.48418227736554" lon="11.365560027431377"><ele>509.0</ele><time>2026-04-11T06:38:59Z</time></trkpt><trkpt lat="43.48425774975812" lon="11.365638326698097"><ele>509.5</ele><time>2026-04-11T06:39:01Z</time></trkpt><trkpt lat="43.48433233003726" lon="11.365727099362157"><ele>510.0</ele><time>2026-04-11T06:39:03Z</time></trkpt><trkpt lat="43.48439492740883" lon="11.365830944181218"><ele>508.2</ele><time>2026-04-11T06:39:04.999Z</time></trkpt><trkpt lat="43.48442895232235" lon="11.365960303368162"><ele>506.4</ele><time>2026-04-11T06:39:06.999Z</time></trkpt><trkpt lat="43.484409712397195" lon="11.366106162635049"><ele>504.6</ele><time>2026-04-11T06:39:08.999Z</time></trkpt><trkpt lat="43.48438797702313" lon="11.366255856051842"><ele>502.8</ele><time>2026-04-11T06:39:10.999Z</time></trkpt><trkpt lat="43.48435092567477" lon="11.366390238757846"><ele>501.0</ele><time>2026-04-11T06:39:12.999Z</time></trkpt><trkpt lat="43.48433993910886" lon="11.366552289307155"><ele>499.8</ele><time>2026-04-11T06:39:14.999Z</time></trkpt><trkpt lat="43.48434684208237" lon="11.366717007419627"><ele>498.6</ele><time>2026-04-11T06:39:16.999Z</time></trkpt><trkpt lat="43.484380648405896" lon="11.366863154695533"><ele>497.4</ele><time>2026-04-11T06:39:18.999Z</time></trkpt><trkpt lat="43.48441222533154" lon="11.36695506768366"><ele>496.2</ele><time>2026-04-11T06:39:19.999Z</time></trkpt><trkpt lat="43.484436562835" lon="11.367035787718573"><ele>495.0</ele><time>2026-04-11T06:39:20.999Z</time></trkpt><trkpt lat="43.48447401683526" lon="11.367198651634181"><ele>494.8</ele><time>2026-04-11T06:39:22.999Z</time></trkpt><trkpt lat="43.48451656024643" lon="11.36734469450481"><ele>494.6</ele><time>2026-04-11T06:39:24.999Z</time></trkpt><trkpt lat="43.48455112134672" lon="11.367488375520859"><ele>494.4</ele><time>2026-04-11T06:39:26.999Z</time></trkpt><trkpt lat="43.4845678812477" lon="11.367631419556279"><ele>494.2</ele><time>2026-04-11T06:39:28.999Z</time></trkpt><trkpt lat="43.48459104964756" lon="11.36776097582512"><ele>494.0</ele><time>2026-04-11T06:39:30.999Z</time></trkpt><trkpt lat="43.48460886233931" lon="11.367884656424799"><ele>493.49999999999994</ele><time>2026-04-11T06:39:32.999Z</time></trkpt><trkpt lat="43.48462467652545" lon="11.368001973002965"><ele>493.0</ele><time>2026-04-11T06:39:34.999Z</time></trkpt><trkpt lat="43.48463916890707" lon="11.368113740712523"><ele>492.5</ele><time>2026-04-11T06:39:36.999Z</time></trkpt><trkpt lat="43.484671761716676" lon="11.368215991254495"><ele>492.0</ele><time>2026-04-11T06:39:38.999Z</time></trkpt><trkpt lat="43.48468480170536" lon="11.368320359977991"><ele>491.49999999999994</ele><time>2026-04-11T06:39:40.999Z</time></trkpt><trkpt lat="43.48469475291722" lon="11.368418631911066"><ele>491.0</ele><time>2026-04-11T06:39:43.999Z</time></trkpt><trkpt lat="43.48470483143045" lon="11.36850607712077"><ele>492.8333333333333</ele><time>2026-04-11T06:39:44.999Z</time></trkpt><trkpt lat="43.484716452914036" lon="11.368610715002356"><ele>494.66666666666663</ele><time>2026-04-11T06:39:47.999Z</time></trkpt><trkpt lat="43.48472836617516" lon="11.368705556326246"><ele>496.5</ele><time>2026-04-11T06:39:49.999Z</time></trkpt><trkpt lat="43.484745605103775" lon="11.368824291598248"><ele>498.33333333333337</ele><time>2026-04-11T06:39:51.999Z</time></trkpt><trkpt lat="43.48475886695043" lon="11.368911839493045"><ele>500.1666666666667</ele><time>2026-04-11T06:39:53.998Z</time></trkpt><trkpt lat="43.48477366987817" lon="11.369010540187483"><ele>502.0</ele><time>2026-04-11T06:39:55.998Z</time></trkpt><trkpt lat="43.484794139363146" lon="11.369120388044513"><ele>502.83333333333337</ele><time>2026-04-11T06:39:57.998Z</time></trkpt><trkpt lat="43.48481856857339" lon="11.36921372318589"><ele>503.6666666666667</ele><time>2026-04-11T06:40:00.998Z</time></trkpt><trkpt lat="43.48485571721658" lon="11.369302111326347"><ele>504.5</ele><time>2026-04-11T06:40:02.998Z</time></trkpt><trkpt lat="43.48489288623454" lon="11.36937622507539"><ele>505.33333333333337</ele><time>2026-04-11T06:40:04.998Z</time></trkpt><trkpt lat="43.48497700048569" lon="11.369532920016034"><ele>506.1666666666667</ele><time>2026-04-11T06:40:07.998Z</time></trkpt><trkpt lat="43.48503819722946" lon="11.369602481447066"><ele>507.0</ele><time>2026-04-11T06:40:09.998Z</time></trkpt><trkpt lat="43.48509606327863" lon="11.369670105995688"><ele>507.8333333333333</ele><time>2026-04-11T06:40:11.998Z</time></trkpt><trkpt lat="43.485158122419165" lon="11.369725799121117"><ele>508.66666666666663</ele><time>2026-04-11T06:40:13.998Z</time></trkpt><trkpt lat="43.485223179289214" lon="11.369775048891333"><ele>509.5</ele><time>2026-04-11T06:40:15.998Z</time></trkpt><trkpt lat="43.48529351245156" lon="11.369812042704764"><ele>510.3333333333333</ele><time>2026-04-11T06:40:17.998Z</time></trkpt><trkpt lat="43.48536536115087" lon="11.369850241506624"><ele>511.16666666666663</ele><time>2026-04-11T06:40:19.998Z</time></trkpt><trkpt lat="43.485440915424476" lon="11.369869581682815"><ele>512.0</ele><time>2026-04-11T06:40:21.998Z</time></trkpt><trkpt lat="43.48551642696829" lon="11.369889451509165"><ele>512.0</ele><time>2026-04-11T06:40:23.998Z</time></trkpt><trkpt lat="43.485587942607054" lon="11.3699106621973"><ele>511.99999999999994</ele><time>2026-04-11T06:40:25.998Z</time></trkpt><trkpt lat="43.485639501657026" lon="11.36996048868295"><ele>512.0</ele><time>2026-04-11T06:40:27.998Z</time></trkpt><trkpt lat="43.485711980877966" lon="11.369951172797402"><ele>512.0</ele><time>2026-04-11T06:40:31.998Z</time></trkpt><trkpt lat="43.48577227011376" lon="11.370012815168959"><ele>511.99999999999994</ele><time>2026-04-11T06:40:34.998Z</time></trkpt><trkpt lat="43.48581392750176" lon="11.370091932680522"><ele>512.0</ele><time>2026-04-11T06:40:37.998Z</time></trkpt><trkpt lat="43.485855348071055" lon="11.370157666564404"><ele>512.0</ele><time>2026-04-11T06:40:39.998Z</time></trkpt><trkpt lat="43.48592892742687" lon="11.370304620074304"><ele>511.99999999999994</ele><time>2026-04-11T06:40:42.997Z</time></trkpt><trkpt lat="43.48595875444755" lon="11.370394037903377"><ele>512.0</ele><time>2026-04-11T06:40:46Z</time></trkpt><trkpt lat="43.48600059524983" lon="11.370514919795362"><ele>512.0</ele><time>2026-04-11T06:40:48Z</time></trkpt><trkpt lat="43.48604201683113" lon="11.370606120189272"><ele>512.0</ele><time>2026-04-11T06:40:50Z</time></trkpt><trkpt lat="43.486076166170434" lon="11.370737275002275"><ele>511.99999999999994</ele><time>2026-04-11T06:40:52Z</time></trkpt><trkpt lat="43.48611060116847" lon="11.370818151473728"><ele>512.0</ele><time>2026-04-11T06:40:54Z</time></trkpt><trkpt lat="43.48616529209087" lon="11.370934415920923"><ele>513.0</ele><time>2026-04-11T06:40:57Z</time></trkpt><trkpt lat="43.48619852922713" lon="11.371043866045207"><ele>514.0</ele><time>2026-04-11T06:41:00Z</time></trkpt><trkpt lat="43.48622028784454" lon="11.371132386031956"><ele>515.0</ele><time>2026-04-11T06:41:02Z</time></trkpt><trkpt lat="43.486246978032064" lon="11.371239269242569"><ele>516.0</ele><time>2026-04-11T06:41:05Z</time></trkpt><trkpt lat="43.48626591168548" lon="11.371323336452118"><ele>517.0</ele><time>2026-04-11T06:41:08Z</time></trkpt><trkpt lat="43.48628002133774" lon="11.37141848044707"><ele>518.0</ele><time>2026-04-11T06:41:09.999Z</time></trkpt><trkpt lat="43.486293628354225" lon="11.371524612725652"><ele>519.0</ele><time>2026-04-11T06:41:12.999Z</time></trkpt><trkpt lat="43.48631053146813" lon="11.371612333334493"><ele>518.3333333333334</ele><time>2026-04-11T06:41:14.999Z</time></trkpt><trkpt lat="43.48632205143468" lon="11.371701116878883"><ele>517.6666666666666</ele><time>2026-04-11T06:41:15.999Z</time></trkpt><trkpt lat="43.48632676046664" lon="11.37182229852301"><ele>517.0</ele><time>2026-04-11T06:41:18.999Z</time></trkpt><trkpt lat="43.486337673163725" lon="11.371952154295217"><ele>516.3333333333333</ele><time>2026-04-11T06:41:21.999Z</time></trkpt><trkpt lat="43.486339994680506" lon="11.37204144974696"><ele>515.6666666666666</ele><time>2026-04-11T06:41:23.999Z</time></trkpt><trkpt lat="43.486353498687365" lon="11.372167830936242"><ele>515.0</ele><time>2026-04-11T06:41:26.999Z</time></trkpt><trkpt lat="43.48636908924618" lon="11.372288533608646"><ele>515.0</ele><time>2026-04-11T06:41:29.999Z</time></trkpt><trkpt lat="43.48638167543053" lon="11.3724013636076"><ele>515.0</ele><time>2026-04-11T06:41:32.999Z</time></trkpt><trkpt lat="43.486390368631916" lon="11.372518243705745"><ele>515.0</ele><time>2026-04-11T06:41:35.999Z</time></trkpt><trkpt lat="43.48639941125998" lon="11.372634541443313"><ele>515.0</ele><time>2026-04-11T06:41:38.999Z</time></trkpt><trkpt lat="43.48641378296105" lon="11.372748471631363"><ele>515.0</ele><time>2026-04-11T06:41:41.999Z</time></trkpt><trkpt lat="43.486428185399035" lon="11.37285160337856"><ele>515.0</ele><time>2026-04-11T06:41:44.999Z</time></trkpt><trkpt lat="43.48644993952256" lon="11.372947094594208"><ele>515.0</ele><time>2026-04-11T06:41:47.999Z</time></trkpt><trkpt lat="43.486507395425164" lon="11.372997463808822"><ele>515.0</ele><time>2026-04-11T06:41:51.999Z</time></trkpt><trkpt lat="43.48657010552049" lon="11.372972158610295"><ele>515.0</ele><time>2026-04-11T06:42:11.998Z</time></trkpt><trkpt lat="43.48653316465628" lon="11.373053949890716"><ele>515.0</ele><time>2026-04-11T06:44:52.998Z</time></trkpt><trkpt lat="43.48646269770121" lon="11.373111298705592"><ele>515.0</ele><time>2026-04-11T06:44:56.998Z</time></trkpt><trkpt lat="43.48643710614279" lon="11.373197047592965"><ele>515.0</ele><time>2026-04-11T06:44:59Z</time></trkpt><trkpt lat="43.48643108732317" lon="11.373321310434614"><ele>515.0</ele><time>2026-04-11T06:45:02Z</time></trkpt><trkpt lat="43.486401705843875" lon="11.37341479099168"><ele>516.0</ele><time>2026-04-11T06:45:04Z</time></trkpt><trkpt lat="43.48637313960312" lon="11.373512064438817"><ele>517.0</ele><time>2026-04-11T06:45:06Z</time></trkpt><trkpt lat="43.48633964880866" lon="11.373609359940632"><ele>518.0</ele><time>2026-04-11T06:45:08Z</time></trkpt><trkpt lat="43.486304043370836" lon="11.373711658607244"><ele>519.0</ele><time>2026-04-11T06:45:10Z</time></trkpt><trkpt lat="43.48626898973341" lon="11.373819100827406"><ele>520.0</ele><time>2026-04-11T06:45:12Z</time></trkpt><trkpt lat="43.486233729240304" lon="11.373932971937881"><ele>521.0</ele><time>2026-04-11T06:45:14Z</time></trkpt><trkpt lat="43.48620874133712" lon="11.374049587036756"><ele>521.0</ele><time>2026-04-11T06:45:16Z</time></trkpt><trkpt lat="43.486180617850245" lon="11.374170325198142"><ele>521.0</ele><time>2026-04-11T06:45:18Z</time></trkpt><trkpt lat="43.48615576133151" lon="11.374292142620087"><ele>521.0</ele><time>2026-04-11T06:45:20Z</time></trkpt><trkpt lat="43.4861583364197" lon="11.374417698600416"><ele>521.0</ele><time>2026-04-11T06:45:22Z</time></trkpt><trkpt lat="43.486174820785926" lon="11.374544713894448"><ele>521.0</ele><time>2026-04-11T06:45:24Z</time></trkpt><trkpt lat="43.4862283398368" lon="11.374672441874411"><ele>522.8333333333333</ele><time>2026-04-11T06:45:26Z</time></trkpt><trkpt lat="43.48630226635955" lon="11.37479365398459"><ele>524.6666666666666</ele><time>2026-04-11T06:45:27.999Z</time></trkpt><trkpt lat="43.48631271241829" lon="11.374890994848627"><ele>526.5</ele><time>2026-04-11T06:45:28.999Z</time></trkpt><trkpt lat="43.48635377195732" lon="11.374958497947931"><ele>528.3333333333334</ele><time>2026-04-11T06:45:29.999Z</time></trkpt><trkpt lat="43.48639694691364" lon="11.375029601175884"><ele>530.1666666666667</ele><time>2026-04-11T06:45:30.999Z</time></trkpt><trkpt lat="43.48644076951701" lon="11.375101770988199"><ele>532.0</ele><time>2026-04-11T06:45:31.999Z</time></trkpt><trkpt lat="43.486484857291245" lon="11.375174377498869"><ele>532.0</ele><time>2026-04-11T06:45:32.999Z</time></trkpt><trkpt lat="43.48652865686236" lon="11.37524650937896"><ele>532.0</ele><time>2026-04-11T06:45:33.999Z</time></trkpt><trkpt lat="43.48657113874913" lon="11.375316471213699"><ele>532.0</ele><time>2026-04-11T06:45:34.999Z</time></trkpt><trkpt lat="43.48661516252984" lon="11.375388972335461"><ele>532.0</ele><time>2026-04-11T06:45:35.999Z</time></trkpt><trkpt lat="43.48665914713612" lon="11.375461642337026"><ele>532.0</ele><time>2026-04-11T06:45:36.999Z</time></trkpt><trkpt lat="43.486705611637184" lon="11.375538666184136"><ele>532.0</ele><time>2026-04-11T06:45:37.999Z</time></trkpt><trkpt lat="43.486748995163296" lon="11.375610582721555"><ele>532.0</ele><time>2026-04-11T06:45:38.999Z</time></trkpt><trkpt lat="43.48682214241004" lon="11.375731838354778"><ele>530.3333333333334</ele><time>2026-04-11T06:45:40.999Z</time></trkpt><trkpt lat="43.48687870271731" lon="11.375842121096206"><ele>528.6666666666667</ele><time>2026-04-11T06:45:42.999Z</time></trkpt><trkpt lat="43.48690811377649" lon="11.375980868754846"><ele>527.0</ele><time>2026-04-11T06:45:44.999Z</time></trkpt><trkpt lat="43.48690895994082" lon="11.376067735274278"><ele>525.3333333333334</ele><time>2026-04-11T06:45:45.999Z</time></trkpt><trkpt lat="43.486902432411554" lon="11.376162386224705"><ele>523.6666666666666</ele><time>2026-04-11T06:45:46.999Z</time></trkpt><trkpt lat="43.486896005063244" lon="11.376274057232903"><ele>522.0</ele><time>2026-04-11T06:45:47.999Z</time></trkpt><trkpt lat="43.48688888452236" lon="11.376380272806298"><ele>520.8333333333334</ele><time>2026-04-11T06:45:48.999Z</time></trkpt><trkpt lat="43.48687576622043" lon="11.376560585113259"><ele>519.6666666666666</ele><time>2026-04-11T06:45:50.999Z</time></trkpt><trkpt lat="43.48686813307183" lon="11.376666296744299"><ele>518.5</ele><time>2026-04-11T06:45:51.999Z</time></trkpt><trkpt lat="43.486861041534404" lon="11.376765529677458"><ele>517.3333333333333</ele><time>2026-04-11T06:45:52.999Z</time></trkpt><trkpt lat="43.48685463611692" lon="11.376855161636335"><ele>516.1666666666666</ele><time>2026-04-11T06:45:53.999Z</time></trkpt><trkpt lat="43.48684814126267" lon="11.376946045095044"><ele>515.0</ele><time>2026-04-11T06:45:54.999Z</time></trkpt><trkpt lat="43.48684193529336" lon="11.377032886148424"><ele>515.0</ele><time>2026-04-11T06:45:55.999Z</time></trkpt><trkpt lat="43.48683525257682" lon="11.377126398397385"><ele>515.0</ele><time>2026-04-11T06:45:56.999Z</time></trkpt><trkpt lat="43.48682822135758" lon="11.377224787299456"><ele>515.0</ele><time>2026-04-11T06:45:57.999Z</time></trkpt><trkpt lat="43.48682105735192" lon="11.37733165603721"><ele>515.0</ele><time>2026-04-11T06:45:58.999Z</time></trkpt><trkpt lat="43.48681357371874" lon="11.377444038444997"><ele>515.0</ele><time>2026-04-11T06:45:59.999Z</time></trkpt><trkpt lat="43.48680598557509" lon="11.377557990322007"><ele>515.0</ele><time>2026-04-11T06:46:00.999Z</time></trkpt><trkpt lat="43.486799361123225" lon="11.377679275215108"><ele>515.0</ele><time>2026-04-11T06:46:01.999Z</time></trkpt><trkpt lat="43.48680019045037" lon="11.377804795822861"><ele>515.0</ele><time>2026-04-11T06:46:02.999Z</time></trkpt><trkpt lat="43.48681186057528" lon="11.377936090070941"><ele>515.0</ele><time>2026-04-11T06:46:03.999Z</time></trkpt><trkpt lat="43.48683353135921" lon="11.3780695696774"><ele>515.0</ele><time>2026-04-11T06:46:04.999Z</time></trkpt><trkpt lat="43.48686460966314" lon="11.378202077306458"><ele>515.0</ele><time>2026-04-11T06:46:05.999Z</time></trkpt><trkpt lat="43.48690150880103" lon="11.378334591332687"><ele>516.0</ele><time>2026-04-11T06:46:06.999Z</time></trkpt><trkpt lat="43.48695734151944" lon="11.378459944460003"><ele>517.0</ele><time>2026-04-11T06:46:07.999Z</time></trkpt><trkpt lat="43.487019101716946" lon="11.378585936593051"><ele>518.0</ele><time>2026-04-11T06:46:08.999Z</time></trkpt><trkpt lat="43.48708789212986" lon="11.378711966548837"><ele>519.0</ele><time>2026-04-11T06:46:09.999Z</time></trkpt><trkpt lat="43.48716269623736" lon="11.378838381285997"><ele>516.4</ele><time>2026-04-11T06:46:10.999Z</time></trkpt><trkpt lat="43.48722984999921" lon="11.378956387735201"><ele>513.8</ele><time>2026-04-11T06:46:11.999Z</time></trkpt><trkpt lat="43.48729512053374" lon="11.379074968043659"><ele>511.20000000000005</ele><time>2026-04-11T06:46:12.999Z</time></trkpt><trkpt lat="43.48735615945359" lon="11.379191047281834"><ele>508.6</ele><time>2026-04-11T06:46:13.999Z</time></trkpt><trkpt lat="43.48741561084274" lon="11.379299437429713"><ele>506.0</ele><time>2026-04-11T06:46:14.999Z</time></trkpt><trkpt lat="43.487465896735" lon="11.37940417095018"><ele>506.0</ele><time>2026-04-11T06:46:15.998Z</time></trkpt><trkpt lat="43.48752885855045" lon="11.379486964990047"><ele>506.0</ele><time>2026-04-11T06:46:16.998Z</time></trkpt><trkpt lat="43.487616249355945" lon="11.379545188000183"><ele>506.0</ele><time>2026-04-11T06:46:17.998Z</time></trkpt><trkpt lat="43.48769360258362" lon="11.379622562878474"><ele>506.0</ele><time>2026-04-11T06:46:18.998Z</time></trkpt><trkpt lat="43.48775381254839" lon="11.379707150309152"><ele>506.0</ele><time>2026-04-11T06:46:19.998Z</time></trkpt><trkpt lat="43.487811082389676" lon="11.379811156961894"><ele>505.4</ele><time>2026-04-11T06:46:20.998Z</time></trkpt><trkpt lat="43.487831296187274" lon="11.379942835136907"><ele>504.8</ele><time>2026-04-11T06:46:21.998Z</time></trkpt><trkpt lat="43.487843311559" lon="11.380070185777894"><ele>504.19999999999993</ele><time>2026-04-11T06:46:22.998Z</time></trkpt><trkpt lat="43.48785120819911" lon="11.380190106634881"><ele>503.59999999999997</ele><time>2026-04-11T06:46:23.998Z</time></trkpt><trkpt lat="43.487861795443614" lon="11.380314720188073"><ele>503.0</ele><time>2026-04-11T06:46:24.998Z</time></trkpt><trkpt lat="43.48787634491259" lon="11.380448286755872"><ele>502.59999999999997</ele><time>2026-04-11T06:46:25.998Z</time></trkpt><trkpt lat="43.4878923700496" lon="11.38058953128928"><ele>502.19999999999993</ele><time>2026-04-11T06:46:26.998Z</time></trkpt><trkpt lat="43.4879108352397" lon="11.380727099566014"><ele>501.8</ele><time>2026-04-11T06:46:27.998Z</time></trkpt><trkpt lat="43.48793411932488" lon="11.380854380676919"><ele>501.4</ele><time>2026-04-11T06:46:28.998Z</time></trkpt><trkpt lat="43.48795616140897" lon="11.380975615128769"><ele>501.0</ele><time>2026-04-11T06:46:29.998Z</time></trkpt><trkpt lat="43.48798245856525" lon="11.381093482935874"><ele>498.5</ele><time>2026-04-11T06:46:30.998Z</time></trkpt><trkpt lat="43.488015664266634" lon="11.381219368784018"><ele>496.0</ele><time>2026-04-11T06:46:31.998Z</time></trkpt><trkpt lat="43.4880546190647" lon="11.381335900417143"><ele>493.5</ele><time>2026-04-11T06:46:32.998Z</time></trkpt><trkpt lat="43.488088010829806" lon="11.381433448629075"><ele>491.0</ele><time>2026-04-11T06:46:33.998Z</time></trkpt><trkpt lat="43.48811849513252" lon="11.381523970322558"><ele>488.5</ele><time>2026-04-11T06:46:34.998Z</time></trkpt><trkpt lat="43.48815959775334" lon="11.381618513539374"><ele>486.0</ele><time>2026-04-11T06:46:35.998Z</time></trkpt><trkpt lat="43.48820292345821" lon="11.38171807693152"><ele>486.0</ele><time>2026-04-11T06:46:36.998Z</time></trkpt><trkpt lat="43.48824116934449" lon="11.381818282363186"><ele>486.0</ele><time>2026-04-11T06:46:37.998Z</time></trkpt><trkpt lat="43.4882859366325" lon="11.38192219402963"><ele>486.0</ele><time>2026-04-11T06:46:38.998Z</time></trkpt><trkpt lat="43.488328932402325" lon="11.38201610918196"><ele>486.0</ele><time>2026-04-11T06:46:39.998Z</time></trkpt><trkpt lat="43.48837507456137" lon="11.382115937387846"><ele>486.0</ele><time>2026-04-11T06:46:40.998Z</time></trkpt><trkpt lat="43.48842669166639" lon="11.3822213359686"><ele>486.0</ele><time>2026-04-11T06:46:41.998Z</time></trkpt><trkpt lat="43.48848358077996" lon="11.382327495447697"><ele>484.8</ele><time>2026-04-11T06:46:42.998Z</time></trkpt><trkpt lat="43.48854440003768" lon="11.382430012316496"><ele>483.6</ele><time>2026-04-11T06:46:43.998Z</time></trkpt><trkpt lat="43.488620905250684" lon="11.382526003556771"><ele>482.4</ele><time>2026-04-11T06:46:44.998Z</time></trkpt><trkpt lat="43.48870684863359" lon="11.382615549713227"><ele>481.2</ele><time>2026-04-11T06:46:45.998Z</time></trkpt><trkpt lat="43.488800120907364" lon="11.382704434853904"><ele>480.0</ele><time>2026-04-11T06:46:46.998Z</time></trkpt><trkpt lat="43.488899116508875" lon="11.382789870679675"><ele>479.6</ele><time>2026-04-11T06:46:47.998Z</time></trkpt><trkpt lat="43.48899888015489" lon="11.382871572756969"><ele>479.2</ele><time>2026-04-11T06:46:48.998Z</time></trkpt><trkpt lat="43.4890874365573" lon="11.382949035410793"><ele>478.79999999999995</ele><time>2026-04-11T06:46:49.998Z</time></trkpt><trkpt lat="43.48916698183576" lon="11.383061251118994"><ele>478.4</ele><time>2026-04-11T06:46:50.998Z</time></trkpt><trkpt lat="43.489256978475524" lon="11.383156567330882"><ele>478.0</ele><time>2026-04-11T06:46:51.998Z</time></trkpt><trkpt lat="43.4893509141497" lon="11.383256695503462"><ele>476.4</ele><time>2026-04-11T06:46:52.998Z</time></trkpt><trkpt lat="43.48943462857293" lon="11.383346592650755"><ele>474.79999999999995</ele><time>2026-04-11T06:46:53.998Z</time></trkpt><trkpt lat="43.489507957332954" lon="11.383425336937146"><ele>473.2</ele><time>2026-04-11T06:46:54.998Z</time></trkpt><trkpt lat="43.48957385535683" lon="11.383496101727761"><ele>471.6</ele><time>2026-04-11T06:46:55.998Z</time></trkpt><trkpt lat="43.48964116598796" lon="11.383568383432332"><ele>470.0</ele><time>2026-04-11T06:46:56.998Z</time></trkpt><trkpt lat="43.48971374299464" lon="11.383646320449905"><ele>468.8333333333333</ele><time>2026-04-11T06:46:57.998Z</time></trkpt><trkpt lat="43.48978624047077" lon="11.38372816899102"><ele>467.66666666666663</ele><time>2026-04-11T06:46:58.998Z</time></trkpt><trkpt lat="43.489845839531306" lon="11.38380600159173"><ele>466.5</ele><time>2026-04-11T06:46:59.998Z</time></trkpt><trkpt lat="43.48989735131357" lon="11.383888373697872"><ele>465.33333333333337</ele><time>2026-04-11T06:47:00.998Z</time></trkpt><trkpt lat="43.48994403052778" lon="11.383978521548567"><ele>464.1666666666667</ele><time>2026-04-11T06:47:01.998Z</time></trkpt><trkpt lat="43.48997812439604" lon="11.384071941786932"><ele>463.0</ele><time>2026-04-11T06:47:02.998Z</time></trkpt><trkpt lat="43.489998831877294" lon="11.38417667024918"><ele>463.00000000000006</ele><time>2026-04-11T06:47:04Z</time></trkpt><trkpt lat="43.49001782086664" lon="11.384292349027023"><ele>463.0</ele><time>2026-04-11T06:47:05Z</time></trkpt><trkpt lat="43.490028256559164" lon="11.38440253844861"><ele>463.0</ele><time>2026-04-11T06:47:06Z</time></trkpt><trkpt lat="43.490041489230535" lon="11.384518359154004"><ele>463.0</ele><time>2026-04-11T06:47:07Z</time></trkpt><trkpt lat="43.49005726242387" lon="11.384634640315106"><ele>463.00000000000006</ele><time>2026-04-11T06:47:08Z</time></trkpt><trkpt lat="43.49008032222007" lon="11.38474285283489"><ele>463.0</ele><time>2026-04-11T06:47:09Z</time></trkpt><trkpt lat="43.49011844567799" lon="11.384844994718181"><ele>462.1666666666667</ele><time>2026-04-11T06:47:10Z</time></trkpt><trkpt lat="43.49016759692593" lon="11.38493400714578"><ele>461.33333333333337</ele><time>2026-04-11T06:47:11Z</time></trkpt><trkpt lat="43.49021651593434" lon="11.385015518106094"><ele>460.5</ele><time>2026-04-11T06:47:12Z</time></trkpt><trkpt lat="43.490256483332125" lon="11.385091770959885"><ele>459.66666666666663</ele><time>2026-04-11T06:47:13Z</time></trkpt><trkpt lat="43.490288829282854" lon="11.385266444995695"><ele>458.8333333333333</ele><time>2026-04-11T06:47:15Z</time></trkpt><trkpt lat="43.49028880435276" lon="11.385366249439466"><ele>458.0</ele><time>2026-04-11T06:47:16Z</time></trkpt><trkpt lat="43.49031408837988" lon="11.385471571117593"><ele>458.16666666666663</ele><time>2026-04-11T06:47:17Z</time></trkpt><trkpt lat="43.490315180934466" lon="11.385580796301259"><ele>458.3333333333333</ele><time>2026-04-11T06:47:18Z</time></trkpt><trkpt lat="43.49031554802935" lon="11.385690294269759"><ele>458.5</ele><time>2026-04-11T06:47:19Z</time></trkpt><trkpt lat="43.49031406227766" lon="11.385800139354998"><ele>458.66666666666663</ele><time>2026-04-11T06:47:20Z</time></trkpt><trkpt lat="43.49028504803468" lon="11.38590812320826"><ele>458.8333333333333</ele><time>2026-04-11T06:47:21Z</time></trkpt><trkpt lat="43.49025284242599" lon="11.38600489532945"><ele>459.0</ele><time>2026-04-11T06:47:22Z</time></trkpt><trkpt lat="43.49022574496954" lon="11.38611422983604"><ele>459.0</ele><time>2026-04-11T06:47:23Z</time></trkpt><trkpt lat="43.49016162296771" lon="11.38618481155701"><ele>459.0</ele><time>2026-04-11T06:47:24Z</time></trkpt><trkpt lat="43.49010024396013" lon="11.386234600506352"><ele>459.0</ele><time>2026-04-11T06:47:25Z</time></trkpt><trkpt lat="43.48999938679484" lon="11.386309523520483"><ele>459.0</ele><time>2026-04-11T06:47:27Z</time></trkpt><trkpt lat="43.48990299074012" lon="11.386284573253848"><ele>459.0</ele><time>2026-04-11T06:47:29Z</time></trkpt><trkpt lat="43.48982523997231" lon="11.3861977566603"><ele>459.0</ele><time>2026-04-11T06:47:31Z</time></trkpt><trkpt lat="43.489739456901745" lon="11.386203710161542"><ele>459.0</ele><time>2026-04-11T06:47:33Z</time></trkpt><trkpt lat="43.48967613815269" lon="11.38631296901765"><ele>459.0</ele><time>2026-04-11T06:47:34.999Z</time></trkpt><trkpt lat="43.48963467851726" lon="11.386382936278467"><ele>459.0</ele><time>2026-04-11T06:47:35.999Z</time></trkpt><trkpt lat="43.48966446120787" lon="11.386467453223414"><ele>459.0</ele><time>2026-04-11T06:47:36.999Z</time></trkpt><trkpt lat="43.48961313371325" lon="11.38660124372367"><ele>459.0</ele><time>2026-04-11T06:47:38.999Z</time></trkpt><trkpt lat="43.4895936075106" lon="11.386756717278017"><ele>456.79999999999995</ele><time>2026-04-11T06:47:40.999Z</time></trkpt><trkpt lat="43.48956501428345" lon="11.386913810709226"><ele>454.59999999999997</ele><time>2026-04-11T06:47:42.999Z</time></trkpt><trkpt lat="43.48954231041715" lon="11.387075318382507"><ele>452.4</ele><time>2026-04-11T06:47:44.999Z</time></trkpt><trkpt lat="43.48951224570665" lon="11.38724183991491"><ele>450.2</ele><time>2026-04-11T06:47:46.999Z</time></trkpt><trkpt lat="43.48950402509693" lon="11.387331327001826"><ele>448.0</ele><time>2026-04-11T06:47:47.999Z</time></trkpt><trkpt lat="43.48949593076338" lon="11.387419439452147"><ele>448.0</ele><time>2026-04-11T06:47:48.999Z</time></trkpt><trkpt lat="43.48948786028386" lon="11.387507850144948"><ele>448.0</ele><time>2026-04-11T06:47:49.999Z</time></trkpt><trkpt lat="43.48949302377535" lon="11.387598071092784"><ele>448.0</ele><time>2026-04-11T06:47:50.999Z</time></trkpt><trkpt lat="43.48948104443579" lon="11.387687482702525"><ele>448.0</ele><time>2026-04-11T06:47:51.999Z</time></trkpt><trkpt lat="43.489471560307756" lon="11.387775081207248"><ele>448.0</ele><time>2026-04-11T06:47:52.999Z</time></trkpt><trkpt lat="43.48946328645344" lon="11.387863052576526"><ele>448.0</ele><time>2026-04-11T06:47:53.999Z</time></trkpt><trkpt lat="43.489459985750756" lon="11.38795157361017"><ele>448.0</ele><time>2026-04-11T06:47:54.999Z</time></trkpt><trkpt lat="43.489449567325906" lon="11.388038831220737"><ele>448.42857142857144</ele><time>2026-04-11T06:47:55.999Z</time></trkpt><trkpt lat="43.489440737244884" lon="11.388125917305143"><ele>448.8571428571429</ele><time>2026-04-11T06:47:56.999Z</time></trkpt><trkpt lat="43.489431869961386" lon="11.38821526060333"><ele>449.2857142857143</ele><time>2026-04-11T06:47:57.999Z</time></trkpt><trkpt lat="43.489407011254215" lon="11.388301267085675"><ele>449.7142857142857</ele><time>2026-04-11T06:47:58.999Z</time></trkpt><trkpt lat="43.48939756795826" lon="11.388392942153729"><ele>450.14285714285717</ele><time>2026-04-11T06:47:59.999Z</time></trkpt><trkpt lat="43.48940451506129" lon="11.388482420293332"><ele>450.57142857142856</ele><time>2026-04-11T06:48:00.999Z</time></trkpt><trkpt lat="43.489394306250745" lon="11.388571965163178"><ele>451.0</ele><time>2026-04-11T06:48:01.999Z</time></trkpt><trkpt lat="43.48938675905737" lon="11.388663069712567"><ele>451.00000000000006</ele><time>2026-04-11T06:48:02.999Z</time></trkpt><trkpt lat="43.48936945735058" lon="11.388749933553092"><ele>451.0</ele><time>2026-04-11T06:48:03.999Z</time></trkpt><trkpt lat="43.489327022907396" lon="11.388826171905286"><ele>451.0</ele><time>2026-04-11T06:48:04.999Z</time></trkpt><trkpt lat="43.48927936526612" lon="11.388987119621953"><ele>451.0</ele><time>2026-04-11T06:48:06.999Z</time></trkpt><trkpt lat="43.489246420492606" lon="11.389147581189253"><ele>451.00000000000006</ele><time>2026-04-11T06:48:08.999Z</time></trkpt><trkpt lat="43.48924754988797" lon="11.38923546842626"><ele>451.0</ele><time>2026-04-11T06:48:09.999Z</time></trkpt><trkpt lat="43.48926749778453" lon="11.389324536531527"><ele>451.4</ele><time>2026-04-11T06:48:10.999Z</time></trkpt><trkpt lat="43.48929441484749" lon="11.38940477633869"><ele>451.8</ele><time>2026-04-11T06:48:11.999Z</time></trkpt><trkpt lat="43.489342023032854" lon="11.389551647940461"><ele>452.19999999999993</ele><time>2026-04-11T06:48:13.999Z</time></trkpt><trkpt lat="43.48939134158077" lon="11.389699847724895"><ele>452.59999999999997</ele><time>2026-04-11T06:48:15.999Z</time></trkpt><trkpt lat="43.489442093316256" lon="11.389845764806951"><ele>453.0</ele><time>2026-04-11T06:48:17.999Z</time></trkpt><trkpt lat="43.48949350977657" lon="11.389993206567901"><ele>453.0</ele><time>2026-04-11T06:48:19.999Z</time></trkpt><trkpt lat="43.48954366070492" lon="11.390136162809753"><ele>453.0</ele><time>2026-04-11T06:48:21.999Z</time></trkpt><trkpt lat="43.48959284800335" lon="11.390277813068755"><ele>453.0</ele><time>2026-04-11T06:48:23.998Z</time></trkpt><trkpt lat="43.489643066050284" lon="11.390414864247562"><ele>453.0</ele><time>2026-04-11T06:48:25.998Z</time></trkpt><trkpt lat="43.48969415493717" lon="11.390547979426206"><ele>454.5</ele><time>2026-04-11T06:48:27.998Z</time></trkpt><trkpt lat="43.489751501660365" lon="11.390675818894339"><ele>456.0</ele><time>2026-04-11T06:48:29.998Z</time></trkpt><trkpt lat="43.48982020826651" lon="11.390800255272119"><ele>457.5</ele><time>2026-04-11T06:48:31.998Z</time></trkpt><trkpt lat="43.48990412616391" lon="11.390922707740541"><ele>459.0</ele><time>2026-04-11T06:48:33.998Z</time></trkpt><trkpt lat="43.49000623652669" lon="11.391020124005859"><ele>459.0</ele><time>2026-04-11T06:48:35.998Z</time></trkpt><trkpt lat="43.49004448085599" lon="11.39109738416571"><ele>459.0</ele><time>2026-04-11T06:48:36.998Z</time></trkpt><trkpt lat="43.49010047974951" lon="11.39114039505648"><ele>459.0</ele><time>2026-04-11T06:48:37.998Z</time></trkpt><trkpt lat="43.490130806929464" lon="11.391228900505242"><ele>459.0</ele><time>2026-04-11T06:48:38.998Z</time></trkpt><trkpt lat="43.490164500912186" lon="11.391306372333064"><ele>459.0</ele><time>2026-04-11T06:48:39.998Z</time></trkpt><trkpt lat="43.490185700683064" lon="11.3913901773781"><ele>459.0</ele><time>2026-04-11T06:48:40.998Z</time></trkpt><trkpt lat="43.49019944203606" lon="11.391477540519872"><ele>459.0</ele><time>2026-04-11T06:48:41.998Z</time></trkpt><trkpt lat="43.490183180250924" lon="11.391651697599997"><ele>458.6</ele><time>2026-04-11T06:48:43.998Z</time></trkpt><trkpt lat="43.49017441013618" lon="11.391818329807023"><ele>458.2</ele><time>2026-04-11T06:48:45.998Z</time></trkpt><trkpt lat="43.490168408259464" lon="11.391972668821307"><ele>457.80000000000007</ele><time>2026-04-11T06:48:47.998Z</time></trkpt><trkpt lat="43.49016679525293" lon="11.392113634241916"><ele>457.40000000000003</ele><time>2026-04-11T06:48:49.998Z</time></trkpt><trkpt lat="43.490170972244734" lon="11.392245682235174"><ele>457.0</ele><time>2026-04-11T06:48:51.998Z</time></trkpt><trkpt lat="43.49017897455515" lon="11.392365178311342"><ele>457.00000000000006</ele><time>2026-04-11T06:48:53.998Z</time></trkpt><trkpt lat="43.49019965337677" lon="11.392482324496228"><ele>457.0</ele><time>2026-04-11T06:48:55.998Z</time></trkpt><trkpt lat="43.49022356062613" lon="11.392593327554886"><ele>457.0</ele><time>2026-04-11T06:48:57.998Z</time></trkpt><trkpt lat="43.490250905316664" lon="11.392698285782622"><ele>457.0</ele><time>2026-04-11T06:48:59.998Z</time></trkpt><trkpt lat="43.490280094569385" lon="11.392798413671313"><ele>457.00000000000006</ele><time>2026-04-11T06:49:01.998Z</time></trkpt><trkpt lat="43.49033562706159" lon="11.39288380651694"><ele>457.0</ele><time>2026-04-11T06:49:03.998Z</time></trkpt><trkpt lat="43.49036618360031" lon="11.392981225347222"><ele>457.4285714285715</ele><time>2026-04-11T06:49:05.998Z</time></trkpt><trkpt lat="43.490369185039555" lon="11.393090380058139"><ele>457.8571428571429</ele><time>2026-04-11T06:49:07.998Z</time></trkpt><trkpt lat="43.490389824843376" lon="11.393185232489481"><ele>458.2857142857143</ele><time>2026-04-11T06:49:10Z</time></trkpt><trkpt lat="43.490400103076524" lon="11.393284758020037"><ele>458.7142857142857</ele><time>2026-04-11T06:49:12Z</time></trkpt><trkpt lat="43.49040190102573" lon="11.393387922191575"><ele>459.1428571428571</ele><time>2026-04-11T06:49:14Z</time></trkpt><trkpt lat="43.49041966241163" lon="11.393486972011633"><ele>459.5714285714285</ele><time>2026-04-11T06:49:16Z</time></trkpt><trkpt lat="43.4904020232634" lon="11.393583303929368"><ele>459.99999999999994</ele><time>2026-04-11T06:49:18Z</time></trkpt><trkpt lat="43.490377643675345" lon="11.393674356993166"><ele>460.6666666666667</ele><time>2026-04-11T06:49:21Z</time></trkpt><trkpt lat="43.49031323702366" lon="11.393843613666972"><ele>461.33333333333337</ele><time>2026-04-11T06:49:24Z</time></trkpt><trkpt lat="43.49027616604262" lon="11.393929505746453"><ele>462.0</ele><time>2026-04-11T06:49:26Z</time></trkpt><trkpt lat="43.490237839062296" lon="11.394011272384038"><ele>462.66666666666663</ele><time>2026-04-11T06:49:28Z</time></trkpt><trkpt lat="43.49020496874653" lon="11.394096415552617"><ele>463.3333333333333</ele><time>2026-04-11T06:49:30Z</time></trkpt><trkpt lat="43.4901782732573" lon="11.394179267178782"><ele>464.0</ele><time>2026-04-11T06:49:32Z</time></trkpt><trkpt lat="43.49015402596493" lon="11.394264552847995"><ele>463.99999999999994</ele><time>2026-04-11T06:49:34Z</time></trkpt><trkpt lat="43.49013072552875" lon="11.394355637539627"><ele>464.0</ele><time>2026-04-11T06:49:36Z</time></trkpt><trkpt lat="43.490116674328185" lon="11.394448940808873"><ele>464.0</ele><time>2026-04-11T06:49:38Z</time></trkpt><trkpt lat="43.49011871353291" lon="11.394554402973698"><ele>464.0</ele><time>2026-04-11T06:49:41Z</time></trkpt><trkpt lat="43.490112478413984" lon="11.394680523267064"><ele>463.99999999999994</ele><time>2026-04-11T06:49:43.999Z</time></trkpt><trkpt lat="43.49013180203263" lon="11.394800491669429"><ele>464.0</ele><time>2026-04-11T06:49:46.999Z</time></trkpt><trkpt lat="43.490138100668986" lon="11.394887042764315"><ele>464.7142857142858</ele><time>2026-04-11T06:49:48.999Z</time></trkpt><trkpt lat="43.490127567639995" lon="11.394980602649401"><ele>465.42857142857144</ele><time>2026-04-11T06:49:50.999Z</time></trkpt><trkpt lat="43.49013436000247" lon="11.395076006789479"><ele>466.14285714285717</ele><time>2026-04-11T06:49:53.999Z</time></trkpt><trkpt lat="43.490129371314346" lon="11.395181308128727"><ele>466.8571428571429</ele><time>2026-04-11T06:49:55.999Z</time></trkpt><trkpt lat="43.49012292217589" lon="11.395277281885923"><ele>467.57142857142856</ele><time>2026-04-11T06:49:57.999Z</time></trkpt><trkpt lat="43.490128034974006" lon="11.395367951171908"><ele>468.2857142857143</ele><time>2026-04-11T06:49:59.999Z</time></trkpt><trkpt lat="43.49013048568909" lon="11.395493704203938"><ele>469.0</ele><time>2026-04-11T06:50:02.999Z</time></trkpt><trkpt lat="43.49012685133505" lon="11.395642945097602"><ele>469.57142857142856</ele><time>2026-04-11T06:50:05.999Z</time></trkpt><trkpt lat="43.49012127890257" lon="11.395755470398072"><ele>470.1428571428571</ele><time>2026-04-11T06:50:07.999Z</time></trkpt><trkpt lat="43.49011006302644" lon="11.395846757672361"><ele>470.7142857142857</ele><time>2026-04-11T06:50:09.999Z</time></trkpt><trkpt lat="43.49009880272065" lon="11.395948082426088"><ele>471.2857142857143</ele><time>2026-04-11T06:50:12.999Z</time></trkpt><trkpt lat="43.49009574636559" lon="11.396045480150068"><ele>471.85714285714283</ele><time>2026-04-11T06:50:15.999Z</time></trkpt><trkpt lat="43.49007631742132" lon="11.396147248858798"><ele>472.42857142857144</ele><time>2026-04-11T06:50:18.999Z</time></trkpt><trkpt lat="43.49005034265615" lon="11.396247437941062"><ele>473.0</ele><time>2026-04-11T06:50:21.999Z</time></trkpt><trkpt lat="43.4900113937833" lon="11.396327618617846"><ele>472.99999999999994</ele><time>2026-04-11T06:50:23.999Z</time></trkpt><trkpt lat="43.48996129430499" lon="11.39641068280449"><ele>473.0</ele><time>2026-04-11T06:50:25.999Z</time></trkpt><trkpt lat="43.48989605905341" lon="11.396495023182823"><ele>473.0</ele><time>2026-04-11T06:50:28.999Z</time></trkpt><trkpt lat="43.48983380242157" lon="11.396577904620663"><ele>473.0</ele><time>2026-04-11T06:50:31.998Z</time></trkpt><trkpt lat="43.48977113037784" lon="11.396653455531013"><ele>472.99999999999994</ele><time>2026-04-11T06:50:34.998Z</time></trkpt><trkpt lat="43.489711243475966" lon="11.396736889128857"><ele>473.0</ele><time>2026-04-11T06:50:37.998Z</time></trkpt><trkpt lat="43.48966114912551" lon="11.39683801674133"><ele>472.99999999999994</ele><time>2026-04-11T06:50:40.998Z</time></trkpt><trkpt lat="43.489613874967205" lon="11.39693398878401"><ele>473.0</ele><time>2026-04-11T06:50:43.998Z</time></trkpt><trkpt lat="43.489576274384696" lon="11.397026941646036"><ele>473.0</ele><time>2026-04-11T06:50:46.998Z</time></trkpt><trkpt lat="43.48954283396665" lon="11.397121502569098"><ele>473.0</ele><time>2026-04-11T06:50:49.998Z</time></trkpt><trkpt lat="43.4895068238984" lon="11.397211080190727"><ele>472.99999999999994</ele><time>2026-04-11T06:50:52.998Z</time></trkpt><trkpt lat="43.48946126134267" lon="11.397292863468687"><ele>473.0</ele><time>2026-04-11T06:50:55.998Z</time></trkpt><trkpt lat="43.48942149536011" lon="11.397385445105973"><ele>475.42857142857144</ele><time>2026-04-11T06:50:58.998Z</time></trkpt><trkpt lat="43.48938966110393" lon="11.397474591481053"><ele>477.85714285714283</ele><time>2026-04-11T06:51:01.998Z</time></trkpt><trkpt lat="43.489354203059804" lon="11.397555652641156"><ele>480.2857142857143</ele><time>2026-04-11T06:51:04.998Z</time></trkpt><trkpt lat="43.489316232306955" lon="11.397634774536142"><ele>482.7142857142857</ele><time>2026-04-11T06:51:07.998Z</time></trkpt><trkpt lat="43.489277794925655" lon="11.39771692046473"><ele>485.1428571428571</ele><time>2026-04-11T06:51:10.998Z</time></trkpt><trkpt lat="43.489236155718196" lon="11.397800899406157"><ele>487.57142857142856</ele><time>2026-04-11T06:51:13.998Z</time></trkpt><trkpt lat="43.48919891039148" lon="11.39788012703706"><ele>490.0</ele><time>2026-04-11T06:51:17Z</time></trkpt><trkpt lat="43.48916189748369" lon="11.397963832624368"><ele>489.00000000000006</ele><time>2026-04-11T06:51:20Z</time></trkpt><trkpt lat="43.48912858872001" lon="11.398052261120242"><ele>488.0</ele><time>2026-04-11T06:51:23Z</time></trkpt><trkpt lat="43.48907774225208" lon="11.398129442522478"><ele>487.0</ele><time>2026-04-11T06:51:26Z</time></trkpt><trkpt lat="43.48903800602054" lon="11.398220190547852"><ele>486.0</ele><time>2026-04-11T06:51:29Z</time></trkpt><trkpt lat="43.488995755848464" lon="11.398306772790706"><ele>485.00000000000006</ele><time>2026-04-11T06:51:32Z</time></trkpt><trkpt lat="43.48895308573891" lon="11.398401646853818"><ele>484.0</ele><time>2026-04-11T06:51:35Z</time></trkpt><trkpt lat="43.488909581870224" lon="11.398489236579994"><ele>484.00000000000006</ele><time>2026-04-11T06:51:38Z</time></trkpt><trkpt lat="43.4888728773852" lon="11.398579063661598"><ele>484.0</ele><time>2026-04-11T06:51:41Z</time></trkpt><trkpt lat="43.48883547730064" lon="11.398669175309951"><ele>484.0</ele><time>2026-04-11T06:51:44Z</time></trkpt><trkpt lat="43.48879948646978" lon="11.398762534678424"><ele>484.0</ele><time>2026-04-11T06:51:47Z</time></trkpt><trkpt lat="43.488759279295884" lon="11.398852867717656"><ele>484.00000000000006</ele><time>2026-04-11T06:51:49.999Z</time></trkpt><trkpt lat="43.48871002212708" lon="11.398941007550361"><ele>484.0</ele><time>2026-04-11T06:51:52.999Z</time></trkpt><trkpt lat="43.488667200103116" lon="11.399039050282129"><ele>486.6666666666667</ele><time>2026-04-11T06:51:55.999Z</time></trkpt><trkpt lat="43.488626973090746" lon="11.399132872837809"><ele>489.33333333333337</ele><time>2026-04-11T06:51:58.999Z</time></trkpt><trkpt lat="43.488586859245906" lon="11.39922285477911"><ele>492.0</ele><time>2026-04-11T06:52:01.999Z</time></trkpt><trkpt lat="43.4885419489258" lon="11.399308750489082"><ele>494.66666666666663</ele><time>2026-04-11T06:52:04.999Z</time></trkpt><trkpt lat="43.48849607162986" lon="11.399390745046725"><ele>497.3333333333333</ele><time>2026-04-11T06:52:07.999Z</time></trkpt><trkpt lat="43.48844609981803" lon="11.39946841142921"><ele>500.0</ele><time>2026-04-11T06:52:10.999Z</time></trkpt><trkpt lat="43.488389748436035" lon="11.399532466544544"><ele>499.99999999999994</ele><time>2026-04-11T06:52:13.999Z</time></trkpt><trkpt lat="43.48833412901265" lon="11.399598230399455"><ele>500.0</ele><time>2026-04-11T06:52:16.999Z</time></trkpt><trkpt lat="43.48826410560537" lon="11.399633311068959"><ele>500.0</ele><time>2026-04-11T06:52:19.999Z</time></trkpt><trkpt lat="43.48819272315533" lon="11.399666863769646"><ele>500.0</ele><time>2026-04-11T06:52:22.999Z</time></trkpt><trkpt lat="43.488113582808" lon="11.399702663155614"><ele>499.99999999999994</ele><time>2026-04-11T06:52:25.999Z</time></trkpt><trkpt lat="43.48803309876461" lon="11.399723940341664"><ele>500.0</ele><time>2026-04-11T06:52:29.999Z</time></trkpt><trkpt lat="43.4879579894567" lon="11.399735272702278"><ele>500.16666666666663</ele><time>2026-04-11T06:52:32.999Z</time></trkpt><trkpt lat="43.48789006257912" lon="11.399773633978112"><ele>500.3333333333333</ele><time>2026-04-11T06:52:35.999Z</time></trkpt><trkpt lat="43.48782962524724" lon="11.39973691019623"><ele>500.5</ele><time>2026-04-11T06:52:38.998Z</time></trkpt><trkpt lat="43.487737880114565" lon="11.39978360070182"><ele>500.66666666666663</ele><time>2026-04-11T06:52:41.998Z</time></trkpt><trkpt lat="43.48768019062258" lon="11.399836275045361"><ele>500.8333333333333</ele><time>2026-04-11T06:52:44.998Z</time></trkpt><trkpt lat="43.487625413504844" lon="11.39992685461233"><ele>501.0</ele><time>2026-04-11T06:52:48.998Z</time></trkpt><trkpt lat="43.48761527045119" lon="11.40001964998027"><ele>501.0</ele><time>2026-04-11T06:52:51.998Z</time></trkpt><trkpt lat="43.48761734110504" lon="11.40012128918971"><ele>501.0</ele><time>2026-04-11T06:52:54.998Z</time></trkpt><trkpt lat="43.487604708203044" lon="11.400231406047798"><ele>501.0</ele><time>2026-04-11T06:52:57.998Z</time></trkpt><trkpt lat="43.48760055772512" lon="11.400350339698804"><ele>501.0</ele><time>2026-04-11T06:53:00.998Z</time></trkpt><trkpt lat="43.48757975391422" lon="11.400454248218363"><ele>501.0</ele><time>2026-04-11T06:53:03.998Z</time></trkpt><trkpt lat="43.487561387580485" lon="11.400561336842266"><ele>501.0</ele><time>2026-04-11T06:53:06.998Z</time></trkpt><trkpt lat="43.48754820381433" lon="11.400660131676958"><ele>501.6666666666667</ele><time>2026-04-11T06:53:09.998Z</time></trkpt><trkpt lat="43.48753426354135" lon="11.400762684948935"><ele>502.33333333333337</ele><time>2026-04-11T06:53:12.998Z</time></trkpt><trkpt lat="43.48752330625625" lon="11.400858892176174"><ele>503.0</ele><time>2026-04-11T06:53:15.998Z</time></trkpt><trkpt lat="43.48750516958234" lon="11.400960605746453"><ele>503.6666666666667</ele><time>2026-04-11T06:53:18.998Z</time></trkpt><trkpt lat="43.487491053706876" lon="11.40105929086608"><ele>504.33333333333337</ele><time>2026-04-11T06:53:22Z</time></trkpt><trkpt lat="43.487506681707984" lon="11.4011600184018"><ele>505.0</ele><time>2026-04-11T06:53:25Z</time></trkpt><trkpt lat="43.487575418905315" lon="11.401222729707388"><ele>505.0</ele><time>2026-04-11T06:53:29Z</time></trkpt><trkpt lat="43.487640313305505" lon="11.40119583169289"><ele>504.99999999999994</ele><time>2026-04-11T06:53:32Z</time></trkpt><trkpt lat="43.48769147548218" lon="11.401137001974812"><ele>505.0</ele><time>2026-04-11T06:53:35Z</time></trkpt><trkpt lat="43.48773766751757" lon="11.40105870361082"><ele>505.0</ele><time>2026-04-11T06:53:38Z</time></trkpt><trkpt lat="43.48778617657308" lon="11.400976800773815"><ele>504.99999999999994</ele><time>2026-04-11T06:53:41Z</time></trkpt><trkpt lat="43.48783890167588" lon="11.400897966463235"><ele>505.0</ele><time>2026-04-11T06:53:44Z</time></trkpt><trkpt lat="43.487892514272616" lon="11.40082375278293"><ele>505.0</ele><time>2026-04-11T06:53:47Z</time></trkpt><trkpt lat="43.48795219263188" lon="11.400759440475955"><ele>506.1428571428571</ele><time>2026-04-11T06:53:50Z</time></trkpt><trkpt lat="43.48801900990972" lon="11.4007197064162"><ele>507.2857142857142</ele><time>2026-04-11T06:53:53Z</time></trkpt><trkpt lat="43.488094704828086" lon="11.400709959247498"><ele>508.42857142857144</ele><time>2026-04-11T06:53:55.999Z</time></trkpt><trkpt lat="43.4881659403072" lon="11.400723351665068"><ele>509.57142857142856</ele><time>2026-04-11T06:53:58.999Z</time></trkpt><trkpt lat="43.48823129028227" lon="11.400754947689512"><ele>510.7142857142857</ele><time>2026-04-11T06:54:01.999Z</time></trkpt><trkpt lat="43.488291825575295" lon="11.400792963864117"><ele>511.8571428571429</ele><time>2026-04-11T06:54:04.999Z</time></trkpt><trkpt lat="43.4883549991651" lon="11.400845579810927"><ele>513.0</ele><time>2026-04-11T06:54:07.999Z</time></trkpt><trkpt lat="43.4884217864967" lon="11.400891728787228"><ele>513.0000000000001</ele><time>2026-04-11T06:54:10.999Z</time></trkpt><trkpt lat="43.48848646537287" lon="11.400939165026692"><ele>513.0</ele><time>2026-04-11T06:54:13.999Z</time></trkpt><trkpt lat="43.48855248653614" lon="11.400989666851963"><ele>513.0</ele><time>2026-04-11T06:54:16.999Z</time></trkpt><trkpt lat="43.4886166271456" lon="11.40104190074093"><ele>513.0</ele><time>2026-04-11T06:54:19.999Z</time></trkpt><trkpt lat="43.48867913280486" lon="11.401100187333503"><ele>513.0</ele><time>2026-04-11T06:54:22.999Z</time></trkpt><trkpt lat="43.48874549880624" lon="11.401146715237898"><ele>513.0000000000001</ele><time>2026-04-11T06:54:25.999Z</time></trkpt><trkpt lat="43.488805197538255" lon="11.401198550619053"><ele>513.0</ele><time>2026-04-11T06:54:28.999Z</time></trkpt><trkpt lat="43.488868599032415" lon="11.401263131717725"><ele>512.8571428571429</ele><time>2026-04-11T06:54:31.999Z</time></trkpt><trkpt lat="43.48891191493517" lon="11.401354543211498"><ele>512.7142857142858</ele><time>2026-04-11T06:54:34.999Z</time></trkpt><trkpt lat="43.48894044056022" lon="11.40144859812718"><ele>512.5714285714286</ele><time>2026-04-11T06:54:37.999Z</time></trkpt><trkpt lat="43.488942955305205" lon="11.401552585675239"><ele>512.4285714285714</ele><time>2026-04-11T06:54:40.999Z</time></trkpt><trkpt lat="43.48893448604528" lon="11.401655976900882"><ele>512.2857142857142</ele><time>2026-04-11T06:54:43.999Z</time></trkpt><trkpt lat="43.488916703965224" lon="11.401750578022591"><ele>512.1428571428571</ele><time>2026-04-11T06:54:46.998Z</time></trkpt><trkpt lat="43.48889605336376" lon="11.401845756488479"><ele>512.0</ele><time>2026-04-11T06:54:49.998Z</time></trkpt><trkpt lat="43.48886658720997" lon="11.401938127154919"><ele>511.99999999999994</ele><time>2026-04-11T06:54:52.998Z</time></trkpt><trkpt lat="43.48883933119371" lon="11.402031418912765"><ele>512.0</ele><time>2026-04-11T06:54:55.998Z</time></trkpt><trkpt lat="43.48881738443934" lon="11.402128206869572"><ele>512.0</ele><time>2026-04-11T06:54:58.998Z</time></trkpt><trkpt lat="43.48880907043722" lon="11.402233545886535"><ele>512.0</ele><time>2026-04-11T06:55:01.998Z</time></trkpt><trkpt lat="43.488804719959504" lon="11.402339276519745"><ele>511.99999999999994</ele><time>2026-04-11T06:55:04.998Z</time></trkpt><trkpt lat="43.48880594619315" lon="11.402449900581992"><ele>512.0</ele><time>2026-04-11T06:55:07.998Z</time></trkpt><trkpt lat="43.488804336968585" lon="11.402555741393426"><ele>512.1666666666666</ele><time>2026-04-11T06:55:10.998Z</time></trkpt><trkpt lat="43.488788167201186" lon="11.402668182022175"><ele>512.3333333333333</ele><time>2026-04-11T06:55:13.998Z</time></trkpt><trkpt lat="43.48877466388116" lon="11.4027801941839"><ele>512.5</ele><time>2026-04-11T06:55:16.998Z</time></trkpt><trkpt lat="43.48876349140844" lon="11.402892437089593"><ele>512.6666666666666</ele><time>2026-04-11T06:55:19.998Z</time></trkpt><trkpt lat="43.488763751902525" lon="11.403001802061757"><ele>512.8333333333334</ele><time>2026-04-11T06:55:22.998Z</time></trkpt><trkpt lat="43.4887683238973" lon="11.403108568817025"><ele>513.0</ele><time>2026-04-11T06:55:25.998Z</time></trkpt><trkpt lat="43.48876897486818" lon="11.403215409287899"><ele>513.3333333333334</ele><time>2026-04-11T06:55:29Z</time></trkpt><trkpt lat="43.4887712124037" lon="11.403331925681547"><ele>513.6666666666666</ele><time>2026-04-11T06:55:32Z</time></trkpt><trkpt lat="43.48877415931952" lon="11.403436252701031"><ele>514.0</ele><time>2026-04-11T06:55:34Z</time></trkpt><trkpt lat="43.488764908784596" lon="11.403533379854057"><ele>514.3333333333333</ele><time>2026-04-11T06:55:36Z</time></trkpt><trkpt lat="43.48875316998268" lon="11.403629973299713"><ele>514.6666666666666</ele><time>2026-04-11T06:55:38Z</time></trkpt><trkpt lat="43.48873033008608" lon="11.403727408312719"><ele>515.0</ele><time>2026-04-11T06:55:40Z</time></trkpt><trkpt lat="43.48871020982462" lon="11.40382846023078"><ele>518.5714285714286</ele><time>2026-04-11T06:55:42Z</time></trkpt><trkpt lat="43.48870895294308" lon="11.403919121021572"><ele>522.1428571428571</ele><time>2026-04-11T06:55:44Z</time></trkpt><trkpt lat="43.488697499509854" lon="11.404005362204813"><ele>525.7142857142857</ele><time>2026-04-11T06:55:46Z</time></trkpt><trkpt lat="43.48870101979489" lon="11.404098464974771"><ele>529.2857142857142</ele><time>2026-04-11T06:55:48Z</time></trkpt><trkpt lat="43.488698782782976" lon="11.404185339118227"><ele>532.8571428571428</ele><time>2026-04-11T06:55:50Z</time></trkpt><trkpt lat="43.48870240616557" lon="11.40427799941974"><ele>536.4285714285714</ele><time>2026-04-11T06:55:52Z</time></trkpt><trkpt lat="43.48870435909465" lon="11.404366825516309"><ele>540.0</ele><time>2026-04-11T06:55:54Z</time></trkpt><trkpt lat="43.488718780186495" lon="11.40448405043158"><ele>540.0</ele><time>2026-04-11T06:55:57Z</time></trkpt><trkpt lat="43.48875900678263" lon="11.404592532922107"><ele>540.0</ele><time>2026-04-11T06:56:00Z</time></trkpt><trkpt lat="43.48879628485028" lon="11.404696781162682"><ele>540.0</ele><time>2026-04-11T06:56:03Z</time></trkpt><trkpt lat="43.48883612251003" lon="11.404807279386784"><ele>540.0</ele><time>2026-04-11T06:56:05.999Z</time></trkpt><trkpt lat="43.48887557947052" lon="11.404919859861344"><ele>540.0</ele><time>2026-04-11T06:56:08.999Z</time></trkpt><trkpt lat="43.48891014365478" lon="11.405024931067688"><ele>540.0</ele><time>2026-04-11T06:56:11.999Z</time></trkpt><trkpt lat="43.488945935174975" lon="11.405135950311049"><ele>539.0</ele><time>2026-04-11T06:56:14.999Z</time></trkpt><trkpt lat="43.488986243849716" lon="11.405252016926426"><ele>538.0</ele><time>2026-04-11T06:56:17.999Z</time></trkpt><trkpt lat="43.489014342010314" lon="11.40536881966674"><ele>537.0</ele><time>2026-04-11T06:56:20.999Z</time></trkpt><trkpt lat="43.48902980582084" lon="11.405492176768222"><ele>536.0</ele><time>2026-04-11T06:56:23.999Z</time></trkpt><trkpt lat="43.489046074332" lon="11.405618959326409"><ele>535.0</ele><time>2026-04-11T06:56:26.999Z</time></trkpt><trkpt lat="43.48906173984493" lon="11.405718015163554"><ele>534.0</ele><time>2026-04-11T06:56:28.999Z</time></trkpt><trkpt lat="43.48907868408866" lon="11.405805208100492"><ele>534.0000000000001</ele><time>2026-04-11T06:56:30.999Z</time></trkpt><trkpt lat="43.48908752609544" lon="11.405902377830945"><ele>534.0</ele><time>2026-04-11T06:56:32.999Z</time></trkpt><trkpt lat="43.48910738287048" lon="11.405997009357632"><ele>534.0</ele><time>2026-04-11T06:56:34.999Z</time></trkpt><trkpt lat="43.48913410811563" lon="11.406088873057188"><ele>534.0</ele><time>2026-04-11T06:56:36.999Z</time></trkpt><trkpt lat="43.489158181279684" lon="11.406179222678041"><ele>534.0</ele><time>2026-04-11T06:56:38.999Z</time></trkpt><trkpt lat="43.48918387158444" lon="11.406263768616185"><ele>534.0000000000001</ele><time>2026-04-11T06:56:40.999Z</time></trkpt><trkpt lat="43.48920799826067" lon="11.406344371282316"><ele>534.0</ele><time>2026-04-11T06:56:42.999Z</time></trkpt><trkpt lat="43.48925467224654" lon="11.406448991002533"><ele>534.0</ele><time>2026-04-11T06:56:45.999Z</time></trkpt><trkpt lat="43.489293753085626" lon="11.406518301724164"><ele>534.0</ele><time>2026-04-11T06:56:47.999Z</time></trkpt><trkpt lat="43.48932600135202" lon="11.406603420484663"><ele>534.0</ele><time>2026-04-11T06:56:49.999Z</time></trkpt><trkpt lat="43.48937412620765" lon="11.406681664906761"><ele>534.0</ele><time>2026-04-11T06:56:51.999Z</time></trkpt><trkpt lat="43.48942546286089" lon="11.406743402048402"><ele>534.0</ele><time>2026-04-11T06:56:53.998Z</time></trkpt><trkpt lat="43.489497099082925" lon="11.40681584430108"><ele>534.0</ele><time>2026-04-11T06:56:56.998Z</time></trkpt><trkpt lat="43.489554501034746" lon="11.406913464337347"><ele>534.1666666666666</ele><time>2026-04-11T06:56:59.998Z</time></trkpt><trkpt lat="43.48961482456128" lon="11.406992681350555"><ele>534.3333333333334</ele><time>2026-04-11T06:57:02.998Z</time></trkpt><trkpt lat="43.489669785586564" lon="11.407078961960678"><ele>534.5</ele><time>2026-04-11T06:57:05.998Z</time></trkpt><trkpt lat="43.48973087878386" lon="11.407160806371882"><ele>534.6666666666667</ele><time>2026-04-11T06:57:08.998Z</time></trkpt><trkpt lat="43.48977497196485" lon="11.407241500875742"><ele>534.8333333333334</ele><time>2026-04-11T06:57:11.998Z</time></trkpt><trkpt lat="43.4898244934698" lon="11.407332375948993"><ele>535.0</ele><time>2026-04-11T06:57:15.998Z</time></trkpt><trkpt lat="43.48986963178566" lon="11.407417712775201"><ele>535.8333333333334</ele><time>2026-04-11T06:57:18.998Z</time></trkpt><trkpt lat="43.489919546565865" lon="11.407565968790454"><ele>536.6666666666667</ele><time>2026-04-11T06:57:21.998Z</time></trkpt><trkpt lat="43.48993745987507" lon="11.407660845383901"><ele>537.5</ele><time>2026-04-11T06:57:23.998Z</time></trkpt><trkpt lat="43.489955765059065" lon="11.407750007744289"><ele>538.3333333333334</ele><time>2026-04-11T06:57:25.998Z</time></trkpt><trkpt lat="43.48996737460557" lon="11.407840675492261"><ele>539.1666666666666</ele><time>2026-04-11T06:57:27.998Z</time></trkpt><trkpt lat="43.48998221995282" lon="11.407929599389572"><ele>540.0</ele><time>2026-04-11T06:57:29.998Z</time></trkpt><trkpt lat="43.489991084995374" lon="11.408016841283954"><ele>540.2857142857142</ele><time>2026-04-11T06:57:31.998Z</time></trkpt><trkpt lat="43.48999920428898" lon="11.408106372699836"><ele>540.5714285714286</ele><time>2026-04-11T06:57:34Z</time></trkpt><trkpt lat="43.490002478677674" lon="11.408201704076951"><ele>540.8571428571429</ele><time>2026-04-11T06:57:36Z</time></trkpt><trkpt lat="43.49000741522876" lon="11.408302604401381"><ele>541.1428571428571</ele><time>2026-04-11T06:57:38Z</time></trkpt><trkpt lat="43.490021682731815" lon="11.408399602879403"><ele>541.4285714285714</ele><time>2026-04-11T06:57:41Z</time></trkpt><trkpt lat="43.490027247438775" lon="11.408486400278784"><ele>541.7142857142857</ele><time>2026-04-11T06:57:43Z</time></trkpt><trkpt lat="43.49003280202815" lon="11.408591336180645"><ele>542.0</ele><time>2026-04-11T06:57:45Z</time></trkpt><trkpt lat="43.49003728803462" lon="11.408697806323131"><ele>542.0</ele><time>2026-04-11T06:57:47Z</time></trkpt><trkpt lat="43.49004364266958" lon="11.408814326098017"><ele>542.0</ele><time>2026-04-11T06:57:49Z</time></trkpt><trkpt lat="43.49004058872618" lon="11.408912807463375"><ele>542.0</ele><time>2026-04-11T06:57:51Z</time></trkpt><trkpt lat="43.49003258270079" lon="11.409018562024373"><ele>542.0</ele><time>2026-04-11T06:57:54Z</time></trkpt><trkpt lat="43.49002313955379" lon="11.409105237134135"><ele>542.0</ele><time>2026-04-11T06:57:55Z</time></trkpt><trkpt lat="43.49000541220441" lon="11.409209705559945"><ele>542.0</ele><time>2026-04-11T06:57:56Z</time></trkpt><trkpt lat="43.49000284977821" lon="11.40932921545"><ele>542.6666666666666</ele><time>2026-04-11T06:57:58Z</time></trkpt><trkpt lat="43.48999033197776" lon="11.409453172061282"><ele>543.3333333333333</ele><time>2026-04-11T06:58:00Z</time></trkpt><trkpt lat="43.48998757472452" lon="11.409579174282964"><ele>544.0</ele><time>2026-04-11T06:58:02Z</time></trkpt><trkpt lat="43.4899751587629" lon="11.409701342872477"><ele>544.6666666666666</ele><time>2026-04-11T06:58:04Z</time></trkpt><trkpt lat="43.48996390470411" lon="11.40982033459781"><ele>545.3333333333334</ele><time>2026-04-11T06:58:06Z</time></trkpt><trkpt lat="43.4899600839677" lon="11.409928121869577"><ele>546.0</ele><time>2026-04-11T06:58:08Z</time></trkpt><trkpt lat="43.489950727395325" lon="11.410018727028035"><ele>546.3333333333334</ele><time>2026-04-11T06:58:10Z</time></trkpt><trkpt lat="43.48990938501356" lon="11.410124327027372"><ele>546.6666666666666</ele><time>2026-04-11T06:58:12.999Z</time></trkpt><trkpt lat="43.48987974359035" lon="11.410204410571936"><ele>547.0</ele><time>2026-04-11T06:58:14.999Z</time></trkpt><trkpt lat="43.48984041989317" lon="11.410311759656203"><ele>547.3333333333333</ele><time>2026-04-11T06:58:17.999Z</time></trkpt><trkpt lat="43.48979828998221" lon="11.410387954244685"><ele>547.6666666666666</ele><time>2026-04-11T06:58:20.999Z</time></trkpt><trkpt lat="43.48973930600602" lon="11.410518028539787"><ele>548.0</ele><time>2026-04-11T06:58:23.999Z</time></trkpt><trkpt lat="43.48968376885529" lon="11.410607894382862"><ele>548.1666666666666</ele><time>2026-04-11T06:58:26.999Z</time></trkpt><trkpt lat="43.48962893240932" lon="11.410700571975903"><ele>548.3333333333333</ele><time>2026-04-11T06:58:29.999Z</time></trkpt><trkpt lat="43.489573971165576" lon="11.410794060682191"><ele>548.5</ele><time>2026-04-11T06:58:32.999Z</time></trkpt><trkpt lat="43.48951776558814" lon="11.410888868155402"><ele>548.6666666666666</ele><time>2026-04-11T06:58:35.999Z</time></trkpt><trkpt lat="43.48949614265811" lon="11.411007499847745"><ele>548.8333333333334</ele><time>2026-04-11T06:58:38.999Z</time></trkpt><trkpt lat="43.48947229010873" lon="11.411131017113561"><ele>549.0</ele><time>2026-04-11T06:58:41.999Z</time></trkpt><trkpt lat="43.48947402270034" lon="11.411232889184623"><ele>549.5</ele><time>2026-04-11T06:58:44.999Z</time></trkpt><trkpt lat="43.48947431579847" lon="11.411349541687956"><ele>550.0</ele><time>2026-04-11T06:58:47.999Z</time></trkpt><trkpt lat="43.48948322124684" lon="11.411475181594467"><ele>550.5</ele><time>2026-04-11T06:58:49.999Z</time></trkpt><trkpt lat="43.48949897872814" lon="11.411582600218932"><ele>551.0</ele><time>2026-04-11T06:58:52.999Z</time></trkpt><trkpt lat="43.48951422622473" lon="11.411700768195008"><ele>551.5</ele><time>2026-04-11T06:58:55.999Z</time></trkpt><trkpt lat="43.48953206021437" lon="11.41178549074166"><ele>552.0</ele><time>2026-04-11T06:58:57.999Z</time></trkpt><trkpt lat="43.489565114148306" lon="11.411860688916004"><ele>553.0</ele><time>2026-04-11T06:58:59.999Z</time></trkpt><trkpt lat="43.48959978040223" lon="11.411933426986613"><ele>554.0</ele><time>2026-04-11T06:59:01.998Z</time></trkpt><trkpt lat="43.48966487025381" lon="11.41202859627772"><ele>555.0</ele><time>2026-04-11T06:59:04.998Z</time></trkpt><trkpt lat="43.48971058067179" lon="11.41210507320342"><ele>556.0</ele><time>2026-04-11T06:59:06.998Z</time></trkpt><trkpt lat="43.48977033218271" lon="11.412163856192722"><ele>557.0</ele><time>2026-04-11T06:59:08.998Z</time></trkpt><trkpt lat="43.48982882273407" lon="11.412223700263734"><ele>558.0</ele><time>2026-04-11T06:59:10.998Z</time></trkpt><trkpt lat="43.48989011087627" lon="11.412293381455509"><ele>558.0</ele><time>2026-04-11T06:59:12.998Z</time></trkpt><trkpt lat="43.48996348071893" lon="11.412353113225727"><ele>558.0</ele><time>2026-04-11T06:59:14.998Z</time></trkpt><trkpt lat="43.49003771037796" lon="11.412433533352402"><ele>558.0</ele><time>2026-04-11T06:59:16.998Z</time></trkpt><trkpt lat="43.49012277096418" lon="11.41252065328592"><ele>558.0</ele><time>2026-04-11T06:59:18.998Z</time></trkpt><trkpt lat="43.490202774338144" lon="11.412619943134548"><ele>558.0</ele><time>2026-04-11T06:59:20.998Z</time></trkpt><trkpt lat="43.4902811918411" lon="11.412728133174998"><ele>558.0</ele><time>2026-04-11T06:59:22.998Z</time></trkpt><trkpt lat="43.49036322241608" lon="11.412857473567948"><ele>558.0</ele><time>2026-04-11T06:59:24.998Z</time></trkpt><trkpt lat="43.49040857034927" lon="11.412921645153137"><ele>558.0</ele><time>2026-04-11T06:59:25.998Z</time></trkpt><trkpt lat="43.49045357045427" lon="11.412989744201768"><ele>558.0</ele><time>2026-04-11T06:59:26.998Z</time></trkpt><trkpt lat="43.49049437039151" lon="11.41306252483903"><ele>558.0</ele><time>2026-04-11T06:59:27.998Z</time></trkpt><trkpt lat="43.490530013349115" lon="11.413144077516133"><ele>558.0</ele><time>2026-04-11T06:59:28.998Z</time></trkpt><trkpt lat="43.49055695474282" lon="11.413229865997447"><ele>557.1666666666666</ele><time>2026-04-11T06:59:29.998Z</time></trkpt><trkpt lat="43.49057581085176" lon="11.41331937323198"><ele>556.3333333333334</ele><time>2026-04-11T06:59:30.998Z</time></trkpt><trkpt lat="43.49059076659286" lon="11.413410592522586"><ele>555.5</ele><time>2026-04-11T06:59:31.998Z</time></trkpt><trkpt lat="43.49059535778487" lon="11.413503437488512"><ele>554.6666666666667</ele><time>2026-04-11T06:59:32.998Z</time></trkpt><trkpt lat="43.490591510229386" lon="11.413590273675373"><ele>553.8333333333334</ele><time>2026-04-11T06:59:33.998Z</time></trkpt><trkpt lat="43.490574311576644" lon="11.413747848711958"><ele>553.0</ele><time>2026-04-11T06:59:35.998Z</time></trkpt><trkpt lat="43.49055590318766" lon="11.413888408911196"><ele>553.0</ele><time>2026-04-11T06:59:37.998Z</time></trkpt><trkpt lat="43.49053861645639" lon="11.414020023562236"><ele>553.0</ele><time>2026-04-11T06:59:40Z</time></trkpt><trkpt lat="43.49049543068851" lon="11.414135734076734"><ele>553.0</ele><time>2026-04-11T06:59:42Z</time></trkpt><trkpt lat="43.49047536899859" lon="11.414258154750122"><ele>553.0</ele><time>2026-04-11T06:59:44Z</time></trkpt><trkpt lat="43.49045575613587" lon="11.414380041366757"><ele>553.0</ele><time>2026-04-11T06:59:46Z</time></trkpt><trkpt lat="43.490438948128656" lon="11.4144980420957"><ele>553.0</ele><time>2026-04-11T06:59:48Z</time></trkpt><trkpt lat="43.490439986350985" lon="11.414617323396605"><ele>553.0</ele><time>2026-04-11T06:59:50Z</time></trkpt><trkpt lat="43.49042599089862" lon="11.414735866504058"><ele>553.0</ele><time>2026-04-11T06:59:52Z</time></trkpt><trkpt lat="43.49040450725126" lon="11.414865527936357"><ele>553.0</ele><time>2026-04-11T06:59:54Z</time></trkpt><trkpt lat="43.49039007197899" lon="11.41495887487676"><ele>553.0</ele><time>2026-04-11T06:59:56Z</time></trkpt><trkpt lat="43.49037331423673" lon="11.415084351329797"><ele>553.0</ele><time>2026-04-11T06:59:58Z</time></trkpt><trkpt lat="43.49035103591142" lon="11.415220085534155"><ele>553.1666666666667</ele><time>2026-04-11T07:00:00Z</time></trkpt><trkpt lat="43.49033265028276" lon="11.415326229123147"><ele>553.3333333333334</ele><time>2026-04-11T07:00:01Z</time></trkpt><trkpt lat="43.4903064251404" lon="11.415452278326018"><ele>553.5</ele><time>2026-04-11T07:00:03Z</time></trkpt><trkpt lat="43.49028384303699" lon="11.415556711378484"><ele>553.6666666666666</ele><time>2026-04-11T07:00:05Z</time></trkpt><trkpt lat="43.49025185098347" lon="11.415673157563933"><ele>553.8333333333333</ele><time>2026-04-11T07:00:07Z</time></trkpt><trkpt lat="43.49021795916533" lon="11.415772897985512"><ele>554.0</ele><time>2026-04-11T07:00:09Z</time></trkpt><trkpt lat="43.490195467258474" lon="11.415893293416378"><ele>554.4</ele><time>2026-04-11T07:00:11Z</time></trkpt><trkpt lat="43.49017085023224" lon="11.416017630431165"><ele>554.8</ele><time>2026-04-11T07:00:13Z</time></trkpt><trkpt lat="43.49014488115723" lon="11.416138467209887"><ele>555.2</ele><time>2026-04-11T07:00:15Z</time></trkpt><trkpt lat="43.490111872169905" lon="11.41626421689258"><ele>555.6</ele><time>2026-04-11T07:00:16.999Z</time></trkpt><trkpt lat="43.490085937727514" lon="11.41638614961908"><ele>556.0</ele><time>2026-04-11T07:00:18.999Z</time></trkpt><trkpt lat="43.49007029003196" lon="11.416504146976395"><ele>557.0</ele><time>2026-04-11T07:00:20.999Z</time></trkpt><trkpt lat="43.4900633175458" lon="11.416605027373263"><ele>558.0</ele><time>2026-04-11T07:00:22.999Z</time></trkpt><trkpt lat="43.4900625961541" lon="11.416715459242877"><ele>559.0</ele><time>2026-04-11T07:00:25.999Z</time></trkpt><trkpt lat="43.49006983996171" lon="11.416838234103711"><ele>560.0</ele><time>2026-04-11T07:00:28.999Z</time></trkpt><trkpt lat="43.49008413934504" lon="11.416925193493888"><ele>561.0</ele><time>2026-04-11T07:00:30.999Z</time></trkpt><trkpt lat="43.49010453197117" lon="11.417019618899209"><ele>562.0</ele><time>2026-04-11T07:00:31.999Z</time></trkpt><trkpt lat="43.490131245345765" lon="11.417123042627559"><ele>562.6666666666667</ele><time>2026-04-11T07:00:33.999Z</time></trkpt><trkpt lat="43.49015493001188" lon="11.417205218327119"><ele>563.3333333333334</ele><time>2026-04-11T07:00:35.999Z</time></trkpt><trkpt lat="43.490189682735505" lon="11.417329327362532"><ele>564.0</ele><time>2026-04-11T07:00:38.999Z</time></trkpt><trkpt lat="43.49021427088855" lon="11.417415008820985"><ele>564.6666666666666</ele><time>2026-04-11T07:00:39.999Z</time></trkpt><trkpt lat="43.49024549239873" lon="11.41751025198851"><ele>565.3333333333333</ele><time>2026-04-11T07:00:41.999Z</time></trkpt><trkpt lat="43.49028492864515" lon="11.417613636820468"><ele>566.0</ele><time>2026-04-11T07:00:43.999Z</time></trkpt><trkpt lat="43.49032279139516" lon="11.417693135996355"><ele>566.0</ele><time>2026-04-11T07:00:45.999Z</time></trkpt><trkpt lat="43.49038493959485" lon="11.417795635768993"><ele>566.0</ele><time>2026-04-11T07:00:47.999Z</time></trkpt><trkpt lat="43.49044665911925" lon="11.41786289925866"><ele>566.0</ele><time>2026-04-11T07:00:49.999Z</time></trkpt><trkpt lat="43.49051036744805" lon="11.417928688579197"><ele>566.0</ele><time>2026-04-11T07:00:51.999Z</time></trkpt><trkpt lat="43.49057914899857" lon="11.417980808173892"><ele>566.0</ele><time>2026-04-11T07:00:53.999Z</time></trkpt><trkpt lat="43.49065622962958" lon="11.41801497710255"><ele>566.0</ele><time>2026-04-11T07:00:55.999Z</time></trkpt><trkpt lat="43.490733857030136" lon="11.418062411992942"><ele>566.4</ele><time>2026-04-11T07:00:57.999Z</time></trkpt><trkpt lat="43.49081074761191" lon="11.418114175419461"><ele>566.8</ele><time>2026-04-11T07:00:59.999Z</time></trkpt><trkpt lat="43.49088764751047" lon="11.41819412803644"><ele>567.1999999999999</ele><time>2026-04-11T07:01:01.999Z</time></trkpt><trkpt lat="43.490948052219345" lon="11.418300046349247"><ele>567.6</ele><time>2026-04-11T07:01:03.999Z</time></trkpt><trkpt lat="43.49098236651025" lon="11.41843096433663"><ele>568.0</ele><time>2026-04-11T07:01:05.998Z</time></trkpt><trkpt lat="43.490991549368275" lon="11.418578548120895"><ele>568.0</ele><time>2026-04-11T07:01:07.998Z</time></trkpt><trkpt lat="43.49095613743646" lon="11.418729051440467"><ele>568.0</ele><time>2026-04-11T07:01:09.998Z</time></trkpt><trkpt lat="43.490957549616425" lon="11.41889575523192"><ele>568.0</ele><time>2026-04-11T07:01:11.998Z</time></trkpt><trkpt lat="43.49096192460359" lon="11.418984509985275"><ele>568.0</ele><time>2026-04-11T07:01:12.998Z</time></trkpt><trkpt lat="43.490971748880376" lon="11.419073595065226"><ele>568.0</ele><time>2026-04-11T07:01:13.998Z</time></trkpt><trkpt lat="43.4909937264357" lon="11.4191654026557"><ele>568.0</ele><time>2026-04-11T07:01:14.998Z</time></trkpt><trkpt lat="43.491015363568785" lon="11.419256662140038"><ele>567.1666666666667</ele><time>2026-04-11T07:01:15.998Z</time></trkpt><trkpt lat="43.49103803844595" lon="11.419346148596041"><ele>566.3333333333334</ele><time>2026-04-11T07:01:16.998Z</time></trkpt><trkpt lat="43.491060924490924" lon="11.419438468330467"><ele>565.5</ele><time>2026-04-11T07:01:17.998Z</time></trkpt><trkpt lat="43.49108279421297" lon="11.419534862392293"><ele>564.6666666666666</ele><time>2026-04-11T07:01:18.998Z</time></trkpt><trkpt lat="43.49110094376711" lon="11.419634675152283"><ele>563.8333333333333</ele><time>2026-04-11T07:01:19.998Z</time></trkpt><trkpt lat="43.49111741576376" lon="11.419739419939777"><ele>563.0</ele><time>2026-04-11T07:01:20.998Z</time></trkpt><trkpt lat="43.49116521403834" lon="11.41983968362368"><ele>562.5</ele><time>2026-04-11T07:01:21.998Z</time></trkpt><trkpt lat="43.49118233705059" lon="11.419950191105876"><ele>562.0</ele><time>2026-04-11T07:01:22.998Z</time></trkpt><trkpt lat="43.491198689845845" lon="11.420064710644958"><ele>561.5</ele><time>2026-04-11T07:01:23.998Z</time></trkpt><trkpt lat="43.491217018168314" lon="11.420179180959492"><ele>561.0</ele><time>2026-04-11T07:01:24.998Z</time></trkpt><trkpt lat="43.491232798884084" lon="11.420293622471409"><ele>560.5</ele><time>2026-04-11T07:01:25.998Z</time></trkpt><trkpt lat="43.49122393325277" lon="11.420408647996943"><ele>560.0</ele><time>2026-04-11T07:01:26.998Z</time></trkpt><trkpt lat="43.49124033087131" lon="11.420510706769102"><ele>560.0</ele><time>2026-04-11T07:01:27.998Z</time></trkpt><trkpt lat="43.4912555847511" lon="11.420605646908365"><ele>560.0</ele><time>2026-04-11T07:01:28.998Z</time></trkpt><trkpt lat="43.491268935532744" lon="11.420692073185212"><ele>560.0</ele><time>2026-04-11T07:01:29.998Z</time></trkpt><trkpt lat="43.491292705487034" lon="11.420848252942966"><ele>560.0</ele><time>2026-04-11T07:01:31.998Z</time></trkpt><trkpt lat="43.491309220131974" lon="11.420984517097319"><ele>560.0</ele><time>2026-04-11T07:01:33.998Z</time></trkpt><trkpt lat="43.49129655332914" lon="11.421104312129085"><ele>560.0</ele><time>2026-04-11T07:01:35.998Z</time></trkpt><trkpt lat="43.49121937299669" lon="11.421172356076818"><ele>560.0</ele><time>2026-04-11T07:01:37.998Z</time></trkpt><trkpt lat="43.49113958212166" lon="11.421194428322801"><ele>560.0</ele><time>2026-04-11T07:01:39.998Z</time></trkpt><trkpt lat="43.491041538846886" lon="11.421215273270104"><ele>560.0</ele><time>2026-04-11T07:01:41.998Z</time></trkpt><trkpt lat="43.49094609040412" lon="11.421257343541154"><ele>560.0</ele><time>2026-04-11T07:01:43.998Z</time></trkpt><trkpt lat="43.49084540337388" lon="11.42128199224159"><ele>560.0</ele><time>2026-04-11T07:01:46Z</time></trkpt><trkpt lat="43.490743619229036" lon="11.42130382908482"><ele>561.6</ele><time>2026-04-11T07:01:48Z</time></trkpt><trkpt lat="43.49064334834059" lon="11.42133244358032"><ele>563.2</ele><time>2026-04-11T07:01:50Z</time></trkpt><trkpt lat="43.49054994148464" lon="11.421360762838107"><ele>564.8</ele><time>2026-04-11T07:01:52Z</time></trkpt><trkpt lat="43.49045248630825" lon="11.42138903456795"><ele>566.4</ele><time>2026-04-11T07:01:54Z</time></trkpt><trkpt lat="43.490356100771386" lon="11.42141744703887"><ele>568.0</ele><time>2026-04-11T07:01:56Z</time></trkpt><trkpt lat="43.490262770361475" lon="11.421452059691921"><ele>568.0</ele><time>2026-04-11T07:01:58Z</time></trkpt><trkpt lat="43.49016771396746" lon="11.421483996601111"><ele>568.0</ele><time>2026-04-11T07:02:00Z</time></trkpt><trkpt lat="43.49006500063052" lon="11.421496688302181"><ele>568.0</ele><time>2026-04-11T07:02:02Z</time></trkpt><trkpt lat="43.48997135860576" lon="11.421527501312466"><ele>568.0</ele><time>2026-04-11T07:02:04Z</time></trkpt><trkpt lat="43.48986599502825" lon="11.421562171311189"><ele>568.0</ele><time>2026-04-11T07:02:06Z</time></trkpt><trkpt lat="43.48974643195988" lon="11.421607113487443"><ele>568.0</ele><time>2026-04-11T07:02:08Z</time></trkpt><trkpt lat="43.48967443895217" lon="11.421635831989608"><ele>568.0</ele><time>2026-04-11T07:02:09Z</time></trkpt><trkpt lat="43.48960434619511" lon="11.42167057657542"><ele>568.0</ele><time>2026-04-11T07:02:10Z</time></trkpt><trkpt lat="43.48953665731716" lon="11.421710148305236"><ele>568.0</ele><time>2026-04-11T07:02:11Z</time></trkpt><trkpt lat="43.48946950903805" lon="11.421753593665922"><ele>568.0</ele><time>2026-04-11T07:02:12Z</time></trkpt><trkpt lat="43.489401881222136" lon="11.42179666356526"><ele>568.0</ele><time>2026-04-11T07:02:13Z</time></trkpt><trkpt lat="43.48933662117866" lon="11.421837371714984"><ele>568.0</ele><time>2026-04-11T07:02:14Z</time></trkpt><trkpt lat="43.48921955394703" lon="11.421881934544755"><ele>564.8</ele><time>2026-04-11T07:02:16Z</time></trkpt><trkpt lat="43.489108027999904" lon="11.421882089584784"><ele>561.5999999999999</ele><time>2026-04-11T07:02:18Z</time></trkpt><trkpt lat="43.48901192868561" lon="11.421884636949486"><ele>558.4000000000001</ele><time>2026-04-11T07:02:20Z</time></trkpt><trkpt lat="43.488920728351474" lon="11.421889313612361"><ele>555.2</ele><time>2026-04-11T07:02:22Z</time></trkpt><trkpt lat="43.48883282278526" lon="11.421903391601775"><ele>552.0</ele><time>2026-04-11T07:02:23.999Z</time></trkpt><trkpt lat="43.48874187008029" lon="11.421930092654817"><ele>553.2</ele><time>2026-04-11T07:02:25.999Z</time></trkpt><trkpt lat="43.48864728596859" lon="11.421972514166935"><ele>554.4000000000001</ele><time>2026-04-11T07:02:27.999Z</time></trkpt><trkpt lat="43.48855060925581" lon="11.422028389777738"><ele>555.5999999999999</ele><time>2026-04-11T07:02:29.999Z</time></trkpt><trkpt lat="43.48847071067809" lon="11.422083983765722"><ele>556.8</ele><time>2026-04-11T07:02:31.999Z</time></trkpt><trkpt lat="43.48839878891961" lon="11.422161883289467"><ele>558.0</ele><time>2026-04-11T07:02:33.999Z</time></trkpt><trkpt lat="43.48833764425232" lon="11.422291096595588"><ele>558.0</ele><time>2026-04-11T07:02:35.999Z</time></trkpt><trkpt lat="43.488300353075196" lon="11.422435184676136"><ele>558.0</ele><time>2026-04-11T07:02:37.999Z</time></trkpt><trkpt lat="43.48827411155869" lon="11.4225666998963"><ele>558.0</ele><time>2026-04-11T07:02:39.999Z</time></trkpt><trkpt lat="43.48825339863542" lon="11.422671814238027"><ele>558.0</ele><time>2026-04-11T07:02:41.999Z</time></trkpt><trkpt lat="43.4882235977488" lon="11.4227791244375"><ele>558.0</ele><time>2026-04-11T07:02:43.999Z</time></trkpt><trkpt lat="43.48811425738888" lon="11.422799268784194"><ele>558.0</ele><time>2026-04-11T07:02:45.999Z</time></trkpt><trkpt lat="43.48800909880364" lon="11.422739262805672"><ele>558.0</ele><time>2026-04-11T07:02:47.999Z</time></trkpt><trkpt lat="43.487935547306705" lon="11.422666248437706"><ele>558.0</ele><time>2026-04-11T07:02:49.999Z</time></trkpt><trkpt lat="43.48786499022327" lon="11.422601674745021"><ele>558.0</ele><time>2026-04-11T07:02:51.999Z</time></trkpt><trkpt lat="43.48778903581456" lon="11.422541072728356"><ele>558.0</ele><time>2026-04-11T07:02:53.999Z</time></trkpt><trkpt lat="43.4877060512776" lon="11.422468463261572"><ele>557.3333333333334</ele><time>2026-04-11T07:02:55.999Z</time></trkpt><trkpt lat="43.48762197691387" lon="11.422361408322336"><ele>556.6666666666666</ele><time>2026-04-11T07:02:57.999Z</time></trkpt><trkpt lat="43.48751721878604" lon="11.422263190197508"><ele>556.0</ele><time>2026-04-11T07:02:59.999Z</time></trkpt><trkpt lat="43.48746187022589" lon="11.422211395697612"><ele>555.3333333333333</ele><time>2026-04-11T07:03:00.999Z</time></trkpt><trkpt lat="43.487397072055685" lon="11.422177871531975"><ele>554.6666666666666</ele><time>2026-04-11T07:03:01.999Z</time></trkpt><trkpt lat="43.487341607802136" lon="11.422122465422222"><ele>554.0</ele><time>2026-04-11T07:03:02.999Z</time></trkpt><trkpt lat="43.48728380129232" lon="11.42206337865334"><ele>552.4285714285714</ele><time>2026-04-11T07:03:03.999Z</time></trkpt><trkpt lat="43.48723026098272" lon="11.421997758719174"><ele>550.8571428571428</ele><time>2026-04-11T07:03:04.999Z</time></trkpt><trkpt lat="43.48718178256325" lon="11.421926188356943"><ele>549.2857142857142</ele><time>2026-04-11T07:03:05.999Z</time></trkpt><trkpt lat="43.48713364512522" lon="11.421853928209892"><ele>547.7142857142857</ele><time>2026-04-11T07:03:06.999Z</time></trkpt><trkpt lat="43.487105870709996" lon="11.421764172379044"><ele>546.1428571428571</ele><time>2026-04-11T07:03:07.999Z</time></trkpt><trkpt lat="43.487064324355515" lon="11.421687484263893"><ele>544.5714285714286</ele><time>2026-04-11T07:03:08.999Z</time></trkpt><trkpt lat="43.48702413811599" lon="11.42161330671114"><ele>543.0</ele><time>2026-04-11T07:03:09.999Z</time></trkpt><trkpt lat="43.48698321054512" lon="11.421537760778412"><ele>543.0</ele><time>2026-04-11T07:03:10.999Z</time></trkpt><trkpt lat="43.48694102228782" lon="11.421459887814414"><ele>543.0</ele><time>2026-04-11T07:03:11.999Z</time></trkpt><trkpt lat="43.4868869136189" lon="11.421395736207632"><ele>543.0</ele><time>2026-04-11T07:03:12.999Z</time></trkpt><trkpt lat="43.486846449851335" lon="11.421313068043895"><ele>543.0</ele><time>2026-04-11T07:03:13.998Z</time></trkpt><trkpt lat="43.486804162137474" lon="11.421235453609912"><ele>543.0</ele><time>2026-04-11T07:03:14.998Z</time></trkpt><trkpt lat="43.48676181383996" lon="11.421158977639314"><ele>543.0</ele><time>2026-04-11T07:03:15.998Z</time></trkpt><trkpt lat="43.48673393031304" lon="11.421070269759529"><ele>543.0</ele><time>2026-04-11T07:03:16.998Z</time></trkpt><trkpt lat="43.4866915309167" lon="11.420994083980931"><ele>542.8333333333334</ele><time>2026-04-11T07:03:17.998Z</time></trkpt><trkpt lat="43.48664886806481" lon="11.420919309214284"><ele>542.6666666666666</ele><time>2026-04-11T07:03:18.998Z</time></trkpt><trkpt lat="43.4865944726978" lon="11.4208648270447"><ele>542.5</ele><time>2026-04-11T07:03:19.998Z</time></trkpt><trkpt lat="43.48655132080894" lon="11.420795409914593"><ele>542.3333333333333</ele><time>2026-04-11T07:03:20.998Z</time></trkpt><trkpt lat="43.486521458691335" lon="11.420716113139413"><ele>542.1666666666666</ele><time>2026-04-11T07:03:21.998Z</time></trkpt><trkpt lat="43.48643450330716" lon="11.420595873846166"><ele>542.0</ele><time>2026-04-11T07:03:23.998Z</time></trkpt><trkpt lat="43.48633872894427" lon="11.420497501666626"><ele>543.0</ele><time>2026-04-11T07:03:25.998Z</time></trkpt><trkpt lat="43.486249331413475" lon="11.420418753869725"><ele>544.0</ele><time>2026-04-11T07:03:27.998Z</time></trkpt><trkpt lat="43.486163017495414" lon="11.42034789204477"><ele>545.0</ele><time>2026-04-11T07:03:29.998Z</time></trkpt><trkpt lat="43.48607855325209" lon="11.420288779023922"><ele>546.0</ele><time>2026-04-11T07:03:31.998Z</time></trkpt><trkpt lat="43.485994713665214" lon="11.420235744219116"><ele>547.0</ele><time>2026-04-11T07:03:33.998Z</time></trkpt><trkpt lat="43.48591506916585" lon="11.420189091618134"><ele>547.0</ele><time>2026-04-11T07:03:35.998Z</time></trkpt><trkpt lat="43.485837416055006" lon="11.42014102754484"><ele>547.0</ele><time>2026-04-11T07:03:37.998Z</time></trkpt><trkpt lat="43.48576053743866" lon="11.42009375411358"><ele>547.0</ele><time>2026-04-11T07:03:39.998Z</time></trkpt><trkpt lat="43.48567908579762" lon="11.420045615569926"><ele>547.0</ele><time>2026-04-11T07:03:41.998Z</time></trkpt><trkpt lat="43.48559860392609" lon="11.420000096088277"><ele>547.0</ele><time>2026-04-11T07:03:43.998Z</time></trkpt><trkpt lat="43.485503282901185" lon="11.419997014318719"><ele>547.0</ele><time>2026-04-11T07:03:45.998Z</time></trkpt><trkpt lat="43.485418367643526" lon="11.419949482721478"><ele>548.1666666666667</ele><time>2026-04-11T07:03:47.998Z</time></trkpt><trkpt lat="43.485334921918366" lon="11.419905501544912"><ele>549.3333333333334</ele><time>2026-04-11T07:03:49.998Z</time></trkpt><trkpt lat="43.48525455903158" lon="11.419861597047795"><ele>550.5</ele><time>2026-04-11T07:03:52Z</time></trkpt><trkpt lat="43.48518011031014" lon="11.419819931105817"><ele>551.6666666666666</ele><time>2026-04-11T07:03:54Z</time></trkpt><trkpt lat="43.485107871645184" lon="11.419781706752225"><ele>552.8333333333333</ele><time>2026-04-11T07:03:56Z</time></trkpt><trkpt lat="43.48503409852125" lon="11.419736674360266"><ele>554.0</ele><time>2026-04-11T07:03:58Z</time></trkpt><trkpt lat="43.48495744653864" lon="11.419686726481176"><ele>553.0</ele><time>2026-04-11T07:04:00Z</time></trkpt><trkpt lat="43.48482833647755" lon="11.419613929903397"><ele>552.0</ele><time>2026-04-11T07:04:03Z</time></trkpt><trkpt lat="43.48475372552912" lon="11.419570400553498"><ele>551.0</ele><time>2026-04-11T07:04:05Z</time></trkpt><trkpt lat="43.48467820924046" lon="11.419532530633067"><ele>550.0</ele><time>2026-04-11T07:04:07Z</time></trkpt><trkpt lat="43.484608163850154" lon="11.419505321063589"><ele>549.0</ele><time>2026-04-11T07:04:09Z</time></trkpt><trkpt lat="43.48453750612914" lon="11.419481838284064"><ele>548.0</ele><time>2026-04-11T07:04:11Z</time></trkpt><trkpt lat="43.48446459407236" lon="11.419469617689662"><ele>548.0</ele><time>2026-04-11T07:04:13Z</time></trkpt><trkpt lat="43.48438714658087" lon="11.419464233877633"><ele>548.0</ele><time>2026-04-11T07:04:15Z</time></trkpt><trkpt lat="43.484302252113075" lon="11.419471368342839"><ele>548.0</ele><time>2026-04-11T07:04:17Z</time></trkpt><trkpt lat="43.4842140612768" lon="11.419494080896332"><ele>548.0</ele><time>2026-04-11T07:04:19Z</time></trkpt><trkpt lat="43.48411325617296" lon="11.419525697254002"><ele>548.0</ele><time>2026-04-11T07:04:21Z</time></trkpt><trkpt lat="43.48400909381238" lon="11.419581686307064"><ele>548.0</ele><time>2026-04-11T07:04:23Z</time></trkpt><trkpt lat="43.483882909768326" lon="11.419598317833458"><ele>548.0</ele><time>2026-04-11T07:04:25Z</time></trkpt><trkpt lat="43.48382517129032" lon="11.419636963363763"><ele>548.0</ele><time>2026-04-11T07:04:26Z</time></trkpt><trkpt lat="43.48376358205269" lon="11.419677582302853"><ele>548.0</ele><time>2026-04-11T07:04:27Z</time></trkpt><trkpt lat="43.48369797257809" lon="11.419719730402065"><ele>548.0</ele><time>2026-04-11T07:04:28Z</time></trkpt><trkpt lat="43.4836320476834" lon="11.419762081111333"><ele>548.0</ele><time>2026-04-11T07:04:29Z</time></trkpt><trkpt lat="43.4835626150378" lon="11.41980668529805"><ele>547.5</ele><time>2026-04-11T07:04:30Z</time></trkpt><trkpt lat="43.48349103238281" lon="11.419852670507904"><ele>547.0</ele><time>2026-04-11T07:04:31Z</time></trkpt><trkpt lat="43.48341229766079" lon="11.41990325048329"><ele>546.5</ele><time>2026-04-11T07:04:32Z</time></trkpt><trkpt lat="43.483331260615834" lon="11.419955506884827"><ele>546.0</ele><time>2026-04-11T07:04:32.999Z</time></trkpt><trkpt lat="43.483254684898924" lon="11.420005310966658"><ele>545.5</ele><time>2026-04-11T07:04:33.999Z</time></trkpt><trkpt lat="43.48318904297726" lon="11.42004800378605"><ele>545.0</ele><time>2026-04-11T07:04:34.999Z</time></trkpt><trkpt lat="43.48312189790914" lon="11.420091674270665"><ele>545.0</ele><time>2026-04-11T07:04:35.999Z</time></trkpt><trkpt lat="43.483062296853646" lon="11.420130438206106"><ele>545.0</ele><time>2026-04-11T07:04:36.999Z</time></trkpt><trkpt lat="43.48297148923821" lon="11.420192246905057"><ele>545.0</ele><time>2026-04-11T07:04:38.999Z</time></trkpt><trkpt lat="43.482896829172816" lon="11.420268088812572"><ele>545.0</ele><time>2026-04-11T07:04:40.999Z</time></trkpt><trkpt lat="43.482796828885576" lon="11.420322081265809"><ele>545.0</ele><time>2026-04-11T07:04:42.999Z</time></trkpt><trkpt lat="43.48269426713133" lon="11.420393492720754"><ele>544.8</ele><time>2026-04-11T07:04:44.999Z</time></trkpt><trkpt lat="43.482587646722784" lon="11.420468175725036"><ele>544.6</ele><time>2026-04-11T07:04:46.999Z</time></trkpt><trkpt lat="43.48247611159376" lon="11.42054481370786"><ele>544.4</ele><time>2026-04-11T07:04:48.999Z</time></trkpt><trkpt lat="43.482363858797086" lon="11.420631197583797"><ele>544.2</ele><time>2026-04-11T07:04:50.999Z</time></trkpt><trkpt lat="43.482304880188444" lon="11.420674459027987"><ele>544.0</ele><time>2026-04-11T07:04:51.999Z</time></trkpt><trkpt lat="43.482240088800914" lon="11.42069728868699"><ele>543.9999999999999</ele><time>2026-04-11T07:04:52.999Z</time></trkpt><trkpt lat="43.48218205273529" lon="11.420739299848076"><ele>544.0</ele><time>2026-04-11T07:04:53.999Z</time></trkpt><trkpt lat="43.48212516804278" lon="11.420781449610006"><ele>544.0</ele><time>2026-04-11T07:04:54.999Z</time></trkpt><trkpt lat="43.48206814578032" lon="11.420823891734345"><ele>544.0</ele><time>2026-04-11T07:04:55.999Z</time></trkpt><trkpt lat="43.48200945473759" lon="11.420867575961408"><ele>544.0</ele><time>2026-04-11T07:04:56.999Z</time></trkpt><trkpt lat="43.481951952972864" lon="11.42091089931878"><ele>543.9999999999999</ele><time>2026-04-11T07:04:57.999Z</time></trkpt><trkpt lat="43.48189166573469" lon="11.42095732061168"><ele>544.0</ele><time>2026-04-11T07:04:58.999Z</time></trkpt><trkpt lat="43.48183547886719" lon="11.421001063145203"><ele>542.8333333333334</ele><time>2026-04-11T07:04:59.999Z</time></trkpt><trkpt lat="43.48172396883249" lon="11.421088768798539"><ele>541.6666666666667</ele><time>2026-04-11T07:05:01.999Z</time></trkpt><trkpt lat="43.48166688400451" lon="11.421134118129217"><ele>540.5</ele><time>2026-04-11T07:05:02.999Z</time></trkpt><trkpt lat="43.4816090239433" lon="11.421180083311432"><ele>539.3333333333334</ele><time>2026-04-11T07:05:03.999Z</time></trkpt><trkpt lat="43.48155807900091" lon="11.421246577201146"><ele>538.1666666666666</ele><time>2026-04-11T07:05:04.999Z</time></trkpt><trkpt lat="43.481496036825085" lon="11.42129465185937"><ele>537.0</ele><time>2026-04-11T07:05:05.999Z</time></trkpt><trkpt lat="43.48143402147048" lon="11.421342306028455"><ele>537.1428571428571</ele><time>2026-04-11T07:05:06.999Z</time></trkpt><trkpt lat="43.481366028529116" lon="11.421375565869589"><ele>537.2857142857142</ele><time>2026-04-11T07:05:07.999Z</time></trkpt><trkpt lat="43.48130628398179" lon="11.42142509133518"><ele>537.4285714285714</ele><time>2026-04-11T07:05:08.999Z</time></trkpt><trkpt lat="43.48124658272384" lon="11.421474580793085"><ele>537.5714285714286</ele><time>2026-04-11T07:05:09.999Z</time></trkpt><trkpt lat="43.48118684386093" lon="11.42152410139213"><ele>537.7142857142858</ele><time>2026-04-11T07:05:10.999Z</time></trkpt><trkpt lat="43.481128673431165" lon="11.421572321883414"><ele>537.8571428571429</ele><time>2026-04-11T07:05:11.999Z</time></trkpt><trkpt lat="43.4810713004457" lon="11.421619930766505"><ele>538.0</ele><time>2026-04-11T07:05:12.999Z</time></trkpt><trkpt lat="43.481010965671615" lon="11.421670560280798"><ele>538.0</ele><time>2026-04-11T07:05:13.999Z</time></trkpt><trkpt lat="43.480949547590825" lon="11.421721813728022"><ele>538.0</ele><time>2026-04-11T07:05:14.999Z</time></trkpt><trkpt lat="43.480890643942445" lon="11.421770103586868"><ele>538.0</ele><time>2026-04-11T07:05:15.999Z</time></trkpt><trkpt lat="43.480825628730116" lon="11.421823403705886"><ele>538.0</ele><time>2026-04-11T07:05:16.999Z</time></trkpt><trkpt lat="43.48076400652194" lon="11.42187347733021"><ele>538.0</ele><time>2026-04-11T07:05:17.999Z</time></trkpt><trkpt lat="43.48069786851806" lon="11.421924952903693"><ele>538.0</ele><time>2026-04-11T07:05:18.999Z</time></trkpt><trkpt lat="43.48062790353783" lon="11.421977769122526"><ele>538.0</ele><time>2026-04-11T07:05:19.999Z</time></trkpt><trkpt lat="43.48055937080571" lon="11.422028438683563"><ele>538.0</ele><time>2026-04-11T07:05:20.999Z</time></trkpt><trkpt lat="43.4804975967812" lon="11.422098811593012"><ele>538.0</ele><time>2026-04-11T07:05:21.999Z</time></trkpt><trkpt lat="43.480424536708966" lon="11.42214445363036"><ele>538.0</ele><time>2026-04-11T07:05:22.998Z</time></trkpt><trkpt lat="43.48035643934519" lon="11.422196011927534"><ele>538.0</ele><time>2026-04-11T07:05:23.998Z</time></trkpt><trkpt lat="43.4802962446787" lon="11.422251526540423"><ele>538.0</ele><time>2026-04-11T07:05:24.998Z</time></trkpt><trkpt lat="43.48023252554209" lon="11.422307559497323"><ele>538.0</ele><time>2026-04-11T07:05:25.998Z</time></trkpt><trkpt lat="43.48017142858403" lon="11.422369038013183"><ele>537.1666666666667</ele><time>2026-04-11T07:05:26.998Z</time></trkpt><trkpt lat="43.48011047080276" lon="11.422430424283395"><ele>536.3333333333334</ele><time>2026-04-11T07:05:27.998Z</time></trkpt><trkpt lat="43.48004989831198" lon="11.42249233618923"><ele>535.5</ele><time>2026-04-11T07:05:28.998Z</time></trkpt><trkpt lat="43.47999356906571" lon="11.422549110845441"><ele>534.6666666666666</ele><time>2026-04-11T07:05:29.998Z</time></trkpt><trkpt lat="43.47994267079856" lon="11.422605060129762"><ele>533.8333333333333</ele><time>2026-04-11T07:05:30.998Z</time></trkpt><trkpt lat="43.47988306628643" lon="11.422661525821452"><ele>533.0</ele><time>2026-04-11T07:05:31.998Z</time></trkpt><trkpt lat="43.47979067462454" lon="11.42277317439094"><ele>533.0</ele><time>2026-04-11T07:05:33.998Z</time></trkpt><trkpt lat="43.47974024747175" lon="11.422827981376678"><ele>533.0</ele><time>2026-04-11T07:05:34.998Z</time></trkpt><trkpt lat="43.47964659474559" lon="11.422930693523206"><ele>533.0</ele><time>2026-04-11T07:05:36.998Z</time></trkpt><trkpt lat="43.47956413252649" lon="11.423047610621987"><ele>533.0</ele><time>2026-04-11T07:05:38.998Z</time></trkpt><trkpt lat="43.47948820979583" lon="11.423162467029286"><ele>533.0</ele><time>2026-04-11T07:05:40.998Z</time></trkpt><trkpt lat="43.47942573749223" lon="11.423289703358435"><ele>533.1666666666666</ele><time>2026-04-11T07:05:42.998Z</time></trkpt><trkpt lat="43.479372040622685" lon="11.42340944375372"><ele>533.3333333333333</ele><time>2026-04-11T07:05:44.998Z</time></trkpt><trkpt lat="43.47932366193387" lon="11.423520653145594"><ele>533.5</ele><time>2026-04-11T07:05:46.998Z</time></trkpt><trkpt lat="43.479272875008284" lon="11.423612064724054"><ele>533.6666666666666</ele><time>2026-04-11T07:05:49.998Z</time></trkpt><trkpt lat="43.479212106223294" lon="11.423680281017544"><ele>533.8333333333334</ele><time>2026-04-11T07:05:50.998Z</time></trkpt><trkpt lat="43.47918326880572" lon="11.423759668197007"><ele>534.0</ele><time>2026-04-11T07:05:51.998Z</time></trkpt><trkpt lat="43.47910965753268" lon="11.423859511569132"><ele>532.8</ele><time>2026-04-11T07:05:53.998Z</time></trkpt><trkpt lat="43.47904494903923" lon="11.423952055185273"><ele>531.5999999999999</ele><time>2026-04-11T07:05:55.998Z</time></trkpt><trkpt lat="43.47898457479073" lon="11.42403662761894"><ele>530.4</ele><time>2026-04-11T07:05:58Z</time></trkpt><trkpt lat="43.478925561917734" lon="11.424112898831089"><ele>529.1999999999999</ele><time>2026-04-11T07:06:00Z</time></trkpt><trkpt lat="43.47885529383961" lon="11.424188535016661"><ele>528.0</ele><time>2026-04-11T07:06:02Z</time></trkpt><trkpt lat="43.47876007131186" lon="11.424259158582451"><ele>526.8</ele><time>2026-04-11T07:06:04Z</time></trkpt><trkpt lat="43.478661420578355" lon="11.424323466567659"><ele>525.5999999999999</ele><time>2026-04-11T07:06:06Z</time></trkpt><trkpt lat="43.478561143102816" lon="11.42439028903959"><ele>524.4000000000001</ele><time>2026-04-11T07:06:08Z</time></trkpt><trkpt lat="43.47846679636043" lon="11.424456162432438"><ele>523.2</ele><time>2026-04-11T07:06:10Z</time></trkpt><trkpt lat="43.478394005899425" lon="11.424509018881103"><ele>522.0</ele><time>2026-04-11T07:06:12Z</time></trkpt><trkpt lat="43.478332276777195" lon="11.424553513169556"><ele>522.0</ele><time>2026-04-11T07:06:14Z</time></trkpt><trkpt lat="43.478258259936126" lon="11.424605824075778"><ele>522.0</ele><time>2026-04-11T07:06:16Z</time></trkpt><trkpt lat="43.47819188308542" lon="11.42465424232583"><ele>522.0</ele><time>2026-04-11T07:06:18Z</time></trkpt><trkpt lat="43.4781335837066" lon="11.424688201659901"><ele>522.0</ele><time>2026-04-11T07:06:20Z</time></trkpt><trkpt lat="43.4780575837033" lon="11.424697034290137"><ele>522.0</ele><time>2026-04-11T07:06:22Z</time></trkpt><trkpt lat="43.47796098464886" lon="11.424593589810469"><ele>522.0</ele><time>2026-04-11T07:06:25Z</time></trkpt><trkpt lat="43.47789105436587" lon="11.42448726120033"><ele>519.2</ele><time>2026-04-11T07:06:27Z</time></trkpt><trkpt lat="43.47780707530642" lon="11.424386172199823"><ele>516.4000000000001</ele><time>2026-04-11T07:06:29Z</time></trkpt><trkpt lat="43.47774497317821" lon="11.424285072161123"><ele>513.5999999999999</ele><time>2026-04-11T07:06:31Z</time></trkpt><trkpt lat="43.47770678585544" lon="11.4241919903588"><ele>510.79999999999995</ele><time>2026-04-11T07:06:33Z</time></trkpt><trkpt lat="43.47764564672034" lon="11.424126912086948"><ele>508.0</ele><time>2026-04-11T07:06:35Z</time></trkpt><trkpt lat="43.477577695474736" lon="11.424037367288594"><ele>508.0</ele><time>2026-04-11T07:06:37Z</time></trkpt><trkpt lat="43.4774982500531" lon="11.423929966125401"><ele>507.99999999999994</ele><time>2026-04-11T07:06:39Z</time></trkpt><trkpt lat="43.47744259303759" lon="11.42379326242029"><ele>507.99999999999994</ele><time>2026-04-11T07:06:40.999Z</time></trkpt><trkpt lat="43.47735614442924" lon="11.423674490323588"><ele>508.0</ele><time>2026-04-11T07:06:42.999Z</time></trkpt><trkpt lat="43.4773092456418" lon="11.42361005591284"><ele>508.0</ele><time>2026-04-11T07:06:43.999Z</time></trkpt><trkpt lat="43.47726234479174" lon="11.423545618632675"><ele>508.0</ele><time>2026-04-11T07:06:44.999Z</time></trkpt><trkpt lat="43.47717954390002" lon="11.423430686331443"><ele>507.99999999999994</ele><time>2026-04-11T07:06:46.999Z</time></trkpt><trkpt lat="43.47710583006688" lon="11.423327661253063"><ele>507.99999999999994</ele><time>2026-04-11T07:06:48.999Z</time></trkpt><trkpt lat="43.477037783772744" lon="11.423233739401356"><ele>508.0</ele><time>2026-04-11T07:06:50.999Z</time></trkpt><trkpt lat="43.476972918327014" lon="11.423146262354232"><ele>508.0</ele><time>2026-04-11T07:06:52.999Z</time></trkpt><trkpt lat="43.476910685385896" lon="11.423064765275123"><ele>507.6666666666667</ele><time>2026-04-11T07:06:54.999Z</time></trkpt><trkpt lat="43.47684493750181" lon="11.42298635442685"><ele>507.33333333333337</ele><time>2026-04-11T07:06:56.999Z</time></trkpt><trkpt lat="43.47677452904846" lon="11.422918235543047"><ele>507.0</ele><time>2026-04-11T07:06:58.999Z</time></trkpt><trkpt lat="43.4766960140872" lon="11.422857195536917"><ele>506.66666666666663</ele><time>2026-04-11T07:07:00.999Z</time></trkpt><trkpt lat="43.4766174485406" lon="11.422806835432615"><ele>506.3333333333333</ele><time>2026-04-11T07:07:02.999Z</time></trkpt><trkpt lat="43.47653046835221" lon="11.422752392572946"><ele>506.0</ele><time>2026-04-11T07:07:04.999Z</time></trkpt><trkpt lat="43.47643509845876" lon="11.422695606485352"><ele>506.0</ele><time>2026-04-11T07:07:06.999Z</time></trkpt><trkpt lat="43.47633046816355" lon="11.422633306460282"><ele>506.0</ele><time>2026-04-11T07:07:08.999Z</time></trkpt><trkpt lat="43.47622021386991" lon="11.422567657788028"><ele>506.0</ele><time>2026-04-11T07:07:10.999Z</time></trkpt><trkpt lat="43.47610814438237" lon="11.422500928246627"><ele>506.0</ele><time>2026-04-11T07:07:12.999Z</time></trkpt><trkpt lat="43.47600002857634" lon="11.422436552894942"><ele>506.0</ele><time>2026-04-11T07:07:14.999Z</time></trkpt><trkpt lat="43.47588823828518" lon="11.422381222349951"><ele>506.0</ele><time>2026-04-11T07:07:16.999Z</time></trkpt><trkpt lat="43.47578420524877" lon="11.422341111516177"><ele>506.0</ele><time>2026-04-11T07:07:18.999Z</time></trkpt><trkpt lat="43.47568958803062" lon="11.422317395674156"><ele>506.0</ele><time>2026-04-11T07:07:20.999Z</time></trkpt><trkpt lat="43.4756097140735" lon="11.42231188420789"><ele>506.0</ele><time>2026-04-11T07:07:22.999Z</time></trkpt><trkpt lat="43.475539207477986" lon="11.422324988759502"><ele>505.99999999999994</ele><time>2026-04-11T07:07:24.999Z</time></trkpt><trkpt lat="43.475476533116165" lon="11.422341698946461"><ele>506.0</ele><time>2026-04-11T07:07:26.999Z</time></trkpt><trkpt lat="43.47539361364807" lon="11.422373424750656"><ele>506.0</ele><time>2026-04-11T07:07:29.999Z</time></trkpt><trkpt lat="43.475319722524034" lon="11.422415509324557"><ele>506.0</ele><time>2026-04-11T07:07:32.998Z</time></trkpt><trkpt lat="43.47525366814505" lon="11.422455151598498"><ele>505.99999999999994</ele><time>2026-04-11T07:07:35.998Z</time></trkpt><trkpt lat="43.475225055211254" lon="11.422538948886151"><ele>506.0</ele><time>2026-04-11T07:07:37.998Z</time></trkpt><trkpt lat="43.47514924953209" lon="11.422580919890818"><ele>507.8333333333333</ele><time>2026-04-11T07:07:41.998Z</time></trkpt><trkpt lat="43.475068862367394" lon="11.422610008397262"><ele>509.66666666666663</ele><time>2026-04-11T07:07:45.998Z</time></trkpt><trkpt lat="43.475000084073805" lon="11.422632842619192"><ele>511.5</ele><time>2026-04-11T07:07:48.998Z</time></trkpt><trkpt lat="43.474931207854446" lon="11.422643068941253"><ele>513.3333333333334</ele><time>2026-04-11T07:07:50.998Z</time></trkpt><trkpt lat="43.474836830103875" lon="11.422634897203539"><ele>515.1666666666667</ele><time>2026-04-11T07:07:53.998Z</time></trkpt><trkpt lat="43.47475563697336" lon="11.4226246205946"><ele>517.0</ele><time>2026-04-11T07:07:56.998Z</time></trkpt><trkpt lat="43.474681143136216" lon="11.42259168823993"><ele>517.0</ele><time>2026-04-11T07:07:58.998Z</time></trkpt><trkpt lat="43.474610972493316" lon="11.422569219920186"><ele>517.0</ele><time>2026-04-11T07:08:00.998Z</time></trkpt><trkpt lat="43.47453543847845" lon="11.422541894863533"><ele>517.0</ele><time>2026-04-11T07:08:02.998Z</time></trkpt><trkpt lat="43.474462352322554" lon="11.422519618993725"><ele>517.0</ele><time>2026-04-11T07:08:05Z</time></trkpt><trkpt lat="43.47439392075478" lon="11.422495868690659"><ele>517.0</ele><time>2026-04-11T07:08:07Z</time></trkpt><trkpt lat="43.47432665797267" lon="11.42247509032214"><ele>517.0</ele><time>2026-04-11T07:08:09Z</time></trkpt><trkpt lat="43.47425014045694" lon="11.422452959006707"><ele>517.0</ele><time>2026-04-11T07:08:11Z</time></trkpt><trkpt lat="43.47418540879225" lon="11.42243429936934"><ele>517.1428571428571</ele><time>2026-04-11T07:08:13Z</time></trkpt><trkpt lat="43.474117828441834" lon="11.422427235441747"><ele>517.2857142857143</ele><time>2026-04-11T07:08:15Z</time></trkpt><trkpt lat="43.474027456136845" lon="11.422423314044561"><ele>517.4285714285714</ele><time>2026-04-11T07:08:18Z</time></trkpt><trkpt lat="43.47395974557566" lon="11.422419717679103"><ele>517.5714285714286</ele><time>2026-04-11T07:08:20Z</time></trkpt><trkpt lat="43.47389229881329" lon="11.422403874530088"><ele>517.7142857142858</ele><time>2026-04-11T07:08:22Z</time></trkpt><trkpt lat="43.47382464849767" lon="11.422404796733444"><ele>517.8571428571429</ele><time>2026-04-11T07:08:24Z</time></trkpt><trkpt lat="43.473752613619816" lon="11.422382879415117"><ele>518.0</ele><time>2026-04-11T07:08:26Z</time></trkpt><trkpt lat="43.473675303848104" lon="11.422345885679608"><ele>518.0</ele><time>2026-04-11T07:08:28Z</time></trkpt><trkpt lat="43.473591542321515" lon="11.42231145673161"><ele>518.0</ele><time>2026-04-11T07:08:30Z</time></trkpt><trkpt lat="43.47351479398875" lon="11.42229076347992"><ele>518.0</ele><time>2026-04-11T07:08:32Z</time></trkpt><trkpt lat="43.473443387453756" lon="11.422271695309716"><ele>518.0</ele><time>2026-04-11T07:08:34Z</time></trkpt><trkpt lat="43.473368122600476" lon="11.422247520211469"><ele>518.0</ele><time>2026-04-11T07:08:36Z</time></trkpt><trkpt lat="43.47328877696156" lon="11.422202907727712"><ele>518.0</ele><time>2026-04-11T07:08:38Z</time></trkpt><trkpt lat="43.47320301891594" lon="11.422162503325922"><ele>517.8</ele><time>2026-04-11T07:08:40Z</time></trkpt><trkpt lat="43.47311329624317" lon="11.422085811610787"><ele>517.5999999999999</ele><time>2026-04-11T07:08:42Z</time></trkpt><trkpt lat="43.47302542460004" lon="11.421985786898528"><ele>517.4000000000001</ele><time>2026-04-11T07:08:44Z</time></trkpt><trkpt lat="43.472941449513044" lon="11.421876487252202"><ele>517.2</ele><time>2026-04-11T07:08:46Z</time></trkpt><trkpt lat="43.472859914271375" lon="11.421778667404903"><ele>517.0</ele><time>2026-04-11T07:08:47.999Z</time></trkpt><trkpt lat="43.472797285496654" lon="11.421670621624923"><ele>517.0</ele><time>2026-04-11T07:08:49.999Z</time></trkpt><trkpt lat="43.47272892923907" lon="11.421590184381321"><ele>517.0</ele><time>2026-04-11T07:08:51.999Z</time></trkpt><trkpt lat="43.47266219839042" lon="11.421522501443375"><ele>517.0</ele><time>2026-04-11T07:08:53.999Z</time></trkpt><trkpt lat="43.472599853742246" lon="11.421463474876086"><ele>517.0</ele><time>2026-04-11T07:08:55.999Z</time></trkpt><trkpt lat="43.47253448908166" lon="11.421413438187605"><ele>517.0</ele><time>2026-04-11T07:08:57.999Z</time></trkpt><trkpt lat="43.47247719438132" lon="11.421372040911102"><ele>517.0</ele><time>2026-04-11T07:08:59.999Z</time></trkpt><trkpt lat="43.47241229279551" lon="11.421329170256621"><ele>517.1666666666667</ele><time>2026-04-11T07:09:01.999Z</time></trkpt><trkpt lat="43.472344968022" lon="11.421287952701485"><ele>517.3333333333334</ele><time>2026-04-11T07:09:03.999Z</time></trkpt><trkpt lat="43.47227371353956" lon="11.421249592629868"><ele>517.5</ele><time>2026-04-11T07:09:05.999Z</time></trkpt><trkpt lat="43.47220066142462" lon="11.421211967504664"><ele>517.6666666666666</ele><time>2026-04-11T07:09:08.999Z</time></trkpt><trkpt lat="43.47211445326866" lon="11.421218670828793"><ele>517.8333333333333</ele><time>2026-04-11T07:09:11.999Z</time></trkpt><trkpt lat="43.472047451055374" lon="11.421195541247979"><ele>518.0</ele><time>2026-04-11T07:09:14.999Z</time></trkpt><trkpt lat="43.47198853683582" lon="11.42115134773855"><ele>518.6666666666666</ele><time>2026-04-11T07:09:17.999Z</time></trkpt><trkpt lat="43.47193109050952" lon="11.421087812144208"><ele>519.3333333333333</ele><time>2026-04-11T07:09:19.999Z</time></trkpt><trkpt lat="43.471880218248174" lon="11.421032915534937"><ele>520.0</ele><time>2026-04-11T07:09:21.999Z</time></trkpt><trkpt lat="43.471814960594465" lon="11.420955268163887"><ele>520.6666666666666</ele><time>2026-04-11T07:09:24.999Z</time></trkpt><trkpt lat="43.47175499587517" lon="11.420882920230977"><ele>521.3333333333334</ele><time>2026-04-11T07:09:27.999Z</time></trkpt><trkpt lat="43.47171106633066" lon="11.420811150064047"><ele>522.0</ele><time>2026-04-11T07:09:29.999Z</time></trkpt><trkpt lat="43.47164692357968" lon="11.420727145932675"><ele>522.0</ele><time>2026-04-11T07:09:32.999Z</time></trkpt><trkpt lat="43.47157999560031" lon="11.42064336744745"><ele>522.0</ele><time>2026-04-11T07:09:35.999Z</time></trkpt><trkpt lat="43.47153494523867" lon="11.420577456994478"><ele>522.0</ele><time>2026-04-11T07:09:37.998Z</time></trkpt><trkpt lat="43.471402374319126" lon="11.420362792584058"><ele>522.0</ele><time>2026-04-11T07:09:39.998Z</time></trkpt><trkpt lat="43.47135437448543" lon="11.42027781737489"><ele>522.0</ele><time>2026-04-11T07:09:41.998Z</time></trkpt><trkpt lat="43.47130211791833" lon="11.420179798324028"><ele>520.2</ele><time>2026-04-11T07:09:43.998Z</time></trkpt><trkpt lat="43.47123977719511" lon="11.42006984988217"><ele>518.4000000000001</ele><time>2026-04-11T07:09:45.998Z</time></trkpt><trkpt lat="43.47117248967459" lon="11.419949607931615"><ele>516.5999999999999</ele><time>2026-04-11T07:09:47.998Z</time></trkpt><trkpt lat="43.47110726748802" lon="11.419842505903405"><ele>514.8</ele><time>2026-04-11T07:09:49.998Z</time></trkpt><trkpt lat="43.471037550859215" lon="11.419744392059295"><ele>513.0</ele><time>2026-04-11T07:09:51.998Z</time></trkpt><trkpt lat="43.47096312253873" lon="11.419633016339233"><ele>511.59999999999997</ele><time>2026-04-11T07:09:53.998Z</time></trkpt><trkpt lat="43.47088797314329" lon="11.419530812202938"><ele>510.19999999999993</ele><time>2026-04-11T07:09:55.998Z</time></trkpt><trkpt lat="43.470809928849484" lon="11.419413211011259"><ele>508.8</ele><time>2026-04-11T07:09:57.998Z</time></trkpt><trkpt lat="43.470740862915" lon="11.419271714058729"><ele>507.4</ele><time>2026-04-11T07:09:59.998Z</time></trkpt><trkpt lat="43.47070079077784" lon="11.41920368023996"><ele>506.0</ele><time>2026-04-11T07:10:00.998Z</time></trkpt><trkpt lat="43.47065808158653" lon="11.419128981127576"><ele>506.0</ele><time>2026-04-11T07:10:01.998Z</time></trkpt><trkpt lat="43.47061854435643" lon="11.419056492172738"><ele>506.0</ele><time>2026-04-11T07:10:02.998Z</time></trkpt><trkpt lat="43.47054929867139" lon="11.418929566878354"><ele>506.0</ele><time>2026-04-11T07:10:04.998Z</time></trkpt><trkpt lat="43.47048089363916" lon="11.418806979983161"><ele>506.0</ele><time>2026-04-11T07:10:06.998Z</time></trkpt><trkpt lat="43.47040289859376" lon="11.418707240652221"><ele>506.0</ele><time>2026-04-11T07:10:08.998Z</time></trkpt><trkpt lat="43.470364529721834" lon="11.41861050535909"><ele>505.20000000000005</ele><time>2026-04-11T07:10:11Z</time></trkpt><trkpt lat="43.47030143447217" lon="11.418506325790622"><ele>504.40000000000003</ele><time>2026-04-11T07:10:13Z</time></trkpt><trkpt lat="43.47019295054463" lon="11.418460704670288"><ele>503.6</ele><time>2026-04-11T07:10:15Z</time></trkpt><trkpt lat="43.47014160243345" lon="11.418541876875441"><ele>502.8</ele><time>2026-04-11T07:10:16Z</time></trkpt><trkpt lat="43.47010948151558" lon="11.41867762675873"><ele>502.0</ele><time>2026-04-11T07:10:18Z</time></trkpt><trkpt lat="43.470052452646804" lon="11.41877981560065"><ele>502.40000000000003</ele><time>2026-04-11T07:10:20Z</time></trkpt><trkpt lat="43.46998827436289" lon="11.41888250261141"><ele>502.80000000000007</ele><time>2026-04-11T07:10:22Z</time></trkpt><trkpt lat="43.46992383085101" lon="11.418988708126648"><ele>503.2</ele><time>2026-04-11T07:10:24Z</time></trkpt><trkpt lat="43.46983498482869" lon="11.41907295325509"><ele>503.6</ele><time>2026-04-11T07:10:26Z</time></trkpt><trkpt lat="43.46976577613092" lon="11.419188990476199"><ele>504.0</ele><time>2026-04-11T07:10:28Z</time></trkpt><trkpt lat="43.46970295259295" lon="11.419312518279499"><ele>504.0</ele><time>2026-04-11T07:10:30Z</time></trkpt><trkpt lat="43.46967982483521" lon="11.41947350401211"><ele>504.0</ele><time>2026-04-11T07:10:32Z</time></trkpt><trkpt lat="43.46969844643253" lon="11.419628898293551"><ele>504.0</ele><time>2026-04-11T07:10:34Z</time></trkpt><trkpt lat="43.469753239640625" lon="11.419791155712497"><ele>504.0</ele><time>2026-04-11T07:10:36Z</time></trkpt><trkpt lat="43.469793070621485" lon="11.419874705307985"><ele>504.0</ele><time>2026-04-11T07:10:37Z</time></trkpt><trkpt lat="43.469839231373285" lon="11.419956400577982"><ele>503.5</ele><time>2026-04-11T07:10:38Z</time></trkpt><trkpt lat="43.469884315783915" lon="11.420048063752958"><ele>503.0</ele><time>2026-04-11T07:10:39Z</time></trkpt><trkpt lat="43.46993048691504" lon="11.420144034657138"><ele>502.5</ele><time>2026-04-11T07:10:40Z</time></trkpt><trkpt lat="43.46997804847098" lon="11.420243778773495"><ele>502.0</ele><time>2026-04-11T07:10:41Z</time></trkpt><trkpt lat="43.47002679203584" lon="11.420346686345871"><ele>501.5</ele><time>2026-04-11T07:10:42Z</time></trkpt><trkpt lat="43.47008045739255" lon="11.420450044057262"><ele>501.0</ele><time>2026-04-11T07:10:43Z</time></trkpt><trkpt lat="43.47013511453777" lon="11.420558554827442"><ele>498.8</ele><time>2026-04-11T07:10:44Z</time></trkpt><trkpt lat="43.470187563660424" lon="11.420671716427245"><ele>496.6</ele><time>2026-04-11T07:10:45Z</time></trkpt><trkpt lat="43.47023910746382" lon="11.420778694269242"><ele>494.4</ele><time>2026-04-11T07:10:46Z</time></trkpt><trkpt lat="43.47028852440921" lon="11.420880241270229"><ele>492.2</ele><time>2026-04-11T07:10:47Z</time></trkpt><trkpt lat="43.47033372671155" lon="11.420983751740417"><ele>490.0</ele><time>2026-04-11T07:10:48Z</time></trkpt><trkpt lat="43.47036170766435" lon="11.42109977021463"><ele>490.00000000000006</ele><time>2026-04-11T07:10:49Z</time></trkpt><trkpt lat="43.47036321528529" lon="11.421225219866669"><ele>490.0</ele><time>2026-04-11T07:10:50Z</time></trkpt><trkpt lat="43.47033796429383" lon="11.421346514300998"><ele>490.0</ele><time>2026-04-11T07:10:51Z</time></trkpt><trkpt lat="43.47026366599231" lon="11.42142578570083"><ele>490.0</ele><time>2026-04-11T07:10:52Z</time></trkpt><trkpt lat="43.47019158013881" lon="11.421490848609162"><ele>490.00000000000006</ele><time>2026-04-11T07:10:53Z</time></trkpt><trkpt lat="43.47012298007099" lon="11.421552550183456"><ele>490.0</ele><time>2026-04-11T07:10:54Z</time></trkpt><trkpt lat="43.47005401683373" lon="11.421620962148468"><ele>490.50000000000006</ele><time>2026-04-11T07:10:55Z</time></trkpt><trkpt lat="43.46997904842809" lon="11.421675426744317"><ele>491.0</ele><time>2026-04-11T07:10:55.999Z</time></trkpt><trkpt lat="43.46990709843952" lon="11.4217328122573"><ele>491.5</ele><time>2026-04-11T07:10:56.999Z</time></trkpt><trkpt lat="43.469825299634564" lon="11.421766221051625"><ele>492.0</ele><time>2026-04-11T07:10:57.999Z</time></trkpt><trkpt lat="43.46974801478748" lon="11.421816071915192"><ele>492.50000000000006</ele><time>2026-04-11T07:10:58.999Z</time></trkpt><trkpt lat="43.4696726975614" lon="11.421866875069426"><ele>493.0</ele><time>2026-04-11T07:10:59.999Z</time></trkpt><trkpt lat="43.469599919744304" lon="11.421919784084611"><ele>492.50000000000006</ele><time>2026-04-11T07:11:00.999Z</time></trkpt><trkpt lat="43.469528376007055" lon="11.42197179582525"><ele>492.0</ele><time>2026-04-11T07:11:01.999Z</time></trkpt><trkpt lat="43.46945677284804" lon="11.422024240714933"><ele>491.5</ele><time>2026-04-11T07:11:02.999Z</time></trkpt><trkpt lat="43.46938946643271" lon="11.422084715986063"><ele>491.0</ele><time>2026-04-11T07:11:03.999Z</time></trkpt><trkpt lat="43.46932144305546" lon="11.422141410212436"><ele>490.50000000000006</ele><time>2026-04-11T07:11:04.999Z</time></trkpt><trkpt lat="43.46925117907238" lon="11.422196732858103"><ele>490.0</ele><time>2026-04-11T07:11:05.999Z</time></trkpt><trkpt lat="43.46917667264516" lon="11.42225431382531"><ele>490.00000000000006</ele><time>2026-04-11T07:11:06.999Z</time></trkpt><trkpt lat="43.469095573104696" lon="11.422304344803957"><ele>490.0</ele><time>2026-04-11T07:11:07.999Z</time></trkpt><trkpt lat="43.46902095394188" lon="11.422359252924286"><ele>490.0</ele><time>2026-04-11T07:11:08.999Z</time></trkpt><trkpt lat="43.46894257926527" lon="11.422414523013165"><ele>490.0</ele><time>2026-04-11T07:11:09.999Z</time></trkpt><trkpt lat="43.46886101742" lon="11.422471392505704"><ele>490.00000000000006</ele><time>2026-04-11T07:11:10.999Z</time></trkpt><trkpt lat="43.46878100580333" lon="11.422534254270785"><ele>490.0</ele><time>2026-04-11T07:11:11.999Z</time></trkpt><trkpt lat="43.46869143054097" lon="11.422578078077915"><ele>487.6666666666667</ele><time>2026-04-11T07:11:12.999Z</time></trkpt><trkpt lat="43.468608730987214" lon="11.422640467128913"><ele>485.33333333333337</ele><time>2026-04-11T07:11:13.999Z</time></trkpt><trkpt lat="43.46852538758125" lon="11.422703342131019"><ele>483.0</ele><time>2026-04-11T07:11:14.999Z</time></trkpt><trkpt lat="43.46844489900541" lon="11.422763482757238"><ele>480.66666666666663</ele><time>2026-04-11T07:11:15.999Z</time></trkpt><trkpt lat="43.46837502470409" lon="11.422815514174108"><ele>478.3333333333333</ele><time>2026-04-11T07:11:16.999Z</time></trkpt><trkpt lat="43.46831569092548" lon="11.422859696810557"><ele>476.0</ele><time>2026-04-11T07:11:17.999Z</time></trkpt><trkpt lat="43.468261966318224" lon="11.422911802287471"><ele>476.75</ele><time>2026-04-11T07:11:18.999Z</time></trkpt><trkpt lat="43.46815425505587" lon="11.422985244905822"><ele>477.5</ele><time>2026-04-11T07:11:20.999Z</time></trkpt><trkpt lat="43.4680524971119" lon="11.423036344854198"><ele>478.25</ele><time>2026-04-11T07:11:22.999Z</time></trkpt><trkpt lat="43.46792741874919" lon="11.423059444852727"><ele>479.0</ele><time>2026-04-11T07:11:24.999Z</time></trkpt><trkpt lat="43.46781165873247" lon="11.423088912215414"><ele>478.99999999999994</ele><time>2026-04-11T07:11:26.999Z</time></trkpt><trkpt lat="43.46774709451453" lon="11.423091017166513"><ele>479.0</ele><time>2026-04-11T07:11:27.999Z</time></trkpt><trkpt lat="43.46764559587846" lon="11.42319127958934"><ele>479.0</ele><time>2026-04-11T07:11:29.999Z</time></trkpt><trkpt lat="43.46765233587088" lon="11.423320458119937"><ele>479.0</ele><time>2026-04-11T07:11:30.999Z</time></trkpt><trkpt lat="43.467660006762856" lon="11.423421051004084"><ele>478.99999999999994</ele><time>2026-04-11T07:11:31.999Z</time></trkpt><trkpt lat="43.467687240964935" lon="11.423520157814801"><ele>479.0</ele><time>2026-04-11T07:11:32.999Z</time></trkpt><trkpt lat="43.46774987099306" lon="11.423598044494746"><ele>479.0</ele><time>2026-04-11T07:11:33.999Z</time></trkpt><trkpt lat="43.467829059097156" lon="11.423655068386973"><ele>479.0</ele><time>2026-04-11T07:11:34.999Z</time></trkpt><trkpt lat="43.467904230926315" lon="11.423743518008147"><ele>479.0</ele><time>2026-04-11T07:11:35.999Z</time></trkpt><trkpt lat="43.46798767029556" lon="11.423817598949494"><ele>479.0</ele><time>2026-04-11T07:11:36.999Z</time></trkpt><trkpt lat="43.46807416038502" lon="11.423894388427762"><ele>479.0</ele><time>2026-04-11T07:11:37.999Z</time></trkpt><trkpt lat="43.46817571674813" lon="11.423958023957864"><ele>477.0</ele><time>2026-04-11T07:11:38.999Z</time></trkpt><trkpt lat="43.46826137897484" lon="11.424042532401325"><ele>475.0</ele><time>2026-04-11T07:11:39.999Z</time></trkpt><trkpt lat="43.46834123607203" lon="11.424114899654178"><ele>473.0</ele><time>2026-04-11T07:11:40.999Z</time></trkpt><trkpt lat="43.46841795008754" lon="11.424185858448578"><ele>471.0</ele><time>2026-04-11T07:11:41.999Z</time></trkpt><trkpt lat="43.46850009054192" lon="11.424277175995345"><ele>469.0</ele><time>2026-04-11T07:11:42.999Z</time></trkpt><trkpt lat="43.468617137678265" lon="11.424300584381497"><ele>469.0</ele><time>2026-04-11T07:11:43.999Z</time></trkpt><trkpt lat="43.46873767828168" lon="11.424318933294094"><ele>469.0</ele><time>2026-04-11T07:11:44.998Z</time></trkpt><trkpt lat="43.46885674972072" lon="11.42435905122346"><ele>469.0</ele><time>2026-04-11T07:11:45.998Z</time></trkpt><trkpt lat="43.468964130936534" lon="11.42437594250534"><ele>469.0</ele><time>2026-04-11T07:11:46.998Z</time></trkpt><trkpt lat="43.46906933935577" lon="11.424392221573955"><ele>468.5</ele><time>2026-04-11T07:11:47.998Z</time></trkpt><trkpt lat="43.4691808966442" lon="11.42441188369786"><ele>468.0</ele><time>2026-04-11T07:11:48.998Z</time></trkpt><trkpt lat="43.46930004456463" lon="11.424437705835556"><ele>467.5</ele><time>2026-04-11T07:11:49.998Z</time></trkpt><trkpt lat="43.46940765252794" lon="11.424471869744494"><ele>467.0</ele><time>2026-04-11T07:11:50.998Z</time></trkpt><trkpt lat="43.46951531850332" lon="11.424512835940883"><ele>465.6</ele><time>2026-04-11T07:11:51.998Z</time></trkpt><trkpt lat="43.46961915836323" lon="11.424563094602952"><ele>464.20000000000005</ele><time>2026-04-11T07:11:52.998Z</time></trkpt><trkpt lat="43.46970328586193" lon="11.424623176514517"><ele>462.8</ele><time>2026-04-11T07:11:53.998Z</time></trkpt><trkpt lat="43.4697596543757" lon="11.424715301503742"><ele>461.4</ele><time>2026-04-11T07:11:54.998Z</time></trkpt><trkpt lat="43.46980183931748" lon="11.424818358668507"><ele>460.0</ele><time>2026-04-11T07:11:55.998Z</time></trkpt><trkpt lat="43.469837789501405" lon="11.424943957747447"><ele>460.0</ele><time>2026-04-11T07:11:56.998Z</time></trkpt><trkpt lat="43.46986089862153" lon="11.425089460357363"><ele>460.0</ele><time>2026-04-11T07:11:57.998Z</time></trkpt><trkpt lat="43.46986678048754" lon="11.425235593919652"><ele>460.0</ele><time>2026-04-11T07:11:58.998Z</time></trkpt><trkpt lat="43.469878505701" lon="11.425373969592377"><ele>460.0</ele><time>2026-04-11T07:11:59.998Z</time></trkpt><trkpt lat="43.46988682058133" lon="11.425498468215055"><ele>460.0</ele><time>2026-04-11T07:12:00.998Z</time></trkpt><trkpt lat="43.469893459874605" lon="11.425635370334588"><ele>457.6</ele><time>2026-04-11T07:12:01.998Z</time></trkpt><trkpt lat="43.46989840413923" lon="11.425778741757837"><ele>455.2</ele><time>2026-04-11T07:12:02.998Z</time></trkpt><trkpt lat="43.46990520745113" lon="11.42592808860301"><ele>452.79999999999995</ele><time>2026-04-11T07:12:03.998Z</time></trkpt><trkpt lat="43.46990856721382" lon="11.426081069907703"><ele>450.4</ele><time>2026-04-11T07:12:04.998Z</time></trkpt><trkpt lat="43.46991099515005" lon="11.426240566483829"><ele>448.0</ele><time>2026-04-11T07:12:05.998Z</time></trkpt><trkpt lat="43.469905460505856" lon="11.426403012732134"><ele>446.0</ele><time>2026-04-11T07:12:06.998Z</time></trkpt><trkpt lat="43.46988576263831" lon="11.426564687448746"><ele>444.0</ele><time>2026-04-11T07:12:07.998Z</time></trkpt><trkpt lat="43.46986361005021" lon="11.426739038505291"><ele>442.0</ele><time>2026-04-11T07:12:08.998Z</time></trkpt><trkpt lat="43.46984111166654" lon="11.426903427789147"><ele>440.0</ele><time>2026-04-11T07:12:09.998Z</time></trkpt><trkpt lat="43.46981475955425" lon="11.427055660528776"><ele>438.0</ele><time>2026-04-11T07:12:10.998Z</time></trkpt><trkpt lat="43.469764546775615" lon="11.427191785814532"><ele>436.0</ele><time>2026-04-11T07:12:11.998Z</time></trkpt><trkpt lat="43.46970812434262" lon="11.427329093031615"><ele>434.0</ele><time>2026-04-11T07:12:12.998Z</time></trkpt><trkpt lat="43.46964010455836" lon="11.427473860822438"><ele>432.0</ele><time>2026-04-11T07:12:13.998Z</time></trkpt><trkpt lat="43.46956059706048" lon="11.427618323553835"><ele>429.5</ele><time>2026-04-11T07:12:14.998Z</time></trkpt><trkpt lat="43.469475309757414" lon="11.427762630434454"><ele>427.0</ele><time>2026-04-11T07:12:16Z</time></trkpt><trkpt lat="43.46938674826364" lon="11.427905179958024"><ele>424.5</ele><time>2026-04-11T07:12:17Z</time></trkpt><trkpt lat="43.46929483307514" lon="11.428052692771915"><ele>422.0</ele><time>2026-04-11T07:12:18Z</time></trkpt><trkpt lat="43.469207640316206" lon="11.428195334868184"><ele>421.75</ele><time>2026-04-11T07:12:19Z</time></trkpt><trkpt lat="43.46913103132589" lon="11.428322577382687"><ele>421.5</ele><time>2026-04-11T07:12:20Z</time></trkpt><trkpt lat="43.46905521693095" lon="11.428448500100535"><ele>421.25</ele><time>2026-04-11T07:12:21Z</time></trkpt><trkpt lat="43.46897418356582" lon="11.428580596692097"><ele>421.0</ele><time>2026-04-11T07:12:22Z</time></trkpt><trkpt lat="43.46888937610162" lon="11.428718752065413"><ele>419.0</ele><time>2026-04-11T07:12:23Z</time></trkpt><trkpt lat="43.46880268209637" lon="11.428857569548773"><ele>417.0</ele><time>2026-04-11T07:12:24Z</time></trkpt><trkpt lat="43.46871329518287" lon="11.428999060879928"><ele>415.0</ele><time>2026-04-11T07:12:25Z</time></trkpt><trkpt lat="43.46862326881513" lon="11.429140271600609"><ele>413.0</ele><time>2026-04-11T07:12:26Z</time></trkpt><trkpt lat="43.468543625043324" lon="11.429263416159408"><ele>412.0</ele><time>2026-04-11T07:12:27Z</time></trkpt><trkpt lat="43.468473845879245" lon="11.429370160439412"><ele>411.0</ele><time>2026-04-11T07:12:28Z</time></trkpt><trkpt lat="43.46840108808804" lon="11.429475531158964"><ele>410.0</ele><time>2026-04-11T07:12:29Z</time></trkpt><trkpt lat="43.46832421036679" lon="11.429565088745692"><ele>409.0</ele><time>2026-04-11T07:12:30Z</time></trkpt><trkpt lat="43.468235169729454" lon="11.429649439850207"><ele>408.0</ele><time>2026-04-11T07:12:31Z</time></trkpt><trkpt lat="43.46812577200741" lon="11.429715251674098"><ele>407.0</ele><time>2026-04-11T07:12:32Z</time></trkpt><trkpt lat="43.46802270511655" lon="11.429782408706687"><ele>406.0</ele><time>2026-04-11T07:12:33Z</time></trkpt><trkpt lat="43.467923225881464" lon="11.4298520586406"><ele>405.0</ele><time>2026-04-11T07:12:34Z</time></trkpt><trkpt lat="43.46783641380304" lon="11.429912839656453"><ele>404.0</ele><time>2026-04-11T07:12:35Z</time></trkpt><trkpt lat="43.46774377253275" lon="11.429977702206381"><ele>403.0</ele><time>2026-04-11T07:12:36Z</time></trkpt><trkpt lat="43.46764852367233" lon="11.430044390386653"><ele>402.0</ele><time>2026-04-11T07:12:37Z</time></trkpt><trkpt lat="43.46755972220573" lon="11.430106448711165"><ele>401.0</ele><time>2026-04-11T07:12:38Z</time></trkpt><trkpt lat="43.46746923926094" lon="11.43016843751129"><ele>400.0</ele><time>2026-04-11T07:12:39Z</time></trkpt><trkpt lat="43.467381542988" lon="11.43025120652825"><ele>399.0</ele><time>2026-04-11T07:12:40Z</time></trkpt><trkpt lat="43.46728746694047" lon="11.430289720442744"><ele>398.0</ele><time>2026-04-11T07:12:41Z</time></trkpt><trkpt lat="43.46720338668909" lon="11.430344669365072"><ele>397.99999999999994</ele><time>2026-04-11T07:12:42Z</time></trkpt><trkpt lat="43.46711838316768" lon="11.430405220882172"><ele>398.0</ele><time>2026-04-11T07:12:43Z</time></trkpt><trkpt lat="43.467029512973696" lon="11.430462829391061"><ele>398.0</ele><time>2026-04-11T07:12:44Z</time></trkpt><trkpt lat="43.466952407628185" lon="11.430511834086873"><ele>398.0</ele><time>2026-04-11T07:12:45Z</time></trkpt><trkpt lat="43.466883129442564" lon="11.430556466796872"><ele>397.99999999999994</ele><time>2026-04-11T07:12:46Z</time></trkpt><trkpt lat="43.466825548166504" lon="11.430594528873458"><ele>398.0</ele><time>2026-04-11T07:12:47Z</time></trkpt><trkpt lat="43.46673694762389" lon="11.430653095450296"><ele>396.0</ele><time>2026-04-11T07:12:49Z</time></trkpt><trkpt lat="43.46664989358789" lon="11.430717291307495"><ele>394.0</ele><time>2026-04-11T07:12:51Z</time></trkpt><trkpt lat="43.46658875076893" lon="11.430803695783808"><ele>392.0</ele><time>2026-04-11T07:12:53Z</time></trkpt><trkpt lat="43.466588064123975" lon="11.43089787232932"><ele>390.0</ele><time>2026-04-11T07:12:54Z</time></trkpt><trkpt lat="43.46665026277045" lon="11.43098113542795"><ele>388.0</ele><time>2026-04-11T07:12:55Z</time></trkpt><trkpt lat="43.466736212844836" lon="11.431120748977271"><ele>388.00000000000006</ele><time>2026-04-11T07:12:57Z</time></trkpt><trkpt lat="43.46678939934353" lon="11.431192378611623"><ele>388.0</ele><time>2026-04-11T07:12:58Z</time></trkpt><trkpt lat="43.46685551196861" lon="11.431249352902302"><ele>388.0</ele><time>2026-04-11T07:12:59Z</time></trkpt><trkpt lat="43.46693651605404" lon="11.431299835765422"><ele>388.0</ele><time>2026-04-11T07:13:00Z</time></trkpt><trkpt lat="43.467033089243664" lon="11.431332261887652"><ele>388.00000000000006</ele><time>2026-04-11T07:13:01Z</time></trkpt><trkpt lat="43.467128549049825" lon="11.431356023414493"><ele>388.0</ele><time>2026-04-11T07:13:01.999Z</time></trkpt><trkpt lat="43.467213711540744" lon="11.431380631766523"><ele>385.59999999999997</ele><time>2026-04-11T07:13:02.999Z</time></trkpt><trkpt lat="43.46730399946639" lon="11.431418062780729"><ele>383.2</ele><time>2026-04-11T07:13:03.999Z</time></trkpt><trkpt lat="43.46738997294143" lon="11.431465112388143"><ele>380.8</ele><time>2026-04-11T07:13:04.999Z</time></trkpt><trkpt lat="43.46747291070237" lon="11.431525582620067"><ele>378.4</ele><time>2026-04-11T07:13:05.999Z</time></trkpt><trkpt lat="43.46755070232303" lon="11.431577185633099"><ele>376.0</ele><time>2026-04-11T07:13:06.999Z</time></trkpt><trkpt lat="43.46762742636852" lon="11.431634177160312"><ele>376.0</ele><time>2026-04-11T07:13:07.999Z</time></trkpt><trkpt lat="43.46770190178588" lon="11.43169630880536"><ele>376.0</ele><time>2026-04-11T07:13:08.999Z</time></trkpt><trkpt lat="43.46777764091217" lon="11.431762441210983"><ele>376.0</ele><time>2026-04-11T07:13:09.999Z</time></trkpt><trkpt lat="43.467843948579066" lon="11.43183560317094"><ele>376.0</ele><time>2026-04-11T07:13:10.999Z</time></trkpt><trkpt lat="43.467903229695594" lon="11.431894707467054"><ele>376.0</ele><time>2026-04-11T07:13:11.999Z</time></trkpt><trkpt lat="43.46794070805271" lon="11.431966032461768"><ele>376.0</ele><time>2026-04-11T07:13:12.999Z</time></trkpt><trkpt lat="43.46802883114762" lon="11.432070541533594"><ele>373.0</ele><time>2026-04-11T07:13:14.999Z</time></trkpt><trkpt lat="43.468106038403434" lon="11.432163424935837"><ele>370.0</ele><time>2026-04-11T07:13:16.999Z</time></trkpt><trkpt lat="43.46818410444837" lon="11.432263409064195"><ele>367.0</ele><time>2026-04-11T07:13:18.999Z</time></trkpt><trkpt lat="43.46826993209256" lon="11.43237198017616"><ele>364.0</ele><time>2026-04-11T07:13:20.999Z</time></trkpt><trkpt lat="43.46836592440611" lon="11.432488581359458"><ele>364.0</ele><time>2026-04-11T07:13:22.999Z</time></trkpt><trkpt lat="43.46841996234987" lon="11.432593635550097"><ele>364.0</ele><time>2026-04-11T07:13:24.999Z</time></trkpt><trkpt lat="43.46848479265958" lon="11.432721545289796"><ele>364.0</ele><time>2026-04-11T07:13:26.999Z</time></trkpt><trkpt lat="43.46850027302389" lon="11.432808513981309"><ele>364.0</ele><time>2026-04-11T07:13:27.999Z</time></trkpt><trkpt lat="43.468526388942514" lon="11.432930389102847"><ele>364.0</ele><time>2026-04-11T07:13:29.999Z</time></trkpt><trkpt lat="43.468525181389424" lon="11.433054569421351"><ele>362.79999999999995</ele><time>2026-04-11T07:13:31.999Z</time></trkpt><trkpt lat="43.46855288881414" lon="11.433149454577485"><ele>361.59999999999997</ele><time>2026-04-11T07:13:33.999Z</time></trkpt><trkpt lat="43.46846868504323" lon="11.433228799807605"><ele>360.4</ele><time>2026-04-11T07:13:35.999Z</time></trkpt><trkpt lat="43.46836763731017" lon="11.433308537472017"><ele>359.2</ele><time>2026-04-11T07:13:37.999Z</time></trkpt><trkpt lat="43.46825158339094" lon="11.433366150681904"><ele>358.0</ele><time>2026-04-11T07:13:39.999Z</time></trkpt><trkpt lat="43.46814105492345" lon="11.43345620186668"><ele>358.00000000000006</ele><time>2026-04-11T07:13:41.999Z</time></trkpt><trkpt lat="43.46808538769307" lon="11.43350868321188"><ele>358.0</ele><time>2026-04-11T07:13:42.999Z</time></trkpt><trkpt lat="43.46803001980755" lon="11.433565324925087"><ele>358.0</ele><time>2026-04-11T07:13:43.999Z</time></trkpt><trkpt lat="43.46797687560691" lon="11.43362435496192"><ele>358.0</ele><time>2026-04-11T07:13:44.999Z</time></trkpt><trkpt lat="43.46792163094218" lon="11.433685632932232"><ele>358.0</ele><time>2026-04-11T07:13:45.999Z</time></trkpt><trkpt lat="43.46786639212313" lon="11.433746562434598"><ele>358.00000000000006</ele><time>2026-04-11T07:13:46.999Z</time></trkpt><trkpt lat="43.46780842485189" lon="11.433806060968742"><ele>358.0</ele><time>2026-04-11T07:13:47.999Z</time></trkpt><trkpt lat="43.467750759301616" lon="11.433869289870263"><ele>357.3333333333333</ele><time>2026-04-11T07:13:48.999Z</time></trkpt><trkpt lat="43.46768143523589" lon="11.433912597933878"><ele>356.66666666666663</ele><time>2026-04-11T07:13:49.999Z</time></trkpt><trkpt lat="43.467619872324555" lon="11.43397419853035"><ele>356.0</ele><time>2026-04-11T07:13:50.999Z</time></trkpt><trkpt lat="43.467566149399545" lon="11.434052542937984"><ele>355.3333333333333</ele><time>2026-04-11T07:13:51.998Z</time></trkpt><trkpt lat="43.46749753482567" lon="11.434106529130075"><ele>354.6666666666667</ele><time>2026-04-11T07:13:52.998Z</time></trkpt><trkpt lat="43.467427007720964" lon="11.434153222441223"><ele>354.0</ele><time>2026-04-11T07:13:53.998Z</time></trkpt><trkpt lat="43.46735093301965" lon="11.434190827687749"><ele>354.0</ele><time>2026-04-11T07:13:54.998Z</time></trkpt><trkpt lat="43.467270410482165" lon="11.434221717287013"><ele>354.0</ele><time>2026-04-11T07:13:55.998Z</time></trkpt><trkpt lat="43.46719025680695" lon="11.434247475237523"><ele>354.0</ele><time>2026-04-11T07:13:56.998Z</time></trkpt><trkpt lat="43.46710786737109" lon="11.43427037921366"><ele>354.0</ele><time>2026-04-11T07:13:57.998Z</time></trkpt><trkpt lat="43.467024619212964" lon="11.434284748661591"><ele>354.0</ele><time>2026-04-11T07:13:58.998Z</time></trkpt><trkpt lat="43.46694038644708" lon="11.43430722780878"><ele>354.0</ele><time>2026-04-11T07:13:59.998Z</time></trkpt><trkpt lat="43.466855278930126" lon="11.43432343843293"><ele>353.5</ele><time>2026-04-11T07:14:00.998Z</time></trkpt><trkpt lat="43.466770459565524" lon="11.434339609054641"><ele>353.0</ele><time>2026-04-11T07:14:01.998Z</time></trkpt><trkpt lat="43.46668569469849" lon="11.434343755575345"><ele>352.5</ele><time>2026-04-11T07:14:02.998Z</time></trkpt><trkpt lat="43.466601525785414" lon="11.434342872779219"><ele>352.0</ele><time>2026-04-11T07:14:03.998Z</time></trkpt><trkpt lat="43.46651877081552" lon="11.434339495527766"><ele>351.5</ele><time>2026-04-11T07:14:04.998Z</time></trkpt><trkpt lat="43.466435205999176" lon="11.434332987840335"><ele>351.0</ele><time>2026-04-11T07:14:05.998Z</time></trkpt><trkpt lat="43.46635196244509" lon="11.434329107625048"><ele>350.5</ele><time>2026-04-11T07:14:06.998Z</time></trkpt><trkpt lat="43.46627031754557" lon="11.43432705517976"><ele>350.0</ele><time>2026-04-11T07:14:07.998Z</time></trkpt><trkpt lat="43.46618769672279" lon="11.43431008963073"><ele>349.5</ele><time>2026-04-11T07:14:08.998Z</time></trkpt><trkpt lat="43.46610779690547" lon="11.434288461599214"><ele>349.0</ele><time>2026-04-11T07:14:09.998Z</time></trkpt><trkpt lat="43.466028073867164" lon="11.434263022002721"><ele>348.5</ele><time>2026-04-11T07:14:10.998Z</time></trkpt><trkpt lat="43.46595066246566" lon="11.434234945890113"><ele>348.0</ele><time>2026-04-11T07:14:11.998Z</time></trkpt><trkpt lat="43.46587079937411" lon="11.434203496359412"><ele>348.0</ele><time>2026-04-11T07:14:12.998Z</time></trkpt><trkpt lat="43.46579252631355" lon="11.434176666685916"><ele>348.0</ele><time>2026-04-11T07:14:13.998Z</time></trkpt><trkpt lat="43.465715027062636" lon="11.434141747718629"><ele>348.0</ele><time>2026-04-11T07:14:14.998Z</time></trkpt><trkpt lat="43.46563941960148" lon="11.43409410542396"><ele>348.0</ele><time>2026-04-11T07:14:15.998Z</time></trkpt><trkpt lat="43.46557010060252" lon="11.434037069249786"><ele>348.0</ele><time>2026-04-11T07:14:16.998Z</time></trkpt><trkpt lat="43.46550708559621" lon="11.43396354806488"><ele>348.0</ele><time>2026-04-11T07:14:17.998Z</time></trkpt><trkpt lat="43.4654511879377" lon="11.43387905077775"><ele>348.0</ele><time>2026-04-11T07:14:18.998Z</time></trkpt><trkpt lat="43.46539690044116" lon="11.433793580008585"><ele>348.0</ele><time>2026-04-11T07:14:19.998Z</time></trkpt><trkpt lat="43.46533917474735" lon="11.43371377132267"><ele>348.0</ele><time>2026-04-11T07:14:20.998Z</time></trkpt><trkpt lat="43.465283535578834" lon="11.43363310135189"><ele>348.0</ele><time>2026-04-11T07:14:22Z</time></trkpt><trkpt lat="43.46522757358479" lon="11.433552447896549"><ele>348.0</ele><time>2026-04-11T07:14:23Z</time></trkpt><trkpt lat="43.46517476706471" lon="11.433469871083092"><ele>348.0</ele><time>2026-04-11T07:14:24Z</time></trkpt><trkpt lat="43.4651219502566" lon="11.43338951546646"><ele>348.0</ele><time>2026-04-11T07:14:25Z</time></trkpt><trkpt lat="43.465063070722614" lon="11.433318000234614"><ele>348.0</ele><time>2026-04-11T07:14:26Z</time></trkpt><trkpt lat="43.46499696359955" lon="11.433258924418437"><ele>348.0</ele><time>2026-04-11T07:14:27Z</time></trkpt><trkpt lat="43.46492703471107" lon="11.433206440442733"><ele>348.0</ele><time>2026-04-11T07:14:28Z</time></trkpt><trkpt lat="43.46486270697597" lon="11.43315815593536"><ele>348.0</ele><time>2026-04-11T07:14:29Z</time></trkpt><trkpt lat="43.46478660707927" lon="11.433103982213213"><ele>348.0</ele><time>2026-04-11T07:14:30Z</time></trkpt><trkpt lat="43.464716492880804" lon="11.433051691889592"><ele>348.0</ele><time>2026-04-11T07:14:31Z</time></trkpt><trkpt lat="43.464644851204724" lon="11.433001772103188"><ele>348.0</ele><time>2026-04-11T07:14:32Z</time></trkpt><trkpt lat="43.464575669073646" lon="11.432945648929177"><ele>348.0</ele><time>2026-04-11T07:14:33Z</time></trkpt><trkpt lat="43.46451053703452" lon="11.432881325316105"><ele>348.0</ele><time>2026-04-11T07:14:34Z</time></trkpt><trkpt lat="43.464448025217905" lon="11.432810936586682"><ele>348.0</ele><time>2026-04-11T07:14:35Z</time></trkpt><trkpt lat="43.464388859227775" lon="11.432735675606635"><ele>348.0</ele><time>2026-04-11T07:14:36Z</time></trkpt><trkpt lat="43.464333709574476" lon="11.432654051943954"><ele>348.1666666666667</ele><time>2026-04-11T07:14:37Z</time></trkpt><trkpt lat="43.464281117322216" lon="11.432570683159529"><ele>348.3333333333333</ele><time>2026-04-11T07:14:38Z</time></trkpt><trkpt lat="43.46423057853745" lon="11.43248027539063"><ele>348.5</ele><time>2026-04-11T07:14:39Z</time></trkpt><trkpt lat="43.464187282440335" lon="11.432384773680129"><ele>348.66666666666663</ele><time>2026-04-11T07:14:40Z</time></trkpt><trkpt lat="43.46414797903245" lon="11.432284673580023"><ele>348.8333333333333</ele><time>2026-04-11T07:14:41Z</time></trkpt><trkpt lat="43.46410890771992" lon="11.432182236100843"><ele>349.0</ele><time>2026-04-11T07:14:42Z</time></trkpt><trkpt lat="43.464069860468086" lon="11.43208036657162"><ele>350.0</ele><time>2026-04-11T07:14:43Z</time></trkpt><trkpt lat="43.464031777109525" lon="11.431977231765321"><ele>351.0</ele><time>2026-04-11T07:14:44Z</time></trkpt><trkpt lat="43.46399424368344" lon="11.431876206638204"><ele>352.0</ele><time>2026-04-11T07:14:45Z</time></trkpt><trkpt lat="43.463955711836974" lon="11.431774133226508"><ele>353.0</ele><time>2026-04-11T07:14:46Z</time></trkpt><trkpt lat="43.46391636272185" lon="11.43167687576028"><ele>354.0</ele><time>2026-04-11T07:14:47Z</time></trkpt><trkpt lat="43.4638783882955" lon="11.431581461494547"><ele>355.0</ele><time>2026-04-11T07:14:48Z</time></trkpt><trkpt lat="43.463841157119575" lon="11.431482513425662"><ele>355.0</ele><time>2026-04-11T07:14:49Z</time></trkpt><trkpt lat="43.463805450222765" lon="11.431384429141243"><ele>355.0</ele><time>2026-04-11T07:14:50Z</time></trkpt><trkpt lat="43.46376855933869" lon="11.43128570980131"><ele>355.0</ele><time>2026-04-11T07:14:51Z</time></trkpt><trkpt lat="43.46372860783276" lon="11.431197003068037"><ele>355.0</ele><time>2026-04-11T07:14:52Z</time></trkpt><trkpt lat="43.46368727104455" lon="11.43110500867699"><ele>355.0</ele><time>2026-04-11T07:14:53Z</time></trkpt><trkpt lat="43.463646051280094" lon="11.431016090158565"><ele>355.0</ele><time>2026-04-11T07:14:54Z</time></trkpt><trkpt lat="43.46360147339427" lon="11.430930125224467"><ele>354.66666666666663</ele><time>2026-04-11T07:14:55Z</time></trkpt><trkpt lat="43.46355474575711" lon="11.430843254418427"><ele>354.3333333333333</ele><time>2026-04-11T07:14:56Z</time></trkpt><trkpt lat="43.463503977245125" lon="11.430764211502309"><ele>354.0</ele><time>2026-04-11T07:14:57Z</time></trkpt><trkpt lat="43.46345349518771" lon="11.430686063477918"><ele>353.6666666666667</ele><time>2026-04-11T07:14:58Z</time></trkpt><trkpt lat="43.46340039665153" lon="11.430607849834878"><ele>353.33333333333337</ele><time>2026-04-11T07:14:59Z</time></trkpt><trkpt lat="43.4633501104146" lon="11.430529511360078"><ele>353.0</ele><time>2026-04-11T07:15:00Z</time></trkpt><trkpt lat="43.46329896579927" lon="11.430451518125794"><ele>353.0</ele><time>2026-04-11T07:15:01Z</time></trkpt><trkpt lat="43.46324943854069" lon="11.430371842316545"><ele>353.0</ele><time>2026-04-11T07:15:02Z</time></trkpt><trkpt lat="43.46319847706034" lon="11.430291783997347"><ele>353.0</ele><time>2026-04-11T07:15:03Z</time></trkpt><trkpt lat="43.46315271230779" lon="11.430204879051697"><ele>353.0</ele><time>2026-04-11T07:15:04Z</time></trkpt><trkpt lat="43.46310981446109" lon="11.430114365333115"><ele>353.0</ele><time>2026-04-11T07:15:05Z</time></trkpt><trkpt lat="43.463063535906024" lon="11.430028171025862"><ele>353.0</ele><time>2026-04-11T07:15:06Z</time></trkpt><trkpt lat="43.46301691727391" lon="11.429942357797483"><ele>353.0</ele><time>2026-04-11T07:15:07Z</time></trkpt><trkpt lat="43.46296712982899" lon="11.429855828396695"><ele>353.0</ele><time>2026-04-11T07:15:08Z</time></trkpt><trkpt lat="43.46291434124812" lon="11.42977503129805"><ele>353.0</ele><time>2026-04-11T07:15:09Z</time></trkpt><trkpt lat="43.46285856874395" lon="11.429699474250665"><ele>353.0</ele><time>2026-04-11T07:15:09.999Z</time></trkpt><trkpt lat="43.46280021015111" lon="11.429625102647426"><ele>353.0</ele><time>2026-04-11T07:15:10.999Z</time></trkpt><trkpt lat="43.46274331889206" lon="11.429548442178861"><ele>353.0</ele><time>2026-04-11T07:15:11.999Z</time></trkpt><trkpt lat="43.462682057574355" lon="11.429471418852751"><ele>351.83333333333337</ele><time>2026-04-11T07:15:12.999Z</time></trkpt><trkpt lat="43.46262140071434" lon="11.429398234643157"><ele>350.6666666666667</ele><time>2026-04-11T07:15:13.999Z</time></trkpt><trkpt lat="43.46256069431556" lon="11.429321493672274"><ele>349.5</ele><time>2026-04-11T07:15:14.999Z</time></trkpt><trkpt lat="43.462499247789964" lon="11.429245746466044"><ele>348.3333333333333</ele><time>2026-04-11T07:15:15.999Z</time></trkpt><trkpt lat="43.46243785169368" lon="11.42916745013944"><ele>347.16666666666663</ele><time>2026-04-11T07:15:16.999Z</time></trkpt><trkpt lat="43.46237863733156" lon="11.429090231889752"><ele>346.0</ele><time>2026-04-11T07:15:17.999Z</time></trkpt><trkpt lat="43.46231585669593" lon="11.429013587460327"><ele>346.0</ele><time>2026-04-11T07:15:18.999Z</time></trkpt><trkpt lat="43.46225499940637" lon="11.428937059033577"><ele>346.0</ele><time>2026-04-11T07:15:19.999Z</time></trkpt><trkpt lat="43.4621947749906" lon="11.428859537682214"><ele>346.0</ele><time>2026-04-11T07:15:20.999Z</time></trkpt><trkpt lat="43.462134059453746" lon="11.42878203652938"><ele>346.0</ele><time>2026-04-11T07:15:21.999Z</time></trkpt><trkpt lat="43.462073268678566" lon="11.428704048981976"><ele>346.0</ele><time>2026-04-11T07:15:22.999Z</time></trkpt><trkpt lat="43.46201049998322" lon="11.42862878038114"><ele>346.0</ele><time>2026-04-11T07:15:23.999Z</time></trkpt><trkpt lat="43.46194657212392" lon="11.428555428981403"><ele>345.3333333333333</ele><time>2026-04-11T07:15:24.999Z</time></trkpt><trkpt lat="43.46188406559472" lon="11.428481525373428"><ele>344.66666666666663</ele><time>2026-04-11T07:15:25.999Z</time></trkpt><trkpt lat="43.461819184813415" lon="11.428407762519972"><ele>344.0</ele><time>2026-04-11T07:15:26.999Z</time></trkpt><trkpt lat="43.46175288435685" lon="11.428336867229572"><ele>343.3333333333333</ele><time>2026-04-11T07:15:27.999Z</time></trkpt><trkpt lat="43.461687620646266" lon="11.428267300331362"><ele>342.6666666666667</ele><time>2026-04-11T07:15:28.999Z</time></trkpt><trkpt lat="43.46162099962666" lon="11.428199643065089"><ele>342.0</ele><time>2026-04-11T07:15:29.999Z</time></trkpt><trkpt lat="43.46155638546147" lon="11.428129087166425"><ele>342.0</ele><time>2026-04-11T07:15:30.999Z</time></trkpt><trkpt lat="43.46149161287571" lon="11.428056353992684"><ele>342.0</ele><time>2026-04-11T07:15:31.999Z</time></trkpt><trkpt lat="43.461425993660235" lon="11.427988896582416"><ele>342.0</ele><time>2026-04-11T07:15:32.999Z</time></trkpt><trkpt lat="43.46135711393045" lon="11.42792330942616"><ele>342.0</ele><time>2026-04-11T07:15:33.999Z</time></trkpt><trkpt lat="43.46128989420612" lon="11.4278557135178"><ele>342.0</ele><time>2026-04-11T07:15:34.999Z</time></trkpt><trkpt lat="43.46122486964777" lon="11.427785347872076"><ele>342.0</ele><time>2026-04-11T07:15:35.999Z</time></trkpt><trkpt lat="43.461160305196636" lon="11.42771454899387"><ele>341.6666666666667</ele><time>2026-04-11T07:15:36.999Z</time></trkpt><trkpt lat="43.461096114754874" lon="11.427643279310669"><ele>341.3333333333333</ele><time>2026-04-11T07:15:37.999Z</time></trkpt><trkpt lat="43.46103041544632" lon="11.427572768496976"><ele>341.0</ele><time>2026-04-11T07:15:38.999Z</time></trkpt><trkpt lat="43.46096263684552" lon="11.427502392815173"><ele>340.66666666666663</ele><time>2026-04-11T07:15:39.999Z</time></trkpt><trkpt lat="43.46089572251411" lon="11.427431461775399"><ele>340.3333333333333</ele><time>2026-04-11T07:15:40.999Z</time></trkpt><trkpt lat="43.46083094628586" lon="11.427361232724028"><ele>340.0</ele><time>2026-04-11T07:15:41.999Z</time></trkpt><trkpt lat="43.460762756473216" lon="11.427294981203534"><ele>340.0</ele><time>2026-04-11T07:15:42.999Z</time></trkpt><trkpt lat="43.46069223651901" lon="11.427233429005755"><ele>340.0</ele><time>2026-04-11T07:15:43.999Z</time></trkpt><trkpt lat="43.460618162376036" lon="11.427178643715068"><ele>340.0</ele><time>2026-04-11T07:15:44.999Z</time></trkpt><trkpt lat="43.460541976673674" lon="11.427132608463356"><ele>340.0</ele><time>2026-04-11T07:15:45.999Z</time></trkpt><trkpt lat="43.460464304149745" lon="11.427093974089571"><ele>340.0</ele><time>2026-04-11T07:15:46.999Z</time></trkpt><trkpt lat="43.46038533639649" lon="11.427057966126737"><ele>340.0</ele><time>2026-04-11T07:15:47.999Z</time></trkpt><trkpt lat="43.460305315141724" lon="11.427020656521284"><ele>340.5</ele><time>2026-04-11T07:15:48.999Z</time></trkpt><trkpt lat="43.46022530087242" lon="11.426983756444178"><ele>341.0</ele><time>2026-04-11T07:15:49.999Z</time></trkpt><trkpt lat="43.46014414880161" lon="11.426947634613526"><ele>341.5</ele><time>2026-04-11T07:15:50.999Z</time></trkpt><trkpt lat="43.46006174813149" lon="11.426911075483378"><ele>342.0</ele><time>2026-04-11T07:15:51.999Z</time></trkpt><trkpt lat="43.459980767278076" lon="11.42687686908748"><ele>342.5</ele><time>2026-04-11T07:15:52.999Z</time></trkpt><trkpt lat="43.45989926581272" lon="11.42684231190357"><ele>343.0</ele><time>2026-04-11T07:15:53.999Z</time></trkpt><trkpt lat="43.45981778595253" lon="11.426808390789088"><ele>343.0</ele><time>2026-04-11T07:15:54.999Z</time></trkpt><trkpt lat="43.459734731863286" lon="11.426771626112403"><ele>343.0</ele><time>2026-04-11T07:15:55.999Z</time></trkpt><trkpt lat="43.45965516194627" lon="11.426733156186728"><ele>343.0</ele><time>2026-04-11T07:15:56.999Z</time></trkpt><trkpt lat="43.45957508979263" lon="11.426696361287146"><ele>343.0</ele><time>2026-04-11T07:15:57.999Z</time></trkpt><trkpt lat="43.45949427458188" lon="11.426662148932731"><ele>343.0</ele><time>2026-04-11T07:15:58.999Z</time></trkpt><trkpt lat="43.45941389854753" lon="11.42662635806663"><ele>343.0</ele><time>2026-04-11T07:15:59.998Z</time></trkpt><trkpt lat="43.459332859506866" lon="11.426591278804752"><ele>342.3333333333333</ele><time>2026-04-11T07:16:00.998Z</time></trkpt><trkpt lat="43.45925390736664" lon="11.426558158981472"><ele>341.66666666666663</ele><time>2026-04-11T07:16:01.998Z</time></trkpt><trkpt lat="43.459176388592226" lon="11.426524443873152"><ele>341.0</ele><time>2026-04-11T07:16:02.998Z</time></trkpt><trkpt lat="43.459099042093264" lon="11.426491471469362"><ele>340.3333333333333</ele><time>2026-04-11T07:16:03.998Z</time></trkpt><trkpt lat="43.459022268807956" lon="11.426455922542313"><ele>339.6666666666667</ele><time>2026-04-11T07:16:04.998Z</time></trkpt><trkpt lat="43.4589474191826" lon="11.4264188929743"><ele>339.0</ele><time>2026-04-11T07:16:05.998Z</time></trkpt><trkpt lat="43.45886998557897" lon="11.426384392316365"><ele>339.0</ele><time>2026-04-11T07:16:06.998Z</time></trkpt><trkpt lat="43.45879239183631" lon="11.426351138003957"><ele>339.0</ele><time>2026-04-11T07:16:07.998Z</time></trkpt><trkpt lat="43.45871581332989" lon="11.426315620021452"><ele>339.0</ele><time>2026-04-11T07:16:08.998Z</time></trkpt><trkpt lat="43.45863777455221" lon="11.426278478264624"><ele>339.0</ele><time>2026-04-11T07:16:09.998Z</time></trkpt><trkpt lat="43.45856101028546" lon="11.426242692734682"><ele>339.0</ele><time>2026-04-11T07:16:10.998Z</time></trkpt><trkpt lat="43.45848315450062" lon="11.42620985016572"><ele>339.0</ele><time>2026-04-11T07:16:11.998Z</time></trkpt><trkpt lat="43.45840625971298" lon="11.42617790326279"><ele>338.5</ele><time>2026-04-11T07:16:12.998Z</time></trkpt><trkpt lat="43.45833072627064" lon="11.426144973519694"><ele>338.0</ele><time>2026-04-11T07:16:13.998Z</time></trkpt><trkpt lat="43.45825536884242" lon="11.42611217605783"><ele>337.5</ele><time>2026-04-11T07:16:14.998Z</time></trkpt><trkpt lat="43.4581806827454" lon="11.426081037718053"><ele>337.0</ele><time>2026-04-11T07:16:15.998Z</time></trkpt><trkpt lat="43.458106395413786" lon="11.426048221877025"><ele>336.5</ele><time>2026-04-11T07:16:16.998Z</time></trkpt><trkpt lat="43.45803142625753" lon="11.426015978150357"><ele>336.0</ele><time>2026-04-11T07:16:17.998Z</time></trkpt><trkpt lat="43.45795734352703" lon="11.425983054634841"><ele>336.0</ele><time>2026-04-11T07:16:18.998Z</time></trkpt><trkpt lat="43.45788472956716" lon="11.425949591824757"><ele>336.0</ele><time>2026-04-11T07:16:19.998Z</time></trkpt><trkpt lat="43.45780964405549" lon="11.425915498717702"><ele>336.0</ele><time>2026-04-11T07:16:20.998Z</time></trkpt><trkpt lat="43.45773514497512" lon="11.425880124646053"><ele>336.0</ele><time>2026-04-11T07:16:21.998Z</time></trkpt><trkpt lat="43.45766026762978" lon="11.425845564337937"><ele>336.0</ele><time>2026-04-11T07:16:22.998Z</time></trkpt><trkpt lat="43.457586859612356" lon="11.425811898473418"><ele>336.0</ele><time>2026-04-11T07:16:23.998Z</time></trkpt><trkpt lat="43.45751483261306" lon="11.425779819022486"><ele>336.0</ele><time>2026-04-11T07:16:24.998Z</time></trkpt><trkpt lat="43.45744292905671" lon="11.42575063605433"><ele>336.0</ele><time>2026-04-11T07:16:25.998Z</time></trkpt><trkpt lat="43.457373189547724" lon="11.425720287526927"><ele>336.0</ele><time>2026-04-11T07:16:27Z</time></trkpt><trkpt lat="43.457301703973975" lon="11.425686166591952"><ele>336.0</ele><time>2026-04-11T07:16:28Z</time></trkpt><trkpt lat="43.45723249279375" lon="11.425657923683682"><ele>336.0</ele><time>2026-04-11T07:16:29Z</time></trkpt><trkpt lat="43.45716226673969" lon="11.425631992827165"><ele>336.0</ele><time>2026-04-11T07:16:30Z</time></trkpt><trkpt lat="43.45709535622297" lon="11.425607858889538"><ele>336.0</ele><time>2026-04-11T07:16:31Z</time></trkpt><trkpt lat="43.45702750388174" lon="11.425589990954435"><ele>336.85714285714283</ele><time>2026-04-11T07:16:32Z</time></trkpt><trkpt lat="43.45695851184932" lon="11.42557088348034"><ele>337.7142857142857</ele><time>2026-04-11T07:16:33Z</time></trkpt><trkpt lat="43.456890335152906" lon="11.425556750262036"><ele>338.57142857142856</ele><time>2026-04-11T07:16:34Z</time></trkpt><trkpt lat="43.45682201787222" lon="11.425549625052497"><ele>339.42857142857144</ele><time>2026-04-11T07:16:35Z</time></trkpt><trkpt lat="43.45675569716002" lon="11.425538212843977"><ele>340.2857142857143</ele><time>2026-04-11T07:16:36Z</time></trkpt><trkpt lat="43.45668882466841" lon="11.42552735871084"><ele>341.1428571428571</ele><time>2026-04-11T07:16:37Z</time></trkpt><trkpt lat="43.456622903321076" lon="11.425517099341002"><ele>342.0</ele><time>2026-04-11T07:16:38Z</time></trkpt><trkpt lat="43.45655808665608" lon="11.425508840375471"><ele>341.99999999999994</ele><time>2026-04-11T07:16:39Z</time></trkpt><trkpt lat="43.4564948068745" lon="11.425505365877578"><ele>342.0</ele><time>2026-04-11T07:16:40Z</time></trkpt><trkpt lat="43.45642890090754" lon="11.425505957770001"><ele>342.0</ele><time>2026-04-11T07:16:41Z</time></trkpt><trkpt lat="43.45636370397931" lon="11.42549287700642"><ele>342.0</ele><time>2026-04-11T07:16:42Z</time></trkpt><trkpt lat="43.45630127027466" lon="11.425471279381457"><ele>342.0</ele><time>2026-04-11T07:16:43Z</time></trkpt><trkpt lat="43.45624222143187" lon="11.425437147069767"><ele>341.99999999999994</ele><time>2026-04-11T07:16:44Z</time></trkpt><trkpt lat="43.456184641989765" lon="11.425395277207627"><ele>342.0</ele><time>2026-04-11T07:16:45Z</time></trkpt><trkpt lat="43.45612880613257" lon="11.425350966866338"><ele>341.2857142857143</ele><time>2026-04-11T07:16:46Z</time></trkpt><trkpt lat="43.45607376672086" lon="11.42530112713939"><ele>340.57142857142856</ele><time>2026-04-11T07:16:47Z</time></trkpt><trkpt lat="43.456019348448855" lon="11.425246397798636"><ele>339.8571428571429</ele><time>2026-04-11T07:16:48Z</time></trkpt><trkpt lat="43.45596679425025" lon="11.425184202603067"><ele>339.1428571428571</ele><time>2026-04-11T07:16:49Z</time></trkpt><trkpt lat="43.45590860546393" lon="11.425124992332556"><ele>338.42857142857144</ele><time>2026-04-11T07:16:50Z</time></trkpt><trkpt lat="43.45585064938592" lon="11.42506033514665"><ele>337.7142857142857</ele><time>2026-04-11T07:16:51Z</time></trkpt><trkpt lat="43.45578976090591" lon="11.424990195217656"><ele>337.0</ele><time>2026-04-11T07:16:52Z</time></trkpt><trkpt lat="43.455727743503616" lon="11.42492316116332"><ele>337.0</ele><time>2026-04-11T07:16:53Z</time></trkpt><trkpt lat="43.45566264643803" lon="11.424854787399006"><ele>337.0</ele><time>2026-04-11T07:16:54Z</time></trkpt><trkpt lat="43.45559635180324" lon="11.42478546618682"><ele>337.0</ele><time>2026-04-11T07:16:55Z</time></trkpt><trkpt lat="43.455530775543856" lon="11.424715081637615"><ele>337.0</ele><time>2026-04-11T07:16:56Z</time></trkpt><trkpt lat="43.455462914624725" lon="11.424645951694142"><ele>337.0</ele><time>2026-04-11T07:16:57Z</time></trkpt><trkpt lat="43.455395253111696" lon="11.424576528881037"><ele>337.0</ele><time>2026-04-11T07:16:58Z</time></trkpt><trkpt lat="43.45532785474085" lon="11.42450529707729"><ele>336.3333333333333</ele><time>2026-04-11T07:16:59Z</time></trkpt><trkpt lat="43.45526024949487" lon="11.424434745005962"><ele>335.66666666666663</ele><time>2026-04-11T07:17:00Z</time></trkpt><trkpt lat="43.455192847868204" lon="11.424366852087843"><ele>335.0</ele><time>2026-04-11T07:17:01Z</time></trkpt><trkpt lat="43.45512628630251" lon="11.42429703188424"><ele>334.3333333333333</ele><time>2026-04-11T07:17:02Z</time></trkpt><trkpt lat="43.455059616595584" lon="11.424226486871099"><ele>333.6666666666667</ele><time>2026-04-11T07:17:03Z</time></trkpt><trkpt lat="43.454996057524895" lon="11.424154023904956"><ele>333.0</ele><time>2026-04-11T07:17:04Z</time></trkpt><trkpt lat="43.45492841743916" lon="11.42408691665792"><ele>333.0</ele><time>2026-04-11T07:17:05Z</time></trkpt><trkpt lat="43.45486061271766" lon="11.42402062406885"><ele>333.0</ele><time>2026-04-11T07:17:06Z</time></trkpt><trkpt lat="43.4547942578231" lon="11.42395658531156"><ele>333.0</ele><time>2026-04-11T07:17:07Z</time></trkpt><trkpt lat="43.45472875594479" lon="11.423891104396503"><ele>333.0</ele><time>2026-04-11T07:17:08Z</time></trkpt><trkpt lat="43.45466336481105" lon="11.423826572287481"><ele>333.0</ele><time>2026-04-11T07:17:09Z</time></trkpt><trkpt lat="43.45459714506343" lon="11.42376371023061"><ele>333.0</ele><time>2026-04-11T07:17:10Z</time></trkpt><trkpt lat="43.454530852365096" lon="11.423698093322518"><ele>332.6666666666667</ele><time>2026-04-11T07:17:11Z</time></trkpt><trkpt lat="43.45446706723192" lon="11.423629717514032"><ele>332.3333333333333</ele><time>2026-04-11T07:17:12Z</time></trkpt><trkpt lat="43.45440438882425" lon="11.423552685619141"><ele>332.0</ele><time>2026-04-11T07:17:13Z</time></trkpt><trkpt lat="43.45434276491359" lon="11.42347022426162"><ele>331.66666666666663</ele><time>2026-04-11T07:17:14Z</time></trkpt><trkpt lat="43.454283866022166" lon="11.42337742515489"><ele>331.3333333333333</ele><time>2026-04-11T07:17:15Z</time></trkpt><trkpt lat="43.45422455974402" lon="11.423279293677023"><ele>331.0</ele><time>2026-04-11T07:17:15.999Z</time></trkpt><trkpt lat="43.45416310462683" lon="11.423180230016001"><ele>331.0</ele><time>2026-04-11T07:17:16.999Z</time></trkpt><trkpt lat="43.45409864477613" lon="11.423082555748794"><ele>331.0</ele><time>2026-04-11T07:17:17.999Z</time></trkpt><trkpt lat="43.454035444006955" lon="11.42298244074619"><ele>331.0</ele><time>2026-04-11T07:17:18.999Z</time></trkpt><trkpt lat="43.453972174742226" lon="11.422886445886984"><ele>331.0</ele><time>2026-04-11T07:17:19.999Z</time></trkpt><trkpt lat="43.453910420515314" lon="11.422789856191466"><ele>331.0</ele><time>2026-04-11T07:17:20.999Z</time></trkpt><trkpt lat="43.45384674897457" lon="11.422694968054804"><ele>330.0</ele><time>2026-04-11T07:17:21.999Z</time></trkpt><trkpt lat="43.45378696825621" lon="11.422600032271813"><ele>329.0</ele><time>2026-04-11T07:17:22.999Z</time></trkpt><trkpt lat="43.45372438414339" lon="11.422509797885269"><ele>328.0</ele><time>2026-04-11T07:17:23.999Z</time></trkpt><trkpt lat="43.453663044851226" lon="11.422422896407419"><ele>327.0</ele><time>2026-04-11T07:17:24.999Z</time></trkpt><trkpt lat="43.453608153475955" lon="11.422332839821193"><ele>326.0</ele><time>2026-04-11T07:17:25.999Z</time></trkpt><trkpt lat="43.45355313371289" lon="11.422246616605921"><ele>325.0</ele><time>2026-04-11T07:17:26.999Z</time></trkpt><trkpt lat="43.4534960092261" lon="11.422159043649366"><ele>326.16666666666663</ele><time>2026-04-11T07:17:27.999Z</time></trkpt><trkpt lat="43.45344128591487" lon="11.422073485799746"><ele>327.3333333333333</ele><time>2026-04-11T07:17:28.999Z</time></trkpt><trkpt lat="43.45338265174375" lon="11.421993242264634"><ele>328.5</ele><time>2026-04-11T07:17:29.999Z</time></trkpt><trkpt lat="43.45332894363536" lon="11.421909317804325"><ele>329.6666666666667</ele><time>2026-04-11T07:17:30.999Z</time></trkpt><trkpt lat="43.45327697594019" lon="11.421825630519955"><ele>330.83333333333337</ele><time>2026-04-11T07:17:31.999Z</time></trkpt><trkpt lat="43.453225279072484" lon="11.421741967605671"><ele>332.0</ele><time>2026-04-11T07:17:32.999Z</time></trkpt><trkpt lat="43.453171216112956" lon="11.421665193713388"><ele>332.0</ele><time>2026-04-11T07:17:33.999Z</time></trkpt><trkpt lat="43.453114806159384" lon="11.421594907682708"><ele>332.0</ele><time>2026-04-11T07:17:34.999Z</time></trkpt><trkpt lat="43.45306155519618" lon="11.421531626876018"><ele>332.0</ele><time>2026-04-11T07:17:35.999Z</time></trkpt><trkpt lat="43.45300328783727" lon="11.421484023346054"><ele>332.0</ele><time>2026-04-11T07:17:36.999Z</time></trkpt><trkpt lat="43.452945119564795" lon="11.421441345364872"><ele>332.0</ele><time>2026-04-11T07:17:37.999Z</time></trkpt><trkpt lat="43.45288942659856" lon="11.421396509905895"><ele>332.0</ele><time>2026-04-11T07:17:38.999Z</time></trkpt><trkpt lat="43.45283382970874" lon="11.42134976017354"><ele>332.0</ele><time>2026-04-11T07:17:39.999Z</time></trkpt><trkpt lat="43.45277695025382" lon="11.421304005692367"><ele>332.4285714285714</ele><time>2026-04-11T07:17:40.999Z</time></trkpt><trkpt lat="43.452720468614494" lon="11.421255809484842"><ele>332.8571428571429</ele><time>2026-04-11T07:17:41.999Z</time></trkpt><trkpt lat="43.45266270330318" lon="11.421211181446623"><ele>333.2857142857143</ele><time>2026-04-11T07:17:42.999Z</time></trkpt><trkpt lat="43.452603934200525" lon="11.421161255672114"><ele>333.71428571428567</ele><time>2026-04-11T07:17:43.999Z</time></trkpt><trkpt lat="43.45254675047403" lon="11.421104583563466"><ele>334.1428571428571</ele><time>2026-04-11T07:17:44.999Z</time></trkpt><trkpt lat="43.45249425651435" lon="11.421043369321316"><ele>334.57142857142856</ele><time>2026-04-11T07:17:45.999Z</time></trkpt><trkpt lat="43.45244766756623" lon="11.4209779641852"><ele>335.0</ele><time>2026-04-11T07:17:46.999Z</time></trkpt><trkpt lat="43.45240050414056" lon="11.420913763286848"><ele>334.99999999999994</ele><time>2026-04-11T07:17:47.999Z</time></trkpt><trkpt lat="43.45235506211608" lon="11.420848014274197"><ele>335.0</ele><time>2026-04-11T07:17:48.999Z</time></trkpt><trkpt lat="43.45230787578771" lon="11.420783490081778"><ele>335.0</ele><time>2026-04-11T07:17:49.999Z</time></trkpt><trkpt lat="43.45226356512903" lon="11.420714022922422"><ele>335.0</ele><time>2026-04-11T07:17:50.999Z</time></trkpt><trkpt lat="43.452219698603365" lon="11.420647641591465"><ele>335.0</ele><time>2026-04-11T07:17:51.999Z</time></trkpt><trkpt lat="43.45217680540598" lon="11.420581005195332"><ele>334.99999999999994</ele><time>2026-04-11T07:17:52.999Z</time></trkpt><trkpt lat="43.45213585795961" lon="11.420513525706326"><ele>335.0</ele><time>2026-04-11T07:17:53.999Z</time></trkpt><trkpt lat="43.45205381386665" lon="11.420384435086394"><ele>334.2</ele><time>2026-04-11T07:17:55.999Z</time></trkpt><trkpt lat="43.45201056624842" lon="11.420314665920982"><ele>333.4</ele><time>2026-04-11T07:17:56.999Z</time></trkpt><trkpt lat="43.45193425233537" lon="11.420181955849941"><ele>332.6</ele><time>2026-04-11T07:17:58.999Z</time></trkpt><trkpt lat="43.45185490180944" lon="11.420064396572794"><ele>331.8</ele><time>2026-04-11T07:18:00.999Z</time></trkpt><trkpt lat="43.451785764247575" lon="11.419936347848347"><ele>331.0</ele><time>2026-04-11T07:18:02.999Z</time></trkpt><trkpt lat="43.45170383892973" lon="11.419808111378625"><ele>331.0</ele><time>2026-04-11T07:18:04.998Z</time></trkpt><trkpt lat="43.45161762345743" lon="11.419682554558493"><ele>331.0</ele><time>2026-04-11T07:18:06.998Z</time></trkpt><trkpt lat="43.45156926668203" lon="11.419619749930488"><ele>331.0</ele><time>2026-04-11T07:18:07.998Z</time></trkpt><trkpt lat="43.45151725417795" lon="11.419566310652668"><ele>331.0</ele><time>2026-04-11T07:18:08.998Z</time></trkpt><trkpt lat="43.451459414174536" lon="11.419517387372371"><ele>331.0</ele><time>2026-04-11T07:18:09.998Z</time></trkpt><trkpt lat="43.45140390689801" lon="11.419470398581176"><ele>331.0</ele><time>2026-04-11T07:18:10.998Z</time></trkpt><trkpt lat="43.45134998585152" lon="11.419415958364949"><ele>331.42857142857144</ele><time>2026-04-11T07:18:11.998Z</time></trkpt><trkpt lat="43.45129579327524" lon="11.419363982501293"><ele>331.85714285714283</ele><time>2026-04-11T07:18:12.998Z</time></trkpt><trkpt lat="43.451238760815244" lon="11.419313511108928"><ele>332.2857142857143</ele><time>2026-04-11T07:18:13.998Z</time></trkpt><trkpt lat="43.451182395402824" lon="11.4192659236327"><ele>332.7142857142857</ele><time>2026-04-11T07:18:14.998Z</time></trkpt><trkpt lat="43.45112478064811" lon="11.41922392342917"><ele>333.14285714285717</ele><time>2026-04-11T07:18:15.998Z</time></trkpt><trkpt lat="43.45106562821506" lon="11.419184664653224"><ele>333.57142857142856</ele><time>2026-04-11T07:18:16.998Z</time></trkpt><trkpt lat="43.45099860705923" lon="11.419148424135905"><ele>334.0</ele><time>2026-04-11T07:18:17.998Z</time></trkpt><trkpt lat="43.4509252310297" lon="11.419122474877673"><ele>332.4</ele><time>2026-04-11T07:18:18.998Z</time></trkpt><trkpt lat="43.45084358619901" lon="11.41910011415939"><ele>330.79999999999995</ele><time>2026-04-11T07:18:19.998Z</time></trkpt><trkpt lat="43.450758060262686" lon="11.419075353812643"><ele>329.20000000000005</ele><time>2026-04-11T07:18:20.998Z</time></trkpt><trkpt lat="43.45067192929026" lon="11.419039860245055"><ele>327.6</ele><time>2026-04-11T07:18:21.998Z</time></trkpt><trkpt lat="43.45058163331769" lon="11.419004079306108"><ele>326.0</ele><time>2026-04-11T07:18:22.998Z</time></trkpt><trkpt lat="43.45048487093197" lon="11.418971618560748"><ele>325.6</ele><time>2026-04-11T07:18:23.998Z</time></trkpt><trkpt lat="43.450382042248485" lon="11.418960400258142"><ele>325.20000000000005</ele><time>2026-04-11T07:18:24.998Z</time></trkpt><trkpt lat="43.450279180101624" lon="11.418956930054534"><ele>324.79999999999995</ele><time>2026-04-11T07:18:25.998Z</time></trkpt><trkpt lat="43.45017555096849" lon="11.418952562056845"><ele>324.4</ele><time>2026-04-11T07:18:26.998Z</time></trkpt><trkpt lat="43.45007595511125" lon="11.418928333491854"><ele>324.0</ele><time>2026-04-11T07:18:27.998Z</time></trkpt><trkpt lat="43.449979592174536" lon="11.41888859998232"><ele>324.0</ele><time>2026-04-11T07:18:28.998Z</time></trkpt><trkpt lat="43.44988673583471" lon="11.418844591487026"><ele>324.0</ele><time>2026-04-11T07:18:29.998Z</time></trkpt><trkpt lat="43.44979841209665" lon="11.418803026996057"><ele>324.0</ele><time>2026-04-11T07:18:30.998Z</time></trkpt><trkpt lat="43.44970965150178" lon="11.418757141656416"><ele>324.0</ele><time>2026-04-11T07:18:31.998Z</time></trkpt><trkpt lat="43.449622475596094" lon="11.41871380016735"><ele>324.0</ele><time>2026-04-11T07:18:33Z</time></trkpt><trkpt lat="43.44953618816896" lon="11.418675348089971"><ele>325.1666666666667</ele><time>2026-04-11T07:18:34Z</time></trkpt><trkpt lat="43.449449837810036" lon="11.4186454355763"><ele>326.3333333333333</ele><time>2026-04-11T07:18:35Z</time></trkpt><trkpt lat="43.449366958539045" lon="11.41861815018573"><ele>327.5</ele><time>2026-04-11T07:18:36Z</time></trkpt><trkpt lat="43.44928339330771" lon="11.418594613154859"><ele>328.66666666666663</ele><time>2026-04-11T07:18:37Z</time></trkpt><trkpt lat="43.44920567779686" lon="11.418580260905426"><ele>329.8333333333333</ele><time>2026-04-11T07:18:38Z</time></trkpt><trkpt lat="43.44912787611914" lon="11.41857429508945"><ele>331.0</ele><time>2026-04-11T07:18:39Z</time></trkpt><trkpt lat="43.44905470116576" lon="11.418568090989824"><ele>331.0</ele><time>2026-04-11T07:18:40Z</time></trkpt><trkpt lat="43.44897661005196" lon="11.418557786212556"><ele>331.0</ele><time>2026-04-11T07:18:41Z</time></trkpt><trkpt lat="43.44890102864953" lon="11.418551850315321"><ele>331.0</ele><time>2026-04-11T07:18:42Z</time></trkpt><trkpt lat="43.44882566846244" lon="11.41854647483752"><ele>331.0</ele><time>2026-04-11T07:18:43Z</time></trkpt><trkpt lat="43.448752356064354" lon="11.418529071898117"><ele>331.0</ele><time>2026-04-11T07:18:44Z</time></trkpt><trkpt lat="43.44868002383691" lon="11.418511093850505"><ele>331.0</ele><time>2026-04-11T07:18:45Z</time></trkpt><trkpt lat="43.4485525239622" lon="11.418499456892897"><ele>331.0</ele><time>2026-04-11T07:18:47Z</time></trkpt><trkpt lat="43.44848804116762" lon="11.418485922186"><ele>331.0</ele><time>2026-04-11T07:18:48Z</time></trkpt><trkpt lat="43.44837054976493" lon="11.418431737474862"><ele>331.0</ele><time>2026-04-11T07:18:50Z</time></trkpt><trkpt lat="43.44825937636845" lon="11.418356587013527"><ele>331.0</ele><time>2026-04-11T07:18:52Z</time></trkpt><trkpt lat="43.448153521978675" lon="11.418268860546148"><ele>331.0</ele><time>2026-04-11T07:18:54Z</time></trkpt><trkpt lat="43.44805947245981" lon="11.418175888814684"><ele>331.0</ele><time>2026-04-11T07:18:56Z</time></trkpt><trkpt lat="43.44796496749937" lon="11.418080382474596"><ele>331.0</ele><time>2026-04-11T07:18:58Z</time></trkpt><trkpt lat="43.44787190130701" lon="11.417991971640932"><ele>331.0</ele><time>2026-04-11T07:19:00Z</time></trkpt><trkpt lat="43.44778252199702" lon="11.417907611233673"><ele>331.0</ele><time>2026-04-11T07:19:02Z</time></trkpt><trkpt lat="43.44768589050311" lon="11.417843597817104"><ele>331.0</ele><time>2026-04-11T07:19:04Z</time></trkpt><trkpt lat="43.447588179895064" lon="11.417792456489568"><ele>332.4</ele><time>2026-04-11T07:19:06Z</time></trkpt><trkpt lat="43.44749014162626" lon="11.417756716351917"><ele>333.8</ele><time>2026-04-11T07:19:08Z</time></trkpt><trkpt lat="43.447387345533464" lon="11.4177347897965"><ele>335.2</ele><time>2026-04-11T07:19:10Z</time></trkpt><trkpt lat="43.44728452324755" lon="11.41770970515984"><ele>336.59999999999997</ele><time>2026-04-11T07:19:12Z</time></trkpt><trkpt lat="43.44718321967496" lon="11.417679038934914"><ele>338.0</ele><time>2026-04-11T07:19:14Z</time></trkpt><trkpt lat="43.447081689397486" lon="11.417658678632863"><ele>338.4</ele><time>2026-04-11T07:19:16Z</time></trkpt><trkpt lat="43.446982910892814" lon="11.417632713062515"><ele>338.79999999999995</ele><time>2026-04-11T07:19:18Z</time></trkpt><trkpt lat="43.44688592986218" lon="11.41760996744657"><ele>339.2</ele><time>2026-04-11T07:19:20Z</time></trkpt><trkpt lat="43.44678832358937" lon="11.4175848929022"><ele>339.6</ele><time>2026-04-11T07:19:22Z</time></trkpt><trkpt lat="43.4466912934716" lon="11.417562482957466"><ele>340.0</ele><time>2026-04-11T07:19:24Z</time></trkpt><trkpt lat="43.44659409591776" lon="11.417538892921124"><ele>340.0</ele><time>2026-04-11T07:19:25.999Z</time></trkpt><trkpt lat="43.446498718997795" lon="11.41750899393799"><ele>340.0</ele><time>2026-04-11T07:19:27.999Z</time></trkpt><trkpt lat="43.44640264826415" lon="11.417492243202513"><ele>340.0</ele><time>2026-04-11T07:19:29.999Z</time></trkpt><trkpt lat="43.446306504859216" lon="11.417482126535596"><ele>340.0</ele><time>2026-04-11T07:19:31.999Z</time></trkpt><trkpt lat="43.44621203255866" lon="11.41748992536032"><ele>340.0</ele><time>2026-04-11T07:19:33.999Z</time></trkpt><trkpt lat="43.44611780352503" lon="11.417544015948287"><ele>340.4</ele><time>2026-04-11T07:19:35.999Z</time></trkpt><trkpt lat="43.44602999041093" lon="11.417628297004965"><ele>340.8</ele><time>2026-04-11T07:19:37.999Z</time></trkpt><trkpt lat="43.44595712626692" lon="11.417733796450435"><ele>341.20000000000005</ele><time>2026-04-11T07:19:39.999Z</time></trkpt><trkpt lat="43.44588991965423" lon="11.417858078673026"><ele>341.6</ele><time>2026-04-11T07:19:41.999Z</time></trkpt><trkpt lat="43.44583959387194" lon="11.417995453670219"><ele>342.0</ele><time>2026-04-11T07:19:43.999Z</time></trkpt><trkpt lat="43.445791442624234" lon="11.418142359260262"><ele>341.99999999999994</ele><time>2026-04-11T07:19:45.999Z</time></trkpt><trkpt lat="43.44574939702054" lon="11.418300344046983"><ele>342.0</ele><time>2026-04-11T07:19:47.999Z</time></trkpt><trkpt lat="43.445730413812704" lon="11.418383842809128"><ele>342.0</ele><time>2026-04-11T07:19:48.999Z</time></trkpt><trkpt lat="43.44571679575448" lon="11.41847010912384"><ele>342.0</ele><time>2026-04-11T07:19:49.999Z</time></trkpt><trkpt lat="43.44570365639806" lon="11.41855860551553"><ele>342.0</ele><time>2026-04-11T07:19:50.999Z</time></trkpt><trkpt lat="43.44569177726563" lon="11.418647334574565"><ele>341.99999999999994</ele><time>2026-04-11T07:19:51.999Z</time></trkpt><trkpt lat="43.44568265707029" lon="11.418739099764908"><ele>342.0</ele><time>2026-04-11T07:19:52.999Z</time></trkpt><trkpt lat="43.445680547016664" lon="11.418833664454024"><ele>340.85714285714283</ele><time>2026-04-11T07:19:53.999Z</time></trkpt><trkpt lat="43.44568120025319" lon="11.418927636305684"><ele>339.7142857142857</ele><time>2026-04-11T07:19:54.999Z</time></trkpt><trkpt lat="43.445682513017424" lon="11.419023956086152"><ele>338.57142857142856</ele><time>2026-04-11T07:19:55.999Z</time></trkpt><trkpt lat="43.445682215256724" lon="11.419123012564942"><ele>337.42857142857144</ele><time>2026-04-11T07:19:56.999Z</time></trkpt><trkpt lat="43.44562826362932" lon="11.41921946480369"><ele>336.2857142857143</ele><time>2026-04-11T07:19:57.999Z</time></trkpt><trkpt lat="43.44562485827793" lon="11.419317327648981"><ele>335.1428571428571</ele><time>2026-04-11T07:19:58.999Z</time></trkpt><trkpt lat="43.44561946093986" lon="11.419414665424291"><ele>334.0</ele><time>2026-04-11T07:19:59.999Z</time></trkpt><trkpt lat="43.445604748918555" lon="11.419500365085115"><ele>334.0</ele><time>2026-04-11T07:20:00.999Z</time></trkpt><trkpt lat="43.44558023264145" lon="11.419584547556047"><ele>334.0</ele><time>2026-04-11T07:20:01.999Z</time></trkpt><trkpt lat="43.44548125556212" lon="11.419697461062645"><ele>334.0</ele><time>2026-04-11T07:20:03.999Z</time></trkpt><trkpt lat="43.44541519540211" lon="11.419742361418512"><ele>334.0</ele><time>2026-04-11T07:20:04.999Z</time></trkpt><trkpt lat="43.445349337386716" lon="11.41980135774989"><ele>334.0</ele><time>2026-04-11T07:20:05.999Z</time></trkpt><trkpt lat="43.445276711739055" lon="11.419840880308978"><ele>334.0</ele><time>2026-04-11T07:20:06.999Z</time></trkpt><trkpt lat="43.4452041328796" lon="11.419885412205204"><ele>334.8333333333333</ele><time>2026-04-11T07:20:07.999Z</time></trkpt><trkpt lat="43.44513054769495" lon="11.419929209870995"><ele>335.66666666666663</ele><time>2026-04-11T07:20:08.999Z</time></trkpt><trkpt lat="43.445058764716705" lon="11.419973624877086"><ele>336.5</ele><time>2026-04-11T07:20:09.999Z</time></trkpt><trkpt lat="43.44498495454179" lon="11.420017228682207"><ele>337.3333333333333</ele><time>2026-04-11T07:20:10.999Z</time></trkpt><trkpt lat="43.44490865193775" lon="11.420061561000697"><ele>338.1666666666667</ele><time>2026-04-11T07:20:11.999Z</time></trkpt><trkpt lat="43.44483438318869" lon="11.420103755323604"><ele>339.0</ele><time>2026-04-11T07:20:12.999Z</time></trkpt><trkpt lat="43.444757753567025" lon="11.420152564665232"><ele>339.0</ele><time>2026-04-11T07:20:13.999Z</time></trkpt><trkpt lat="43.44468629018694" lon="11.420209167845709"><ele>339.0</ele><time>2026-04-11T07:20:14.999Z</time></trkpt><trkpt lat="43.44460842610256" lon="11.420254044661345"><ele>339.0</ele><time>2026-04-11T07:20:15.998Z</time></trkpt><trkpt lat="43.44454247310458" lon="11.420332539794433"><ele>339.0</ele><time>2026-04-11T07:20:16.998Z</time></trkpt><trkpt lat="43.44448329040333" lon="11.420422188223242"><ele>339.0</ele><time>2026-04-11T07:20:17.998Z</time></trkpt><trkpt lat="43.444428520451034" lon="11.42050897915445"><ele>339.0</ele><time>2026-04-11T07:20:18.998Z</time></trkpt><trkpt lat="43.44437172293255" lon="11.420595522361971"><ele>338.6</ele><time>2026-04-11T07:20:19.998Z</time></trkpt><trkpt lat="43.444319031130455" lon="11.420675139735476"><ele>338.2</ele><time>2026-04-11T07:20:20.998Z</time></trkpt><trkpt lat="43.44424261962367" lon="11.420779014675217"><ele>337.8</ele><time>2026-04-11T07:20:22.998Z</time></trkpt><trkpt lat="43.44415994914536" lon="11.42086598396052"><ele>337.40000000000003</ele><time>2026-04-11T07:20:24.998Z</time></trkpt><trkpt lat="43.44407241835738" lon="11.420944655297133"><ele>337.0</ele><time>2026-04-11T07:20:26.998Z</time></trkpt><trkpt lat="43.44398041262412" lon="11.421015785746528"><ele>337.00000000000006</ele><time>2026-04-11T07:20:28.998Z</time></trkpt><trkpt lat="43.44392020977199" lon="11.42105947344423"><ele>337.0</ele><time>2026-04-11T07:20:29.998Z</time></trkpt><trkpt lat="43.443859973951795" lon="11.421101726431997"><ele>337.0</ele><time>2026-04-11T07:20:30.998Z</time></trkpt><trkpt lat="43.44379669642485" lon="11.42114614558279"><ele>337.0</ele><time>2026-04-11T07:20:31.998Z</time></trkpt><trkpt lat="43.44372988432577" lon="11.421193045883717"><ele>337.0</ele><time>2026-04-11T07:20:32.998Z</time></trkpt><trkpt lat="43.44367052547465" lon="11.421256757332811"><ele>337.00000000000006</ele><time>2026-04-11T07:20:33.998Z</time></trkpt><trkpt lat="43.443605664624" lon="11.421302586932336"><ele>337.0</ele><time>2026-04-11T07:20:34.998Z</time></trkpt><trkpt lat="43.44353395708673" lon="11.421356471326774"><ele>335.5</ele><time>2026-04-11T07:20:35.998Z</time></trkpt><trkpt lat="43.44346209684162" lon="11.421404313790093"><ele>334.0</ele><time>2026-04-11T07:20:36.998Z</time></trkpt><trkpt lat="43.44338956859857" lon="11.42144921083244"><ele>332.5</ele><time>2026-04-11T07:20:37.998Z</time></trkpt><trkpt lat="43.443317299308056" lon="11.421490191354824"><ele>331.0</ele><time>2026-04-11T07:20:39Z</time></trkpt><trkpt lat="43.44324290129374" lon="11.421520113993392"><ele>329.5</ele><time>2026-04-11T07:20:40Z</time></trkpt><trkpt lat="43.44316323121858" lon="11.421540550558362"><ele>328.0</ele><time>2026-04-11T07:20:41Z</time></trkpt><trkpt lat="43.44308398619281" lon="11.42155441471395"><ele>328.0</ele><time>2026-04-11T07:20:42Z</time></trkpt><trkpt lat="43.44300441748497" lon="11.421557123988642"><ele>328.0</ele><time>2026-04-11T07:20:43Z</time></trkpt><trkpt lat="43.44292437940533" lon="11.421560125110545"><ele>328.0</ele><time>2026-04-11T07:20:44Z</time></trkpt><trkpt lat="43.44284457246637" lon="11.421559443726608"><ele>328.0</ele><time>2026-04-11T07:20:45Z</time></trkpt><trkpt lat="43.44276495438645" lon="11.421557247363246"><ele>328.0</ele><time>2026-04-11T07:20:46Z</time></trkpt><trkpt lat="43.44268662182091" lon="11.421555332687143"><ele>328.0</ele><time>2026-04-11T07:20:47Z</time></trkpt><trkpt lat="43.44260739218282" lon="11.42155279080386"><ele>328.0</ele><time>2026-04-11T07:20:48Z</time></trkpt><trkpt lat="43.44253103262592" lon="11.421544940253025"><ele>328.0</ele><time>2026-04-11T07:20:49Z</time></trkpt><trkpt lat="43.44245570648951" lon="11.421534555159162"><ele>328.0</ele><time>2026-04-11T07:20:50Z</time></trkpt><trkpt lat="43.442378743910936" lon="11.421523505008556"><ele>328.0</ele><time>2026-04-11T07:20:51Z</time></trkpt><trkpt lat="43.44230219523814" lon="11.421513882483964"><ele>328.0</ele><time>2026-04-11T07:20:52Z</time></trkpt><trkpt lat="43.442227066596324" lon="11.42150427767602"><ele>328.0</ele><time>2026-04-11T07:20:53Z</time></trkpt><trkpt lat="43.44215277656671" lon="11.421494789083471"><ele>327.16666666666663</ele><time>2026-04-11T07:20:54Z</time></trkpt><trkpt lat="43.4420758354973" lon="11.421481557184505"><ele>326.3333333333333</ele><time>2026-04-11T07:20:55Z</time></trkpt><trkpt lat="43.44199982140223" lon="11.421466484651019"><ele>325.5</ele><time>2026-04-11T07:20:56Z</time></trkpt><trkpt lat="43.44192300715192" lon="11.421455307733689"><ele>324.6666666666667</ele><time>2026-04-11T07:20:57Z</time></trkpt><trkpt lat="43.44184565370492" lon="11.42144477694642"><ele>323.83333333333337</ele><time>2026-04-11T07:20:58Z</time></trkpt><trkpt lat="43.44176924403569" lon="11.421433991568136"><ele>323.0</ele><time>2026-04-11T07:20:59Z</time></trkpt><trkpt lat="43.441692447984856" lon="11.421423013226711"><ele>323.0</ele><time>2026-04-11T07:21:00Z</time></trkpt><trkpt lat="43.4416153885598" lon="11.42141261343913"><ele>323.0</ele><time>2026-04-11T07:21:01Z</time></trkpt><trkpt lat="43.44153788300182" lon="11.421407987642699"><ele>323.0</ele><time>2026-04-11T07:21:02Z</time></trkpt><trkpt lat="43.44145874918767" lon="11.42139949878537"><ele>323.0</ele><time>2026-04-11T07:21:03Z</time></trkpt><trkpt lat="43.44138398761073" lon="11.421390083788747"><ele>323.0</ele><time>2026-04-11T07:21:04Z</time></trkpt><trkpt lat="43.44130719652292" lon="11.4213788549531"><ele>323.0</ele><time>2026-04-11T07:21:05Z</time></trkpt><trkpt lat="43.441233018426836" lon="11.42135956095246"><ele>322.1666666666667</ele><time>2026-04-11T07:21:06Z</time></trkpt><trkpt lat="43.44116120546283" lon="11.421333346570599"><ele>321.33333333333337</ele><time>2026-04-11T07:21:07Z</time></trkpt><trkpt lat="43.441089398358024" lon="11.421300159440694"><ele>320.5</ele><time>2026-04-11T07:21:08Z</time></trkpt><trkpt lat="43.44101957097161" lon="11.421258255389098"><ele>319.6666666666667</ele><time>2026-04-11T07:21:09Z</time></trkpt><trkpt lat="43.440944966965446" lon="11.421209715369942"><ele>318.8333333333333</ele><time>2026-04-11T07:21:10Z</time></trkpt><trkpt lat="43.44088300932103" lon="11.421150622123767"><ele>318.0</ele><time>2026-04-11T07:21:11Z</time></trkpt><trkpt lat="43.440817168992815" lon="11.421094173513731"><ele>317.8333333333333</ele><time>2026-04-11T07:21:12Z</time></trkpt><trkpt lat="43.44075249478125" lon="11.421036430112306"><ele>317.6666666666667</ele><time>2026-04-11T07:21:13Z</time></trkpt><trkpt lat="43.44068660718719" lon="11.420979501908004"><ele>317.5</ele><time>2026-04-11T07:21:14Z</time></trkpt><trkpt lat="43.44062031820144" lon="11.420922165504923"><ele>317.33333333333337</ele><time>2026-04-11T07:21:15Z</time></trkpt><trkpt lat="43.44055424312248" lon="11.420866877328242"><ele>317.1666666666667</ele><time>2026-04-11T07:21:16Z</time></trkpt><trkpt lat="43.44048744284388" lon="11.420814116784786"><ele>317.0</ele><time>2026-04-11T07:21:17Z</time></trkpt><trkpt lat="43.44042374018411" lon="11.420760411368137"><ele>317.0</ele><time>2026-04-11T07:21:18Z</time></trkpt><trkpt lat="43.44036028314972" lon="11.420707744026288"><ele>317.0</ele><time>2026-04-11T07:21:19Z</time></trkpt><trkpt lat="43.44029831459686" lon="11.420650524213046"><ele>317.0</ele><time>2026-04-11T07:21:20Z</time></trkpt><trkpt lat="43.440236934116164" lon="11.42059382423661"><ele>317.0</ele><time>2026-04-11T07:21:21Z</time></trkpt><trkpt lat="43.44017160824403" lon="11.420538690525131"><ele>317.0</ele><time>2026-04-11T07:21:22Z</time></trkpt><trkpt lat="43.44010724169805" lon="11.42048265798291"><ele>317.0</ele><time>2026-04-11T07:21:23Z</time></trkpt><trkpt lat="43.44004054676465" lon="11.420424348555553"><ele>319.0</ele><time>2026-04-11T07:21:24Z</time></trkpt><trkpt lat="43.43997444506886" lon="11.420365040185434"><ele>321.0</ele><time>2026-04-11T07:21:25Z</time></trkpt><trkpt lat="43.43990690429592" lon="11.42030879695649"><ele>323.0</ele><time>2026-04-11T07:21:26Z</time></trkpt><trkpt lat="43.43984058561679" lon="11.420253564387634"><ele>325.0</ele><time>2026-04-11T07:21:27Z</time></trkpt><trkpt lat="43.43977350562091" lon="11.420197966652037"><ele>327.0</ele><time>2026-04-11T07:21:28Z</time></trkpt><trkpt lat="43.43970627117685" lon="11.420141095114197"><ele>329.0</ele><time>2026-04-11T07:21:29Z</time></trkpt><trkpt lat="43.439639116831266" lon="11.420087133813768"><ele>327.1666666666667</ele><time>2026-04-11T07:21:30Z</time></trkpt><trkpt lat="43.43957150716825" lon="11.420034766138802"><ele>325.33333333333337</ele><time>2026-04-11T07:21:30.999Z</time></trkpt><trkpt lat="43.439503650688046" lon="11.419982022624467"><ele>323.5</ele><time>2026-04-11T07:21:31.999Z</time></trkpt><trkpt lat="43.43943584544599" lon="11.419929814231267"><ele>321.6666666666667</ele><time>2026-04-11T07:21:32.999Z</time></trkpt><trkpt lat="43.439368951589294" lon="11.419880893289923"><ele>319.8333333333333</ele><time>2026-04-11T07:21:33.999Z</time></trkpt><trkpt lat="43.43929889735084" lon="11.41983470542298"><ele>318.0</ele><time>2026-04-11T07:21:34.999Z</time></trkpt><trkpt lat="43.4392284671891" lon="11.41979354789282"><ele>318.0</ele><time>2026-04-11T07:21:35.999Z</time></trkpt><trkpt lat="43.43915875241175" lon="11.41975481105532"><ele>318.0</ele><time>2026-04-11T07:21:36.999Z</time></trkpt><trkpt lat="43.43908623711649" lon="11.419728330164245"><ele>318.0</ele><time>2026-04-11T07:21:37.999Z</time></trkpt><trkpt lat="43.439014434557116" lon="11.419702476134752"><ele>318.0</ele><time>2026-04-11T07:21:38.999Z</time></trkpt><trkpt lat="43.438941163499976" lon="11.419681663373034"><ele>318.0</ele><time>2026-04-11T07:21:39.999Z</time></trkpt><trkpt lat="43.43886812558673" lon="11.419662773981134"><ele>318.0</ele><time>2026-04-11T07:21:40.999Z</time></trkpt><trkpt lat="43.43879519240051" lon="11.419643678518826"><ele>318.0</ele><time>2026-04-11T07:21:41.999Z</time></trkpt><trkpt lat="43.43872127750898" lon="11.419632542642876"><ele>319.6666666666667</ele><time>2026-04-11T07:21:42.999Z</time></trkpt><trkpt lat="43.4386472808137" lon="11.419626720992204"><ele>321.3333333333333</ele><time>2026-04-11T07:21:43.999Z</time></trkpt><trkpt lat="43.43857232345032" lon="11.419619656350179"><ele>323.0</ele><time>2026-04-11T07:21:44.999Z</time></trkpt><trkpt lat="43.43849715868628" lon="11.419612714091528"><ele>324.66666666666663</ele><time>2026-04-11T07:21:45.999Z</time></trkpt><trkpt lat="43.43842077834221" lon="11.419600710648023"><ele>326.3333333333333</ele><time>2026-04-11T07:21:46.999Z</time></trkpt><trkpt lat="43.43834461459697" lon="11.419589977569657"><ele>328.0</ele><time>2026-04-11T07:21:47.999Z</time></trkpt><trkpt lat="43.43826671129748" lon="11.419582437630227"><ele>327.99999999999994</ele><time>2026-04-11T07:21:48.999Z</time></trkpt><trkpt lat="43.438191237909564" lon="11.419574846122554"><ele>328.0</ele><time>2026-04-11T07:21:49.999Z</time></trkpt><trkpt lat="43.43811507266451" lon="11.419566156761482"><ele>328.0</ele><time>2026-04-11T07:21:50.999Z</time></trkpt><trkpt lat="43.43804067193376" lon="11.419557773002325"><ele>328.0</ele><time>2026-04-11T07:21:51.999Z</time></trkpt><trkpt lat="43.43796623459159" lon="11.419547434372628"><ele>328.0</ele><time>2026-04-11T07:21:52.999Z</time></trkpt><trkpt lat="43.43789320055367" lon="11.419534135684305"><ele>327.99999999999994</ele><time>2026-04-11T07:21:53.999Z</time></trkpt><trkpt lat="43.437820773413016" lon="11.419515153991938"><ele>328.0</ele><time>2026-04-11T07:21:54.999Z</time></trkpt><trkpt lat="43.43775120238491" lon="11.419497896813743"><ele>327.2857142857143</ele><time>2026-04-11T07:21:55.999Z</time></trkpt><trkpt lat="43.43767941202029" lon="11.41948593678559"><ele>326.57142857142856</ele><time>2026-04-11T07:21:56.999Z</time></trkpt><trkpt lat="43.43760868552616" lon="11.41947365334498"><ele>325.8571428571429</ele><time>2026-04-11T07:21:57.999Z</time></trkpt><trkpt lat="43.43753857384772" lon="11.419454194341688"><ele>325.1428571428571</ele><time>2026-04-11T07:21:58.999Z</time></trkpt><trkpt lat="43.437469028525655" lon="11.419440735580812"><ele>324.42857142857144</ele><time>2026-04-11T07:21:59.999Z</time></trkpt><trkpt lat="43.43739609767125" lon="11.41943166634686"><ele>323.7142857142857</ele><time>2026-04-11T07:22:00.999Z</time></trkpt><trkpt lat="43.43732599334444" lon="11.41941624163168"><ele>323.0</ele><time>2026-04-11T07:22:01.999Z</time></trkpt><trkpt lat="43.43725513989728" lon="11.419406133104879"><ele>323.00000000000006</ele><time>2026-04-11T07:22:02.999Z</time></trkpt><trkpt lat="43.43718708650387" lon="11.419392148374083"><ele>323.0</ele><time>2026-04-11T07:22:03.999Z</time></trkpt><trkpt lat="43.4371163766293" lon="11.419378905336613"><ele>323.0</ele><time>2026-04-11T07:22:04.999Z</time></trkpt><trkpt lat="43.43704566890259" lon="11.419366175906736"><ele>323.0</ele><time>2026-04-11T07:22:05.999Z</time></trkpt><trkpt lat="43.436974296956045" lon="11.419355747949751"><ele>323.0</ele><time>2026-04-11T07:22:06.999Z</time></trkpt><trkpt lat="43.436904799198224" lon="11.419339996346373"><ele>323.00000000000006</ele><time>2026-04-11T07:22:07.999Z</time></trkpt><trkpt lat="43.43683432743315" lon="11.419324653525031"><ele>323.0</ele><time>2026-04-11T07:22:08.999Z</time></trkpt><trkpt lat="43.436764464119975" lon="11.419311465309088"><ele>322.5714285714286</ele><time>2026-04-11T07:22:09.999Z</time></trkpt><trkpt lat="43.436694401694204" lon="11.419300754778773"><ele>322.14285714285717</ele><time>2026-04-11T07:22:10.999Z</time></trkpt><trkpt lat="43.436625225582404" lon="11.41928660546818"><ele>321.7142857142857</ele><time>2026-04-11T07:22:11.999Z</time></trkpt><trkpt lat="43.43655682784857" lon="11.419273844093889"><ele>321.28571428571433</ele><time>2026-04-11T07:22:12.999Z</time></trkpt><trkpt lat="43.43648728929363" lon="11.419261928668107"><ele>320.8571428571429</ele><time>2026-04-11T07:22:13.999Z</time></trkpt><trkpt lat="43.43641734913635" lon="11.419248685633281"><ele>320.42857142857144</ele><time>2026-04-11T07:22:14.999Z</time></trkpt><trkpt lat="43.43634649603775" lon="11.41923801387129"><ele>320.0</ele><time>2026-04-11T07:22:15.999Z</time></trkpt><trkpt lat="43.436272983579165" lon="11.419228631264525"><ele>319.42857142857144</ele><time>2026-04-11T07:22:16.999Z</time></trkpt><trkpt lat="43.436205147389735" lon="11.419214316866212"><ele>318.8571428571429</ele><time>2026-04-11T07:22:17.999Z</time></trkpt><trkpt lat="43.43613443792805" lon="11.419199430894414"><ele>318.28571428571433</ele><time>2026-04-11T07:22:18.999Z</time></trkpt><trkpt lat="43.43606274065842" lon="11.419187513054428"><ele>317.7142857142857</ele><time>2026-04-11T07:22:19.998Z</time></trkpt><trkpt lat="43.435990482575164" lon="11.419174388557483"><ele>317.14285714285717</ele><time>2026-04-11T07:22:20.998Z</time></trkpt><trkpt lat="43.43591806665208" lon="11.419156624736257"><ele>316.5714285714286</ele><time>2026-04-11T07:22:21.998Z</time></trkpt><trkpt lat="43.43584545945851" lon="11.419143032669991"><ele>316.0</ele><time>2026-04-11T07:22:22.998Z</time></trkpt><trkpt lat="43.43577320186568" lon="11.419129613659964"><ele>316.00000000000006</ele><time>2026-04-11T07:22:23.998Z</time></trkpt><trkpt lat="43.435701128657605" lon="11.419112851440401"><ele>316.0</ele><time>2026-04-11T07:22:24.998Z</time></trkpt><trkpt lat="43.43563064481218" lon="11.419102641666699"><ele>316.0</ele><time>2026-04-11T07:22:25.998Z</time></trkpt><trkpt lat="43.435560787957165" lon="11.419092694480948"><ele>316.0</ele><time>2026-04-11T07:22:26.998Z</time></trkpt><trkpt lat="43.43549324304964" lon="11.419086724617713"><ele>316.0</ele><time>2026-04-11T07:22:27.998Z</time></trkpt><trkpt lat="43.4354279341565" lon="11.419084111006827"><ele>316.00000000000006</ele><time>2026-04-11T07:22:28.998Z</time></trkpt><trkpt lat="43.43536457117511" lon="11.419088260650865"><ele>316.0</ele><time>2026-04-11T07:22:29.998Z</time></trkpt><trkpt lat="43.43529702422017" lon="11.419098699266822"><ele>316.42857142857144</ele><time>2026-04-11T07:22:30.998Z</time></trkpt><trkpt lat="43.435232274689994" lon="11.419119896436962"><ele>316.8571428571429</ele><time>2026-04-11T07:22:31.998Z</time></trkpt><trkpt lat="43.4351678439058" lon="11.419152892736793"><ele>317.28571428571433</ele><time>2026-04-11T07:22:32.998Z</time></trkpt><trkpt lat="43.43510774671968" lon="11.419190461497505"><ele>317.7142857142857</ele><time>2026-04-11T07:22:33.998Z</time></trkpt><trkpt lat="43.435043987841716" lon="11.419236819847383"><ele>318.1428571428571</ele><time>2026-04-11T07:22:34.998Z</time></trkpt><trkpt lat="43.43498084251975" lon="11.419286767596928"><ele>318.5714285714286</ele><time>2026-04-11T07:22:35.998Z</time></trkpt><trkpt lat="43.43492141272784" lon="11.419336461968063"><ele>319.0</ele><time>2026-04-11T07:22:36.998Z</time></trkpt><trkpt lat="43.43486034410416" lon="11.419384702483901"><ele>319.0</ele><time>2026-04-11T07:22:37.998Z</time></trkpt><trkpt lat="43.43479812572526" lon="11.419438314255038"><ele>319.0</ele><time>2026-04-11T07:22:38.998Z</time></trkpt><trkpt lat="43.43473782044588" lon="11.419494340868637"><ele>319.0</ele><time>2026-04-11T07:22:39.998Z</time></trkpt><trkpt lat="43.43467829237664" lon="11.419552323867064"><ele>319.0</ele><time>2026-04-11T07:22:40.998Z</time></trkpt><trkpt lat="43.43461848225758" lon="11.419611659882664"><ele>319.0</ele><time>2026-04-11T07:22:41.998Z</time></trkpt><trkpt lat="43.43455796119158" lon="11.41967371374376"><ele>319.0</ele><time>2026-04-11T07:22:42.998Z</time></trkpt><trkpt lat="43.43450123225646" lon="11.419740181450676"><ele>319.0</ele><time>2026-04-11T07:22:43.998Z</time></trkpt><trkpt lat="43.43444173676085" lon="11.419806940975526"><ele>318.5</ele><time>2026-04-11T07:22:45Z</time></trkpt><trkpt lat="43.43438234584014" lon="11.419876454331975"><ele>318.0</ele><time>2026-04-11T07:22:46Z</time></trkpt><trkpt lat="43.4343259390191" lon="11.419945745785162"><ele>317.5</ele><time>2026-04-11T07:22:47Z</time></trkpt><trkpt lat="43.434269819797784" lon="11.420013972892878"><ele>317.0</ele><time>2026-04-11T07:22:48Z</time></trkpt><trkpt lat="43.434213114550815" lon="11.42008137207448"><ele>316.5</ele><time>2026-04-11T07:22:49Z</time></trkpt><trkpt lat="43.434152225446155" lon="11.42014389277362"><ele>316.0</ele><time>2026-04-11T07:22:50Z</time></trkpt><trkpt lat="43.4340948031005" lon="11.420214020620826"><ele>316.0</ele><time>2026-04-11T07:22:51Z</time></trkpt><trkpt lat="43.4340385593505" lon="11.420288618845937"><ele>316.0</ele><time>2026-04-11T07:22:52Z</time></trkpt><trkpt lat="43.43397725357719" lon="11.420360626716024"><ele>316.0</ele><time>2026-04-11T07:22:53Z</time></trkpt><trkpt lat="43.43390882192378" lon="11.42042656147419"><ele>316.0</ele><time>2026-04-11T07:22:54Z</time></trkpt><trkpt lat="43.433849154979185" lon="11.420503216312277"><ele>316.0</ele><time>2026-04-11T07:22:55Z</time></trkpt><trkpt lat="43.433790008216" lon="11.420585756282712"><ele>316.0</ele><time>2026-04-11T07:22:56Z</time></trkpt><trkpt lat="43.43372796228814" lon="11.420667181996428"><ele>313.8333333333333</ele><time>2026-04-11T07:22:57Z</time></trkpt><trkpt lat="43.433662428508555" lon="11.42074310495073"><ele>311.66666666666663</ele><time>2026-04-11T07:22:58Z</time></trkpt><trkpt lat="43.43359510706293" lon="11.420815784360574"><ele>309.5</ele><time>2026-04-11T07:22:59Z</time></trkpt><trkpt lat="43.433517931275254" lon="11.420869744862085"><ele>307.3333333333333</ele><time>2026-04-11T07:23:00Z</time></trkpt><trkpt lat="43.43343174889425" lon="11.420894780507249"><ele>305.1666666666667</ele><time>2026-04-11T07:23:01Z</time></trkpt><trkpt lat="43.433341232826706" lon="11.420880292885087"><ele>303.0</ele><time>2026-04-11T07:23:02Z</time></trkpt><trkpt lat="43.43325901491211" lon="11.420828309586307"><ele>303.0</ele><time>2026-04-11T07:23:03Z</time></trkpt><trkpt lat="43.433192152296584" lon="11.420745167493038"><ele>303.0</ele><time>2026-04-11T07:23:04Z</time></trkpt><trkpt lat="43.43313897730319" lon="11.420654269782501"><ele>303.0</ele><time>2026-04-11T07:23:05Z</time></trkpt><trkpt lat="43.43309507635938" lon="11.420547546854252"><ele>303.0</ele><time>2026-04-11T07:23:06Z</time></trkpt><trkpt lat="43.433054093511515" lon="11.420431307408279"><ele>303.0</ele><time>2026-04-11T07:23:07Z</time></trkpt><trkpt lat="43.43302212926308" lon="11.420330845944424"><ele>303.0</ele><time>2026-04-11T07:23:08Z</time></trkpt><trkpt lat="43.4329758709" lon="11.420227272577915"><ele>303.1666666666667</ele><time>2026-04-11T07:23:09Z</time></trkpt><trkpt lat="43.43293330227843" lon="11.420125139947718"><ele>303.3333333333333</ele><time>2026-04-11T07:23:10Z</time></trkpt><trkpt lat="43.43289204201681" lon="11.420023851201087"><ele>303.5</ele><time>2026-04-11T07:23:11Z</time></trkpt><trkpt lat="43.432853911164315" lon="11.419924999465163"><ele>303.66666666666663</ele><time>2026-04-11T07:23:12Z</time></trkpt><trkpt lat="43.43281193259502" lon="11.41982670895624"><ele>303.8333333333333</ele><time>2026-04-11T07:23:13Z</time></trkpt><trkpt lat="43.43276768456056" lon="11.419730412998966"><ele>304.0</ele><time>2026-04-11T07:23:14Z</time></trkpt><trkpt lat="43.432722797609046" lon="11.41963325443852"><ele>304.0</ele><time>2026-04-11T07:23:15Z</time></trkpt><trkpt lat="43.43267086152633" lon="11.419541972131242"><ele>304.0</ele><time>2026-04-11T07:23:16Z</time></trkpt><trkpt lat="43.43261716643178" lon="11.419459200291477"><ele>304.0</ele><time>2026-04-11T07:23:17Z</time></trkpt><trkpt lat="43.43256280912188" lon="11.419378370391172"><ele>304.0</ele><time>2026-04-11T07:23:18Z</time></trkpt><trkpt lat="43.43250682759577" lon="11.41930179159523"><ele>304.0</ele><time>2026-04-11T07:23:19Z</time></trkpt><trkpt lat="43.4324514070198" lon="11.419221323238231"><ele>304.0</ele><time>2026-04-11T07:23:20Z</time></trkpt><trkpt lat="43.43239865962311" lon="11.419141942002305"><ele>304.0</ele><time>2026-04-11T07:23:21Z</time></trkpt><trkpt lat="43.432348523716215" lon="11.419062357216896"><ele>304.0</ele><time>2026-04-11T07:23:22Z</time></trkpt><trkpt lat="43.43229626594968" lon="11.418988054402929"><ele>304.0</ele><time>2026-04-11T07:23:23Z</time></trkpt><trkpt lat="43.43225006650066" lon="11.41890589810996"><ele>304.0</ele><time>2026-04-11T07:23:24Z</time></trkpt><trkpt lat="43.432199490973474" lon="11.418829613341241"><ele>304.0</ele><time>2026-04-11T07:23:25Z</time></trkpt><trkpt lat="43.43214661603325" lon="11.418753844548847"><ele>304.0</ele><time>2026-04-11T07:23:26Z</time></trkpt><trkpt lat="43.432092594410705" lon="11.41868084287378"><ele>303.16666666666663</ele><time>2026-04-11T07:23:27Z</time></trkpt><trkpt lat="43.432037730866476" lon="11.418609718724248"><ele>302.3333333333333</ele><time>2026-04-11T07:23:28Z</time></trkpt><trkpt lat="43.4319857639284" lon="11.41853319239269"><ele>301.5</ele><time>2026-04-11T07:23:29Z</time></trkpt><trkpt lat="43.431936527097314" lon="11.418451641443616"><ele>300.6666666666667</ele><time>2026-04-11T07:23:30Z</time></trkpt><trkpt lat="43.43188745399335" lon="11.418368703260903"><ele>299.83333333333337</ele><time>2026-04-11T07:23:31Z</time></trkpt><trkpt lat="43.43183484778073" lon="11.418292013284432"><ele>299.0</ele><time>2026-04-11T07:23:32Z</time></trkpt><trkpt lat="43.43178187913053" lon="11.418215754885725"><ele>299.0</ele><time>2026-04-11T07:23:33Z</time></trkpt><trkpt lat="43.43173022711353" lon="11.418140764969008"><ele>299.0</ele><time>2026-04-11T07:23:34Z</time></trkpt><trkpt lat="43.431680476385814" lon="11.418064117928118"><ele>299.0</ele><time>2026-04-11T07:23:35Z</time></trkpt><trkpt lat="43.43163099854244" lon="11.41799392470187"><ele>299.0</ele><time>2026-04-11T07:23:36Z</time></trkpt><trkpt lat="43.43158465691525" lon="11.417926220349358"><ele>299.0</ele><time>2026-04-11T07:23:37Z</time></trkpt><trkpt lat="43.431539003064884" lon="11.417859911575903"><ele>299.0</ele><time>2026-04-11T07:23:37.999Z</time></trkpt><trkpt lat="43.43149750742366" lon="11.417792298884242"><ele>299.0</ele><time>2026-04-11T07:23:38.999Z</time></trkpt><trkpt lat="43.43145578592454" lon="11.417726984631065"><ele>299.4</ele><time>2026-04-11T07:23:39.999Z</time></trkpt><trkpt lat="43.4313668459195" lon="11.417614685300585"><ele>299.79999999999995</ele><time>2026-04-11T07:23:41.999Z</time></trkpt><trkpt lat="43.431251360277884" lon="11.417579350207513"><ele>300.20000000000005</ele><time>2026-04-11T07:23:43.999Z</time></trkpt><trkpt lat="43.431187787067515" lon="11.41761872470525"><ele>300.6</ele><time>2026-04-11T07:23:44.999Z</time></trkpt><trkpt lat="43.43112369436082" lon="11.417668423439535"><ele>301.0</ele><time>2026-04-11T07:23:45.999Z</time></trkpt><trkpt lat="43.431063927436995" lon="11.417718485041982"><ele>301.0</ele><time>2026-04-11T07:23:46.999Z</time></trkpt><trkpt lat="43.431006315450276" lon="11.41776348607889"><ele>301.0</ele><time>2026-04-11T07:23:47.999Z</time></trkpt><trkpt lat="43.43094426746603" lon="11.417806751777414"><ele>301.0</ele><time>2026-04-11T07:23:48.999Z</time></trkpt><trkpt lat="43.430885503337066" lon="11.417849279658455"><ele>301.0</ele><time>2026-04-11T07:23:49.999Z</time></trkpt><trkpt lat="43.430828505710615" lon="11.41789342535157"><ele>301.0</ele><time>2026-04-11T07:23:50.999Z</time></trkpt><trkpt lat="43.43077006123809" lon="11.41793897919335"><ele>301.0</ele><time>2026-04-11T07:23:51.999Z</time></trkpt><trkpt lat="43.43071050651815" lon="11.41798068739784"><ele>301.0</ele><time>2026-04-11T07:23:52.999Z</time></trkpt><trkpt lat="43.43065147959478" lon="11.418023891357004"><ele>301.14285714285717</ele><time>2026-04-11T07:23:53.999Z</time></trkpt><trkpt lat="43.43058896431641" lon="11.418065418110062"><ele>301.2857142857143</ele><time>2026-04-11T07:23:54.999Z</time></trkpt><trkpt lat="43.430531454619704" lon="11.41810782708363"><ele>301.42857142857144</ele><time>2026-04-11T07:23:55.999Z</time></trkpt><trkpt lat="43.43047201690392" lon="11.4181479215974"><ele>301.57142857142856</ele><time>2026-04-11T07:23:56.999Z</time></trkpt><trkpt lat="43.43041353323949" lon="11.418186551028283"><ele>301.7142857142857</ele><time>2026-04-11T07:23:57.999Z</time></trkpt><trkpt lat="43.4303564494878" lon="11.418229993042264"><ele>301.8571428571429</ele><time>2026-04-11T07:23:58.999Z</time></trkpt><trkpt lat="43.4303010296951" lon="11.418275296645731"><ele>302.0</ele><time>2026-04-11T07:23:59.999Z</time></trkpt><trkpt lat="43.43024078130294" lon="11.418324038733152"><ele>302.00000000000006</ele><time>2026-04-11T07:24:00.999Z</time></trkpt><trkpt lat="43.4301833703529" lon="11.418366117275324"><ele>302.0</ele><time>2026-04-11T07:24:01.999Z</time></trkpt><trkpt lat="43.430119910999366" lon="11.418404905936013"><ele>302.0</ele><time>2026-04-11T07:24:02.999Z</time></trkpt><trkpt lat="43.430061610307455" lon="11.41844872992908"><ele>302.0</ele><time>2026-04-11T07:24:03.999Z</time></trkpt><trkpt lat="43.43000045955335" lon="11.4184937297981"><ele>302.0</ele><time>2026-04-11T07:24:04.999Z</time></trkpt><trkpt lat="43.42994253685476" lon="11.418539231670858"><ele>302.00000000000006</ele><time>2026-04-11T07:24:05.999Z</time></trkpt><trkpt lat="43.42988217354759" lon="11.41858178865413"><ele>302.0</ele><time>2026-04-11T07:24:06.999Z</time></trkpt><trkpt lat="43.429819975189375" lon="11.418623420822325"><ele>302.0</ele><time>2026-04-11T07:24:07.999Z</time></trkpt><trkpt lat="43.42976073446653" lon="11.4186690316601"><ele>302.0</ele><time>2026-04-11T07:24:08.999Z</time></trkpt><trkpt lat="43.42970353377787" lon="11.418715998128414"><ele>302.0</ele><time>2026-04-11T07:24:09.999Z</time></trkpt><trkpt lat="43.42964385940574" lon="11.41875998970251"><ele>302.0</ele><time>2026-04-11T07:24:10.999Z</time></trkpt><trkpt lat="43.429585584529214" lon="11.418802075348301"><ele>302.0</ele><time>2026-04-11T07:24:11.999Z</time></trkpt><trkpt lat="43.429472300472646" lon="11.418878695017138"><ele>302.0</ele><time>2026-04-11T07:24:13.999Z</time></trkpt><trkpt lat="43.42936875002203" lon="11.418940670912562"><ele>303.6</ele><time>2026-04-11T07:24:15.999Z</time></trkpt><trkpt lat="43.4293022116586" lon="11.418973507418256"><ele>305.2</ele><time>2026-04-11T07:24:16.999Z</time></trkpt><trkpt lat="43.42918646661687" lon="11.419027046485832"><ele>306.8</ele><time>2026-04-11T07:24:18.999Z</time></trkpt><trkpt lat="43.429064116796496" lon="11.419066691410942"><ele>308.4</ele><time>2026-04-11T07:24:20.999Z</time></trkpt><trkpt lat="43.4289501144375" lon="11.419100346471575"><ele>310.0</ele><time>2026-04-11T07:24:22.999Z</time></trkpt><trkpt lat="43.428852997812115" lon="11.41912519217665"><ele>310.2</ele><time>2026-04-11T07:24:24.999Z</time></trkpt><trkpt lat="43.42874926893499" lon="11.4191473215261"><ele>310.4</ele><time>2026-04-11T07:24:26.998Z</time></trkpt><trkpt lat="43.4286487842727" lon="11.419171528245196"><ele>310.6</ele><time>2026-04-11T07:24:28.998Z</time></trkpt><trkpt lat="43.42856391488304" lon="11.419211308592228"><ele>310.8</ele><time>2026-04-11T07:24:30.998Z</time></trkpt><trkpt lat="43.42847001365881" lon="11.419250506381259"><ele>311.0</ele><time>2026-04-11T07:24:32.998Z</time></trkpt><trkpt lat="43.42837798623304" lon="11.419304268870286"><ele>311.0</ele><time>2026-04-11T07:24:34.998Z</time></trkpt><trkpt lat="43.428288186744005" lon="11.419359996437853"><ele>311.0</ele><time>2026-04-11T07:24:36.998Z</time></trkpt><trkpt lat="43.42820225877717" lon="11.419425358192935"><ele>311.0</ele><time>2026-04-11T07:24:38.998Z</time></trkpt><trkpt lat="43.42812746274132" lon="11.419506977997576"><ele>311.0</ele><time>2026-04-11T07:24:40.998Z</time></trkpt><trkpt lat="43.428056882290456" lon="11.419597950070033"><ele>311.0</ele><time>2026-04-11T07:24:42.998Z</time></trkpt><trkpt lat="43.427993719402004" lon="11.419693724478948"><ele>311.40000000000003</ele><time>2026-04-11T07:24:44.998Z</time></trkpt><trkpt lat="43.42792544550486" lon="11.41978849591401"><ele>311.8</ele><time>2026-04-11T07:24:46.998Z</time></trkpt><trkpt lat="43.427859762840136" lon="11.419886621982593"><ele>312.20000000000005</ele><time>2026-04-11T07:24:48.998Z</time></trkpt><trkpt lat="43.4278050740822" lon="11.419997324304028"><ele>312.6</ele><time>2026-04-11T07:24:51Z</time></trkpt><trkpt lat="43.427766093114315" lon="11.420113660161537"><ele>313.0</ele><time>2026-04-11T07:24:53Z</time></trkpt><trkpt lat="43.42773325206835" lon="11.42023927920745"><ele>313.0</ele><time>2026-04-11T07:24:55Z</time></trkpt><trkpt lat="43.42775307892222" lon="11.420378019972745"><ele>313.0</ele><time>2026-04-11T07:24:57Z</time></trkpt><trkpt lat="43.42777866132002" lon="11.420508405878685"><ele>313.0</ele><time>2026-04-11T07:24:59Z</time></trkpt><trkpt lat="43.4278135915512" lon="11.420643024754721"><ele>313.0</ele><time>2026-04-11T07:25:01Z</time></trkpt><trkpt lat="43.4278400056619" lon="11.420759930996809"><ele>313.0</ele><time>2026-04-11T07:25:03Z</time></trkpt><trkpt lat="43.4278669846197" lon="11.420862016223406"><ele>312.66666666666663</ele><time>2026-04-11T07:25:05Z</time></trkpt><trkpt lat="43.42787667268445" lon="11.42095224272214"><ele>312.3333333333333</ele><time>2026-04-11T07:25:07Z</time></trkpt><trkpt lat="43.42789149682413" lon="11.421058099321336"><ele>312.0</ele><time>2026-04-11T07:25:09Z</time></trkpt><trkpt lat="43.427908494899484" lon="11.421156152495712"><ele>311.6666666666667</ele><time>2026-04-11T07:25:11Z</time></trkpt><trkpt lat="43.42790779778962" lon="11.421266919497226"><ele>311.33333333333337</ele><time>2026-04-11T07:25:14Z</time></trkpt><trkpt lat="43.42790062520021" lon="11.421375735290617"><ele>311.0</ele><time>2026-04-11T07:25:16Z</time></trkpt><trkpt lat="43.42789344682469" lon="11.421478447748713"><ele>310.83333333333337</ele><time>2026-04-11T07:25:19Z</time></trkpt><trkpt lat="43.42788466284455" lon="11.421587282724413"><ele>310.6666666666667</ele><time>2026-04-11T07:25:21Z</time></trkpt><trkpt lat="43.42787655166914" lon="11.421699399956095"><ele>310.5</ele><time>2026-04-11T07:25:23Z</time></trkpt><trkpt lat="43.42786680444823" lon="11.421798335411882"><ele>310.3333333333333</ele><time>2026-04-11T07:25:25Z</time></trkpt><trkpt lat="43.42784663029838" lon="11.42190090586112"><ele>310.16666666666663</ele><time>2026-04-11T07:25:28Z</time></trkpt><trkpt lat="43.42782892345691" lon="11.422003524320465"><ele>310.0</ele><time>2026-04-11T07:25:30Z</time></trkpt><trkpt lat="43.4277782945156" lon="11.422236777211042"><ele>311.3333333333333</ele><time>2026-04-11T07:25:33Z</time></trkpt><trkpt lat="43.427738253826" lon="11.42234090899943"><ele>312.66666666666663</ele><time>2026-04-11T07:25:35Z</time></trkpt><trkpt lat="43.42769379882847" lon="11.42244157864364"><ele>314.0</ele><time>2026-04-11T07:25:37Z</time></trkpt><trkpt lat="43.42764229816844" lon="11.422535842040972"><ele>315.3333333333333</ele><time>2026-04-11T07:25:39Z</time></trkpt><trkpt lat="43.42757470086508" lon="11.422632481371314"><ele>316.6666666666667</ele><time>2026-04-11T07:25:41Z</time></trkpt><trkpt lat="43.42749525675658" lon="11.422695924763415"><ele>318.0</ele><time>2026-04-11T07:25:43Z</time></trkpt><trkpt lat="43.42740525593987" lon="11.422726825443352"><ele>318.0</ele><time>2026-04-11T07:25:44.999Z</time></trkpt><trkpt lat="43.42731833245647" lon="11.422749869690586"><ele>318.0</ele><time>2026-04-11T07:25:46.999Z</time></trkpt><trkpt lat="43.427233647645515" lon="11.422818325542636"><ele>318.0</ele><time>2026-04-11T07:25:48.999Z</time></trkpt><trkpt lat="43.42714919979262" lon="11.42283706287363"><ele>318.0</ele><time>2026-04-11T07:25:50.999Z</time></trkpt><trkpt lat="43.42705648980935" lon="11.422847606030217"><ele>318.0</ele><time>2026-04-11T07:25:52.999Z</time></trkpt><trkpt lat="43.426963504617746" lon="11.422842570059956"><ele>317.3333333333333</ele><time>2026-04-11T07:25:54.999Z</time></trkpt><trkpt lat="43.42687268440609" lon="11.422840673267583"><ele>316.6666666666667</ele><time>2026-04-11T07:25:56.999Z</time></trkpt><trkpt lat="43.42679480946465" lon="11.422848125457177"><ele>316.0</ele><time>2026-04-11T07:25:58.999Z</time></trkpt><trkpt lat="43.426709078199735" lon="11.422870875963278"><ele>315.33333333333337</ele><time>2026-04-11T07:26:00.999Z</time></trkpt><trkpt lat="43.42662570810978" lon="11.422899816039752"><ele>314.6666666666667</ele><time>2026-04-11T07:26:02.999Z</time></trkpt><trkpt lat="43.42654152956717" lon="11.422918389832278"><ele>314.0</ele><time>2026-04-11T07:26:04.999Z</time></trkpt><trkpt lat="43.426450724114176" lon="11.422932455263943"><ele>314.0</ele><time>2026-04-11T07:26:06.999Z</time></trkpt><trkpt lat="43.42636611121977" lon="11.422968132195146"><ele>314.0</ele><time>2026-04-11T07:26:08.999Z</time></trkpt><trkpt lat="43.426274881841834" lon="11.423014594095616"><ele>314.0</ele><time>2026-04-11T07:26:10.999Z</time></trkpt><trkpt lat="43.4262042574532" lon="11.423084900112961"><ele>314.0</ele><time>2026-04-11T07:26:12.999Z</time></trkpt><trkpt lat="43.42617442120085" lon="11.4232041723635"><ele>314.0</ele><time>2026-04-11T07:26:14.999Z</time></trkpt><trkpt lat="43.42615917526205" lon="11.42333863438656"><ele>314.2</ele><time>2026-04-11T07:26:16.999Z</time></trkpt><trkpt lat="43.426176330554554" lon="11.423471120713803"><ele>314.4</ele><time>2026-04-11T07:26:18.999Z</time></trkpt><trkpt lat="43.42620916348773" lon="11.423593793583393"><ele>314.6</ele><time>2026-04-11T07:26:20.999Z</time></trkpt><trkpt lat="43.426240991078195" lon="11.423722680609309"><ele>314.8</ele><time>2026-04-11T07:26:22.999Z</time></trkpt><trkpt lat="43.4262648914972" lon="11.42385538407813"><ele>315.0</ele><time>2026-04-11T07:26:24.999Z</time></trkpt><trkpt lat="43.42629386313604" lon="11.423986726234862"><ele>317.8</ele><time>2026-04-11T07:26:26.999Z</time></trkpt><trkpt lat="43.42632658804402" lon="11.424116000185984"><ele>320.6</ele><time>2026-04-11T07:26:28.999Z</time></trkpt><trkpt lat="43.42635388713974" lon="11.42425287496561"><ele>323.4</ele><time>2026-04-11T07:26:30.999Z</time></trkpt><trkpt lat="43.42638360247314" lon="11.424394021291443"><ele>326.2</ele><time>2026-04-11T07:26:32.999Z</time></trkpt><trkpt lat="43.426410877677206" lon="11.424541549359812"><ele>329.0</ele><time>2026-04-11T07:26:34.999Z</time></trkpt><trkpt lat="43.42643640560452" lon="11.42469043751986"><ele>329.0</ele><time>2026-04-11T07:26:36.999Z</time></trkpt><trkpt lat="43.42646775567012" lon="11.424829830793872"><ele>329.0</ele><time>2026-04-11T07:26:38.998Z</time></trkpt><trkpt lat="43.42649463355598" lon="11.42496586035189"><ele>329.0</ele><time>2026-04-11T07:26:40.998Z</time></trkpt><trkpt lat="43.42652600944228" lon="11.425104181142217"><ele>329.0</ele><time>2026-04-11T07:26:42.998Z</time></trkpt><trkpt lat="43.426554162203004" lon="11.42525718288195"><ele>329.0</ele><time>2026-04-11T07:26:44.998Z</time></trkpt><trkpt lat="43.42657279800711" lon="11.42540094547183"><ele>329.2</ele><time>2026-04-11T07:26:46.998Z</time></trkpt><trkpt lat="43.42657990881201" lon="11.42555018468473"><ele>329.4</ele><time>2026-04-11T07:26:48.998Z</time></trkpt><trkpt lat="43.42657200214303" lon="11.425700186296778"><ele>329.6</ele><time>2026-04-11T07:26:50.998Z</time></trkpt><trkpt lat="43.426563458012936" lon="11.425848891306565"><ele>329.8</ele><time>2026-04-11T07:26:52.998Z</time></trkpt><trkpt lat="43.42655254219921" lon="11.425991233931649"><ele>330.0</ele><time>2026-04-11T07:26:54.998Z</time></trkpt><trkpt lat="43.42652546958555" lon="11.42614212189862"><ele>330.0</ele><time>2026-04-11T07:26:57Z</time></trkpt><trkpt lat="43.42650484581637" lon="11.426298308766142"><ele>330.0</ele><time>2026-04-11T07:26:59Z</time></trkpt><trkpt lat="43.426476862995024" lon="11.42644065483472"><ele>330.0</ele><time>2026-04-11T07:27:01Z</time></trkpt><trkpt lat="43.426441021446074" lon="11.426570120841893"><ele>330.0</ele><time>2026-04-11T07:27:03Z</time></trkpt><trkpt lat="43.426405929810855" lon="11.426700964646454"><ele>330.0</ele><time>2026-04-11T07:27:05Z</time></trkpt><trkpt lat="43.42635962394617" lon="11.426831136582365"><ele>330.2</ele><time>2026-04-11T07:27:07Z</time></trkpt><trkpt lat="43.42630891503149" lon="11.426957919859035"><ele>330.4</ele><time>2026-04-11T07:27:09Z</time></trkpt><trkpt lat="43.426239838269154" lon="11.427077842731514"><ele>330.6</ele><time>2026-04-11T07:27:11Z</time></trkpt><trkpt lat="43.42616618002451" lon="11.427182852840224"><ele>330.8</ele><time>2026-04-11T07:27:13Z</time></trkpt><trkpt lat="43.426083950849815" lon="11.4272734603948"><ele>331.0</ele><time>2026-04-11T07:27:15Z</time></trkpt><trkpt lat="43.42601485640155" lon="11.427380472819184"><ele>330.4</ele><time>2026-04-11T07:27:17Z</time></trkpt><trkpt lat="43.425955951930774" lon="11.427494518920009"><ele>329.8</ele><time>2026-04-11T07:27:19Z</time></trkpt><trkpt lat="43.425925307686654" lon="11.427631897796992"><ele>329.2</ele><time>2026-04-11T07:27:21Z</time></trkpt><trkpt lat="43.42591367488508" lon="11.427768598292692"><ele>328.59999999999997</ele><time>2026-04-11T07:27:23Z</time></trkpt><trkpt lat="43.425912051865765" lon="11.42790925839033"><ele>328.0</ele><time>2026-04-11T07:27:25Z</time></trkpt><trkpt lat="43.42592298914218" lon="11.428055745441233"><ele>328.0</ele><time>2026-04-11T07:27:27Z</time></trkpt><trkpt lat="43.42593841935773" lon="11.428200878001341"><ele>328.0</ele><time>2026-04-11T07:27:29Z</time></trkpt><trkpt lat="43.42593776551683" lon="11.428348880141863"><ele>328.0</ele><time>2026-04-11T07:27:31Z</time></trkpt><trkpt lat="43.425932959066486" lon="11.428485954810197"><ele>328.0</ele><time>2026-04-11T07:27:33Z</time></trkpt><trkpt lat="43.425930578778164" lon="11.428619820273406"><ele>328.0</ele><time>2026-04-11T07:27:35Z</time></trkpt><trkpt lat="43.42593566645194" lon="11.428752973167096"><ele>328.79999999999995</ele><time>2026-04-11T07:27:37Z</time></trkpt><trkpt lat="43.425935643277064" lon="11.428887082808043"><ele>329.6</ele><time>2026-04-11T07:27:39Z</time></trkpt><trkpt lat="43.42593708249785" lon="11.429025764793504"><ele>330.4</ele><time>2026-04-11T07:27:41Z</time></trkpt><trkpt lat="43.42594568019259" lon="11.429168598361763"><ele>331.20000000000005</ele><time>2026-04-11T07:27:43Z</time></trkpt><trkpt lat="43.4259411174899" lon="11.42930668914774"><ele>332.0</ele><time>2026-04-11T07:27:45Z</time></trkpt><trkpt lat="43.42594190578476" lon="11.429443877702463"><ele>332.0</ele><time>2026-04-11T07:27:47Z</time></trkpt><trkpt lat="43.42594479902189" lon="11.429580555600424"><ele>332.0</ele><time>2026-04-11T07:27:49Z</time></trkpt><trkpt lat="43.425943295798064" lon="11.429716183744075"><ele>332.0</ele><time>2026-04-11T07:27:51Z</time></trkpt><trkpt lat="43.42594056912083" lon="11.429825632293262"><ele>332.0</ele><time>2026-04-11T07:27:54Z</time></trkpt><trkpt lat="43.425931102509956" lon="11.429982874874918"><ele>332.0</ele><time>2026-04-11T07:27:54.999Z</time></trkpt><trkpt lat="43.42593484732183" lon="11.430120432884678"><ele>332.0</ele><time>2026-04-11T07:27:56.999Z</time></trkpt><trkpt lat="43.42592629438088" lon="11.43025914107524"><ele>332.0</ele><time>2026-04-11T07:27:58.999Z</time></trkpt><trkpt lat="43.42590833818829" lon="11.430403924069548"><ele>332.0</ele><time>2026-04-11T07:28:00.999Z</time></trkpt><trkpt lat="43.42588112342469" lon="11.430537327929832"><ele>332.0</ele><time>2026-04-11T07:28:02.999Z</time></trkpt><trkpt lat="43.42584508350401" lon="11.430662017636685"><ele>332.0</ele><time>2026-04-11T07:28:04.999Z</time></trkpt><trkpt lat="43.425805802754084" lon="11.430783466530677"><ele>332.40000000000003</ele><time>2026-04-11T07:28:06.999Z</time></trkpt><trkpt lat="43.42576202397268" lon="11.430907405639243"><ele>332.8</ele><time>2026-04-11T07:28:08.999Z</time></trkpt><trkpt lat="43.42572409891046" lon="11.43097974292512"><ele>333.2</ele><time>2026-04-11T07:28:09.999Z</time></trkpt><trkpt lat="43.42569084264211" lon="11.431054131698316"><ele>333.6</ele><time>2026-04-11T07:28:10.999Z</time></trkpt><trkpt lat="43.42563547854079" lon="11.431200816922823"><ele>334.0</ele><time>2026-04-11T07:28:12.999Z</time></trkpt><trkpt lat="43.42558477324354" lon="11.431342168448237"><ele>335.2</ele><time>2026-04-11T07:28:14.999Z</time></trkpt><trkpt lat="43.425545215056445" lon="11.431490309503625"><ele>336.4</ele><time>2026-04-11T07:28:16.999Z</time></trkpt><trkpt lat="43.42551120142849" lon="11.43162052525092"><ele>337.6</ele><time>2026-04-11T07:28:18.999Z</time></trkpt><trkpt lat="43.42546522311935" lon="11.431750923883646"><ele>338.8</ele><time>2026-04-11T07:28:20.999Z</time></trkpt><trkpt lat="43.42542935777821" lon="11.431867364365393"><ele>340.0</ele><time>2026-04-11T07:28:22.999Z</time></trkpt><trkpt lat="43.42537873678284" lon="11.431985599976628"><ele>340.0</ele><time>2026-04-11T07:28:24.999Z</time></trkpt><trkpt lat="43.42532933732486" lon="11.432107648718521"><ele>340.0</ele><time>2026-04-11T07:28:26.999Z</time></trkpt><trkpt lat="43.4252474815646" lon="11.432201583551377"><ele>340.0</ele><time>2026-04-11T07:28:28.999Z</time></trkpt><trkpt lat="43.42513971027573" lon="11.432237591415964"><ele>340.0</ele><time>2026-04-11T07:28:30.999Z</time></trkpt><trkpt lat="43.425041338094296" lon="11.432291765233966"><ele>340.0</ele><time>2026-04-11T07:28:32.999Z</time></trkpt><trkpt lat="43.42497754462147" lon="11.432390110295092"><ele>340.0</ele><time>2026-04-11T07:28:34.999Z</time></trkpt><trkpt lat="43.42492201267291" lon="11.432504872188412"><ele>340.0</ele><time>2026-04-11T07:28:36.999Z</time></trkpt><trkpt lat="43.42487715789123" lon="11.432625015963373"><ele>340.0</ele><time>2026-04-11T07:28:38.999Z</time></trkpt><trkpt lat="43.42484375459913" lon="11.432741596579103"><ele>340.0</ele><time>2026-04-11T07:28:40.999Z</time></trkpt><trkpt lat="43.42482086521914" lon="11.432840951640886"><ele>340.0</ele><time>2026-04-11T07:28:42.999Z</time></trkpt><trkpt lat="43.424774664934056" lon="11.432923389554825"><ele>340.0</ele><time>2026-04-11T07:28:44.998Z</time></trkpt><trkpt lat="43.4247390188469" lon="11.433012461856968"><ele>339.5</ele><time>2026-04-11T07:28:46.998Z</time></trkpt><trkpt lat="43.42469819915236" lon="11.433107388083158"><ele>339.0</ele><time>2026-04-11T07:28:48.998Z</time></trkpt><trkpt lat="43.424656939228385" lon="11.43320401243159"><ele>338.5</ele><time>2026-04-11T07:28:50.998Z</time></trkpt><trkpt lat="43.42461734149544" lon="11.433303434816736"><ele>338.0</ele><time>2026-04-11T07:28:52.998Z</time></trkpt><trkpt lat="43.424576576955374" lon="11.433400677825318"><ele>337.5</ele><time>2026-04-11T07:28:54.998Z</time></trkpt><trkpt lat="43.424545779620814" lon="11.433502530495813"><ele>337.0</ele><time>2026-04-11T07:28:56.998Z</time></trkpt><trkpt lat="43.42450753853435" lon="11.433605973824532"><ele>339.8</ele><time>2026-04-11T07:28:58.998Z</time></trkpt><trkpt lat="43.424478227061584" lon="11.433710382929142"><ele>342.6</ele><time>2026-04-11T07:29:00.998Z</time></trkpt><trkpt lat="43.424441885633364" lon="11.433815328647402"><ele>345.40000000000003</ele><time>2026-04-11T07:29:03Z</time></trkpt><trkpt lat="43.424417505763785" lon="11.433957556613862"><ele>348.20000000000005</ele><time>2026-04-11T07:29:06Z</time></trkpt><trkpt lat="43.42439088700675" lon="11.434057681609842"><ele>351.0</ele><time>2026-04-11T07:29:09Z</time></trkpt><trkpt lat="43.42438588479746" lon="11.434290727221681"><ele>351.0</ele><time>2026-04-11T07:29:12Z</time></trkpt><trkpt lat="43.424375888989644" lon="11.434394059277997"><ele>351.0</ele><time>2026-04-11T07:29:14Z</time></trkpt><trkpt lat="43.42436963407646" lon="11.434492248000574"><ele>351.0</ele><time>2026-04-11T07:29:16Z</time></trkpt><trkpt lat="43.42438020158342" lon="11.434596521913152"><ele>351.0</ele><time>2026-04-11T07:29:18Z</time></trkpt><trkpt lat="43.42440646687158" lon="11.434698044736741"><ele>351.0</ele><time>2026-04-11T07:29:20Z</time></trkpt><trkpt lat="43.42444608993678" lon="11.43479636375803"><ele>351.0</ele><time>2026-04-11T07:29:22Z</time></trkpt><trkpt lat="43.42449511399029" lon="11.434888408288135"><ele>350.6666666666667</ele><time>2026-04-11T07:29:24Z</time></trkpt><trkpt lat="43.424559316804725" lon="11.43496251137719"><ele>350.3333333333333</ele><time>2026-04-11T07:29:26Z</time></trkpt><trkpt lat="43.42462911400244" lon="11.435019904147007"><ele>350.0</ele><time>2026-04-11T07:29:28Z</time></trkpt><trkpt lat="43.42470429109141" lon="11.435070397722582"><ele>349.66666666666663</ele><time>2026-04-11T07:29:30Z</time></trkpt><trkpt lat="43.42477440509504" lon="11.43512540835789"><ele>349.3333333333333</ele><time>2026-04-11T07:29:32Z</time></trkpt><trkpt lat="43.42485624117818" lon="11.435166789686921"><ele>349.0</ele><time>2026-04-11T07:29:34Z</time></trkpt><trkpt lat="43.42491803734824" lon="11.43520495696927"><ele>349.4285714285714</ele><time>2026-04-11T07:29:36Z</time></trkpt><trkpt lat="43.42498122807942" lon="11.435261036518709"><ele>349.85714285714283</ele><time>2026-04-11T07:29:38Z</time></trkpt><trkpt lat="43.425046169487004" lon="11.435308172401232"><ele>350.2857142857143</ele><time>2026-04-11T07:29:40Z</time></trkpt><trkpt lat="43.42510647931029" lon="11.435349343703251"><ele>350.71428571428567</ele><time>2026-04-11T07:29:42Z</time></trkpt><trkpt lat="43.42516551989913" lon="11.43539834754906"><ele>351.1428571428571</ele><time>2026-04-11T07:29:44Z</time></trkpt><trkpt lat="43.42523624075592" lon="11.435458243512317"><ele>351.57142857142856</ele><time>2026-04-11T07:29:46Z</time></trkpt><trkpt lat="43.42529321208024" lon="11.435520680050407"><ele>352.0</ele><time>2026-04-11T07:29:48Z</time></trkpt><trkpt lat="43.425335089609554" lon="11.435605591827589"><ele>352.0</ele><time>2026-04-11T07:29:50Z</time></trkpt><trkpt lat="43.4253674050583" lon="11.435697491737912"><ele>352.0</ele><time>2026-04-11T07:29:52Z</time></trkpt><trkpt lat="43.42537501483149" lon="11.435802393703275"><ele>352.0</ele><time>2026-04-11T07:29:54Z</time></trkpt><trkpt lat="43.4253483771962" lon="11.435908261173651"><ele>352.0</ele><time>2026-04-11T07:29:56Z</time></trkpt><trkpt lat="43.42529618000815" lon="11.43599923117088"><ele>352.0</ele><time>2026-04-11T07:29:58Z</time></trkpt><trkpt lat="43.42524221173517" lon="11.43608142161131"><ele>352.0</ele><time>2026-04-11T07:29:59.999Z</time></trkpt><trkpt lat="43.42519218445449" lon="11.436150512765602"><ele>352.0</ele><time>2026-04-11T07:30:01.999Z</time></trkpt><trkpt lat="43.425138598071634" lon="11.436246949750714"><ele>352.0</ele><time>2026-04-11T07:30:04.999Z</time></trkpt><trkpt lat="43.42509146512494" lon="11.43634857784076"><ele>352.0</ele><time>2026-04-11T07:30:07.999Z</time></trkpt><trkpt lat="43.42506648030344" lon="11.436434091038944"><ele>352.0</ele><time>2026-04-11T07:30:09.999Z</time></trkpt><trkpt lat="43.42498282704007" lon="11.436527590803413"><ele>352.0</ele><time>2026-04-11T07:30:10.999Z</time></trkpt><trkpt lat="43.424969839596926" lon="11.436621844777953"><ele>352.0</ele><time>2026-04-11T07:30:12.999Z</time></trkpt><trkpt lat="43.424953955825295" lon="11.436715066334926"><ele>352.42857142857144</ele><time>2026-04-11T07:30:14.999Z</time></trkpt><trkpt lat="43.424936157613836" lon="11.436798226063312"><ele>352.85714285714283</ele><time>2026-04-11T07:30:16.999Z</time></trkpt><trkpt lat="43.42492969644835" lon="11.43689428132853"><ele>353.2857142857143</ele><time>2026-04-11T07:30:18.999Z</time></trkpt><trkpt lat="43.42492992941893" lon="11.436992007198473"><ele>353.7142857142857</ele><time>2026-04-11T07:30:20.999Z</time></trkpt><trkpt lat="43.424926778073825" lon="11.437123605864894"><ele>354.14285714285717</ele><time>2026-04-11T07:30:23.999Z</time></trkpt><trkpt lat="43.42492409502924" lon="11.437219428018306"><ele>354.57142857142856</ele><time>2026-04-11T07:30:25.999Z</time></trkpt><trkpt lat="43.42492926614495" lon="11.437316532129056"><ele>355.0</ele><time>2026-04-11T07:30:27.999Z</time></trkpt><trkpt lat="43.424958088784905" lon="11.43740732880861"><ele>355.0</ele><time>2026-04-11T07:30:29.999Z</time></trkpt><trkpt lat="43.42494666895815" lon="11.437557156534927"><ele>355.0</ele><time>2026-04-11T07:30:32.999Z</time></trkpt><trkpt lat="43.424972003782244" lon="11.437656718564304"><ele>355.0</ele><time>2026-04-11T07:30:34.999Z</time></trkpt><trkpt lat="43.42500069711267" lon="11.437828203592378"><ele>355.0</ele><time>2026-04-11T07:30:38.999Z</time></trkpt><trkpt lat="43.425020345363265" lon="11.43792757700834"><ele>355.0</ele><time>2026-04-11T07:30:40.999Z</time></trkpt><trkpt lat="43.425046405226745" lon="11.438023695796092"><ele>356.0</ele><time>2026-04-11T07:30:42.999Z</time></trkpt><trkpt lat="43.4250728820854" lon="11.438117820037"><ele>357.0</ele><time>2026-04-11T07:30:44.999Z</time></trkpt><trkpt lat="43.42509853937342" lon="11.438210422943829"><ele>358.0</ele><time>2026-04-11T07:30:46.999Z</time></trkpt><trkpt lat="43.4251219128204" lon="11.43830096272576"><ele>359.0</ele><time>2026-04-11T07:30:48.999Z</time></trkpt><trkpt lat="43.425133770009445" lon="11.438409531756173"><ele>360.0</ele><time>2026-04-11T07:30:50.998Z</time></trkpt><trkpt lat="43.42515921969747" lon="11.438519030899888"><ele>361.0</ele><time>2026-04-11T07:30:52.998Z</time></trkpt><trkpt lat="43.42518123958709" lon="11.4386273641671"><ele>361.0</ele><time>2026-04-11T07:30:54.998Z</time></trkpt><trkpt lat="43.42520770871184" lon="11.438734951628714"><ele>361.0</ele><time>2026-04-11T07:30:56.998Z</time></trkpt><trkpt lat="43.425227793987425" lon="11.438838073892299"><ele>361.0</ele><time>2026-04-11T07:30:58.998Z</time></trkpt><trkpt lat="43.425254917334776" lon="11.43894171684049"><ele>361.0</ele><time>2026-04-11T07:31:00.998Z</time></trkpt><trkpt lat="43.425285651760376" lon="11.43904855035337"><ele>361.0</ele><time>2026-04-11T07:31:02.998Z</time></trkpt><trkpt lat="43.42532176339363" lon="11.439147824736008"><ele>361.0</ele><time>2026-04-11T07:31:04.998Z</time></trkpt><trkpt lat="43.42537852727797" lon="11.439238561239646"><ele>359.8</ele><time>2026-04-11T07:31:06.998Z</time></trkpt><trkpt lat="43.42544947430721" lon="11.439295504950483"><ele>358.6</ele><time>2026-04-11T07:31:09Z</time></trkpt><trkpt lat="43.42557754092727" lon="11.439308309246503"><ele>357.4</ele><time>2026-04-11T07:31:12Z</time></trkpt><trkpt lat="43.42565429534333" lon="11.439315733351412"><ele>356.2</ele><time>2026-04-11T07:31:14Z</time></trkpt><trkpt lat="43.42572998110357" lon="11.439323287521322"><ele>355.0</ele><time>2026-04-11T07:31:16Z</time></trkpt><trkpt lat="43.425882596017246" lon="11.439327913337586"><ele>355.0</ele><time>2026-04-11T07:31:20Z</time></trkpt><trkpt lat="43.42594842743986" lon="11.43937767167409"><ele>355.0</ele><time>2026-04-11T07:31:22Z</time></trkpt><trkpt lat="43.42601191240314" lon="11.439443284869851"><ele>355.0</ele><time>2026-04-11T07:31:24Z</time></trkpt><trkpt lat="43.42605814889784" lon="11.439526414878854"><ele>355.0</ele><time>2026-04-11T07:31:26Z</time></trkpt><trkpt lat="43.42609071566039" lon="11.439623372934676"><ele>355.0</ele><time>2026-04-11T07:31:28Z</time></trkpt><trkpt lat="43.42611117846434" lon="11.43972093442093"><ele>355.0</ele><time>2026-04-11T07:31:30Z</time></trkpt><trkpt lat="43.42612417623731" lon="11.439823401078842"><ele>356.0</ele><time>2026-04-11T07:31:32Z</time></trkpt><trkpt lat="43.426129946855944" lon="11.43992819573911"><ele>357.0</ele><time>2026-04-11T07:31:34Z</time></trkpt><trkpt lat="43.42613839769087" lon="11.440035149282025"><ele>358.0</ele><time>2026-04-11T07:31:36Z</time></trkpt><trkpt lat="43.42614155021696" lon="11.440138309467626"><ele>359.0</ele><time>2026-04-11T07:31:38Z</time></trkpt><trkpt lat="43.426149233796394" lon="11.440241537959743"><ele>360.0</ele><time>2026-04-11T07:31:40Z</time></trkpt><trkpt lat="43.426149670766534" lon="11.44034539885941"><ele>361.0</ele><time>2026-04-11T07:31:42Z</time></trkpt><trkpt lat="43.426159492649035" lon="11.440450337481213"><ele>361.8333333333333</ele><time>2026-04-11T07:31:44Z</time></trkpt><trkpt lat="43.42616316136662" lon="11.44055943981675"><ele>362.66666666666663</ele><time>2026-04-11T07:31:46Z</time></trkpt><trkpt lat="43.42617073142693" lon="11.440671456590186"><ele>363.5</ele><time>2026-04-11T07:31:48Z</time></trkpt><trkpt lat="43.42617694548678" lon="11.440781113759613"><ele>364.3333333333333</ele><time>2026-04-11T07:31:50Z</time></trkpt><trkpt lat="43.42617925913042" lon="11.440890463645843"><ele>365.1666666666667</ele><time>2026-04-11T07:31:52Z</time></trkpt><trkpt lat="43.42618105101642" lon="11.441001333282376"><ele>366.0</ele><time>2026-04-11T07:31:54Z</time></trkpt><trkpt lat="43.426181313693974" lon="11.441107118587967"><ele>366.0</ele><time>2026-04-11T07:31:56Z</time></trkpt><trkpt lat="43.42616724942498" lon="11.44122343101407"><ele>366.0</ele><time>2026-04-11T07:31:58Z</time></trkpt><trkpt lat="43.42613268446638" lon="11.441335309647236"><ele>366.0</ele><time>2026-04-11T07:32:00Z</time></trkpt><trkpt lat="43.42607000638043" lon="11.441430649355354"><ele>366.0</ele><time>2026-04-11T07:32:02Z</time></trkpt><trkpt lat="43.42598619256131" lon="11.441498712592393"><ele>366.0</ele><time>2026-04-11T07:32:04Z</time></trkpt><trkpt lat="43.42590126559004" lon="11.441552457520764"><ele>365.6</ele><time>2026-04-11T07:32:06Z</time></trkpt><trkpt lat="43.425810146334" lon="11.44160317876667"><ele>365.20000000000005</ele><time>2026-04-11T07:32:07.999Z</time></trkpt><trkpt lat="43.42571945477957" lon="11.441645270517613"><ele>364.79999999999995</ele><time>2026-04-11T07:32:09.999Z</time></trkpt><trkpt lat="43.42562539700809" lon="11.441689789886489"><ele>364.4</ele><time>2026-04-11T07:32:11.999Z</time></trkpt><trkpt lat="43.425531541899325" lon="11.441739838301086"><ele>364.0</ele><time>2026-04-11T07:32:13.999Z</time></trkpt><trkpt lat="43.425437480787394" lon="11.441789840613872"><ele>365.0</ele><time>2026-04-11T07:32:15.999Z</time></trkpt><trkpt lat="43.425346483675916" lon="11.441854630654165"><ele>366.0</ele><time>2026-04-11T07:32:17.999Z</time></trkpt><trkpt lat="43.42526384538282" lon="11.441924513171294"><ele>367.0</ele><time>2026-04-11T07:32:19.999Z</time></trkpt><trkpt lat="43.42517932942191" lon="11.442002435524573"><ele>368.0</ele><time>2026-04-11T07:32:21.999Z</time></trkpt><trkpt lat="43.425123052617586" lon="11.44210495708108"><ele>369.0</ele><time>2026-04-11T07:32:23.999Z</time></trkpt><trkpt lat="43.42507581837667" lon="11.442206632144847"><ele>369.0</ele><time>2026-04-11T07:32:25.999Z</time></trkpt><trkpt lat="43.42503017736562" lon="11.44231926715201"><ele>369.0</ele><time>2026-04-11T07:32:27.999Z</time></trkpt><trkpt lat="43.42499044749019" lon="11.442430632330215"><ele>369.0</ele><time>2026-04-11T07:32:29.999Z</time></trkpt><trkpt lat="43.424983475888695" lon="11.442562727590879"><ele>369.0</ele><time>2026-04-11T07:32:31.999Z</time></trkpt><trkpt lat="43.42495157852251" lon="11.442676888613537"><ele>369.0</ele><time>2026-04-11T07:32:33.999Z</time></trkpt><trkpt lat="43.42492370806324" lon="11.44278862785378"><ele>369.0</ele><time>2026-04-11T07:32:35.999Z</time></trkpt><trkpt lat="43.424902206970785" lon="11.442898464293979"><ele>369.0</ele><time>2026-04-11T07:32:37.999Z</time></trkpt><trkpt lat="43.424892235103236" lon="11.443008210223574"><ele>369.0</ele><time>2026-04-11T07:32:39.999Z</time></trkpt><trkpt lat="43.42488645756836" lon="11.443120032554344"><ele>369.0</ele><time>2026-04-11T07:32:41.999Z</time></trkpt><trkpt lat="43.42488438204442" lon="11.443232020939899"><ele>369.0</ele><time>2026-04-11T07:32:43.999Z</time></trkpt><trkpt lat="43.424874872361436" lon="11.44334519854635"><ele>369.0</ele><time>2026-04-11T07:32:45.999Z</time></trkpt><trkpt lat="43.424870379135186" lon="11.4434571587628"><ele>368.8333333333333</ele><time>2026-04-11T07:32:47.999Z</time></trkpt><trkpt lat="43.424864620754526" lon="11.443570868416893"><ele>368.6666666666667</ele><time>2026-04-11T07:32:49.999Z</time></trkpt><trkpt lat="43.42485349811163" lon="11.44368505594366"><ele>368.5</ele><time>2026-04-11T07:32:51.999Z</time></trkpt><trkpt lat="43.42482521743727" lon="11.443791147443841"><ele>368.33333333333337</ele><time>2026-04-11T07:32:53.999Z</time></trkpt><trkpt lat="43.42479268600128" lon="11.443885369650243"><ele>368.1666666666667</ele><time>2026-04-11T07:32:55.999Z</time></trkpt><trkpt lat="43.424752970400384" lon="11.443966938367481"><ele>368.0</ele><time>2026-04-11T07:32:57.998Z</time></trkpt><trkpt lat="43.42469951203735" lon="11.444043990740461"><ele>367.7142857142857</ele><time>2026-04-11T07:32:59.998Z</time></trkpt><trkpt lat="43.42464657466497" lon="11.444106565867926"><ele>367.4285714285714</ele><time>2026-04-11T07:33:01.998Z</time></trkpt><trkpt lat="43.42459164261896" lon="11.444176985769664"><ele>367.1428571428571</ele><time>2026-04-11T07:33:03.998Z</time></trkpt><trkpt lat="43.42454011662078" lon="11.444246026047043"><ele>366.8571428571429</ele><time>2026-04-11T07:33:05.998Z</time></trkpt><trkpt lat="43.42449532971916" lon="11.444314416626648"><ele>366.57142857142856</ele><time>2026-04-11T07:33:07.998Z</time></trkpt><trkpt lat="43.42445167121476" lon="11.444389253070867"><ele>366.2857142857143</ele><time>2026-04-11T07:33:09.998Z</time></trkpt><trkpt lat="43.42441442299539" lon="11.444473956027473"><ele>366.0</ele><time>2026-04-11T07:33:11.998Z</time></trkpt><trkpt lat="43.42437330766274" lon="11.44455661192341"><ele>368.3333333333333</ele><time>2026-04-11T07:33:13.998Z</time></trkpt><trkpt lat="43.424324118476086" lon="11.444643501424618"><ele>370.6666666666667</ele><time>2026-04-11T07:33:16Z</time></trkpt><trkpt lat="43.42428064764991" lon="11.444735519661794"><ele>373.0</ele><time>2026-04-11T07:33:18Z</time></trkpt><trkpt lat="43.42423987788238" lon="11.444820002752975"><ele>375.33333333333337</ele><time>2026-04-11T07:33:20Z</time></trkpt><trkpt lat="43.42420872223903" lon="11.444900018014428"><ele>377.6666666666667</ele><time>2026-04-11T07:33:22Z</time></trkpt><trkpt lat="43.42418398652526" lon="11.444981834991925"><ele>380.0</ele><time>2026-04-11T07:33:24Z</time></trkpt><trkpt lat="43.424139053073176" lon="11.445093728409406"><ele>380.0</ele><time>2026-04-11T07:33:27Z</time></trkpt><trkpt lat="43.424102294285944" lon="11.445167149085997"><ele>380.0</ele><time>2026-04-11T07:33:29Z</time></trkpt><trkpt lat="43.42406350722937" lon="11.445247008600328"><ele>380.0</ele><time>2026-04-11T07:33:31Z</time></trkpt><trkpt lat="43.4240306477037" lon="11.445330958598495"><ele>380.0</ele><time>2026-04-11T07:33:33Z</time></trkpt><trkpt lat="43.42399422040096" lon="11.445419263638733"><ele>380.0</ele><time>2026-04-11T07:33:35Z</time></trkpt><trkpt lat="43.42395914191799" lon="11.44550610064241"><ele>380.0</ele><time>2026-04-11T07:33:37Z</time></trkpt><trkpt lat="43.42393115527768" lon="11.445597892219721"><ele>380.0</ele><time>2026-04-11T07:33:39Z</time></trkpt><trkpt lat="43.42391010884113" lon="11.445690272323672"><ele>380.0</ele><time>2026-04-11T07:33:41Z</time></trkpt><trkpt lat="43.42390639795337" lon="11.445783540558896"><ele>380.0</ele><time>2026-04-11T07:33:43Z</time></trkpt><trkpt lat="43.42392281255747" lon="11.445878270821733"><ele>380.0</ele><time>2026-04-11T07:33:45Z</time></trkpt><trkpt lat="43.423959233248524" lon="11.445964208079536"><ele>380.0</ele><time>2026-04-11T07:33:47Z</time></trkpt><trkpt lat="43.42401617580285" lon="11.44604102793315"><ele>380.0</ele><time>2026-04-11T07:33:49Z</time></trkpt><trkpt lat="43.42408709092802" lon="11.446082019867152"><ele>380.0</ele><time>2026-04-11T07:33:51Z</time></trkpt><trkpt lat="43.424150553092716" lon="11.44611884975493"><ele>380.0</ele><time>2026-04-11T07:33:53Z</time></trkpt><trkpt lat="43.424228405315645" lon="11.446157572869142"><ele>380.0</ele><time>2026-04-11T07:33:55Z</time></trkpt><trkpt lat="43.4243040837013" lon="11.446195074717446"><ele>380.0</ele><time>2026-04-11T07:33:57Z</time></trkpt><trkpt lat="43.42436498290745" lon="11.446262581209478"><ele>380.0</ele><time>2026-04-11T07:33:59Z</time></trkpt><trkpt lat="43.42442692875988" lon="11.446324093012114"><ele>380.0</ele><time>2026-04-11T07:34:01Z</time></trkpt><trkpt lat="43.42446669834605" lon="11.446405860120475"><ele>380.0</ele><time>2026-04-11T07:34:03Z</time></trkpt><trkpt lat="43.42449081909508" lon="11.446486892412404"><ele>380.0</ele><time>2026-04-11T07:34:05Z</time></trkpt><trkpt lat="43.424514475629564" lon="11.44658747452421"><ele>380.0</ele><time>2026-04-11T07:34:08Z</time></trkpt><trkpt lat="43.424532263616875" lon="11.446744860852242"><ele>381.6666666666667</ele><time>2026-04-11T07:34:10Z</time></trkpt><trkpt lat="43.42452069716694" lon="11.44685701133788"><ele>383.33333333333337</ele><time>2026-04-11T07:34:14Z</time></trkpt><trkpt lat="43.42451133623266" lon="11.446983761736881"><ele>385.0</ele><time>2026-04-11T07:34:16.999Z</time></trkpt><trkpt lat="43.42448746503591" lon="11.44711295169317"><ele>386.6666666666667</ele><time>2026-04-11T07:34:19.999Z</time></trkpt><trkpt lat="43.42446077990792" lon="11.447191704273115"><ele>388.3333333333333</ele><time>2026-04-11T07:34:21.999Z</time></trkpt><trkpt lat="43.4244186051284" lon="11.447320500385542"><ele>390.0</ele><time>2026-04-11T07:34:23.999Z</time></trkpt><trkpt lat="43.42437665472129" lon="11.4473944419042"><ele>390.6666666666667</ele><time>2026-04-11T07:34:25.999Z</time></trkpt><trkpt lat="43.424331877090204" lon="11.447478182189927"><ele>391.33333333333337</ele><time>2026-04-11T07:34:27.999Z</time></trkpt><trkpt lat="43.424271637253845" lon="11.447554756814409"><ele>392.0</ele><time>2026-04-11T07:34:29.999Z</time></trkpt><trkpt lat="43.4242138063504" lon="11.44762120443924"><ele>392.6666666666667</ele><time>2026-04-11T07:34:31.999Z</time></trkpt><trkpt lat="43.42415520477652" lon="11.447689465042174"><ele>393.33333333333337</ele><time>2026-04-11T07:34:33.999Z</time></trkpt><trkpt lat="43.424093378647" lon="11.447755061139505"><ele>394.0</ele><time>2026-04-11T07:34:35.999Z</time></trkpt><trkpt lat="43.42403031495435" lon="11.447820112930213"><ele>394.00000000000006</ele><time>2026-04-11T07:34:37.999Z</time></trkpt><trkpt lat="43.42396343138171" lon="11.447914783454971"><ele>394.0</ele><time>2026-04-11T07:34:40.999Z</time></trkpt><trkpt lat="43.42391104568762" lon="11.448003431221327"><ele>394.0</ele><time>2026-04-11T07:34:42.999Z</time></trkpt><trkpt lat="43.42388573368909" lon="11.448100278112898"><ele>394.0</ele><time>2026-04-11T07:34:44.999Z</time></trkpt><trkpt lat="43.423877544222215" lon="11.448197078889569"><ele>394.00000000000006</ele><time>2026-04-11T07:34:47.999Z</time></trkpt><trkpt lat="43.423839498216005" lon="11.448346012976303"><ele>394.0</ele><time>2026-04-11T07:34:48.999Z</time></trkpt><trkpt lat="43.42385627392965" lon="11.44845704299903"><ele>393.6666666666667</ele><time>2026-04-11T07:34:50.999Z</time></trkpt><trkpt lat="43.42388667180542" lon="11.448559166055832"><ele>393.33333333333337</ele><time>2026-04-11T07:34:52.999Z</time></trkpt><trkpt lat="43.42391517604441" lon="11.448670606281697"><ele>393.0</ele><time>2026-04-11T07:34:54.999Z</time></trkpt><trkpt lat="43.423943072487624" lon="11.448778086842347"><ele>392.66666666666663</ele><time>2026-04-11T07:34:56.999Z</time></trkpt><trkpt lat="43.4239655095821" lon="11.44889037230071"><ele>392.3333333333333</ele><time>2026-04-11T07:34:58.999Z</time></trkpt><trkpt lat="43.423986057000015" lon="11.449007086880954"><ele>392.0</ele><time>2026-04-11T07:35:00.999Z</time></trkpt><trkpt lat="43.424003309173244" lon="11.449131687694834"><ele>392.0</ele><time>2026-04-11T07:35:02.999Z</time></trkpt><trkpt lat="43.424001954784224" lon="11.449262038140747"><ele>392.0</ele><time>2026-04-11T07:35:04.999Z</time></trkpt><trkpt lat="43.42406740528496" lon="11.449407508131904"><ele>392.0</ele><time>2026-04-11T07:35:06.998Z</time></trkpt><trkpt lat="43.42404591796372" lon="11.449522847962296"><ele>392.0</ele><time>2026-04-11T07:35:08.998Z</time></trkpt><trkpt lat="43.424021247818324" lon="11.44963883425057"><ele>392.0</ele><time>2026-04-11T07:35:10.998Z</time></trkpt><trkpt lat="43.423957151990315" lon="11.449734069771555"><ele>390.40000000000003</ele><time>2026-04-11T07:35:12.998Z</time></trkpt><trkpt lat="43.423904743314246" lon="11.449839943192098"><ele>388.8</ele><time>2026-04-11T07:35:14.998Z</time></trkpt><trkpt lat="43.42384813224627" lon="11.449939929952997"><ele>387.2</ele><time>2026-04-11T07:35:16.998Z</time></trkpt><trkpt lat="43.423770515448126" lon="11.45002524092328"><ele>385.6</ele><time>2026-04-11T07:35:18.998Z</time></trkpt><trkpt lat="43.42370428537268" lon="11.450117398234042"><ele>384.0</ele><time>2026-04-11T07:35:21Z</time></trkpt><trkpt lat="43.42363049775948" lon="11.450211639247842"><ele>386.6</ele><time>2026-04-11T07:35:23Z</time></trkpt><trkpt lat="43.42357156377477" lon="11.450309165456016"><ele>389.2</ele><time>2026-04-11T07:35:25Z</time></trkpt><trkpt lat="43.42350064865125" lon="11.45039917270514"><ele>391.8</ele><time>2026-04-11T07:35:27Z</time></trkpt><trkpt lat="43.42342999990781" lon="11.450483953923925"><ele>394.40000000000003</ele><time>2026-04-11T07:35:29Z</time></trkpt><trkpt lat="43.423368358939136" lon="11.450577840276145"><ele>397.0</ele><time>2026-04-11T07:35:31Z</time></trkpt><trkpt lat="43.42329691910693" lon="11.450654155100414"><ele>397.0</ele><time>2026-04-11T07:35:33Z</time></trkpt><trkpt lat="43.42322227398761" lon="11.450726802981073"><ele>397.0</ele><time>2026-04-11T07:35:35Z</time></trkpt><trkpt lat="43.423144228196534" lon="11.4508009868592"><ele>397.0</ele><time>2026-04-11T07:35:37Z</time></trkpt><trkpt lat="43.42307129226698" lon="11.450877532890766"><ele>397.0</ele><time>2026-04-11T07:35:39Z</time></trkpt><trkpt lat="43.422986444451304" lon="11.450947621165081"><ele>397.0</ele><time>2026-04-11T07:35:41Z</time></trkpt><trkpt lat="43.42290415589344" lon="11.451009806929006"><ele>396.83333333333337</ele><time>2026-04-11T07:35:43Z</time></trkpt><trkpt lat="43.42282498685566" lon="11.451073219231198"><ele>396.6666666666667</ele><time>2026-04-11T07:35:45Z</time></trkpt><trkpt lat="43.42274966630596" lon="11.451136702154216"><ele>396.5</ele><time>2026-04-11T07:35:47Z</time></trkpt><trkpt lat="43.42267205218729" lon="11.451191757918728"><ele>396.33333333333337</ele><time>2026-04-11T07:35:49Z</time></trkpt><trkpt lat="43.422588649698945" lon="11.45123878589051"><ele>396.1666666666667</ele><time>2026-04-11T07:35:51Z</time></trkpt><trkpt lat="43.422508820404246" lon="11.451279623409276"><ele>396.0</ele><time>2026-04-11T07:35:53Z</time></trkpt><trkpt lat="43.42241591387064" lon="11.451296291644896"><ele>396.0</ele><time>2026-04-11T07:35:55Z</time></trkpt><trkpt lat="43.4223277748809" lon="11.451317608688948"><ele>396.0</ele><time>2026-04-11T07:35:57Z</time></trkpt><trkpt lat="43.42224097735313" lon="11.451321125689288"><ele>396.0</ele><time>2026-04-11T07:35:59Z</time></trkpt><trkpt lat="43.42215578694976" lon="11.45133118829351"><ele>396.0</ele><time>2026-04-11T07:36:01Z</time></trkpt><trkpt lat="43.422071045507025" lon="11.451355656048468"><ele>396.0</ele><time>2026-04-11T07:36:03Z</time></trkpt><trkpt lat="43.42198934506695" lon="11.451374951955506"><ele>396.0</ele><time>2026-04-11T07:36:05Z</time></trkpt><trkpt lat="43.42190018575023" lon="11.451442136902328"><ele>402.4</ele><time>2026-04-11T07:36:07Z</time></trkpt><trkpt lat="43.421844641894765" lon="11.451546772584802"><ele>408.8</ele><time>2026-04-11T07:36:09Z</time></trkpt><trkpt lat="43.42180341239924" lon="11.451660633003549"><ele>415.19999999999993</ele><time>2026-04-11T07:36:10.999Z</time></trkpt><trkpt lat="43.421796226487444" lon="11.451781963334493"><ele>421.59999999999997</ele><time>2026-04-11T07:36:12.999Z</time></trkpt><trkpt lat="43.42180354528988" lon="11.451900857493362"><ele>428.0</ele><time>2026-04-11T07:36:14.999Z</time></trkpt><trkpt lat="43.421803928738875" lon="11.452023718196186"><ele>426.49999999999994</ele><time>2026-04-11T07:36:16.999Z</time></trkpt><trkpt lat="43.42180000779503" lon="11.452143965872697"><ele>425.0</ele><time>2026-04-11T07:36:18.999Z</time></trkpt><trkpt lat="43.421769344544444" lon="11.452251658791834"><ele>423.5</ele><time>2026-04-11T07:36:20.999Z</time></trkpt><trkpt lat="43.4217372353319" lon="11.452358804401078"><ele>422.0</ele><time>2026-04-11T07:36:22.998Z</time></trkpt><trkpt lat="43.421703504689006" lon="11.452462469275023"><ele>420.49999999999994</ele><time>2026-04-11T07:36:24.998Z</time></trkpt><trkpt lat="43.421670719753884" lon="11.452572155884145"><ele>419.0</ele><time>2026-04-11T07:36:26.998Z</time></trkpt><trkpt lat="43.42164052299427" lon="11.452677398677158"><ele>418.99999999999994</ele><time>2026-04-11T07:36:28.998Z</time></trkpt><trkpt lat="43.421620090105975" lon="11.452786916236132"><ele>419.0</ele><time>2026-04-11T07:36:30.998Z</time></trkpt><trkpt lat="43.4216076819217" lon="11.452897915754026"><ele>419.0</ele><time>2026-04-11T07:36:32.998Z</time></trkpt><trkpt lat="43.42163255266867" lon="11.453012817163295"><ele>419.0</ele><time>2026-04-11T07:36:34.998Z</time></trkpt><trkpt lat="43.42167713589623" lon="11.453114297754837"><ele>418.99999999999994</ele><time>2026-04-11T07:36:36.998Z</time></trkpt><trkpt lat="43.421728721831165" lon="11.453209332259762"><ele>419.0</ele><time>2026-04-11T07:36:38.998Z</time></trkpt><trkpt lat="43.4217779850983" lon="11.453306032699684"><ele>418.3333333333333</ele><time>2026-04-11T07:36:40.998Z</time></trkpt><trkpt lat="43.42182901452481" lon="11.453402141362522"><ele>417.66666666666663</ele><time>2026-04-11T07:36:42.998Z</time></trkpt><trkpt lat="43.42186963312114" lon="11.453503561532662"><ele>417.0</ele><time>2026-04-11T07:36:44.998Z</time></trkpt><trkpt lat="43.42189136590466" lon="11.453614533815513"><ele>416.33333333333337</ele><time>2026-04-11T07:36:46.998Z</time></trkpt><trkpt lat="43.42189064777274" lon="11.453729559152594"><ele>415.6666666666667</ele><time>2026-04-11T07:36:48.998Z</time></trkpt><trkpt lat="43.42187577273038" lon="11.453841601502331"><ele>415.0</ele><time>2026-04-11T07:36:50.998Z</time></trkpt><trkpt lat="43.42183991737711" lon="11.453940576184884"><ele>414.6666666666667</ele><time>2026-04-11T07:36:52.998Z</time></trkpt><trkpt lat="43.421796291508194" lon="11.454030051700348"><ele>414.33333333333337</ele><time>2026-04-11T07:36:54.998Z</time></trkpt><trkpt lat="43.421733044215756" lon="11.454109165834712"><ele>414.0</ele><time>2026-04-11T07:36:56.998Z</time></trkpt><trkpt lat="43.42167117543624" lon="11.454177776148525"><ele>413.66666666666663</ele><time>2026-04-11T07:36:58.998Z</time></trkpt><trkpt lat="43.42160740610141" lon="11.454240718346657"><ele>413.3333333333333</ele><time>2026-04-11T07:37:00.998Z</time></trkpt><trkpt lat="43.42154248312978" lon="11.454299194972348"><ele>413.0</ele><time>2026-04-11T07:37:02.998Z</time></trkpt><trkpt lat="43.42147722179275" lon="11.454356342470541"><ele>412.99999999999994</ele><time>2026-04-11T07:37:04.998Z</time></trkpt><trkpt lat="43.42140743976808" lon="11.454408701503748"><ele>413.0</ele><time>2026-04-11T07:37:06.998Z</time></trkpt><trkpt lat="43.421352796960115" lon="11.45445869658709"><ele>413.0</ele><time>2026-04-11T07:37:08.998Z</time></trkpt><trkpt lat="43.42126531419404" lon="11.454518353757472"><ele>413.0</ele><time>2026-04-11T07:37:11.998Z</time></trkpt><trkpt lat="43.42118802347901" lon="11.454581273296611"><ele>412.99999999999994</ele><time>2026-04-11T07:37:13.997Z</time></trkpt><trkpt lat="43.42112411253957" lon="11.454656525164728"><ele>413.0</ele><time>2026-04-11T07:37:15.997Z</time></trkpt><trkpt lat="43.42106312988669" lon="11.454733175262303"><ele>414.49999999999994</ele><time>2026-04-11T07:37:17.997Z</time></trkpt><trkpt lat="43.42100671306945" lon="11.454811644903222"><ele>416.0</ele><time>2026-04-11T07:37:19.997Z</time></trkpt><trkpt lat="43.42095873943041" lon="11.454897853514751"><ele>417.5</ele><time>2026-04-11T07:37:21.997Z</time></trkpt><trkpt lat="43.42091068691613" lon="11.454986038452985"><ele>419.0</ele><time>2026-04-11T07:37:23.997Z</time></trkpt><trkpt lat="43.42085585250017" lon="11.455072340161033"><ele>420.49999999999994</ele><time>2026-04-11T07:37:25.997Z</time></trkpt><trkpt lat="43.4208152576712" lon="11.45517149068059"><ele>422.0</ele><time>2026-04-11T07:37:27.999Z</time></trkpt><trkpt lat="43.42075458734769" lon="11.455249465810569"><ele>421.99999999999994</ele><time>2026-04-11T07:37:29.999Z</time></trkpt><trkpt lat="43.420688338943414" lon="11.455320030951967"><ele>422.0</ele><time>2026-04-11T07:37:31.999Z</time></trkpt><trkpt lat="43.420631550293315" lon="11.455396293654092"><ele>422.0</ele><time>2026-04-11T07:37:34Z</time></trkpt><trkpt lat="43.42057362411582" lon="11.45547153805727"><ele>422.0</ele><time>2026-04-11T07:37:36Z</time></trkpt><trkpt lat="43.420517867768865" lon="11.455549021849324"><ele>421.99999999999994</ele><time>2026-04-11T07:37:38Z</time></trkpt><trkpt lat="43.42046072458894" lon="11.455615785932125"><ele>422.0</ele><time>2026-04-11T07:37:40Z</time></trkpt><trkpt lat="43.42040773465083" lon="11.455692936836755"><ele>422.99999999999994</ele><time>2026-04-11T07:37:41.999Z</time></trkpt><trkpt lat="43.42034901812887" lon="11.455766002329861"><ele>424.0</ele><time>2026-04-11T07:37:43.999Z</time></trkpt><trkpt lat="43.42029318319153" lon="11.455844618877366"><ele>425.0</ele><time>2026-04-11T07:37:45.999Z</time></trkpt><trkpt lat="43.42023964822373" lon="11.455930531724253"><ele>426.0</ele><time>2026-04-11T07:37:47.999Z</time></trkpt><trkpt lat="43.42018617622158" lon="11.456008406972497"><ele>426.99999999999994</ele><time>2026-04-11T07:37:49.999Z</time></trkpt><trkpt lat="43.420133353405404" lon="11.456084882998992"><ele>428.0</ele><time>2026-04-11T07:37:51.999Z</time></trkpt><trkpt lat="43.42007624640182" lon="11.456156814452815"><ele>427.99999999999994</ele><time>2026-04-11T07:37:53.999Z</time></trkpt><trkpt lat="43.42002780952215" lon="11.456231638204637"><ele>428.0</ele><time>2026-04-11T07:37:55.999Z</time></trkpt><trkpt lat="43.41995688083322" lon="11.456313040807766"><ele>428.0</ele><time>2026-04-11T07:37:57.999Z</time></trkpt><trkpt lat="43.4199102498867" lon="11.456385880871698"><ele>428.0</ele><time>2026-04-11T07:37:59.999Z</time></trkpt><trkpt lat="43.41985158005606" lon="11.456466457832393"><ele>427.99999999999994</ele><time>2026-04-11T07:38:01.999Z</time></trkpt><trkpt lat="43.419795689733725" lon="11.456539302870404"><ele>428.0</ele><time>2026-04-11T07:38:03.999Z</time></trkpt><trkpt lat="43.4197381801553" lon="11.456612388022904"><ele>427.16666666666663</ele><time>2026-04-11T07:38:05.999Z</time></trkpt><trkpt lat="43.41967611008519" lon="11.456678677937118"><ele>426.3333333333333</ele><time>2026-04-11T07:38:07.999Z</time></trkpt><trkpt lat="43.4196073544982" lon="11.45673590952404"><ele>425.5</ele><time>2026-04-11T07:38:09.999Z</time></trkpt><trkpt lat="43.41952630424239" lon="11.456783404594995"><ele>424.66666666666663</ele><time>2026-04-11T07:38:11.999Z</time></trkpt><trkpt lat="43.419446525804155" lon="11.456810385356846"><ele>423.8333333333333</ele><time>2026-04-11T07:38:13.999Z</time></trkpt><trkpt lat="43.41935684503749" lon="11.45682488777816"><ele>423.0</ele><time>2026-04-11T07:38:15.999Z</time></trkpt><trkpt lat="43.4192745092624" lon="11.456858574027237"><ele>424.6666666666667</ele><time>2026-04-11T07:38:17.999Z</time></trkpt><trkpt lat="43.419189799936156" lon="11.456904287345004"><ele>426.33333333333337</ele><time>2026-04-11T07:38:19.999Z</time></trkpt><trkpt lat="43.419120553093016" lon="11.45697765079963"><ele>428.0</ele><time>2026-04-11T07:38:21.999Z</time></trkpt><trkpt lat="43.41907398530235" lon="11.457076188658975"><ele>429.6666666666667</ele><time>2026-04-11T07:38:23.999Z</time></trkpt><trkpt lat="43.41904590878853" lon="11.457188193057904"><ele>431.33333333333337</ele><time>2026-04-11T07:38:25.999Z</time></trkpt><trkpt lat="43.41902944106369" lon="11.45729378778444"><ele>433.0</ele><time>2026-04-11T07:38:27.999Z</time></trkpt><trkpt lat="43.419009942269355" lon="11.457410862464739"><ele>433.00000000000006</ele><time>2026-04-11T07:38:29.999Z</time></trkpt><trkpt lat="43.418986815567614" lon="11.45752697483206"><ele>433.0</ele><time>2026-04-11T07:38:31.998Z</time></trkpt><trkpt lat="43.41894184612963" lon="11.457627906972784"><ele>433.0</ele><time>2026-04-11T07:38:33.998Z</time></trkpt><trkpt lat="43.41887670145555" lon="11.457706557453553"><ele>433.0</ele><time>2026-04-11T07:38:35.998Z</time></trkpt><trkpt lat="43.41879857620309" lon="11.457769984351973"><ele>433.00000000000006</ele><time>2026-04-11T07:38:37.998Z</time></trkpt><trkpt lat="43.41872469429202" lon="11.457836210890143"><ele>433.0</ele><time>2026-04-11T07:38:39.998Z</time></trkpt><trkpt lat="43.418647341927645" lon="11.457899594312563"><ele>433.00000000000006</ele><time>2026-04-11T07:38:41.998Z</time></trkpt><trkpt lat="43.418573512467574" lon="11.457963532768417"><ele>433.0</ele><time>2026-04-11T07:38:43.998Z</time></trkpt><trkpt lat="43.41850133256384" lon="11.458026547004371"><ele>433.0</ele><time>2026-04-11T07:38:45.998Z</time></trkpt><trkpt lat="43.4184289897456" lon="11.458088830884527"><ele>433.0</ele><time>2026-04-11T07:38:47.998Z</time></trkpt><trkpt lat="43.418356447655455" lon="11.458149335935468"><ele>433.00000000000006</ele><time>2026-04-11T07:38:49.998Z</time></trkpt><trkpt lat="43.41827928856411" lon="11.458198718354705"><ele>433.0</ele><time>2026-04-11T07:38:51.998Z</time></trkpt><trkpt lat="43.41820348391914" lon="11.458250586305002"><ele>433.00000000000006</ele><time>2026-04-11T07:38:53.998Z</time></trkpt><trkpt lat="43.41813140425232" lon="11.458305437530134"><ele>433.0</ele><time>2026-04-11T07:38:55.998Z</time></trkpt><trkpt lat="43.41806113654426" lon="11.458339282244943"><ele>433.0</ele><time>2026-04-11T07:38:57.998Z</time></trkpt><trkpt lat="43.41798079550165" lon="11.458377803876418"><ele>433.0</ele><time>2026-04-11T07:38:59.998Z</time></trkpt><trkpt lat="43.417900302633576" lon="11.458393415099433"><ele>433.00000000000006</ele><time>2026-04-11T07:39:01.998Z</time></trkpt><trkpt lat="43.417814029470385" lon="11.458387516845784"><ele>433.0</ele><time>2026-04-11T07:39:03.998Z</time></trkpt><trkpt lat="43.4177352421107" lon="11.458348459540254"><ele>434.2</ele><time>2026-04-11T07:39:05.998Z</time></trkpt><trkpt lat="43.417643708783196" lon="11.458295802611456"><ele>435.4</ele><time>2026-04-11T07:39:07.998Z</time></trkpt><trkpt lat="43.417562541533506" lon="11.458236503430127"><ele>436.59999999999997</ele><time>2026-04-11T07:39:09.998Z</time></trkpt><trkpt lat="43.41748014195483" lon="11.458175249864333"><ele>437.79999999999995</ele><time>2026-04-11T07:39:11.998Z</time></trkpt><trkpt lat="43.41739598821967" lon="11.458118716184977"><ele>439.0</ele><time>2026-04-11T07:39:13.998Z</time></trkpt><trkpt lat="43.41731264625896" lon="11.458072073743557"><ele>439.00000000000006</ele><time>2026-04-11T07:39:15.998Z</time></trkpt><trkpt lat="43.41722783325931" lon="11.458047765494307"><ele>439.0</ele><time>2026-04-11T07:39:17.998Z</time></trkpt><trkpt lat="43.41714256350877" lon="11.458027770022072"><ele>439.0</ele><time>2026-04-11T07:39:19.998Z</time></trkpt><trkpt lat="43.417057961688705" lon="11.45800863718172"><ele>439.0</ele><time>2026-04-11T07:39:21.997Z</time></trkpt><trkpt lat="43.41696974749435" lon="11.458000405800222"><ele>439.00000000000006</ele><time>2026-04-11T07:39:23.997Z</time></trkpt><trkpt lat="43.41688709555063" lon="11.457980735284433"><ele>439.0</ele><time>2026-04-11T07:39:25.997Z</time></trkpt><trkpt lat="43.41680307271923" lon="11.457976128323361"><ele>439.33333333333337</ele><time>2026-04-11T07:39:27.997Z</time></trkpt><trkpt lat="43.41671715970289" lon="11.457972683573447"><ele>439.6666666666667</ele><time>2026-04-11T07:39:29.997Z</time></trkpt><trkpt lat="43.416631473255784" lon="11.457959418570217"><ele>440.0</ele><time>2026-04-11T07:39:32Z</time></trkpt><trkpt lat="43.4165502390319" lon="11.457966972954612"><ele>440.33333333333337</ele><time>2026-04-11T07:39:34Z</time></trkpt><trkpt lat="43.416466253619454" lon="11.45800950243826"><ele>440.6666666666667</ele><time>2026-04-11T07:39:36Z</time></trkpt><trkpt lat="43.4163870434421" lon="11.458059833013861"><ele>441.0</ele><time>2026-04-11T07:39:38Z</time></trkpt><trkpt lat="43.41631392053891" lon="11.458121663192445"><ele>441.8333333333333</ele><time>2026-04-11T07:39:40Z</time></trkpt><trkpt lat="43.41624180480457" lon="11.45817618006313"><ele>442.66666666666663</ele><time>2026-04-11T07:39:42Z</time></trkpt><trkpt lat="43.41618018127349" lon="11.45824661048716"><ele>443.5</ele><time>2026-04-11T07:39:44Z</time></trkpt><trkpt lat="43.41611924684411" lon="11.458324088205838"><ele>444.3333333333333</ele><time>2026-04-11T07:39:46Z</time></trkpt><trkpt lat="43.4160635097067" lon="11.458408121078289"><ele>445.16666666666663</ele><time>2026-04-11T07:39:47.999Z</time></trkpt><trkpt lat="43.41602738591034" lon="11.458497734428288"><ele>446.0</ele><time>2026-04-11T07:39:49.999Z</time></trkpt><trkpt lat="43.416021247574044" lon="11.45858608808183"><ele>446.0</ele><time>2026-04-11T07:39:51.999Z</time></trkpt><trkpt lat="43.41606562721988" lon="11.458703968946713"><ele>446.0</ele><time>2026-04-11T07:39:55.999Z</time></trkpt><trkpt lat="43.41613011833279" lon="11.458741410075444"><ele>446.0</ele><time>2026-04-11T07:40:26.999Z</time></trkpt><trkpt lat="43.41605526022072" lon="11.458746717663693"><ele>446.0</ele><time>2026-04-11T07:41:00.998Z</time></trkpt><trkpt lat="43.41598853074981" lon="11.458732252963038"><ele>446.0</ele><time>2026-04-11T07:41:25.998Z</time></trkpt><trkpt lat="43.41592344349685" lon="11.458733380818854"><ele>446.0</ele><time>2026-04-11T07:41:29.997Z</time></trkpt><trkpt lat="43.41586347543197" lon="11.458761570390967"><ele>446.0</ele><time>2026-04-11T07:41:40.999Z</time></trkpt><trkpt lat="43.415799677926465" lon="11.45878238545654"><ele>446.0</ele><time>2026-04-11T07:41:52.999Z</time></trkpt><trkpt lat="43.41595591506172" lon="11.458662048976185"><ele>446.0</ele><time>2026-04-11T07:42:34.587Z</time></trkpt><trkpt lat="43.41591904835982" lon="11.45874470349984"><ele>446.0</ele><time>2026-04-11T07:42:43.014Z</time></trkpt><trkpt lat="43.41599060759796" lon="11.458759506104899"><ele>446.0</ele><time>2026-04-11T07:42:59.998Z</time></trkpt><trkpt lat="43.41606032734925" lon="11.458775818419483"><ele>446.0</ele><time>2026-04-11T07:43:06.998Z</time></trkpt><trkpt lat="43.41609896282235" lon="11.458702218318338"><ele>446.0</ele><time>2026-04-11T07:44:28.999Z</time></trkpt><trkpt lat="43.416034034522525" lon="11.458733766175001"><ele>446.0</ele><time>2026-04-11T07:57:44.998Z</time></trkpt><trkpt lat="43.41596033844324" lon="11.458753682285545"><ele>446.0</ele><time>2026-04-11T07:57:48.998Z</time></trkpt><trkpt lat="43.41589811458567" lon="11.45881364834881"><ele>446.0</ele><time>2026-04-11T07:57:51.998Z</time></trkpt><trkpt lat="43.41588764652934" lon="11.458923426024786"><ele>446.0</ele><time>2026-04-11T07:57:54.998Z</time></trkpt><trkpt lat="43.41586435971258" lon="11.459017476367677"><ele>446.0</ele><time>2026-04-11T07:57:57.998Z</time></trkpt><trkpt lat="43.41585794034949" lon="11.459108601901342"><ele>446.0</ele><time>2026-04-11T07:58:00.998Z</time></trkpt><trkpt lat="43.41584675401132" lon="11.459208278995069"><ele>446.66666666666663</ele><time>2026-04-11T07:58:04.998Z</time></trkpt><trkpt lat="43.41586013418811" lon="11.459312511220942"><ele>447.3333333333333</ele><time>2026-04-11T07:58:08.998Z</time></trkpt><trkpt lat="43.415872925707475" lon="11.459401504523907"><ele>448.0</ele><time>2026-04-11T07:58:11.998Z</time></trkpt><trkpt lat="43.41588802031186" lon="11.45951178804871"><ele>448.66666666666663</ele><time>2026-04-11T07:58:15.998Z</time></trkpt><trkpt lat="43.41590310534637" lon="11.459620188157567"><ele>449.3333333333333</ele><time>2026-04-11T07:58:19.998Z</time></trkpt><trkpt lat="43.415902945611776" lon="11.459735135814956"><ele>450.0</ele><time>2026-04-11T07:58:24Z</time></trkpt><trkpt lat="43.41590139614317" lon="11.459823287590924"><ele>451.00000000000006</ele><time>2026-04-11T07:58:27Z</time></trkpt><trkpt lat="43.41590095020909" lon="11.459916279439812"><ele>452.0</ele><time>2026-04-11T07:58:30Z</time></trkpt><trkpt lat="43.415904554801024" lon="11.460010782676092"><ele>453.00000000000006</ele><time>2026-04-11T07:58:33Z</time></trkpt><trkpt lat="43.41590605331911" lon="11.460104108596976"><ele>454.00000000000006</ele><time>2026-04-11T07:58:36Z</time></trkpt><trkpt lat="43.415906526896954" lon="11.460197007662611"><ele>455.0</ele><time>2026-04-11T07:58:39Z</time></trkpt><trkpt lat="43.41590699926664" lon="11.4602913830402"><ele>456.00000000000006</ele><time>2026-04-11T07:58:42Z</time></trkpt><trkpt lat="43.415914290371965" lon="11.460406387534581"><ele>457.00000000000006</ele><time>2026-04-11T07:58:46Z</time></trkpt><trkpt lat="43.41592928915293" lon="11.460495783467316"><ele>459.33333333333337</ele><time>2026-04-11T07:58:49Z</time></trkpt><trkpt lat="43.415944794591425" lon="11.460603333151596"><ele>461.6666666666667</ele><time>2026-04-11T07:58:53Z</time></trkpt><trkpt lat="43.415973476524826" lon="11.460695728855562"><ele>464.0</ele><time>2026-04-11T07:58:55.999Z</time></trkpt><trkpt lat="43.41601533551161" lon="11.460761139521955"><ele>466.33333333333337</ele><time>2026-04-11T07:58:58.999Z</time></trkpt><trkpt lat="43.41605266220513" lon="11.460837173895353"><ele>468.6666666666667</ele><time>2026-04-11T07:59:01.999Z</time></trkpt><trkpt lat="43.41610401680032" lon="11.46093544313437"><ele>471.0</ele><time>2026-04-11T07:59:05.999Z</time></trkpt><trkpt lat="43.416145179100425" lon="11.461029662857506"><ele>471.00000000000006</ele><time>2026-04-11T07:59:09.999Z</time></trkpt><trkpt lat="43.416163937644924" lon="11.461133557666566"><ele>471.0</ele><time>2026-04-11T07:59:13.999Z</time></trkpt><trkpt lat="43.416158958596796" lon="11.461220801781574"><ele>471.00000000000006</ele><time>2026-04-11T07:59:16.999Z</time></trkpt><trkpt lat="43.416124527616525" lon="11.46131205932015"><ele>471.00000000000006</ele><time>2026-04-11T07:59:20.999Z</time></trkpt><trkpt lat="43.4160659093159" lon="11.461374883824076"><ele>471.0</ele><time>2026-04-11T07:59:24.999Z</time></trkpt><trkpt lat="43.415997546269196" lon="11.46141631822447"><ele>471.00000000000006</ele><time>2026-04-11T07:59:28.999Z</time></trkpt><trkpt lat="43.41591543451481" lon="11.461438589385605"><ele>471.00000000000006</ele><time>2026-04-11T07:59:32.999Z</time></trkpt><trkpt lat="43.41583949477723" lon="11.461402418380693"><ele>471.00000000000006</ele><time>2026-04-11T07:59:36.999Z</time></trkpt><trkpt lat="43.41576941901903" lon="11.461338328396723"><ele>471.0</ele><time>2026-04-11T07:59:40.999Z</time></trkpt><trkpt lat="43.41571935269879" lon="11.461253922860887"><ele>471.00000000000006</ele><time>2026-04-11T07:59:43.999Z</time></trkpt><trkpt lat="43.41568354254834" lon="11.461161114196209"><ele>471.00000000000006</ele><time>2026-04-11T07:59:47.998Z</time></trkpt><trkpt lat="43.41566379562423" lon="11.461077432245109"><ele>471.0</ele><time>2026-04-11T07:59:50.998Z</time></trkpt><trkpt lat="43.41563418134665" lon="11.460981832551578"><ele>471.00000000000006</ele><time>2026-04-11T07:59:54.998Z</time></trkpt><trkpt lat="43.415594702402615" lon="11.46091233530777"><ele>471.00000000000006</ele><time>2026-04-11T07:59:57.998Z</time></trkpt><trkpt lat="43.415555220685995" lon="11.460844171255209"><ele>471.00000000000006</ele><time>2026-04-11T08:00:00.998Z</time></trkpt><trkpt lat="43.41549541930058" lon="11.460779502366643"><ele>471.0</ele><time>2026-04-11T08:00:03.998Z</time></trkpt><trkpt lat="43.415427450740445" lon="11.460706476979613"><ele>471.00000000000006</ele><time>2026-04-11T08:00:06.998Z</time></trkpt><trkpt lat="43.41537222596514" lon="11.460661737663955"><ele>471.00000000000006</ele><time>2026-04-11T08:00:09.998Z</time></trkpt><trkpt lat="43.41530246261827" lon="11.46064765301282"><ele>471.0</ele><time>2026-04-11T08:00:13.998Z</time></trkpt><trkpt lat="43.41531282983402" lon="11.460749389609164"><ele>471.00000000000006</ele><time>2026-04-11T08:00:19.998Z</time></trkpt><trkpt lat="43.415376118651245" lon="11.460782219031685"><ele>471.00000000000006</ele><time>2026-04-11T08:00:23.998Z</time></trkpt><trkpt lat="43.41542368144061" lon="11.460865454763908"><ele>472.5</ele><time>2026-04-11T08:00:26.998Z</time></trkpt><trkpt lat="43.41545877479317" lon="11.460948369367875"><ele>474.0</ele><time>2026-04-11T08:00:30Z</time></trkpt><trkpt lat="43.415461370459965" lon="11.4610507125484"><ele>475.5</ele><time>2026-04-11T08:00:33Z</time></trkpt><trkpt lat="43.41545838530913" lon="11.461152692485646"><ele>477.0</ele><time>2026-04-11T08:00:36Z</time></trkpt><trkpt lat="43.415448853340045" lon="11.461253130355777"><ele>478.5</ele><time>2026-04-11T08:00:39Z</time></trkpt><trkpt lat="43.41542405669434" lon="11.461378294302277"><ele>480.0</ele><time>2026-04-11T08:00:42Z</time></trkpt><trkpt lat="43.415425561771926" lon="11.461474293139986"><ele>481.42857142857144</ele><time>2026-04-11T08:00:45Z</time></trkpt><trkpt lat="43.41542927565761" lon="11.461586571051598"><ele>482.85714285714283</ele><time>2026-04-11T08:00:48Z</time></trkpt><trkpt lat="43.41541365879317" lon="11.461693568196358"><ele>484.2857142857143</ele><time>2026-04-11T08:00:52Z</time></trkpt><trkpt lat="43.4153528171932" lon="11.461733193217267"><ele>485.7142857142857</ele><time>2026-04-11T08:00:58Z</time></trkpt><trkpt lat="43.41529991265371" lon="11.461663295320264"><ele>487.1428571428571</ele><time>2026-04-11T08:01:01.999Z</time></trkpt><trkpt lat="43.41526199142387" lon="11.461581181016031"><ele>488.57142857142856</ele><time>2026-04-11T08:01:05.999Z</time></trkpt><trkpt lat="43.41521742522387" lon="11.461514212873587"><ele>490.0</ele><time>2026-04-11T08:01:08.999Z</time></trkpt><trkpt lat="43.415158115512426" lon="11.461452279030706"><ele>490.0</ele><time>2026-04-11T08:01:12.999Z</time></trkpt><trkpt lat="43.415097961393734" lon="11.461408190413787"><ele>490.0</ele><time>2026-04-11T08:01:16.999Z</time></trkpt><trkpt lat="43.415049057153674" lon="11.461487424334333"><ele>490.0</ele><time>2026-04-11T08:01:22.999Z</time></trkpt><trkpt lat="43.41502209134572" lon="11.461567224676186"><ele>490.0</ele><time>2026-04-11T08:01:26.999Z</time></trkpt><trkpt lat="43.41499609187479" lon="11.461667329024458"><ele>490.0</ele><time>2026-04-11T08:01:30.999Z</time></trkpt><trkpt lat="43.41498048045303" lon="11.461770601559978"><ele>490.0</ele><time>2026-04-11T08:01:34.999Z</time></trkpt><trkpt lat="43.41495019146437" lon="11.461873608738815"><ele>490.0</ele><time>2026-04-11T08:01:38.999Z</time></trkpt><trkpt lat="43.41491116788378" lon="11.461962389666667"><ele>490.0</ele><time>2026-04-11T08:01:42.999Z</time></trkpt><trkpt lat="43.41487508916278" lon="11.462042007611975"><ele>490.0</ele><time>2026-04-11T08:01:46.999Z</time></trkpt><trkpt lat="43.41483096072896" lon="11.46212341021977"><ele>490.0</ele><time>2026-04-11T08:01:50.999Z</time></trkpt><trkpt lat="43.41478226999074" lon="11.462216914281889"><ele>490.0</ele><time>2026-04-11T08:01:54.998Z</time></trkpt><trkpt lat="43.414764741440436" lon="11.462306125081023"><ele>490.0</ele><time>2026-04-11T08:01:57.998Z</time></trkpt><trkpt lat="43.41473122301309" lon="11.462392564117222"><ele>490.0</ele><time>2026-04-11T08:02:00.998Z</time></trkpt><trkpt lat="43.41470939654464" lon="11.462502449037522"><ele>490.0</ele><time>2026-04-11T08:02:04.998Z</time></trkpt><trkpt lat="43.41468415935747" lon="11.462585204551894"><ele>491.33333333333337</ele><time>2026-04-11T08:02:07.998Z</time></trkpt><trkpt lat="43.4146552514379" lon="11.462690319005386"><ele>492.6666666666667</ele><time>2026-04-11T08:02:11.998Z</time></trkpt><trkpt lat="43.41463915933694" lon="11.462775994985659"><ele>494.0</ele><time>2026-04-11T08:02:14.998Z</time></trkpt><trkpt lat="43.41462732434028" lon="11.462886380180837"><ele>495.33333333333337</ele><time>2026-04-11T08:02:18.998Z</time></trkpt><trkpt lat="43.41462405837385" lon="11.463000383321958"><ele>496.6666666666667</ele><time>2026-04-11T08:02:22.998Z</time></trkpt><trkpt lat="43.41461640368943" lon="11.463091462869334"><ele>498.0</ele><time>2026-04-11T08:02:25.998Z</time></trkpt><trkpt lat="43.414619864716855" lon="11.46320758546248"><ele>501.71428571428567</ele><time>2026-04-11T08:02:29.998Z</time></trkpt><trkpt lat="43.41463739618605" lon="11.463310620882035"><ele>505.4285714285714</ele><time>2026-04-11T08:02:32.998Z</time></trkpt><trkpt lat="43.414610043012075" lon="11.463399247604698"><ele>509.1428571428571</ele><time>2026-04-11T08:02:36Z</time></trkpt><trkpt lat="43.41462470935814" lon="11.463491050437172"><ele>512.8571428571429</ele><time>2026-04-11T08:02:39Z</time></trkpt><trkpt lat="43.41463866448955" lon="11.463593183292279"><ele>516.5714285714287</ele><time>2026-04-11T08:02:42Z</time></trkpt><trkpt lat="43.4146318528034" lon="11.463688241473363"><ele>520.2857142857143</ele><time>2026-04-11T08:02:45Z</time></trkpt><trkpt lat="43.414620817572775" lon="11.463784715453656"><ele>524.0</ele><time>2026-04-11T08:02:48Z</time></trkpt><trkpt lat="43.41459461763138" lon="11.463879096961413"><ele>524.0</ele><time>2026-04-11T08:02:51Z</time></trkpt><trkpt lat="43.41457543328169" lon="11.463964910614713"><ele>524.0</ele><time>2026-04-11T08:02:54Z</time></trkpt><trkpt lat="43.41453837823197" lon="11.464041145410201"><ele>524.0</ele><time>2026-04-11T08:02:57Z</time></trkpt><trkpt lat="43.4144895684747" lon="11.464103892730765"><ele>524.0</ele><time>2026-04-11T08:03:00Z</time></trkpt><trkpt lat="43.414444359783715" lon="11.464167764752784"><ele>524.0</ele><time>2026-04-11T08:03:03Z</time></trkpt><trkpt lat="43.414376444774774" lon="11.464217100356503"><ele>524.0</ele><time>2026-04-11T08:03:06Z</time></trkpt><trkpt lat="43.41432597527476" lon="11.464287681253168"><ele>524.0</ele><time>2026-04-11T08:03:08.999Z</time></trkpt><trkpt lat="43.41429263142588" lon="11.464365666584312"><ele>524.0</ele><time>2026-04-11T08:03:11.999Z</time></trkpt><trkpt lat="43.41422683377874" lon="11.46444260662232"><ele>524.0</ele><time>2026-04-11T08:03:14.999Z</time></trkpt><trkpt lat="43.414164689819906" lon="11.46449165631244"><ele>524.0</ele><time>2026-04-11T08:03:17.999Z</time></trkpt><trkpt lat="43.41410421335022" lon="11.464533080033751"><ele>524.0</ele><time>2026-04-11T08:03:20.999Z</time></trkpt><trkpt lat="43.4140362901307" lon="11.46457349141668"><ele>524.0</ele><time>2026-04-11T08:03:23.999Z</time></trkpt><trkpt lat="43.41397493585101" lon="11.464611339214487"><ele>524.0</ele><time>2026-04-11T08:03:25.999Z</time></trkpt><trkpt lat="43.413905254657784" lon="11.464633360905893"><ele>524.0</ele><time>2026-04-11T08:03:28.999Z</time></trkpt><trkpt lat="43.41383713242701" lon="11.464665160242298"><ele>523.0</ele><time>2026-04-11T08:03:31.999Z</time></trkpt><trkpt lat="43.41375351051803" lon="11.464689062934855"><ele>522.0</ele><time>2026-04-11T08:03:34.999Z</time></trkpt><trkpt lat="43.41368607554993" lon="11.464696138784051"><ele>521.0</ele><time>2026-04-11T08:03:37.999Z</time></trkpt><trkpt lat="43.413618153932084" lon="11.464718368664634"><ele>520.0</ele><time>2026-04-11T08:03:40.999Z</time></trkpt><trkpt lat="43.413552247556716" lon="11.464716359057705"><ele>519.0</ele><time>2026-04-11T08:03:43.999Z</time></trkpt><trkpt lat="43.413481791695865" lon="11.464705872335092"><ele>518.0</ele><time>2026-04-11T08:03:46.999Z</time></trkpt><trkpt lat="43.413412299528616" lon="11.464682362466274"><ele>517.0</ele><time>2026-04-11T08:03:49.999Z</time></trkpt><trkpt lat="43.4133270629765" lon="11.464634591515097"><ele>516.5714285714286</ele><time>2026-04-11T08:03:53.999Z</time></trkpt><trkpt lat="43.41326149977447" lon="11.464593049591635"><ele>516.1428571428572</ele><time>2026-04-11T08:03:57.998Z</time></trkpt><trkpt lat="43.41320240908007" lon="11.464535089968166"><ele>515.7142857142858</ele><time>2026-04-11T08:04:01.998Z</time></trkpt><trkpt lat="43.413134800970504" lon="11.464490260668741"><ele>515.2857142857143</ele><time>2026-04-11T08:04:05.998Z</time></trkpt><trkpt lat="43.41306428653464" lon="11.464454969099847"><ele>514.8571428571429</ele><time>2026-04-11T08:04:09.998Z</time></trkpt><trkpt lat="43.41298422614722" lon="11.46442382580177"><ele>514.4285714285714</ele><time>2026-04-11T08:04:13.998Z</time></trkpt><trkpt lat="43.41291795020077" lon="11.464416772034767"><ele>514.0</ele><time>2026-04-11T08:04:15.998Z</time></trkpt><trkpt lat="43.412838007308935" lon="11.464421402327424"><ele>514.0</ele><time>2026-04-11T08:04:17.998Z</time></trkpt><trkpt lat="43.41277097746203" lon="11.46438727916782"><ele>514.0</ele><time>2026-04-11T08:04:19.998Z</time></trkpt><trkpt lat="43.41268432193337" lon="11.464376741508367"><ele>514.0</ele><time>2026-04-11T08:04:22.998Z</time></trkpt><trkpt lat="43.412616422712865" lon="11.46438588967272"><ele>514.0</ele><time>2026-04-11T08:04:24.998Z</time></trkpt><trkpt lat="43.41254620535303" lon="11.46441364080635"><ele>514.0</ele><time>2026-04-11T08:04:26.998Z</time></trkpt><trkpt lat="43.41248716105237" lon="11.464446524389917"><ele>514.0</ele><time>2026-04-11T08:04:28.998Z</time></trkpt><trkpt lat="43.41241711104096" lon="11.464495951974747"><ele>514.0</ele><time>2026-04-11T08:04:30.998Z</time></trkpt><trkpt lat="43.412351471977175" lon="11.464533120313458"><ele>514.0</ele><time>2026-04-11T08:04:32.998Z</time></trkpt><trkpt lat="43.41228414981067" lon="11.464574358149727"><ele>514.0</ele><time>2026-04-11T08:04:34.998Z</time></trkpt><trkpt lat="43.41221657803365" lon="11.464630260964313"><ele>514.0</ele><time>2026-04-11T08:04:36.998Z</time></trkpt><trkpt lat="43.41216330072275" lon="11.464681516387117"><ele>514.0</ele><time>2026-04-11T08:04:38.998Z</time></trkpt><trkpt lat="43.41208735292925" lon="11.464717668401125"><ele>514.0</ele><time>2026-04-11T08:04:40.998Z</time></trkpt><trkpt lat="43.412019910710264" lon="11.46475749818629"><ele>514.0</ele><time>2026-04-11T08:04:43Z</time></trkpt><trkpt lat="43.41193303133291" lon="11.464804826989505"><ele>512.1666666666667</ele><time>2026-04-11T08:04:46Z</time></trkpt><trkpt lat="43.41185332113281" lon="11.464863984747586"><ele>510.33333333333337</ele><time>2026-04-11T08:04:49Z</time></trkpt><trkpt lat="43.41178628850907" lon="11.464889070688848"><ele>508.5</ele><time>2026-04-11T08:04:51Z</time></trkpt><trkpt lat="43.411708320210636" lon="11.464872535809876"><ele>506.66666666666663</ele><time>2026-04-11T08:04:53Z</time></trkpt><trkpt lat="43.41161024450722" lon="11.464833576769186"><ele>504.8333333333333</ele><time>2026-04-11T08:04:56Z</time></trkpt><trkpt lat="43.411543962594706" lon="11.464775126444387"><ele>503.0</ele><time>2026-04-11T08:04:58Z</time></trkpt><trkpt lat="43.41145023267173" lon="11.464725554027522"><ele>503.0</ele><time>2026-04-11T08:05:00Z</time></trkpt><trkpt lat="43.41134737407301" lon="11.46466253941961"><ele>502.99999999999994</ele><time>2026-04-11T08:05:02Z</time></trkpt><trkpt lat="43.411253613972136" lon="11.464591430846324"><ele>502.99999999999994</ele><time>2026-04-11T08:05:04Z</time></trkpt><trkpt lat="43.41117081458924" lon="11.464511673265335"><ele>503.0</ele><time>2026-04-11T08:05:06Z</time></trkpt><trkpt lat="43.41107289581871" lon="11.464477618490243"><ele>503.0</ele><time>2026-04-11T08:05:08Z</time></trkpt><trkpt lat="43.41100761415242" lon="11.464466062693203"><ele>501.49999999999994</ele><time>2026-04-11T08:05:09Z</time></trkpt><trkpt lat="43.41093562789063" lon="11.464488193453757"><ele>500.0</ele><time>2026-04-11T08:05:10Z</time></trkpt><trkpt lat="43.41086930119761" lon="11.464489023386735"><ele>498.5</ele><time>2026-04-11T08:05:11Z</time></trkpt><trkpt lat="43.41079296810638" lon="11.464501384727365"><ele>497.0</ele><time>2026-04-11T08:05:12Z</time></trkpt><trkpt lat="43.41071468513553" lon="11.4645053976793"><ele>495.49999999999994</ele><time>2026-04-11T08:05:13Z</time></trkpt><trkpt lat="43.410636216095625" lon="11.464512619684394"><ele>494.0</ele><time>2026-04-11T08:05:14Z</time></trkpt><trkpt lat="43.41055821031021" lon="11.4645216984879"><ele>493.66666666666663</ele><time>2026-04-11T08:05:15Z</time></trkpt><trkpt lat="43.41047964457057" lon="11.46451773555187"><ele>493.3333333333333</ele><time>2026-04-11T08:05:15.999Z</time></trkpt><trkpt lat="43.41039639105789" lon="11.464517988357183"><ele>493.0</ele><time>2026-04-11T08:05:16.999Z</time></trkpt><trkpt lat="43.41031586493904" lon="11.464518204969998"><ele>492.66666666666663</ele><time>2026-04-11T08:05:17.999Z</time></trkpt><trkpt lat="43.41023539090182" lon="11.464513395748444"><ele>492.3333333333333</ele><time>2026-04-11T08:05:18.999Z</time></trkpt><trkpt lat="43.41016042454225" lon="11.464513230082531"><ele>492.0</ele><time>2026-04-11T08:05:19.999Z</time></trkpt><trkpt lat="43.410090856016836" lon="11.464508900181958"><ele>492.00000000000006</ele><time>2026-04-11T08:05:20.999Z</time></trkpt><trkpt lat="43.41002426922018" lon="11.464507128705431"><ele>492.0</ele><time>2026-04-11T08:05:21.999Z</time></trkpt><trkpt lat="43.4099575590081" lon="11.464508996647677"><ele>492.00000000000006</ele><time>2026-04-11T08:05:22.999Z</time></trkpt><trkpt lat="43.40989126809734" lon="11.464509724778287"><ele>492.00000000000006</ele><time>2026-04-11T08:05:23.999Z</time></trkpt><trkpt lat="43.409827507759935" lon="11.464509323897222"><ele>492.0</ele><time>2026-04-11T08:05:24.999Z</time></trkpt><trkpt lat="43.409763570173794" lon="11.464512473441088"><ele>492.00000000000006</ele><time>2026-04-11T08:05:25.999Z</time></trkpt><trkpt lat="43.409642993626676" lon="11.464512869625219"><ele>492.00000000000006</ele><time>2026-04-11T08:05:27.999Z</time></trkpt><trkpt lat="43.409523992438956" lon="11.464517445734627"><ele>492.20000000000005</ele><time>2026-04-11T08:05:29.999Z</time></trkpt><trkpt lat="43.40940968422205" lon="11.464518611197105"><ele>492.40000000000003</ele><time>2026-04-11T08:05:31.999Z</time></trkpt><trkpt lat="43.409295452565836" lon="11.464529950273151"><ele>492.59999999999997</ele><time>2026-04-11T08:05:33.999Z</time></trkpt><trkpt lat="43.40918902059793" lon="11.464543539240468"><ele>492.79999999999995</ele><time>2026-04-11T08:05:35.999Z</time></trkpt><trkpt lat="43.40908431816699" lon="11.46455326584817"><ele>493.0</ele><time>2026-04-11T08:05:37.999Z</time></trkpt><trkpt lat="43.40897864257465" lon="11.464572202496516"><ele>493.0</ele><time>2026-04-11T08:05:39.999Z</time></trkpt><trkpt lat="43.408859855593874" lon="11.464581119443057"><ele>492.99999999999994</ele><time>2026-04-11T08:05:41.999Z</time></trkpt><trkpt lat="43.40875524333635" lon="11.464583747428247"><ele>492.99999999999994</ele><time>2026-04-11T08:05:43.999Z</time></trkpt><trkpt lat="43.40865142401104" lon="11.46457703699431"><ele>493.0</ele><time>2026-04-11T08:05:45.999Z</time></trkpt><trkpt lat="43.40854910252832" lon="11.464570281442727"><ele>493.0</ele><time>2026-04-11T08:05:47.999Z</time></trkpt><trkpt lat="43.40844991351865" lon="11.464555738772551"><ele>492.42857142857144</ele><time>2026-04-11T08:05:49.999Z</time></trkpt><trkpt lat="43.40838665367862" lon="11.4645503790086"><ele>491.8571428571429</ele><time>2026-04-11T08:05:50.999Z</time></trkpt><trkpt lat="43.40831833707503" lon="11.464546164004911"><ele>491.28571428571433</ele><time>2026-04-11T08:05:51.999Z</time></trkpt><trkpt lat="43.40825298978332" lon="11.46454900667931"><ele>490.7142857142857</ele><time>2026-04-11T08:05:52.999Z</time></trkpt><trkpt lat="43.408184695660985" lon="11.464546583352769"><ele>490.1428571428572</ele><time>2026-04-11T08:05:53.999Z</time></trkpt><trkpt lat="43.40812174658446" lon="11.464553275836495"><ele>489.5714285714286</ele><time>2026-04-11T08:05:54.999Z</time></trkpt><trkpt lat="43.40805133054233" lon="11.464555169252451"><ele>489.0</ele><time>2026-04-11T08:05:55.999Z</time></trkpt><trkpt lat="43.407975819851984" lon="11.464553856750722"><ele>487.3333333333333</ele><time>2026-04-11T08:05:56.999Z</time></trkpt><trkpt lat="43.40789595910682" lon="11.464559818336319"><ele>485.66666666666663</ele><time>2026-04-11T08:05:57.999Z</time></trkpt><trkpt lat="43.4078128076239" lon="11.464567213941304"><ele>484.0</ele><time>2026-04-11T08:05:58.999Z</time></trkpt><trkpt lat="43.40773199532262" lon="11.464573201246584"><ele>482.3333333333333</ele><time>2026-04-11T08:05:59.999Z</time></trkpt><trkpt lat="43.40764985018124" lon="11.464585812606645"><ele>480.66666666666663</ele><time>2026-04-11T08:06:00.999Z</time></trkpt><trkpt lat="43.407568133456444" lon="11.464595404661106"><ele>479.0</ele><time>2026-04-11T08:06:01.999Z</time></trkpt><trkpt lat="43.4074882669836" lon="11.464606725894182"><ele>478.85714285714283</ele><time>2026-04-11T08:06:02.999Z</time></trkpt><trkpt lat="43.40741355758683" lon="11.464618895396246"><ele>478.7142857142858</ele><time>2026-04-11T08:06:03.999Z</time></trkpt><trkpt lat="43.407333435056835" lon="11.464633472647717"><ele>478.5714285714286</ele><time>2026-04-11T08:06:04.999Z</time></trkpt><trkpt lat="43.40725994271489" lon="11.464644438352598"><ele>478.42857142857144</ele><time>2026-04-11T08:06:05.998Z</time></trkpt><trkpt lat="43.40718874967185" lon="11.464653741515388"><ele>478.28571428571433</ele><time>2026-04-11T08:06:06.998Z</time></trkpt><trkpt lat="43.40711939014165" lon="11.464658111596611"><ele>478.1428571428572</ele><time>2026-04-11T08:06:07.998Z</time></trkpt><trkpt lat="43.40704951063973" lon="11.464659503908942"><ele>478.00000000000006</ele><time>2026-04-11T08:06:08.998Z</time></trkpt><trkpt lat="43.40698330277266" lon="11.464652472547535"><ele>478.00000000000006</ele><time>2026-04-11T08:06:09.998Z</time></trkpt><trkpt lat="43.40691730906505" lon="11.464638184180993"><ele>478.0</ele><time>2026-04-11T08:06:10.998Z</time></trkpt><trkpt lat="43.406851086825654" lon="11.46461410764079"><ele>478.00000000000006</ele><time>2026-04-11T08:06:11.998Z</time></trkpt><trkpt lat="43.40678295983528" lon="11.464586456858134"><ele>478.00000000000006</ele><time>2026-04-11T08:06:12.998Z</time></trkpt><trkpt lat="43.40671280144868" lon="11.464559650478536"><ele>478.0</ele><time>2026-04-11T08:06:13.998Z</time></trkpt><trkpt lat="43.40664650802527" lon="11.464539136496775"><ele>478.00000000000006</ele><time>2026-04-11T08:06:14.998Z</time></trkpt><trkpt lat="43.40658235263472" lon="11.464518157582962"><ele>478.00000000000006</ele><time>2026-04-11T08:06:15.998Z</time></trkpt><trkpt lat="43.40646580787059" lon="11.46447873399366"><ele>477.0</ele><time>2026-04-11T08:06:17.998Z</time></trkpt><trkpt lat="43.40635467279474" lon="11.464445452368906"><ele>476.0</ele><time>2026-04-11T08:06:19.998Z</time></trkpt><trkpt lat="43.406244000427975" lon="11.464410295854591"><ele>475.0</ele><time>2026-04-11T08:06:21.998Z</time></trkpt><trkpt lat="43.40612977838089" lon="11.464361609855827"><ele>474.0</ele><time>2026-04-11T08:06:23.998Z</time></trkpt><trkpt lat="43.406017629365714" lon="11.464291699184939"><ele>473.0</ele><time>2026-04-11T08:06:25.998Z</time></trkpt><trkpt lat="43.405960773937366" lon="11.464254107263454"><ele>472.0</ele><time>2026-04-11T08:06:26.998Z</time></trkpt><trkpt lat="43.40585432321831" lon="11.46417149890967"><ele>471.0</ele><time>2026-04-11T08:06:28.998Z</time></trkpt><trkpt lat="43.4057976959412" lon="11.464123701470243"><ele>470.0</ele><time>2026-04-11T08:06:29.998Z</time></trkpt><trkpt lat="43.40574088539709" lon="11.46407502544106"><ele>469.0</ele><time>2026-04-11T08:06:30.998Z</time></trkpt><trkpt lat="43.40564462078816" lon="11.46399149116107"><ele>468.0</ele><time>2026-04-11T08:06:32.998Z</time></trkpt><trkpt lat="43.40555148000424" lon="11.463904687167148"><ele>464.25</ele><time>2026-04-11T08:06:34.998Z</time></trkpt><trkpt lat="43.405465610016584" lon="11.463821145366053"><ele>460.5</ele><time>2026-04-11T08:06:36.998Z</time></trkpt><trkpt lat="43.40537806681114" lon="11.463721466453915"><ele>456.75</ele><time>2026-04-11T08:06:38.998Z</time></trkpt><trkpt lat="43.40528809490595" lon="11.463614277559003"><ele>453.0</ele><time>2026-04-11T08:06:40.998Z</time></trkpt><trkpt lat="43.40520143738289" lon="11.463496508646886"><ele>452.99999999999994</ele><time>2026-04-11T08:06:42.998Z</time></trkpt><trkpt lat="43.40515661210339" lon="11.463434267263732"><ele>453.0</ele><time>2026-04-11T08:06:43.998Z</time></trkpt><trkpt lat="43.40510523619437" lon="11.463364529115779"><ele>452.99999999999994</ele><time>2026-04-11T08:06:44.998Z</time></trkpt><trkpt lat="43.40505204118121" lon="11.46329321874611"><ele>452.99999999999994</ele><time>2026-04-11T08:06:45.998Z</time></trkpt><trkpt lat="43.40499973299333" lon="11.46322253538033"><ele>453.0</ele><time>2026-04-11T08:06:46.998Z</time></trkpt><trkpt lat="43.404952767504895" lon="11.463150252167829"><ele>452.99999999999994</ele><time>2026-04-11T08:06:48Z</time></trkpt><trkpt lat="43.40490766197515" lon="11.4630757932906"><ele>452.99999999999994</ele><time>2026-04-11T08:06:49Z</time></trkpt><trkpt lat="43.40486763368349" lon="11.462997680188552"><ele>452.42857142857133</ele><time>2026-04-11T08:06:50Z</time></trkpt><trkpt lat="43.40482940010037" lon="11.462920599863036"><ele>451.85714285714283</ele><time>2026-04-11T08:06:51Z</time></trkpt><trkpt lat="43.40479198490213" lon="11.462841063933244"><ele>451.2857142857142</ele><time>2026-04-11T08:06:52Z</time></trkpt><trkpt lat="43.404765547025875" lon="11.462751644218493"><ele>450.71428571428567</ele><time>2026-04-11T08:06:53Z</time></trkpt><trkpt lat="43.40474372694327" lon="11.46266370295143"><ele>450.1428571428571</ele><time>2026-04-11T08:06:54Z</time></trkpt><trkpt lat="43.4047304130317" lon="11.46257784321259"><ele>449.57142857142856</ele><time>2026-04-11T08:06:55Z</time></trkpt><trkpt lat="43.4047121727389" lon="11.462426701087633"><ele>449.0</ele><time>2026-04-11T08:06:57Z</time></trkpt><trkpt lat="43.40469072415037" lon="11.462282413218723"><ele>449.0</ele><time>2026-04-11T08:06:59Z</time></trkpt><trkpt lat="43.40466785582883" lon="11.462147722884982"><ele>449.0</ele><time>2026-04-11T08:07:01Z</time></trkpt><trkpt lat="43.40464150384688" lon="11.46202050453971"><ele>449.0</ele><time>2026-04-11T08:07:03Z</time></trkpt><trkpt lat="43.40461362671534" lon="11.461896726569368"><ele>449.0</ele><time>2026-04-11T08:07:05Z</time></trkpt><trkpt lat="43.40459906984412" lon="11.461773666041452"><ele>449.0</ele><time>2026-04-11T08:07:07Z</time></trkpt><trkpt lat="43.404567030697336" lon="11.461652183512674"><ele>450.4</ele><time>2026-04-11T08:07:09Z</time></trkpt><trkpt lat="43.404522438658304" lon="11.461533552442505"><ele>451.79999999999995</ele><time>2026-04-11T08:07:11Z</time></trkpt><trkpt lat="43.40447138269692" lon="11.46141379050328"><ele>453.20000000000005</ele><time>2026-04-11T08:07:13Z</time></trkpt><trkpt lat="43.404411670702366" lon="11.46129481656073"><ele>454.6</ele><time>2026-04-11T08:07:15Z</time></trkpt><trkpt lat="43.4043512970836" lon="11.461175855148658"><ele>456.0</ele><time>2026-04-11T08:07:17Z</time></trkpt><trkpt lat="43.40428885431565" lon="11.461049402054956"><ele>456.0</ele><time>2026-04-11T08:07:19Z</time></trkpt><trkpt lat="43.40422876702535" lon="11.460922295114106"><ele>456.0</ele><time>2026-04-11T08:07:21Z</time></trkpt><trkpt lat="43.404171614648945" lon="11.460796000759364"><ele>456.0</ele><time>2026-04-11T08:07:23Z</time></trkpt><trkpt lat="43.404128966920844" lon="11.460656583529657"><ele>456.0</ele><time>2026-04-11T08:07:24.999Z</time></trkpt><trkpt lat="43.40409812995566" lon="11.460507068906503"><ele>456.0</ele><time>2026-04-11T08:07:26.999Z</time></trkpt><trkpt lat="43.40409107850912" lon="11.460353532286772"><ele>456.0</ele><time>2026-04-11T08:07:28.999Z</time></trkpt><trkpt lat="43.40410415154914" lon="11.460201750052644"><ele>456.0</ele><time>2026-04-11T08:07:30.999Z</time></trkpt><trkpt lat="43.40412553420419" lon="11.46006312753845"><ele>456.0</ele><time>2026-04-11T08:07:32.999Z</time></trkpt><trkpt lat="43.404144211690685" lon="11.45992307911684"><ele>456.0</ele><time>2026-04-11T08:07:34.999Z</time></trkpt><trkpt lat="43.404169855876695" lon="11.45978412220217"><ele>456.0</ele><time>2026-04-11T08:07:36.999Z</time></trkpt><trkpt lat="43.404195862563974" lon="11.459645643738922"><ele>455.8</ele><time>2026-04-11T08:07:38.999Z</time></trkpt><trkpt lat="43.40424355384706" lon="11.459503985055944"><ele>455.6</ele><time>2026-04-11T08:07:40.999Z</time></trkpt><trkpt lat="43.40430566714637" lon="11.459369950515466"><ele>455.4</ele><time>2026-04-11T08:07:42.999Z</time></trkpt><trkpt lat="43.404368745148" lon="11.459252093904698"><ele>455.2</ele><time>2026-04-11T08:07:44.999Z</time></trkpt><trkpt lat="43.404434451440174" lon="11.459143909530086"><ele>455.0</ele><time>2026-04-11T08:07:46.999Z</time></trkpt><trkpt lat="43.404496904515625" lon="11.459050628303453"><ele>454.99999999999994</ele><time>2026-04-11T08:07:48.999Z</time></trkpt><trkpt lat="43.40455979845041" lon="11.458971353503676"><ele>455.0</ele><time>2026-04-11T08:07:50.999Z</time></trkpt><trkpt lat="43.40462056955863" lon="11.45889528182263"><ele>455.0</ele><time>2026-04-11T08:07:52.999Z</time></trkpt><trkpt lat="43.40467881194536" lon="11.458818955742903"><ele>455.0</ele><time>2026-04-11T08:07:54.999Z</time></trkpt><trkpt lat="43.404739331616895" lon="11.458730318151087"><ele>454.99999999999994</ele><time>2026-04-11T08:07:56.999Z</time></trkpt><trkpt lat="43.404782807617714" lon="11.458616962026275"><ele>455.0</ele><time>2026-04-11T08:07:58.999Z</time></trkpt><trkpt lat="43.40481671719332" lon="11.458481338573076"><ele>454.2</ele><time>2026-04-11T08:08:00.999Z</time></trkpt><trkpt lat="43.40485229917151" lon="11.45834412489228"><ele>453.4</ele><time>2026-04-11T08:08:02.999Z</time></trkpt><trkpt lat="43.40488637795699" lon="11.458222081288222"><ele>452.6</ele><time>2026-04-11T08:08:04.999Z</time></trkpt><trkpt lat="43.404943333315195" lon="11.458125287571594"><ele>451.8</ele><time>2026-04-11T08:08:06.999Z</time></trkpt><trkpt lat="43.40500564364166" lon="11.45803409967238"><ele>451.0</ele><time>2026-04-11T08:08:08.999Z</time></trkpt><trkpt lat="43.405042529305554" lon="11.457908291379107"><ele>449.6666666666667</ele><time>2026-04-11T08:08:10.999Z</time></trkpt><trkpt lat="43.40504640285945" lon="11.457738151724397"><ele>448.33333333333337</ele><time>2026-04-11T08:08:12.999Z</time></trkpt><trkpt lat="43.40503799517418" lon="11.457637826278578"><ele>447.0</ele><time>2026-04-11T08:08:13.998Z</time></trkpt><trkpt lat="43.40502880788643" lon="11.457542655269979"><ele>445.66666666666663</ele><time>2026-04-11T08:08:14.998Z</time></trkpt><trkpt lat="43.405020857158625" lon="11.457449656868551"><ele>444.3333333333333</ele><time>2026-04-11T08:08:15.998Z</time></trkpt><trkpt lat="43.405013603318054" lon="11.457355499313696"><ele>443.0</ele><time>2026-04-11T08:08:16.998Z</time></trkpt><trkpt lat="43.40500519704231" lon="11.45725652048444"><ele>442.99999999999994</ele><time>2026-04-11T08:08:17.998Z</time></trkpt><trkpt lat="43.404993627084096" lon="11.457157442463256"><ele>443.0</ele><time>2026-04-11T08:08:18.998Z</time></trkpt><trkpt lat="43.404979441690834" lon="11.457061976451257"><ele>443.0</ele><time>2026-04-11T08:08:19.998Z</time></trkpt><trkpt lat="43.404958233611794" lon="11.456973086319715"><ele>443.0</ele><time>2026-04-11T08:08:20.998Z</time></trkpt><trkpt lat="43.40493280779364" lon="11.456883775516914"><ele>442.99999999999994</ele><time>2026-04-11T08:08:21.998Z</time></trkpt><trkpt lat="43.40490673398283" lon="11.456803096504302"><ele>443.0</ele><time>2026-04-11T08:08:22.998Z</time></trkpt><trkpt lat="43.40485902141385" lon="11.456672981833837"><ele>441.8333333333333</ele><time>2026-04-11T08:08:24.998Z</time></trkpt><trkpt lat="43.40481846666328" lon="11.456564807837157"><ele>440.66666666666663</ele><time>2026-04-11T08:08:26.998Z</time></trkpt><trkpt lat="43.40481626663348" lon="11.45645560094463"><ele>439.5</ele><time>2026-04-11T08:08:28.998Z</time></trkpt><trkpt lat="43.4048726321348" lon="11.456366491769574"><ele>438.33333333333337</ele><time>2026-04-11T08:08:30.998Z</time></trkpt><trkpt lat="43.40499008108601" lon="11.456339514978412"><ele>437.1666666666667</ele><time>2026-04-11T08:08:32.998Z</time></trkpt><trkpt lat="43.40505901144716" lon="11.456351594251666"><ele>436.0</ele><time>2026-04-11T08:08:33.998Z</time></trkpt><trkpt lat="43.405132079199255" lon="11.456363235709714"><ele>436.0</ele><time>2026-04-11T08:08:34.998Z</time></trkpt><trkpt lat="43.405207215820006" lon="11.456371753986604"><ele>436.0</ele><time>2026-04-11T08:08:35.998Z</time></trkpt><trkpt lat="43.405275408134834" lon="11.45637797439158"><ele>436.0</ele><time>2026-04-11T08:08:36.998Z</time></trkpt><trkpt lat="43.40534111329853" lon="11.456387647269008"><ele>436.0</ele><time>2026-04-11T08:08:37.998Z</time></trkpt><trkpt lat="43.405461424051" lon="11.456405617685999"><ele>436.0</ele><time>2026-04-11T08:08:39.998Z</time></trkpt><trkpt lat="43.405587761703366" lon="11.456403699448407"><ele>434.50000000000006</ele><time>2026-04-11T08:08:41.998Z</time></trkpt><trkpt lat="43.4057078553072" lon="11.456346440479535"><ele>433.0</ele><time>2026-04-11T08:08:43.998Z</time></trkpt><trkpt lat="43.405763093190764" lon="11.456299580777188"><ele>431.5</ele><time>2026-04-11T08:08:44.998Z</time></trkpt><trkpt lat="43.40581948982404" lon="11.4562388137431"><ele>430.0</ele><time>2026-04-11T08:08:45.998Z</time></trkpt><trkpt lat="43.40587575849212" lon="11.456170332811968"><ele>428.50000000000006</ele><time>2026-04-11T08:08:46.998Z</time></trkpt><trkpt lat="43.405930213931974" lon="11.456086104541834"><ele>427.0</ele><time>2026-04-11T08:08:47.998Z</time></trkpt><trkpt lat="43.40597481025163" lon="11.456000768628304"><ele>426.83333333333337</ele><time>2026-04-11T08:08:48.998Z</time></trkpt><trkpt lat="43.40601170732049" lon="11.455911689703777"><ele>426.6666666666667</ele><time>2026-04-11T08:08:49.998Z</time></trkpt><trkpt lat="43.40604080866003" lon="11.455809960450482"><ele>426.5</ele><time>2026-04-11T08:08:50.998Z</time></trkpt><trkpt lat="43.40606060647639" lon="11.455702467295563"><ele>426.33333333333337</ele><time>2026-04-11T08:08:51.998Z</time></trkpt><trkpt lat="43.40607371811893" lon="11.455592365088172"><ele>426.1666666666667</ele><time>2026-04-11T08:08:52.998Z</time></trkpt><trkpt lat="43.406086274667736" lon="11.45548286682711"><ele>426.0</ele><time>2026-04-11T08:08:54Z</time></trkpt><trkpt lat="43.40610019170241" lon="11.455373159209874"><ele>425.3333333333333</ele><time>2026-04-11T08:08:55Z</time></trkpt><trkpt lat="43.40612033361632" lon="11.455263171611684"><ele>424.66666666666663</ele><time>2026-04-11T08:08:56Z</time></trkpt><trkpt lat="43.40614303472393" lon="11.455159433734904"><ele>424.0</ele><time>2026-04-11T08:08:57Z</time></trkpt><trkpt lat="43.40616547023685" lon="11.455061356341988"><ele>423.3333333333333</ele><time>2026-04-11T08:08:58Z</time></trkpt><trkpt lat="43.406186867314446" lon="11.45496086945896"><ele>422.66666666666663</ele><time>2026-04-11T08:08:59Z</time></trkpt><trkpt lat="43.40620639742992" lon="11.454870503660352"><ele>422.0</ele><time>2026-04-11T08:09:00Z</time></trkpt><trkpt lat="43.40623880704818" lon="11.45477693210033"><ele>421.99999999999994</ele><time>2026-04-11T08:09:01Z</time></trkpt><trkpt lat="43.4062795526698" lon="11.454682932700424"><ele>422.0</ele><time>2026-04-11T08:09:02Z</time></trkpt><trkpt lat="43.40633099880975" lon="11.45459056111551"><ele>422.0</ele><time>2026-04-11T08:09:03Z</time></trkpt><trkpt lat="43.40638797295338" lon="11.45450251987496"><ele>422.0</ele><time>2026-04-11T08:09:04Z</time></trkpt><trkpt lat="43.40644676133198" lon="11.454408372459225"><ele>421.99999999999994</ele><time>2026-04-11T08:09:05Z</time></trkpt><trkpt lat="43.40649088362605" lon="11.45429786439004"><ele>422.0</ele><time>2026-04-11T08:09:06Z</time></trkpt><trkpt lat="43.40652282126282" lon="11.454178668214398"><ele>420.3333333333333</ele><time>2026-04-11T08:09:07Z</time></trkpt><trkpt lat="43.40655123118007" lon="11.454067544722529"><ele>418.66666666666663</ele><time>2026-04-11T08:09:08Z</time></trkpt><trkpt lat="43.40657226737937" lon="11.453963683888357"><ele>417.0</ele><time>2026-04-11T08:09:09Z</time></trkpt><trkpt lat="43.40658658001693" lon="11.45385678053451"><ele>415.33333333333337</ele><time>2026-04-11T08:09:10Z</time></trkpt><trkpt lat="43.4065864959908" lon="11.453750477681766"><ele>413.6666666666667</ele><time>2026-04-11T08:09:11Z</time></trkpt><trkpt lat="43.40657021798442" lon="11.453649005416212"><ele>412.0</ele><time>2026-04-11T08:09:12Z</time></trkpt><trkpt lat="43.406542200587204" lon="11.453553177545437"><ele>411.99999999999994</ele><time>2026-04-11T08:09:13Z</time></trkpt><trkpt lat="43.40651140207847" lon="11.453465376180693"><ele>412.0</ele><time>2026-04-11T08:09:14Z</time></trkpt><trkpt lat="43.406485433276444" lon="11.453374250135246"><ele>412.0</ele><time>2026-04-11T08:09:15Z</time></trkpt><trkpt lat="43.40646958653137" lon="11.453274433365639"><ele>412.0</ele><time>2026-04-11T08:09:16Z</time></trkpt><trkpt lat="43.40646000721314" lon="11.453167809368065"><ele>412.0</ele><time>2026-04-11T08:09:17Z</time></trkpt><trkpt lat="43.406456529891734" lon="11.453062462164779"><ele>411.99999999999994</ele><time>2026-04-11T08:09:18Z</time></trkpt><trkpt lat="43.4064650957676" lon="11.452957435225501"><ele>412.0</ele><time>2026-04-11T08:09:19Z</time></trkpt><trkpt lat="43.40648617568462" lon="11.452855476617199"><ele>411.50000000000006</ele><time>2026-04-11T08:09:20Z</time></trkpt><trkpt lat="43.40650975049477" lon="11.452758307398785"><ele>411.0</ele><time>2026-04-11T08:09:21Z</time></trkpt><trkpt lat="43.40652306880444" lon="11.452653222775973"><ele>410.5</ele><time>2026-04-11T08:09:22Z</time></trkpt><trkpt lat="43.40653151600677" lon="11.452543355290988"><ele>410.0</ele><time>2026-04-11T08:09:23Z</time></trkpt><trkpt lat="43.40653630410163" lon="11.45243238169924"><ele>409.50000000000006</ele><time>2026-04-11T08:09:24Z</time></trkpt><trkpt lat="43.40654003126417" lon="11.452317271859016"><ele>409.0</ele><time>2026-04-11T08:09:25Z</time></trkpt><trkpt lat="43.406538457881034" lon="11.45219921850631"><ele>408.00000000000006</ele><time>2026-04-11T08:09:26Z</time></trkpt><trkpt lat="43.40653065660923" lon="11.452082717089944"><ele>407.0</ele><time>2026-04-11T08:09:27Z</time></trkpt><trkpt lat="43.40650800392586" lon="11.451968960791719"><ele>406.0</ele><time>2026-04-11T08:09:28Z</time></trkpt><trkpt lat="43.406473519781876" lon="11.451861123322795"><ele>405.0</ele><time>2026-04-11T08:09:29Z</time></trkpt><trkpt lat="43.406433087089624" lon="11.451761782240846"><ele>404.00000000000006</ele><time>2026-04-11T08:09:30Z</time></trkpt><trkpt lat="43.40638824651527" lon="11.451669019631694"><ele>403.0</ele><time>2026-04-11T08:09:31Z</time></trkpt><trkpt lat="43.40634619509147" lon="11.451576189756706"><ele>404.33333333333337</ele><time>2026-04-11T08:09:31.999Z</time></trkpt><trkpt lat="43.406304897138405" lon="11.451489610474193"><ele>405.6666666666667</ele><time>2026-04-11T08:09:32.999Z</time></trkpt><trkpt lat="43.40626050170073" lon="11.451403599912222"><ele>407.0</ele><time>2026-04-11T08:09:33.999Z</time></trkpt><trkpt lat="43.40621118173121" lon="11.451322427108858"><ele>408.33333333333337</ele><time>2026-04-11T08:09:34.999Z</time></trkpt><trkpt lat="43.406160801522894" lon="11.45123930127527"><ele>409.6666666666667</ele><time>2026-04-11T08:09:35.999Z</time></trkpt><trkpt lat="43.40611165951116" lon="11.45115066506938"><ele>411.0</ele><time>2026-04-11T08:09:36.999Z</time></trkpt><trkpt lat="43.40606388547348" lon="11.451057350202099"><ele>411.0</ele><time>2026-04-11T08:09:37.999Z</time></trkpt><trkpt lat="43.406025417162645" lon="11.450957829628724"><ele>411.0</ele><time>2026-04-11T08:09:38.999Z</time></trkpt><trkpt lat="43.405988334586574" lon="11.450854407121781"><ele>411.0</ele><time>2026-04-11T08:09:39.999Z</time></trkpt><trkpt lat="43.40595988279045" lon="11.45075195791617"><ele>411.0</ele><time>2026-04-11T08:09:40.999Z</time></trkpt><trkpt lat="43.40593381596726" lon="11.45064405907398"><ele>411.0</ele><time>2026-04-11T08:09:41.999Z</time></trkpt><trkpt lat="43.405914347367315" lon="11.450533612808679"><ele>411.0</ele><time>2026-04-11T08:09:42.999Z</time></trkpt><trkpt lat="43.40588790092088" lon="11.450424162773073"><ele>410.5</ele><time>2026-04-11T08:09:43.999Z</time></trkpt><trkpt lat="43.405858344577645" lon="11.450319977438957"><ele>410.0</ele><time>2026-04-11T08:09:44.999Z</time></trkpt><trkpt lat="43.40582113896541" lon="11.450218444311334"><ele>409.5</ele><time>2026-04-11T08:09:45.999Z</time></trkpt><trkpt lat="43.40577895375775" lon="11.450119489153627"><ele>409.0</ele><time>2026-04-11T08:09:46.999Z</time></trkpt><trkpt lat="43.40573182378528" lon="11.450017445199974"><ele>408.5</ele><time>2026-04-11T08:09:47.999Z</time></trkpt><trkpt lat="43.40568758741798" lon="11.449913353912198"><ele>408.0</ele><time>2026-04-11T08:09:48.999Z</time></trkpt><trkpt lat="43.4056375043136" lon="11.44981036940878"><ele>408.0</ele><time>2026-04-11T08:09:49.999Z</time></trkpt><trkpt lat="43.405583947151214" lon="11.44970875249809"><ele>408.0</ele><time>2026-04-11T08:09:50.999Z</time></trkpt><trkpt lat="43.40552568220584" lon="11.44960858240843"><ele>408.0</ele><time>2026-04-11T08:09:51.999Z</time></trkpt><trkpt lat="43.405465641552915" lon="11.449510747295527"><ele>408.0</ele><time>2026-04-11T08:09:52.999Z</time></trkpt><trkpt lat="43.405409226965574" lon="11.449414134253743"><ele>408.0</ele><time>2026-04-11T08:09:53.999Z</time></trkpt><trkpt lat="43.40535631425932" lon="11.449328881413866"><ele>408.0</ele><time>2026-04-11T08:09:54.999Z</time></trkpt><trkpt lat="43.40530493814907" lon="11.449249336205346"><ele>406.8333333333333</ele><time>2026-04-11T08:09:55.999Z</time></trkpt><trkpt lat="43.40526153975167" lon="11.449177534081727"><ele>405.66666666666663</ele><time>2026-04-11T08:09:56.999Z</time></trkpt><trkpt lat="43.40522010571213" lon="11.449111412948517"><ele>404.5</ele><time>2026-04-11T08:09:57.999Z</time></trkpt><trkpt lat="43.4051521348987" lon="11.448998886095263"><ele>403.3333333333333</ele><time>2026-04-11T08:09:59.999Z</time></trkpt><trkpt lat="43.40509363038747" lon="11.448888235693211"><ele>402.16666666666663</ele><time>2026-04-11T08:10:01.999Z</time></trkpt><trkpt lat="43.405041628779955" lon="11.448781813500434"><ele>401.0</ele><time>2026-04-11T08:10:03.999Z</time></trkpt><trkpt lat="43.40499342137948" lon="11.448695100579071"><ele>400.6</ele><time>2026-04-11T08:10:05.999Z</time></trkpt><trkpt lat="43.40492998517919" lon="11.448600867442359"><ele>400.20000000000005</ele><time>2026-04-11T08:10:07.999Z</time></trkpt><trkpt lat="43.40484008669735" lon="11.448512742291978"><ele>399.79999999999995</ele><time>2026-04-11T08:10:09.999Z</time></trkpt><trkpt lat="43.40473837406314" lon="11.448425643547624"><ele>399.4</ele><time>2026-04-11T08:10:11.999Z</time></trkpt><trkpt lat="43.4046806181104" lon="11.44838020902388"><ele>399.0</ele><time>2026-04-11T08:10:12.999Z</time></trkpt><trkpt lat="43.4046242235591" lon="11.44833384234065"><ele>398.85714285714283</ele><time>2026-04-11T08:10:13.999Z</time></trkpt><trkpt lat="43.40456634668399" lon="11.44829326925272"><ele>398.7142857142857</ele><time>2026-04-11T08:10:14.999Z</time></trkpt><trkpt lat="43.404504763103496" lon="11.448244157691663"><ele>398.57142857142856</ele><time>2026-04-11T08:10:15.999Z</time></trkpt><trkpt lat="43.40444243736114" lon="11.448200134026106"><ele>398.42857142857144</ele><time>2026-04-11T08:10:16.999Z</time></trkpt><trkpt lat="43.40437994939766" lon="11.448159766465606"><ele>398.2857142857143</ele><time>2026-04-11T08:10:17.999Z</time></trkpt><trkpt lat="43.40431780552151" lon="11.448115398143724"><ele>398.1428571428571</ele><time>2026-04-11T08:10:18.999Z</time></trkpt><trkpt lat="43.40425578152029" lon="11.448069180794121"><ele>398.0</ele><time>2026-04-11T08:10:19.999Z</time></trkpt><trkpt lat="43.40419438732875" lon="11.448018360557718"><ele>397.99999999999994</ele><time>2026-04-11T08:10:20.999Z</time></trkpt><trkpt lat="43.404131763042756" lon="11.447972047042732"><ele>398.0</ele><time>2026-04-11T08:10:21.998Z</time></trkpt><trkpt lat="43.40406585673573" lon="11.447933040663214"><ele>398.0</ele><time>2026-04-11T08:10:22.998Z</time></trkpt><trkpt lat="43.40400055069431" lon="11.44789737334504"><ele>398.0</ele><time>2026-04-11T08:10:23.998Z</time></trkpt><trkpt lat="43.40393523468641" lon="11.447862739710354"><ele>398.0</ele><time>2026-04-11T08:10:24.998Z</time></trkpt><trkpt lat="43.40386878818537" lon="11.44782949758097"><ele>397.99999999999994</ele><time>2026-04-11T08:10:25.998Z</time></trkpt><trkpt lat="43.4038013313223" lon="11.447802154730702"><ele>398.0</ele><time>2026-04-11T08:10:26.998Z</time></trkpt><trkpt lat="43.40373560612183" lon="11.447778056277588"><ele>398.1428571428571</ele><time>2026-04-11T08:10:27.998Z</time></trkpt><trkpt lat="43.40367037336562" lon="11.447751567133496"><ele>398.2857142857143</ele><time>2026-04-11T08:10:28.998Z</time></trkpt><trkpt lat="43.40360566264584" lon="11.447721844413117"><ele>398.42857142857144</ele><time>2026-04-11T08:10:29.998Z</time></trkpt><trkpt lat="43.40354202340421" lon="11.44769494873904"><ele>398.57142857142856</ele><time>2026-04-11T08:10:30.998Z</time></trkpt><trkpt lat="43.40347795360842" lon="11.447664679502964"><ele>398.7142857142857</ele><time>2026-04-11T08:10:31.998Z</time></trkpt><trkpt lat="43.40341448693225" lon="11.447631892912343"><ele>398.85714285714283</ele><time>2026-04-11T08:10:32.998Z</time></trkpt><trkpt lat="43.40334998943438" lon="11.447598652503025"><ele>399.0</ele><time>2026-04-11T08:10:33.998Z</time></trkpt><trkpt lat="43.403286791228695" lon="11.447560877955018"><ele>399.0</ele><time>2026-04-11T08:10:34.998Z</time></trkpt><trkpt lat="43.40322411516614" lon="11.447525513447266"><ele>399.0</ele><time>2026-04-11T08:10:35.998Z</time></trkpt><trkpt lat="43.40315887135755" lon="11.44749034589644"><ele>399.0</ele><time>2026-04-11T08:10:36.998Z</time></trkpt><trkpt lat="43.40309660107026" lon="11.44745659505775"><ele>399.0</ele><time>2026-04-11T08:10:37.998Z</time></trkpt><trkpt lat="43.40303066858263" lon="11.447418907995889"><ele>399.0</ele><time>2026-04-11T08:10:38.998Z</time></trkpt><trkpt lat="43.40296626041471" lon="11.447383687856687"><ele>399.0</ele><time>2026-04-11T08:10:39.998Z</time></trkpt><trkpt lat="43.40290423947241" lon="11.447346761381022"><ele>399.0</ele><time>2026-04-11T08:10:40.998Z</time></trkpt><trkpt lat="43.40284198002197" lon="11.44731043022632"><ele>399.0</ele><time>2026-04-11T08:10:41.998Z</time></trkpt><trkpt lat="43.40277575606132" lon="11.447272792089718"><ele>399.0</ele><time>2026-04-11T08:10:42.998Z</time></trkpt><trkpt lat="43.402712581405346" lon="11.447231202442932"><ele>399.0</ele><time>2026-04-11T08:10:43.998Z</time></trkpt><trkpt lat="43.40264602225542" lon="11.447194446822317"><ele>399.0</ele><time>2026-04-11T08:10:44.998Z</time></trkpt><trkpt lat="43.40257780946264" lon="11.4471565052527"><ele>399.0</ele><time>2026-04-11T08:10:45.998Z</time></trkpt><trkpt lat="43.40251033959303" lon="11.447116164683822"><ele>399.0</ele><time>2026-04-11T08:10:46.998Z</time></trkpt><trkpt lat="43.40244261515861" lon="11.44707504179608"><ele>399.0</ele><time>2026-04-11T08:10:47.998Z</time></trkpt><trkpt lat="43.40237365421618" lon="11.447032489146775"><ele>399.0</ele><time>2026-04-11T08:10:48.998Z</time></trkpt><trkpt lat="43.40230658882407" lon="11.44698742502302"><ele>399.0</ele><time>2026-04-11T08:10:49.998Z</time></trkpt><trkpt lat="43.40224304207075" lon="11.446946570329931"><ele>399.0</ele><time>2026-04-11T08:10:50.998Z</time></trkpt><trkpt lat="43.40217900120254" lon="11.44689910397647"><ele>399.0</ele><time>2026-04-11T08:10:51.998Z</time></trkpt><trkpt lat="43.40211681247377" lon="11.446852217520686"><ele>399.0</ele><time>2026-04-11T08:10:52.998Z</time></trkpt><trkpt lat="43.40205443914427" lon="11.446802057433036"><ele>399.0</ele><time>2026-04-11T08:10:53.998Z</time></trkpt><trkpt lat="43.40199244930673" lon="11.446751009629432"><ele>399.0</ele><time>2026-04-11T08:10:54.998Z</time></trkpt><trkpt lat="43.40193116924658" lon="11.4466942096576"><ele>397.5</ele><time>2026-04-11T08:10:55.998Z</time></trkpt><trkpt lat="43.40187365966305" lon="11.446630137039106"><ele>396.0</ele><time>2026-04-11T08:10:56.998Z</time></trkpt><trkpt lat="43.40181500321794" lon="11.44656621729403"><ele>394.5</ele><time>2026-04-11T08:10:57.998Z</time></trkpt><trkpt lat="43.40175745425454" lon="11.446494839210857"><ele>393.0</ele><time>2026-04-11T08:10:58.998Z</time></trkpt><trkpt lat="43.40169862569165" lon="11.44642478853364"><ele>391.5</ele><time>2026-04-11T08:11:00Z</time></trkpt><trkpt lat="43.40164170697532" lon="11.446356639947343"><ele>390.0</ele><time>2026-04-11T08:11:01Z</time></trkpt><trkpt lat="43.40157929626267" lon="11.446282467577666"><ele>390.0</ele><time>2026-04-11T08:11:02Z</time></trkpt><trkpt lat="43.40152024512395" lon="11.446204441062665"><ele>390.0</ele><time>2026-04-11T08:11:03Z</time></trkpt><trkpt lat="43.40145992112597" lon="11.446126017162845"><ele>390.0</ele><time>2026-04-11T08:11:04Z</time></trkpt><trkpt lat="43.40139762901391" lon="11.446043854134288"><ele>390.0</ele><time>2026-04-11T08:11:05Z</time></trkpt><trkpt lat="43.401342701291775" lon="11.44595585073622"><ele>390.0</ele><time>2026-04-11T08:11:06Z</time></trkpt><trkpt lat="43.401288318537375" lon="11.445867386495033"><ele>390.0</ele><time>2026-04-11T08:11:07Z</time></trkpt><trkpt lat="43.40123549151953" lon="11.44578106599737"><ele>388.8333333333333</ele><time>2026-04-11T08:11:08Z</time></trkpt><trkpt lat="43.401188715427786" lon="11.445700254602842"><ele>387.6666666666667</ele><time>2026-04-11T08:11:09Z</time></trkpt><trkpt lat="43.401139567113916" lon="11.445618258932392"><ele>386.5</ele><time>2026-04-11T08:11:10Z</time></trkpt><trkpt lat="43.40109260463859" lon="11.445535749793219"><ele>385.33333333333337</ele><time>2026-04-11T08:11:11Z</time></trkpt><trkpt lat="43.40104548109373" lon="11.445452265440018"><ele>384.1666666666667</ele><time>2026-04-11T08:11:12Z</time></trkpt><trkpt lat="43.400994140349276" lon="11.445367899242926"><ele>383.0</ele><time>2026-04-11T08:11:13Z</time></trkpt><trkpt lat="43.400937273191175" lon="11.445285910003975"><ele>382.83333333333337</ele><time>2026-04-11T08:11:14Z</time></trkpt><trkpt lat="43.40087802668722" lon="11.445205071731284"><ele>382.6666666666667</ele><time>2026-04-11T08:11:15Z</time></trkpt><trkpt lat="43.40081486226202" lon="11.445126743865815"><ele>382.5</ele><time>2026-04-11T08:11:16Z</time></trkpt><trkpt lat="43.40075139279364" lon="11.445043880753337"><ele>382.3333333333333</ele><time>2026-04-11T08:11:17Z</time></trkpt><trkpt lat="43.4006899732098" lon="11.444963105312024"><ele>382.16666666666663</ele><time>2026-04-11T08:11:18Z</time></trkpt><trkpt lat="43.40062763335973" lon="11.444881441891706"><ele>382.0</ele><time>2026-04-11T08:11:19Z</time></trkpt><trkpt lat="43.40056437172501" lon="11.444798425250703"><ele>382.0</ele><time>2026-04-11T08:11:20Z</time></trkpt><trkpt lat="43.400499792134696" lon="11.444712226684105"><ele>382.0</ele><time>2026-04-11T08:11:21Z</time></trkpt><trkpt lat="43.400434582509696" lon="11.444625724486777"><ele>382.0</ele><time>2026-04-11T08:11:22Z</time></trkpt><trkpt lat="43.40036800784183" lon="11.444539378853259"><ele>382.0</ele><time>2026-04-11T08:11:23Z</time></trkpt><trkpt lat="43.40030189711911" lon="11.444452392848005"><ele>382.0</ele><time>2026-04-11T08:11:24Z</time></trkpt><trkpt lat="43.40023402082201" lon="11.444367952962553"><ele>381.16666666666663</ele><time>2026-04-11T08:11:25Z</time></trkpt><trkpt lat="43.400166667552824" lon="11.444282901295615"><ele>380.3333333333333</ele><time>2026-04-11T08:11:26Z</time></trkpt><trkpt lat="43.400101933507855" lon="11.444197720830712"><ele>379.5</ele><time>2026-04-11T08:11:27Z</time></trkpt><trkpt lat="43.400041149183764" lon="11.444111406091155"><ele>378.6666666666667</ele><time>2026-04-11T08:11:28Z</time></trkpt><trkpt lat="43.3999828404309" lon="11.444027101137756"><ele>377.83333333333337</ele><time>2026-04-11T08:11:29Z</time></trkpt><trkpt lat="43.39992472008527" lon="11.443943152003001"><ele>377.0</ele><time>2026-04-11T08:11:30Z</time></trkpt><trkpt lat="43.3998644032677" lon="11.44387014556113"><ele>376.99999999999994</ele><time>2026-04-11T08:11:31Z</time></trkpt><trkpt lat="43.39980187272911" lon="11.443806442606208"><ele>377.0</ele><time>2026-04-11T08:11:32Z</time></trkpt><trkpt lat="43.399738756560716" lon="11.443750236737404"><ele>377.0</ele><time>2026-04-11T08:11:33Z</time></trkpt><trkpt lat="43.399673143810084" lon="11.443711057447572"><ele>377.0</ele><time>2026-04-11T08:11:34Z</time></trkpt><trkpt lat="43.39960448438641" lon="11.443679583458957"><ele>377.0</ele><time>2026-04-11T08:11:35Z</time></trkpt><trkpt lat="43.39953573982741" lon="11.443656861988813"><ele>376.99999999999994</ele><time>2026-04-11T08:11:36Z</time></trkpt><trkpt lat="43.399469683819355" lon="11.443629782643931"><ele>377.0</ele><time>2026-04-11T08:11:37Z</time></trkpt><trkpt lat="43.39940867209082" lon="11.443601803117584"><ele>376.75</ele><time>2026-04-11T08:11:38Z</time></trkpt><trkpt lat="43.399293084289155" lon="11.44354115027201"><ele>376.5</ele><time>2026-04-11T08:11:39.999Z</time></trkpt><trkpt lat="43.39917591083358" lon="11.443502073347258"><ele>376.25</ele><time>2026-04-11T08:11:41.999Z</time></trkpt><trkpt lat="43.39906097295207" lon="11.443471459110194"><ele>376.0</ele><time>2026-04-11T08:11:43.999Z</time></trkpt><trkpt lat="43.39894905408026" lon="11.443459391362666"><ele>376.0</ele><time>2026-04-11T08:11:45.999Z</time></trkpt><trkpt lat="43.3988315832626" lon="11.443475592900699"><ele>376.0</ele><time>2026-04-11T08:11:47.999Z</time></trkpt><trkpt lat="43.39870847236732" lon="11.443503345338181"><ele>376.0</ele><time>2026-04-11T08:11:49.999Z</time></trkpt><trkpt lat="43.39864385879665" lon="11.443511740809448"><ele>376.0</ele><time>2026-04-11T08:11:50.999Z</time></trkpt><trkpt lat="43.39857898460305" lon="11.443523551733172"><ele>376.0</ele><time>2026-04-11T08:11:51.999Z</time></trkpt><trkpt lat="43.398512729628706" lon="11.4435372038339"><ele>376.0</ele><time>2026-04-11T08:11:52.999Z</time></trkpt><trkpt lat="43.3984454620326" lon="11.443554134874693"><ele>376.0</ele><time>2026-04-11T08:11:53.999Z</time></trkpt><trkpt lat="43.39838045003059" lon="11.443570698736991"><ele>376.0</ele><time>2026-04-11T08:11:54.999Z</time></trkpt><trkpt lat="43.39831527913175" lon="11.443587985906815"><ele>376.0</ele><time>2026-04-11T08:11:55.999Z</time></trkpt><trkpt lat="43.3982482058692" lon="11.443605646436454"><ele>376.0</ele><time>2026-04-11T08:11:56.999Z</time></trkpt><trkpt lat="43.39818329799252" lon="11.443617946410724"><ele>376.0</ele><time>2026-04-11T08:11:57.999Z</time></trkpt><trkpt lat="43.39811657618866" lon="11.443628876936037"><ele>376.0</ele><time>2026-04-11T08:11:58.999Z</time></trkpt><trkpt lat="43.39804964737097" lon="11.443641890263736"><ele>376.0</ele><time>2026-04-11T08:11:59.999Z</time></trkpt><trkpt lat="43.397980453505305" lon="11.443655218233534"><ele>375.57142857142856</ele><time>2026-04-11T08:12:00.999Z</time></trkpt><trkpt lat="43.39791109238358" lon="11.4436586529697"><ele>375.1428571428571</ele><time>2026-04-11T08:12:01.999Z</time></trkpt><trkpt lat="43.39784216601211" lon="11.44364667063826"><ele>374.7142857142857</ele><time>2026-04-11T08:12:02.999Z</time></trkpt><trkpt lat="43.39777568535833" lon="11.443616778868906"><ele>374.2857142857143</ele><time>2026-04-11T08:12:03.999Z</time></trkpt><trkpt lat="43.397714264392874" lon="11.443582747771403"><ele>373.8571428571429</ele><time>2026-04-11T08:12:04.999Z</time></trkpt><trkpt lat="43.39764535701443" lon="11.443557861985648"><ele>373.42857142857144</ele><time>2026-04-11T08:12:05.999Z</time></trkpt><trkpt lat="43.397579048669684" lon="11.443534527136732"><ele>373.0</ele><time>2026-04-11T08:12:06.999Z</time></trkpt><trkpt lat="43.39751537875018" lon="11.44350868121109"><ele>373.0</ele><time>2026-04-11T08:12:07.999Z</time></trkpt><trkpt lat="43.39745017180612" lon="11.44348309913485"><ele>373.0</ele><time>2026-04-11T08:12:08.999Z</time></trkpt><trkpt lat="43.39738188260236" lon="11.443459018424345"><ele>373.0</ele><time>2026-04-11T08:12:09.999Z</time></trkpt><trkpt lat="43.397312915157606" lon="11.443434372674638"><ele>373.0</ele><time>2026-04-11T08:12:10.999Z</time></trkpt><trkpt lat="43.39724216510748" lon="11.443407122082535"><ele>373.0</ele><time>2026-04-11T08:12:11.999Z</time></trkpt><trkpt lat="43.39717065953231" lon="11.44337687020356"><ele>373.0</ele><time>2026-04-11T08:12:12.999Z</time></trkpt><trkpt lat="43.39709644382023" lon="11.44334890656588"><ele>373.0</ele><time>2026-04-11T08:12:13.999Z</time></trkpt><trkpt lat="43.397020869175506" lon="11.443321351078941"><ele>372.66666666666663</ele><time>2026-04-11T08:12:14.999Z</time></trkpt><trkpt lat="43.39694744158877" lon="11.44329168461975"><ele>372.3333333333333</ele><time>2026-04-11T08:12:15.999Z</time></trkpt><trkpt lat="43.39687198106853" lon="11.443259479463705"><ele>372.0</ele><time>2026-04-11T08:12:16.999Z</time></trkpt><trkpt lat="43.396795833579354" lon="11.44322655801966"><ele>371.6666666666667</ele><time>2026-04-11T08:12:17.999Z</time></trkpt><trkpt lat="43.396718824904916" lon="11.443195307780572"><ele>371.33333333333337</ele><time>2026-04-11T08:12:18.999Z</time></trkpt><trkpt lat="43.39664310442411" lon="11.443166970047749"><ele>371.0</ele><time>2026-04-11T08:12:19.999Z</time></trkpt><trkpt lat="43.3965686777853" lon="11.443138903318195"><ele>371.0</ele><time>2026-04-11T08:12:20.999Z</time></trkpt><trkpt lat="43.39649496808225" lon="11.443110995998536"><ele>371.0</ele><time>2026-04-11T08:12:21.999Z</time></trkpt><trkpt lat="43.396424515382336" lon="11.44308104644392"><ele>371.0</ele><time>2026-04-11T08:12:22.999Z</time></trkpt><trkpt lat="43.39635330354881" lon="11.44305156761519"><ele>371.0</ele><time>2026-04-11T08:12:23.999Z</time></trkpt><trkpt lat="43.39628166750963" lon="11.443022673291438"><ele>371.0</ele><time>2026-04-11T08:12:24.999Z</time></trkpt><trkpt lat="43.396207585582395" lon="11.442996216517"><ele>371.0</ele><time>2026-04-11T08:12:25.999Z</time></trkpt><trkpt lat="43.39613293837097" lon="11.442972201513625"><ele>370.33333333333337</ele><time>2026-04-11T08:12:26.999Z</time></trkpt><trkpt lat="43.39605630858369" lon="11.442937812857947"><ele>369.6666666666667</ele><time>2026-04-11T08:12:27.999Z</time></trkpt><trkpt lat="43.3959782447972" lon="11.442902786210626"><ele>369.0</ele><time>2026-04-11T08:12:28.999Z</time></trkpt><trkpt lat="43.3958993173352" lon="11.442870777132066"><ele>368.3333333333333</ele><time>2026-04-11T08:12:29.998Z</time></trkpt><trkpt lat="43.39581892395044" lon="11.442838684604757"><ele>367.66666666666663</ele><time>2026-04-11T08:12:30.998Z</time></trkpt><trkpt lat="43.39573908410461" lon="11.442806633571346"><ele>367.0</ele><time>2026-04-11T08:12:31.998Z</time></trkpt><trkpt lat="43.39565910693463" lon="11.442775510639452"><ele>367.0</ele><time>2026-04-11T08:12:32.998Z</time></trkpt><trkpt lat="43.39558014800919" lon="11.442745797165722"><ele>367.0</ele><time>2026-04-11T08:12:33.998Z</time></trkpt><trkpt lat="43.39550229237609" lon="11.442720413872392"><ele>367.0</ele><time>2026-04-11T08:12:34.998Z</time></trkpt><trkpt lat="43.395425718117906" lon="11.442701397616188"><ele>367.0</ele><time>2026-04-11T08:12:35.998Z</time></trkpt><trkpt lat="43.39535138599787" lon="11.442687191433553"><ele>367.0</ele><time>2026-04-11T08:12:36.998Z</time></trkpt><trkpt lat="43.3952767872159" lon="11.442679280354026"><ele>367.0</ele><time>2026-04-11T08:12:37.998Z</time></trkpt><trkpt lat="43.395204400613494" lon="11.442675801400126"><ele>367.16666666666663</ele><time>2026-04-11T08:12:38.998Z</time></trkpt><trkpt lat="43.395131021716644" lon="11.442673205596353"><ele>367.3333333333333</ele><time>2026-04-11T08:12:39.998Z</time></trkpt><trkpt lat="43.39506262996973" lon="11.442678455725526"><ele>367.5</ele><time>2026-04-11T08:12:40.998Z</time></trkpt><trkpt lat="43.39499827036965" lon="11.442686407126427"><ele>367.6666666666667</ele><time>2026-04-11T08:12:41.998Z</time></trkpt><trkpt lat="43.39487869985087" lon="11.44270359942724"><ele>367.83333333333337</ele><time>2026-04-11T08:12:43.998Z</time></trkpt><trkpt lat="43.394768872070664" lon="11.442713350816375"><ele>368.0</ele><time>2026-04-11T08:12:45.998Z</time></trkpt><trkpt lat="43.39466455134234" lon="11.442720344956776"><ele>368.0</ele><time>2026-04-11T08:12:47.998Z</time></trkpt><trkpt lat="43.39456145469242" lon="11.442712818347552"><ele>368.0</ele><time>2026-04-11T08:12:49.998Z</time></trkpt><trkpt lat="43.394461530794544" lon="11.442703960844574"><ele>368.0</ele><time>2026-04-11T08:12:51.998Z</time></trkpt><trkpt lat="43.39436556768901" lon="11.44269767646759"><ele>368.0</ele><time>2026-04-11T08:12:53.998Z</time></trkpt><trkpt lat="43.39426560393301" lon="11.44267900917342"><ele>368.0</ele><time>2026-04-11T08:12:55.998Z</time></trkpt><trkpt lat="43.394152847956654" lon="11.442665380679355"><ele>368.0</ele><time>2026-04-11T08:12:57.998Z</time></trkpt><trkpt lat="43.394034128461946" lon="11.442643825065927"><ele>368.0</ele><time>2026-04-11T08:12:59.998Z</time></trkpt><trkpt lat="43.3939161733728" lon="11.442630302247021"><ele>368.0</ele><time>2026-04-11T08:13:01.998Z</time></trkpt><trkpt lat="43.39379810334478" lon="11.442614685027014"><ele>368.0</ele><time>2026-04-11T08:13:03.998Z</time></trkpt><trkpt lat="43.39368087963237" lon="11.442589345446478"><ele>368.0</ele><time>2026-04-11T08:13:06Z</time></trkpt><trkpt lat="43.39355883338031" lon="11.442546165226025"><ele>368.0</ele><time>2026-04-11T08:13:08Z</time></trkpt><trkpt lat="43.393497405063556" lon="11.442516698153183"><ele>368.0</ele><time>2026-04-11T08:13:09Z</time></trkpt><trkpt lat="43.39343321162209" lon="11.442486748292234"><ele>368.0</ele><time>2026-04-11T08:13:10Z</time></trkpt><trkpt lat="43.39336994075842" lon="11.442452836071203"><ele>368.0</ele><time>2026-04-11T08:13:11Z</time></trkpt><trkpt lat="43.39330519115765" lon="11.442417170413826"><ele>368.0</ele><time>2026-04-11T08:13:12Z</time></trkpt><trkpt lat="43.393239776906256" lon="11.442383665666929"><ele>368.0</ele><time>2026-04-11T08:13:13Z</time></trkpt><trkpt lat="43.39317327571863" lon="11.442352252222811"><ele>368.0</ele><time>2026-04-11T08:13:14Z</time></trkpt><trkpt lat="43.39310551213373" lon="11.442326882426448"><ele>368.0</ele><time>2026-04-11T08:13:15Z</time></trkpt><trkpt lat="43.39303607675521" lon="11.442309395445378"><ele>368.0</ele><time>2026-04-11T08:13:16Z</time></trkpt><trkpt lat="43.39296692153728" lon="11.442295305130912"><ele>368.0</ele><time>2026-04-11T08:13:17Z</time></trkpt><trkpt lat="43.392896535978494" lon="11.442288396039208"><ele>368.0</ele><time>2026-04-11T08:13:18Z</time></trkpt><trkpt lat="43.39282791608153" lon="11.442292761133865"><ele>368.0</ele><time>2026-04-11T08:13:19Z</time></trkpt><trkpt lat="43.39276037542123" lon="11.442307007661412"><ele>368.14285714285717</ele><time>2026-04-11T08:13:20Z</time></trkpt><trkpt lat="43.392694437920454" lon="11.442322757697644"><ele>368.2857142857143</ele><time>2026-04-11T08:13:21Z</time></trkpt><trkpt lat="43.39262686455275" lon="11.442336922348572"><ele>368.42857142857144</ele><time>2026-04-11T08:13:22Z</time></trkpt><trkpt lat="43.39256068808966" lon="11.442354476573183"><ele>368.57142857142856</ele><time>2026-04-11T08:13:23Z</time></trkpt><trkpt lat="43.392494231820926" lon="11.442372795352467"><ele>368.71428571428567</ele><time>2026-04-11T08:13:24Z</time></trkpt><trkpt lat="43.392429123403566" lon="11.442399743554715"><ele>368.85714285714283</ele><time>2026-04-11T08:13:25Z</time></trkpt><trkpt lat="43.392365426951415" lon="11.44243674538706"><ele>369.0</ele><time>2026-04-11T08:13:26Z</time></trkpt><trkpt lat="43.39230250499436" lon="11.442477927979182"><ele>369.0</ele><time>2026-04-11T08:13:27Z</time></trkpt><trkpt lat="43.392237214312196" lon="11.442515273369722"><ele>369.0</ele><time>2026-04-11T08:13:28Z</time></trkpt><trkpt lat="43.392172135233864" lon="11.442553320907104"><ele>369.0</ele><time>2026-04-11T08:13:29Z</time></trkpt><trkpt lat="43.39210984740931" lon="11.442595079507454"><ele>369.0</ele><time>2026-04-11T08:13:30Z</time></trkpt><trkpt lat="43.39204716751104" lon="11.442641049077496"><ele>369.0</ele><time>2026-04-11T08:13:31Z</time></trkpt><trkpt lat="43.3919825063156" lon="11.44268563487222"><ele>369.0</ele><time>2026-04-11T08:13:32Z</time></trkpt><trkpt lat="43.39191908289615" lon="11.442733040011944"><ele>369.0</ele><time>2026-04-11T08:13:33Z</time></trkpt><trkpt lat="43.391857990064" lon="11.442776393095428"><ele>368.5</ele><time>2026-04-11T08:13:34Z</time></trkpt><trkpt lat="43.39179187882939" lon="11.442813182108509"><ele>368.0</ele><time>2026-04-11T08:13:35Z</time></trkpt><trkpt lat="43.39172490348857" lon="11.442840257982402"><ele>367.5</ele><time>2026-04-11T08:13:36Z</time></trkpt><trkpt lat="43.391657722783954" lon="11.442856588357927"><ele>367.0</ele><time>2026-04-11T08:13:37Z</time></trkpt><trkpt lat="43.39159015786106" lon="11.442865981624424"><ele>366.5</ele><time>2026-04-11T08:13:38Z</time></trkpt><trkpt lat="43.391525886181626" lon="11.442866627908948"><ele>366.0</ele><time>2026-04-11T08:13:39Z</time></trkpt><trkpt lat="43.39140478918038" lon="11.442864543764555"><ele>366.4</ele><time>2026-04-11T08:13:41Z</time></trkpt><trkpt lat="43.39128724145309" lon="11.442870881649956"><ele>366.8</ele><time>2026-04-11T08:13:43Z</time></trkpt><trkpt lat="43.39116545092657" lon="11.442880807592848"><ele>367.2</ele><time>2026-04-11T08:13:45Z</time></trkpt><trkpt lat="43.39104077818824" lon="11.442906907977136"><ele>367.59999999999997</ele><time>2026-04-11T08:13:46.999Z</time></trkpt><trkpt lat="43.39097571146499" lon="11.442918246425151"><ele>368.0</ele><time>2026-04-11T08:13:47.999Z</time></trkpt><trkpt lat="43.39090991994624" lon="11.442932685163653"><ele>368.0</ele><time>2026-04-11T08:13:48.999Z</time></trkpt><trkpt lat="43.39084563278734" lon="11.442944651551802"><ele>368.0</ele><time>2026-04-11T08:13:49.999Z</time></trkpt><trkpt lat="43.39078148729535" lon="11.44295712151286"><ele>368.0</ele><time>2026-04-11T08:13:50.999Z</time></trkpt><trkpt lat="43.39071464304438" lon="11.442967133179062"><ele>368.0</ele><time>2026-04-11T08:13:51.999Z</time></trkpt><trkpt lat="43.39065003605523" lon="11.442977708274798"><ele>368.0</ele><time>2026-04-11T08:13:52.999Z</time></trkpt><trkpt lat="43.39058378767804" lon="11.44297971053385"><ele>368.0</ele><time>2026-04-11T08:13:53.999Z</time></trkpt><trkpt lat="43.390516679954835" lon="11.442973390287642"><ele>368.0</ele><time>2026-04-11T08:13:54.999Z</time></trkpt><trkpt lat="43.390450383924666" lon="11.442966000714494"><ele>367.4</ele><time>2026-04-11T08:13:55.999Z</time></trkpt><trkpt lat="43.39038317536963" lon="11.442959920053376"><ele>366.79999999999995</ele><time>2026-04-11T08:13:56.999Z</time></trkpt><trkpt lat="43.390316320445656" lon="11.442949373378855"><ele>366.2</ele><time>2026-04-11T08:13:57.999Z</time></trkpt><trkpt lat="43.39025050670644" lon="11.442942574162368"><ele>365.6</ele><time>2026-04-11T08:13:58.999Z</time></trkpt><trkpt lat="43.39012476501707" lon="11.442923016010385"><ele>365.0</ele><time>2026-04-11T08:14:00.999Z</time></trkpt><trkpt lat="43.389998406513556" lon="11.442892732562076"><ele>365.0</ele><time>2026-04-11T08:14:02.999Z</time></trkpt><trkpt lat="43.389934983628336" lon="11.442861284112793"><ele>365.0</ele><time>2026-04-11T08:14:03.999Z</time></trkpt><trkpt lat="43.38987232464671" lon="11.44281375451579"><ele>365.0</ele><time>2026-04-11T08:14:04.999Z</time></trkpt><trkpt lat="43.38981123399916" lon="11.442749990740964"><ele>365.0</ele><time>2026-04-11T08:14:05.999Z</time></trkpt><trkpt lat="43.389759519715135" lon="11.44266249268139"><ele>365.0</ele><time>2026-04-11T08:14:06.999Z</time></trkpt><trkpt lat="43.38972136715067" lon="11.44256113891238"><ele>365.0</ele><time>2026-04-11T08:14:07.999Z</time></trkpt><trkpt lat="43.38969077566259" lon="11.442460029704367"><ele>363.8571428571429</ele><time>2026-04-11T08:14:08.999Z</time></trkpt><trkpt lat="43.3896556691083" lon="11.442366891364491"><ele>362.7142857142857</ele><time>2026-04-11T08:14:09.999Z</time></trkpt><trkpt lat="43.38961678735041" lon="11.442283950285436"><ele>361.57142857142856</ele><time>2026-04-11T08:14:10.999Z</time></trkpt><trkpt lat="43.38957429742387" lon="11.44220621207918"><ele>360.42857142857144</ele><time>2026-04-11T08:14:11.999Z</time></trkpt><trkpt lat="43.38952849221057" lon="11.442128425187597"><ele>359.2857142857143</ele><time>2026-04-11T08:14:12.999Z</time></trkpt><trkpt lat="43.389482338541676" lon="11.442053562237154"><ele>358.14285714285717</ele><time>2026-04-11T08:14:13.999Z</time></trkpt><trkpt lat="43.38943207140142" lon="11.441981223388833"><ele>357.0</ele><time>2026-04-11T08:14:14.999Z</time></trkpt><trkpt lat="43.38938511032551" lon="11.441908376375126"><ele>357.0</ele><time>2026-04-11T08:14:15.999Z</time></trkpt><trkpt lat="43.38933736662263" lon="11.441831824402875"><ele>357.0</ele><time>2026-04-11T08:14:16.999Z</time></trkpt><trkpt lat="43.389288627454874" lon="11.441755584500607"><ele>357.0</ele><time>2026-04-11T08:14:17.999Z</time></trkpt><trkpt lat="43.38923930860262" lon="11.441679353090965"><ele>357.0</ele><time>2026-04-11T08:14:18.999Z</time></trkpt><trkpt lat="43.389189518985965" lon="11.441600884668523"><ele>357.0</ele><time>2026-04-11T08:14:19.999Z</time></trkpt><trkpt lat="43.38913728538202" lon="11.441521701369929"><ele>357.0</ele><time>2026-04-11T08:14:20.999Z</time></trkpt><trkpt lat="43.38908442649036" lon="11.441443098541715"><ele>357.0</ele><time>2026-04-11T08:14:21.999Z</time></trkpt><trkpt lat="43.3890290121827" lon="11.441357944126384"><ele>357.0</ele><time>2026-04-11T08:14:22.999Z</time></trkpt><trkpt lat="43.38897214641575" lon="11.441271340839211"><ele>357.0</ele><time>2026-04-11T08:14:23.999Z</time></trkpt><trkpt lat="43.388911199167595" lon="11.44118150958427"><ele>357.0</ele><time>2026-04-11T08:14:24.999Z</time></trkpt><trkpt lat="43.388848003721634" lon="11.441090556107095"><ele>357.0</ele><time>2026-04-11T08:14:25.999Z</time></trkpt><trkpt lat="43.3887874019801" lon="11.441005040278332"><ele>357.0</ele><time>2026-04-11T08:14:26.999Z</time></trkpt><trkpt lat="43.38872311168353" lon="11.440926650833228"><ele>356.40000000000003</ele><time>2026-04-11T08:14:27.999Z</time></trkpt><trkpt lat="43.38865361563562" lon="11.440847112827694"><ele>355.8</ele><time>2026-04-11T08:14:28.999Z</time></trkpt><trkpt lat="43.388577692743745" lon="11.44077110052639"><ele>355.2</ele><time>2026-04-11T08:14:29.999Z</time></trkpt><trkpt lat="43.38850086017409" lon="11.440693522925388"><ele>354.6</ele><time>2026-04-11T08:14:30.999Z</time></trkpt><trkpt lat="43.388426021022006" lon="11.440607112498574"><ele>354.0</ele><time>2026-04-11T08:14:31.999Z</time></trkpt><trkpt lat="43.38835415504082" lon="11.440512047681947"><ele>352.2</ele><time>2026-04-11T08:14:32.999Z</time></trkpt><trkpt lat="43.38828816708749" lon="11.44041807859372"><ele>350.4</ele><time>2026-04-11T08:14:33.999Z</time></trkpt><trkpt lat="43.38822270075361" lon="11.440320531001651"><ele>348.6</ele><time>2026-04-11T08:14:34.999Z</time></trkpt><trkpt lat="43.388155522314136" lon="11.440223808366856"><ele>346.8</ele><time>2026-04-11T08:14:35.999Z</time></trkpt><trkpt lat="43.38808602827612" lon="11.440125740303746"><ele>345.0</ele><time>2026-04-11T08:14:36.998Z</time></trkpt><trkpt lat="43.38801748527231" lon="11.44002318161562"><ele>345.2</ele><time>2026-04-11T08:14:37.998Z</time></trkpt><trkpt lat="43.387950706091644" lon="11.43991351279691"><ele>345.4</ele><time>2026-04-11T08:14:38.998Z</time></trkpt><trkpt lat="43.387888257981665" lon="11.439797402660624"><ele>345.6</ele><time>2026-04-11T08:14:39.998Z</time></trkpt><trkpt lat="43.3878263387563" lon="11.439674440100825"><ele>345.8</ele><time>2026-04-11T08:14:40.998Z</time></trkpt><trkpt lat="43.38776312418131" lon="11.43955106529409"><ele>346.0</ele><time>2026-04-11T08:14:41.998Z</time></trkpt><trkpt lat="43.38769677695764" lon="11.439425393210966"><ele>345.20000000000005</ele><time>2026-04-11T08:14:42.998Z</time></trkpt><trkpt lat="43.387625077089815" lon="11.439302939049169"><ele>344.40000000000003</ele><time>2026-04-11T08:14:43.998Z</time></trkpt><trkpt lat="43.38754985331173" lon="11.439182751019686"><ele>343.6</ele><time>2026-04-11T08:14:44.998Z</time></trkpt><trkpt lat="43.387479043921566" lon="11.439067687621256"><ele>342.8</ele><time>2026-04-11T08:14:45.998Z</time></trkpt><trkpt lat="43.387409574297024" lon="11.438958936539313"><ele>342.0</ele><time>2026-04-11T08:14:46.998Z</time></trkpt><trkpt lat="43.387344269344744" lon="11.438850767874818"><ele>342.20000000000005</ele><time>2026-04-11T08:14:47.998Z</time></trkpt><trkpt lat="43.38728189204593" lon="11.438745262508114"><ele>342.4</ele><time>2026-04-11T08:14:48.998Z</time></trkpt><trkpt lat="43.38722086283589" lon="11.438640044529395"><ele>342.6</ele><time>2026-04-11T08:14:49.998Z</time></trkpt><trkpt lat="43.38716814942464" lon="11.438526831911041"><ele>342.79999999999995</ele><time>2026-04-11T08:14:50.998Z</time></trkpt><trkpt lat="43.38712374726286" lon="11.438407813435774"><ele>343.0</ele><time>2026-04-11T08:14:51.998Z</time></trkpt><trkpt lat="43.3870901915593" lon="11.438284452841769"><ele>343.0</ele><time>2026-04-11T08:14:52.998Z</time></trkpt><trkpt lat="43.38706099040138" lon="11.438160411462583"><ele>343.0</ele><time>2026-04-11T08:14:53.998Z</time></trkpt><trkpt lat="43.38702965605728" lon="11.438043336020206"><ele>343.0</ele><time>2026-04-11T08:14:54.998Z</time></trkpt><trkpt lat="43.38699718079266" lon="11.437928500401439"><ele>343.0</ele><time>2026-04-11T08:14:55.998Z</time></trkpt><trkpt lat="43.38696532436126" lon="11.437813553907933"><ele>343.0</ele><time>2026-04-11T08:14:56.998Z</time></trkpt><trkpt lat="43.38693535443305" lon="11.43770133119882"><ele>343.16666666666663</ele><time>2026-04-11T08:14:57.998Z</time></trkpt><trkpt lat="43.38690566235458" lon="11.437591931027107"><ele>343.3333333333333</ele><time>2026-04-11T08:14:58.998Z</time></trkpt><trkpt lat="43.386878454880055" lon="11.437481100013102"><ele>343.5</ele><time>2026-04-11T08:14:59.998Z</time></trkpt><trkpt lat="43.38684973313012" lon="11.437374642085478"><ele>343.6666666666667</ele><time>2026-04-11T08:15:00.998Z</time></trkpt><trkpt lat="43.386818451510266" lon="11.437269655751235"><ele>343.83333333333337</ele><time>2026-04-11T08:15:01.998Z</time></trkpt><trkpt lat="43.386783763377515" lon="11.437166956950824"><ele>344.0</ele><time>2026-04-11T08:15:02.998Z</time></trkpt><trkpt lat="43.386741562185726" lon="11.437072348774903"><ele>342.6666666666667</ele><time>2026-04-11T08:15:03.998Z</time></trkpt><trkpt lat="43.38669027721408" lon="11.436986997780478"><ele>341.33333333333337</ele><time>2026-04-11T08:15:04.998Z</time></trkpt><trkpt lat="43.38662816903642" lon="11.436911973877299"><ele>340.0</ele><time>2026-04-11T08:15:05.998Z</time></trkpt><trkpt lat="43.38656247028055" lon="11.436846630668926"><ele>338.6666666666667</ele><time>2026-04-11T08:15:06.998Z</time></trkpt><trkpt lat="43.386497938165725" lon="11.436783310680465"><ele>337.3333333333333</ele><time>2026-04-11T08:15:07.998Z</time></trkpt><trkpt lat="43.386436808975226" lon="11.436714213973378"><ele>336.0</ele><time>2026-04-11T08:15:08.998Z</time></trkpt><trkpt lat="43.3863769490577" lon="11.436646115414632"><ele>336.0</ele><time>2026-04-11T08:15:09.998Z</time></trkpt><trkpt lat="43.38631608095388" lon="11.436578973136891"><ele>336.0</ele><time>2026-04-11T08:15:10.998Z</time></trkpt><trkpt lat="43.38625221204535" lon="11.436509744121654"><ele>336.0</ele><time>2026-04-11T08:15:12Z</time></trkpt><trkpt lat="43.38618877847567" lon="11.43644349372583"><ele>336.0</ele><time>2026-04-11T08:15:13Z</time></trkpt><trkpt lat="43.38612768240669" lon="11.436370804654006"><ele>336.0</ele><time>2026-04-11T08:15:14Z</time></trkpt><trkpt lat="43.38606983219307" lon="11.436295902526998"><ele>336.0</ele><time>2026-04-11T08:15:15Z</time></trkpt><trkpt lat="43.386017174951554" lon="11.436219062883795"><ele>336.0</ele><time>2026-04-11T08:15:16Z</time></trkpt><trkpt lat="43.38596754731385" lon="11.436145897513796"><ele>336.0</ele><time>2026-04-11T08:15:17Z</time></trkpt><trkpt lat="43.38588760751065" lon="11.436022813242086"><ele>336.0</ele><time>2026-04-11T08:15:19Z</time></trkpt><trkpt lat="43.38580279370194" lon="11.435924061440202"><ele>336.0</ele><time>2026-04-11T08:15:21Z</time></trkpt><trkpt lat="43.3856975416875" lon="11.435839986993402"><ele>336.0</ele><time>2026-04-11T08:15:23Z</time></trkpt><trkpt lat="43.385594587635936" lon="11.435770977123822"><ele>335.0</ele><time>2026-04-11T08:15:25Z</time></trkpt><trkpt lat="43.38548791364203" lon="11.435670481408236"><ele>334.0</ele><time>2026-04-11T08:15:27Z</time></trkpt><trkpt lat="43.38542433791851" lon="11.435608948266408"><ele>333.0</ele><time>2026-04-11T08:15:28Z</time></trkpt><trkpt lat="43.38535592976905" lon="11.435547263996083"><ele>332.0</ele><time>2026-04-11T08:15:29Z</time></trkpt><trkpt lat="43.385280382772685" lon="11.43548573298358"><ele>331.0</ele><time>2026-04-11T08:15:30Z</time></trkpt><trkpt lat="43.38520096310001" lon="11.435425006680314"><ele>330.6</ele><time>2026-04-11T08:15:31Z</time></trkpt><trkpt lat="43.38511880613548" lon="11.435369508331018"><ele>330.20000000000005</ele><time>2026-04-11T08:15:32Z</time></trkpt><trkpt lat="43.385035370473204" lon="11.435312337773645"><ele>329.79999999999995</ele><time>2026-04-11T08:15:33Z</time></trkpt><trkpt lat="43.384948623186354" lon="11.435260418431344"><ele>329.4</ele><time>2026-04-11T08:15:34Z</time></trkpt><trkpt lat="43.38485743491973" lon="11.435219213872573"><ele>329.0</ele><time>2026-04-11T08:15:35Z</time></trkpt><trkpt lat="43.38476234571939" lon="11.43519244748259"><ele>328.2</ele><time>2026-04-11T08:15:36Z</time></trkpt><trkpt lat="43.38466332631221" lon="11.43517303610465"><ele>327.4</ele><time>2026-04-11T08:15:37Z</time></trkpt><trkpt lat="43.384566337247335" lon="11.435155565669863"><ele>326.6</ele><time>2026-04-11T08:15:38Z</time></trkpt><trkpt lat="43.38446971806116" lon="11.435134416067168"><ele>325.8</ele><time>2026-04-11T08:15:39Z</time></trkpt><trkpt lat="43.38437700014597" lon="11.435111956397572"><ele>325.0</ele><time>2026-04-11T08:15:40Z</time></trkpt><trkpt lat="43.38428954260606" lon="11.435091768584916"><ele>325.0</ele><time>2026-04-11T08:15:41Z</time></trkpt><trkpt lat="43.38420349325256" lon="11.435071659748024"><ele>325.0</ele><time>2026-04-11T08:15:42Z</time></trkpt><trkpt lat="43.38411616024489" lon="11.435051708795116"><ele>325.0</ele><time>2026-04-11T08:15:43Z</time></trkpt><trkpt lat="43.384026301731765" lon="11.435026299066381"><ele>325.0</ele><time>2026-04-11T08:15:44Z</time></trkpt><trkpt lat="43.383936997259156" lon="11.434999374898856"><ele>325.0</ele><time>2026-04-11T08:15:45Z</time></trkpt><trkpt lat="43.38384518095441" lon="11.434970761574528"><ele>324.8</ele><time>2026-04-11T08:15:46Z</time></trkpt><trkpt lat="43.38375128444223" lon="11.434940943027001"><ele>324.6</ele><time>2026-04-11T08:15:47Z</time></trkpt><trkpt lat="43.38365689264111" lon="11.434904242704144"><ele>324.4</ele><time>2026-04-11T08:15:48Z</time></trkpt><trkpt lat="43.38356428461183" lon="11.434860337761036"><ele>324.2</ele><time>2026-04-11T08:15:49Z</time></trkpt><trkpt lat="43.38347363261529" lon="11.434811808074631"><ele>324.0</ele><time>2026-04-11T08:15:50Z</time></trkpt><trkpt lat="43.3833874152756" lon="11.43475683202656"><ele>324.0</ele><time>2026-04-11T08:15:51Z</time></trkpt><trkpt lat="43.38330587168654" lon="11.434697321884004"><ele>324.0</ele><time>2026-04-11T08:15:52Z</time></trkpt><trkpt lat="43.38323093932436" lon="11.434631918653107"><ele>324.0</ele><time>2026-04-11T08:15:53Z</time></trkpt><trkpt lat="43.38315743905537" lon="11.434567111505647"><ele>324.0</ele><time>2026-04-11T08:15:54Z</time></trkpt><trkpt lat="43.38308795750303" lon="11.434495280235662"><ele>324.0</ele><time>2026-04-11T08:15:54.999Z</time></trkpt><trkpt lat="43.38302435368067" lon="11.43442085967464"><ele>324.0</ele><time>2026-04-11T08:15:55.999Z</time></trkpt><trkpt lat="43.3829605595103" lon="11.434353566890413"><ele>324.5</ele><time>2026-04-11T08:15:56.999Z</time></trkpt><trkpt lat="43.38289387843042" lon="11.43429748146761"><ele>325.0</ele><time>2026-04-11T08:15:57.999Z</time></trkpt><trkpt lat="43.38282456506989" lon="11.434248371119368"><ele>325.5</ele><time>2026-04-11T08:15:58.999Z</time></trkpt><trkpt lat="43.38275794027688" lon="11.434206841341481"><ele>326.0</ele><time>2026-04-11T08:15:59.999Z</time></trkpt><trkpt lat="43.3826909834918" lon="11.434172376995116"><ele>326.5</ele><time>2026-04-11T08:16:00.999Z</time></trkpt><trkpt lat="43.38262989325162" lon="11.43414373887723"><ele>327.0</ele><time>2026-04-11T08:16:01.999Z</time></trkpt><trkpt lat="43.382515728181474" lon="11.43410065332937"><ele>327.0</ele><time>2026-04-11T08:16:03.999Z</time></trkpt><trkpt lat="43.38241174889489" lon="11.43407214590122"><ele>327.0</ele><time>2026-04-11T08:16:05.999Z</time></trkpt><trkpt lat="43.38230801941848" lon="11.434051075152754"><ele>327.0</ele><time>2026-04-11T08:16:07.999Z</time></trkpt><trkpt lat="43.38219784687744" lon="11.434034322655425"><ele>327.0</ele><time>2026-04-11T08:16:09.999Z</time></trkpt><trkpt lat="43.3820848881056" lon="11.434018519008294"><ele>327.0</ele><time>2026-04-11T08:16:11.999Z</time></trkpt><trkpt lat="43.38196976452725" lon="11.434009623862753"><ele>326.6666666666667</ele><time>2026-04-11T08:16:13.999Z</time></trkpt><trkpt lat="43.38185001803529" lon="11.433997091441709"><ele>326.3333333333333</ele><time>2026-04-11T08:16:15.999Z</time></trkpt><trkpt lat="43.381786912075725" lon="11.433983963244957"><ele>326.0</ele><time>2026-04-11T08:16:16.999Z</time></trkpt><trkpt lat="43.38172396851565" lon="11.433965196654409"><ele>325.66666666666663</ele><time>2026-04-11T08:16:17.999Z</time></trkpt><trkpt lat="43.38165863430574" lon="11.433937128502636"><ele>325.3333333333333</ele><time>2026-04-11T08:16:18.999Z</time></trkpt><trkpt lat="43.381589111789125" lon="11.43389617690589"><ele>325.0</ele><time>2026-04-11T08:16:19.999Z</time></trkpt><trkpt lat="43.381514444827026" lon="11.433839499193242"><ele>324.0</ele><time>2026-04-11T08:16:20.999Z</time></trkpt><trkpt lat="43.38143304367724" lon="11.433777989021399"><ele>323.0</ele><time>2026-04-11T08:16:21.999Z</time></trkpt><trkpt lat="43.381343682550906" lon="11.43371603572742"><ele>322.0</ele><time>2026-04-11T08:16:22.999Z</time></trkpt><trkpt lat="43.381246878184214" lon="11.433657084454373"><ele>321.0</ele><time>2026-04-11T08:16:23.999Z</time></trkpt><trkpt lat="43.38114945297574" lon="11.4335961373906"><ele>320.0</ele><time>2026-04-11T08:16:24.999Z</time></trkpt><trkpt lat="43.38105512404342" lon="11.433515949097496"><ele>319.25</ele><time>2026-04-11T08:16:25.999Z</time></trkpt><trkpt lat="43.38096800484871" lon="11.4334182719264"><ele>318.5</ele><time>2026-04-11T08:16:26.999Z</time></trkpt><trkpt lat="43.380885330293246" lon="11.433307936454785"><ele>317.75</ele><time>2026-04-11T08:16:27.999Z</time></trkpt><trkpt lat="43.38081712278716" lon="11.433184346048392"><ele>317.0</ele><time>2026-04-11T08:16:28.999Z</time></trkpt><trkpt lat="43.38075645584705" lon="11.433056171529048"><ele>317.2</ele><time>2026-04-11T08:16:29.999Z</time></trkpt><trkpt lat="43.380701669970605" lon="11.432926992630984"><ele>317.4</ele><time>2026-04-11T08:16:30.999Z</time></trkpt><trkpt lat="43.38063928760459" lon="11.432820058348113"><ele>317.6</ele><time>2026-04-11T08:16:31.999Z</time></trkpt><trkpt lat="43.38055687217983" lon="11.43274993995596"><ele>317.8</ele><time>2026-04-11T08:16:32.999Z</time></trkpt><trkpt lat="43.38046635550116" lon="11.432713896882076"><ele>318.0</ele><time>2026-04-11T08:16:33.999Z</time></trkpt><trkpt lat="43.38037907142882" lon="11.432691097405042"><ele>318.5</ele><time>2026-04-11T08:16:34.999Z</time></trkpt><trkpt lat="43.38029660490107" lon="11.432664580689227"><ele>319.0</ele><time>2026-04-11T08:16:35.999Z</time></trkpt><trkpt lat="43.380217972694915" lon="11.432639520957022"><ele>319.5</ele><time>2026-04-11T08:16:36.999Z</time></trkpt><trkpt lat="43.38014152506116" lon="11.43261738916596"><ele>320.0</ele><time>2026-04-11T08:16:37.999Z</time></trkpt><trkpt lat="43.380064028720426" lon="11.432606621264746"><ele>320.5</ele><time>2026-04-11T08:16:38.999Z</time></trkpt><trkpt lat="43.379985395376785" lon="11.432602548932877"><ele>321.0</ele><time>2026-04-11T08:16:39.999Z</time></trkpt><trkpt lat="43.37990664676" lon="11.432603089374796"><ele>321.0</ele><time>2026-04-11T08:16:40.999Z</time></trkpt><trkpt lat="43.379826942287295" lon="11.432594096867826"><ele>321.0</ele><time>2026-04-11T08:16:41.999Z</time></trkpt><trkpt lat="43.37975082061956" lon="11.43257485862801"><ele>321.0</ele><time>2026-04-11T08:16:42.999Z</time></trkpt><trkpt lat="43.37967543612666" lon="11.432549397467167"><ele>321.0</ele><time>2026-04-11T08:16:43.999Z</time></trkpt><trkpt lat="43.37960415306001" lon="11.43252135566951"><ele>321.0</ele><time>2026-04-11T08:16:44.999Z</time></trkpt><trkpt lat="43.37953457632086" lon="11.432488523703423"><ele>321.0</ele><time>2026-04-11T08:16:45.998Z</time></trkpt><trkpt lat="43.37946719787994" lon="11.43245742171775"><ele>320.57142857142856</ele><time>2026-04-11T08:16:46.998Z</time></trkpt><trkpt lat="43.37940057658886" lon="11.43242697478105"><ele>320.1428571428571</ele><time>2026-04-11T08:16:47.998Z</time></trkpt><trkpt lat="43.3793340174508" lon="11.432396768757346"><ele>319.71428571428567</ele><time>2026-04-11T08:16:48.998Z</time></trkpt><trkpt lat="43.37926757164068" lon="11.432365677156495"><ele>319.2857142857143</ele><time>2026-04-11T08:16:49.998Z</time></trkpt><trkpt lat="43.37920223625039" lon="11.432335409664494"><ele>318.8571428571429</ele><time>2026-04-11T08:16:50.998Z</time></trkpt><trkpt lat="43.37913805294661" lon="11.432303743013652"><ele>318.4285714285714</ele><time>2026-04-11T08:16:51.998Z</time></trkpt><trkpt lat="43.37907537052217" lon="11.432270524257154"><ele>318.0</ele><time>2026-04-11T08:16:52.998Z</time></trkpt><trkpt lat="43.37900971589237" lon="11.432237998432505"><ele>318.0</ele><time>2026-04-11T08:16:53.998Z</time></trkpt><trkpt lat="43.37894526025787" lon="11.432206874380293"><ele>318.0</ele><time>2026-04-11T08:16:54.998Z</time></trkpt><trkpt lat="43.378881076034425" lon="11.432177059630677"><ele>318.0</ele><time>2026-04-11T08:16:55.998Z</time></trkpt><trkpt lat="43.37881601112834" lon="11.432149118444908"><ele>318.0</ele><time>2026-04-11T08:16:56.998Z</time></trkpt><trkpt lat="43.378751222127946" lon="11.432119321553973"><ele>318.0</ele><time>2026-04-11T08:16:57.998Z</time></trkpt><trkpt lat="43.378686524238205" lon="11.432084993933623"><ele>318.0</ele><time>2026-04-11T08:16:58.998Z</time></trkpt><trkpt lat="43.3786229594072" lon="11.432051695432197"><ele>318.0</ele><time>2026-04-11T08:16:59.998Z</time></trkpt><trkpt lat="43.37855765503675" lon="11.432022309531611"><ele>317.85714285714283</ele><time>2026-04-11T08:17:00.998Z</time></trkpt><trkpt lat="43.37849372565851" lon="11.431992558065172"><ele>317.7142857142857</ele><time>2026-04-11T08:17:01.998Z</time></trkpt><trkpt lat="43.3784286694019" lon="11.431959140033948"><ele>317.57142857142856</ele><time>2026-04-11T08:17:02.998Z</time></trkpt><trkpt lat="43.37836487146958" lon="11.431925140222894"><ele>317.42857142857144</ele><time>2026-04-11T08:17:03.998Z</time></trkpt><trkpt lat="43.37830046002825" lon="11.431889519864614"><ele>317.2857142857143</ele><time>2026-04-11T08:17:04.998Z</time></trkpt><trkpt lat="43.37823294930724" lon="11.431852766259725"><ele>317.14285714285717</ele><time>2026-04-11T08:17:05.998Z</time></trkpt><trkpt lat="43.37816288371038" lon="11.431823569471955"><ele>317.0</ele><time>2026-04-11T08:17:06.998Z</time></trkpt><trkpt lat="43.378096160222235" lon="11.431791299399817"><ele>317.0</ele><time>2026-04-11T08:17:07.998Z</time></trkpt><trkpt lat="43.37802696574943" lon="11.431752342022623"><ele>317.0</ele><time>2026-04-11T08:17:08.998Z</time></trkpt><trkpt lat="43.37795952645309" lon="11.431715341622683"><ele>317.0</ele><time>2026-04-11T08:17:09.998Z</time></trkpt><trkpt lat="43.377888480642326" lon="11.431674298069108"><ele>317.0</ele><time>2026-04-11T08:17:10.998Z</time></trkpt><trkpt lat="43.37781776210722" lon="11.431637148538048"><ele>317.0</ele><time>2026-04-11T08:17:11.998Z</time></trkpt><trkpt lat="43.377746359130924" lon="11.431597968677654"><ele>317.0</ele><time>2026-04-11T08:17:12.998Z</time></trkpt><trkpt lat="43.37767697779672" lon="11.43155994658587"><ele>317.33333333333337</ele><time>2026-04-11T08:17:13.998Z</time></trkpt><trkpt lat="43.377604566572856" lon="11.431520641302614"><ele>317.6666666666667</ele><time>2026-04-11T08:17:14.998Z</time></trkpt><trkpt lat="43.377533459695435" lon="11.43148364487488"><ele>318.0</ele><time>2026-04-11T08:17:15.998Z</time></trkpt><trkpt lat="43.377460181785075" lon="11.431456255692034"><ele>318.3333333333333</ele><time>2026-04-11T08:17:16.998Z</time></trkpt><trkpt lat="43.377384141523166" lon="11.43143341198902"><ele>318.66666666666663</ele><time>2026-04-11T08:17:18Z</time></trkpt><trkpt lat="43.37730514165749" lon="11.431413624131778"><ele>319.0</ele><time>2026-04-11T08:17:19Z</time></trkpt><trkpt lat="43.37722832202349" lon="11.431390940274003"><ele>318.5</ele><time>2026-04-11T08:17:20Z</time></trkpt><trkpt lat="43.377149526729916" lon="11.43137094215258"><ele>318.0</ele><time>2026-04-11T08:17:21Z</time></trkpt><trkpt lat="43.377067703245324" lon="11.431361266749688"><ele>317.5</ele><time>2026-04-11T08:17:22Z</time></trkpt><trkpt lat="43.376982197855305" lon="11.431352461952468"><ele>317.0</ele><time>2026-04-11T08:17:23Z</time></trkpt><trkpt lat="43.376899638008" lon="11.431342150846561"><ele>316.5</ele><time>2026-04-11T08:17:24Z</time></trkpt><trkpt lat="43.37681528551474" lon="11.431334485524218"><ele>316.0</ele><time>2026-04-11T08:17:25Z</time></trkpt><trkpt lat="43.37673015853589" lon="11.431325375366962"><ele>316.0</ele><time>2026-04-11T08:17:26Z</time></trkpt><trkpt lat="43.37664228939467" lon="11.431311253875466"><ele>316.0</ele><time>2026-04-11T08:17:27Z</time></trkpt><trkpt lat="43.376554336407835" lon="11.43130179522397"><ele>316.0</ele><time>2026-04-11T08:17:28Z</time></trkpt><trkpt lat="43.37646533782618" lon="11.43129318407703"><ele>316.0</ele><time>2026-04-11T08:17:29Z</time></trkpt><trkpt lat="43.37637371737831" lon="11.43128274513446"><ele>316.0</ele><time>2026-04-11T08:17:30Z</time></trkpt><trkpt lat="43.37628039777019" lon="11.431278741370363"><ele>315.40000000000003</ele><time>2026-04-11T08:17:31Z</time></trkpt><trkpt lat="43.37618711629143" lon="11.431265517299789"><ele>314.8</ele><time>2026-04-11T08:17:32Z</time></trkpt><trkpt lat="43.3760915432887" lon="11.431245902639452"><ele>314.20000000000005</ele><time>2026-04-11T08:17:33Z</time></trkpt><trkpt lat="43.3759913992117" lon="11.431226053120229"><ele>313.6</ele><time>2026-04-11T08:17:34Z</time></trkpt><trkpt lat="43.37588598443305" lon="11.43120218507765"><ele>313.0</ele><time>2026-04-11T08:17:35Z</time></trkpt><trkpt lat="43.37577963856633" lon="11.431155876721947"><ele>313.0</ele><time>2026-04-11T08:17:36Z</time></trkpt><trkpt lat="43.37567701167621" lon="11.431085852349062"><ele>313.0</ele><time>2026-04-11T08:17:37Z</time></trkpt><trkpt lat="43.37557567210468" lon="11.43101034760283"><ele>313.0</ele><time>2026-04-11T08:17:38Z</time></trkpt><trkpt lat="43.375473184176535" lon="11.430933507719999"><ele>313.0</ele><time>2026-04-11T08:17:39Z</time></trkpt><trkpt lat="43.37537336222392" lon="11.430853959421615"><ele>310.75</ele><time>2026-04-11T08:17:40Z</time></trkpt><trkpt lat="43.375272558706655" lon="11.430774779295474"><ele>308.5</ele><time>2026-04-11T08:17:41Z</time></trkpt><trkpt lat="43.37517058651435" lon="11.430696091855857"><ele>306.25</ele><time>2026-04-11T08:17:42Z</time></trkpt><trkpt lat="43.375069329655766" lon="11.430631325799116"><ele>304.0</ele><time>2026-04-11T08:17:43Z</time></trkpt><trkpt lat="43.37496734475042" lon="11.430570797131711"><ele>304.0</ele><time>2026-04-11T08:17:44Z</time></trkpt><trkpt lat="43.37486341777777" lon="11.43052214662475"><ele>304.0</ele><time>2026-04-11T08:17:45Z</time></trkpt><trkpt lat="43.37476311393159" lon="11.430476230699169"><ele>304.0</ele><time>2026-04-11T08:17:46Z</time></trkpt><trkpt lat="43.374664770091144" lon="11.430431811698325"><ele>304.0</ele><time>2026-04-11T08:17:47Z</time></trkpt><trkpt lat="43.3745644390779" lon="11.430398178905893"><ele>304.0</ele><time>2026-04-11T08:17:48Z</time></trkpt><trkpt lat="43.37446515052775" lon="11.430366684308016"><ele>304.2</ele><time>2026-04-11T08:17:49Z</time></trkpt><trkpt lat="43.37436606922373" lon="11.430338072113829"><ele>304.4</ele><time>2026-04-11T08:17:50Z</time></trkpt><trkpt lat="43.37426556957714" lon="11.430306400277267"><ele>304.6</ele><time>2026-04-11T08:17:51Z</time></trkpt><trkpt lat="43.37416385751682" lon="11.430272837522713"><ele>304.8</ele><time>2026-04-11T08:17:52Z</time></trkpt><trkpt lat="43.374061308136994" lon="11.430240055620501"><ele>305.0</ele><time>2026-04-11T08:17:53Z</time></trkpt><trkpt lat="43.373958887730666" lon="11.430204594297845"><ele>304.8</ele><time>2026-04-11T08:17:54Z</time></trkpt><trkpt lat="43.37385372222206" lon="11.430170796614812"><ele>304.6</ele><time>2026-04-11T08:17:55Z</time></trkpt><trkpt lat="43.37374912264579" lon="11.43012818433908"><ele>304.4</ele><time>2026-04-11T08:17:56Z</time></trkpt><trkpt lat="43.373643532171776" lon="11.430077853125166"><ele>304.2</ele><time>2026-04-11T08:17:57Z</time></trkpt><trkpt lat="43.37353954460534" lon="11.430022942865126"><ele>304.0</ele><time>2026-04-11T08:17:58Z</time></trkpt><trkpt lat="43.3734324664116" lon="11.42996239868168"><ele>304.0</ele><time>2026-04-11T08:17:59Z</time></trkpt><trkpt lat="43.37332421767183" lon="11.429903380358555"><ele>304.0</ele><time>2026-04-11T08:18:00Z</time></trkpt><trkpt lat="43.37321571579573" lon="11.429841876725773"><ele>304.0</ele><time>2026-04-11T08:18:01Z</time></trkpt><trkpt lat="43.37311032364983" lon="11.42977664901887"><ele>304.0</ele><time>2026-04-11T08:18:02Z</time></trkpt><trkpt lat="43.373006232752914" lon="11.429708034254558"><ele>302.25</ele><time>2026-04-11T08:18:03Z</time></trkpt><trkpt lat="43.37290036467584" lon="11.429644312345422"><ele>300.5</ele><time>2026-04-11T08:18:03.999Z</time></trkpt><trkpt lat="43.37279610568591" lon="11.429586359930335"><ele>298.75</ele><time>2026-04-11T08:18:04.999Z</time></trkpt><trkpt lat="43.3726922761303" lon="11.429530308227505"><ele>297.0</ele><time>2026-04-11T08:18:05.999Z</time></trkpt><trkpt lat="43.37259001080961" lon="11.429471390550429"><ele>297.0</ele><time>2026-04-11T08:18:06.999Z</time></trkpt><trkpt lat="43.37249005844674" lon="11.429412843450589"><ele>297.0</ele><time>2026-04-11T08:18:07.999Z</time></trkpt><trkpt lat="43.372388966341354" lon="11.429354093324038"><ele>297.0</ele><time>2026-04-11T08:18:08.999Z</time></trkpt><trkpt lat="43.37229096654719" lon="11.429298185036656"><ele>297.0</ele><time>2026-04-11T08:18:09.999Z</time></trkpt><trkpt lat="43.37219266942679" lon="11.42923920745716"><ele>297.0</ele><time>2026-04-11T08:18:10.999Z</time></trkpt><trkpt lat="43.37209626581305" lon="11.429185805259765"><ele>296.2</ele><time>2026-04-11T08:18:11.999Z</time></trkpt><trkpt lat="43.37199891081278" lon="11.429129427960383"><ele>295.4</ele><time>2026-04-11T08:18:12.999Z</time></trkpt><trkpt lat="43.3719022947447" lon="11.429073571702869"><ele>294.6</ele><time>2026-04-11T08:18:13.999Z</time></trkpt><trkpt lat="43.37180484072146" lon="11.429020076645438"><ele>293.8</ele><time>2026-04-11T08:18:14.999Z</time></trkpt><trkpt lat="43.371710210323364" lon="11.42896510003458"><ele>293.0</ele><time>2026-04-11T08:18:15.999Z</time></trkpt><trkpt lat="43.37161436979846" lon="11.428911668131377"><ele>293.0</ele><time>2026-04-11T08:18:16.999Z</time></trkpt><trkpt lat="43.37151852663962" lon="11.428864814222388"><ele>293.0</ele><time>2026-04-11T08:18:17.999Z</time></trkpt><trkpt lat="43.371422039907166" lon="11.428816671724325"><ele>293.0</ele><time>2026-04-11T08:18:18.999Z</time></trkpt><trkpt lat="43.37132559531138" lon="11.428781253705534"><ele>293.0</ele><time>2026-04-11T08:18:19.999Z</time></trkpt><trkpt lat="43.37123003060852" lon="11.428752333731753"><ele>293.0</ele><time>2026-04-11T08:18:20.999Z</time></trkpt><trkpt lat="43.371136572120406" lon="11.428726820893436"><ele>293.2</ele><time>2026-04-11T08:18:21.999Z</time></trkpt><trkpt lat="43.37104278559086" lon="11.428703401072552"><ele>293.4</ele><time>2026-04-11T08:18:22.999Z</time></trkpt><trkpt lat="43.370949705211935" lon="11.42868346258162"><ele>293.59999999999997</ele><time>2026-04-11T08:18:23.999Z</time></trkpt><trkpt lat="43.37085679821002" lon="11.428666179892954"><ele>293.8</ele><time>2026-04-11T08:18:24.999Z</time></trkpt><trkpt lat="43.37076342794437" lon="11.428648948092194"><ele>294.0</ele><time>2026-04-11T08:18:25.999Z</time></trkpt><trkpt lat="43.37066960368177" lon="11.428635270580646"><ele>294.0</ele><time>2026-04-11T08:18:26.999Z</time></trkpt><trkpt lat="43.370577660309195" lon="11.428627513628285"><ele>294.0</ele><time>2026-04-11T08:18:27.999Z</time></trkpt><trkpt lat="43.37048580933474" lon="11.42862023355336"><ele>294.0</ele><time>2026-04-11T08:18:28.999Z</time></trkpt><trkpt lat="43.37039511626132" lon="11.428606381171889"><ele>294.0</ele><time>2026-04-11T08:18:29.999Z</time></trkpt><trkpt lat="43.37030401204722" lon="11.42859799754391"><ele>294.0</ele><time>2026-04-11T08:18:30.999Z</time></trkpt><trkpt lat="43.37021197001447" lon="11.42858752675172"><ele>292.59999999999997</ele><time>2026-04-11T08:18:31.999Z</time></trkpt><trkpt lat="43.37012050575248" lon="11.428573549887245"><ele>291.2</ele><time>2026-04-11T08:18:32.999Z</time></trkpt><trkpt lat="43.3700272188533" lon="11.428556453120105"><ele>289.79999999999995</ele><time>2026-04-11T08:18:33.999Z</time></trkpt><trkpt lat="43.369932255013495" lon="11.42854078974443"><ele>288.4</ele><time>2026-04-11T08:18:34.999Z</time></trkpt><trkpt lat="43.36983548964873" lon="11.428528846520777"><ele>287.0</ele><time>2026-04-11T08:18:35.999Z</time></trkpt><trkpt lat="43.36974007994534" lon="11.42851762726795"><ele>286.0</ele><time>2026-04-11T08:18:36.999Z</time></trkpt><trkpt lat="43.3696434163354" lon="11.428509323222343"><ele>285.0</ele><time>2026-04-11T08:18:37.999Z</time></trkpt><trkpt lat="43.3695453159141" lon="11.428506643829818"><ele>284.0</ele><time>2026-04-11T08:18:38.999Z</time></trkpt><trkpt lat="43.369447093840016" lon="11.4285015044139"><ele>283.0</ele><time>2026-04-11T08:18:39.999Z</time></trkpt><trkpt lat="43.36934989716548" lon="11.428495914425632"><ele>282.0</ele><time>2026-04-11T08:18:40.999Z</time></trkpt><trkpt lat="43.36925312917219" lon="11.42849271301892"><ele>282.0</ele><time>2026-04-11T08:18:41.999Z</time></trkpt><trkpt lat="43.36915940155118" lon="11.428490936800593"><ele>282.0</ele><time>2026-04-11T08:18:42.999Z</time></trkpt><trkpt lat="43.369065589356396" lon="11.42848793431589"><ele>282.0</ele><time>2026-04-11T08:18:43.999Z</time></trkpt><trkpt lat="43.36897231120467" lon="11.42848397442538"><ele>282.0</ele><time>2026-04-11T08:18:44.999Z</time></trkpt><trkpt lat="43.368880676332275" lon="11.428472276755013"><ele>282.0</ele><time>2026-04-11T08:18:45.999Z</time></trkpt><trkpt lat="43.36879079459468" lon="11.428450965237007"><ele>282.4</ele><time>2026-04-11T08:18:46.999Z</time></trkpt><trkpt lat="43.36870331081313" lon="11.428418405952165"><ele>282.79999999999995</ele><time>2026-04-11T08:18:47.999Z</time></trkpt><trkpt lat="43.36861822133521" lon="11.42837384137386"><ele>283.2</ele><time>2026-04-11T08:18:48.999Z</time></trkpt><trkpt lat="43.36853612485227" lon="11.428318219289936"><ele>283.59999999999997</ele><time>2026-04-11T08:18:49.999Z</time></trkpt><trkpt lat="43.368459442447346" lon="11.428252698704242"><ele>284.0</ele><time>2026-04-11T08:18:50.999Z</time></trkpt><trkpt lat="43.368386038329156" lon="11.428184021804652"><ele>284.0</ele><time>2026-04-11T08:18:51.999Z</time></trkpt><trkpt lat="43.368313790592424" lon="11.428106508329353"><ele>284.0</ele><time>2026-04-11T08:18:52.999Z</time></trkpt><trkpt lat="43.36824802775364" lon="11.428020519572447"><ele>284.0</ele><time>2026-04-11T08:18:53.998Z</time></trkpt><trkpt lat="43.3681893586365" lon="11.427922227357746"><ele>284.0</ele><time>2026-04-11T08:18:54.998Z</time></trkpt><trkpt lat="43.3681394929004" lon="11.427813715868586"><ele>284.0</ele><time>2026-04-11T08:18:55.998Z</time></trkpt><trkpt lat="43.3681008643899" lon="11.42769507844679"><ele>284.0</ele><time>2026-04-11T08:18:56.998Z</time></trkpt><trkpt lat="43.368069631486776" lon="11.427573822285947"><ele>284.0</ele><time>2026-04-11T08:18:57.998Z</time></trkpt><trkpt lat="43.368039411695115" lon="11.427457464691228"><ele>284.0</ele><time>2026-04-11T08:18:58.998Z</time></trkpt><trkpt lat="43.36801018148924" lon="11.42733904213948"><ele>284.0</ele><time>2026-04-11T08:18:59.998Z</time></trkpt><trkpt lat="43.36797705920796" lon="11.42722610583887"><ele>284.0</ele><time>2026-04-11T08:19:00.998Z</time></trkpt><trkpt lat="43.36793764576652" lon="11.427118457872615"><ele>284.0</ele><time>2026-04-11T08:19:01.998Z</time></trkpt><trkpt lat="43.367893550457026" lon="11.427020116117568"><ele>284.0</ele><time>2026-04-11T08:19:02.998Z</time></trkpt><trkpt lat="43.367842596961275" lon="11.426936154674813"><ele>284.0</ele><time>2026-04-11T08:19:03.998Z</time></trkpt><trkpt lat="43.36778639585752" lon="11.426866118997578"><ele>284.0</ele><time>2026-04-11T08:19:04.998Z</time></trkpt><trkpt lat="43.367726175377776" lon="11.42681217473565"><ele>284.0</ele><time>2026-04-11T08:19:05.998Z</time></trkpt><trkpt lat="43.367662949998085" lon="11.426775744128363"><ele>284.0</ele><time>2026-04-11T08:19:06.998Z</time></trkpt><trkpt lat="43.367601424524516" lon="11.426746855237736"><ele>284.0</ele><time>2026-04-11T08:19:07.998Z</time></trkpt><trkpt lat="43.36754160350874" lon="11.426719101093093"><ele>284.0</ele><time>2026-04-11T08:19:08.998Z</time></trkpt><trkpt lat="43.36742336392339" lon="11.426665313324293"><ele>284.0</ele><time>2026-04-11T08:19:10.998Z</time></trkpt><trkpt lat="43.36730770365994" lon="11.42661188615605"><ele>284.0</ele><time>2026-04-11T08:19:12.998Z</time></trkpt><trkpt lat="43.36718728186863" lon="11.4265701995363"><ele>284.0</ele><time>2026-04-11T08:19:14.998Z</time></trkpt><trkpt lat="43.36707180009612" lon="11.426534690721015"><ele>285.25</ele><time>2026-04-11T08:19:16.998Z</time></trkpt><trkpt lat="43.36696430967764" lon="11.42648005437736"><ele>286.5</ele><time>2026-04-11T08:19:18.998Z</time></trkpt><trkpt lat="43.36685702210492" lon="11.426433185951497"><ele>287.75</ele><time>2026-04-11T08:19:20.998Z</time></trkpt><trkpt lat="43.36674590273931" lon="11.426400719786429"><ele>289.0</ele><time>2026-04-11T08:19:22.998Z</time></trkpt><trkpt lat="43.36663426830755" lon="11.4263684186372"><ele>289.0</ele><time>2026-04-11T08:19:25Z</time></trkpt><trkpt lat="43.36652110316424" lon="11.426339171883622"><ele>289.0</ele><time>2026-04-11T08:19:27Z</time></trkpt><trkpt lat="43.36639999162924" lon="11.426353182066547"><ele>289.0</ele><time>2026-04-11T08:19:29Z</time></trkpt><trkpt lat="43.3663374035988" lon="11.426364757600252"><ele>289.0</ele><time>2026-04-11T08:19:30Z</time></trkpt><trkpt lat="43.36627174539644" lon="11.426374133887945"><ele>289.0</ele><time>2026-04-11T08:19:31Z</time></trkpt><trkpt lat="43.36620324273035" lon="11.426385005633614"><ele>289.0</ele><time>2026-04-11T08:19:32Z</time></trkpt><trkpt lat="43.36613502740191" lon="11.426394494631102"><ele>289.14285714285717</ele><time>2026-04-11T08:19:33Z</time></trkpt><trkpt lat="43.36606379204857" lon="11.426402263240746"><ele>289.2857142857143</ele><time>2026-04-11T08:19:34Z</time></trkpt><trkpt lat="43.365992774055506" lon="11.42639121844647"><ele>289.42857142857144</ele><time>2026-04-11T08:19:35Z</time></trkpt><trkpt lat="43.36592030194816" lon="11.426369810026696"><ele>289.57142857142856</ele><time>2026-04-11T08:19:36Z</time></trkpt><trkpt lat="43.36585451808154" lon="11.42632725274513"><ele>289.7142857142857</ele><time>2026-04-11T08:19:37Z</time></trkpt><trkpt lat="43.36579545023349" lon="11.426259140843758"><ele>289.8571428571429</ele><time>2026-04-11T08:19:38Z</time></trkpt><trkpt lat="43.36574412295058" lon="11.426189064350785"><ele>290.0</ele><time>2026-04-11T08:19:39Z</time></trkpt><trkpt lat="43.365693631379614" lon="11.42611199338453"><ele>290.0</ele><time>2026-04-11T08:19:40Z</time></trkpt><trkpt lat="43.365645610940526" lon="11.42603021558145"><ele>290.0</ele><time>2026-04-11T08:19:41Z</time></trkpt><trkpt lat="43.36559803257363" lon="11.42594432451137"><ele>290.0</ele><time>2026-04-11T08:19:42Z</time></trkpt><trkpt lat="43.36554706890779" lon="11.425859320699232"><ele>290.0</ele><time>2026-04-11T08:19:43Z</time></trkpt><trkpt lat="43.365493386710504" lon="11.425772446525533"><ele>290.0</ele><time>2026-04-11T08:19:44Z</time></trkpt><trkpt lat="43.36543464932768" lon="11.425681560856559"><ele>290.0</ele><time>2026-04-11T08:19:45Z</time></trkpt><trkpt lat="43.36537462460817" lon="11.42558495066741"><ele>288.4</ele><time>2026-04-11T08:19:46Z</time></trkpt><trkpt lat="43.36531416307098" lon="11.42548190237398"><ele>286.8</ele><time>2026-04-11T08:19:47Z</time></trkpt><trkpt lat="43.36524383459285" lon="11.425381587955432"><ele>285.2</ele><time>2026-04-11T08:19:48Z</time></trkpt><trkpt lat="43.36517216832924" lon="11.425273024402417"><ele>283.6</ele><time>2026-04-11T08:19:49Z</time></trkpt><trkpt lat="43.36510116920436" lon="11.425153983547533"><ele>282.0</ele><time>2026-04-11T08:19:50Z</time></trkpt><trkpt lat="43.36502527212146" lon="11.425029786659893"><ele>281.8</ele><time>2026-04-11T08:19:51Z</time></trkpt><trkpt lat="43.36495072767315" lon="11.424901975142415"><ele>281.6</ele><time>2026-04-11T08:19:52Z</time></trkpt><trkpt lat="43.36487696866848" lon="11.424774012019121"><ele>281.40000000000003</ele><time>2026-04-11T08:19:53Z</time></trkpt><trkpt lat="43.364811593060644" lon="11.424656371966883"><ele>281.2</ele><time>2026-04-11T08:19:54Z</time></trkpt><trkpt lat="43.36475621327353" lon="11.424548599314962"><ele>281.0</ele><time>2026-04-11T08:19:55Z</time></trkpt><trkpt lat="43.36470696580662" lon="11.424427576991055"><ele>280.40000000000003</ele><time>2026-04-11T08:19:56Z</time></trkpt><trkpt lat="43.36466844996193" lon="11.424297652218756"><ele>279.8</ele><time>2026-04-11T08:19:57Z</time></trkpt><trkpt lat="43.36463256209513" lon="11.424156704677008"><ele>279.20000000000005</ele><time>2026-04-11T08:19:58Z</time></trkpt><trkpt lat="43.36459652390982" lon="11.42400983371776"><ele>278.6</ele><time>2026-04-11T08:19:59Z</time></trkpt><trkpt lat="43.36457046665348" lon="11.423854937150603"><ele>278.0</ele><time>2026-04-11T08:20:00Z</time></trkpt><trkpt lat="43.36455415299018" lon="11.423690211130298"><ele>276.25</ele><time>2026-04-11T08:20:01Z</time></trkpt><trkpt lat="43.36454357499401" lon="11.42351999654413"><ele>274.5</ele><time>2026-04-11T08:20:02Z</time></trkpt><trkpt lat="43.3645357617669" lon="11.423347653783633"><ele>272.75</ele><time>2026-04-11T08:20:03Z</time></trkpt><trkpt lat="43.36453228910658" lon="11.42317027418378"><ele>271.0</ele><time>2026-04-11T08:20:04Z</time></trkpt><trkpt lat="43.36452370934122" lon="11.422991887468621"><ele>269.25</ele><time>2026-04-11T08:20:05Z</time></trkpt><trkpt lat="43.364515340344056" lon="11.422807979234882"><ele>267.5</ele><time>2026-04-11T08:20:06Z</time></trkpt><trkpt lat="43.364504230329715" lon="11.422625996515766"><ele>265.75</ele><time>2026-04-11T08:20:07Z</time></trkpt><trkpt lat="43.364496517184115" lon="11.422439426895744"><ele>264.0</ele><time>2026-04-11T08:20:08Z</time></trkpt><trkpt lat="43.36449069325512" lon="11.422251613565013"><ele>262.25</ele><time>2026-04-11T08:20:09Z</time></trkpt><trkpt lat="43.36448352450671" lon="11.422071096040948"><ele>260.5</ele><time>2026-04-11T08:20:10Z</time></trkpt><trkpt lat="43.36447282604464" lon="11.421906382223451"><ele>258.75</ele><time>2026-04-11T08:20:10.999Z</time></trkpt><trkpt lat="43.364463209057114" lon="11.421737510119334"><ele>257.0</ele><time>2026-04-11T08:20:11.999Z</time></trkpt><trkpt lat="43.36445019535211" lon="11.421570245944485"><ele>257.0</ele><time>2026-04-11T08:20:12.999Z</time></trkpt><trkpt lat="43.364426307565026" lon="11.421409964042175"><ele>257.0</ele><time>2026-04-11T08:20:13.999Z</time></trkpt><trkpt lat="43.36439140042904" lon="11.421256090344034"><ele>257.0</ele><time>2026-04-11T08:20:14.999Z</time></trkpt><trkpt lat="43.364347810710065" lon="11.42110570509179"><ele>257.0</ele><time>2026-04-11T08:20:15.999Z</time></trkpt><trkpt lat="43.36429521797046" lon="11.420958580734885"><ele>256.8</ele><time>2026-04-11T08:20:16.999Z</time></trkpt><trkpt lat="43.364245817008495" lon="11.420815401670533"><ele>256.6</ele><time>2026-04-11T08:20:17.999Z</time></trkpt><trkpt lat="43.36420580092789" lon="11.420680959674142"><ele>256.40000000000003</ele><time>2026-04-11T08:20:18.999Z</time></trkpt><trkpt lat="43.36417111392194" lon="11.420549072385278"><ele>256.2</ele><time>2026-04-11T08:20:19.999Z</time></trkpt><trkpt lat="43.364143775170064" lon="11.4204122680512"><ele>256.0</ele><time>2026-04-11T08:20:20.999Z</time></trkpt><trkpt lat="43.36412723862792" lon="11.420276713393147"><ele>255.66666666666666</ele><time>2026-04-11T08:20:21.999Z</time></trkpt><trkpt lat="43.36411616682372" lon="11.420142408070445"><ele>255.33333333333331</ele><time>2026-04-11T08:20:22.999Z</time></trkpt><trkpt lat="43.36410613571971" lon="11.420031829743033"><ele>255.0</ele><time>2026-04-11T08:20:23.999Z</time></trkpt><trkpt lat="43.36409340104385" lon="11.419934198966391"><ele>254.66666666666669</ele><time>2026-04-11T08:20:24.999Z</time></trkpt><trkpt lat="43.364080319065046" lon="11.41976699813819"><ele>254.33333333333334</ele><time>2026-04-11T08:20:26.999Z</time></trkpt><trkpt lat="43.364066998559274" lon="11.419680259126585"><ele>254.0</ele><time>2026-04-11T08:20:27.999Z</time></trkpt><trkpt lat="43.364055548262286" lon="11.41959296625287"><ele>253.33333333333334</ele><time>2026-04-11T08:20:28.999Z</time></trkpt><trkpt lat="43.3640507392316" lon="11.419501749050891"><ele>252.66666666666669</ele><time>2026-04-11T08:20:29.999Z</time></trkpt><trkpt lat="43.36404811173476" lon="11.419405025025158"><ele>252.0</ele><time>2026-04-11T08:20:30.999Z</time></trkpt><trkpt lat="43.364041904421356" lon="11.419307538179726"><ele>251.33333333333331</ele><time>2026-04-11T08:20:31.999Z</time></trkpt><trkpt lat="43.36403851784969" lon="11.419211616265292"><ele>250.66666666666666</ele><time>2026-04-11T08:20:32.999Z</time></trkpt><trkpt lat="43.364037672771566" lon="11.419121442300945"><ele>250.0</ele><time>2026-04-11T08:20:33.999Z</time></trkpt><trkpt lat="43.364031187592595" lon="11.41894874778558"><ele>248.8</ele><time>2026-04-11T08:20:35.999Z</time></trkpt><trkpt lat="43.364038381992515" lon="11.418785130908738"><ele>247.6</ele><time>2026-04-11T08:20:37.999Z</time></trkpt><trkpt lat="43.36405217336115" lon="11.418649762921818"><ele>246.39999999999998</ele><time>2026-04-11T08:20:39.999Z</time></trkpt><trkpt lat="43.36408204669863" lon="11.418555502458096"><ele>245.2</ele><time>2026-04-11T08:20:42.999Z</time></trkpt><trkpt lat="43.364006031858196" lon="11.41847310885109"><ele>244.0</ele><time>2026-04-11T08:20:45.999Z</time></trkpt><trkpt lat="43.36391475390681" lon="11.418454084030904"><ele>243.33333333333331</ele><time>2026-04-11T08:20:47.999Z</time></trkpt><trkpt lat="43.363804680741374" lon="11.41845401744028"><ele>242.66666666666666</ele><time>2026-04-11T08:20:49.999Z</time></trkpt><trkpt lat="43.363679986185865" lon="11.418457303404072"><ele>242.0</ele><time>2026-04-11T08:20:51.999Z</time></trkpt><trkpt lat="43.36361130846803" lon="11.418458867922578"><ele>241.33333333333331</ele><time>2026-04-11T08:20:52.999Z</time></trkpt><trkpt lat="43.3635431628414" lon="11.418458856624795"><ele>240.66666666666666</ele><time>2026-04-11T08:20:53.999Z</time></trkpt><trkpt lat="43.36347279465574" lon="11.41846067676261"><ele>240.0</ele><time>2026-04-11T08:20:54.999Z</time></trkpt><trkpt lat="43.36340160742712" lon="11.418459412466095"><ele>240.0</ele><time>2026-04-11T08:20:55.999Z</time></trkpt><trkpt lat="43.36332642722179" lon="11.418459151809596"><ele>240.0</ele><time>2026-04-11T08:20:56.999Z</time></trkpt><trkpt lat="43.36324875437692" lon="11.418456274114776"><ele>240.0</ele><time>2026-04-11T08:20:57.999Z</time></trkpt><trkpt lat="43.36316796414153" lon="11.418443446467078"><ele>240.0</ele><time>2026-04-11T08:20:58.999Z</time></trkpt><trkpt lat="43.36308294764785" lon="11.41843317571478"><ele>240.0</ele><time>2026-04-11T08:20:59.999Z</time></trkpt><trkpt lat="43.36299620590007" lon="11.418420572434247"><ele>240.0</ele><time>2026-04-11T08:21:00.998Z</time></trkpt><trkpt lat="43.36291102206497" lon="11.418397534043716"><ele>239.4</ele><time>2026-04-11T08:21:01.998Z</time></trkpt><trkpt lat="43.36282561625988" lon="11.418369043552486"><ele>238.8</ele><time>2026-04-11T08:21:02.998Z</time></trkpt><trkpt lat="43.362737074585375" lon="11.418337407972002"><ele>238.2</ele><time>2026-04-11T08:21:03.998Z</time></trkpt><trkpt lat="43.3626492860829" lon="11.418304597338782"><ele>237.6</ele><time>2026-04-11T08:21:04.998Z</time></trkpt><trkpt lat="43.36256259787854" lon="11.41827234270924"><ele>237.0</ele><time>2026-04-11T08:21:05.998Z</time></trkpt><trkpt lat="43.36247420041215" lon="11.418242108808117"><ele>237.0</ele><time>2026-04-11T08:21:06.998Z</time></trkpt><trkpt lat="43.362386414831114" lon="11.418229817124832"><ele>237.0</ele><time>2026-04-11T08:21:07.998Z</time></trkpt><trkpt lat="43.3623050229226" lon="11.418238720281886"><ele>237.0</ele><time>2026-04-11T08:21:08.998Z</time></trkpt><trkpt lat="43.362228358208164" lon="11.418267654656509"><ele>237.0</ele><time>2026-04-11T08:21:09.998Z</time></trkpt><trkpt lat="43.36215301147876" lon="11.418320467942166"><ele>237.0</ele><time>2026-04-11T08:21:10.998Z</time></trkpt><trkpt lat="43.36208318557038" lon="11.418389259919843"><ele>237.0</ele><time>2026-04-11T08:21:11.998Z</time></trkpt><trkpt lat="43.36201728986826" lon="11.418469730409505"><ele>237.16666666666666</ele><time>2026-04-11T08:21:12.998Z</time></trkpt><trkpt lat="43.36195777927929" lon="11.418557259085565"><ele>237.33333333333331</ele><time>2026-04-11T08:21:13.998Z</time></trkpt><trkpt lat="43.3619012226234" lon="11.418650323551985"><ele>237.5</ele><time>2026-04-11T08:21:14.998Z</time></trkpt><trkpt lat="43.36184661156794" lon="11.418742305865738"><ele>237.66666666666666</ele><time>2026-04-11T08:21:15.998Z</time></trkpt><trkpt lat="43.36179388870119" lon="11.41883847339395"><ele>237.83333333333331</ele><time>2026-04-11T08:21:16.998Z</time></trkpt><trkpt lat="43.361739850283385" lon="11.41893240515777"><ele>238.0</ele><time>2026-04-11T08:21:17.998Z</time></trkpt><trkpt lat="43.361681006559586" lon="11.419022077143314"><ele>238.0</ele><time>2026-04-11T08:21:18.998Z</time></trkpt><trkpt lat="43.36160947430623" lon="11.419097508091406"><ele>238.0</ele><time>2026-04-11T08:21:19.998Z</time></trkpt><trkpt lat="43.36152548249901" lon="11.419152170246138"><ele>238.0</ele><time>2026-04-11T08:21:20.998Z</time></trkpt><trkpt lat="43.361437734556894" lon="11.4191892373006"><ele>238.0</ele><time>2026-04-11T08:21:21.998Z</time></trkpt><trkpt lat="43.36135108365651" lon="11.419214926717043"><ele>238.0</ele><time>2026-04-11T08:21:22.998Z</time></trkpt><trkpt lat="43.3612667230463" lon="11.419250797686159"><ele>236.99999999999997</ele><time>2026-04-11T08:21:23.998Z</time></trkpt><trkpt lat="43.361184028708216" lon="11.419282032067295"><ele>236.0</ele><time>2026-04-11T08:21:24.998Z</time></trkpt><trkpt lat="43.36109935001387" lon="11.419305201173609"><ele>235.0</ele><time>2026-04-11T08:21:25.998Z</time></trkpt><trkpt lat="43.36101629694426" lon="11.419331826204374"><ele>234.0</ele><time>2026-04-11T08:21:26.998Z</time></trkpt><trkpt lat="43.36093426841632" lon="11.419363828934028"><ele>232.99999999999997</ele><time>2026-04-11T08:21:27.998Z</time></trkpt><trkpt lat="43.36085827681881" lon="11.419394054571546"><ele>232.0</ele><time>2026-04-11T08:21:29Z</time></trkpt><trkpt lat="43.360774540041604" lon="11.419425544867655"><ele>231.99999999999997</ele><time>2026-04-11T08:21:30Z</time></trkpt><trkpt lat="43.36069119837186" lon="11.419458056573358"><ele>232.0</ele><time>2026-04-11T08:21:31Z</time></trkpt><trkpt lat="43.36060927777458" lon="11.419488439512476"><ele>232.0</ele><time>2026-04-11T08:21:32Z</time></trkpt><trkpt lat="43.36052584124973" lon="11.419519831410831"><ele>232.0</ele><time>2026-04-11T08:21:33Z</time></trkpt><trkpt lat="43.36043893035607" lon="11.419551438801042"><ele>231.99999999999997</ele><time>2026-04-11T08:21:34Z</time></trkpt><trkpt lat="43.36035252113749" lon="11.419580442491018"><ele>232.0</ele><time>2026-04-11T08:21:35Z</time></trkpt><trkpt lat="43.360265742287" lon="11.419610165022464"><ele>231.99999999999997</ele><time>2026-04-11T08:21:36Z</time></trkpt><trkpt lat="43.36018072485982" lon="11.419640860641815"><ele>232.0</ele><time>2026-04-11T08:21:37Z</time></trkpt><trkpt lat="43.36009507612494" lon="11.419671079850374"><ele>232.0</ele><time>2026-04-11T08:21:38Z</time></trkpt><trkpt lat="43.36000775862965" lon="11.419701824394744"><ele>232.0</ele><time>2026-04-11T08:21:39Z</time></trkpt><trkpt lat="43.35992328281911" lon="11.41973179671348"><ele>231.99999999999997</ele><time>2026-04-11T08:21:40Z</time></trkpt><trkpt lat="43.35983888902003" lon="11.419764978975268"><ele>232.0</ele><time>2026-04-11T08:21:41Z</time></trkpt><trkpt lat="43.35975331896739" lon="11.41979821437531"><ele>231.33333333333331</ele><time>2026-04-11T08:21:42Z</time></trkpt><trkpt lat="43.35966784464925" lon="11.419829134673234"><ele>230.66666666666666</ele><time>2026-04-11T08:21:43Z</time></trkpt><trkpt lat="43.359582447016635" lon="11.419858962752844"><ele>230.0</ele><time>2026-04-11T08:21:44Z</time></trkpt><trkpt lat="43.35949726458327" lon="11.419890771453769"><ele>229.33333333333331</ele><time>2026-04-11T08:21:45Z</time></trkpt><trkpt lat="43.35941166543072" lon="11.419924172435733"><ele>228.66666666666666</ele><time>2026-04-11T08:21:46Z</time></trkpt><trkpt lat="43.3593256839277" lon="11.419949839994336"><ele>228.0</ele><time>2026-04-11T08:21:47Z</time></trkpt><trkpt lat="43.359236648791224" lon="11.419964653927547"><ele>228.0</ele><time>2026-04-11T08:21:48Z</time></trkpt><trkpt lat="43.35914356057864" lon="11.419964262233515"><ele>228.0</ele><time>2026-04-11T08:21:49Z</time></trkpt><trkpt lat="43.359050452227194" lon="11.419934015058892"><ele>228.0</ele><time>2026-04-11T08:21:50Z</time></trkpt><trkpt lat="43.35896454359624" lon="11.419868751495478"><ele>228.0</ele><time>2026-04-11T08:21:51Z</time></trkpt><trkpt lat="43.35889290018068" lon="11.41977287779333"><ele>228.0</ele><time>2026-04-11T08:21:52Z</time></trkpt><trkpt lat="43.35883142613066" lon="11.419661802281366"><ele>226.8</ele><time>2026-04-11T08:21:53Z</time></trkpt><trkpt lat="43.35877282544985" lon="11.419553728255467"><ele>225.60000000000002</ele><time>2026-04-11T08:21:54Z</time></trkpt><trkpt lat="43.35871022889712" lon="11.419448762673579"><ele>224.39999999999998</ele><time>2026-04-11T08:21:55Z</time></trkpt><trkpt lat="43.35864632029766" lon="11.419347751751376"><ele>223.2</ele><time>2026-04-11T08:21:56Z</time></trkpt><trkpt lat="43.35858021594758" lon="11.419252960303517"><ele>222.0</ele><time>2026-04-11T08:21:57Z</time></trkpt><trkpt lat="43.358514731568086" lon="11.419156039803308"><ele>222.0</ele><time>2026-04-11T08:21:58Z</time></trkpt><trkpt lat="43.358451283510284" lon="11.419056929986139"><ele>222.0</ele><time>2026-04-11T08:21:59Z</time></trkpt><trkpt lat="43.35838917778057" lon="11.41895451745368"><ele>222.0</ele><time>2026-04-11T08:22:00Z</time></trkpt><trkpt lat="43.35832561339577" lon="11.418858330804191"><ele>222.0</ele><time>2026-04-11T08:22:01Z</time></trkpt><trkpt lat="43.35826240508624" lon="11.418760177871867"><ele>222.0</ele><time>2026-04-11T08:22:02Z</time></trkpt><trkpt lat="43.35819917668553" lon="11.418664703528115"><ele>221.8</ele><time>2026-04-11T08:22:03Z</time></trkpt><trkpt lat="43.358136349022374" lon="11.418566865701651"><ele>221.6</ele><time>2026-04-11T08:22:04Z</time></trkpt><trkpt lat="43.35807267046124" lon="11.418471617287068"><ele>221.40000000000003</ele><time>2026-04-11T08:22:05Z</time></trkpt><trkpt lat="43.35800830874599" lon="11.418377330480366"><ele>221.20000000000002</ele><time>2026-04-11T08:22:06Z</time></trkpt><trkpt lat="43.35794504073989" lon="11.418283164076872"><ele>221.0</ele><time>2026-04-11T08:22:07Z</time></trkpt><trkpt lat="43.35788054507993" lon="11.418191180207476"><ele>220.8</ele><time>2026-04-11T08:22:08Z</time></trkpt><trkpt lat="43.357818892825804" lon="11.418092670420057"><ele>220.60000000000002</ele><time>2026-04-11T08:22:09Z</time></trkpt><trkpt lat="43.35776102857959" lon="11.417994831501122"><ele>220.4</ele><time>2026-04-11T08:22:10Z</time></trkpt><trkpt lat="43.357701104982155" lon="11.417899567868584"><ele>220.2</ele><time>2026-04-11T08:22:11Z</time></trkpt><trkpt lat="43.3576410170894" lon="11.417809090886974"><ele>220.0</ele><time>2026-04-11T08:22:12Z</time></trkpt><trkpt lat="43.35758196520455" lon="11.4177205111712"><ele>219.99999999999997</ele><time>2026-04-11T08:22:13Z</time></trkpt><trkpt lat="43.3575235356039" lon="11.417630236927929"><ele>220.0</ele><time>2026-04-11T08:22:14Z</time></trkpt><trkpt lat="43.35746531173832" lon="11.417544209759985"><ele>220.0</ele><time>2026-04-11T08:22:15Z</time></trkpt><trkpt lat="43.357408213980676" lon="11.41745886395777"><ele>220.0</ele><time>2026-04-11T08:22:16Z</time></trkpt><trkpt lat="43.357354843170775" lon="11.41737017404652"><ele>219.99999999999997</ele><time>2026-04-11T08:22:17Z</time></trkpt><trkpt lat="43.35730045881883" lon="11.417286162870768"><ele>220.0</ele><time>2026-04-11T08:22:18Z</time></trkpt><trkpt lat="43.357251597314615" lon="11.417201689858063"><ele>219.83333333333331</ele><time>2026-04-11T08:22:18.999Z</time></trkpt><trkpt lat="43.357192950777346" lon="11.41711750501696"><ele>219.66666666666666</ele><time>2026-04-11T08:22:19.999Z</time></trkpt><trkpt lat="43.357136314018064" lon="11.417040825112789"><ele>219.5</ele><time>2026-04-11T08:22:20.999Z</time></trkpt><trkpt lat="43.35708518592461" lon="11.416958701118052"><ele>219.33333333333331</ele><time>2026-04-11T08:22:21.999Z</time></trkpt><trkpt lat="43.3570332947078" lon="11.416881644912962"><ele>219.16666666666666</ele><time>2026-04-11T08:22:22.999Z</time></trkpt><trkpt lat="43.35698044513602" lon="11.416805078894503"><ele>219.0</ele><time>2026-04-11T08:22:23.999Z</time></trkpt><trkpt lat="43.35693104393155" lon="11.416728175711421"><ele>219.0</ele><time>2026-04-11T08:22:24.999Z</time></trkpt><trkpt lat="43.35688241932366" lon="11.416647539459817"><ele>219.0</ele><time>2026-04-11T08:22:25.999Z</time></trkpt><trkpt lat="43.356832813145786" lon="11.416569738871333"><ele>219.0</ele><time>2026-04-11T08:22:26.999Z</time></trkpt><trkpt lat="43.35678599031297" lon="11.416491655663293"><ele>219.0</ele><time>2026-04-11T08:22:27.999Z</time></trkpt><trkpt lat="43.35673793826234" lon="11.416411254827684"><ele>219.0</ele><time>2026-04-11T08:22:28.999Z</time></trkpt><trkpt lat="43.35669385470881" lon="11.416334768485186"><ele>219.0</ele><time>2026-04-11T08:22:29.999Z</time></trkpt><trkpt lat="43.35664758000424" lon="11.41625878518783"><ele>219.0</ele><time>2026-04-11T08:22:30.999Z</time></trkpt><trkpt lat="43.35660252101632" lon="11.416185348517544"><ele>219.2857142857143</ele><time>2026-04-11T08:22:31.999Z</time></trkpt><trkpt lat="43.35655523225773" lon="11.416114154583928"><ele>219.57142857142856</ele><time>2026-04-11T08:22:32.999Z</time></trkpt><trkpt lat="43.3565081146159" lon="11.416045284162678"><ele>219.85714285714286</ele><time>2026-04-11T08:22:33.999Z</time></trkpt><trkpt lat="43.356460994673874" lon="11.415975558738053"><ele>220.14285714285717</ele><time>2026-04-11T08:22:34.999Z</time></trkpt><trkpt lat="43.35640866392784" lon="11.415916012560547"><ele>220.42857142857144</ele><time>2026-04-11T08:22:35.999Z</time></trkpt><trkpt lat="43.35634895180563" lon="11.415872794868065"><ele>220.71428571428572</ele><time>2026-04-11T08:22:36.999Z</time></trkpt><trkpt lat="43.35628509771509" lon="11.415844527534887"><ele>221.0</ele><time>2026-04-11T08:22:37.999Z</time></trkpt><trkpt lat="43.35622048065891" lon="11.415833633596657"><ele>221.14285714285717</ele><time>2026-04-11T08:22:38.999Z</time></trkpt><trkpt lat="43.356153656974605" lon="11.41583408197953"><ele>221.28571428571428</ele><time>2026-04-11T08:22:39.999Z</time></trkpt><trkpt lat="43.35608688254341" lon="11.415845127626925"><ele>221.42857142857144</ele><time>2026-04-11T08:22:40.999Z</time></trkpt><trkpt lat="43.356019647378446" lon="11.415869687394123"><ele>221.57142857142858</ele><time>2026-04-11T08:22:41.999Z</time></trkpt><trkpt lat="43.355956956166295" lon="11.415902082554652"><ele>221.71428571428572</ele><time>2026-04-11T08:22:42.999Z</time></trkpt><trkpt lat="43.35589661124737" lon="11.41594316063543"><ele>221.85714285714286</ele><time>2026-04-11T08:22:43.999Z</time></trkpt><trkpt lat="43.35583568165633" lon="11.415985613106301"><ele>222.0</ele><time>2026-04-11T08:22:44.999Z</time></trkpt><trkpt lat="43.35577899638306" lon="11.416030404570703"><ele>222.0</ele><time>2026-04-11T08:22:45.999Z</time></trkpt><trkpt lat="43.3557214531579" lon="11.41607359137773"><ele>222.0</ele><time>2026-04-11T08:22:46.999Z</time></trkpt><trkpt lat="43.3556637004001" lon="11.416114095689691"><ele>222.0</ele><time>2026-04-11T08:22:47.999Z</time></trkpt><trkpt lat="43.35560624581784" lon="11.416155394818992"><ele>222.0</ele><time>2026-04-11T08:22:48.999Z</time></trkpt><trkpt lat="43.3555465882232" lon="11.41619142472828"><ele>222.0</ele><time>2026-04-11T08:22:49.999Z</time></trkpt><trkpt lat="43.35548737303703" lon="11.416222079188755"><ele>222.0</ele><time>2026-04-11T08:22:50.999Z</time></trkpt><trkpt lat="43.35542239813781" lon="11.416242941290573"><ele>222.0</ele><time>2026-04-11T08:22:51.999Z</time></trkpt><trkpt lat="43.355355626968006" lon="11.416251521226293"><ele>222.71428571428572</ele><time>2026-04-11T08:22:52.999Z</time></trkpt><trkpt lat="43.35528843990855" lon="11.416247991707502"><ele>223.42857142857144</ele><time>2026-04-11T08:22:53.999Z</time></trkpt><trkpt lat="43.35522062022579" lon="11.416241846341912"><ele>224.14285714285717</ele><time>2026-04-11T08:22:54.999Z</time></trkpt><trkpt lat="43.355153011267696" lon="11.416232698196918"><ele>224.85714285714286</ele><time>2026-04-11T08:22:55.999Z</time></trkpt><trkpt lat="43.35508326813062" lon="11.416220986099479"><ele>225.5714285714286</ele><time>2026-04-11T08:22:56.999Z</time></trkpt><trkpt lat="43.355016141223324" lon="11.416206076507816"><ele>226.2857142857143</ele><time>2026-04-11T08:22:57.999Z</time></trkpt><trkpt lat="43.35494674453105" lon="11.416193495940519"><ele>227.0</ele><time>2026-04-11T08:22:58.999Z</time></trkpt><trkpt lat="43.35487643306464" lon="11.416185495834867"><ele>227.0</ele><time>2026-04-11T08:22:59.999Z</time></trkpt><trkpt lat="43.35480645104464" lon="11.416181182972446"><ele>227.00000000000003</ele><time>2026-04-11T08:23:00.999Z</time></trkpt><trkpt lat="43.35473614083732" lon="11.416172748420774"><ele>227.0</ele><time>2026-04-11T08:23:01.999Z</time></trkpt><trkpt lat="43.35466539139826" lon="11.416160726763215"><ele>227.0</ele><time>2026-04-11T08:23:02.999Z</time></trkpt><trkpt lat="43.35459611618251" lon="11.416147470590616"><ele>227.00000000000003</ele><time>2026-04-11T08:23:03.999Z</time></trkpt><trkpt lat="43.354525003980676" lon="11.416138278616609"><ele>227.0</ele><time>2026-04-11T08:23:04.999Z</time></trkpt><trkpt lat="43.35445419733286" lon="11.41612938990429"><ele>227.0</ele><time>2026-04-11T08:23:05.999Z</time></trkpt><trkpt lat="43.35438512957952" lon="11.416125650328047"><ele>226.71428571428572</ele><time>2026-04-11T08:23:06.999Z</time></trkpt><trkpt lat="43.35431586820883" lon="11.416117565977643"><ele>226.42857142857144</ele><time>2026-04-11T08:23:07.999Z</time></trkpt><trkpt lat="43.3542466460691" lon="11.4161060841548"><ele>226.14285714285717</ele><time>2026-04-11T08:23:08.998Z</time></trkpt><trkpt lat="43.354177452976174" lon="11.416099099800753"><ele>225.8571428571429</ele><time>2026-04-11T08:23:09.998Z</time></trkpt><trkpt lat="43.354108012357095" lon="11.416093069796018"><ele>225.57142857142858</ele><time>2026-04-11T08:23:10.998Z</time></trkpt><trkpt lat="43.35404047573063" lon="11.41608715129572"><ele>225.28571428571433</ele><time>2026-04-11T08:23:11.998Z</time></trkpt><trkpt lat="43.35397359493524" lon="11.416074036189283"><ele>225.00000000000003</ele><time>2026-04-11T08:23:12.998Z</time></trkpt><trkpt lat="43.35390815899996" lon="11.416070104906066"><ele>224.71428571428575</ele><time>2026-04-11T08:23:13.998Z</time></trkpt><trkpt lat="43.353841713541804" lon="11.41606288628882"><ele>224.42857142857144</ele><time>2026-04-11T08:23:14.998Z</time></trkpt><trkpt lat="43.35377724690426" lon="11.416057540560246"><ele>224.14285714285717</ele><time>2026-04-11T08:23:15.998Z</time></trkpt><trkpt lat="43.353711237822814" lon="11.416049238072008"><ele>223.8571428571429</ele><time>2026-04-11T08:23:16.998Z</time></trkpt><trkpt lat="43.3536431980439" lon="11.416039688398342"><ele>223.57142857142856</ele><time>2026-04-11T08:23:17.998Z</time></trkpt><trkpt lat="43.35357653794854" lon="11.416021058108102"><ele>223.28571428571428</ele><time>2026-04-11T08:23:18.998Z</time></trkpt><trkpt lat="43.353508349835515" lon="11.416000608377852"><ele>223.0</ele><time>2026-04-11T08:23:19.998Z</time></trkpt><trkpt lat="43.35343965256823" lon="11.415974618677858"><ele>223.0</ele><time>2026-04-11T08:23:20.998Z</time></trkpt><trkpt lat="43.35337128875116" lon="11.415949611601373"><ele>223.0</ele><time>2026-04-11T08:23:21.998Z</time></trkpt><trkpt lat="43.35330094632192" lon="11.415927254622773"><ele>223.0</ele><time>2026-04-11T08:23:22.998Z</time></trkpt><trkpt lat="43.35323335778133" lon="11.415906780853613"><ele>223.0</ele><time>2026-04-11T08:23:23.998Z</time></trkpt><trkpt lat="43.353162090689636" lon="11.415885314407246"><ele>223.0</ele><time>2026-04-11T08:23:24.998Z</time></trkpt><trkpt lat="43.353095749198566" lon="11.415868755535302"><ele>223.0</ele><time>2026-04-11T08:23:25.998Z</time></trkpt><trkpt lat="43.353023401589084" lon="11.415846052334063"><ele>223.0</ele><time>2026-04-11T08:23:26.998Z</time></trkpt><trkpt lat="43.35295589446796" lon="11.415823778397002"><ele>223.0</ele><time>2026-04-11T08:23:27.998Z</time></trkpt><trkpt lat="43.35288699702452" lon="11.415801041042187"><ele>223.0</ele><time>2026-04-11T08:23:28.998Z</time></trkpt><trkpt lat="43.35281666148627" lon="11.41578115478415"><ele>223.0</ele><time>2026-04-11T08:23:29.998Z</time></trkpt><trkpt lat="43.35274728226381" lon="11.415763847853455"><ele>223.0</ele><time>2026-04-11T08:23:30.998Z</time></trkpt><trkpt lat="43.35268086325833" lon="11.415746151315473"><ele>223.0</ele><time>2026-04-11T08:23:31.998Z</time></trkpt><trkpt lat="43.352611968434296" lon="11.415724394679598"><ele>223.0</ele><time>2026-04-11T08:23:32.998Z</time></trkpt><trkpt lat="43.35254528645741" lon="11.415705004050459"><ele>223.0</ele><time>2026-04-11T08:23:34Z</time></trkpt><trkpt lat="43.35247727644465" lon="11.41568771987398"><ele>223.0</ele><time>2026-04-11T08:23:35Z</time></trkpt><trkpt lat="43.352410590716914" lon="11.415668887726843"><ele>223.0</ele><time>2026-04-11T08:23:36Z</time></trkpt><trkpt lat="43.35234184732346" lon="11.41565039731497"><ele>223.0</ele><time>2026-04-11T08:23:37Z</time></trkpt><trkpt lat="43.35227325291659" lon="11.415629514125273"><ele>223.0</ele><time>2026-04-11T08:23:38Z</time></trkpt><trkpt lat="43.35220663268996" lon="11.415615056790593"><ele>223.0</ele><time>2026-04-11T08:23:39Z</time></trkpt><trkpt lat="43.35213246137575" lon="11.415601174706632"><ele>223.0</ele><time>2026-04-11T08:23:40Z</time></trkpt><trkpt lat="43.35206733475693" lon="11.415582853103318"><ele>223.0</ele><time>2026-04-11T08:23:41Z</time></trkpt><trkpt lat="43.351995978197834" lon="11.415564231177806"><ele>222.71428571428572</ele><time>2026-04-11T08:23:42Z</time></trkpt><trkpt lat="43.351924095250226" lon="11.415540471888443"><ele>222.42857142857142</ele><time>2026-04-11T08:23:43Z</time></trkpt><trkpt lat="43.351855513007884" lon="11.415515194665934"><ele>222.14285714285717</ele><time>2026-04-11T08:23:44Z</time></trkpt><trkpt lat="43.351784621948056" lon="11.415491736795564"><ele>221.85714285714286</ele><time>2026-04-11T08:23:45Z</time></trkpt><trkpt lat="43.35171067131586" lon="11.415467725998004"><ele>221.57142857142858</ele><time>2026-04-11T08:23:46Z</time></trkpt><trkpt lat="43.351641290334754" lon="11.415447861751868"><ele>221.2857142857143</ele><time>2026-04-11T08:23:47Z</time></trkpt><trkpt lat="43.351568900945125" lon="11.41542869070954"><ele>221.0</ele><time>2026-04-11T08:23:48Z</time></trkpt><trkpt lat="43.3515000027247" lon="11.415411052584584"><ele>221.00000000000003</ele><time>2026-04-11T08:23:49Z</time></trkpt><trkpt lat="43.351429006501824" lon="11.415391171926725"><ele>221.0</ele><time>2026-04-11T08:23:50Z</time></trkpt><trkpt lat="43.3513596852267" lon="11.41537077051216"><ele>221.0</ele><time>2026-04-11T08:23:51Z</time></trkpt><trkpt lat="43.35129125817242" lon="11.415347021458484"><ele>221.0</ele><time>2026-04-11T08:23:52Z</time></trkpt><trkpt lat="43.35122330772436" lon="11.415328280051178"><ele>221.0</ele><time>2026-04-11T08:23:53Z</time></trkpt><trkpt lat="43.351156107263584" lon="11.415309137412452"><ele>221.00000000000003</ele><time>2026-04-11T08:23:54Z</time></trkpt><trkpt lat="43.351088067711196" lon="11.415291250154407"><ele>221.0</ele><time>2026-04-11T08:23:55Z</time></trkpt><trkpt lat="43.35102064531124" lon="11.415273388795088"><ele>220.83333333333334</ele><time>2026-04-11T08:23:56Z</time></trkpt><trkpt lat="43.350954789883225" lon="11.415254822310242"><ele>220.66666666666669</ele><time>2026-04-11T08:23:57Z</time></trkpt><trkpt lat="43.35088936187283" lon="11.41523780831404"><ele>220.5</ele><time>2026-04-11T08:23:58Z</time></trkpt><trkpt lat="43.35082417469113" lon="11.415221947535663"><ele>220.33333333333331</ele><time>2026-04-11T08:23:59Z</time></trkpt><trkpt lat="43.350761302675394" lon="11.415205935323868"><ele>220.16666666666666</ele><time>2026-04-11T08:24:00Z</time></trkpt><trkpt lat="43.35069708906561" lon="11.415186280637213"><ele>220.0</ele><time>2026-04-11T08:24:01Z</time></trkpt><trkpt lat="43.35057816714537" lon="11.41514589198126"><ele>221.2</ele><time>2026-04-11T08:24:03Z</time></trkpt><trkpt lat="43.350470023324974" lon="11.415115442552674"><ele>222.4</ele><time>2026-04-11T08:24:05Z</time></trkpt><trkpt lat="43.35036904244927" lon="11.41508172065372"><ele>223.60000000000002</ele><time>2026-04-11T08:24:07Z</time></trkpt><trkpt lat="43.35027314675237" lon="11.415042874353547"><ele>224.8</ele><time>2026-04-11T08:24:09Z</time></trkpt><trkpt lat="43.3501822926347" lon="11.41498880281095"><ele>226.0</ele><time>2026-04-11T08:24:11Z</time></trkpt><trkpt lat="43.350106755946456" lon="11.414915815216757"><ele>225.99999999999997</ele><time>2026-04-11T08:24:13Z</time></trkpt><trkpt lat="43.35003880483302" lon="11.414836218874253"><ele>226.0</ele><time>2026-04-11T08:24:15Z</time></trkpt><trkpt lat="43.34998168823348" lon="11.414747974717796"><ele>226.0</ele><time>2026-04-11T08:24:17Z</time></trkpt><trkpt lat="43.34992995148261" lon="11.4146535541765"><ele>226.0</ele><time>2026-04-11T08:24:19Z</time></trkpt><trkpt lat="43.3498769902568" lon="11.414560699617846"><ele>225.99999999999997</ele><time>2026-04-11T08:24:21Z</time></trkpt><trkpt lat="43.349823678574396" lon="11.414470779138709"><ele>226.0</ele><time>2026-04-11T08:24:23Z</time></trkpt><trkpt lat="43.34976948433215" lon="11.414386794748562"><ele>226.16666666666666</ele><time>2026-04-11T08:24:25Z</time></trkpt><trkpt lat="43.3497170855245" lon="11.414299508622527"><ele>226.33333333333331</ele><time>2026-04-11T08:24:26.999Z</time></trkpt><trkpt lat="43.349667110561484" lon="11.414205341123749"><ele>226.5</ele><time>2026-04-11T08:24:28.999Z</time></trkpt><trkpt lat="43.349621404413895" lon="11.4141144653449"><ele>226.66666666666669</ele><time>2026-04-11T08:24:30.999Z</time></trkpt><trkpt lat="43.349579832216186" lon="11.414016638105807"><ele>226.83333333333334</ele><time>2026-04-11T08:24:32.999Z</time></trkpt><trkpt lat="43.349540123755204" lon="11.413912450558513"><ele>227.0</ele><time>2026-04-11T08:24:34.999Z</time></trkpt><trkpt lat="43.34950300094367" lon="11.413807506885176"><ele>227.00000000000003</ele><time>2026-04-11T08:24:36.999Z</time></trkpt><trkpt lat="43.34946591537756" lon="11.413699900599342"><ele>227.0</ele><time>2026-04-11T08:24:38.999Z</time></trkpt><trkpt lat="43.34942911010417" lon="11.413598265287721"><ele>227.0</ele><time>2026-04-11T08:24:40.999Z</time></trkpt><trkpt lat="43.34938909373541" lon="11.413493979461572"><ele>227.0</ele><time>2026-04-11T08:24:42.999Z</time></trkpt><trkpt lat="43.349353845764746" lon="11.413382428586228"><ele>227.00000000000003</ele><time>2026-04-11T08:24:44.999Z</time></trkpt><trkpt lat="43.34930424468457" lon="11.41327856698502"><ele>227.0</ele><time>2026-04-11T08:24:46.999Z</time></trkpt><trkpt lat="43.34925031037566" lon="11.413178648079075"><ele>227.0</ele><time>2026-04-11T08:24:48.999Z</time></trkpt><trkpt lat="43.34918669948198" lon="11.41308289182451"><ele>227.0</ele><time>2026-04-11T08:24:50.999Z</time></trkpt><trkpt lat="43.34911989490386" lon="11.412983699829141"><ele>227.0</ele><time>2026-04-11T08:24:52.999Z</time></trkpt><trkpt lat="43.34904966251683" lon="11.412890695950674"><ele>227.0</ele><time>2026-04-11T08:24:54.999Z</time></trkpt><trkpt lat="43.34897883883913" lon="11.412791259115902"><ele>227.0</ele><time>2026-04-11T08:24:56.999Z</time></trkpt><trkpt lat="43.3489119751081" lon="11.41269001908164"><ele>228.0</ele><time>2026-04-11T08:24:58.999Z</time></trkpt><trkpt lat="43.34884659791404" lon="11.412582878584939"><ele>229.0</ele><time>2026-04-11T08:25:00.999Z</time></trkpt><trkpt lat="43.34879135901729" lon="11.412467898914523"><ele>230.0</ele><time>2026-04-11T08:25:02.999Z</time></trkpt><trkpt lat="43.3487380430701" lon="11.412350144387359"><ele>231.0</ele><time>2026-04-11T08:25:04.999Z</time></trkpt><trkpt lat="43.3486903245136" lon="11.41223138074149"><ele>232.0</ele><time>2026-04-11T08:25:06.999Z</time></trkpt><trkpt lat="43.34864891126155" lon="11.412107413847162"><ele>232.0</ele><time>2026-04-11T08:25:08.999Z</time></trkpt><trkpt lat="43.348614064881325" lon="11.411979386834005"><ele>232.0</ele><time>2026-04-11T08:25:10.999Z</time></trkpt><trkpt lat="43.34858330646599" lon="11.411849400033647"><ele>232.0</ele><time>2026-04-11T08:25:12.999Z</time></trkpt><trkpt lat="43.34856438855776" lon="11.411715883706947"><ele>232.0</ele><time>2026-04-11T08:25:14.999Z</time></trkpt><trkpt lat="43.34855297707463" lon="11.411576367693552"><ele>232.0</ele><time>2026-04-11T08:25:16.998Z</time></trkpt><trkpt lat="43.34854412800209" lon="11.411444931447102"><ele>232.99999999999997</ele><time>2026-04-11T08:25:18.998Z</time></trkpt><trkpt lat="43.34853233713857" lon="11.411320843070424"><ele>234.0</ele><time>2026-04-11T08:25:20.998Z</time></trkpt><trkpt lat="43.34852528504085" lon="11.411208368238631"><ele>235.0</ele><time>2026-04-11T08:25:22.998Z</time></trkpt><trkpt lat="43.348523107142" lon="11.411102952542965"><ele>236.0</ele><time>2026-04-11T08:25:24.998Z</time></trkpt><trkpt lat="43.34851452805315" lon="11.410999413912435"><ele>236.99999999999997</ele><time>2026-04-11T08:25:26.998Z</time></trkpt><trkpt lat="43.348502549818654" lon="11.41089599798339"><ele>238.0</ele><time>2026-04-11T08:25:28.998Z</time></trkpt><trkpt lat="43.34848878734318" lon="11.410790068426438"><ele>238.0</ele><time>2026-04-11T08:25:30.998Z</time></trkpt><trkpt lat="43.348467278451324" lon="11.410685103726838"><ele>238.0</ele><time>2026-04-11T08:25:32.998Z</time></trkpt><trkpt lat="43.34845148188899" lon="11.410583890961423"><ele>238.0</ele><time>2026-04-11T08:25:34.998Z</time></trkpt><trkpt lat="43.34842926787293" lon="11.410490674443883"><ele>238.0</ele><time>2026-04-11T08:25:36.998Z</time></trkpt><trkpt lat="43.34840402030786" lon="11.41040280564699"><ele>238.0</ele><time>2026-04-11T08:25:38.998Z</time></trkpt><trkpt lat="43.34838033970672" lon="11.410314101779516"><ele>238.0</ele><time>2026-04-11T08:25:41Z</time></trkpt><trkpt lat="43.34836059400307" lon="11.410222662332878"><ele>238.0</ele><time>2026-04-11T08:25:43Z</time></trkpt><trkpt lat="43.34834114530609" lon="11.410132180630384"><ele>238.28571428571428</ele><time>2026-04-11T08:25:45Z</time></trkpt><trkpt lat="43.348311561856974" lon="11.41004560230715"><ele>238.57142857142856</ele><time>2026-04-11T08:25:47Z</time></trkpt><trkpt lat="43.34829656956153" lon="11.409952866941705"><ele>238.85714285714286</ele><time>2026-04-11T08:25:49Z</time></trkpt><trkpt lat="43.34827429926197" lon="11.409865380726725"><ele>239.14285714285714</ele><time>2026-04-11T08:25:51Z</time></trkpt><trkpt lat="43.348248106607315" lon="11.409780222908703"><ele>239.42857142857142</ele><time>2026-04-11T08:25:53Z</time></trkpt><trkpt lat="43.34823256865595" lon="11.409692923074775"><ele>239.71428571428572</ele><time>2026-04-11T08:25:55Z</time></trkpt><trkpt lat="43.348201849350716" lon="11.409570519953656"><ele>240.0</ele><time>2026-04-11T08:25:58Z</time></trkpt><trkpt lat="43.34816590644854" lon="11.409454634753011"><ele>240.0</ele><time>2026-04-11T08:26:01Z</time></trkpt><trkpt lat="43.34813824072468" lon="11.4093318883455"><ele>240.0</ele><time>2026-04-11T08:26:04Z</time></trkpt><trkpt lat="43.348121588574784" lon="11.409245484446444"><ele>240.0</ele><time>2026-04-11T08:26:06Z</time></trkpt><trkpt lat="43.348096226503415" lon="11.409125060914754"><ele>240.0</ele><time>2026-04-11T08:26:09Z</time></trkpt><trkpt lat="43.34807729209613" lon="11.409001548704081"><ele>240.0</ele><time>2026-04-11T08:26:12Z</time></trkpt><trkpt lat="43.34806063610208" lon="11.408878701004763"><ele>240.0</ele><time>2026-04-11T08:26:15Z</time></trkpt><trkpt lat="43.34805026879835" lon="11.408752350500434"><ele>240.42857142857144</ele><time>2026-04-11T08:26:18Z</time></trkpt><trkpt lat="43.34804626752476" lon="11.408663300316542"><ele>240.85714285714283</ele><time>2026-04-11T08:26:20Z</time></trkpt><trkpt lat="43.34803871984292" lon="11.408534644053013"><ele>241.28571428571428</ele><time>2026-04-11T08:26:23Z</time></trkpt><trkpt lat="43.34803413578838" lon="11.408447056173912"><ele>241.71428571428572</ele><time>2026-04-11T08:26:25Z</time></trkpt><trkpt lat="43.34803056832762" lon="11.408355784504215"><ele>242.14285714285717</ele><time>2026-04-11T08:26:27Z</time></trkpt><trkpt lat="43.34803393956954" lon="11.408263685398195"><ele>242.57142857142856</ele><time>2026-04-11T08:26:29Z</time></trkpt><trkpt lat="43.34803120975583" lon="11.408172808438144"><ele>243.0</ele><time>2026-04-11T08:26:31Z</time></trkpt><trkpt lat="43.348030412355236" lon="11.408081859085188"><ele>246.85714285714283</ele><time>2026-04-11T08:26:33Z</time></trkpt><trkpt lat="43.34802749834454" lon="11.407989417896879"><ele>250.71428571428572</ele><time>2026-04-11T08:26:34.999Z</time></trkpt><trkpt lat="43.348031708609135" lon="11.407896379319322"><ele>254.57142857142856</ele><time>2026-04-11T08:26:36.999Z</time></trkpt><trkpt lat="43.34803323044318" lon="11.407801552582134"><ele>258.42857142857144</ele><time>2026-04-11T08:26:38.999Z</time></trkpt><trkpt lat="43.34803031290451" lon="11.407713667330311"><ele>262.2857142857143</ele><time>2026-04-11T08:26:40.999Z</time></trkpt><trkpt lat="43.348036492994396" lon="11.40761240106449"><ele>266.1428571428571</ele><time>2026-04-11T08:26:42.999Z</time></trkpt><trkpt lat="43.34803826835429" lon="11.407522402396424"><ele>270.0</ele><time>2026-04-11T08:26:44.999Z</time></trkpt><trkpt lat="43.34804018888126" lon="11.407432315838577"><ele>270.0</ele><time>2026-04-11T08:26:46.999Z</time></trkpt><trkpt lat="43.34804250284885" lon="11.407341472087221"><ele>270.0</ele><time>2026-04-11T08:26:48.999Z</time></trkpt><trkpt lat="43.348049788684065" lon="11.407252238886926"><ele>270.0</ele><time>2026-04-11T08:26:50.999Z</time></trkpt><trkpt lat="43.34805298418946" lon="11.407163102273799"><ele>270.0</ele><time>2026-04-11T08:26:52.999Z</time></trkpt><trkpt lat="43.34805610082755" lon="11.407073215962386"><ele>270.0</ele><time>2026-04-11T08:26:54.999Z</time></trkpt><trkpt lat="43.348062151143964" lon="11.406981963818687"><ele>270.0</ele><time>2026-04-11T08:26:56.999Z</time></trkpt><trkpt lat="43.34806752180788" lon="11.40689365126158"><ele>270.0</ele><time>2026-04-11T08:26:58.999Z</time></trkpt><trkpt lat="43.3480760344788" lon="11.406803796001537"><ele>268.0</ele><time>2026-04-11T08:27:00.999Z</time></trkpt><trkpt lat="43.3480841076262" lon="11.40671758174578"><ele>266.0</ele><time>2026-04-11T08:27:02.999Z</time></trkpt><trkpt lat="43.348094830324065" lon="11.406631296116494"><ele>264.0</ele><time>2026-04-11T08:27:04.999Z</time></trkpt><trkpt lat="43.348106431230306" lon="11.406543826833348"><ele>262.0</ele><time>2026-04-11T08:27:06.999Z</time></trkpt><trkpt lat="43.348131784386304" lon="11.406417357969717"><ele>260.0</ele><time>2026-04-11T08:27:09.999Z</time></trkpt><trkpt lat="43.3481629535651" lon="11.406295453792604"><ele>258.0</ele><time>2026-04-11T08:27:12.999Z</time></trkpt><trkpt lat="43.34818785103422" lon="11.406208567651197"><ele>256.0</ele><time>2026-04-11T08:27:14.999Z</time></trkpt><trkpt lat="43.34822567945922" lon="11.406093491268994"><ele>255.99999999999997</ele><time>2026-04-11T08:27:17.999Z</time></trkpt><trkpt lat="43.348262189572175" lon="11.40597597758938"><ele>256.0</ele><time>2026-04-11T08:27:20.999Z</time></trkpt><trkpt lat="43.34829981405581" lon="11.405866431846778"><ele>256.0</ele><time>2026-04-11T08:27:23.998Z</time></trkpt><trkpt lat="43.348329238615506" lon="11.405754526962049"><ele>256.0</ele><time>2026-04-11T08:27:26.998Z</time></trkpt><trkpt lat="43.348358699537734" lon="11.405638422253617"><ele>255.99999999999997</ele><time>2026-04-11T08:27:29.998Z</time></trkpt><trkpt lat="43.348381201178164" lon="11.405519136578594"><ele>256.0</ele><time>2026-04-11T08:27:32.998Z</time></trkpt><trkpt lat="43.34840000723261" lon="11.40540061011943"><ele>257.8333333333333</ele><time>2026-04-11T08:27:35.998Z</time></trkpt><trkpt lat="43.3484188173167" lon="11.405280087867746"><ele>259.66666666666663</ele><time>2026-04-11T08:27:38.998Z</time></trkpt><trkpt lat="43.3484310357331" lon="11.405164519498229"><ele>261.5</ele><time>2026-04-11T08:27:41.998Z</time></trkpt><trkpt lat="43.34844471091259" lon="11.405045302459628"><ele>263.3333333333333</ele><time>2026-04-11T08:27:44.998Z</time></trkpt><trkpt lat="43.34844942870613" lon="11.4049579873571"><ele>265.1666666666667</ele><time>2026-04-11T08:27:47Z</time></trkpt><trkpt lat="43.34846063697945" lon="11.404841405629996"><ele>267.0</ele><time>2026-04-11T08:27:50Z</time></trkpt><trkpt lat="43.34848535102158" lon="11.404721331764076"><ele>267.3333333333333</ele><time>2026-04-11T08:27:53Z</time></trkpt><trkpt lat="43.348518060417696" lon="11.404604455380344"><ele>267.6666666666667</ele><time>2026-04-11T08:27:56Z</time></trkpt><trkpt lat="43.348552428116726" lon="11.404492431533967"><ele>268.0</ele><time>2026-04-11T08:27:59Z</time></trkpt><trkpt lat="43.34859780876172" lon="11.404393342779613"><ele>268.33333333333337</ele><time>2026-04-11T08:28:02Z</time></trkpt><trkpt lat="43.34864840240753" lon="11.404293155466478"><ele>268.6666666666667</ele><time>2026-04-11T08:28:06Z</time></trkpt><trkpt lat="43.34868839945008" lon="11.404220788051873"><ele>269.0</ele><time>2026-04-11T08:28:09Z</time></trkpt><trkpt lat="43.34873782630997" lon="11.4041483861025"><ele>269.0</ele><time>2026-04-11T08:28:12Z</time></trkpt><trkpt lat="43.348791641461624" lon="11.404065106498333"><ele>269.0</ele><time>2026-04-11T08:28:16Z</time></trkpt><trkpt lat="43.34885587283973" lon="11.403970752334791"><ele>269.0</ele><time>2026-04-11T08:28:19Z</time></trkpt><trkpt lat="43.34889676604298" lon="11.40390278884397"><ele>269.0</ele><time>2026-04-11T08:28:21Z</time></trkpt><trkpt lat="43.34893994724321" lon="11.403827971098226"><ele>269.0</ele><time>2026-04-11T08:28:23Z</time></trkpt><trkpt lat="43.34897963913111" lon="11.403760402914411"><ele>269.0</ele><time>2026-04-11T08:28:24Z</time></trkpt><trkpt lat="43.34902363534723" lon="11.403656808810576"><ele>269.5</ele><time>2026-04-11T08:28:27Z</time></trkpt><trkpt lat="43.34906241289633" lon="11.403543035249994"><ele>270.0</ele><time>2026-04-11T08:28:30Z</time></trkpt><trkpt lat="43.34908020679895" lon="11.40345624641176"><ele>270.5</ele><time>2026-04-11T08:28:33Z</time></trkpt><trkpt lat="43.34910576099784" lon="11.403336715351923"><ele>271.0</ele><time>2026-04-11T08:28:35Z</time></trkpt><trkpt lat="43.349120917870934" lon="11.403220180757877"><ele>271.5</ele><time>2026-04-11T08:28:38Z</time></trkpt><trkpt lat="43.34913147317465" lon="11.403092510938249"><ele>272.0</ele><time>2026-04-11T08:28:40.999Z</time></trkpt><trkpt lat="43.34914497518282" lon="11.402967786909183"><ele>273.1666666666667</ele><time>2026-04-11T08:28:43.999Z</time></trkpt><trkpt lat="43.349160374650616" lon="11.402843210197261"><ele>274.33333333333337</ele><time>2026-04-11T08:28:46.999Z</time></trkpt><trkpt lat="43.34917467528098" lon="11.402718099149013"><ele>275.5</ele><time>2026-04-11T08:28:49.999Z</time></trkpt><trkpt lat="43.34917757972613" lon="11.402630103435285"><ele>276.6666666666667</ele><time>2026-04-11T08:28:51.999Z</time></trkpt><trkpt lat="43.34918542943825" lon="11.402505080186666"><ele>277.8333333333333</ele><time>2026-04-11T08:28:54.999Z</time></trkpt><trkpt lat="43.34919227179711" lon="11.40241764663998"><ele>279.0</ele><time>2026-04-11T08:28:56.999Z</time></trkpt><trkpt lat="43.349201491880095" lon="11.402331467834498"><ele>278.99999999999994</ele><time>2026-04-11T08:28:58.999Z</time></trkpt><trkpt lat="43.34920689693258" lon="11.402242962944387"><ele>279.0</ele><time>2026-04-11T08:29:00.999Z</time></trkpt><trkpt lat="43.34921870535202" lon="11.40215393348934"><ele>279.0</ele><time>2026-04-11T08:29:02.999Z</time></trkpt><trkpt lat="43.34924099099957" lon="11.402062340760834"><ele>279.0</ele><time>2026-04-11T08:29:04.999Z</time></trkpt><trkpt lat="43.349261090188186" lon="11.40197010471645"><ele>279.0</ele><time>2026-04-11T08:29:06.999Z</time></trkpt><trkpt lat="43.349284619058324" lon="11.401880318128445"><ele>278.99999999999994</ele><time>2026-04-11T08:29:08.999Z</time></trkpt><trkpt lat="43.34931591617161" lon="11.401795944832614"><ele>279.0</ele><time>2026-04-11T08:29:10.999Z</time></trkpt><trkpt lat="43.34935661910936" lon="11.401720761313783"><ele>279.5</ele><time>2026-04-11T08:29:12.999Z</time></trkpt><trkpt lat="43.34939962295739" lon="11.401648971764832"><ele>280.0</ele><time>2026-04-11T08:29:14.999Z</time></trkpt><trkpt lat="43.34945797997639" lon="11.401595221702442"><ele>280.5</ele><time>2026-04-11T08:29:16.999Z</time></trkpt><trkpt lat="43.34952022350862" lon="11.401560263764635"><ele>281.0</ele><time>2026-04-11T08:29:18.999Z</time></trkpt><trkpt lat="43.349584597544116" lon="11.40154881308348"><ele>281.5</ele><time>2026-04-11T08:29:20.999Z</time></trkpt><trkpt lat="43.34967937737428" lon="11.40155433687939"><ele>282.0</ele><time>2026-04-11T08:29:23.999Z</time></trkpt><trkpt lat="43.34976810572944" lon="11.40159212626045"><ele>282.0</ele><time>2026-04-11T08:29:26.999Z</time></trkpt><trkpt lat="43.34982935835187" lon="11.40161693040349"><ele>282.0</ele><time>2026-04-11T08:29:28.999Z</time></trkpt><trkpt lat="43.349917844110394" lon="11.401638363144182"><ele>282.0</ele><time>2026-04-11T08:29:31.998Z</time></trkpt><trkpt lat="43.34998129608536" lon="11.401654947892371"><ele>282.0</ele><time>2026-04-11T08:29:33.998Z</time></trkpt><trkpt lat="43.350077316923866" lon="11.401649531211165"><ele>282.0</ele><time>2026-04-11T08:29:36.998Z</time></trkpt><trkpt lat="43.35013797781443" lon="11.401620114913483"><ele>282.0</ele><time>2026-04-11T08:29:38.998Z</time></trkpt><trkpt lat="43.350186188861336" lon="11.401564404737424"><ele>282.0</ele><time>2026-04-11T08:29:40.998Z</time></trkpt><trkpt lat="43.35022420137659" lon="11.401494650353301"><ele>282.0</ele><time>2026-04-11T08:29:42.998Z</time></trkpt><trkpt lat="43.3502483841434" lon="11.401377621748992"><ele>282.0</ele><time>2026-04-11T08:29:45.998Z</time></trkpt><trkpt lat="43.350225724507354" lon="11.401264719586319"><ele>282.0</ele><time>2026-04-11T08:29:48.998Z</time></trkpt><trkpt lat="43.3501840479881" lon="11.401154930653572"><ele>282.0</ele><time>2026-04-11T08:29:52Z</time></trkpt><trkpt lat="43.3501242770659" lon="11.401059957075553"><ele>282.0</ele><time>2026-04-11T08:29:55Z</time></trkpt><trkpt lat="43.3500552901201" lon="11.400976588853897"><ele>282.0</ele><time>2026-04-11T08:29:58Z</time></trkpt><trkpt lat="43.34998447580216" lon="11.400891332468555"><ele>283.6666666666667</ele><time>2026-04-11T08:30:01Z</time></trkpt><trkpt lat="43.349937847645" lon="11.400827845104864"><ele>285.3333333333333</ele><time>2026-04-11T08:30:03Z</time></trkpt><trkpt lat="43.34986534035093" lon="11.40074486496563"><ele>287.0</ele><time>2026-04-11T08:30:06Z</time></trkpt><trkpt lat="43.34980865078113" lon="11.4006994049804"><ele>288.66666666666663</ele><time>2026-04-11T08:30:08Z</time></trkpt><trkpt lat="43.349715851042966" lon="11.400659756692532"><ele>290.3333333333333</ele><time>2026-04-11T08:30:11Z</time></trkpt><trkpt lat="43.34965347451322" lon="11.40063959435214"><ele>292.0</ele><time>2026-04-11T08:30:13Z</time></trkpt><trkpt lat="43.349588355441966" lon="11.400635731714877"><ele>292.3333333333333</ele><time>2026-04-11T08:30:15Z</time></trkpt><trkpt lat="43.349524049909945" lon="11.40064359308503"><ele>292.66666666666663</ele><time>2026-04-11T08:30:17Z</time></trkpt><trkpt lat="43.349436724194184" lon="11.40067152115635"><ele>293.0</ele><time>2026-04-11T08:30:20Z</time></trkpt><trkpt lat="43.34935540179086" lon="11.400720452090463"><ele>293.3333333333333</ele><time>2026-04-11T08:30:23Z</time></trkpt><trkpt lat="43.34929480200087" lon="11.400745431034364"><ele>293.6666666666667</ele><time>2026-04-11T08:30:25Z</time></trkpt><trkpt lat="43.34920897777987" lon="11.400795298842848"><ele>294.0</ele><time>2026-04-11T08:30:28Z</time></trkpt><trkpt lat="43.34914717164116" lon="11.400829029782857"><ele>294.0</ele><time>2026-04-11T08:30:30Z</time></trkpt><trkpt lat="43.34908673112078" lon="11.400855269097903"><ele>294.0</ele><time>2026-04-11T08:30:32Z</time></trkpt><trkpt lat="43.34900284008674" lon="11.400909700178698"><ele>294.0</ele><time>2026-04-11T08:30:35Z</time></trkpt><trkpt lat="43.34892574485266" lon="11.400964649085354"><ele>294.0</ele><time>2026-04-11T08:30:38Z</time></trkpt><trkpt lat="43.34884378134853" lon="11.401013658491742"><ele>294.0</ele><time>2026-04-11T08:30:41Z</time></trkpt><trkpt lat="43.348760054075825" lon="11.401053770124522"><ele>294.0</ele><time>2026-04-11T08:30:44Z</time></trkpt><trkpt lat="43.34866819604757" lon="11.401062353012255"><ele>295.0</ele><time>2026-04-11T08:30:46.999Z</time></trkpt><trkpt lat="43.34858127694079" lon="11.401028106250344"><ele>296.0</ele><time>2026-04-11T08:30:49.999Z</time></trkpt><trkpt lat="43.34851107257653" lon="11.4009689789503"><ele>297.0</ele><time>2026-04-11T08:30:52.999Z</time></trkpt><trkpt lat="43.3484491713363" lon="11.400896294870662"><ele>298.0</ele><time>2026-04-11T08:30:55.999Z</time></trkpt><trkpt lat="43.34838421780071" lon="11.400813577605188"><ele>299.0</ele><time>2026-04-11T08:30:58.999Z</time></trkpt><trkpt lat="43.34833755692121" lon="11.400751162683648"><ele>300.0</ele><time>2026-04-11T08:31:01.999Z</time></trkpt><trkpt lat="43.348275888967464" lon="11.400685605755156"><ele>300.0</ele><time>2026-04-11T08:31:04.999Z</time></trkpt><trkpt lat="43.348216212985626" lon="11.400616575374881"><ele>300.0</ele><time>2026-04-11T08:31:07.999Z</time></trkpt><trkpt lat="43.348145769102985" lon="11.400555667633565"><ele>300.0</ele><time>2026-04-11T08:31:10.999Z</time></trkpt><trkpt lat="43.34807624970158" lon="11.40048451967344"><ele>300.0</ele><time>2026-04-11T08:31:13.999Z</time></trkpt><trkpt lat="43.347999317108204" lon="11.400432622466903"><ele>300.0</ele><time>2026-04-11T08:31:16.999Z</time></trkpt><trkpt lat="43.34791976423146" lon="11.400373612676548"><ele>300.0</ele><time>2026-04-11T08:31:19.999Z</time></trkpt><trkpt lat="43.3478387305228" lon="11.400319483626058"><ele>300.99999999999994</ele><time>2026-04-11T08:31:22.999Z</time></trkpt><trkpt lat="43.34775047679453" lon="11.40027125184084"><ele>302.0</ele><time>2026-04-11T08:31:25.999Z</time></trkpt><trkpt lat="43.34768988026412" lon="11.400230418622147"><ele>303.0</ele><time>2026-04-11T08:31:27.999Z</time></trkpt><trkpt lat="43.34762991372856" lon="11.400186788179408"><ele>304.0</ele><time>2026-04-11T08:31:29.999Z</time></trkpt><trkpt lat="43.34757102419753" lon="11.400132625245005"><ele>305.0</ele><time>2026-04-11T08:31:30.999Z</time></trkpt><trkpt lat="43.34752642589101" lon="11.400055577039412"><ele>305.99999999999994</ele><time>2026-04-11T08:31:32.999Z</time></trkpt><trkpt lat="43.34749785820972" lon="11.39996427371061"><ele>307.0</ele><time>2026-04-11T08:31:34.999Z</time></trkpt><trkpt lat="43.3474665826309" lon="11.39987620082569"><ele>307.0</ele><time>2026-04-11T08:31:36.998Z</time></trkpt><trkpt lat="43.34745507556292" lon="11.399765479161859"><ele>307.0</ele><time>2026-04-11T08:31:39.998Z</time></trkpt><trkpt lat="43.347464099413315" lon="11.399672435383527"><ele>307.0</ele><time>2026-04-11T08:31:41.998Z</time></trkpt><trkpt lat="43.34751328248381" lon="11.399529783693866"><ele>307.0</ele><time>2026-04-11T08:31:43.998Z</time></trkpt><trkpt lat="43.3475660637379" lon="11.399460269749445"><ele>307.0</ele><time>2026-04-11T08:31:46.998Z</time></trkpt><trkpt lat="43.34761509089292" lon="11.399401195721229"><ele>307.0</ele><time>2026-04-11T08:31:48.998Z</time></trkpt><trkpt lat="43.347673448953834" lon="11.399309848515532"><ele>307.16666666666663</ele><time>2026-04-11T08:31:51.998Z</time></trkpt><trkpt lat="43.347749346108586" lon="11.399237230905223"><ele>307.3333333333333</ele><time>2026-04-11T08:31:53.998Z</time></trkpt><trkpt lat="43.347833960048014" lon="11.3991612202259"><ele>307.5</ele><time>2026-04-11T08:31:55.998Z</time></trkpt><trkpt lat="43.34791517708755" lon="11.39912645956328"><ele>307.6666666666667</ele><time>2026-04-11T08:31:58Z</time></trkpt><trkpt lat="43.34799663630412" lon="11.39910024358579"><ele>307.83333333333337</ele><time>2026-04-11T08:32:00Z</time></trkpt><trkpt lat="43.348076781165666" lon="11.39905896971796"><ele>308.0</ele><time>2026-04-11T08:32:02Z</time></trkpt><trkpt lat="43.34815479055593" lon="11.399018399021786"><ele>308.33333333333337</ele><time>2026-04-11T08:32:04Z</time></trkpt><trkpt lat="43.34824271976097" lon="11.399000200387919"><ele>308.6666666666667</ele><time>2026-04-11T08:32:06Z</time></trkpt><trkpt lat="43.348326796147276" lon="11.39898246898085"><ele>309.0</ele><time>2026-04-11T08:32:08Z</time></trkpt><trkpt lat="43.348447513145345" lon="11.39894765057685"><ele>309.3333333333333</ele><time>2026-04-11T08:32:11Z</time></trkpt><trkpt lat="43.34844647879454" lon="11.398858922567301"><ele>309.66666666666663</ele><time>2026-04-11T08:32:13Z</time></trkpt><trkpt lat="43.34839672715227" lon="11.398766851931832"><ele>310.0</ele><time>2026-04-11T08:32:15Z</time></trkpt><trkpt lat="43.34834884985996" lon="11.398676557041647"><ele>309.0</ele><time>2026-04-11T08:32:17Z</time></trkpt><trkpt lat="43.34826742162295" lon="11.398588065810916"><ele>308.0</ele><time>2026-04-11T08:32:19Z</time></trkpt><trkpt lat="43.348176200736546" lon="11.398496309551097"><ele>307.0</ele><time>2026-04-11T08:32:21Z</time></trkpt><trkpt lat="43.348072065389886" lon="11.398477931419981"><ele>306.0</ele><time>2026-04-11T08:32:23Z</time></trkpt><trkpt lat="43.347962463496984" lon="11.39853816344122"><ele>305.0</ele><time>2026-04-11T08:32:25Z</time></trkpt><trkpt lat="43.34786359388845" lon="11.398622497089416"><ele>303.8</ele><time>2026-04-11T08:32:27Z</time></trkpt><trkpt lat="43.34775094462061" lon="11.398666707093518"><ele>302.6</ele><time>2026-04-11T08:32:29Z</time></trkpt><trkpt lat="43.34762624131866" lon="11.398704705615106"><ele>301.4</ele><time>2026-04-11T08:32:31Z</time></trkpt><trkpt lat="43.34755897187467" lon="11.398712974726887"><ele>300.2</ele><time>2026-04-11T08:32:32Z</time></trkpt><trkpt lat="43.34748771445529" lon="11.39871710393029"><ele>299.0</ele><time>2026-04-11T08:32:33Z</time></trkpt><trkpt lat="43.347410053165845" lon="11.398728161098969"><ele>299.0</ele><time>2026-04-11T08:32:34Z</time></trkpt><trkpt lat="43.347337945989125" lon="11.398745753539238"><ele>299.0</ele><time>2026-04-11T08:32:35Z</time></trkpt><trkpt lat="43.34726382064804" lon="11.39875163107324"><ele>299.0</ele><time>2026-04-11T08:32:36Z</time></trkpt><trkpt lat="43.347193416357996" lon="11.398756919058558"><ele>299.0</ele><time>2026-04-11T08:32:37Z</time></trkpt><trkpt lat="43.34712906210502" lon="11.398763136926028"><ele>299.0</ele><time>2026-04-11T08:32:38Z</time></trkpt><trkpt lat="43.34706164470447" lon="11.398774791450517"><ele>299.0</ele><time>2026-04-11T08:32:39Z</time></trkpt><trkpt lat="43.346996039140286" lon="11.39879352164714"><ele>299.0</ele><time>2026-04-11T08:32:40Z</time></trkpt><trkpt lat="43.34693361205326" lon="11.398820049442087"><ele>299.5</ele><time>2026-04-11T08:32:41Z</time></trkpt><trkpt lat="43.34687589978202" lon="11.398861928202775"><ele>300.0</ele><time>2026-04-11T08:32:42Z</time></trkpt><trkpt lat="43.34677458647022" lon="11.398952098420207"><ele>300.5</ele><time>2026-04-11T08:32:44Z</time></trkpt><trkpt lat="43.34668944933411" lon="11.39907059131693"><ele>301.0</ele><time>2026-04-11T08:32:46Z</time></trkpt><trkpt lat="43.34664562319701" lon="11.399135985085575"><ele>301.5</ele><time>2026-04-11T08:32:47Z</time></trkpt><trkpt lat="43.34660217748305" lon="11.39920467208307"><ele>302.0</ele><time>2026-04-11T08:32:48Z</time></trkpt><trkpt lat="43.346556505595714" lon="11.399275243085013"><ele>302.00000000000006</ele><time>2026-04-11T08:32:49Z</time></trkpt><trkpt lat="43.34651079069324" lon="11.399347659710553"><ele>302.0</ele><time>2026-04-11T08:32:50Z</time></trkpt><trkpt lat="43.346463716969595" lon="11.39942492407032"><ele>302.0</ele><time>2026-04-11T08:32:51Z</time></trkpt><trkpt lat="43.34641548550058" lon="11.39950595946401"><ele>302.0</ele><time>2026-04-11T08:32:52Z</time></trkpt><trkpt lat="43.34636674532285" lon="11.39958665062014"><ele>302.0</ele><time>2026-04-11T08:32:53Z</time></trkpt><trkpt lat="43.34631758561893" lon="11.399664225978542"><ele>302.00000000000006</ele><time>2026-04-11T08:32:54Z</time></trkpt><trkpt lat="43.3462674335019" lon="11.399741335465869"><ele>302.0</ele><time>2026-04-11T08:32:55Z</time></trkpt><trkpt lat="43.346221872508714" lon="11.39981699420114"><ele>301.5</ele><time>2026-04-11T08:32:55.999Z</time></trkpt><trkpt lat="43.34617444409725" lon="11.399892075167994"><ele>301.0</ele><time>2026-04-11T08:32:56.999Z</time></trkpt><trkpt lat="43.34612962015252" lon="11.399968266058165"><ele>300.5</ele><time>2026-04-11T08:32:57.999Z</time></trkpt><trkpt lat="43.346083832877" lon="11.40003986598093"><ele>300.0</ele><time>2026-04-11T08:32:58.999Z</time></trkpt><trkpt lat="43.34604031423877" lon="11.400107130123574"><ele>299.5</ele><time>2026-04-11T08:32:59.999Z</time></trkpt><trkpt lat="43.34599728301122" lon="11.400171945686154"><ele>299.0</ele><time>2026-04-11T08:33:00.999Z</time></trkpt><trkpt lat="43.34592165557505" lon="11.40028988570622"><ele>299.0</ele><time>2026-04-11T08:33:02.999Z</time></trkpt><trkpt lat="43.345846783970146" lon="11.400394544997916"><ele>299.0</ele><time>2026-04-11T08:33:04.999Z</time></trkpt><trkpt lat="43.34578078480715" lon="11.400489822164346"><ele>299.0</ele><time>2026-04-11T08:33:06.999Z</time></trkpt><trkpt lat="43.34571845689814" lon="11.400587925688203"><ele>299.0</ele><time>2026-04-11T08:33:08.999Z</time></trkpt><trkpt lat="43.34565325882402" lon="11.400688782946714"><ele>299.0</ele><time>2026-04-11T08:33:10.999Z</time></trkpt><trkpt lat="43.3455829362097" lon="11.400797108157048"><ele>299.0</ele><time>2026-04-11T08:33:12.999Z</time></trkpt><trkpt lat="43.34550703302323" lon="11.400911948903422"><ele>299.0</ele><time>2026-04-11T08:33:14.999Z</time></trkpt><trkpt lat="43.34542669869292" lon="11.401026847616043"><ele>299.0</ele><time>2026-04-11T08:33:16.999Z</time></trkpt><trkpt lat="43.34532453491322" lon="11.401124910926455"><ele>299.0</ele><time>2026-04-11T08:33:18.999Z</time></trkpt><trkpt lat="43.345265257196985" lon="11.40116104554247"><ele>299.0</ele><time>2026-04-11T08:33:19.999Z</time></trkpt><trkpt lat="43.345202260753766" lon="11.401187780835992"><ele>299.0</ele><time>2026-04-11T08:33:20.999Z</time></trkpt><trkpt lat="43.345138708906" lon="11.401215264683689"><ele>299.0</ele><time>2026-04-11T08:33:21.999Z</time></trkpt><trkpt lat="43.34507479156301" lon="11.401241574121"><ele>299.0</ele><time>2026-04-11T08:33:22.999Z</time></trkpt><trkpt lat="43.34501319163002" lon="11.40126923118932"><ele>299.0</ele><time>2026-04-11T08:33:23.999Z</time></trkpt><trkpt lat="43.34495151758204" lon="11.40129242706937"><ele>299.0</ele><time>2026-04-11T08:33:24.999Z</time></trkpt><trkpt lat="43.34488663090755" lon="11.401311569128445"><ele>299.0</ele><time>2026-04-11T08:33:25.999Z</time></trkpt><trkpt lat="43.34476011077109" lon="11.401338696757263"><ele>297.8</ele><time>2026-04-11T08:33:27.999Z</time></trkpt><trkpt lat="43.34462846949117" lon="11.401358030944495"><ele>296.59999999999997</ele><time>2026-04-11T08:33:29.999Z</time></trkpt><trkpt lat="43.34456354811614" lon="11.401358854022956"><ele>295.4</ele><time>2026-04-11T08:33:30.999Z</time></trkpt><trkpt lat="43.344434619137" lon="11.401358458797981"><ele>294.2</ele><time>2026-04-11T08:33:32.999Z</time></trkpt><trkpt lat="43.34437156133101" lon="11.401357735920094"><ele>293.0</ele><time>2026-04-11T08:33:33.999Z</time></trkpt><trkpt lat="43.34424355508021" lon="11.40137262309469"><ele>293.0</ele><time>2026-04-11T08:33:35.999Z</time></trkpt><trkpt lat="43.3441251709827" lon="11.401397848195407"><ele>293.0</ele><time>2026-04-11T08:33:37.999Z</time></trkpt><trkpt lat="43.34406150103971" lon="11.401388357701862"><ele>293.0</ele><time>2026-04-11T08:33:38.999Z</time></trkpt><trkpt lat="43.34395408088803" lon="11.40144223136266"><ele>293.0</ele><time>2026-04-11T08:33:40.999Z</time></trkpt><trkpt lat="43.3438882043403" lon="11.401447241904034"><ele>293.0</ele><time>2026-04-11T08:33:41.999Z</time></trkpt><trkpt lat="43.34383013924911" lon="11.401480912069013"><ele>293.0</ele><time>2026-04-11T08:33:42.999Z</time></trkpt><trkpt lat="43.34372505547139" lon="11.40154473479626"><ele>292.8</ele><time>2026-04-11T08:33:44.998Z</time></trkpt><trkpt lat="43.3436136389703" lon="11.401608853190158"><ele>292.6</ele><time>2026-04-11T08:33:46.998Z</time></trkpt><trkpt lat="43.34350551967019" lon="11.401677027874937"><ele>292.4</ele><time>2026-04-11T08:33:48.998Z</time></trkpt><trkpt lat="43.34339368637579" lon="11.401761620495055"><ele>292.2</ele><time>2026-04-11T08:33:50.998Z</time></trkpt><trkpt lat="43.343341711019384" lon="11.401811767900089"><ele>292.0</ele><time>2026-04-11T08:33:51.998Z</time></trkpt><trkpt lat="43.34329056072096" lon="11.4018681130406"><ele>292.0</ele><time>2026-04-11T08:33:52.998Z</time></trkpt><trkpt lat="43.34324177534794" lon="11.401938239788725"><ele>292.0</ele><time>2026-04-11T08:33:53.998Z</time></trkpt><trkpt lat="43.34316059036874" lon="11.402081986910591"><ele>292.0</ele><time>2026-04-11T08:33:55.998Z</time></trkpt><trkpt lat="43.34313111562254" lon="11.40216345751411"><ele>292.0</ele><time>2026-04-11T08:33:56.998Z</time></trkpt><trkpt lat="43.34311283228259" lon="11.402251902200346"><ele>292.0</ele><time>2026-04-11T08:33:57.998Z</time></trkpt><trkpt lat="43.343121271326794" lon="11.402342956676383"><ele>292.0</ele><time>2026-04-11T08:33:58.998Z</time></trkpt><trkpt lat="43.34309302675937" lon="11.402495418053002"><ele>291.5</ele><time>2026-04-11T08:34:00.998Z</time></trkpt><trkpt lat="43.343080300138915" lon="11.402644874108999"><ele>291.0</ele><time>2026-04-11T08:34:03Z</time></trkpt><trkpt lat="43.343074571345866" lon="11.402812288853273"><ele>290.5</ele><time>2026-04-11T08:34:05Z</time></trkpt><trkpt lat="43.3430643236017" lon="11.402901581980124"><ele>290.0</ele><time>2026-04-11T08:34:06Z</time></trkpt><trkpt lat="43.34304354573016" lon="11.402995131142495"><ele>289.5</ele><time>2026-04-11T08:34:07Z</time></trkpt><trkpt lat="43.343015626059845" lon="11.403085169787373"><ele>289.0</ele><time>2026-04-11T08:34:08Z</time></trkpt><trkpt lat="43.34297276999278" lon="11.403165216453935"><ele>289.0</ele><time>2026-04-11T08:34:09Z</time></trkpt><trkpt lat="43.34291712449901" lon="11.403234318731805"><ele>289.0</ele><time>2026-04-11T08:34:10Z</time></trkpt><trkpt lat="43.342846522359594" lon="11.403281856797822"><ele>289.0</ele><time>2026-04-11T08:34:11Z</time></trkpt><trkpt lat="43.342770396096356" lon="11.40330865830773"><ele>289.0</ele><time>2026-04-11T08:34:12Z</time></trkpt><trkpt lat="43.34269108590202" lon="11.403328715087245"><ele>289.0</ele><time>2026-04-11T08:34:13Z</time></trkpt><trkpt lat="43.34260870544646" lon="11.403342623300128"><ele>289.0</ele><time>2026-04-11T08:34:14Z</time></trkpt><trkpt lat="43.34252166350784" lon="11.403350804360738"><ele>289.0</ele><time>2026-04-11T08:34:15Z</time></trkpt><trkpt lat="43.342437476046975" lon="11.403381592185257"><ele>289.0</ele><time>2026-04-11T08:34:16Z</time></trkpt><trkpt lat="43.3423540763554" lon="11.403430216272897"><ele>289.0</ele><time>2026-04-11T08:34:17Z</time></trkpt><trkpt lat="43.342273500178635" lon="11.403506702796172"><ele>289.0</ele><time>2026-04-11T08:34:18Z</time></trkpt><trkpt lat="43.34219499508806" lon="11.40360445658518"><ele>289.0</ele><time>2026-04-11T08:34:19Z</time></trkpt><trkpt lat="43.342112677436724" lon="11.403704594417617"><ele>288.0</ele><time>2026-04-11T08:34:20Z</time></trkpt><trkpt lat="43.3420293004097" lon="11.403804678967344"><ele>287.0</ele><time>2026-04-11T08:34:21Z</time></trkpt><trkpt lat="43.341943113482714" lon="11.40389845160984"><ele>286.0</ele><time>2026-04-11T08:34:22Z</time></trkpt><trkpt lat="43.341859899884376" lon="11.40399212778313"><ele>285.0</ele><time>2026-04-11T08:34:23Z</time></trkpt><trkpt lat="43.341783092556135" lon="11.404080937907738"><ele>284.0</ele><time>2026-04-11T08:34:24Z</time></trkpt><trkpt lat="43.341707160172724" lon="11.404166078558264"><ele>284.0</ele><time>2026-04-11T08:34:25Z</time></trkpt><trkpt lat="43.3416341176851" lon="11.40424935228439"><ele>284.0</ele><time>2026-04-11T08:34:26Z</time></trkpt><trkpt lat="43.34156250285944" lon="11.404327595156449"><ele>284.0</ele><time>2026-04-11T08:34:27Z</time></trkpt><trkpt lat="43.34149322961251" lon="11.404403924892575"><ele>284.0</ele><time>2026-04-11T08:34:28Z</time></trkpt><trkpt lat="43.34142983003436" lon="11.404478659023574"><ele>284.0</ele><time>2026-04-11T08:34:29Z</time></trkpt><trkpt lat="43.341372783348575" lon="11.404553017562613"><ele>284.0</ele><time>2026-04-11T08:34:30Z</time></trkpt><trkpt lat="43.34132359006265" lon="11.404633169209054"><ele>285.0</ele><time>2026-04-11T08:34:31Z</time></trkpt><trkpt lat="43.341277633995475" lon="11.404712920071079"><ele>286.0</ele><time>2026-04-11T08:34:32Z</time></trkpt><trkpt lat="43.341236762580884" lon="11.404787016515275"><ele>287.0</ele><time>2026-04-11T08:34:33Z</time></trkpt><trkpt lat="43.34119772207435" lon="11.404859956570675"><ele>288.0</ele><time>2026-04-11T08:34:34Z</time></trkpt><trkpt lat="43.3411193415656" lon="11.404983227879947"><ele>289.0</ele><time>2026-04-11T08:34:36Z</time></trkpt><trkpt lat="43.34104378619664" lon="11.405101190793882"><ele>290.0</ele><time>2026-04-11T08:34:38Z</time></trkpt><trkpt lat="43.34096186209218" lon="11.40520731040154"><ele>290.0</ele><time>2026-04-11T08:34:40Z</time></trkpt><trkpt lat="43.340869901850944" lon="11.405296014322438"><ele>290.0</ele><time>2026-04-11T08:34:42Z</time></trkpt><trkpt lat="43.34076947228128" lon="11.405367644027438"><ele>290.0</ele><time>2026-04-11T08:34:44Z</time></trkpt><trkpt lat="43.340665071482675" lon="11.405432982589454"><ele>290.0</ele><time>2026-04-11T08:34:46Z</time></trkpt><trkpt lat="43.34056406125985" lon="11.40550051038839"><ele>290.0</ele><time>2026-04-11T08:34:48Z</time></trkpt><trkpt lat="43.340455904981916" lon="11.405561499085003"><ele>290.0</ele><time>2026-04-11T08:34:50Z</time></trkpt><trkpt lat="43.340351676009696" lon="11.405624100709753"><ele>290.0</ele><time>2026-04-11T08:34:52Z</time></trkpt><trkpt lat="43.34025183683745" lon="11.40568852169852"><ele>290.0</ele><time>2026-04-11T08:34:54Z</time></trkpt><trkpt lat="43.34015220982631" lon="11.405748514516429"><ele>290.0</ele><time>2026-04-11T08:34:56Z</time></trkpt><trkpt lat="43.34005720031567" lon="11.405812052258907"><ele>290.0</ele><time>2026-04-11T08:34:58Z</time></trkpt><trkpt lat="43.33996917052902" lon="11.405863773515216"><ele>290.0</ele><time>2026-04-11T08:35:00Z</time></trkpt><trkpt lat="43.33988631522708" lon="11.40591692069148"><ele>290.0</ele><time>2026-04-11T08:35:01.999Z</time></trkpt><trkpt lat="43.33980814685742" lon="11.405971710498717"><ele>290.0</ele><time>2026-04-11T08:35:03.999Z</time></trkpt><trkpt lat="43.33973237986348" lon="11.406022207661312"><ele>289.5</ele><time>2026-04-11T08:35:05.999Z</time></trkpt><trkpt lat="43.33967396509784" lon="11.406083664126864"><ele>289.0</ele><time>2026-04-11T08:35:07.999Z</time></trkpt><trkpt lat="43.33961680425507" lon="11.406151611973973"><ele>288.5</ele><time>2026-04-11T08:35:09.999Z</time></trkpt><trkpt lat="43.33956545495892" lon="11.406236695063477"><ele>288.0</ele><time>2026-04-11T08:35:11.999Z</time></trkpt><trkpt lat="43.339529819460644" lon="11.406327546581359"><ele>287.5</ele><time>2026-04-11T08:35:13.999Z</time></trkpt><trkpt lat="43.33949099698199" lon="11.406427919584786"><ele>287.0</ele><time>2026-04-11T08:35:15.999Z</time></trkpt><trkpt lat="43.33944417659822" lon="11.406543716677788"><ele>287.0</ele><time>2026-04-11T08:35:17.999Z</time></trkpt><trkpt lat="43.339398377420785" lon="11.406611120138813"><ele>287.0</ele><time>2026-04-11T08:35:19.999Z</time></trkpt><trkpt lat="43.339344565719784" lon="11.406698974322579"><ele>287.0</ele><time>2026-04-11T08:35:21.999Z</time></trkpt><trkpt lat="43.33928514077514" lon="11.406805013578516"><ele>287.0</ele><time>2026-04-11T08:35:22.999Z</time></trkpt><trkpt lat="43.33920536710174" lon="11.406888971239104"><ele>287.0</ele><time>2026-04-11T08:35:24.999Z</time></trkpt><trkpt lat="43.33914167074498" lon="11.406891084309148"><ele>287.0</ele><time>2026-04-11T08:35:25.999Z</time></trkpt><trkpt lat="43.33909341734641" lon="11.407019931489309"><ele>287.0</ele><time>2026-04-11T08:35:27.999Z</time></trkpt><trkpt lat="43.33902539949907" lon="11.407112851405609"><ele>287.0</ele><time>2026-04-11T08:35:29.999Z</time></trkpt><trkpt lat="43.33895068767175" lon="11.40719195170913"><ele>287.0</ele><time>2026-04-11T08:35:31.999Z</time></trkpt><trkpt lat="43.338883606926856" lon="11.407282384700162"><ele>287.0</ele><time>2026-04-11T08:35:33.999Z</time></trkpt><trkpt lat="43.33881030778949" lon="11.407367458397744"><ele>287.0</ele><time>2026-04-11T08:35:35.999Z</time></trkpt><trkpt lat="43.33873951898183" lon="11.40745565895587"><ele>287.4</ele><time>2026-04-11T08:35:37.999Z</time></trkpt><trkpt lat="43.33865115893638" lon="11.407530842314243"><ele>287.79999999999995</ele><time>2026-04-11T08:35:39.999Z</time></trkpt><trkpt lat="43.33858106837252" lon="11.407600469533875"><ele>288.2</ele><time>2026-04-11T08:35:41.999Z</time></trkpt><trkpt lat="43.338504546763104" lon="11.407653920685885"><ele>288.59999999999997</ele><time>2026-04-11T08:35:43.999Z</time></trkpt><trkpt lat="43.338429445116326" lon="11.407698898133816"><ele>289.0</ele><time>2026-04-11T08:35:45.999Z</time></trkpt><trkpt lat="43.33834856243725" lon="11.407757553108857"><ele>289.0</ele><time>2026-04-11T08:35:47.999Z</time></trkpt><trkpt lat="43.33826075855672" lon="11.40780399704796"><ele>289.0</ele><time>2026-04-11T08:35:49.999Z</time></trkpt><trkpt lat="43.33816613463607" lon="11.407822243034467"><ele>289.0</ele><time>2026-04-11T08:35:51.998Z</time></trkpt><trkpt lat="43.33807080117872" lon="11.40780806140636"><ele>289.0</ele><time>2026-04-11T08:35:53.998Z</time></trkpt><trkpt lat="43.33798336225126" lon="11.407749271551253"><ele>289.0</ele><time>2026-04-11T08:35:55.998Z</time></trkpt><trkpt lat="43.3378893918541" lon="11.407680307071598"><ele>289.4</ele><time>2026-04-11T08:35:57.998Z</time></trkpt><trkpt lat="43.337807961039886" lon="11.407604328478763"><ele>289.79999999999995</ele><time>2026-04-11T08:35:59.998Z</time></trkpt><trkpt lat="43.337725336379464" lon="11.407519677431477"><ele>290.20000000000005</ele><time>2026-04-11T08:36:01.998Z</time></trkpt><trkpt lat="43.33764441995028" lon="11.407440692563243"><ele>290.6</ele><time>2026-04-11T08:36:03.998Z</time></trkpt><trkpt lat="43.33756305558897" lon="11.407363793229369"><ele>291.0</ele><time>2026-04-11T08:36:05.998Z</time></trkpt><trkpt lat="43.337482318230784" lon="11.407287979740076"><ele>291.0</ele><time>2026-04-11T08:36:07.998Z</time></trkpt><trkpt lat="43.33740407539979" lon="11.407215082360286"><ele>291.0</ele><time>2026-04-11T08:36:10Z</time></trkpt><trkpt lat="43.33732431653628" lon="11.407144351650425"><ele>291.0</ele><time>2026-04-11T08:36:12Z</time></trkpt><trkpt lat="43.337245299029384" lon="11.40707582658339"><ele>291.0</ele><time>2026-04-11T08:36:14Z</time></trkpt><trkpt lat="43.33715907729743" lon="11.407024193983107"><ele>291.0</ele><time>2026-04-11T08:36:16Z</time></trkpt><trkpt lat="43.33706116578402" lon="11.406976192685292"><ele>291.2</ele><time>2026-04-11T08:36:18Z</time></trkpt><trkpt lat="43.33695785838429" lon="11.406928848880993"><ele>291.40000000000003</ele><time>2026-04-11T08:36:20Z</time></trkpt><trkpt lat="43.336853444035654" lon="11.406882732036415"><ele>291.6</ele><time>2026-04-11T08:36:22Z</time></trkpt><trkpt lat="43.33674498752998" lon="11.406832748202705"><ele>291.8</ele><time>2026-04-11T08:36:24Z</time></trkpt><trkpt lat="43.33663479068522" lon="11.406784939760442"><ele>292.0</ele><time>2026-04-11T08:36:26Z</time></trkpt><trkpt lat="43.33652194014802" lon="11.406737299882636"><ele>292.0</ele><time>2026-04-11T08:36:28Z</time></trkpt><trkpt lat="43.33640619262514" lon="11.406700734252563"><ele>292.0</ele><time>2026-04-11T08:36:30Z</time></trkpt><trkpt lat="43.33629423575561" lon="11.406678399496156"><ele>292.0</ele><time>2026-04-11T08:36:32Z</time></trkpt><trkpt lat="43.33618837177475" lon="11.406684718176232"><ele>292.0</ele><time>2026-04-11T08:36:34Z</time></trkpt><trkpt lat="43.33608901729848" lon="11.406727576517774"><ele>292.0</ele><time>2026-04-11T08:36:36Z</time></trkpt><trkpt lat="43.33599750463195" lon="11.406785826581"><ele>291.2</ele><time>2026-04-11T08:36:38Z</time></trkpt><trkpt lat="43.33591755439762" lon="11.406872157739253"><ele>290.4</ele><time>2026-04-11T08:36:40Z</time></trkpt><trkpt lat="43.33583329358435" lon="11.406962720964687"><ele>289.6</ele><time>2026-04-11T08:36:42Z</time></trkpt><trkpt lat="43.33575471488667" lon="11.407061762916076"><ele>288.8</ele><time>2026-04-11T08:36:44Z</time></trkpt><trkpt lat="43.335678502658205" lon="11.407163171864713"><ele>288.0</ele><time>2026-04-11T08:36:46Z</time></trkpt><trkpt lat="43.335596241917166" lon="11.40724076647513"><ele>289.5</ele><time>2026-04-11T08:36:48Z</time></trkpt><trkpt lat="43.33551823257085" lon="11.407315520860402"><ele>291.0</ele><time>2026-04-11T08:36:50Z</time></trkpt><trkpt lat="43.33544017701218" lon="11.407369542430464"><ele>292.5</ele><time>2026-04-11T08:36:52Z</time></trkpt><trkpt lat="43.33535870572156" lon="11.407400729757022"><ele>294.0</ele><time>2026-04-11T08:36:54Z</time></trkpt><trkpt lat="43.33527162791577" lon="11.407409102503618"><ele>295.5</ele><time>2026-04-11T08:36:56Z</time></trkpt><trkpt lat="43.33518310878984" lon="11.40740543896"><ele>297.0</ele><time>2026-04-11T08:36:58Z</time></trkpt><trkpt lat="43.33508351931113" lon="11.407420039645958"><ele>297.0</ele><time>2026-04-11T08:37:00Z</time></trkpt><trkpt lat="43.33497667163982" lon="11.40745852075766"><ele>297.0</ele><time>2026-04-11T08:37:02Z</time></trkpt><trkpt lat="43.33485364795356" lon="11.407481735116656"><ele>297.0</ele><time>2026-04-11T08:37:04Z</time></trkpt><trkpt lat="43.33478395429196" lon="11.40749179762768"><ele>297.0</ele><time>2026-04-11T08:37:05Z</time></trkpt><trkpt lat="43.3347050369455" lon="11.40746193690099"><ele>297.0</ele><time>2026-04-11T08:37:06Z</time></trkpt><trkpt lat="43.334624020744755" lon="11.407462075326556"><ele>295.6</ele><time>2026-04-11T08:37:07Z</time></trkpt><trkpt lat="43.33455002532886" lon="11.407461480408012"><ele>294.2</ele><time>2026-04-11T08:37:08Z</time></trkpt><trkpt lat="43.33443072687195" lon="11.407456340542392"><ele>292.8</ele><time>2026-04-11T08:37:09.999Z</time></trkpt><trkpt lat="43.33433292395439" lon="11.40747197506902"><ele>291.4</ele><time>2026-04-11T08:37:11.999Z</time></trkpt><trkpt lat="43.33426082975136" lon="11.407334422018979"><ele>290.0</ele><time>2026-04-11T08:37:13.999Z</time></trkpt><trkpt lat="43.33424393481716" lon="11.407234296223123"><ele>289.83333333333337</ele><time>2026-04-11T08:37:14.999Z</time></trkpt><trkpt lat="43.33423720929175" lon="11.407127105062226"><ele>289.6666666666667</ele><time>2026-04-11T08:37:15.999Z</time></trkpt><trkpt lat="43.33422934371653" lon="11.407019240978377"><ele>289.5</ele><time>2026-04-11T08:37:16.999Z</time></trkpt><trkpt lat="43.33421797398072" lon="11.406907549701716"><ele>289.3333333333333</ele><time>2026-04-11T08:37:17.999Z</time></trkpt><trkpt lat="43.33420228987949" lon="11.406793362978558"><ele>289.16666666666663</ele><time>2026-04-11T08:37:18.999Z</time></trkpt><trkpt lat="43.33418612969515" lon="11.406681100483063"><ele>289.0</ele><time>2026-04-11T08:37:19.999Z</time></trkpt><trkpt lat="43.33417438082012" lon="11.40657085058907"><ele>289.0</ele><time>2026-04-11T08:37:20.999Z</time></trkpt><trkpt lat="43.33416268500195" lon="11.406458347715418"><ele>289.0</ele><time>2026-04-11T08:37:21.999Z</time></trkpt><trkpt lat="43.334147197522704" lon="11.406353432292413"><ele>289.0</ele><time>2026-04-11T08:37:22.999Z</time></trkpt><trkpt lat="43.334132374285794" lon="11.406248098639567"><ele>289.0</ele><time>2026-04-11T08:37:23.999Z</time></trkpt><trkpt lat="43.33412024052983" lon="11.406145092961786"><ele>289.0</ele><time>2026-04-11T08:37:24.999Z</time></trkpt><trkpt lat="43.334104211664375" lon="11.406044965167343"><ele>289.0</ele><time>2026-04-11T08:37:25.999Z</time></trkpt><trkpt lat="43.33409254040015" lon="11.405943897260025"><ele>288.5</ele><time>2026-04-11T08:37:26.999Z</time></trkpt><trkpt lat="43.33409190903803" lon="11.405839406608148"><ele>288.0</ele><time>2026-04-11T08:37:27.999Z</time></trkpt><trkpt lat="43.3341005986769" lon="11.405733909104086"><ele>287.5</ele><time>2026-04-11T08:37:28.999Z</time></trkpt><trkpt lat="43.33411551927295" lon="11.40562400915469"><ele>287.0</ele><time>2026-04-11T08:37:29.999Z</time></trkpt><trkpt lat="43.334126567161725" lon="11.405511501419362"><ele>286.5</ele><time>2026-04-11T08:37:30.999Z</time></trkpt><trkpt lat="43.334136361637036" lon="11.405390632645148"><ele>286.0</ele><time>2026-04-11T08:37:31.999Z</time></trkpt><trkpt lat="43.334147307790225" lon="11.405270205765435"><ele>285.3333333333333</ele><time>2026-04-11T08:37:32.999Z</time></trkpt><trkpt lat="43.334160545078745" lon="11.405148003223246"><ele>284.66666666666663</ele><time>2026-04-11T08:37:33.999Z</time></trkpt><trkpt lat="43.33417080146828" lon="11.405026580755129"><ele>284.0</ele><time>2026-04-11T08:37:34.999Z</time></trkpt><trkpt lat="43.33418081236029" lon="11.404906652530448"><ele>283.3333333333333</ele><time>2026-04-11T08:37:35.999Z</time></trkpt><trkpt lat="43.33419005112514" lon="11.404786558584014"><ele>282.6666666666667</ele><time>2026-04-11T08:37:36.999Z</time></trkpt><trkpt lat="43.33420069990354" lon="11.404671949008414"><ele>282.0</ele><time>2026-04-11T08:37:37.999Z</time></trkpt><trkpt lat="43.33421152691808" lon="11.404558922019397"><ele>282.0</ele><time>2026-04-11T08:37:38.999Z</time></trkpt><trkpt lat="43.334218580378554" lon="11.404455075092349"><ele>282.0</ele><time>2026-04-11T08:37:39.999Z</time></trkpt><trkpt lat="43.334227193228614" lon="11.404358955049402"><ele>282.0</ele><time>2026-04-11T08:37:40.999Z</time></trkpt><trkpt lat="43.33423458422391" lon="11.404265668004603"><ele>282.0</ele><time>2026-04-11T08:37:41.999Z</time></trkpt><trkpt lat="43.33421666472754" lon="11.404114138219166"><ele>282.0</ele><time>2026-04-11T08:37:43.999Z</time></trkpt><trkpt lat="43.334126832880784" lon="11.40403587442056"><ele>282.0</ele><time>2026-04-11T08:37:45.999Z</time></trkpt><trkpt lat="43.334015198702566" lon="11.40404652082475"><ele>282.0</ele><time>2026-04-11T08:37:47.999Z</time></trkpt><trkpt lat="43.33390411298809" lon="11.40412024974684"><ele>282.0</ele><time>2026-04-11T08:37:49.999Z</time></trkpt><trkpt lat="43.333843900628736" lon="11.404154525433604"><ele>282.0</ele><time>2026-04-11T08:37:50.999Z</time></trkpt><trkpt lat="43.33372484378728" lon="11.404215573392692"><ele>282.0</ele><time>2026-04-11T08:37:52.999Z</time></trkpt><trkpt lat="43.33366100869827" lon="11.4042419360622"><ele>282.0</ele><time>2026-04-11T08:37:53.999Z</time></trkpt><trkpt lat="43.333597086215406" lon="11.404270803339044"><ele>281.7142857142857</ele><time>2026-04-11T08:37:54.999Z</time></trkpt><trkpt lat="43.33353335655177" lon="11.40430501033292"><ele>281.42857142857144</ele><time>2026-04-11T08:37:55.999Z</time></trkpt><trkpt lat="43.333470556499215" lon="11.404339699253606"><ele>281.1428571428571</ele><time>2026-04-11T08:37:56.999Z</time></trkpt><trkpt lat="43.33340509986265" lon="11.404378000330773"><ele>280.8571428571429</ele><time>2026-04-11T08:37:57.999Z</time></trkpt><trkpt lat="43.33333926514593" lon="11.40440884654419"><ele>280.57142857142856</ele><time>2026-04-11T08:37:58.999Z</time></trkpt><trkpt lat="43.333270508954314" lon="11.404439694745433"><ele>280.2857142857143</ele><time>2026-04-11T08:37:59.998Z</time></trkpt><trkpt lat="43.33320184332054" lon="11.404471822443849"><ele>280.0</ele><time>2026-04-11T08:38:00.998Z</time></trkpt><trkpt lat="43.333133310361816" lon="11.404505669478583"><ele>280.0</ele><time>2026-04-11T08:38:01.998Z</time></trkpt><trkpt lat="43.33306359529142" lon="11.404542752597782"><ele>280.0</ele><time>2026-04-11T08:38:02.998Z</time></trkpt><trkpt lat="43.33299095708967" lon="11.404577696186916"><ele>280.0</ele><time>2026-04-11T08:38:03.998Z</time></trkpt><trkpt lat="43.332918842195916" lon="11.404615911894432"><ele>280.0</ele><time>2026-04-11T08:38:04.998Z</time></trkpt><trkpt lat="43.33284380985686" lon="11.404653248206545"><ele>280.0</ele><time>2026-04-11T08:38:05.998Z</time></trkpt><trkpt lat="43.33276655005477" lon="11.404691666489379"><ele>280.0</ele><time>2026-04-11T08:38:06.998Z</time></trkpt><trkpt lat="43.33268997796208" lon="11.4047339973662"><ele>279.66666666666663</ele><time>2026-04-11T08:38:07.998Z</time></trkpt><trkpt lat="43.33261236078451" lon="11.40478111180443"><ele>279.3333333333333</ele><time>2026-04-11T08:38:08.998Z</time></trkpt><trkpt lat="43.332533848933274" lon="11.404827373875642"><ele>279.0</ele><time>2026-04-11T08:38:09.998Z</time></trkpt><trkpt lat="43.33245823326017" lon="11.404877635520613"><ele>278.6666666666667</ele><time>2026-04-11T08:38:10.998Z</time></trkpt><trkpt lat="43.33237762932748" lon="11.404923795408607"><ele>278.33333333333337</ele><time>2026-04-11T08:38:11.998Z</time></trkpt><trkpt lat="43.33229984547677" lon="11.404966404675557"><ele>278.0</ele><time>2026-04-11T08:38:12.998Z</time></trkpt><trkpt lat="43.332222160364935" lon="11.405007651958949"><ele>278.0</ele><time>2026-04-11T08:38:13.998Z</time></trkpt><trkpt lat="43.33214497481015" lon="11.405043515389513"><ele>278.0</ele><time>2026-04-11T08:38:15Z</time></trkpt><trkpt lat="43.33206950337244" lon="11.405082387929154"><ele>278.0</ele><time>2026-04-11T08:38:16.001Z</time></trkpt><trkpt lat="43.33199427678182" lon="11.405128177632262"><ele>278.0</ele><time>2026-04-11T08:38:17Z</time></trkpt><trkpt lat="43.331919935622345" lon="11.405169800208137"><ele>278.0</ele><time>2026-04-11T08:38:18Z</time></trkpt><trkpt lat="43.33184395849308" lon="11.405200155953706"><ele>278.0</ele><time>2026-04-11T08:38:19.001Z</time></trkpt><trkpt lat="43.33176557476159" lon="11.405228807242034"><ele>278.0</ele><time>2026-04-11T08:38:20Z</time></trkpt><trkpt lat="43.33168836533755" lon="11.405247631583983"><ele>278.0</ele><time>2026-04-11T08:38:21Z</time></trkpt><trkpt lat="43.331613446417194" lon="11.405271136995443"><ele>278.0</ele><time>2026-04-11T08:38:22Z</time></trkpt><trkpt lat="43.3315376001245" lon="11.40528354308029"><ele>278.0</ele><time>2026-04-11T08:38:23Z</time></trkpt><trkpt lat="43.33146745881807" lon="11.405302495392643"><ele>278.0</ele><time>2026-04-11T08:38:24Z</time></trkpt><trkpt lat="43.33139290718527" lon="11.405321606625916"><ele>278.0</ele><time>2026-04-11T08:38:25Z</time></trkpt><trkpt lat="43.33132228710563" lon="11.405337740422642"><ele>277.0</ele><time>2026-04-11T08:38:26Z</time></trkpt><trkpt lat="43.33125214642141" lon="11.405360473056435"><ele>276.0</ele><time>2026-04-11T08:38:27Z</time></trkpt><trkpt lat="43.33117668805769" lon="11.405377707316502"><ele>275.0</ele><time>2026-04-11T08:38:28Z</time></trkpt><trkpt lat="43.331099402588514" lon="11.40539438188031"><ele>274.0</ele><time>2026-04-11T08:38:29Z</time></trkpt><trkpt lat="43.331022016679945" lon="11.405414686335961"><ele>273.0</ele><time>2026-04-11T08:38:30Z</time></trkpt><trkpt lat="43.33094251046259" lon="11.405437405776397"><ele>272.0</ele><time>2026-04-11T08:38:31Z</time></trkpt><trkpt lat="43.33086160264464" lon="11.40545816322066"><ele>272.0</ele><time>2026-04-11T08:38:32Z</time></trkpt><trkpt lat="43.33077986425298" lon="11.405482754609757"><ele>272.0</ele><time>2026-04-11T08:38:33Z</time></trkpt><trkpt lat="43.330704500464215" lon="11.405501325348412"><ele>272.0</ele><time>2026-04-11T08:38:34Z</time></trkpt><trkpt lat="43.33062539888322" lon="11.405537460492843"><ele>272.0</ele><time>2026-04-11T08:38:35Z</time></trkpt><trkpt lat="43.33054414357254" lon="11.405559113537361"><ele>272.0</ele><time>2026-04-11T08:38:36Z</time></trkpt><trkpt lat="43.33045717813077" lon="11.405589094382313"><ele>272.0</ele><time>2026-04-11T08:38:37Z</time></trkpt><trkpt lat="43.33036921204006" lon="11.405622365419319"><ele>270.4</ele><time>2026-04-11T08:38:38Z</time></trkpt><trkpt lat="43.33027956434247" lon="11.40566712040807"><ele>268.79999999999995</ele><time>2026-04-11T08:38:39Z</time></trkpt><trkpt lat="43.33018872706879" lon="11.405715469525996"><ele>267.2</ele><time>2026-04-11T08:38:40Z</time></trkpt><trkpt lat="43.33009662747645" lon="11.40576021240669"><ele>265.59999999999997</ele><time>2026-04-11T08:38:41Z</time></trkpt><trkpt lat="43.330000696083" lon="11.405809762339615"><ele>264.0</ele><time>2026-04-11T08:38:42Z</time></trkpt><trkpt lat="43.329907685407434" lon="11.405865489816136"><ele>264.0</ele><time>2026-04-11T08:38:43Z</time></trkpt><trkpt lat="43.32981805962118" lon="11.405928357431828"><ele>264.0</ele><time>2026-04-11T08:38:44Z</time></trkpt><trkpt lat="43.329734080803966" lon="11.405995956343176"><ele>264.0</ele><time>2026-04-11T08:38:45Z</time></trkpt><trkpt lat="43.32964596718574" lon="11.406063326068638"><ele>264.0</ele><time>2026-04-11T08:38:46Z</time></trkpt><trkpt lat="43.32956138899043" lon="11.406135822177953"><ele>264.0</ele><time>2026-04-11T08:38:47Z</time></trkpt><trkpt lat="43.32948267026721" lon="11.406217504810797"><ele>263.0</ele><time>2026-04-11T08:38:48Z</time></trkpt><trkpt lat="43.329407927953355" lon="11.406307179264067"><ele>262.0</ele><time>2026-04-11T08:38:49Z</time></trkpt><trkpt lat="43.32933529523807" lon="11.406400007385498"><ele>261.0</ele><time>2026-04-11T08:38:50Z</time></trkpt><trkpt lat="43.329260545262194" lon="11.406496182201503"><ele>260.0</ele><time>2026-04-11T08:38:51Z</time></trkpt><trkpt lat="43.329187592208015" lon="11.406592019609956"><ele>259.0</ele><time>2026-04-11T08:38:52Z</time></trkpt><trkpt lat="43.329111501423384" lon="11.406688144524047"><ele>258.8</ele><time>2026-04-11T08:38:53Z</time></trkpt><trkpt lat="43.329010544843456" lon="11.406752102351861"><ele>258.59999999999997</ele><time>2026-04-11T08:38:54Z</time></trkpt><trkpt lat="43.32893039929778" lon="11.40684750294499"><ele>258.4</ele><time>2026-04-11T08:38:55Z</time></trkpt><trkpt lat="43.32885285259575" lon="11.406940155333118"><ele>258.2</ele><time>2026-04-11T08:38:56Z</time></trkpt><trkpt lat="43.32877564193738" lon="11.407032406286644"><ele>258.0</ele><time>2026-04-11T08:38:57Z</time></trkpt><trkpt lat="43.328699867983126" lon="11.407122778022744"><ele>257.0</ele><time>2026-04-11T08:38:58Z</time></trkpt><trkpt lat="43.328624032663285" lon="11.407213151288936"><ele>256.0</ele><time>2026-04-11T08:38:59Z</time></trkpt><trkpt lat="43.328548699020615" lon="11.407302926977632"><ele>255.0</ele><time>2026-04-11T08:39:00Z</time></trkpt><trkpt lat="43.32847336978809" lon="11.407392696965239"><ele>254.0</ele><time>2026-04-11T08:39:01Z</time></trkpt><trkpt lat="43.328399438259304" lon="11.407480801683725"><ele>253.0</ele><time>2026-04-11T08:39:02Z</time></trkpt><trkpt lat="43.328324631336095" lon="11.407569949420656"><ele>252.99999999999997</ele><time>2026-04-11T08:39:03Z</time></trkpt><trkpt lat="43.328253139504284" lon="11.40765514669714"><ele>253.0</ele><time>2026-04-11T08:39:04Z</time></trkpt><trkpt lat="43.32818384052429" lon="11.40773796746181"><ele>253.0</ele><time>2026-04-11T08:39:05Z</time></trkpt><trkpt lat="43.32811655994071" lon="11.407818757133866"><ele>253.0</ele><time>2026-04-11T08:39:06Z</time></trkpt><trkpt lat="43.32805405167177" lon="11.407893815926258"><ele>252.99999999999997</ele><time>2026-04-11T08:39:07Z</time></trkpt><trkpt lat="43.32798917442462" lon="11.407971719582484"><ele>253.0</ele><time>2026-04-11T08:39:08Z</time></trkpt><trkpt lat="43.32792783765004" lon="11.408045371448267"><ele>252.99999999999997</ele><time>2026-04-11T08:39:09Z</time></trkpt><trkpt lat="43.32786876409315" lon="11.408115895803789"><ele>253.0</ele><time>2026-04-11T08:39:10Z</time></trkpt><trkpt lat="43.32780884395465" lon="11.408185276952716"><ele>253.0</ele><time>2026-04-11T08:39:11Z</time></trkpt><trkpt lat="43.32774965497871" lon="11.408253811598911"><ele>253.0</ele><time>2026-04-11T08:39:12Z</time></trkpt><trkpt lat="43.32769055598848" lon="11.408320910989273"><ele>252.99999999999997</ele><time>2026-04-11T08:39:13Z</time></trkpt><trkpt lat="43.32762935356281" lon="11.408389985675498"><ele>253.0</ele><time>2026-04-11T08:39:14Z</time></trkpt><trkpt lat="43.32757031678463" lon="11.408456616200427"><ele>252.99999999999997</ele><time>2026-04-11T08:39:15Z</time></trkpt><trkpt lat="43.3275110931713" lon="11.408523623806994"><ele>253.0</ele><time>2026-04-11T08:39:16Z</time></trkpt><trkpt lat="43.32745116512402" lon="11.408591808525776"><ele>253.0</ele><time>2026-04-11T08:39:17Z</time></trkpt><trkpt lat="43.327388971273805" lon="11.40866257102215"><ele>253.0</ele><time>2026-04-11T08:39:17.999Z</time></trkpt><trkpt lat="43.32732550391321" lon="11.40873478256765"><ele>252.99999999999997</ele><time>2026-04-11T08:39:18.999Z</time></trkpt><trkpt lat="43.327262305005185" lon="11.408806688630952"><ele>253.0</ele><time>2026-04-11T08:39:19.999Z</time></trkpt><trkpt lat="43.3271985653426" lon="11.408879211277709"><ele>251.83333333333331</ele><time>2026-04-11T08:39:20.999Z</time></trkpt><trkpt lat="43.32713724594537" lon="11.408951155476812"><ele>250.66666666666666</ele><time>2026-04-11T08:39:21.999Z</time></trkpt><trkpt lat="43.327076690203626" lon="11.409027629624875"><ele>249.5</ele><time>2026-04-11T08:39:22.999Z</time></trkpt><trkpt lat="43.32702160725479" lon="11.409107048586904"><ele>248.33333333333331</ele><time>2026-04-11T08:39:23.999Z</time></trkpt><trkpt lat="43.32697111302763" lon="11.409187954648637"><ele>247.16666666666666</ele><time>2026-04-11T08:39:24.999Z</time></trkpt><trkpt lat="43.32692308046574" lon="11.409272257066535"><ele>246.0</ele><time>2026-04-11T08:39:25.999Z</time></trkpt><trkpt lat="43.3268752278913" lon="11.409355861462485"><ele>246.0</ele><time>2026-04-11T08:39:26.999Z</time></trkpt><trkpt lat="43.32682666231238" lon="11.409441176584863"><ele>246.0</ele><time>2026-04-11T08:39:27.999Z</time></trkpt><trkpt lat="43.326774232590424" lon="11.409527895642812"><ele>246.0</ele><time>2026-04-11T08:39:28.999Z</time></trkpt><trkpt lat="43.3267143478619" lon="11.409607261000968"><ele>246.0</ele><time>2026-04-11T08:39:29.999Z</time></trkpt><trkpt lat="43.32664698833728" lon="11.409681429353986"><ele>246.0</ele><time>2026-04-11T08:39:30.999Z</time></trkpt><trkpt lat="43.32657896945732" lon="11.409750287122305"><ele>246.0</ele><time>2026-04-11T08:39:31.999Z</time></trkpt><trkpt lat="43.326509890128676" lon="11.40982184217863"><ele>245.5</ele><time>2026-04-11T08:39:32.999Z</time></trkpt><trkpt lat="43.32644260863572" lon="11.409893072885438"><ele>245.0</ele><time>2026-04-11T08:39:33.999Z</time></trkpt><trkpt lat="43.32638307382432" lon="11.409958993122245"><ele>244.5</ele><time>2026-04-11T08:39:34.999Z</time></trkpt><trkpt lat="43.32632697723648" lon="11.410021106426694"><ele>244.0</ele><time>2026-04-11T08:39:35.999Z</time></trkpt><trkpt lat="43.32627163839457" lon="11.410082463496861"><ele>243.5</ele><time>2026-04-11T08:39:36.999Z</time></trkpt><trkpt lat="43.32622232775101" lon="11.410139130814619"><ele>243.0</ele><time>2026-04-11T08:39:37.999Z</time></trkpt><trkpt lat="43.32613456839921" lon="11.410239983207406"><ele>243.0</ele><time>2026-04-11T08:39:39.999Z</time></trkpt><trkpt lat="43.32605526347323" lon="11.41034481423062"><ele>243.0</ele><time>2026-04-11T08:39:41.999Z</time></trkpt><trkpt lat="43.32594217613453" lon="11.410250646125393"><ele>243.0</ele><time>2026-04-11T08:39:43.999Z</time></trkpt><trkpt lat="43.325900308495726" lon="11.410156795978622"><ele>243.0</ele><time>2026-04-11T08:39:44.999Z</time></trkpt><trkpt lat="43.32586473775071" lon="11.410043979105309"><ele>243.0</ele><time>2026-04-11T08:39:45.999Z</time></trkpt><trkpt lat="43.325833876299775" lon="11.409916856305308"><ele>243.0</ele><time>2026-04-11T08:39:46.999Z</time></trkpt><trkpt lat="43.325819448696045" lon="11.409769638362906"><ele>243.0</ele><time>2026-04-11T08:39:47.999Z</time></trkpt><trkpt lat="43.32582751083037" lon="11.40960756130543"><ele>243.0</ele><time>2026-04-11T08:39:48.999Z</time></trkpt><trkpt lat="43.32584423376599" lon="11.409436838782485"><ele>243.0</ele><time>2026-04-11T08:39:49.999Z</time></trkpt><trkpt lat="43.32585017304735" lon="11.40925460743845"><ele>241.0</ele><time>2026-04-11T08:39:50.999Z</time></trkpt><trkpt lat="43.32584170562502" lon="11.409067306811012"><ele>239.0</ele><time>2026-04-11T08:39:51.999Z</time></trkpt><trkpt lat="43.32582301507293" lon="11.408869921102184"><ele>237.0</ele><time>2026-04-11T08:39:52.999Z</time></trkpt><trkpt lat="43.32580440607661" lon="11.408668901808126"><ele>235.0</ele><time>2026-04-11T08:39:53.999Z</time></trkpt><trkpt lat="43.325779596276625" lon="11.408460199654904"><ele>233.66666666666666</ele><time>2026-04-11T08:39:54.999Z</time></trkpt><trkpt lat="43.32575497862937" lon="11.408249384335187"><ele>232.33333333333331</ele><time>2026-04-11T08:39:55.999Z</time></trkpt><trkpt lat="43.32573106994244" lon="11.408036161972221"><ele>231.0</ele><time>2026-04-11T08:39:56.999Z</time></trkpt><trkpt lat="43.325711951833355" lon="11.407823766654158"><ele>230.0</ele><time>2026-04-11T08:39:57.999Z</time></trkpt><trkpt lat="43.32569414843829" lon="11.407613723747295"><ele>229.0</ele><time>2026-04-11T08:39:58.999Z</time></trkpt><trkpt lat="43.325673254629386" lon="11.407404412573955"><ele>228.0</ele><time>2026-04-11T08:39:59.999Z</time></trkpt><trkpt lat="43.32565464834053" lon="11.407214718584886"><ele>227.0</ele><time>2026-04-11T08:40:00.999Z</time></trkpt><trkpt lat="43.32562951435284" lon="11.40703102629207"><ele>226.0</ele><time>2026-04-11T08:40:01.999Z</time></trkpt><trkpt lat="43.325593908362215" lon="11.406852432671197"><ele>225.0</ele><time>2026-04-11T08:40:02.999Z</time></trkpt><trkpt lat="43.325545174786996" lon="11.40667177660295"><ele>224.0</ele><time>2026-04-11T08:40:03.999Z</time></trkpt><trkpt lat="43.32547402991052" lon="11.406509925530903"><ele>223.0</ele><time>2026-04-11T08:40:04.999Z</time></trkpt><trkpt lat="43.32538672573517" lon="11.406359703255637"><ele>221.5</ele><time>2026-04-11T08:40:05.999Z</time></trkpt><trkpt lat="43.32530724247201" lon="11.406208106933054"><ele>220.0</ele><time>2026-04-11T08:40:06.998Z</time></trkpt><trkpt lat="43.32523573582974" lon="11.406050001056323"><ele>218.5</ele><time>2026-04-11T08:40:07.998Z</time></trkpt><trkpt lat="43.32517961758979" lon="11.405880545462058"><ele>217.0</ele><time>2026-04-11T08:40:08.998Z</time></trkpt><trkpt lat="43.32512858989223" lon="11.405712695932309"><ele>217.0</ele><time>2026-04-11T08:40:09.998Z</time></trkpt><trkpt lat="43.32508797499113" lon="11.405546048182632"><ele>217.0</ele><time>2026-04-11T08:40:10.998Z</time></trkpt><trkpt lat="43.32505012955788" lon="11.405379508834558"><ele>217.0</ele><time>2026-04-11T08:40:11.998Z</time></trkpt><trkpt lat="43.325006672590916" lon="11.405217858796941"><ele>217.0</ele><time>2026-04-11T08:40:12.998Z</time></trkpt><trkpt lat="43.324980319031745" lon="11.40504654417286"><ele>216.5</ele><time>2026-04-11T08:40:13.998Z</time></trkpt><trkpt lat="43.32496877506633" lon="11.404868985668065"><ele>216.0</ele><time>2026-04-11T08:40:14.998Z</time></trkpt><trkpt lat="43.32496044300496" lon="11.40469558753557"><ele>215.5</ele><time>2026-04-11T08:40:15.998Z</time></trkpt><trkpt lat="43.324952850649396" lon="11.404521402883786"><ele>215.0</ele><time>2026-04-11T08:40:16.998Z</time></trkpt><trkpt lat="43.32495130841953" lon="11.404350739711983"><ele>214.75</ele><time>2026-04-11T08:40:17.998Z</time></trkpt><trkpt lat="43.32494329465118" lon="11.404190623777566"><ele>214.5</ele><time>2026-04-11T08:40:18.998Z</time></trkpt><trkpt lat="43.32494084574224" lon="11.404029262800321"><ele>214.25</ele><time>2026-04-11T08:40:19.998Z</time></trkpt><trkpt lat="43.32494821409872" lon="11.40387172643924"><ele>214.0</ele><time>2026-04-11T08:40:21.001Z</time></trkpt><trkpt lat="43.32495458457939" lon="11.403715446445705"><ele>213.6</ele><time>2026-04-11T08:40:22.001Z</time></trkpt><trkpt lat="43.324955890532365" lon="11.4035647736292"><ele>213.2</ele><time>2026-04-11T08:40:23.001Z</time></trkpt><trkpt lat="43.32496642162979" lon="11.403416574684531"><ele>212.79999999999998</ele><time>2026-04-11T08:40:24.001Z</time></trkpt><trkpt lat="43.32498318834112" lon="11.40327106995671"><ele>212.39999999999998</ele><time>2026-04-11T08:40:25.001Z</time></trkpt><trkpt lat="43.32499148870949" lon="11.40313154826884"><ele>212.0</ele><time>2026-04-11T08:40:26.001Z</time></trkpt><trkpt lat="43.32500028308753" lon="11.40299543849795"><ele>212.66666666666669</ele><time>2026-04-11T08:40:27.001Z</time></trkpt><trkpt lat="43.32501264075349" lon="11.402861860225192"><ele>213.33333333333334</ele><time>2026-04-11T08:40:28.001Z</time></trkpt><trkpt lat="43.32502833354309" lon="11.402737590883348"><ele>214.0</ele><time>2026-04-11T08:40:29.001Z</time></trkpt><trkpt lat="43.32504212906573" lon="11.402625917761391"><ele>214.66666666666669</ele><time>2026-04-11T08:40:30.001Z</time></trkpt><trkpt lat="43.325051125559675" lon="11.402524871350034"><ele>215.33333333333334</ele><time>2026-04-11T08:40:31.001Z</time></trkpt><trkpt lat="43.3250606391975" lon="11.402432384278777"><ele>216.0</ele><time>2026-04-11T08:40:32.001Z</time></trkpt><trkpt lat="43.32507606097448" lon="11.402285165814309"><ele>217.42857142857142</ele><time>2026-04-11T08:40:34.001Z</time></trkpt><trkpt lat="43.32508520063047" lon="11.402163027718233"><ele>218.85714285714283</ele><time>2026-04-11T08:40:36Z</time></trkpt><trkpt lat="43.32508624199562" lon="11.40207151064269"><ele>220.28571428571428</ele><time>2026-04-11T08:40:37.999Z</time></trkpt><trkpt lat="43.32508875754074" lon="11.401959251338365"><ele>221.71428571428572</ele><time>2026-04-11T08:40:41.999Z</time></trkpt><trkpt lat="43.32509188189277" lon="11.401870019575"><ele>223.14285714285714</ele><time>2026-04-11T08:40:44.999Z</time></trkpt><trkpt lat="43.325094337254825" lon="11.401782796421939"><ele>224.57142857142858</ele><time>2026-04-11T08:40:47.999Z</time></trkpt><trkpt lat="43.32509500615606" lon="11.401681573881802"><ele>226.0</ele><time>2026-04-11T08:40:51.999Z</time></trkpt><trkpt lat="43.32509263346486" lon="11.401587349407793"><ele>226.0</ele><time>2026-04-11T08:40:55.999Z</time></trkpt><trkpt lat="43.32508728047392" lon="11.401490205317954"><ele>226.0</ele><time>2026-04-11T08:40:59.999Z</time></trkpt><trkpt lat="43.32507954598302" lon="11.401382356389373"><ele>226.0</ele><time>2026-04-11T08:41:04.999Z</time></trkpt><trkpt lat="43.325080074390726" lon="11.40128987147253"><ele>226.0</ele><time>2026-04-11T08:41:08.999Z</time></trkpt><trkpt lat="43.32507511524167" lon="11.401200647030118"><ele>226.0</ele><time>2026-04-11T08:41:12.999Z</time></trkpt><trkpt lat="43.32506650019133" lon="11.401110836132734"><ele>226.0</ele><time>2026-04-11T08:41:16.999Z</time></trkpt><trkpt lat="43.32507056345995" lon="11.401019976854842"><ele>226.0</ele><time>2026-04-11T08:41:20.999Z</time></trkpt><trkpt lat="43.325068520010404" lon="11.400927962938203"><ele>226.71428571428572</ele><time>2026-04-11T08:41:24.998Z</time></trkpt><trkpt lat="43.325069596851094" lon="11.400835547975447"><ele>227.42857142857142</ele><time>2026-04-11T08:41:28.998Z</time></trkpt><trkpt lat="43.32506398859816" lon="11.400740370742227"><ele>228.14285714285714</ele><time>2026-04-11T08:41:32.998Z</time></trkpt><trkpt lat="43.32505439034718" lon="11.400640124038128"><ele>228.85714285714286</ele><time>2026-04-11T08:41:36.998Z</time></trkpt><trkpt lat="43.32509872119942" lon="11.400570467321463"><ele>229.57142857142856</ele><time>2026-04-11T08:42:28Z</time></trkpt><trkpt lat="43.325101332641566" lon="11.400467035541741"><ele>230.28571428571428</ele><time>2026-04-11T08:42:33Z</time></trkpt><trkpt lat="43.32511590440424" lon="11.400365259298887"><ele>231.0</ele><time>2026-04-11T08:42:37Z</time></trkpt><trkpt lat="43.32512947126029" lon="11.400259550974813"><ele>231.83333333333334</ele><time>2026-04-11T08:42:41Z</time></trkpt><trkpt lat="43.32513678821853" lon="11.400153889840572"><ele>232.66666666666669</ele><time>2026-04-11T08:42:44.999Z</time></trkpt><trkpt lat="43.32514901622636" lon="11.40003967401267"><ele>233.5</ele><time>2026-04-11T08:42:48.999Z</time></trkpt><trkpt lat="43.32514905092396" lon="11.399948717762129"><ele>234.33333333333334</ele><time>2026-04-11T08:42:51.999Z</time></trkpt><trkpt lat="43.325141422588636" lon="11.39985756236995"><ele>235.16666666666669</ele><time>2026-04-11T08:42:55.999Z</time></trkpt><trkpt lat="43.32513845191633" lon="11.39974566910091"><ele>236.0</ele><time>2026-04-11T08:42:59.999Z</time></trkpt><trkpt lat="43.32512896809888" lon="11.3996234748631"><ele>236.83333333333334</ele><time>2026-04-11T08:43:02.999Z</time></trkpt><trkpt lat="43.32512743144589" lon="11.399531628748052"><ele>237.66666666666669</ele><time>2026-04-11T08:43:04.999Z</time></trkpt><trkpt lat="43.32512506433209" lon="11.399404117013562"><ele>238.5</ele><time>2026-04-11T08:43:07.999Z</time></trkpt><trkpt lat="43.325113125834136" lon="11.3993062977486"><ele>239.33333333333331</ele><time>2026-04-11T08:43:09.999Z</time></trkpt><trkpt lat="43.32510213209599" lon="11.399196731614856"><ele>240.16666666666666</ele><time>2026-04-11T08:43:11.999Z</time></trkpt><trkpt lat="43.32509960821401" lon="11.399084778053357"><ele>241.0</ele><time>2026-04-11T08:43:13.999Z</time></trkpt><trkpt lat="43.325094657477806" lon="11.398988695666063"><ele>241.0</ele><time>2026-04-11T08:43:15.999Z</time></trkpt><trkpt lat="43.325085224188506" lon="11.398888805063608"><ele>241.00000000000003</ele><time>2026-04-11T08:43:17.999Z</time></trkpt><trkpt lat="43.32507775894288" lon="11.398787981076119"><ele>241.0</ele><time>2026-04-11T08:43:19.999Z</time></trkpt><trkpt lat="43.32507381594365" lon="11.398687730863557"><ele>241.0</ele><time>2026-04-11T08:43:21.999Z</time></trkpt><trkpt lat="43.32507226769672" lon="11.398587881165062"><ele>241.00000000000003</ele><time>2026-04-11T08:43:23.999Z</time></trkpt><trkpt lat="43.32506511207671" lon="11.398495268294683"><ele>241.0</ele><time>2026-04-11T08:43:25.999Z</time></trkpt><trkpt lat="43.32506474453727" lon="11.398397949305515"><ele>241.0</ele><time>2026-04-11T08:43:27.999Z</time></trkpt><trkpt lat="43.325063007682516" lon="11.398299250871554"><ele>241.85714285714286</ele><time>2026-04-11T08:43:29.998Z</time></trkpt><trkpt lat="43.32505457839435" lon="11.398200842200664"><ele>242.71428571428572</ele><time>2026-04-11T08:43:31.998Z</time></trkpt><trkpt lat="43.32505108280219" lon="11.398102393157851"><ele>243.57142857142858</ele><time>2026-04-11T08:43:33.998Z</time></trkpt><trkpt lat="43.3250522870031" lon="11.398006264348965"><ele>244.42857142857144</ele><time>2026-04-11T08:43:35.998Z</time></trkpt><trkpt lat="43.32505796520674" lon="11.397908417216113"><ele>245.28571428571428</ele><time>2026-04-11T08:43:37.998Z</time></trkpt><trkpt lat="43.32507531703731" lon="11.39780323156989"><ele>246.14285714285717</ele><time>2026-04-11T08:43:39.998Z</time></trkpt><trkpt lat="43.325104845884134" lon="11.397702435771501"><ele>247.0</ele><time>2026-04-11T08:43:41.998Z</time></trkpt><trkpt lat="43.32514370718524" lon="11.397601825670863"><ele>246.99999999999997</ele><time>2026-04-11T08:43:43.998Z</time></trkpt><trkpt lat="43.32517923464382" lon="11.397501963478181"><ele>247.0</ele><time>2026-04-11T08:43:45.998Z</time></trkpt><trkpt lat="43.32521918687152" lon="11.397404245692165"><ele>247.0</ele><time>2026-04-11T08:43:47.998Z</time></trkpt><trkpt lat="43.325255793960096" lon="11.397303155890777"><ele>247.0</ele><time>2026-04-11T08:43:49.998Z</time></trkpt><trkpt lat="43.32529114887807" lon="11.39719971591587"><ele>246.99999999999997</ele><time>2026-04-11T08:43:51.998Z</time></trkpt><trkpt lat="43.32532228771659" lon="11.397094085706682"><ele>247.0</ele><time>2026-04-11T08:43:53.998Z</time></trkpt><trkpt lat="43.32535414039536" lon="11.396987559464225"><ele>246.99999999999997</ele><time>2026-04-11T08:43:55.998Z</time></trkpt><trkpt lat="43.32538952418254" lon="11.396880203229085"><ele>247.0</ele><time>2026-04-11T08:43:57.998Z</time></trkpt><trkpt lat="43.325420482031134" lon="11.396769244968311"><ele>247.0</ele><time>2026-04-11T08:43:59.998Z</time></trkpt><trkpt lat="43.325452506621914" lon="11.396658504525236"><ele>247.0</ele><time>2026-04-11T08:44:01.998Z</time></trkpt><trkpt lat="43.32548652204143" lon="11.3965406913538"><ele>246.99999999999997</ele><time>2026-04-11T08:44:03.998Z</time></trkpt><trkpt lat="43.325524624747864" lon="11.396423575919039"><ele>247.0</ele><time>2026-04-11T08:44:05.998Z</time></trkpt><trkpt lat="43.32555809130907" lon="11.396304559277752"><ele>247.6</ele><time>2026-04-11T08:44:07.998Z</time></trkpt><trkpt lat="43.325593748064875" lon="11.396186150072975"><ele>248.2</ele><time>2026-04-11T08:44:09.998Z</time></trkpt><trkpt lat="43.325627406140725" lon="11.396063180864468"><ele>248.8</ele><time>2026-04-11T08:44:11.998Z</time></trkpt><trkpt lat="43.32566140837441" lon="11.395937949590927"><ele>249.4</ele><time>2026-04-11T08:44:13.998Z</time></trkpt><trkpt lat="43.32567493397424" lon="11.395812329936843"><ele>250.0</ele><time>2026-04-11T08:44:15.998Z</time></trkpt><trkpt lat="43.3256802919793" lon="11.395687976860984"><ele>250.0</ele><time>2026-04-11T08:44:17.997Z</time></trkpt><trkpt lat="43.325680776714655" lon="11.395557308530377"><ele>250.0</ele><time>2026-04-11T08:44:19.997Z</time></trkpt><trkpt lat="43.325681493406755" lon="11.395430489214853"><ele>250.0</ele><time>2026-04-11T08:44:21.997Z</time></trkpt><trkpt lat="43.325677426729996" lon="11.395300303854114"><ele>250.0</ele><time>2026-04-11T08:44:23.997Z</time></trkpt><trkpt lat="43.32567958045959" lon="11.395171900079593"><ele>250.0</ele><time>2026-04-11T08:44:25.997Z</time></trkpt><trkpt lat="43.325679001232736" lon="11.395049776890634"><ele>250.4</ele><time>2026-04-11T08:44:27.997Z</time></trkpt><trkpt lat="43.325679272592886" lon="11.394926985147158"><ele>250.8</ele><time>2026-04-11T08:44:29.997Z</time></trkpt><trkpt lat="43.32567610988902" lon="11.394802945436576"><ele>251.2</ele><time>2026-04-11T08:44:31.997Z</time></trkpt><trkpt lat="43.32566993707463" lon="11.394678605351642"><ele>251.6</ele><time>2026-04-11T08:44:34Z</time></trkpt><trkpt lat="43.32565202625965" lon="11.394548818321613"><ele>252.0</ele><time>2026-04-11T08:44:36Z</time></trkpt><trkpt lat="43.32562734892549" lon="11.394423753055602"><ele>252.6</ele><time>2026-04-11T08:44:38Z</time></trkpt><trkpt lat="43.32559543477383" lon="11.394298540882032"><ele>253.2</ele><time>2026-04-11T08:44:40Z</time></trkpt><trkpt lat="43.32556231903957" lon="11.394181302515541"><ele>253.8</ele><time>2026-04-11T08:44:42Z</time></trkpt><trkpt lat="43.325520539598344" lon="11.394061338562926"><ele>254.4</ele><time>2026-04-11T08:44:44Z</time></trkpt><trkpt lat="43.325483949527076" lon="11.393941351062344"><ele>255.0</ele><time>2026-04-11T08:44:46Z</time></trkpt><trkpt lat="43.325449509635206" lon="11.393817402516596"><ele>256.0</ele><time>2026-04-11T08:44:48Z</time></trkpt><trkpt lat="43.32541837273118" lon="11.393695672392928"><ele>257.0</ele><time>2026-04-11T08:44:49.999Z</time></trkpt><trkpt lat="43.32538152915323" lon="11.393575378382701"><ele>258.0</ele><time>2026-04-11T08:44:51.999Z</time></trkpt><trkpt lat="43.325341756399084" lon="11.393460621042472"><ele>259.0</ele><time>2026-04-11T08:44:53.999Z</time></trkpt><trkpt lat="43.32530931739075" lon="11.393343587171474"><ele>260.0</ele><time>2026-04-11T08:44:55.999Z</time></trkpt><trkpt lat="43.325277865808026" lon="11.393231908729778"><ele>260.0</ele><time>2026-04-11T08:44:57.999Z</time></trkpt><trkpt lat="43.325245481838564" lon="11.393123909842412"><ele>260.0</ele><time>2026-04-11T08:44:59.999Z</time></trkpt><trkpt lat="43.32520919284259" lon="11.393019222338252"><ele>260.0</ele><time>2026-04-11T08:45:01.999Z</time></trkpt><trkpt lat="43.32517111891472" lon="11.3929096990802"><ele>260.0</ele><time>2026-04-11T08:45:03.999Z</time></trkpt><trkpt lat="43.32513552691196" lon="11.392804271054585"><ele>260.0</ele><time>2026-04-11T08:45:05.999Z</time></trkpt><trkpt lat="43.325100449818386" lon="11.392700671234074"><ele>260.0</ele><time>2026-04-11T08:45:07.999Z</time></trkpt><trkpt lat="43.32505064284763" lon="11.392615798810814"><ele>260.6666666666667</ele><time>2026-04-11T08:45:09.999Z</time></trkpt><trkpt lat="43.3249831228239" lon="11.392559831076282"><ele>261.33333333333337</ele><time>2026-04-11T08:45:11.999Z</time></trkpt><trkpt lat="43.3249062933411" lon="11.392545091245953"><ele>262.0</ele><time>2026-04-11T08:45:13.999Z</time></trkpt><trkpt lat="43.32482816710915" lon="11.392556024501204"><ele>262.6666666666667</ele><time>2026-04-11T08:45:15.999Z</time></trkpt><trkpt lat="43.32474992186679" lon="11.392569681707114"><ele>263.3333333333333</ele><time>2026-04-11T08:45:17.999Z</time></trkpt><trkpt lat="43.32467276108141" lon="11.392583957189093"><ele>264.0</ele><time>2026-04-11T08:45:19.999Z</time></trkpt><trkpt lat="43.32459742265311" lon="11.392591718138378"><ele>264.1666666666667</ele><time>2026-04-11T08:45:21.999Z</time></trkpt><trkpt lat="43.32452184475209" lon="11.392585849833562"><ele>264.3333333333333</ele><time>2026-04-11T08:45:23.999Z</time></trkpt><trkpt lat="43.324441911870714" lon="11.392562105949951"><ele>264.5</ele><time>2026-04-11T08:45:25.999Z</time></trkpt><trkpt lat="43.32435639926445" lon="11.39252343641484"><ele>264.66666666666663</ele><time>2026-04-11T08:45:27.999Z</time></trkpt><trkpt lat="43.32427227474084" lon="11.392489137514769"><ele>264.8333333333333</ele><time>2026-04-11T08:45:29.999Z</time></trkpt><trkpt lat="43.324185414122894" lon="11.392435301042873"><ele>265.0</ele><time>2026-04-11T08:45:31.999Z</time></trkpt><trkpt lat="43.3240867500355" lon="11.392395581109708"><ele>265.0</ele><time>2026-04-11T08:45:33.999Z</time></trkpt><trkpt lat="43.32397258850492" lon="11.392372180002205"><ele>265.0</ele><time>2026-04-11T08:45:35.999Z</time></trkpt><trkpt lat="43.323853122204284" lon="11.392342307934637"><ele>265.0</ele><time>2026-04-11T08:45:37.998Z</time></trkpt><trkpt lat="43.3237917979742" lon="11.392319144563151"><ele>265.0</ele><time>2026-04-11T08:45:38.998Z</time></trkpt><trkpt lat="43.32373239927481" lon="11.392261142347378"><ele>265.0</ele><time>2026-04-11T08:45:39.998Z</time></trkpt><trkpt lat="43.323667781350885" lon="11.392244743355386"><ele>265.0</ele><time>2026-04-11T08:45:40.998Z</time></trkpt><trkpt lat="43.32360153705236" lon="11.39222450832393"><ele>264.85714285714283</ele><time>2026-04-11T08:45:41.998Z</time></trkpt><trkpt lat="43.32352996619994" lon="11.392203618132765"><ele>264.7142857142857</ele><time>2026-04-11T08:45:42.998Z</time></trkpt><trkpt lat="43.3234632069221" lon="11.392186807920266"><ele>264.57142857142856</ele><time>2026-04-11T08:45:43.998Z</time></trkpt><trkpt lat="43.32339236560205" lon="11.392171305124492"><ele>264.42857142857144</ele><time>2026-04-11T08:45:44.998Z</time></trkpt><trkpt lat="43.32332206111546" lon="11.392155919936908"><ele>264.2857142857143</ele><time>2026-04-11T08:45:45.998Z</time></trkpt><trkpt lat="43.323255783994064" lon="11.39214141607469"><ele>264.1428571428571</ele><time>2026-04-11T08:45:46.998Z</time></trkpt><trkpt lat="43.32318569031603" lon="11.392126077008523"><ele>264.0</ele><time>2026-04-11T08:45:47.998Z</time></trkpt><trkpt lat="43.323114621106384" lon="11.392110207221751"><ele>262.8333333333333</ele><time>2026-04-11T08:45:48.998Z</time></trkpt><trkpt lat="43.323044442853025" lon="11.392093494624365"><ele>261.6666666666667</ele><time>2026-04-11T08:45:49.998Z</time></trkpt><trkpt lat="43.32296679661292" lon="11.392110107594869"><ele>260.5</ele><time>2026-04-11T08:45:50.998Z</time></trkpt><trkpt lat="43.322896723423696" lon="11.392092613752977"><ele>259.33333333333337</ele><time>2026-04-11T08:45:51.998Z</time></trkpt><trkpt lat="43.32282122067173" lon="11.392074768028554"><ele>258.1666666666667</ele><time>2026-04-11T08:45:52.998Z</time></trkpt><trkpt lat="43.32274296611605" lon="11.392056362681842"><ele>257.0</ele><time>2026-04-11T08:45:53.998Z</time></trkpt><trkpt lat="43.32266244083046" lon="11.392035605118087"><ele>257.0</ele><time>2026-04-11T08:45:54.998Z</time></trkpt><trkpt lat="43.32258018489581" lon="11.392012900339774"><ele>257.0</ele><time>2026-04-11T08:45:55.998Z</time></trkpt><trkpt lat="43.32249295962813" lon="11.391990027237407"><ele>257.0</ele><time>2026-04-11T08:45:56.998Z</time></trkpt><trkpt lat="43.32240307004155" lon="11.391962330982066"><ele>257.0</ele><time>2026-04-11T08:45:57.998Z</time></trkpt><trkpt lat="43.322311282413494" lon="11.391934787813932"><ele>257.0</ele><time>2026-04-11T08:45:58.998Z</time></trkpt><trkpt lat="43.32222135530018" lon="11.39191030050603"><ele>256.2</ele><time>2026-04-11T08:45:59.998Z</time></trkpt><trkpt lat="43.322126108096064" lon="11.391883838135112"><ele>255.39999999999998</ele><time>2026-04-11T08:46:00.998Z</time></trkpt><trkpt lat="43.32203003705983" lon="11.391852325672039"><ele>254.60000000000002</ele><time>2026-04-11T08:46:01.998Z</time></trkpt><trkpt lat="43.3219315064841" lon="11.39182080090409"><ele>253.8</ele><time>2026-04-11T08:46:02.998Z</time></trkpt><trkpt lat="43.32183053550248" lon="11.391789350621524"><ele>253.0</ele><time>2026-04-11T08:46:03.998Z</time></trkpt><trkpt lat="43.32172821185541" lon="11.39175362490971"><ele>253.0</ele><time>2026-04-11T08:46:04.998Z</time></trkpt><trkpt lat="43.32162810261887" lon="11.391714149374597"><ele>253.0</ele><time>2026-04-11T08:46:05.998Z</time></trkpt><trkpt lat="43.32152872129968" lon="11.391671051143435"><ele>253.0</ele><time>2026-04-11T08:46:06.998Z</time></trkpt><trkpt lat="43.32143334015957" lon="11.391618652383364"><ele>253.0</ele><time>2026-04-11T08:46:07.998Z</time></trkpt><trkpt lat="43.32134098508673" lon="11.391555556588598"><ele>253.0</ele><time>2026-04-11T08:46:08.998Z</time></trkpt><trkpt lat="43.321250191950135" lon="11.391492125255114"><ele>252.2</ele><time>2026-04-11T08:46:09.998Z</time></trkpt><trkpt lat="43.32116143337698" lon="11.39142938702845"><ele>251.4</ele><time>2026-04-11T08:46:10.998Z</time></trkpt><trkpt lat="43.321076886376225" lon="11.39136571140372"><ele>250.59999999999997</ele><time>2026-04-11T08:46:11.998Z</time></trkpt><trkpt lat="43.32099263328785" lon="11.391305039376041"><ele>249.79999999999998</ele><time>2026-04-11T08:46:12.998Z</time></trkpt><trkpt lat="43.32090888940766" lon="11.391245049108708"><ele>249.0</ele><time>2026-04-11T08:46:13.998Z</time></trkpt><trkpt lat="43.32082424192661" lon="11.391188739965322"><ele>249.0</ele><time>2026-04-11T08:46:14.998Z</time></trkpt><trkpt lat="43.320742201659456" lon="11.391134741103965"><ele>249.0</ele><time>2026-04-11T08:46:15.998Z</time></trkpt><trkpt lat="43.32065901039621" lon="11.391083483651306"><ele>249.0</ele><time>2026-04-11T08:46:16.998Z</time></trkpt><trkpt lat="43.320578729159784" lon="11.391036400987232"><ele>249.0</ele><time>2026-04-11T08:46:17.998Z</time></trkpt><trkpt lat="43.320499385313525" lon="11.390999942112243"><ele>249.0</ele><time>2026-04-11T08:46:18.998Z</time></trkpt><trkpt lat="43.32041869701717" lon="11.390978178038857"><ele>249.0</ele><time>2026-04-11T08:46:19.998Z</time></trkpt><trkpt lat="43.32034018364142" lon="11.39096375822271"><ele>249.0</ele><time>2026-04-11T08:46:20.998Z</time></trkpt><trkpt lat="43.320265496122566" lon="11.390950445650905"><ele>249.0</ele><time>2026-04-11T08:46:21.998Z</time></trkpt><trkpt lat="43.32019661404319" lon="11.390925042911649"><ele>249.0</ele><time>2026-04-11T08:46:22.998Z</time></trkpt><trkpt lat="43.32013289856131" lon="11.390872651432597"><ele>249.0</ele><time>2026-04-11T08:46:23.998Z</time></trkpt><trkpt lat="43.32008791407295" lon="11.390777799307763"><ele>249.0</ele><time>2026-04-11T08:46:24.998Z</time></trkpt><trkpt lat="43.32006825202794" lon="11.390657106365254"><ele>249.0</ele><time>2026-04-11T08:46:25.998Z</time></trkpt><trkpt lat="43.32006186086592" lon="11.39053453020915"><ele>248.6</ele><time>2026-04-11T08:46:26.997Z</time></trkpt><trkpt lat="43.32004953138166" lon="11.390413645346456"><ele>248.2</ele><time>2026-04-11T08:46:27.997Z</time></trkpt><trkpt lat="43.32002919482671" lon="11.390294528566402"><ele>247.79999999999998</ele><time>2026-04-11T08:46:28.997Z</time></trkpt><trkpt lat="43.32000890259644" lon="11.39017324389435"><ele>247.39999999999998</ele><time>2026-04-11T08:46:29.997Z</time></trkpt><trkpt lat="43.31998918536779" lon="11.39004866623154"><ele>247.0</ele><time>2026-04-11T08:46:30.997Z</time></trkpt><trkpt lat="43.31996310182455" lon="11.389925334388629"><ele>247.0</ele><time>2026-04-11T08:46:31.997Z</time></trkpt><trkpt lat="43.31993187674612" lon="11.389799586164841"><ele>247.0</ele><time>2026-04-11T08:46:32.997Z</time></trkpt><trkpt lat="43.319897402737965" lon="11.389672109987046"><ele>247.0</ele><time>2026-04-11T08:46:33.997Z</time></trkpt><trkpt lat="43.3198612006209" lon="11.389542866373365"><ele>247.0</ele><time>2026-04-11T08:46:34.997Z</time></trkpt><trkpt lat="43.31981931492114" lon="11.389412613707565"><ele>247.0</ele><time>2026-04-11T08:46:35.997Z</time></trkpt><trkpt lat="43.31977745929861" lon="11.389280361156175"><ele>246.0</ele><time>2026-04-11T08:46:36.997Z</time></trkpt><trkpt lat="43.319744118085765" lon="11.389138385072481"><ele>245.0</ele><time>2026-04-11T08:46:37.997Z</time></trkpt><trkpt lat="43.31971103421719" lon="11.388990672431056"><ele>244.0</ele><time>2026-04-11T08:46:39Z</time></trkpt><trkpt lat="43.31967819326211" lon="11.388838908213602"><ele>243.0</ele><time>2026-04-11T08:46:40Z</time></trkpt><trkpt lat="43.319641168464095" lon="11.388685941994853"><ele>239.5</ele><time>2026-04-11T08:46:41Z</time></trkpt><trkpt lat="43.31961133244563" lon="11.388528114105236"><ele>236.0</ele><time>2026-04-11T08:46:42Z</time></trkpt><trkpt lat="43.31958740816914" lon="11.388367067341427"><ele>232.5</ele><time>2026-04-11T08:46:43Z</time></trkpt><trkpt lat="43.31955428358301" lon="11.388202782840844"><ele>229.0</ele><time>2026-04-11T08:46:44Z</time></trkpt><trkpt lat="43.319525178122255" lon="11.388041508523242"><ele>229.0</ele><time>2026-04-11T08:46:45Z</time></trkpt><trkpt lat="43.31950110009262" lon="11.38789118399983"><ele>228.99999999999997</ele><time>2026-04-11T08:46:46Z</time></trkpt><trkpt lat="43.31947923634805" lon="11.387761307476929"><ele>228.99999999999997</ele><time>2026-04-11T08:46:47Z</time></trkpt><trkpt lat="43.319451272573986" lon="11.387636330848746"><ele>229.0</ele><time>2026-04-11T08:46:48Z</time></trkpt><trkpt lat="43.31939771219412" lon="11.387524608113623"><ele>229.0</ele><time>2026-04-11T08:46:49Z</time></trkpt><trkpt lat="43.31931804475952" lon="11.387438681256745"><ele>229.0</ele><time>2026-04-11T08:46:50Z</time></trkpt><trkpt lat="43.319227417414844" lon="11.387393866980867"><ele>228.99999999999997</ele><time>2026-04-11T08:46:51Z</time></trkpt><trkpt lat="43.31913708651297" lon="11.38736790604537"><ele>228.99999999999997</ele><time>2026-04-11T08:46:52Z</time></trkpt><trkpt lat="43.31906302630739" lon="11.387303942660306"><ele>229.0</ele><time>2026-04-11T08:46:53Z</time></trkpt><trkpt lat="43.319017114747396" lon="11.387184572060022"><ele>229.0</ele><time>2026-04-11T08:46:54Z</time></trkpt><trkpt lat="43.31901220517407" lon="11.387038169019572"><ele>228.6</ele><time>2026-04-11T08:46:55Z</time></trkpt><trkpt lat="43.319042390076454" lon="11.386891322476863"><ele>228.2</ele><time>2026-04-11T08:46:56Z</time></trkpt><trkpt lat="43.31908276543192" lon="11.386756621162474"><ele>227.79999999999998</ele><time>2026-04-11T08:46:56.999Z</time></trkpt><trkpt lat="43.31913170325337" lon="11.386632870630411"><ele>227.39999999999998</ele><time>2026-04-11T08:46:57.999Z</time></trkpt><trkpt lat="43.31920673748473" lon="11.386536697328419"><ele>227.0</ele><time>2026-04-11T08:46:58.999Z</time></trkpt><trkpt lat="43.319296061046536" lon="11.38646191575767"><ele>227.0</ele><time>2026-04-11T08:46:59.999Z</time></trkpt><trkpt lat="43.319395095280264" lon="11.386404715501117"><ele>227.0</ele><time>2026-04-11T08:47:00.999Z</time></trkpt><trkpt lat="43.319498957852296" lon="11.386353914055922"><ele>227.0</ele><time>2026-04-11T08:47:01.999Z</time></trkpt><trkpt lat="43.31960016776735" lon="11.386297112131198"><ele>227.0</ele><time>2026-04-11T08:47:02.999Z</time></trkpt><trkpt lat="43.31970508946098" lon="11.386238479784733"><ele>227.0</ele><time>2026-04-11T08:47:03.999Z</time></trkpt><trkpt lat="43.31980863992903" lon="11.386179684090422"><ele>226.0</ele><time>2026-04-11T08:47:04.999Z</time></trkpt><trkpt lat="43.31990303996588" lon="11.386124346804937"><ele>225.0</ele><time>2026-04-11T08:47:05.999Z</time></trkpt><trkpt lat="43.319983942733785" lon="11.386058952929666"><ele>224.0</ele><time>2026-04-11T08:47:06.999Z</time></trkpt><trkpt lat="43.320057111479684" lon="11.385959796909622"><ele>223.0</ele><time>2026-04-11T08:47:07.999Z</time></trkpt><trkpt lat="43.32011022050657" lon="11.385834799741804"><ele>222.0</ele><time>2026-04-11T08:47:08.999Z</time></trkpt><trkpt lat="43.320135612970326" lon="11.385691297738987"><ele>222.0</ele><time>2026-04-11T08:47:09.999Z</time></trkpt><trkpt lat="43.320131505882536" lon="11.38553509893176"><ele>222.0</ele><time>2026-04-11T08:47:10.999Z</time></trkpt><trkpt lat="43.32011821467987" lon="11.385376019102363"><ele>222.0</ele><time>2026-04-11T08:47:11.999Z</time></trkpt><trkpt lat="43.32011516303547" lon="11.38521656469024"><ele>222.0</ele><time>2026-04-11T08:47:12.999Z</time></trkpt><trkpt lat="43.320133602876645" lon="11.38506115072253"><ele>220.75</ele><time>2026-04-11T08:47:13.999Z</time></trkpt><trkpt lat="43.320189941670186" lon="11.384915242793108"><ele>219.5</ele><time>2026-04-11T08:47:14.999Z</time></trkpt><trkpt lat="43.320264197012456" lon="11.38477889019927"><ele>218.25</ele><time>2026-04-11T08:47:15.999Z</time></trkpt><trkpt lat="43.320345762167136" lon="11.38465077054114"><ele>217.0</ele><time>2026-04-11T08:47:16.999Z</time></trkpt><trkpt lat="43.320438992322515" lon="11.384545066924332"><ele>216.2</ele><time>2026-04-11T08:47:17.999Z</time></trkpt><trkpt lat="43.32052941180614" lon="11.384446209023706"><ele>215.39999999999998</ele><time>2026-04-11T08:47:18.999Z</time></trkpt><trkpt lat="43.320609960511945" lon="11.384364716640846"><ele>214.60000000000002</ele><time>2026-04-11T08:47:19.999Z</time></trkpt><trkpt lat="43.320680139441045" lon="11.384276558026917"><ele>213.8</ele><time>2026-04-11T08:47:20.999Z</time></trkpt><trkpt lat="43.32073743543549" lon="11.384181611846378"><ele>213.0</ele><time>2026-04-11T08:47:21.999Z</time></trkpt><trkpt lat="43.32077828508498" lon="11.384075759251662"><ele>212.4</ele><time>2026-04-11T08:47:22.999Z</time></trkpt><trkpt lat="43.32079604255905" lon="11.383948404785079"><ele>211.8</ele><time>2026-04-11T08:47:23.999Z</time></trkpt><trkpt lat="43.32078579210165" lon="11.383811526090053"><ele>211.2</ele><time>2026-04-11T08:47:24.999Z</time></trkpt><trkpt lat="43.3207504029885" lon="11.383676958705749"><ele>210.6</ele><time>2026-04-11T08:47:25.999Z</time></trkpt><trkpt lat="43.320702856386575" lon="11.383544820099878"><ele>210.0</ele><time>2026-04-11T08:47:26.999Z</time></trkpt><trkpt lat="43.32066294819787" lon="11.38340576650786"><ele>208.0</ele><time>2026-04-11T08:47:27.999Z</time></trkpt><trkpt lat="43.320633171353236" lon="11.383260523387413"><ele>206.0</ele><time>2026-04-11T08:47:28.999Z</time></trkpt><trkpt lat="43.320615376618115" lon="11.383108111452463"><ele>204.0</ele><time>2026-04-11T08:47:29.999Z</time></trkpt><trkpt lat="43.32060321593984" lon="11.382951950543404"><ele>202.0</ele><time>2026-04-11T08:47:30.999Z</time></trkpt><trkpt lat="43.320589065033616" lon="11.382793470157178"><ele>201.25</ele><time>2026-04-11T08:47:31.999Z</time></trkpt><trkpt lat="43.3205705008793" lon="11.382637546126812"><ele>200.5</ele><time>2026-04-11T08:47:32.999Z</time></trkpt><trkpt lat="43.320548821045584" lon="11.38248169504507"><ele>199.75</ele><time>2026-04-11T08:47:33.999Z</time></trkpt><trkpt lat="43.320524913443464" lon="11.382327458624383"><ele>199.0</ele><time>2026-04-11T08:47:34.999Z</time></trkpt><trkpt lat="43.320500016417455" lon="11.38217289309232"><ele>198.75</ele><time>2026-04-11T08:47:35.999Z</time></trkpt><trkpt lat="43.3204749202464" lon="11.382019453794225"><ele>198.5</ele><time>2026-04-11T08:47:36.999Z</time></trkpt><trkpt lat="43.320448785682665" lon="11.381866887363666"><ele>198.25</ele><time>2026-04-11T08:47:37.999Z</time></trkpt><trkpt lat="43.320422971153036" lon="11.381716942946431"><ele>198.0</ele><time>2026-04-11T08:47:38.999Z</time></trkpt><trkpt lat="43.32039761850721" lon="11.381568034614945"><ele>198.0</ele><time>2026-04-11T08:47:39.999Z</time></trkpt><trkpt lat="43.32037244634478" lon="11.3814234088948"><ele>198.0</ele><time>2026-04-11T08:47:40.999Z</time></trkpt><trkpt lat="43.32034911687866" lon="11.381277781502527"><ele>198.0</ele><time>2026-04-11T08:47:41.999Z</time></trkpt><trkpt lat="43.32033079399464" lon="11.381136957554498"><ele>198.0</ele><time>2026-04-11T08:47:42.999Z</time></trkpt><trkpt lat="43.320319478345134" lon="11.380995671252512"><ele>198.0</ele><time>2026-04-11T08:47:43.999Z</time></trkpt><trkpt lat="43.32031944228911" lon="11.3808525587046"><ele>197.8</ele><time>2026-04-11T08:47:44.999Z</time></trkpt><trkpt lat="43.32033270736087" lon="11.380713276292218"><ele>197.60000000000002</ele><time>2026-04-11T08:47:45.998Z</time></trkpt><trkpt lat="43.320353507419355" lon="11.38058129309702"><ele>197.39999999999998</ele><time>2026-04-11T08:47:46.998Z</time></trkpt><trkpt lat="43.32037253260323" lon="11.380453830263304"><ele>197.2</ele><time>2026-04-11T08:47:47.998Z</time></trkpt><trkpt lat="43.32038583757479" lon="11.38033045417496"><ele>197.0</ele><time>2026-04-11T08:47:48.998Z</time></trkpt><trkpt lat="43.32039991120431" lon="11.38021370946741"><ele>197.0</ele><time>2026-04-11T08:47:49.998Z</time></trkpt><trkpt lat="43.32041388333833" lon="11.380103370923845"><ele>197.0</ele><time>2026-04-11T08:47:50.998Z</time></trkpt><trkpt lat="43.320421707456326" lon="11.379998738091064"><ele>197.0</ele><time>2026-04-11T08:47:51.998Z</time></trkpt><trkpt lat="43.32043123537331" lon="11.37990273955653"><ele>197.0</ele><time>2026-04-11T08:47:52.998Z</time></trkpt><trkpt lat="43.3204410825107" lon="11.379814512864808"><ele>197.0</ele><time>2026-04-11T08:47:53.998Z</time></trkpt><trkpt lat="43.320450031231495" lon="11.379728323147146"><ele>197.0</ele><time>2026-04-11T08:47:54.998Z</time></trkpt><trkpt lat="43.320461913971776" lon="11.379641209134414"><ele>197.0</ele><time>2026-04-11T08:47:55.998Z</time></trkpt><trkpt lat="43.32047291623843" lon="11.379552208330873"><ele>197.50000000000003</ele><time>2026-04-11T08:47:56.998Z</time></trkpt><trkpt lat="43.32049861470035" lon="11.379387387112965"><ele>198.0</ele><time>2026-04-11T08:47:58.998Z</time></trkpt><trkpt lat="43.320510349273476" lon="11.379299701240752"><ele>198.5</ele><time>2026-04-11T08:47:59.998Z</time></trkpt><trkpt lat="43.320521319511414" lon="11.379211710209901"><ele>199.0</ele><time>2026-04-11T08:48:00.998Z</time></trkpt><trkpt lat="43.320539698419076" lon="11.379043141479343"><ele>199.50000000000003</ele><time>2026-04-11T08:48:02.998Z</time></trkpt><trkpt lat="43.32055165174089" lon="11.378954394810169"><ele>200.0</ele><time>2026-04-11T08:48:03.998Z</time></trkpt><trkpt lat="43.320559333250785" lon="11.378867823733804"><ele>200.85714285714286</ele><time>2026-04-11T08:48:04.998Z</time></trkpt><trkpt lat="43.320568103558074" lon="11.378777886373014"><ele>201.71428571428572</ele><time>2026-04-11T08:48:05.998Z</time></trkpt><trkpt lat="43.32057920560291" lon="11.378690725225635"><ele>202.57142857142856</ele><time>2026-04-11T08:48:06.998Z</time></trkpt><trkpt lat="43.32058916774487" lon="11.378601437547164"><ele>203.42857142857144</ele><time>2026-04-11T08:48:07.998Z</time></trkpt><trkpt lat="43.3205903247792" lon="11.378511260382773"><ele>204.28571428571428</ele><time>2026-04-11T08:48:08.998Z</time></trkpt><trkpt lat="43.320583341973816" lon="11.3784192071834"><ele>205.14285714285714</ele><time>2026-04-11T08:48:09.998Z</time></trkpt><trkpt lat="43.320577253253795" lon="11.37832642754453"><ele>206.0</ele><time>2026-04-11T08:48:10.998Z</time></trkpt><trkpt lat="43.320569717969704" lon="11.378236080400056"><ele>205.16666666666669</ele><time>2026-04-11T08:48:11.998Z</time></trkpt><trkpt lat="43.320559894329364" lon="11.3781464360385"><ele>204.33333333333334</ele><time>2026-04-11T08:48:12.998Z</time></trkpt><trkpt lat="43.32055026361571" lon="11.378054430839137"><ele>203.5</ele><time>2026-04-11T08:48:13.998Z</time></trkpt><trkpt lat="43.320527672487" lon="11.377882126023913"><ele>202.66666666666669</ele><time>2026-04-11T08:48:15.998Z</time></trkpt><trkpt lat="43.32051900752416" lon="11.377795040951979"><ele>201.83333333333334</ele><time>2026-04-11T08:48:16.998Z</time></trkpt><trkpt lat="43.32050785432632" lon="11.377708402424409"><ele>201.0</ele><time>2026-04-11T08:48:17.998Z</time></trkpt><trkpt lat="43.3205183783685" lon="11.377620129684978"><ele>204.25</ele><time>2026-04-11T08:48:18.998Z</time></trkpt><trkpt lat="43.3204969000491" lon="11.377455987614924"><ele>207.5</ele><time>2026-04-11T08:48:20.998Z</time></trkpt><trkpt lat="43.32047367487394" lon="11.377301738453907"><ele>210.75</ele><time>2026-04-11T08:48:22.998Z</time></trkpt><trkpt lat="43.32043077542621" lon="11.377156517964995"><ele>214.0</ele><time>2026-04-11T08:48:24.998Z</time></trkpt><trkpt lat="43.320425536445704" lon="11.37700075509876"><ele>215.39999999999998</ele><time>2026-04-11T08:48:26.998Z</time></trkpt><trkpt lat="43.320428405412414" lon="11.376842695562646"><ele>216.79999999999998</ele><time>2026-04-11T08:48:28.998Z</time></trkpt><trkpt lat="43.32042755537645" lon="11.376686233136995"><ele>218.20000000000002</ele><time>2026-04-11T08:48:30.998Z</time></trkpt><trkpt lat="43.32043502514916" lon="11.376534028132737"><ele>219.60000000000002</ele><time>2026-04-11T08:48:32.998Z</time></trkpt><trkpt lat="43.32045070003662" lon="11.3763904796973"><ele>221.0</ele><time>2026-04-11T08:48:34.997Z</time></trkpt><trkpt lat="43.320472139839936" lon="11.376255072213999"><ele>221.00000000000003</ele><time>2026-04-11T08:48:36.997Z</time></trkpt><trkpt lat="43.320462883887075" lon="11.376139608528975"><ele>221.0</ele><time>2026-04-11T08:48:38.997Z</time></trkpt><trkpt lat="43.32047779352307" lon="11.376028940096287"><ele>221.0</ele><time>2026-04-11T08:48:40.997Z</time></trkpt><trkpt lat="43.32048225559468" lon="11.375909643690655"><ele>221.0</ele><time>2026-04-11T08:48:43.997Z</time></trkpt><trkpt lat="43.32047802280627" lon="11.375815017463626"><ele>221.00000000000003</ele><time>2026-04-11T08:48:47Z</time></trkpt><trkpt lat="43.320478449994475" lon="11.375704885953054"><ele>221.0</ele><time>2026-04-11T08:48:51Z</time></trkpt><trkpt lat="43.32046141324696" lon="11.375614181497413"><ele>221.00000000000003</ele><time>2026-04-11T08:48:55Z</time></trkpt><trkpt lat="43.320435184984944" lon="11.375526000510535"><ele>221.0</ele><time>2026-04-11T08:48:59Z</time></trkpt><trkpt lat="43.320398733694724" lon="11.375454419074188"><ele>221.0</ele><time>2026-04-11T08:49:02Z</time></trkpt><trkpt lat="43.32033826028233" lon="11.375376773878513"><ele>221.0</ele><time>2026-04-11T08:49:05.999Z</time></trkpt><trkpt lat="43.32028992170529" lon="11.375292686789754"><ele>221.0</ele><time>2026-04-11T08:49:09.999Z</time></trkpt><trkpt lat="43.32025499829722" lon="11.375218993906138"><ele>221.00000000000003</ele><time>2026-04-11T08:49:12.999Z</time></trkpt><trkpt lat="43.32023046684846" lon="11.375138064390015"><ele>221.0</ele><time>2026-04-11T08:49:15.999Z</time></trkpt><trkpt lat="43.320213417418806" lon="11.375054456755205"><ele>221.00000000000003</ele><time>2026-04-11T08:49:18.999Z</time></trkpt><trkpt lat="43.320212101806604" lon="11.374965580167576"><ele>221.0</ele><time>2026-04-11T08:49:21.999Z</time></trkpt><trkpt lat="43.3202387295489" lon="11.37488278162598"><ele>221.0</ele><time>2026-04-11T08:49:24.999Z</time></trkpt><trkpt lat="43.32024630060359" lon="11.374773335044988"><ele>221.0</ele><time>2026-04-11T08:49:28.999Z</time></trkpt><trkpt lat="43.32027328669244" lon="11.374691125027802"><ele>221.0</ele><time>2026-04-11T08:49:31.999Z</time></trkpt><trkpt lat="43.32030362352159" lon="11.37459317644105"><ele>221.00000000000003</ele><time>2026-04-11T08:49:35.999Z</time></trkpt><trkpt lat="43.32033047877412" lon="11.374512030009845"><ele>221.0</ele><time>2026-04-11T08:49:38.999Z</time></trkpt><trkpt lat="43.32035133896201" lon="11.374421664341957"><ele>221.00000000000003</ele><time>2026-04-11T08:49:41.999Z</time></trkpt><trkpt lat="43.32036513785834" lon="11.374330762950917"><ele>221.0</ele><time>2026-04-11T08:49:44.999Z</time></trkpt><trkpt lat="43.32039353462062" lon="11.374231895932889"><ele>221.0</ele><time>2026-04-11T08:49:47.999Z</time></trkpt><trkpt lat="43.320420694860545" lon="11.374144596701091"><ele>221.0</ele><time>2026-04-11T08:49:50.999Z</time></trkpt><trkpt lat="43.320446771564185" lon="11.374059769899953"><ele>221.0</ele><time>2026-04-11T08:49:53.999Z</time></trkpt><trkpt lat="43.320470706273525" lon="11.373979060763554"><ele>221.00000000000003</ele><time>2026-04-11T08:49:56.998Z</time></trkpt><trkpt lat="43.32049342619802" lon="11.373894526349982"><ele>221.0</ele><time>2026-04-11T08:49:59.998Z</time></trkpt><trkpt lat="43.32051897070343" lon="11.373812718273072"><ele>222.00000000000003</ele><time>2026-04-11T08:50:02.998Z</time></trkpt><trkpt lat="43.32054785740552" lon="11.373733309401052"><ele>223.0</ele><time>2026-04-11T08:50:05.998Z</time></trkpt><trkpt lat="43.320589043324816" lon="11.3736340268743"><ele>224.0</ele><time>2026-04-11T08:50:09.998Z</time></trkpt><trkpt lat="43.32063434741436" lon="11.373536362884415"><ele>225.0</ele><time>2026-04-11T08:50:13.998Z</time></trkpt><trkpt lat="43.320680419203725" lon="11.373437873130191"><ele>226.00000000000003</ele><time>2026-04-11T08:50:17.998Z</time></trkpt><trkpt lat="43.32072534185834" lon="11.373338995029677"><ele>227.0</ele><time>2026-04-11T08:50:21.998Z</time></trkpt><trkpt lat="43.32076686626556" lon="11.373265531414171"><ele>227.2857142857143</ele><time>2026-04-11T08:50:24.998Z</time></trkpt><trkpt lat="43.32081259082173" lon="11.373166761616066"><ele>227.5714285714286</ele><time>2026-04-11T08:50:28.998Z</time></trkpt><trkpt lat="43.32085017543654" lon="11.373093976297149"><ele>227.85714285714286</ele><time>2026-04-11T08:50:31.998Z</time></trkpt><trkpt lat="43.320881408797916" lon="11.373016098018628"><ele>228.14285714285717</ele><time>2026-04-11T08:50:34.998Z</time></trkpt><trkpt lat="43.320934031687365" lon="11.372925728857073"><ele>228.42857142857144</ele><time>2026-04-11T08:50:38.998Z</time></trkpt><trkpt lat="43.320972109122366" lon="11.372852537496712"><ele>228.71428571428572</ele><time>2026-04-11T08:50:41.998Z</time></trkpt><trkpt lat="43.32099845366594" lon="11.372763798431993"><ele>229.0</ele><time>2026-04-11T08:50:44.997Z</time></trkpt><trkpt lat="43.32102451759445" lon="11.372659608000111"><ele>230.28571428571428</ele><time>2026-04-11T08:50:47.997Z</time></trkpt><trkpt lat="43.321042484464385" lon="11.372556960707465"><ele>231.57142857142858</ele><time>2026-04-11T08:50:51Z</time></trkpt><trkpt lat="43.32105418171192" lon="11.372459666662248"><ele>232.85714285714286</ele><time>2026-04-11T08:50:54Z</time></trkpt><trkpt lat="43.32106568427911" lon="11.372359007737437"><ele>234.14285714285714</ele><time>2026-04-11T08:50:57Z</time></trkpt><trkpt lat="43.321079180140934" lon="11.372264947896136"><ele>235.42857142857144</ele><time>2026-04-11T08:51:00Z</time></trkpt><trkpt lat="43.32108905200408" lon="11.372164666238968"><ele>236.71428571428572</ele><time>2026-04-11T08:51:03Z</time></trkpt><trkpt lat="43.321107406351345" lon="11.372068678028258"><ele>238.0</ele><time>2026-04-11T08:51:06Z</time></trkpt><trkpt lat="43.32112412490839" lon="11.371963825188264"><ele>239.49999999999997</ele><time>2026-04-11T08:51:09Z</time></trkpt><trkpt lat="43.32114052024027" lon="11.371865662432127"><ele>241.0</ele><time>2026-04-11T08:51:11.999Z</time></trkpt><trkpt lat="43.32114930357158" lon="11.371762436026987"><ele>242.5</ele><time>2026-04-11T08:51:14.999Z</time></trkpt><trkpt lat="43.321167615185274" lon="11.371663382299957"><ele>244.0</ele><time>2026-04-11T08:51:17.999Z</time></trkpt><trkpt lat="43.32118381882427" lon="11.371559060622896"><ele>245.49999999999997</ele><time>2026-04-11T08:51:20.999Z</time></trkpt><trkpt lat="43.321185980158326" lon="11.371448135728444"><ele>247.0</ele><time>2026-04-11T08:51:23.999Z</time></trkpt><trkpt lat="43.321196295769745" lon="11.371337689303735"><ele>247.83333333333331</ele><time>2026-04-11T08:51:26.999Z</time></trkpt><trkpt lat="43.32121106810401" lon="11.3712321577261"><ele>248.66666666666666</ele><time>2026-04-11T08:51:29.999Z</time></trkpt><trkpt lat="43.321226551166724" lon="11.371128671200113"><ele>249.5</ele><time>2026-04-11T08:51:32.999Z</time></trkpt><trkpt lat="43.321254563553865" lon="11.37102683314514"><ele>250.33333333333331</ele><time>2026-04-11T08:51:35.999Z</time></trkpt><trkpt lat="43.32128303975297" lon="11.370927541820564"><ele>251.16666666666666</ele><time>2026-04-11T08:51:38.999Z</time></trkpt><trkpt lat="43.321314268383105" lon="11.370828382480736"><ele>252.0</ele><time>2026-04-11T08:51:41.999Z</time></trkpt><trkpt lat="43.32134686162619" lon="11.370735647011006"><ele>252.0</ele><time>2026-04-11T08:51:44.999Z</time></trkpt><trkpt lat="43.321384445967794" lon="11.37064619013017"><ele>252.0</ele><time>2026-04-11T08:51:47.999Z</time></trkpt><trkpt lat="43.32142668204543" lon="11.370559579459536"><ele>252.0</ele><time>2026-04-11T08:51:50.999Z</time></trkpt><trkpt lat="43.32147392202627" lon="11.370476229989734"><ele>252.0</ele><time>2026-04-11T08:51:53.999Z</time></trkpt><trkpt lat="43.321512889633574" lon="11.370394934017476"><ele>252.0</ele><time>2026-04-11T08:51:56.999Z</time></trkpt><trkpt lat="43.32155078177104" lon="11.370310186552384"><ele>252.0</ele><time>2026-04-11T08:51:59.999Z</time></trkpt><trkpt lat="43.32159131572875" lon="11.370225318979106"><ele>252.0</ele><time>2026-04-11T08:52:02.998Z</time></trkpt><trkpt lat="43.32163292146892" lon="11.370139352959658"><ele>252.0</ele><time>2026-04-11T08:52:05.998Z</time></trkpt><trkpt lat="43.32167370415731" lon="11.370053947711932"><ele>252.0</ele><time>2026-04-11T08:52:08.998Z</time></trkpt><trkpt lat="43.32171475412629" lon="11.369972010148548"><ele>252.0</ele><time>2026-04-11T08:52:11.998Z</time></trkpt><trkpt lat="43.32175747329814" lon="11.369891505830125"><ele>252.0</ele><time>2026-04-11T08:52:14.998Z</time></trkpt><trkpt lat="43.32179359100113" lon="11.369800317270343"><ele>252.0</ele><time>2026-04-11T08:52:17.998Z</time></trkpt><trkpt lat="43.32183550546541" lon="11.369718881023374"><ele>252.0</ele><time>2026-04-11T08:52:20.998Z</time></trkpt><trkpt lat="43.321879499021" lon="11.369638805871029"><ele>252.0</ele><time>2026-04-11T08:52:23.998Z</time></trkpt><trkpt lat="43.321920225951835" lon="11.369554418254232"><ele>253.28571428571428</ele><time>2026-04-11T08:52:26.998Z</time></trkpt><trkpt lat="43.32195522636538" lon="11.369475261855666"><ele>254.57142857142856</ele><time>2026-04-11T08:52:29.998Z</time></trkpt><trkpt lat="43.32199564806512" lon="11.369408184966426"><ele>255.85714285714286</ele><time>2026-04-11T08:52:32.998Z</time></trkpt><trkpt lat="43.32202437264647" lon="11.369329536708639"><ele>257.1428571428571</ele><time>2026-04-11T08:52:35.998Z</time></trkpt><trkpt lat="43.322023574273" lon="11.369240731275523"><ele>258.42857142857144</ele><time>2026-04-11T08:52:38.998Z</time></trkpt><trkpt lat="43.321976849302445" lon="11.369174044577612"><ele>259.7142857142857</ele><time>2026-04-11T08:52:41.998Z</time></trkpt><trkpt lat="43.32190983650801" lon="11.369158341856565"><ele>261.0</ele><time>2026-04-11T08:52:44.998Z</time></trkpt><trkpt lat="43.32183852869634" lon="11.369190943861467"><ele>261.0</ele><time>2026-04-11T08:52:47.998Z</time></trkpt><trkpt lat="43.32177811802508" lon="11.36925783977676"><ele>261.0</ele><time>2026-04-11T08:52:50.998Z</time></trkpt><trkpt lat="43.32171528187735" lon="11.369323279493697"><ele>261.0</ele><time>2026-04-11T08:52:53.997Z</time></trkpt><trkpt lat="43.321649795656754" lon="11.369384497895918"><ele>261.0</ele><time>2026-04-11T08:52:57Z</time></trkpt><trkpt lat="43.321579445530304" lon="11.36942984842094"><ele>261.0</ele><time>2026-04-11T08:53:00Z</time></trkpt><trkpt lat="43.3215045250997" lon="11.369450975917646"><ele>261.0</ele><time>2026-04-11T08:53:03Z</time></trkpt><trkpt lat="43.32143361905847" lon="11.369437955173444"><ele>261.2857142857143</ele><time>2026-04-11T08:53:06Z</time></trkpt><trkpt lat="43.321373531011666" lon="11.369397716978053"><ele>261.57142857142856</ele><time>2026-04-11T08:53:09Z</time></trkpt><trkpt lat="43.32131701577625" lon="11.3693438807028"><ele>261.85714285714283</ele><time>2026-04-11T08:53:12Z</time></trkpt><trkpt lat="43.321264546377314" lon="11.369279560143866"><ele>262.1428571428571</ele><time>2026-04-11T08:53:15Z</time></trkpt><trkpt lat="43.321207441354154" lon="11.369208521973103"><ele>262.4285714285714</ele><time>2026-04-11T08:53:18Z</time></trkpt><trkpt lat="43.32114459765607" lon="11.369151471885843"><ele>262.7142857142857</ele><time>2026-04-11T08:53:20.999Z</time></trkpt><trkpt lat="43.321084354829004" lon="11.369077046863511"><ele>263.0</ele><time>2026-04-11T08:53:23.999Z</time></trkpt><trkpt lat="43.32102461755319" lon="11.369011031829292"><ele>263.0</ele><time>2026-04-11T08:53:26.999Z</time></trkpt><trkpt lat="43.32096900512831" lon="11.368933027090334"><ele>263.0</ele><time>2026-04-11T08:53:29.999Z</time></trkpt><trkpt lat="43.32093941535155" lon="11.368844279227183"><ele>263.0</ele><time>2026-04-11T08:53:32.999Z</time></trkpt><trkpt lat="43.32095385648452" lon="11.36873611977433"><ele>263.0</ele><time>2026-04-11T08:53:35.999Z</time></trkpt><trkpt lat="43.32098684531583" lon="11.368635135640432"><ele>263.0</ele><time>2026-04-11T08:53:38.999Z</time></trkpt><trkpt lat="43.32101133226898" lon="11.368526214945232"><ele>263.0</ele><time>2026-04-11T08:53:41.999Z</time></trkpt><trkpt lat="43.321031437174675" lon="11.368441471234606"><ele>263.0</ele><time>2026-04-11T08:53:43.999Z</time></trkpt><trkpt lat="43.32104592852436" lon="11.368356679023393"><ele>263.0</ele><time>2026-04-11T08:53:45.999Z</time></trkpt><trkpt lat="43.32106416879839" lon="11.3682677040878"><ele>263.0</ele><time>2026-04-11T08:53:46.999Z</time></trkpt><trkpt lat="43.32106689641216" lon="11.368140120773878"><ele>263.0</ele><time>2026-04-11T08:53:49.999Z</time></trkpt><trkpt lat="43.32106425274669" lon="11.368049345636825"><ele>263.0</ele><time>2026-04-11T08:53:51.999Z</time></trkpt><trkpt lat="43.32106284839116" lon="11.367957055762473"><ele>263.0</ele><time>2026-04-11T08:53:53.999Z</time></trkpt><trkpt lat="43.32106746316968" lon="11.367864038547516"><ele>263.0</ele><time>2026-04-11T08:53:55.999Z</time></trkpt><trkpt lat="43.32107306965653" lon="11.367768979028856"><ele>263.57142857142856</ele><time>2026-04-11T08:53:57.999Z</time></trkpt><trkpt lat="43.32107895774204" lon="11.367670701634674"><ele>264.1428571428571</ele><time>2026-04-11T08:53:59.999Z</time></trkpt><trkpt lat="43.3210830353125" lon="11.367572824552418"><ele>264.7142857142857</ele><time>2026-04-11T08:54:01.999Z</time></trkpt><trkpt lat="43.32108166233447" lon="11.36747833484576"><ele>265.2857142857143</ele><time>2026-04-11T08:54:03.999Z</time></trkpt><trkpt lat="43.32108487493905" lon="11.367381113921688"><ele>265.8571428571429</ele><time>2026-04-11T08:54:05.999Z</time></trkpt><trkpt lat="43.32108981621296" lon="11.36728646931591"><ele>266.42857142857144</ele><time>2026-04-11T08:54:07.999Z</time></trkpt><trkpt lat="43.32109088008093" lon="11.367190337863518"><ele>267.0</ele><time>2026-04-11T08:54:09.998Z</time></trkpt><trkpt lat="43.321094878540855" lon="11.36709255803378"><ele>267.5714285714286</ele><time>2026-04-11T08:54:11.998Z</time></trkpt><trkpt lat="43.32109841066216" lon="11.366996678290498"><ele>268.14285714285717</ele><time>2026-04-11T08:54:13.998Z</time></trkpt><trkpt lat="43.32109588766042" lon="11.366902732605684"><ele>268.7142857142857</ele><time>2026-04-11T08:54:15.998Z</time></trkpt><trkpt lat="43.32108786877251" lon="11.366814652977105"><ele>269.28571428571433</ele><time>2026-04-11T08:54:17.998Z</time></trkpt><trkpt lat="43.32108050289932" lon="11.366716584878032"><ele>269.8571428571429</ele><time>2026-04-11T08:54:19.998Z</time></trkpt><trkpt lat="43.32107206153951" lon="11.3666284382979"><ele>270.42857142857144</ele><time>2026-04-11T08:54:21.998Z</time></trkpt><trkpt lat="43.321060570198426" lon="11.36654085844635"><ele>271.0</ele><time>2026-04-11T08:54:23.998Z</time></trkpt><trkpt lat="43.3210440682947" lon="11.366453021229912"><ele>271.0</ele><time>2026-04-11T08:54:25.998Z</time></trkpt><trkpt lat="43.3210300319589" lon="11.366363906834401"><ele>271.0</ele><time>2026-04-11T08:54:27.998Z</time></trkpt><trkpt lat="43.321021049120645" lon="11.366270556882318"><ele>271.0</ele><time>2026-04-11T08:54:29.998Z</time></trkpt><trkpt lat="43.321005743707765" lon="11.366165146969985"><ele>271.0</ele><time>2026-04-11T08:54:31.998Z</time></trkpt><trkpt lat="43.32098750961253" lon="11.366045439434531"><ele>271.0</ele><time>2026-04-11T08:54:33.998Z</time></trkpt><trkpt lat="43.320969156039" lon="11.365909734863097"><ele>271.0</ele><time>2026-04-11T08:54:35.998Z</time></trkpt><trkpt lat="43.32093525879001" lon="11.365765031050035"><ele>271.0</ele><time>2026-04-11T08:54:37.998Z</time></trkpt><trkpt lat="43.32088586820309" lon="11.365612408708772"><ele>271.0</ele><time>2026-04-11T08:54:39.998Z</time></trkpt><trkpt lat="43.32083247716927" lon="11.365457489808083"><ele>271.0</ele><time>2026-04-11T08:54:41.998Z</time></trkpt><trkpt lat="43.320778942303214" lon="11.365303331150372"><ele>271.0</ele><time>2026-04-11T08:54:43.998Z</time></trkpt><trkpt lat="43.32075356096305" lon="11.365223192463853"><ele>271.0</ele><time>2026-04-11T08:54:44.998Z</time></trkpt><trkpt lat="43.32072461999297" lon="11.365145889888835"><ele>271.2</ele><time>2026-04-11T08:54:45.998Z</time></trkpt><trkpt lat="43.32069196241397" lon="11.365069978146938"><ele>271.40000000000003</ele><time>2026-04-11T08:54:46.998Z</time></trkpt><trkpt lat="43.320627178642084" lon="11.364918573271643"><ele>271.6</ele><time>2026-04-11T08:54:48.998Z</time></trkpt><trkpt lat="43.3205559612404" lon="11.364780688671384"><ele>271.8</ele><time>2026-04-11T08:54:50.998Z</time></trkpt><trkpt lat="43.320483898016455" lon="11.364653634937811"><ele>272.0</ele><time>2026-04-11T08:54:52.998Z</time></trkpt><trkpt lat="43.320413232204324" lon="11.364534656671374"><ele>272.4</ele><time>2026-04-11T08:54:54.998Z</time></trkpt><trkpt lat="43.320346043533384" lon="11.364418851108626"><ele>272.79999999999995</ele><time>2026-04-11T08:54:56.998Z</time></trkpt><trkpt lat="43.320275814637206" lon="11.364304403513646"><ele>273.2</ele><time>2026-04-11T08:54:58.998Z</time></trkpt><trkpt lat="43.320203104617036" lon="11.36417624375431"><ele>273.59999999999997</ele><time>2026-04-11T08:55:00.997Z</time></trkpt><trkpt lat="43.3201614927012" lon="11.364109852061736"><ele>274.0</ele><time>2026-04-11T08:55:02Z</time></trkpt><trkpt lat="43.32012010962093" lon="11.364041298392129"><ele>274.00000000000006</ele><time>2026-04-11T08:55:03Z</time></trkpt><trkpt lat="43.3200732871947" lon="11.363974426424631"><ele>274.0</ele><time>2026-04-11T08:55:04Z</time></trkpt><trkpt lat="43.32002841679794" lon="11.363897992438352"><ele>274.0</ele><time>2026-04-11T08:55:05Z</time></trkpt><trkpt lat="43.319985252693904" lon="11.363819650351385"><ele>274.0</ele><time>2026-04-11T08:55:06Z</time></trkpt><trkpt lat="43.31993993602326" lon="11.363739846881925"><ele>274.0</ele><time>2026-04-11T08:55:07Z</time></trkpt><trkpt lat="43.31988961930844" lon="11.363666682066441"><ele>274.00000000000006</ele><time>2026-04-11T08:55:08Z</time></trkpt><trkpt lat="43.319836525834795" lon="11.363595632897972"><ele>274.0</ele><time>2026-04-11T08:55:09Z</time></trkpt><trkpt lat="43.31978178012933" lon="11.363527117343986"><ele>274.5</ele><time>2026-04-11T08:55:10Z</time></trkpt><trkpt lat="43.31972815031542" lon="11.363457117053624"><ele>275.0</ele><time>2026-04-11T08:55:11Z</time></trkpt><trkpt lat="43.31967930042776" lon="11.36339934802761"><ele>275.5</ele><time>2026-04-11T08:55:12Z</time></trkpt><trkpt lat="43.31963165535909" lon="11.363336585459338"><ele>276.0</ele><time>2026-04-11T08:55:13Z</time></trkpt><trkpt lat="43.31958788075182" lon="11.363273426077555"><ele>276.5</ele><time>2026-04-11T08:55:14Z</time></trkpt><trkpt lat="43.319530314157646" lon="11.363151786402705"><ele>277.0</ele><time>2026-04-11T08:55:16Z</time></trkpt><trkpt lat="43.31946946077805" lon="11.36302170355049"><ele>276.0</ele><time>2026-04-11T08:55:18Z</time></trkpt><trkpt lat="43.31944189947247" lon="11.362943353247324"><ele>275.0</ele><time>2026-04-11T08:55:19Z</time></trkpt><trkpt lat="43.31942298273595" lon="11.362855954713327"><ele>274.0</ele><time>2026-04-11T08:55:20Z</time></trkpt><trkpt lat="43.31940263577879" lon="11.362762186208075"><ele>273.0</ele><time>2026-04-11T08:55:21Z</time></trkpt><trkpt lat="43.319376579194405" lon="11.362666316628722"><ele>272.0</ele><time>2026-04-11T08:55:22Z</time></trkpt><trkpt lat="43.31933960331038" lon="11.36257572658527"><ele>271.0</ele><time>2026-04-11T08:55:23Z</time></trkpt><trkpt lat="43.31929075252638" lon="11.362491638397305"><ele>270.0</ele><time>2026-04-11T08:55:24Z</time></trkpt><trkpt lat="43.319236506608156" lon="11.362410180222842"><ele>270.0</ele><time>2026-04-11T08:55:25Z</time></trkpt><trkpt lat="43.31917597141583" lon="11.362328970015978"><ele>270.0</ele><time>2026-04-11T08:55:25.999Z</time></trkpt><trkpt lat="43.3191159517598" lon="11.362243849549765"><ele>270.0</ele><time>2026-04-11T08:55:26.999Z</time></trkpt><trkpt lat="43.319053859734645" lon="11.3621521769402"><ele>270.0</ele><time>2026-04-11T08:55:27.999Z</time></trkpt><trkpt lat="43.31898741699605" lon="11.362053659037395"><ele>270.0</ele><time>2026-04-11T08:55:28.999Z</time></trkpt><trkpt lat="43.31892319156324" lon="11.36195680268414"><ele>269.2</ele><time>2026-04-11T08:55:29.999Z</time></trkpt><trkpt lat="43.318865884937075" lon="11.361861133736127"><ele>268.4</ele><time>2026-04-11T08:55:30.999Z</time></trkpt><trkpt lat="43.318806933300934" lon="11.361758387746798"><ele>267.6</ele><time>2026-04-11T08:55:31.999Z</time></trkpt><trkpt lat="43.318746880786506" lon="11.361642020251688"><ele>266.8</ele><time>2026-04-11T08:55:32.999Z</time></trkpt><trkpt lat="43.31868866241387" lon="11.361518987458187"><ele>266.0</ele><time>2026-04-11T08:55:33.999Z</time></trkpt><trkpt lat="43.31863681948323" lon="11.361383479632305"><ele>264.0</ele><time>2026-04-11T08:55:34.999Z</time></trkpt><trkpt lat="43.31859328401813" lon="11.36124181343425"><ele>262.0</ele><time>2026-04-11T08:55:35.999Z</time></trkpt><trkpt lat="43.318552896974396" lon="11.361091546609925"><ele>260.0</ele><time>2026-04-11T08:55:36.999Z</time></trkpt><trkpt lat="43.318505936947965" lon="11.36094507155432"><ele>258.0</ele><time>2026-04-11T08:55:37.999Z</time></trkpt><trkpt lat="43.318444133928296" lon="11.360803273492092"><ele>258.0</ele><time>2026-04-11T08:55:38.999Z</time></trkpt><trkpt lat="43.31837354096099" lon="11.360667678909468"><ele>258.0</ele><time>2026-04-11T08:55:39.999Z</time></trkpt><trkpt lat="43.31830944839404" lon="11.360533286086804"><ele>258.0</ele><time>2026-04-11T08:55:40.999Z</time></trkpt><trkpt lat="43.318249382089796" lon="11.360390105629099"><ele>258.0</ele><time>2026-04-11T08:55:41.999Z</time></trkpt><trkpt lat="43.318189905833954" lon="11.360247591323054"><ele>256.25</ele><time>2026-04-11T08:55:42.999Z</time></trkpt><trkpt lat="43.31811758446722" lon="11.360118602363409"><ele>254.5</ele><time>2026-04-11T08:55:43.999Z</time></trkpt><trkpt lat="43.31804064394043" lon="11.359998207530452"><ele>252.75</ele><time>2026-04-11T08:55:44.999Z</time></trkpt><trkpt lat="43.31796062203667" lon="11.359877299670934"><ele>251.0</ele><time>2026-04-11T08:55:45.999Z</time></trkpt><trkpt lat="43.31789417069714" lon="11.359749081907337"><ele>249.0</ele><time>2026-04-11T08:55:46.999Z</time></trkpt><trkpt lat="43.317840594812324" lon="11.359613936886749"><ele>247.00000000000003</ele><time>2026-04-11T08:55:47.999Z</time></trkpt><trkpt lat="43.31779919145709" lon="11.359470178024315"><ele>245.00000000000003</ele><time>2026-04-11T08:55:48.999Z</time></trkpt><trkpt lat="43.31776860762801" lon="11.3593253833199"><ele>243.0</ele><time>2026-04-11T08:55:49.999Z</time></trkpt><trkpt lat="43.31774316744089" lon="11.359173755390108"><ele>241.0</ele><time>2026-04-11T08:55:50.999Z</time></trkpt><trkpt lat="43.31771997916663" lon="11.359029328667338"><ele>241.0</ele><time>2026-04-11T08:55:51.999Z</time></trkpt><trkpt lat="43.317690191402704" lon="11.358885273360444"><ele>241.00000000000003</ele><time>2026-04-11T08:55:52.999Z</time></trkpt><trkpt lat="43.31764871882265" lon="11.358745414230679"><ele>241.00000000000003</ele><time>2026-04-11T08:55:53.999Z</time></trkpt><trkpt lat="43.31758819349858" lon="11.358629103533687"><ele>241.0</ele><time>2026-04-11T08:55:54.999Z</time></trkpt><trkpt lat="43.317505204181984" lon="11.358525152444306"><ele>241.0</ele><time>2026-04-11T08:55:55.999Z</time></trkpt><trkpt lat="43.31741149020766" lon="11.358434146670985"><ele>240.0</ele><time>2026-04-11T08:55:56.999Z</time></trkpt><trkpt lat="43.31730117473022" lon="11.358365537271904"><ele>239.0</ele><time>2026-04-11T08:55:57.999Z</time></trkpt><trkpt lat="43.317179568230145" lon="11.358333725231992"><ele>238.0</ele><time>2026-04-11T08:55:58.999Z</time></trkpt><trkpt lat="43.31705435284082" lon="11.35833090820023"><ele>237.0</ele><time>2026-04-11T08:55:59.999Z</time></trkpt><trkpt lat="43.31692961241276" lon="11.358333334837411"><ele>235.25</ele><time>2026-04-11T08:56:00.999Z</time></trkpt><trkpt lat="43.31681210424428" lon="11.358318662040084"><ele>233.5</ele><time>2026-04-11T08:56:01.999Z</time></trkpt><trkpt lat="43.31670396141935" lon="11.358271501458615"><ele>231.75</ele><time>2026-04-11T08:56:02.999Z</time></trkpt><trkpt lat="43.31660503311172" lon="11.35817600973788"><ele>230.0</ele><time>2026-04-11T08:56:03.999Z</time></trkpt><trkpt lat="43.31652350207442" lon="11.358040301912617"><ele>230.5</ele><time>2026-04-11T08:56:04.999Z</time></trkpt><trkpt lat="43.316447071356045" lon="11.357890713675264"><ele>231.0</ele><time>2026-04-11T08:56:05.999Z</time></trkpt><trkpt lat="43.316369989347216" lon="11.357755736431864"><ele>231.5</ele><time>2026-04-11T08:56:06.999Z</time></trkpt><trkpt lat="43.3162947020489" lon="11.357633900559756"><ele>232.0</ele><time>2026-04-11T08:56:07.999Z</time></trkpt><trkpt lat="43.31622005114467" lon="11.357518225978795"><ele>230.75</ele><time>2026-04-11T08:56:08.999Z</time></trkpt><trkpt lat="43.316145354466556" lon="11.35739563655029"><ele>229.5</ele><time>2026-04-11T08:56:09.999Z</time></trkpt><trkpt lat="43.31608856967086" lon="11.357251275762515"><ele>228.25</ele><time>2026-04-11T08:56:10.999Z</time></trkpt><trkpt lat="43.3160565699165" lon="11.357091065960743"><ele>227.0</ele><time>2026-04-11T08:56:11.999Z</time></trkpt><trkpt lat="43.31603809987183" lon="11.35693011298034"><ele>226.8</ele><time>2026-04-11T08:56:12.999Z</time></trkpt><trkpt lat="43.31603138418334" lon="11.356773619998785"><ele>226.6</ele><time>2026-04-11T08:56:13.999Z</time></trkpt><trkpt lat="43.31602952005557" lon="11.356626925792312"><ele>226.40000000000003</ele><time>2026-04-11T08:56:14.998Z</time></trkpt><trkpt lat="43.31602121154922" lon="11.356493884284347"><ele>226.20000000000002</ele><time>2026-04-11T08:56:15.998Z</time></trkpt><trkpt lat="43.31601809197209" lon="11.356375822346086"><ele>226.0</ele><time>2026-04-11T08:56:16.998Z</time></trkpt><trkpt lat="43.31601548300328" lon="11.356276020609565"><ele>225.83333333333331</ele><time>2026-04-11T08:56:17.998Z</time></trkpt><trkpt lat="43.31605457203617" lon="11.356117915502924"><ele>225.66666666666666</ele><time>2026-04-11T08:56:19.998Z</time></trkpt><trkpt lat="43.31609593343929" lon="11.356039289659197"><ele>225.5</ele><time>2026-04-11T08:56:20.998Z</time></trkpt><trkpt lat="43.316134654077345" lon="11.355961128952574"><ele>225.33333333333331</ele><time>2026-04-11T08:56:21.998Z</time></trkpt><trkpt lat="43.31617398800366" lon="11.355884087455419"><ele>225.16666666666666</ele><time>2026-04-11T08:56:22.998Z</time></trkpt><trkpt lat="43.31624394711847" lon="11.355787923483083"><ele>225.0</ele><time>2026-04-11T08:56:24.998Z</time></trkpt><trkpt lat="43.316302976161936" lon="11.35569096354713"><ele>225.0</ele><time>2026-04-11T08:56:26.998Z</time></trkpt><trkpt lat="43.31636348969299" lon="11.355591137483723"><ele>225.0</ele><time>2026-04-11T08:56:28.998Z</time></trkpt><trkpt lat="43.31639160844322" lon="11.355454158583967"><ele>225.0</ele><time>2026-04-11T08:56:30.998Z</time></trkpt><trkpt lat="43.31634874865924" lon="11.355322151538049"><ele>225.0</ele><time>2026-04-11T08:56:32.998Z</time></trkpt><trkpt lat="43.31625795711473" lon="11.355243063889205"><ele>225.0</ele><time>2026-04-11T08:56:34.998Z</time></trkpt><trkpt lat="43.31614621124985" lon="11.355258650002298"><ele>225.0</ele><time>2026-04-11T08:56:36.998Z</time></trkpt><trkpt lat="43.31607751346498" lon="11.355321738483582"><ele>225.0</ele><time>2026-04-11T08:56:38.998Z</time></trkpt><trkpt lat="43.31604619068764" lon="11.355439198354308"><ele>225.0</ele><time>2026-04-11T08:56:40.998Z</time></trkpt><trkpt lat="43.316054741132284" lon="11.355584080936227"><ele>225.0</ele><time>2026-04-11T08:56:42.998Z</time></trkpt><trkpt lat="43.31604836445391" lon="11.355728191974157"><ele>225.0</ele><time>2026-04-11T08:56:44.998Z</time></trkpt><trkpt lat="43.31600163782551" lon="11.35582641082212"><ele>225.0</ele><time>2026-04-11T08:56:46.998Z</time></trkpt><trkpt lat="43.31594056193011" lon="11.355929993895664"><ele>225.0</ele><time>2026-04-11T08:56:48.998Z</time></trkpt><trkpt lat="43.315861553415964" lon="11.356021185969173"><ele>225.0</ele><time>2026-04-11T08:56:50.998Z</time></trkpt><trkpt lat="43.315753062513004" lon="11.355990386301622"><ele>225.0</ele><time>2026-04-11T08:56:52.998Z</time></trkpt><trkpt lat="43.31567146283279" lon="11.35591931133709"><ele>225.0</ele><time>2026-04-11T08:56:54.998Z</time></trkpt><trkpt lat="43.31558267592716" lon="11.355900197387784"><ele>225.66666666666666</ele><time>2026-04-11T08:56:56.998Z</time></trkpt><trkpt lat="43.31549411193366" lon="11.355874339513301"><ele>226.33333333333331</ele><time>2026-04-11T08:56:58.998Z</time></trkpt><trkpt lat="43.31541308269545" lon="11.355850766533512"><ele>227.0</ele><time>2026-04-11T08:57:00.998Z</time></trkpt><trkpt lat="43.315337424763335" lon="11.355837807579734"><ele>227.66666666666666</ele><time>2026-04-11T08:57:02.998Z</time></trkpt><trkpt lat="43.315265234149805" lon="11.355838543697512"><ele>228.33333333333331</ele><time>2026-04-11T08:57:04.997Z</time></trkpt><trkpt lat="43.31519863758494" lon="11.355854888644435"><ele>229.0</ele><time>2026-04-11T08:57:06.997Z</time></trkpt><trkpt lat="43.31512466429295" lon="11.355906788636695"><ele>229.0</ele><time>2026-04-11T08:57:10Z</time></trkpt><trkpt lat="43.31505535253758" lon="11.355968488412808"><ele>229.0</ele><time>2026-04-11T08:57:13Z</time></trkpt><trkpt lat="43.314999452310126" lon="11.356029969219625"><ele>229.0</ele><time>2026-04-11T08:57:17Z</time></trkpt><trkpt lat="43.31494271274253" lon="11.35607978816291"><ele>229.0</ele><time>2026-04-11T08:57:20Z</time></trkpt><trkpt lat="43.31488474730305" lon="11.356127158317964"><ele>229.0</ele><time>2026-04-11T08:57:23Z</time></trkpt><trkpt lat="43.31482632732383" lon="11.3561827451138"><ele>229.0</ele><time>2026-04-11T08:57:26Z</time></trkpt><trkpt lat="43.314757425604455" lon="11.356246012140696"><ele>229.0</ele><time>2026-04-11T08:57:29Z</time></trkpt><trkpt lat="43.31468333692339" lon="11.356310899463805"><ele>229.57142857142856</ele><time>2026-04-11T08:57:32Z</time></trkpt><trkpt lat="43.31462116234269" lon="11.35636641440758"><ele>230.14285714285717</ele><time>2026-04-11T08:57:33.999Z</time></trkpt><trkpt lat="43.314552898956364" lon="11.356416153485862"><ele>230.71428571428572</ele><time>2026-04-11T08:57:37.999Z</time></trkpt><trkpt lat="43.31448702533362" lon="11.356376807263663"><ele>231.28571428571428</ele><time>2026-04-11T08:57:40.999Z</time></trkpt><trkpt lat="43.3144331682075" lon="11.356330637770927"><ele>231.85714285714283</ele><time>2026-04-11T08:57:44.999Z</time></trkpt><trkpt lat="43.3144695261256" lon="11.356435064007139"><ele>232.42857142857144</ele><time>2026-04-11T08:57:47.999Z</time></trkpt><trkpt lat="43.314545023661104" lon="11.356455516857471"><ele>233.0</ele><time>2026-04-11T08:57:49.999Z</time></trkpt><trkpt lat="43.31462745592559" lon="11.356389745220126"><ele>232.2</ele><time>2026-04-11T08:57:51.999Z</time></trkpt><trkpt lat="43.314719172040306" lon="11.356297242224581"><ele>231.4</ele><time>2026-04-11T08:57:53.999Z</time></trkpt><trkpt lat="43.314825218763794" lon="11.356196537113284"><ele>230.59999999999997</ele><time>2026-04-11T08:57:55.999Z</time></trkpt><trkpt lat="43.31488120664966" lon="11.35614505083372"><ele>229.79999999999998</ele><time>2026-04-11T08:57:56.999Z</time></trkpt><trkpt lat="43.31493326772967" lon="11.356094391834759"><ele>229.0</ele><time>2026-04-11T08:57:57.999Z</time></trkpt><trkpt lat="43.315030935644764" lon="11.356004368768799"><ele>229.0</ele><time>2026-04-11T08:57:59.999Z</time></trkpt><trkpt lat="43.31514069528921" lon="11.355902608019965"><ele>228.99999999999997</ele><time>2026-04-11T08:58:01.999Z</time></trkpt><trkpt lat="43.315203636063934" lon="11.35585586496169"><ele>228.99999999999997</ele><time>2026-04-11T08:58:02.999Z</time></trkpt><trkpt lat="43.3152663818125" lon="11.355832873446774"><ele>229.0</ele><time>2026-04-11T08:58:03.999Z</time></trkpt><trkpt lat="43.31539424419708" lon="11.355845343260508"><ele>229.0</ele><time>2026-04-11T08:58:05.999Z</time></trkpt><trkpt lat="43.31546680588361" lon="11.355860637880843"><ele>228.99999999999997</ele><time>2026-04-11T08:58:06.999Z</time></trkpt><trkpt lat="43.31554081670771" lon="11.355885503964316"><ele>229.0</ele><time>2026-04-11T08:58:07.999Z</time></trkpt><trkpt lat="43.31560491458434" lon="11.355907307459226"><ele>229.0</ele><time>2026-04-11T08:58:08.999Z</time></trkpt><trkpt lat="43.31569517954215" lon="11.355944721223992"><ele>229.0</ele><time>2026-04-11T08:58:10.999Z</time></trkpt><trkpt lat="43.31575606953266" lon="11.356030447661942"><ele>228.99999999999997</ele><time>2026-04-11T08:58:12.999Z</time></trkpt><trkpt lat="43.31574313739807" lon="11.356130003373371"><ele>229.0</ele><time>2026-04-11T08:58:15.999Z</time></trkpt><trkpt lat="43.31569363960813" lon="11.356202968320234"><ele>228.25</ele><time>2026-04-11T08:58:18.999Z</time></trkpt><trkpt lat="43.315653261229215" lon="11.35627863357001"><ele>227.5</ele><time>2026-04-11T08:58:20.999Z</time></trkpt><trkpt lat="43.31561115214748" lon="11.356398734747723"><ele>226.75</ele><time>2026-04-11T08:58:22.998Z</time></trkpt><trkpt lat="43.31555547570243" lon="11.356497498490752"><ele>226.0</ele><time>2026-04-11T08:58:24.998Z</time></trkpt><trkpt lat="43.31575754274214" lon="11.35636794262822"><ele>225.8</ele><time>2026-04-11T08:58:31.998Z</time></trkpt><trkpt lat="43.315835850015844" lon="11.356281286520812"><ele>225.60000000000002</ele><time>2026-04-11T08:58:33.998Z</time></trkpt><trkpt lat="43.31591269118103" lon="11.356204493353648"><ele>225.4</ele><time>2026-04-11T08:58:35.998Z</time></trkpt><trkpt lat="43.3159932409797" lon="11.356119001979094"><ele>225.2</ele><time>2026-04-11T08:58:37.998Z</time></trkpt><trkpt lat="43.31605916175595" lon="11.35602412129449"><ele>225.0</ele><time>2026-04-11T08:58:39.998Z</time></trkpt><trkpt lat="43.3161294949061" lon="11.355920707640253"><ele>225.0</ele><time>2026-04-11T08:58:41.998Z</time></trkpt><trkpt lat="43.316202508081304" lon="11.3558274868068"><ele>225.0</ele><time>2026-04-11T08:58:43.998Z</time></trkpt><trkpt lat="43.316273385251826" lon="11.355729909829403"><ele>225.0</ele><time>2026-04-11T08:58:45.998Z</time></trkpt><trkpt lat="43.31634597980056" lon="11.355620241199862"><ele>225.0</ele><time>2026-04-11T08:58:47.998Z</time></trkpt><trkpt lat="43.3163872872734" lon="11.355478691009605"><ele>225.0</ele><time>2026-04-11T08:58:49.998Z</time></trkpt><trkpt lat="43.31635308775244" lon="11.355332100997407"><ele>225.5</ele><time>2026-04-11T08:58:51.998Z</time></trkpt><trkpt lat="43.31625814651532" lon="11.35523915466245"><ele>226.0</ele><time>2026-04-11T08:58:53.998Z</time></trkpt><trkpt lat="43.31614199399482" lon="11.355205927101858"><ele>226.5</ele><time>2026-04-11T08:58:55.998Z</time></trkpt><trkpt lat="43.31604002318204" lon="11.355152661070262"><ele>227.0</ele><time>2026-04-11T08:58:57.998Z</time></trkpt><trkpt lat="43.31597666843989" lon="11.35503440533227"><ele>227.00000000000003</ele><time>2026-04-11T08:58:59.998Z</time></trkpt><trkpt lat="43.31594815871937" lon="11.354911492919594"><ele>227.0</ele><time>2026-04-11T08:59:01.998Z</time></trkpt><trkpt lat="43.315908662109884" lon="11.354809204882134"><ele>227.0</ele><time>2026-04-11T08:59:03.998Z</time></trkpt><trkpt lat="43.31587851968991" lon="11.354709700959926"><ele>227.0</ele><time>2026-04-11T08:59:05.998Z</time></trkpt><trkpt lat="43.315849840598034" lon="11.354607474962206"><ele>227.00000000000003</ele><time>2026-04-11T08:59:07.998Z</time></trkpt><trkpt lat="43.3158254468472" lon="11.354503509512554"><ele>227.0</ele><time>2026-04-11T08:59:09.998Z</time></trkpt><trkpt lat="43.315795717064084" lon="11.354401690458847"><ele>227.66666666666669</ele><time>2026-04-11T08:59:11.998Z</time></trkpt><trkpt lat="43.3157735832991" lon="11.354292973040797"><ele>228.33333333333334</ele><time>2026-04-11T08:59:14Z</time></trkpt><trkpt lat="43.31574629756197" lon="11.35418929782804"><ele>229.0</ele><time>2026-04-11T08:59:16Z</time></trkpt><trkpt lat="43.31571647958365" lon="11.354088272989404"><ele>229.66666666666669</ele><time>2026-04-11T08:59:18Z</time></trkpt><trkpt lat="43.3156863831172" lon="11.35399486567072"><ele>230.33333333333334</ele><time>2026-04-11T08:59:20Z</time></trkpt><trkpt lat="43.31566253111646" lon="11.353898259573908"><ele>231.0</ele><time>2026-04-11T08:59:22Z</time></trkpt><trkpt lat="43.31563169833813" lon="11.353805450864606"><ele>231.5</ele><time>2026-04-11T08:59:24Z</time></trkpt><trkpt lat="43.31560548029603" lon="11.353707866420601"><ele>232.0</ele><time>2026-04-11T08:59:26Z</time></trkpt><trkpt lat="43.31558307420897" lon="11.353605111958867"><ele>232.5</ele><time>2026-04-11T08:59:28Z</time></trkpt><trkpt lat="43.31555357389608" lon="11.353505798276828"><ele>233.0</ele><time>2026-04-11T08:59:30Z</time></trkpt><trkpt lat="43.31552215358804" lon="11.353410021537984"><ele>233.5</ele><time>2026-04-11T08:59:32Z</time></trkpt><trkpt lat="43.31550221655202" lon="11.35331292781174"><ele>234.0</ele><time>2026-04-11T08:59:34Z</time></trkpt><trkpt lat="43.315470694055705" lon="11.353220635718046"><ele>234.0</ele><time>2026-04-11T08:59:36Z</time></trkpt><trkpt lat="43.31544785174339" lon="11.353125837796131"><ele>234.00000000000003</ele><time>2026-04-11T08:59:38Z</time></trkpt><trkpt lat="43.31542094702156" lon="11.353038363718762"><ele>234.0</ele><time>2026-04-11T08:59:40Z</time></trkpt><trkpt lat="43.315389884336646" lon="11.352962103282671"><ele>234.0</ele><time>2026-04-11T08:59:41.999Z</time></trkpt><trkpt lat="43.31535849451453" lon="11.352878511438089"><ele>234.00000000000003</ele><time>2026-04-11T08:59:43.999Z</time></trkpt><trkpt lat="43.315327179358846" lon="11.352798495616586"><ele>234.0</ele><time>2026-04-11T08:59:45.999Z</time></trkpt><trkpt lat="43.31530697438537" lon="11.352704525376508"><ele>234.0</ele><time>2026-04-11T08:59:47.999Z</time></trkpt><trkpt lat="43.315287183993945" lon="11.352608486539172"><ele>234.5</ele><time>2026-04-11T08:59:49.999Z</time></trkpt><trkpt lat="43.315262801098356" lon="11.352511880373864"><ele>235.0</ele><time>2026-04-11T08:59:51.999Z</time></trkpt><trkpt lat="43.315230920593756" lon="11.352416425271624"><ele>235.5</ele><time>2026-04-11T08:59:54.999Z</time></trkpt><trkpt lat="43.31519485888548" lon="11.352298955181066"><ele>236.0</ele><time>2026-04-11T08:59:57.999Z</time></trkpt><trkpt lat="43.31516301372322" lon="11.352178892914605"><ele>236.5</ele><time>2026-04-11T09:00:00.999Z</time></trkpt><trkpt lat="43.315136052236625" lon="11.352091385808455"><ele>237.0</ele><time>2026-04-11T09:00:02.999Z</time></trkpt><trkpt lat="43.315105955882736" lon="11.352008663842325"><ele>237.99999999999997</ele><time>2026-04-11T09:00:04.999Z</time></trkpt><trkpt lat="43.315073279003144" lon="11.351930784568701"><ele>239.0</ele><time>2026-04-11T09:00:06.999Z</time></trkpt><trkpt lat="43.31503548319208" lon="11.351846439432032"><ele>239.99999999999997</ele><time>2026-04-11T09:00:08.999Z</time></trkpt><trkpt lat="43.31500366986489" lon="11.351751170418831"><ele>240.99999999999997</ele><time>2026-04-11T09:00:10.999Z</time></trkpt><trkpt lat="43.314967291832495" lon="11.351657260106414"><ele>242.0</ele><time>2026-04-11T09:00:12.999Z</time></trkpt><trkpt lat="43.31492460964085" lon="11.35157428670664"><ele>242.99999999999997</ele><time>2026-04-11T09:00:14.999Z</time></trkpt><trkpt lat="43.31488462230415" lon="11.351494455382118"><ele>243.99999999999997</ele><time>2026-04-11T09:00:16.999Z</time></trkpt><trkpt lat="43.3148297999235" lon="11.351380740051418"><ele>243.83333333333331</ele><time>2026-04-11T09:00:18.999Z</time></trkpt><trkpt lat="43.31478493034595" lon="11.351289984976656"><ele>243.66666666666666</ele><time>2026-04-11T09:00:20.999Z</time></trkpt><trkpt lat="43.314740427915545" lon="11.35121102795131"><ele>243.5</ele><time>2026-04-11T09:00:22.999Z</time></trkpt><trkpt lat="43.31469349679859" lon="11.35112539540333"><ele>243.33333333333331</ele><time>2026-04-11T09:00:24.999Z</time></trkpt><trkpt lat="43.314644411165204" lon="11.351049705798244"><ele>243.16666666666666</ele><time>2026-04-11T09:00:26.999Z</time></trkpt><trkpt lat="43.314596788082056" lon="11.350973477275243"><ele>243.0</ele><time>2026-04-11T09:00:28.999Z</time></trkpt><trkpt lat="43.31454399957483" lon="11.350900850101809"><ele>243.0</ele><time>2026-04-11T09:00:30.998Z</time></trkpt><trkpt lat="43.31449299564871" lon="11.350826536389821"><ele>243.0</ele><time>2026-04-11T09:00:32.998Z</time></trkpt><trkpt lat="43.314442156162364" lon="11.350748972140966"><ele>243.0</ele><time>2026-04-11T09:00:34.998Z</time></trkpt><trkpt lat="43.314397587948214" lon="11.35066257429617"><ele>243.0</ele><time>2026-04-11T09:00:36.998Z</time></trkpt><trkpt lat="43.31436823679936" lon="11.350566398363437"><ele>243.0</ele><time>2026-04-11T09:00:38.998Z</time></trkpt><trkpt lat="43.31435820625792" lon="11.350463046093365"><ele>243.0</ele><time>2026-04-11T09:00:40.998Z</time></trkpt><trkpt lat="43.314352693255664" lon="11.350364603218848"><ele>243.5</ele><time>2026-04-11T09:00:42.998Z</time></trkpt><trkpt lat="43.314362429890295" lon="11.35026698782741"><ele>244.0</ele><time>2026-04-11T09:00:44.998Z</time></trkpt><trkpt lat="43.31437623650697" lon="11.350172783688462"><ele>244.5</ele><time>2026-04-11T09:00:46.998Z</time></trkpt><trkpt lat="43.31441602876346" lon="11.350091677428738"><ele>245.0</ele><time>2026-04-11T09:00:48.998Z</time></trkpt><trkpt lat="43.314457361283324" lon="11.350024876760026"><ele>245.5</ele><time>2026-04-11T09:00:50.998Z</time></trkpt><trkpt lat="43.314535882203906" lon="11.349963091823067"><ele>246.0</ele><time>2026-04-11T09:00:53.998Z</time></trkpt><trkpt lat="43.31462317111362" lon="11.34995117642518"><ele>246.0</ele><time>2026-04-11T09:00:56.998Z</time></trkpt><trkpt lat="43.314710869524724" lon="11.349952156944413"><ele>246.0</ele><time>2026-04-11T09:00:59.998Z</time></trkpt><trkpt lat="43.314794647213" lon="11.349938840316025"><ele>246.0</ele><time>2026-04-11T09:01:02.998Z</time></trkpt><trkpt lat="43.31487827612663" lon="11.349912896714013"><ele>246.0</ele><time>2026-04-11T09:01:05.998Z</time></trkpt><trkpt lat="43.314960758236" lon="11.349864587418743"><ele>246.0</ele><time>2026-04-11T09:01:08.998Z</time></trkpt><trkpt lat="43.315033479752415" lon="11.349789825955156"><ele>246.0</ele><time>2026-04-11T09:01:11.998Z</time></trkpt><trkpt lat="43.31508918742389" lon="11.349686152081542"><ele>249.0</ele><time>2026-04-11T09:01:14.998Z</time></trkpt><trkpt lat="43.31512126735567" lon="11.349567552836815"><ele>252.0</ele><time>2026-04-11T09:01:17.998Z</time></trkpt><trkpt lat="43.31513205044571" lon="11.349445375047985"><ele>255.0</ele><time>2026-04-11T09:01:21Z</time></trkpt><trkpt lat="43.315119236522925" lon="11.349359785716699"><ele>258.0</ele><time>2026-04-11T09:01:23Z</time></trkpt><trkpt lat="43.315088135186535" lon="11.349239905932516"><ele>261.0</ele><time>2026-04-11T09:01:26Z</time></trkpt><trkpt lat="43.315032093328036" lon="11.349138865733746"><ele>264.0</ele><time>2026-04-11T09:01:29Z</time></trkpt><trkpt lat="43.31495799199201" lon="11.349063471823923"><ele>264.0</ele><time>2026-04-11T09:01:32Z</time></trkpt><trkpt lat="43.314898791633524" lon="11.349020421940523"><ele>264.0</ele><time>2026-04-11T09:01:34Z</time></trkpt><trkpt lat="43.314833357314896" lon="11.348986005558869"><ele>264.0</ele><time>2026-04-11T09:01:36Z</time></trkpt><trkpt lat="43.31477261967431" lon="11.348952196049447"><ele>264.0</ele><time>2026-04-11T09:01:38Z</time></trkpt><trkpt lat="43.31468728270962" lon="11.348909887798563"><ele>264.0</ele><time>2026-04-11T09:01:41Z</time></trkpt><trkpt lat="43.31461928874927" lon="11.348831935952864"><ele>264.0</ele><time>2026-04-11T09:01:44Z</time></trkpt><trkpt lat="43.31456850793224" lon="11.34873297854503"><ele>262.5</ele><time>2026-04-11T09:01:46.999Z</time></trkpt><trkpt lat="43.3145376239975" lon="11.34862592908525"><ele>261.0</ele><time>2026-04-11T09:01:49.999Z</time></trkpt><trkpt lat="43.31453689304794" lon="11.348504277728411"><ele>259.5</ele><time>2026-04-11T09:01:52.999Z</time></trkpt><trkpt lat="43.31454683646076" lon="11.34841855104243"><ele>258.0</ele><time>2026-04-11T09:01:54.999Z</time></trkpt><trkpt lat="43.31456740159579" lon="11.34829628070035"><ele>256.5</ele><time>2026-04-11T09:01:57.999Z</time></trkpt><trkpt lat="43.314588658845445" lon="11.348208656503596"><ele>255.0</ele><time>2026-04-11T09:01:59.999Z</time></trkpt><trkpt lat="43.31461885907519" lon="11.34812157039334"><ele>254.71428571428572</ele><time>2026-04-11T09:02:01.999Z</time></trkpt><trkpt lat="43.31465119693428" lon="11.348042495696118"><ele>254.42857142857144</ele><time>2026-04-11T09:02:03.999Z</time></trkpt><trkpt lat="43.31470575454166" lon="11.347933337179104"><ele>254.14285714285717</ele><time>2026-04-11T09:02:06.999Z</time></trkpt><trkpt lat="43.31474979255957" lon="11.347862458245565"><ele>253.8571428571429</ele><time>2026-04-11T09:02:08.999Z</time></trkpt><trkpt lat="43.314791569948675" lon="11.34778940459425"><ele>253.57142857142858</ele><time>2026-04-11T09:02:10.999Z</time></trkpt><trkpt lat="43.31483883054754" lon="11.347723179580205"><ele>253.28571428571433</ele><time>2026-04-11T09:02:12.999Z</time></trkpt><trkpt lat="43.31488297860194" lon="11.34765143062335"><ele>253.00000000000003</ele><time>2026-04-11T09:02:14.999Z</time></trkpt><trkpt lat="43.314922694577845" lon="11.34757629913929"><ele>255.14285714285717</ele><time>2026-04-11T09:02:16.999Z</time></trkpt><trkpt lat="43.31497016533036" lon="11.34751472298984"><ele>257.2857142857143</ele><time>2026-04-11T09:02:18.999Z</time></trkpt><trkpt lat="43.315012244709045" lon="11.347442633153928"><ele>259.42857142857144</ele><time>2026-04-11T09:02:20.999Z</time></trkpt><trkpt lat="43.315058889187284" lon="11.347379579021183"><ele>261.57142857142856</ele><time>2026-04-11T09:02:22.999Z</time></trkpt><trkpt lat="43.31509927755019" lon="11.347307667348094"><ele>263.7142857142857</ele><time>2026-04-11T09:02:24.999Z</time></trkpt><trkpt lat="43.31514609406789" lon="11.347228672837012"><ele>265.8571428571429</ele><time>2026-04-11T09:02:27.999Z</time></trkpt><trkpt lat="43.31520568799152" lon="11.347123446965021"><ele>268.0</ele><time>2026-04-11T09:02:30.999Z</time></trkpt><trkpt lat="43.315266266806205" lon="11.347029685894334"><ele>268.0</ele><time>2026-04-11T09:02:33.998Z</time></trkpt><trkpt lat="43.31531232843094" lon="11.34693698906137"><ele>268.0</ele><time>2026-04-11T09:02:36.998Z</time></trkpt><trkpt lat="43.315362903513446" lon="11.346836150655719"><ele>268.0</ele><time>2026-04-11T09:02:38.998Z</time></trkpt><trkpt lat="43.31541157541649" lon="11.346757698070803"><ele>268.0</ele><time>2026-04-11T09:02:41.998Z</time></trkpt><trkpt lat="43.31545683378131" lon="11.346690919622365"><ele>268.0</ele><time>2026-04-11T09:02:43.998Z</time></trkpt><trkpt lat="43.315512370287706" lon="11.346589436024201"><ele>268.0</ele><time>2026-04-11T09:02:46.998Z</time></trkpt><trkpt lat="43.31557214202306" lon="11.346490785301842"><ele>270.0</ele><time>2026-04-11T09:02:49.998Z</time></trkpt><trkpt lat="43.31562876214045" lon="11.346403067821848"><ele>272.0</ele><time>2026-04-11T09:02:52.998Z</time></trkpt><trkpt lat="43.315679687746886" lon="11.346306657334933"><ele>274.0</ele><time>2026-04-11T09:02:55.998Z</time></trkpt><trkpt lat="43.31572615444046" lon="11.346228681074619"><ele>276.0</ele><time>2026-04-11T09:02:57.998Z</time></trkpt><trkpt lat="43.31577768722617" lon="11.346133638871425"><ele>278.0</ele><time>2026-04-11T09:03:00.998Z</time></trkpt><trkpt lat="43.315832290538225" lon="11.346048381438225"><ele>280.0</ele><time>2026-04-11T09:03:03.998Z</time></trkpt><trkpt lat="43.31588141095575" lon="11.345964112528682"><ele>280.0</ele><time>2026-04-11T09:03:05.998Z</time></trkpt><trkpt lat="43.315929618330635" lon="11.345883358875847"><ele>280.0</ele><time>2026-04-11T09:03:08.998Z</time></trkpt><trkpt lat="43.31598679859926" lon="11.345790195232237"><ele>280.0</ele><time>2026-04-11T09:03:11.998Z</time></trkpt><trkpt lat="43.31603063422622" lon="11.345713148765354"><ele>280.0</ele><time>2026-04-11T09:03:14.998Z</time></trkpt><trkpt lat="43.315962564722334" lon="11.345785776157722"><ele>280.0</ele><time>2026-04-11T09:03:15.998Z</time></trkpt><trkpt lat="43.316010184452686" lon="11.345683757403712"><ele>280.0</ele><time>2026-04-11T09:03:17.998Z</time></trkpt><trkpt lat="43.31605269509638" lon="11.345589035648155"><ele>278.8333333333333</ele><time>2026-04-11T09:03:19.998Z</time></trkpt><trkpt lat="43.3160860943416" lon="11.345500320893501"><ele>277.66666666666663</ele><time>2026-04-11T09:03:22.997Z</time></trkpt><trkpt lat="43.316149124501464" lon="11.345391148000624"><ele>276.5</ele><time>2026-04-11T09:03:25Z</time></trkpt><trkpt lat="43.31620648571127" lon="11.345294793670238"><ele>275.3333333333333</ele><time>2026-04-11T09:03:27Z</time></trkpt><trkpt lat="43.31626341843545" lon="11.345207975947698"><ele>274.1666666666667</ele><time>2026-04-11T09:03:29Z</time></trkpt><trkpt lat="43.31632294536264" lon="11.345145276912568"><ele>273.0</ele><time>2026-04-11T09:03:31Z</time></trkpt><trkpt lat="43.31638564246349" lon="11.345061614267834"><ele>274.8333333333333</ele><time>2026-04-11T09:03:33Z</time></trkpt><trkpt lat="43.31644572366031" lon="11.344992768455826"><ele>276.6666666666667</ele><time>2026-04-11T09:03:36Z</time></trkpt><trkpt lat="43.31649713826557" lon="11.344891039200318"><ele>278.5</ele><time>2026-04-11T09:03:40Z</time></trkpt><trkpt lat="43.31657131045507" lon="11.344790262686582"><ele>280.33333333333337</ele><time>2026-04-11T09:03:42Z</time></trkpt><trkpt lat="43.316631460652836" lon="11.344694725120256"><ele>282.1666666666667</ele><time>2026-04-11T09:03:45Z</time></trkpt><trkpt lat="43.31666872549308" lon="11.344609646391001"><ele>284.0</ele><time>2026-04-11T09:03:48Z</time></trkpt><trkpt lat="43.316721318187376" lon="11.344508254225218"><ele>284.0</ele><time>2026-04-11T09:03:50Z</time></trkpt><trkpt lat="43.316751968871415" lon="11.344425711937868"><ele>284.0</ele><time>2026-04-11T09:03:52Z</time></trkpt><trkpt lat="43.31678001349814" lon="11.344344623995578"><ele>284.0</ele><time>2026-04-11T09:03:54.999Z</time></trkpt><trkpt lat="43.31682297826047" lon="11.344271085532574"><ele>284.0</ele><time>2026-04-11T09:04:07.999Z</time></trkpt><trkpt lat="43.31675011113985" lon="11.344209970762101"><ele>284.0</ele><time>2026-04-11T09:04:10.999Z</time></trkpt><trkpt lat="43.316681479689386" lon="11.344174372898658"><ele>284.0</ele><time>2026-04-11T09:04:12.999Z</time></trkpt><trkpt lat="43.31659951271333" lon="11.34409490876841"><ele>284.0</ele><time>2026-04-11T09:04:14.999Z</time></trkpt><trkpt lat="43.3165708280262" lon="11.344017519496479"><ele>284.0</ele><time>2026-04-11T09:04:15.999Z</time></trkpt><trkpt lat="43.31656741558939" lon="11.343920914355321"><ele>284.0</ele><time>2026-04-11T09:04:16.999Z</time></trkpt><trkpt lat="43.31660155537661" lon="11.343823067920491"><ele>284.0</ele><time>2026-04-11T09:04:17.999Z</time></trkpt><trkpt lat="43.316656122951414" lon="11.343740821279967"><ele>284.0</ele><time>2026-04-11T09:04:18.999Z</time></trkpt><trkpt lat="43.31670150244482" lon="11.343658935811233"><ele>284.0</ele><time>2026-04-11T09:04:19.999Z</time></trkpt><trkpt lat="43.316731910326425" lon="11.34355957993166"><ele>284.0</ele><time>2026-04-11T09:04:20.999Z</time></trkpt><trkpt lat="43.316747922963884" lon="11.343450944187403"><ele>283.59999999999997</ele><time>2026-04-11T09:04:21.999Z</time></trkpt><trkpt lat="43.31677739931807" lon="11.343338007834948"><ele>283.2</ele><time>2026-04-11T09:04:22.999Z</time></trkpt><trkpt lat="43.31677456707925" lon="11.34321049324604"><ele>282.79999999999995</ele><time>2026-04-11T09:04:23.999Z</time></trkpt><trkpt lat="43.31679441425887" lon="11.343085423576344"><ele>282.4</ele><time>2026-04-11T09:04:24.999Z</time></trkpt><trkpt lat="43.31681757738157" lon="11.342958210359507"><ele>282.0</ele><time>2026-04-11T09:04:25.999Z</time></trkpt><trkpt lat="43.316840739219444" lon="11.342828763521192"><ele>281.3333333333333</ele><time>2026-04-11T09:04:26.999Z</time></trkpt><trkpt lat="43.316859221550075" lon="11.342708360596912"><ele>280.6666666666667</ele><time>2026-04-11T09:04:27.999Z</time></trkpt><trkpt lat="43.31685620891803" lon="11.342599096246046"><ele>280.0</ele><time>2026-04-11T09:04:28.999Z</time></trkpt><trkpt lat="43.31682106168287" lon="11.342499442346188"><ele>279.33333333333337</ele><time>2026-04-11T09:04:29.999Z</time></trkpt><trkpt lat="43.31675342521745" lon="11.342411594161158"><ele>278.6666666666667</ele><time>2026-04-11T09:04:30.999Z</time></trkpt><trkpt lat="43.31665995304743" lon="11.342361308909254"><ele>278.0</ele><time>2026-04-11T09:04:31.999Z</time></trkpt><trkpt lat="43.31656507394512" lon="11.34233161203741"><ele>278.0</ele><time>2026-04-11T09:04:32.999Z</time></trkpt><trkpt lat="43.31647537154692" lon="11.342307988171491"><ele>278.0</ele><time>2026-04-11T09:04:33.999Z</time></trkpt><trkpt lat="43.31638733940324" lon="11.342281066576046"><ele>278.0</ele><time>2026-04-11T09:04:34.999Z</time></trkpt><trkpt lat="43.31630037265636" lon="11.342254181428617"><ele>278.0</ele><time>2026-04-11T09:04:35.999Z</time></trkpt><trkpt lat="43.31621322110678" lon="11.342223376467713"><ele>278.0</ele><time>2026-04-11T09:04:36.999Z</time></trkpt><trkpt lat="43.316130485421006" lon="11.34219577937097"><ele>278.0</ele><time>2026-04-11T09:04:37.999Z</time></trkpt><trkpt lat="43.316045623780816" lon="11.342168196077951"><ele>278.5</ele><time>2026-04-11T09:04:38.999Z</time></trkpt><trkpt lat="43.31596413265255" lon="11.342142357302304"><ele>279.0</ele><time>2026-04-11T09:04:39.999Z</time></trkpt><trkpt lat="43.315882675308984" lon="11.342120734010498"><ele>279.5</ele><time>2026-04-11T09:04:40.999Z</time></trkpt><trkpt lat="43.315801158115235" lon="11.342098198451806"><ele>280.0</ele><time>2026-04-11T09:04:41.999Z</time></trkpt><trkpt lat="43.315719922217625" lon="11.342092166001482"><ele>280.5</ele><time>2026-04-11T09:04:42.999Z</time></trkpt><trkpt lat="43.315639458017486" lon="11.342105202941356"><ele>281.0</ele><time>2026-04-11T09:04:43.999Z</time></trkpt><trkpt lat="43.31556154774529" lon="11.34213832436718"><ele>280.6666666666667</ele><time>2026-04-11T09:04:44.998Z</time></trkpt><trkpt lat="43.31548857827563" lon="11.34218337494709"><ele>280.33333333333337</ele><time>2026-04-11T09:04:45.998Z</time></trkpt><trkpt lat="43.31542097777729" lon="11.342241539503048"><ele>280.0</ele><time>2026-04-11T09:04:46.998Z</time></trkpt><trkpt lat="43.31535481299886" lon="11.342303029795994"><ele>279.6666666666667</ele><time>2026-04-11T09:04:47.998Z</time></trkpt><trkpt lat="43.315287231474706" lon="11.342362758918316"><ele>279.3333333333333</ele><time>2026-04-11T09:04:48.998Z</time></trkpt><trkpt lat="43.31522006573495" lon="11.342418550754507"><ele>279.0</ele><time>2026-04-11T09:04:49.998Z</time></trkpt><trkpt lat="43.31515269956998" lon="11.342476073925804"><ele>279.0</ele><time>2026-04-11T09:04:50.998Z</time></trkpt><trkpt lat="43.3150863205044" lon="11.342532810824057"><ele>279.0</ele><time>2026-04-11T09:04:51.998Z</time></trkpt><trkpt lat="43.31501959942579" lon="11.342590842618216"><ele>279.0</ele><time>2026-04-11T09:04:52.998Z</time></trkpt><trkpt lat="43.314952570116894" lon="11.342645097829143"><ele>279.0</ele><time>2026-04-11T09:04:53.998Z</time></trkpt><trkpt lat="43.31488327452392" lon="11.342700483550916"><ele>279.0</ele><time>2026-04-11T09:04:54.998Z</time></trkpt><trkpt lat="43.31481634316227" lon="11.342750244459124"><ele>279.0</ele><time>2026-04-11T09:04:55.998Z</time></trkpt><trkpt lat="43.314748121305605" lon="11.342804573813192"><ele>278.3333333333333</ele><time>2026-04-11T09:04:56.998Z</time></trkpt><trkpt lat="43.31467710701357" lon="11.342853710337137"><ele>277.6666666666667</ele><time>2026-04-11T09:04:57.998Z</time></trkpt><trkpt lat="43.31460278978294" lon="11.3428910899935"><ele>277.0</ele><time>2026-04-11T09:04:58.998Z</time></trkpt><trkpt lat="43.31452262361459" lon="11.342889884824933"><ele>276.33333333333337</ele><time>2026-04-11T09:04:59.998Z</time></trkpt><trkpt lat="43.314446411757935" lon="11.342837348774978"><ele>275.6666666666667</ele><time>2026-04-11T09:05:00.998Z</time></trkpt><trkpt lat="43.31438911444898" lon="11.342746552880165"><ele>275.0</ele><time>2026-04-11T09:05:01.998Z</time></trkpt><trkpt lat="43.3143576147507" lon="11.34264132477793"><ele>275.0</ele><time>2026-04-11T09:05:02.998Z</time></trkpt><trkpt lat="43.31434388352833" lon="11.342533188333128"><ele>275.0</ele><time>2026-04-11T09:05:03.998Z</time></trkpt><trkpt lat="43.314331781676294" lon="11.342427985919864"><ele>275.0</ele><time>2026-04-11T09:05:04.998Z</time></trkpt><trkpt lat="43.31431594377572" lon="11.342329054970868"><ele>275.0</ele><time>2026-04-11T09:05:05.998Z</time></trkpt><trkpt lat="43.314295891551374" lon="11.342230721390266"><ele>275.0</ele><time>2026-04-11T09:05:06.998Z</time></trkpt><trkpt lat="43.3142685860481" lon="11.342137242962487"><ele>275.0</ele><time>2026-04-11T09:05:07.998Z</time></trkpt><trkpt lat="43.31423554124428" lon="11.342047196279625"><ele>275.33333333333337</ele><time>2026-04-11T09:05:08.998Z</time></trkpt><trkpt lat="43.31418986580415" lon="11.341967618984564"><ele>275.6666666666667</ele><time>2026-04-11T09:05:09.998Z</time></trkpt><trkpt lat="43.31413052217977" lon="11.341901393283312"><ele>276.0</ele><time>2026-04-11T09:05:10.998Z</time></trkpt><trkpt lat="43.31406636664124" lon="11.341848607600978"><ele>276.3333333333333</ele><time>2026-04-11T09:05:11.998Z</time></trkpt><trkpt lat="43.31399747551938" lon="11.341806756806031"><ele>276.66666666666663</ele><time>2026-04-11T09:05:12.998Z</time></trkpt><trkpt lat="43.31392543892264" lon="11.341784935378293"><ele>277.0</ele><time>2026-04-11T09:05:13.998Z</time></trkpt><trkpt lat="43.313849082037706" lon="11.34177274708635"><ele>277.0</ele><time>2026-04-11T09:05:14.998Z</time></trkpt><trkpt lat="43.31377577106131" lon="11.341756696979024"><ele>277.0</ele><time>2026-04-11T09:05:15.998Z</time></trkpt><trkpt lat="43.31370396566156" lon="11.341738094031918"><ele>277.0</ele><time>2026-04-11T09:05:16.998Z</time></trkpt><trkpt lat="43.313627457559456" lon="11.341716234600892"><ele>277.0</ele><time>2026-04-11T09:05:17.998Z</time></trkpt><trkpt lat="43.31355456393224" lon="11.341696523045572"><ele>277.0</ele><time>2026-04-11T09:05:18.998Z</time></trkpt><trkpt lat="43.31348174960002" lon="11.341672859245318"><ele>277.0</ele><time>2026-04-11T09:05:19.998Z</time></trkpt><trkpt lat="43.31341225439252" lon="11.341644191088617"><ele>277.0</ele><time>2026-04-11T09:05:20.998Z</time></trkpt><trkpt lat="43.313343036268066" lon="11.341620233028971"><ele>277.0</ele><time>2026-04-11T09:05:21.998Z</time></trkpt><trkpt lat="43.313271306959535" lon="11.341601125467195"><ele>277.0</ele><time>2026-04-11T09:05:22.998Z</time></trkpt><trkpt lat="43.313200555547105" lon="11.341576945368011"><ele>277.0</ele><time>2026-04-11T09:05:23.998Z</time></trkpt><trkpt lat="43.313129295857316" lon="11.341555184236942"><ele>277.0</ele><time>2026-04-11T09:05:24.998Z</time></trkpt><trkpt lat="43.31306288718064" lon="11.341537933425741"><ele>277.0</ele><time>2026-04-11T09:05:25.998Z</time></trkpt><trkpt lat="43.3129988813116" lon="11.341519261620508"><ele>277.0</ele><time>2026-04-11T09:05:26.998Z</time></trkpt><trkpt lat="43.31293656700316" lon="11.341499053546965"><ele>277.0</ele><time>2026-04-11T09:05:27.998Z</time></trkpt><trkpt lat="43.31287197909949" lon="11.341474266565799"><ele>276.7142857142857</ele><time>2026-04-11T09:05:29Z</time></trkpt><trkpt lat="43.31280598615378" lon="11.341451584884037"><ele>276.4285714285714</ele><time>2026-04-11T09:05:30Z</time></trkpt><trkpt lat="43.312738124247346" lon="11.341430872989235"><ele>276.1428571428571</ele><time>2026-04-11T09:05:31Z</time></trkpt><trkpt lat="43.31267670711632" lon="11.341395777169224"><ele>275.85714285714283</ele><time>2026-04-11T09:05:32Z</time></trkpt><trkpt lat="43.31261368571864" lon="11.341358353720688"><ele>275.57142857142856</ele><time>2026-04-11T09:05:33Z</time></trkpt><trkpt lat="43.312558085509586" lon="11.341310947893211"><ele>275.2857142857143</ele><time>2026-04-11T09:05:34Z</time></trkpt><trkpt lat="43.31251647145563" lon="11.341234224885286"><ele>275.0</ele><time>2026-04-11T09:05:35Z</time></trkpt><trkpt lat="43.3124968674915" lon="11.341149917829389"><ele>274.4</ele><time>2026-04-11T09:05:36Z</time></trkpt><trkpt lat="43.31247018807167" lon="11.340995675844272"><ele>273.8</ele><time>2026-04-11T09:05:38Z</time></trkpt><trkpt lat="43.31242123977517" lon="11.340872189024683"><ele>273.2</ele><time>2026-04-11T09:05:40Z</time></trkpt><trkpt lat="43.312362844447094" lon="11.340768059016725"><ele>272.6</ele><time>2026-04-11T09:05:42Z</time></trkpt><trkpt lat="43.31229714884007" lon="11.340695933179143"><ele>272.0</ele><time>2026-04-11T09:05:44Z</time></trkpt><trkpt lat="43.31223838653098" lon="11.340635920551073"><ele>272.0</ele><time>2026-04-11T09:05:46Z</time></trkpt><trkpt lat="43.312166154955285" lon="11.340587551595753"><ele>272.0</ele><time>2026-04-11T09:05:48Z</time></trkpt><trkpt lat="43.31209351248177" lon="11.3405531843406"><ele>272.0</ele><time>2026-04-11T09:05:50Z</time></trkpt><trkpt lat="43.31203339942707" lon="11.34050684143247"><ele>272.0</ele><time>2026-04-11T09:05:52Z</time></trkpt><trkpt lat="43.311970946636826" lon="11.340450397681593"><ele>272.0</ele><time>2026-04-11T09:05:54Z</time></trkpt><trkpt lat="43.31191201278377" lon="11.340383591817053"><ele>272.0</ele><time>2026-04-11T09:05:56Z</time></trkpt><trkpt lat="43.311861588571006" lon="11.34030631686408"><ele>274.5</ele><time>2026-04-11T09:05:58Z</time></trkpt><trkpt lat="43.31181493851835" lon="11.340224099782613"><ele>277.0</ele><time>2026-04-11T09:05:59.999Z</time></trkpt><trkpt lat="43.311793233350016" lon="11.340125324269888"><ele>279.5</ele><time>2026-04-11T09:06:01.999Z</time></trkpt><trkpt lat="43.31176481371139" lon="11.340022058145308"><ele>282.0</ele><time>2026-04-11T09:06:04.999Z</time></trkpt><trkpt lat="43.311741024472546" lon="11.339913365947773"><ele>284.5</ele><time>2026-04-11T09:06:07.999Z</time></trkpt><trkpt lat="43.311735949769876" lon="11.339813797655589"><ele>287.0</ele><time>2026-04-11T09:06:10.999Z</time></trkpt><trkpt lat="43.311722808949604" lon="11.339702309621215"><ele>288.2</ele><time>2026-04-11T09:06:13.999Z</time></trkpt><trkpt lat="43.31171420525909" lon="11.339598689085767"><ele>289.4</ele><time>2026-04-11T09:06:16.999Z</time></trkpt><trkpt lat="43.31173645417625" lon="11.33949379394576"><ele>290.6</ele><time>2026-04-11T09:06:20.999Z</time></trkpt><trkpt lat="43.31170744531413" lon="11.339385482178827"><ele>291.8</ele><time>2026-04-11T09:06:26.999Z</time></trkpt><trkpt lat="43.3116115980615" lon="11.339390068777515"><ele>293.0</ele><time>2026-04-11T09:06:29.999Z</time></trkpt><trkpt lat="43.31147258459993" lon="11.339310143103557"><ele>292.0</ele><time>2026-04-11T09:06:32.999Z</time></trkpt><trkpt lat="43.311395086979005" lon="11.33932205091461"><ele>291.0</ele><time>2026-04-11T09:06:33.999Z</time></trkpt><trkpt lat="43.311316414916284" lon="11.339323300218993"><ele>290.0</ele><time>2026-04-11T09:06:34.999Z</time></trkpt><trkpt lat="43.31124458138139" lon="11.339312203697085"><ele>289.0</ele><time>2026-04-11T09:06:35.999Z</time></trkpt><trkpt lat="43.311173657513436" lon="11.339308090773688"><ele>288.0</ele><time>2026-04-11T09:06:36.999Z</time></trkpt><trkpt lat="43.31109786909118" lon="11.339310887779648"><ele>287.0</ele><time>2026-04-11T09:06:37.999Z</time></trkpt><trkpt lat="43.311019967042455" lon="11.339315696562522"><ele>287.0</ele><time>2026-04-11T09:06:38.999Z</time></trkpt><trkpt lat="43.31093639630517" lon="11.339313847999753"><ele>287.0</ele><time>2026-04-11T09:06:39.999Z</time></trkpt><trkpt lat="43.310857083723285" lon="11.339310620301873"><ele>287.0</ele><time>2026-04-11T09:06:40.999Z</time></trkpt><trkpt lat="43.310777308449985" lon="11.339306310341867"><ele>287.0</ele><time>2026-04-11T09:06:41.999Z</time></trkpt><trkpt lat="43.310677019261" lon="11.339300362416795"><ele>287.0</ele><time>2026-04-11T09:06:42.999Z</time></trkpt><trkpt lat="43.31059770310071" lon="11.339283782251933"><ele>287.0</ele><time>2026-04-11T09:06:43.999Z</time></trkpt><trkpt lat="43.31051588388534" lon="11.339268433365161"><ele>286.5</ele><time>2026-04-11T09:06:44.999Z</time></trkpt><trkpt lat="43.31042567126088" lon="11.339256939587273"><ele>286.0</ele><time>2026-04-11T09:06:45.999Z</time></trkpt><trkpt lat="43.31034197453844" lon="11.339247900194167"><ele>285.5</ele><time>2026-04-11T09:06:46.999Z</time></trkpt><trkpt lat="43.31024758900498" lon="11.339234621928028"><ele>285.0</ele><time>2026-04-11T09:06:47.999Z</time></trkpt><trkpt lat="43.31016078099132" lon="11.339221868296937"><ele>284.5</ele><time>2026-04-11T09:06:48.998Z</time></trkpt><trkpt lat="43.31007887053724" lon="11.339198001522627"><ele>284.0</ele><time>2026-04-11T09:06:49.998Z</time></trkpt><trkpt lat="43.309967051878715" lon="11.339273154391648"><ele>284.0</ele><time>2026-04-11T09:06:50.998Z</time></trkpt><trkpt lat="43.30988158259652" lon="11.339258570298268"><ele>284.0</ele><time>2026-04-11T09:06:51.998Z</time></trkpt><trkpt lat="43.30979708798384" lon="11.339243073361763"><ele>284.0</ele><time>2026-04-11T09:06:52.998Z</time></trkpt><trkpt lat="43.309704001281595" lon="11.339230100470255"><ele>284.0</ele><time>2026-04-11T09:06:53.998Z</time></trkpt><trkpt lat="43.309614229834814" lon="11.339221014643126"><ele>284.0</ele><time>2026-04-11T09:06:54.998Z</time></trkpt><trkpt lat="43.30952217680806" lon="11.339213537981776"><ele>284.0</ele><time>2026-04-11T09:06:55.998Z</time></trkpt><trkpt lat="43.309433415672764" lon="11.339197783571104"><ele>283.5</ele><time>2026-04-11T09:06:56.998Z</time></trkpt><trkpt lat="43.30935343430481" lon="11.339178597658327"><ele>283.0</ele><time>2026-04-11T09:06:57.998Z</time></trkpt><trkpt lat="43.309262665959494" lon="11.339172246489376"><ele>282.5</ele><time>2026-04-11T09:06:58.998Z</time></trkpt><trkpt lat="43.30917508133848" lon="11.339164523238285"><ele>282.0</ele><time>2026-04-11T09:06:59.998Z</time></trkpt><trkpt lat="43.309090000111965" lon="11.339158446644895"><ele>281.5</ele><time>2026-04-11T09:07:00.998Z</time></trkpt><trkpt lat="43.30900946311568" lon="11.339145103019662"><ele>281.0</ele><time>2026-04-11T09:07:01.998Z</time></trkpt><trkpt lat="43.30892086015465" lon="11.339119689225155"><ele>280.0</ele><time>2026-04-11T09:07:02.998Z</time></trkpt><trkpt lat="43.308846292808276" lon="11.33911082850652"><ele>279.0</ele><time>2026-04-11T09:07:03.998Z</time></trkpt><trkpt lat="43.30877307147338" lon="11.339100217458913"><ele>278.0</ele><time>2026-04-11T09:07:04.998Z</time></trkpt><trkpt lat="43.30869405015862" lon="11.339096939558205"><ele>277.0</ele><time>2026-04-11T09:07:05.998Z</time></trkpt><trkpt lat="43.30861297132064" lon="11.339086874621213"><ele>276.0</ele><time>2026-04-11T09:07:06.998Z</time></trkpt><trkpt lat="43.30853655240413" lon="11.339077922220696"><ele>275.0</ele><time>2026-04-11T09:07:07.998Z</time></trkpt><trkpt lat="43.30845850574103" lon="11.339070400124603"><ele>275.0</ele><time>2026-04-11T09:07:08.998Z</time></trkpt><trkpt lat="43.308382490589544" lon="11.339065908512888"><ele>275.0</ele><time>2026-04-11T09:07:09.998Z</time></trkpt><trkpt lat="43.30830848673995" lon="11.339059435717177"><ele>275.0</ele><time>2026-04-11T09:07:10.998Z</time></trkpt><trkpt lat="43.30823378756801" lon="11.33905880395312"><ele>275.0</ele><time>2026-04-11T09:07:11.998Z</time></trkpt><trkpt lat="43.30816208111856" lon="11.339060197728024"><ele>275.0</ele><time>2026-04-11T09:07:12.998Z</time></trkpt><trkpt lat="43.30809315925315" lon="11.339063662186172"><ele>275.0</ele><time>2026-04-11T09:07:13.998Z</time></trkpt><trkpt lat="43.30802364140648" lon="11.339072085108729"><ele>275.0</ele><time>2026-04-11T09:07:14.998Z</time></trkpt><trkpt lat="43.30794913469102" lon="11.339074206813649"><ele>276.0</ele><time>2026-04-11T09:07:15.998Z</time></trkpt><trkpt lat="43.30787772209447" lon="11.339072477782661"><ele>277.0</ele><time>2026-04-11T09:07:16.998Z</time></trkpt><trkpt lat="43.30781445727287" lon="11.339079408691207"><ele>278.0</ele><time>2026-04-11T09:07:17.998Z</time></trkpt><trkpt lat="43.30774770157921" lon="11.339093605984996"><ele>279.0</ele><time>2026-04-11T09:07:18.998Z</time></trkpt><trkpt lat="43.307682105974145" lon="11.339107890590453"><ele>280.0</ele><time>2026-04-11T09:07:19.998Z</time></trkpt><trkpt lat="43.30761632037144" lon="11.33911697887356"><ele>281.0</ele><time>2026-04-11T09:07:20.998Z</time></trkpt><trkpt lat="43.30755302716007" lon="11.339127942225929"><ele>282.0</ele><time>2026-04-11T09:07:21.998Z</time></trkpt><trkpt lat="43.30743516203328" lon="11.339159153915165"><ele>282.0</ele><time>2026-04-11T09:07:23.998Z</time></trkpt><trkpt lat="43.30737253687173" lon="11.339176001710404"><ele>282.0</ele><time>2026-04-11T09:07:24.998Z</time></trkpt><trkpt lat="43.30730838416356" lon="11.339188291648718"><ele>282.0</ele><time>2026-04-11T09:07:25.998Z</time></trkpt><trkpt lat="43.307243602449645" lon="11.339209617979051"><ele>282.0</ele><time>2026-04-11T09:07:26.998Z</time></trkpt><trkpt lat="43.307182548905885" lon="11.339237298737096"><ele>282.0</ele><time>2026-04-11T09:07:27.998Z</time></trkpt><trkpt lat="43.30711625071683" lon="11.339255167714644"><ele>282.0</ele><time>2026-04-11T09:07:28.998Z</time></trkpt><trkpt lat="43.307047522108064" lon="11.339275036540975"><ele>282.0</ele><time>2026-04-11T09:07:29.998Z</time></trkpt><trkpt lat="43.30697680915732" lon="11.33928612697257"><ele>281.8571428571429</ele><time>2026-04-11T09:07:30.998Z</time></trkpt><trkpt lat="43.30690529611676" lon="11.339293747563486"><ele>281.7142857142857</ele><time>2026-04-11T09:07:31.998Z</time></trkpt><trkpt lat="43.30682878239372" lon="11.33929027350353"><ele>281.57142857142856</ele><time>2026-04-11T09:07:32.998Z</time></trkpt><trkpt lat="43.30675768136496" lon="11.339269678250277"><ele>281.42857142857144</ele><time>2026-04-11T09:07:33.998Z</time></trkpt><trkpt lat="43.30668617655814" lon="11.339258772884452"><ele>281.2857142857143</ele><time>2026-04-11T09:07:35Z</time></trkpt><trkpt lat="43.30661144629635" lon="11.33924538272946"><ele>281.14285714285717</ele><time>2026-04-11T09:07:36Z</time></trkpt><trkpt lat="43.30654288483135" lon="11.33922828855415"><ele>281.0</ele><time>2026-04-11T09:07:37Z</time></trkpt><trkpt lat="43.3064603194021" lon="11.33919947904802"><ele>280.8</ele><time>2026-04-11T09:07:39Z</time></trkpt><trkpt lat="43.30639053226235" lon="11.339189397643272"><ele>280.6</ele><time>2026-04-11T09:07:41Z</time></trkpt><trkpt lat="43.306303564498506" lon="11.339136588999663"><ele>280.4</ele><time>2026-04-11T09:07:44Z</time></trkpt><trkpt lat="43.30622269305589" lon="11.339055335231548"><ele>280.2</ele><time>2026-04-11T09:07:46Z</time></trkpt><trkpt lat="43.30613377162084" lon="11.33895292792061"><ele>280.0</ele><time>2026-04-11T09:07:48Z</time></trkpt><trkpt lat="43.306039198228675" lon="11.33886120708627"><ele>280.0</ele><time>2026-04-11T09:07:50Z</time></trkpt><trkpt lat="43.30595592845041" lon="11.338755527699215"><ele>280.0</ele><time>2026-04-11T09:07:52Z</time></trkpt><trkpt lat="43.3058809287658" lon="11.338629786747807"><ele>280.0</ele><time>2026-04-11T09:07:54Z</time></trkpt><trkpt lat="43.30579645700554" lon="11.338510549983939"><ele>280.0</ele><time>2026-04-11T09:07:56Z</time></trkpt><trkpt lat="43.30575053896079" lon="11.33845091213695"><ele>280.0</ele><time>2026-04-11T09:07:57Z</time></trkpt><trkpt lat="43.305703180898256" lon="11.338386530466753"><ele>280.0</ele><time>2026-04-11T09:07:58Z</time></trkpt><trkpt lat="43.305656079716904" lon="11.338323936015303"><ele>280.0</ele><time>2026-04-11T09:07:59Z</time></trkpt><trkpt lat="43.30560805300728" lon="11.338261245517279"><ele>280.0</ele><time>2026-04-11T09:08:00Z</time></trkpt><trkpt lat="43.30555971631908" lon="11.338199586239037"><ele>280.0</ele><time>2026-04-11T09:08:01Z</time></trkpt><trkpt lat="43.305509052904185" lon="11.338134493231635"><ele>280.0</ele><time>2026-04-11T09:08:02Z</time></trkpt><trkpt lat="43.30545885573798" lon="11.338069579967028"><ele>280.0</ele><time>2026-04-11T09:08:03Z</time></trkpt><trkpt lat="43.30540828586072" lon="11.338007072291722"><ele>280.0</ele><time>2026-04-11T09:08:04Z</time></trkpt><trkpt lat="43.305356759498224" lon="11.3379362387492"><ele>279.8333333333333</ele><time>2026-04-11T09:08:04.999Z</time></trkpt><trkpt lat="43.305304457638314" lon="11.33786987258816"><ele>279.66666666666663</ele><time>2026-04-11T09:08:05.999Z</time></trkpt><trkpt lat="43.305250858909105" lon="11.337800360252324"><ele>279.5</ele><time>2026-04-11T09:08:06.999Z</time></trkpt><trkpt lat="43.30519685503181" lon="11.337729925424465"><ele>279.3333333333333</ele><time>2026-04-11T09:08:07.999Z</time></trkpt><trkpt lat="43.30513379006151" lon="11.33766889161612"><ele>279.1666666666667</ele><time>2026-04-11T09:08:08.999Z</time></trkpt><trkpt lat="43.30506385378637" lon="11.337619950727719"><ele>279.0</ele><time>2026-04-11T09:08:09.999Z</time></trkpt><trkpt lat="43.304986401287145" lon="11.337573494711132"><ele>279.0</ele><time>2026-04-11T09:08:10.999Z</time></trkpt><trkpt lat="43.304906169050085" lon="11.3375272155366"><ele>279.0</ele><time>2026-04-11T09:08:11.999Z</time></trkpt><trkpt lat="43.3048230010296" lon="11.337479529203932"><ele>279.0</ele><time>2026-04-11T09:08:12.999Z</time></trkpt><trkpt lat="43.30474264991574" lon="11.337427290653883"><ele>279.0</ele><time>2026-04-11T09:08:13.999Z</time></trkpt><trkpt lat="43.304661178407756" lon="11.337370184866698"><ele>279.0</ele><time>2026-04-11T09:08:14.999Z</time></trkpt><trkpt lat="43.30457950627988" lon="11.337307790213286"><ele>277.8</ele><time>2026-04-11T09:08:15.999Z</time></trkpt><trkpt lat="43.30449850167707" lon="11.337241403648601"><ele>276.59999999999997</ele><time>2026-04-11T09:08:16.999Z</time></trkpt><trkpt lat="43.304414703369254" lon="11.337176455894275"><ele>275.4</ele><time>2026-04-11T09:08:17.999Z</time></trkpt><trkpt lat="43.304328869280376" lon="11.337120521719234"><ele>274.2</ele><time>2026-04-11T09:08:18.999Z</time></trkpt><trkpt lat="43.304236421888" lon="11.337077942576519"><ele>273.0</ele><time>2026-04-11T09:08:19.999Z</time></trkpt><trkpt lat="43.30413683024571" lon="11.337057354531563"><ele>272.6</ele><time>2026-04-11T09:08:20.999Z</time></trkpt><trkpt lat="43.30403541570838" lon="11.337057642721255"><ele>272.20000000000005</ele><time>2026-04-11T09:08:21.999Z</time></trkpt><trkpt lat="43.3039339327067" lon="11.337089439456358"><ele>271.8</ele><time>2026-04-11T09:08:22.999Z</time></trkpt><trkpt lat="43.303833579226485" lon="11.337133704501312"><ele>271.40000000000003</ele><time>2026-04-11T09:08:23.999Z</time></trkpt><trkpt lat="43.30373618254649" lon="11.337176447736566"><ele>271.0</ele><time>2026-04-11T09:08:24.999Z</time></trkpt><trkpt lat="43.303638795608634" lon="11.337217034938849"><ele>270.8</ele><time>2026-04-11T09:08:25.999Z</time></trkpt><trkpt lat="43.30354050034463" lon="11.337259157373287"><ele>270.6</ele><time>2026-04-11T09:08:26.999Z</time></trkpt><trkpt lat="43.30344348184695" lon="11.337300324386145"><ele>270.4</ele><time>2026-04-11T09:08:27.999Z</time></trkpt><trkpt lat="43.30334618453644" lon="11.33734280233951"><ele>270.2</ele><time>2026-04-11T09:08:28.999Z</time></trkpt><trkpt lat="43.3032514812501" lon="11.33738394026335"><ele>270.0</ele><time>2026-04-11T09:08:29.999Z</time></trkpt><trkpt lat="43.303154182407575" lon="11.337427577242893"><ele>269.6</ele><time>2026-04-11T09:08:30.999Z</time></trkpt><trkpt lat="43.30306198806117" lon="11.337476346065623"><ele>269.2</ele><time>2026-04-11T09:08:31.999Z</time></trkpt><trkpt lat="43.302969418270266" lon="11.337530821172821"><ele>268.8</ele><time>2026-04-11T09:08:32.999Z</time></trkpt><trkpt lat="43.302881402806854" lon="11.33758755338612"><ele>268.4</ele><time>2026-04-11T09:08:33.999Z</time></trkpt><trkpt lat="43.30279097914194" lon="11.33765277438412"><ele>268.0</ele><time>2026-04-11T09:08:34.999Z</time></trkpt><trkpt lat="43.30270262698627" lon="11.337720334498645"><ele>268.0</ele><time>2026-04-11T09:08:35.999Z</time></trkpt><trkpt lat="43.302612827687895" lon="11.337792886879"><ele>268.0</ele><time>2026-04-11T09:08:36.999Z</time></trkpt><trkpt lat="43.30251833584803" lon="11.337860857267941"><ele>268.0</ele><time>2026-04-11T09:08:37.999Z</time></trkpt><trkpt lat="43.3024179642147" lon="11.337922015022116"><ele>268.0</ele><time>2026-04-11T09:08:38.999Z</time></trkpt><trkpt lat="43.30230762635385" lon="11.337966840232752"><ele>268.0</ele><time>2026-04-11T09:08:39.999Z</time></trkpt><trkpt lat="43.30218980899893" lon="11.337998806625988"><ele>266.5</ele><time>2026-04-11T09:08:40.999Z</time></trkpt><trkpt lat="43.30207134823646" lon="11.338031414882844"><ele>265.0</ele><time>2026-04-11T09:08:41.999Z</time></trkpt><trkpt lat="43.301952739033545" lon="11.33806260304473"><ele>263.5</ele><time>2026-04-11T09:08:42.999Z</time></trkpt><trkpt lat="43.30183245380502" lon="11.338092997107426"><ele>262.0</ele><time>2026-04-11T09:08:43.999Z</time></trkpt><trkpt lat="43.30171008786531" lon="11.338104327211393"><ele>262.0</ele><time>2026-04-11T09:08:44.999Z</time></trkpt><trkpt lat="43.30158654714566" lon="11.338101020931823"><ele>262.0</ele><time>2026-04-11T09:08:45.999Z</time></trkpt><trkpt lat="43.30146556961748" lon="11.338074582825428"><ele>262.0</ele><time>2026-04-11T09:08:46.999Z</time></trkpt><trkpt lat="43.30134542088622" lon="11.33803097157458"><ele>262.0</ele><time>2026-04-11T09:08:47.999Z</time></trkpt><trkpt lat="43.30123291867728" lon="11.337974918062176"><ele>259.75</ele><time>2026-04-11T09:08:48.999Z</time></trkpt><trkpt lat="43.301125944799146" lon="11.337912087296269"><ele>257.5</ele><time>2026-04-11T09:08:49.999Z</time></trkpt><trkpt lat="43.30102581522393" lon="11.337837242282355"><ele>255.25</ele><time>2026-04-11T09:08:50.999Z</time></trkpt><trkpt lat="43.30093225600366" lon="11.337754009340154"><ele>253.0</ele><time>2026-04-11T09:08:51.999Z</time></trkpt><trkpt lat="43.3008392563105" lon="11.337669644922396"><ele>253.0</ele><time>2026-04-11T09:08:52.999Z</time></trkpt><trkpt lat="43.300743701506505" lon="11.337588846649327"><ele>253.0</ele><time>2026-04-11T09:08:53.998Z</time></trkpt><trkpt lat="43.30064993127162" lon="11.337509226348391"><ele>253.0</ele><time>2026-04-11T09:08:54.998Z</time></trkpt><trkpt lat="43.300557804106596" lon="11.337439767200275"><ele>253.0</ele><time>2026-04-11T09:08:55.998Z</time></trkpt><trkpt lat="43.300460089807466" lon="11.337382730070619"><ele>253.0</ele><time>2026-04-11T09:08:56.998Z</time></trkpt><trkpt lat="43.300359969414274" lon="11.337338825068242"><ele>253.2</ele><time>2026-04-11T09:08:57.998Z</time></trkpt><trkpt lat="43.30025557323419" lon="11.337317485202346"><ele>253.4</ele><time>2026-04-11T09:08:58.998Z</time></trkpt><trkpt lat="43.300151776931465" lon="11.337302082773284"><ele>253.59999999999997</ele><time>2026-04-11T09:08:59.998Z</time></trkpt><trkpt lat="43.30004592997485" lon="11.337280026340798"><ele>253.79999999999998</ele><time>2026-04-11T09:09:00.998Z</time></trkpt><trkpt lat="43.29994539342779" lon="11.337261301711983"><ele>254.0</ele><time>2026-04-11T09:09:01.998Z</time></trkpt><trkpt lat="43.2998420080821" lon="11.337239105204233"><ele>252.79999999999998</ele><time>2026-04-11T09:09:02.998Z</time></trkpt><trkpt lat="43.2997415570514" lon="11.337214649993973"><ele>251.59999999999997</ele><time>2026-04-11T09:09:03.998Z</time></trkpt><trkpt lat="43.29963758843088" lon="11.337204630830254"><ele>250.4</ele><time>2026-04-11T09:09:04.998Z</time></trkpt><trkpt lat="43.299532935836375" lon="11.337211434138661"><ele>249.2</ele><time>2026-04-11T09:09:05.998Z</time></trkpt><trkpt lat="43.29943355966568" lon="11.337228749907442"><ele>248.0</ele><time>2026-04-11T09:09:06.998Z</time></trkpt><trkpt lat="43.29932931919442" lon="11.33724572149707"><ele>248.0</ele><time>2026-04-11T09:09:07.998Z</time></trkpt><trkpt lat="43.299225971348825" lon="11.337273562864793"><ele>248.0</ele><time>2026-04-11T09:09:08.998Z</time></trkpt><trkpt lat="43.29912961363224" lon="11.337298054066705"><ele>248.0</ele><time>2026-04-11T09:09:09.998Z</time></trkpt><trkpt lat="43.29903210885094" lon="11.337328178268734"><ele>248.0</ele><time>2026-04-11T09:09:10.998Z</time></trkpt><trkpt lat="43.29893758644474" lon="11.337361836324666"><ele>248.0</ele><time>2026-04-11T09:09:11.998Z</time></trkpt><trkpt lat="43.29884360909733" lon="11.337397238047812"><ele>247.2</ele><time>2026-04-11T09:09:12.998Z</time></trkpt><trkpt lat="43.298749088785556" lon="11.33744349272748"><ele>246.4</ele><time>2026-04-11T09:09:13.998Z</time></trkpt><trkpt lat="43.298658001387494" lon="11.337497862050729"><ele>245.59999999999997</ele><time>2026-04-11T09:09:14.998Z</time></trkpt><trkpt lat="43.29856809453734" lon="11.337554436641648"><ele>244.79999999999998</ele><time>2026-04-11T09:09:15.998Z</time></trkpt><trkpt lat="43.29847740024419" lon="11.337613563814893"><ele>244.0</ele><time>2026-04-11T09:09:16.998Z</time></trkpt><trkpt lat="43.29838697768625" lon="11.33767642334011"><ele>244.0</ele><time>2026-04-11T09:09:17.998Z</time></trkpt><trkpt lat="43.29829670623714" lon="11.337745125467178"><ele>243.99999999999997</ele><time>2026-04-11T09:09:18.998Z</time></trkpt><trkpt lat="43.298209546631135" lon="11.337823746765103"><ele>243.99999999999997</ele><time>2026-04-11T09:09:19.998Z</time></trkpt><trkpt lat="43.298127296029456" lon="11.337915392778191"><ele>244.0</ele><time>2026-04-11T09:09:20.998Z</time></trkpt><trkpt lat="43.29805706984267" lon="11.338025825826684"><ele>244.0</ele><time>2026-04-11T09:09:21.998Z</time></trkpt><trkpt lat="43.297989587863896" lon="11.33814416584849"><ele>243.39999999999998</ele><time>2026-04-11T09:09:22.998Z</time></trkpt><trkpt lat="43.29791785802338" lon="11.338255882446578"><ele>242.79999999999998</ele><time>2026-04-11T09:09:23.998Z</time></trkpt><trkpt lat="43.297840627933105" lon="11.338359767867313"><ele>242.20000000000002</ele><time>2026-04-11T09:09:24.998Z</time></trkpt><trkpt lat="43.29776399276947" lon="11.338459707874389"><ele>241.60000000000002</ele><time>2026-04-11T09:09:25.998Z</time></trkpt><trkpt lat="43.29768819444222" lon="11.3385656477033"><ele>241.0</ele><time>2026-04-11T09:09:26.998Z</time></trkpt><trkpt lat="43.29761665705736" lon="11.338669206315632"><ele>241.0</ele><time>2026-04-11T09:09:27.998Z</time></trkpt><trkpt lat="43.297544568498715" lon="11.338773061449299"><ele>241.00000000000003</ele><time>2026-04-11T09:09:28.998Z</time></trkpt><trkpt lat="43.29747351791383" lon="11.338872358461076"><ele>241.00000000000003</ele><time>2026-04-11T09:09:29.998Z</time></trkpt><trkpt lat="43.29740030721511" lon="11.338972468785848"><ele>241.0</ele><time>2026-04-11T09:09:30.998Z</time></trkpt><trkpt lat="43.29732631058046" lon="11.339066024080275"><ele>241.0</ele><time>2026-04-11T09:09:31.998Z</time></trkpt><trkpt lat="43.297252701571225" lon="11.339160004619105"><ele>240.8</ele><time>2026-04-11T09:09:32.998Z</time></trkpt><trkpt lat="43.29718332260344" lon="11.339253367213422"><ele>240.60000000000002</ele><time>2026-04-11T09:09:33.998Z</time></trkpt><trkpt lat="43.297111521995724" lon="11.339344908505174"><ele>240.4</ele><time>2026-04-11T09:09:34.998Z</time></trkpt><trkpt lat="43.297041376550446" lon="11.339433563796932"><ele>240.2</ele><time>2026-04-11T09:09:35.998Z</time></trkpt><trkpt lat="43.2969728933358" lon="11.33952549345337"><ele>240.0</ele><time>2026-04-11T09:09:36.998Z</time></trkpt><trkpt lat="43.29690872743166" lon="11.339619358317673"><ele>240.0</ele><time>2026-04-11T09:09:37.998Z</time></trkpt><trkpt lat="43.296844076529894" lon="11.339711087350093"><ele>240.0</ele><time>2026-04-11T09:09:38.998Z</time></trkpt><trkpt lat="43.29678481216445" lon="11.339803048467715"><ele>240.0</ele><time>2026-04-11T09:09:39.998Z</time></trkpt><trkpt lat="43.29672888506405" lon="11.339893334280497"><ele>240.0</ele><time>2026-04-11T09:09:41Z</time></trkpt><trkpt lat="43.29667493208418" lon="11.339978020978702"><ele>240.0</ele><time>2026-04-11T09:09:42Z</time></trkpt><trkpt lat="43.29662145405304" lon="11.340057160765312"><ele>240.0</ele><time>2026-04-11T09:09:43Z</time></trkpt><trkpt lat="43.296573675274296" lon="11.340137104850431"><ele>240.28571428571428</ele><time>2026-04-11T09:09:44Z</time></trkpt><trkpt lat="43.2965297496403" lon="11.340216613252956"><ele>240.57142857142856</ele><time>2026-04-11T09:09:45Z</time></trkpt><trkpt lat="43.296484812009446" lon="11.34029667943009"><ele>240.85714285714283</ele><time>2026-04-11T09:09:46Z</time></trkpt><trkpt lat="43.29644394529604" lon="11.340374426102388"><ele>241.14285714285714</ele><time>2026-04-11T09:09:47Z</time></trkpt><trkpt lat="43.29640672407741" lon="11.340455972021344"><ele>241.4285714285714</ele><time>2026-04-11T09:09:48Z</time></trkpt><trkpt lat="43.296373150072206" lon="11.340533571619488"><ele>241.7142857142857</ele><time>2026-04-11T09:09:49Z</time></trkpt><trkpt lat="43.296339674456384" lon="11.340607645395092"><ele>242.0</ele><time>2026-04-11T09:09:50Z</time></trkpt><trkpt lat="43.296275309051055" lon="11.340745829353855"><ele>242.50000000000003</ele><time>2026-04-11T09:09:52Z</time></trkpt><trkpt lat="43.29622095983474" lon="11.340863043087015"><ele>243.0</ele><time>2026-04-11T09:09:54Z</time></trkpt><trkpt lat="43.296176974637056" lon="11.340975208675678"><ele>243.5</ele><time>2026-04-11T09:09:56Z</time></trkpt><trkpt lat="43.296134275991335" lon="11.341077542240459"><ele>244.0</ele><time>2026-04-11T09:09:58Z</time></trkpt><trkpt lat="43.29609347732982" lon="11.341166563929477"><ele>244.50000000000003</ele><time>2026-04-11T09:10:00Z</time></trkpt><trkpt lat="43.29605682365251" lon="11.341242495669917"><ele>245.0</ele><time>2026-04-11T09:10:02Z</time></trkpt><trkpt lat="43.2960108211103" lon="11.341345882260821"><ele>245.0</ele><time>2026-04-11T09:10:05Z</time></trkpt><trkpt lat="43.29597918457325" lon="11.34144458800554"><ele>245.0</ele><time>2026-04-11T09:10:07Z</time></trkpt><trkpt lat="43.29593454221033" lon="11.341551788401862"><ele>245.0</ele><time>2026-04-11T09:10:09Z</time></trkpt><trkpt lat="43.29588515194699" lon="11.34166723090371"><ele>245.0</ele><time>2026-04-11T09:10:11Z</time></trkpt><trkpt lat="43.295831117928685" lon="11.341783863165537"><ele>245.0</ele><time>2026-04-11T09:10:13Z</time></trkpt><trkpt lat="43.29576815613816" lon="11.341904966924849"><ele>245.0</ele><time>2026-04-11T09:10:14.999Z</time></trkpt><trkpt lat="43.29569686032669" lon="11.34203422717236"><ele>245.0</ele><time>2026-04-11T09:10:16.999Z</time></trkpt><trkpt lat="43.29560575579031" lon="11.342147000006076"><ele>245.0</ele><time>2026-04-11T09:10:18.999Z</time></trkpt><trkpt lat="43.295496098981" lon="11.342234852431353"><ele>245.0</ele><time>2026-04-11T09:10:20.999Z</time></trkpt><trkpt lat="43.29544480909096" lon="11.342285997742142"><ele>245.0</ele><time>2026-04-11T09:10:21.999Z</time></trkpt><trkpt lat="43.295338257160175" lon="11.34238153104407"><ele>245.0</ele><time>2026-04-11T09:10:23.999Z</time></trkpt><trkpt lat="43.29528160651193" lon="11.342431953699089"><ele>245.0</ele><time>2026-04-11T09:10:24.999Z</time></trkpt><trkpt lat="43.295222355009834" lon="11.342472091699024"><ele>245.0</ele><time>2026-04-11T09:10:25.999Z</time></trkpt><trkpt lat="43.29516151930254" lon="11.342517315388728"><ele>245.0</ele><time>2026-04-11T09:10:26.999Z</time></trkpt><trkpt lat="43.29509955032415" lon="11.342557277958516"><ele>245.0</ele><time>2026-04-11T09:10:27.999Z</time></trkpt><trkpt lat="43.29504985594401" lon="11.34263203514786"><ele>245.0</ele><time>2026-04-11T09:10:28.999Z</time></trkpt><trkpt lat="43.29498762641497" lon="11.342669937843125"><ele>245.0</ele><time>2026-04-11T09:10:29.999Z</time></trkpt><trkpt lat="43.29492342851622" lon="11.34271227836683"><ele>245.0</ele><time>2026-04-11T09:10:30.999Z</time></trkpt><trkpt lat="43.294859714239166" lon="11.342750385916027"><ele>245.0</ele><time>2026-04-11T09:10:31.999Z</time></trkpt><trkpt lat="43.29479291853725" lon="11.342789471978405"><ele>245.0</ele><time>2026-04-11T09:10:32.999Z</time></trkpt><trkpt lat="43.29472698318011" lon="11.342827517288582"><ele>245.0</ele><time>2026-04-11T09:10:33.999Z</time></trkpt><trkpt lat="43.294660303906056" lon="11.342863796260035"><ele>245.0</ele><time>2026-04-11T09:10:34.999Z</time></trkpt><trkpt lat="43.294593179863156" lon="11.34290037370969"><ele>245.0</ele><time>2026-04-11T09:10:35.999Z</time></trkpt><trkpt lat="43.29452549269888" lon="11.342934136014012"><ele>245.0</ele><time>2026-04-11T09:10:36.999Z</time></trkpt><trkpt lat="43.29445758971284" lon="11.342970272712565"><ele>244.85714285714286</ele><time>2026-04-11T09:10:37.999Z</time></trkpt><trkpt lat="43.29439023192701" lon="11.343002455339631"><ele>244.71428571428572</ele><time>2026-04-11T09:10:38.999Z</time></trkpt><trkpt lat="43.294321684618055" lon="11.34303424276391"><ele>244.57142857142856</ele><time>2026-04-11T09:10:39.999Z</time></trkpt><trkpt lat="43.29425327982971" lon="11.343068424404455"><ele>244.42857142857142</ele><time>2026-04-11T09:10:40.999Z</time></trkpt><trkpt lat="43.2941806396526" lon="11.343091261569919"><ele>244.28571428571428</ele><time>2026-04-11T09:10:41.999Z</time></trkpt><trkpt lat="43.29411002777381" lon="11.343116103736175"><ele>244.1428571428571</ele><time>2026-04-11T09:10:42.999Z</time></trkpt><trkpt lat="43.29403926466395" lon="11.343136406419626"><ele>243.99999999999997</ele><time>2026-04-11T09:10:43.999Z</time></trkpt><trkpt lat="43.2939669067668" lon="11.343151909582314"><ele>243.85714285714283</ele><time>2026-04-11T09:10:44.999Z</time></trkpt><trkpt lat="43.29389574683672" lon="11.343170562691228"><ele>243.71428571428572</ele><time>2026-04-11T09:10:45.999Z</time></trkpt><trkpt lat="43.293823412881025" lon="11.343189818950444"><ele>243.57142857142856</ele><time>2026-04-11T09:10:46.999Z</time></trkpt><trkpt lat="43.293750959104784" lon="11.343205388214859"><ele>243.42857142857142</ele><time>2026-04-11T09:10:47.999Z</time></trkpt><trkpt lat="43.293679963919196" lon="11.343222894270323"><ele>243.28571428571428</ele><time>2026-04-11T09:10:48.999Z</time></trkpt><trkpt lat="43.293606878081725" lon="11.343240605236005"><ele>243.14285714285714</ele><time>2026-04-11T09:10:49.999Z</time></trkpt><trkpt lat="43.29353602894325" lon="11.343259089980407"><ele>243.0</ele><time>2026-04-11T09:10:50.999Z</time></trkpt><trkpt lat="43.29346894975819" lon="11.343276231035079"><ele>243.0</ele><time>2026-04-11T09:10:51.999Z</time></trkpt><trkpt lat="43.293399716236316" lon="11.343294900628344"><ele>243.0</ele><time>2026-04-11T09:10:52.999Z</time></trkpt><trkpt lat="43.293331498249266" lon="11.34331047295319"><ele>243.0</ele><time>2026-04-11T09:10:53.999Z</time></trkpt><trkpt lat="43.29326186914444" lon="11.343322648188453"><ele>243.0</ele><time>2026-04-11T09:10:54.999Z</time></trkpt><trkpt lat="43.29319467694663" lon="11.343343286933907"><ele>243.0</ele><time>2026-04-11T09:10:55.999Z</time></trkpt><trkpt lat="43.29312986619517" lon="11.343361169382526"><ele>243.0</ele><time>2026-04-11T09:10:56.999Z</time></trkpt><trkpt lat="43.29306598000968" lon="11.34338305367778"><ele>243.0</ele><time>2026-04-11T09:10:57.999Z</time></trkpt><trkpt lat="43.29300149560089" lon="11.343407359420564"><ele>243.57142857142856</ele><time>2026-04-11T09:10:58.999Z</time></trkpt><trkpt lat="43.292938593869934" lon="11.343427455892165"><ele>244.14285714285717</ele><time>2026-04-11T09:10:59.999Z</time></trkpt><trkpt lat="43.29287495880678" lon="11.343447404559138"><ele>244.71428571428572</ele><time>2026-04-11T09:11:00.999Z</time></trkpt><trkpt lat="43.29281296971292" lon="11.343473679725568"><ele>245.28571428571428</ele><time>2026-04-11T09:11:01.999Z</time></trkpt><trkpt lat="43.29275069794513" lon="11.343498552204156"><ele>245.85714285714283</ele><time>2026-04-11T09:11:02.999Z</time></trkpt><trkpt lat="43.29268752518332" lon="11.343524806437362"><ele>246.42857142857144</ele><time>2026-04-11T09:11:03.998Z</time></trkpt><trkpt lat="43.29262324706518" lon="11.343551628981311"><ele>247.0</ele><time>2026-04-11T09:11:04.998Z</time></trkpt><trkpt lat="43.29256146780913" lon="11.343578589779835"><ele>246.99999999999997</ele><time>2026-04-11T09:11:05.998Z</time></trkpt><trkpt lat="43.2924983266571" lon="11.343605454094948"><ele>247.0</ele><time>2026-04-11T09:11:06.998Z</time></trkpt><trkpt lat="43.292379601063956" lon="11.343654163954605"><ele>247.0</ele><time>2026-04-11T09:11:08.998Z</time></trkpt><trkpt lat="43.292320888505394" lon="11.343687275328781"><ele>247.0</ele><time>2026-04-11T09:11:09.998Z</time></trkpt><trkpt lat="43.29220369933487" lon="11.343734062297754"><ele>246.99999999999997</ele><time>2026-04-11T09:11:11.998Z</time></trkpt><trkpt lat="43.29214211438422" lon="11.343754196649638"><ele>247.0</ele><time>2026-04-11T09:11:12.998Z</time></trkpt><trkpt lat="43.29202758746514" lon="11.34379527292574"><ele>246.25</ele><time>2026-04-11T09:11:14.998Z</time></trkpt><trkpt lat="43.29191214781534" lon="11.343825216000013"><ele>245.5</ele><time>2026-04-11T09:11:16.998Z</time></trkpt><trkpt lat="43.29179206249929" lon="11.343842916527267"><ele>244.75</ele><time>2026-04-11T09:11:18.998Z</time></trkpt><trkpt lat="43.29167391184361" lon="11.343867930081577"><ele>244.0</ele><time>2026-04-11T09:11:20.998Z</time></trkpt><trkpt lat="43.291553840352364" lon="11.343893543577092"><ele>244.0</ele><time>2026-04-11T09:11:22.998Z</time></trkpt><trkpt lat="43.29143480869055" lon="11.343913971568531"><ele>243.99999999999997</ele><time>2026-04-11T09:11:24.998Z</time></trkpt><trkpt lat="43.29131151704748" lon="11.343934585609135"><ele>243.99999999999997</ele><time>2026-04-11T09:11:26.998Z</time></trkpt><trkpt lat="43.291248853829224" lon="11.343945168724602"><ele>244.0</ele><time>2026-04-11T09:11:27.998Z</time></trkpt><trkpt lat="43.29112340454138" lon="11.343956215494497"><ele>244.0</ele><time>2026-04-11T09:11:29.998Z</time></trkpt><trkpt lat="43.29099831206654" lon="11.343970322721022"><ele>243.99999999999997</ele><time>2026-04-11T09:11:31.998Z</time></trkpt><trkpt lat="43.290870412787335" lon="11.343974347228489"><ele>244.0</ele><time>2026-04-11T09:11:33.998Z</time></trkpt><trkpt lat="43.29080617155915" lon="11.343974881683275"><ele>244.0</ele><time>2026-04-11T09:11:34.998Z</time></trkpt><trkpt lat="43.290740618063495" lon="11.343977285721563"><ele>244.0</ele><time>2026-04-11T09:11:35.998Z</time></trkpt><trkpt lat="43.290674984203726" lon="11.34397475327087"><ele>243.99999999999997</ele><time>2026-04-11T09:11:36.998Z</time></trkpt><trkpt lat="43.290611013622744" lon="11.3439747216602"><ele>244.0</ele><time>2026-04-11T09:11:37.998Z</time></trkpt><trkpt lat="43.290545220791415" lon="11.343973988910308"><ele>244.49999999999997</ele><time>2026-04-11T09:11:38.998Z</time></trkpt><trkpt lat="43.290477444836355" lon="11.343966617643542"><ele>245.0</ele><time>2026-04-11T09:11:39.998Z</time></trkpt><trkpt lat="43.29041304264269" lon="11.343956416088442"><ele>245.5</ele><time>2026-04-11T09:11:40.998Z</time></trkpt><trkpt lat="43.29034816661768" lon="11.343948180407379"><ele>246.0</ele><time>2026-04-11T09:11:41.998Z</time></trkpt><trkpt lat="43.290283036521146" lon="11.343932018428282"><ele>246.49999999999997</ele><time>2026-04-11T09:11:42.998Z</time></trkpt><trkpt lat="43.290218265431236" lon="11.343917797182522"><ele>247.0</ele><time>2026-04-11T09:11:43.998Z</time></trkpt><trkpt lat="43.2900955043552" lon="11.343880910734102"><ele>247.0</ele><time>2026-04-11T09:11:45.998Z</time></trkpt><trkpt lat="43.2899765940605" lon="11.343846317247369"><ele>247.0</ele><time>2026-04-11T09:11:48Z</time></trkpt><trkpt lat="43.289860410562724" lon="11.343812996136451"><ele>247.0</ele><time>2026-04-11T09:11:50Z</time></trkpt><trkpt lat="43.28974764377647" lon="11.343787788678194"><ele>247.0</ele><time>2026-04-11T09:11:52Z</time></trkpt><trkpt lat="43.28963557470807" lon="11.34376995288404"><ele>247.25</ele><time>2026-04-11T09:11:54Z</time></trkpt><trkpt lat="43.28952673101259" lon="11.343773792873236"><ele>247.5</ele><time>2026-04-11T09:11:56Z</time></trkpt><trkpt lat="43.28941096248722" lon="11.343793135874686"><ele>247.75</ele><time>2026-04-11T09:11:58Z</time></trkpt><trkpt lat="43.28929186828506" lon="11.343815509837455"><ele>248.0</ele><time>2026-04-11T09:12:00Z</time></trkpt><trkpt lat="43.28917663658226" lon="11.343844751436794"><ele>248.0</ele><time>2026-04-11T09:12:02Z</time></trkpt><trkpt lat="43.28906436512892" lon="11.343872461499222"><ele>248.0</ele><time>2026-04-11T09:12:04Z</time></trkpt><trkpt lat="43.28894272191477" lon="11.343900782916872"><ele>248.0</ele><time>2026-04-11T09:12:06Z</time></trkpt><trkpt lat="43.28882352855199" lon="11.343918020471504"><ele>248.0</ele><time>2026-04-11T09:12:08Z</time></trkpt><trkpt lat="43.28875698560809" lon="11.343926932324766"><ele>248.0</ele><time>2026-04-11T09:12:09Z</time></trkpt><trkpt lat="43.28868472113976" lon="11.34388893690077"><ele>247.57142857142858</ele><time>2026-04-11T09:12:10Z</time></trkpt><trkpt lat="43.288616563664775" lon="11.343903891501007"><ele>247.14285714285717</ele><time>2026-04-11T09:12:11Z</time></trkpt><trkpt lat="43.2885455653798" lon="11.343919469478669"><ele>246.71428571428572</ele><time>2026-04-11T09:12:12Z</time></trkpt><trkpt lat="43.288473072492096" lon="11.34393537613415"><ele>246.28571428571428</ele><time>2026-04-11T09:12:13Z</time></trkpt><trkpt lat="43.28840290514964" lon="11.34395316644866"><ele>245.85714285714286</ele><time>2026-04-11T09:12:14Z</time></trkpt><trkpt lat="43.28832980824149" lon="11.343973228491633"><ele>245.42857142857144</ele><time>2026-04-11T09:12:15Z</time></trkpt><trkpt lat="43.28826774998187" lon="11.34404472499605"><ele>245.0</ele><time>2026-04-11T09:12:16Z</time></trkpt><trkpt lat="43.28819793838686" lon="11.344067764374529"><ele>245.0</ele><time>2026-04-11T09:12:17Z</time></trkpt><trkpt lat="43.288129395504754" lon="11.344095907729985"><ele>245.0</ele><time>2026-04-11T09:12:18Z</time></trkpt><trkpt lat="43.28806076131105" lon="11.34412668996901"><ele>245.0</ele><time>2026-04-11T09:12:19Z</time></trkpt><trkpt lat="43.28799395765442" lon="11.344159130643456"><ele>245.0</ele><time>2026-04-11T09:12:20Z</time></trkpt><trkpt lat="43.28792594355931" lon="11.34418915064506"><ele>245.0</ele><time>2026-04-11T09:12:20.999Z</time></trkpt><trkpt lat="43.287860402608715" lon="11.344226949565314"><ele>245.0</ele><time>2026-04-11T09:12:21.999Z</time></trkpt><trkpt lat="43.287796892586535" lon="11.344274612030658"><ele>245.0</ele><time>2026-04-11T09:12:22.999Z</time></trkpt><trkpt lat="43.287735151282234" lon="11.344332358209053"><ele>245.42857142857144</ele><time>2026-04-11T09:12:23.999Z</time></trkpt><trkpt lat="43.28767447632442" lon="11.344389570258954"><ele>245.85714285714286</ele><time>2026-04-11T09:12:24.999Z</time></trkpt><trkpt lat="43.28761440799267" lon="11.344449148096203"><ele>246.28571428571428</ele><time>2026-04-11T09:12:25.999Z</time></trkpt><trkpt lat="43.28755857157176" lon="11.344514791766688"><ele>246.71428571428572</ele><time>2026-04-11T09:12:26.999Z</time></trkpt><trkpt lat="43.28750486158982" lon="11.34458833454029"><ele>247.14285714285717</ele><time>2026-04-11T09:12:27.999Z</time></trkpt><trkpt lat="43.287454290987775" lon="11.344657836998824"><ele>247.57142857142858</ele><time>2026-04-11T09:12:28.999Z</time></trkpt><trkpt lat="43.287398403337534" lon="11.344729983242434"><ele>248.0</ele><time>2026-04-11T09:12:29.999Z</time></trkpt><trkpt lat="43.28734440914176" lon="11.34480400319601"><ele>247.42857142857144</ele><time>2026-04-11T09:12:30.999Z</time></trkpt><trkpt lat="43.28729117505107" lon="11.344875693486884"><ele>246.8571428571429</ele><time>2026-04-11T09:12:31.999Z</time></trkpt><trkpt lat="43.287241196006704" lon="11.34494790308751"><ele>246.28571428571428</ele><time>2026-04-11T09:12:32.999Z</time></trkpt><trkpt lat="43.28719255546588" lon="11.345027385567654"><ele>245.71428571428572</ele><time>2026-04-11T09:12:33.999Z</time></trkpt><trkpt lat="43.28714546040669" lon="11.345103805672348"><ele>245.14285714285714</ele><time>2026-04-11T09:12:34.999Z</time></trkpt><trkpt lat="43.28709763517254" lon="11.345185485503691"><ele>244.57142857142856</ele><time>2026-04-11T09:12:35.999Z</time></trkpt><trkpt lat="43.287054503823335" lon="11.345265957407728"><ele>243.99999999999997</ele><time>2026-04-11T09:12:36.999Z</time></trkpt><trkpt lat="43.28701173457569" lon="11.345348972928356"><ele>243.99999999999997</ele><time>2026-04-11T09:12:37.999Z</time></trkpt><trkpt lat="43.28697149279592" lon="11.345436836060793"><ele>244.0</ele><time>2026-04-11T09:12:38.999Z</time></trkpt><trkpt lat="43.28693132250938" lon="11.345522462883652"><ele>244.0</ele><time>2026-04-11T09:12:39.999Z</time></trkpt><trkpt lat="43.28689237154705" lon="11.345612940646468"><ele>244.0</ele><time>2026-04-11T09:12:40.999Z</time></trkpt><trkpt lat="43.28685786995613" lon="11.345704457046077"><ele>243.99999999999997</ele><time>2026-04-11T09:12:41.999Z</time></trkpt><trkpt lat="43.28682670303529" lon="11.345801904460453"><ele>244.0</ele><time>2026-04-11T09:12:42.999Z</time></trkpt><trkpt lat="43.28679975702985" lon="11.345901402025843"><ele>244.16666666666666</ele><time>2026-04-11T09:12:43.999Z</time></trkpt><trkpt lat="43.28677767079245" lon="11.346003013971362"><ele>244.33333333333331</ele><time>2026-04-11T09:12:44.999Z</time></trkpt><trkpt lat="43.286756575521025" lon="11.346109063949987"><ele>244.5</ele><time>2026-04-11T09:12:45.999Z</time></trkpt><trkpt lat="43.28673687572869" lon="11.346210298067831"><ele>244.66666666666669</ele><time>2026-04-11T09:12:46.999Z</time></trkpt><trkpt lat="43.286718615097556" lon="11.346314095561354"><ele>244.83333333333334</ele><time>2026-04-11T09:12:47.999Z</time></trkpt><trkpt lat="43.28670295037151" lon="11.346417033339863"><ele>245.0</ele><time>2026-04-11T09:12:48.999Z</time></trkpt><trkpt lat="43.28669409299246" lon="11.346521113699218"><ele>244.33333333333334</ele><time>2026-04-11T09:12:49.999Z</time></trkpt><trkpt lat="43.286687178399845" lon="11.346630897421651"><ele>243.66666666666669</ele><time>2026-04-11T09:12:50.999Z</time></trkpt><trkpt lat="43.28668217430767" lon="11.346741049018169"><ele>243.0</ele><time>2026-04-11T09:12:51.999Z</time></trkpt><trkpt lat="43.286678172408074" lon="11.34685377843608"><ele>242.33333333333331</ele><time>2026-04-11T09:12:52.999Z</time></trkpt><trkpt lat="43.286671484640245" lon="11.34696753683433"><ele>241.66666666666666</ele><time>2026-04-11T09:12:53.999Z</time></trkpt><trkpt lat="43.28666384088262" lon="11.347082189857407"><ele>241.0</ele><time>2026-04-11T09:12:54.999Z</time></trkpt><trkpt lat="43.286653641374784" lon="11.347200499920898"><ele>241.0</ele><time>2026-04-11T09:12:55.999Z</time></trkpt><trkpt lat="43.28663954929448" lon="11.347319291869457"><ele>241.00000000000003</ele><time>2026-04-11T09:12:56.999Z</time></trkpt><trkpt lat="43.286617037815304" lon="11.347438931533611"><ele>241.00000000000003</ele><time>2026-04-11T09:12:57.999Z</time></trkpt><trkpt lat="43.28659306160333" lon="11.347559737478342"><ele>241.0</ele><time>2026-04-11T09:12:58.999Z</time></trkpt><trkpt lat="43.286565167216914" lon="11.347680588753448"><ele>241.0</ele><time>2026-04-11T09:12:59.999Z</time></trkpt><trkpt lat="43.28653403606852" lon="11.347800619862227"><ele>241.0</ele><time>2026-04-11T09:13:00.999Z</time></trkpt><trkpt lat="43.2865023314962" lon="11.347918747083066"><ele>241.00000000000003</ele><time>2026-04-11T09:13:01.999Z</time></trkpt><trkpt lat="43.28646664288454" lon="11.348037414813927"><ele>241.00000000000003</ele><time>2026-04-11T09:13:02.999Z</time></trkpt><trkpt lat="43.28642787046674" lon="11.34815608494339"><ele>241.0</ele><time>2026-04-11T09:13:03.999Z</time></trkpt><trkpt lat="43.28638767900074" lon="11.348274400379408"><ele>241.0</ele><time>2026-04-11T09:13:04.999Z</time></trkpt><trkpt lat="43.286343400554" lon="11.348394395373576"><ele>239.60000000000002</ele><time>2026-04-11T09:13:05.999Z</time></trkpt><trkpt lat="43.286298630904426" lon="11.348510770225644"><ele>238.20000000000002</ele><time>2026-04-11T09:13:06.999Z</time></trkpt><trkpt lat="43.28625242283438" lon="11.348628933860777"><ele>236.79999999999998</ele><time>2026-04-11T09:13:07.999Z</time></trkpt><trkpt lat="43.286209552098065" lon="11.348749379674056"><ele>235.39999999999998</ele><time>2026-04-11T09:13:08.999Z</time></trkpt><trkpt lat="43.286161575200104" lon="11.348864625699616"><ele>234.0</ele><time>2026-04-11T09:13:09.998Z</time></trkpt><trkpt lat="43.286114551548366" lon="11.348978887242296"><ele>234.0</ele><time>2026-04-11T09:13:10.998Z</time></trkpt><trkpt lat="43.286066117533124" lon="11.349089390867464"><ele>233.99999999999997</ele><time>2026-04-11T09:13:11.998Z</time></trkpt><trkpt lat="43.28602057631861" lon="11.349198929906564"><ele>233.99999999999997</ele><time>2026-04-11T09:13:12.998Z</time></trkpt><trkpt lat="43.28597790088287" lon="11.349306605036508"><ele>234.0</ele><time>2026-04-11T09:13:13.998Z</time></trkpt><trkpt lat="43.285934098218924" lon="11.34941227933373"><ele>234.0</ele><time>2026-04-11T09:13:14.998Z</time></trkpt><trkpt lat="43.28589044416635" lon="11.349515423720645"><ele>234.0</ele><time>2026-04-11T09:13:15.998Z</time></trkpt><trkpt lat="43.28584999505223" lon="11.349616971163428"><ele>234.0</ele><time>2026-04-11T09:13:16.998Z</time></trkpt><trkpt lat="43.28581049158968" lon="11.3497188897951"><ele>234.0</ele><time>2026-04-11T09:13:17.998Z</time></trkpt><trkpt lat="43.28577226924531" lon="11.349819924129882"><ele>234.0</ele><time>2026-04-11T09:13:18.998Z</time></trkpt><trkpt lat="43.28573536645002" lon="11.349922557162827"><ele>234.0</ele><time>2026-04-11T09:13:19.998Z</time></trkpt><trkpt lat="43.28570083616846" lon="11.350022982931925"><ele>234.0</ele><time>2026-04-11T09:13:20.998Z</time></trkpt><trkpt lat="43.28566784448547" lon="11.350123360282645"><ele>234.16666666666666</ele><time>2026-04-11T09:13:21.998Z</time></trkpt><trkpt lat="43.28563565093863" lon="11.35022366682557"><ele>234.33333333333331</ele><time>2026-04-11T09:13:22.998Z</time></trkpt><trkpt lat="43.28560465727097" lon="11.350321520178023"><ele>234.5</ele><time>2026-04-11T09:13:23.998Z</time></trkpt><trkpt lat="43.28557383253798" lon="11.350417803876917"><ele>234.66666666666666</ele><time>2026-04-11T09:13:24.998Z</time></trkpt><trkpt lat="43.28554275432867" lon="11.350516969385604"><ele>234.83333333333331</ele><time>2026-04-11T09:13:25.998Z</time></trkpt><trkpt lat="43.28551148522565" lon="11.350612958496264"><ele>235.0</ele><time>2026-04-11T09:13:26.998Z</time></trkpt><trkpt lat="43.28548069893958" lon="11.350713703322803"><ele>235.42857142857142</ele><time>2026-04-11T09:13:27.998Z</time></trkpt><trkpt lat="43.285451943481334" lon="11.350812912800844"><ele>235.85714285714283</ele><time>2026-04-11T09:13:28.998Z</time></trkpt><trkpt lat="43.28542214580101" lon="11.35091149950479"><ele>236.28571428571428</ele><time>2026-04-11T09:13:29.998Z</time></trkpt><trkpt lat="43.2853940763201" lon="11.351007945630492"><ele>236.71428571428572</ele><time>2026-04-11T09:13:30.998Z</time></trkpt><trkpt lat="43.285366657223946" lon="11.351103338225377"><ele>237.14285714285714</ele><time>2026-04-11T09:13:31.998Z</time></trkpt><trkpt lat="43.285339044505854" lon="11.351193336373534"><ele>237.57142857142856</ele><time>2026-04-11T09:13:32.998Z</time></trkpt><trkpt lat="43.28531105622048" lon="11.351279360758971"><ele>238.0</ele><time>2026-04-11T09:13:33.998Z</time></trkpt><trkpt lat="43.28528577745703" lon="11.351363883648936"><ele>237.4</ele><time>2026-04-11T09:13:34.998Z</time></trkpt><trkpt lat="43.2852583986414" lon="11.35144338594057"><ele>236.8</ele><time>2026-04-11T09:13:35.998Z</time></trkpt><trkpt lat="43.28520395397696" lon="11.351597730702109"><ele>236.2</ele><time>2026-04-11T09:13:37.998Z</time></trkpt><trkpt lat="43.28515080329622" lon="11.35175370282762"><ele>235.6</ele><time>2026-04-11T09:13:39.998Z</time></trkpt><trkpt lat="43.285102222290135" lon="11.351910819133243"><ele>235.0</ele><time>2026-04-11T09:13:41.998Z</time></trkpt><trkpt lat="43.28507713895957" lon="11.351993404184338"><ele>235.0</ele><time>2026-04-11T09:13:42.998Z</time></trkpt><trkpt lat="43.28504855606792" lon="11.352078288216635"><ele>234.99999999999997</ele><time>2026-04-11T09:13:43.998Z</time></trkpt><trkpt lat="43.285021341583096" lon="11.352159889631768"><ele>235.0</ele><time>2026-04-11T09:13:44.998Z</time></trkpt><trkpt lat="43.28497471150598" lon="11.352228811189555"><ele>235.0</ele><time>2026-04-11T09:13:45.998Z</time></trkpt><trkpt lat="43.284945764170104" lon="11.352312255568942"><ele>234.99999999999997</ele><time>2026-04-11T09:13:46.998Z</time></trkpt><trkpt lat="43.284917961158804" lon="11.352392401627235"><ele>235.0</ele><time>2026-04-11T09:13:47.998Z</time></trkpt><trkpt lat="43.28488920543694" lon="11.352469503894708"><ele>235.0</ele><time>2026-04-11T09:13:48.998Z</time></trkpt><trkpt lat="43.28485802498976" lon="11.352545065318868"><ele>235.16666666666666</ele><time>2026-04-11T09:13:49.998Z</time></trkpt><trkpt lat="43.28479109105585" lon="11.352691005275812"><ele>235.33333333333331</ele><time>2026-04-11T09:13:52Z</time></trkpt><trkpt lat="43.284754256095866" lon="11.352761850577858"><ele>235.5</ele><time>2026-04-11T09:13:53Z</time></trkpt><trkpt lat="43.28467580118574" lon="11.352893574934068"><ele>235.66666666666669</ele><time>2026-04-11T09:13:55Z</time></trkpt><trkpt lat="43.284630288058" lon="11.352956317384086"><ele>235.83333333333334</ele><time>2026-04-11T09:13:56Z</time></trkpt><trkpt lat="43.2845842887808" lon="11.353018852257179"><ele>236.0</ele><time>2026-04-11T09:13:57Z</time></trkpt><trkpt lat="43.28453707279126" lon="11.353076709957362"><ele>236.0</ele><time>2026-04-11T09:13:58Z</time></trkpt><trkpt lat="43.28448848612695" lon="11.35313283736235"><ele>236.0</ele><time>2026-04-11T09:13:59Z</time></trkpt><trkpt lat="43.28443755016199" lon="11.353189678426233"><ele>236.0</ele><time>2026-04-11T09:14:00Z</time></trkpt><trkpt lat="43.284385037807574" lon="11.353244571312729"><ele>236.0</ele><time>2026-04-11T09:14:01Z</time></trkpt><trkpt lat="43.284331784772384" lon="11.353298689039455"><ele>236.0</ele><time>2026-04-11T09:14:02Z</time></trkpt><trkpt lat="43.284276687300526" lon="11.353348593775225"><ele>236.0</ele><time>2026-04-11T09:14:03Z</time></trkpt><trkpt lat="43.2842388797428" lon="11.353428319474038"><ele>236.0</ele><time>2026-04-11T09:14:04Z</time></trkpt><trkpt lat="43.28418183760876" lon="11.353469073182664"><ele>236.0</ele><time>2026-04-11T09:14:05Z</time></trkpt><trkpt lat="43.284122356842246" lon="11.353504875187408"><ele>236.0</ele><time>2026-04-11T09:14:06Z</time></trkpt><trkpt lat="43.284063387988056" lon="11.353540649136617"><ele>236.0</ele><time>2026-04-11T09:14:07Z</time></trkpt><trkpt lat="43.284003003699446" lon="11.35357175129398"><ele>236.0</ele><time>2026-04-11T09:14:08Z</time></trkpt><trkpt lat="43.283942128631764" lon="11.353601853649536"><ele>236.0</ele><time>2026-04-11T09:14:09Z</time></trkpt><trkpt lat="43.28388055705488" lon="11.353628840696778"><ele>236.0</ele><time>2026-04-11T09:14:10Z</time></trkpt><trkpt lat="43.28381790804017" lon="11.353650112786006"><ele>236.0</ele><time>2026-04-11T09:14:11Z</time></trkpt><trkpt lat="43.28375515807432" lon="11.353667555972462"><ele>236.28571428571428</ele><time>2026-04-11T09:14:12Z</time></trkpt><trkpt lat="43.28369173388836" lon="11.353682172879683"><ele>236.57142857142858</ele><time>2026-04-11T09:14:13Z</time></trkpt><trkpt lat="43.28362918832575" lon="11.3536951636508"><ele>236.85714285714286</ele><time>2026-04-11T09:14:14Z</time></trkpt><trkpt lat="43.28356546436734" lon="11.353706370161694"><ele>237.14285714285714</ele><time>2026-04-11T09:14:15Z</time></trkpt><trkpt lat="43.283501264169665" lon="11.353712568946204"><ele>237.42857142857144</ele><time>2026-04-11T09:14:16Z</time></trkpt><trkpt lat="43.283436146924764" lon="11.353714137362104"><ele>237.71428571428572</ele><time>2026-04-11T09:14:17Z</time></trkpt><trkpt lat="43.283370517826185" lon="11.353712491357449"><ele>238.0</ele><time>2026-04-11T09:14:18Z</time></trkpt><trkpt lat="43.28330525221984" lon="11.353710336685456"><ele>237.99999999999997</ele><time>2026-04-11T09:14:19Z</time></trkpt><trkpt lat="43.28323998961701" lon="11.35370428258864"><ele>238.0</ele><time>2026-04-11T09:14:20Z</time></trkpt><trkpt lat="43.28317623650489" lon="11.353696402677802"><ele>238.0</ele><time>2026-04-11T09:14:21Z</time></trkpt><trkpt lat="43.28311024535952" lon="11.35368814370046"><ele>238.0</ele><time>2026-04-11T09:14:22Z</time></trkpt><trkpt lat="43.28298249876823" lon="11.353664459750068"><ele>237.99999999999997</ele><time>2026-04-11T09:14:24Z</time></trkpt><trkpt lat="43.28291862024552" lon="11.353649288649379"><ele>238.0</ele><time>2026-04-11T09:14:25Z</time></trkpt><trkpt lat="43.28285185282181" lon="11.35363543975807"><ele>238.0</ele><time>2026-04-11T09:14:26Z</time></trkpt><trkpt lat="43.28278567166179" lon="11.353622083225122"><ele>238.0</ele><time>2026-04-11T09:14:27Z</time></trkpt><trkpt lat="43.28271976198469" lon="11.353610246410803"><ele>238.0</ele><time>2026-04-11T09:14:27.999Z</time></trkpt><trkpt lat="43.282653034716986" lon="11.353597118297506"><ele>238.0</ele><time>2026-04-11T09:14:28.999Z</time></trkpt><trkpt lat="43.28258864484898" lon="11.353581459016235"><ele>238.0</ele><time>2026-04-11T09:14:29.999Z</time></trkpt><trkpt lat="43.28252010718771" lon="11.353565468647117"><ele>238.0</ele><time>2026-04-11T09:14:30.999Z</time></trkpt><trkpt lat="43.28245601061031" lon="11.353547543225776"><ele>238.0</ele><time>2026-04-11T09:14:31.999Z</time></trkpt><trkpt lat="43.28239152026028" lon="11.353533251485045"><ele>238.0</ele><time>2026-04-11T09:14:32.999Z</time></trkpt><trkpt lat="43.28232549136723" lon="11.35351880065853"><ele>238.0</ele><time>2026-04-11T09:14:33.999Z</time></trkpt><trkpt lat="43.282261018016364" lon="11.353505841034478"><ele>238.0</ele><time>2026-04-11T09:14:34.999Z</time></trkpt><trkpt lat="43.28219490828591" lon="11.353491435236753"><ele>238.0</ele><time>2026-04-11T09:14:35.999Z</time></trkpt><trkpt lat="43.282129220101616" lon="11.35347733913961"><ele>238.0</ele><time>2026-04-11T09:14:36.999Z</time></trkpt><trkpt lat="43.282064977912036" lon="11.353461506917942"><ele>238.0</ele><time>2026-04-11T09:14:37.999Z</time></trkpt><trkpt lat="43.282000558274746" lon="11.353451781618123"><ele>238.0</ele><time>2026-04-11T09:14:38.999Z</time></trkpt><trkpt lat="43.28193618714716" lon="11.353436522843694"><ele>238.0</ele><time>2026-04-11T09:14:39.999Z</time></trkpt><trkpt lat="43.281872039032585" lon="11.353423214076354"><ele>238.0</ele><time>2026-04-11T09:14:40.999Z</time></trkpt><trkpt lat="43.2818073912386" lon="11.353410867086211"><ele>238.0</ele><time>2026-04-11T09:14:41.999Z</time></trkpt><trkpt lat="43.281743415085664" lon="11.353395537235714"><ele>238.0</ele><time>2026-04-11T09:14:42.999Z</time></trkpt><trkpt lat="43.281677862487015" lon="11.353380421077228"><ele>238.0</ele><time>2026-04-11T09:14:43.999Z</time></trkpt><trkpt lat="43.28161220682034" lon="11.353366400461562"><ele>238.0</ele><time>2026-04-11T09:14:44.999Z</time></trkpt><trkpt lat="43.28154723254313" lon="11.353352611356957"><ele>238.0</ele><time>2026-04-11T09:14:45.999Z</time></trkpt><trkpt lat="43.2814819855631" lon="11.353336650218276"><ele>238.0</ele><time>2026-04-11T09:14:46.999Z</time></trkpt><trkpt lat="43.28141601476368" lon="11.353319985589831"><ele>238.0</ele><time>2026-04-11T09:14:47.999Z</time></trkpt><trkpt lat="43.28134948073535" lon="11.35330566270085"><ele>238.0</ele><time>2026-04-11T09:14:48.999Z</time></trkpt><trkpt lat="43.28128182351282" lon="11.353286527400957"><ele>238.0</ele><time>2026-04-11T09:14:49.999Z</time></trkpt><trkpt lat="43.2812152550667" lon="11.353269072389393"><ele>238.0</ele><time>2026-04-11T09:14:50.999Z</time></trkpt><trkpt lat="43.281145580989865" lon="11.353247128391809"><ele>238.0</ele><time>2026-04-11T09:14:51.999Z</time></trkpt><trkpt lat="43.28107761427993" lon="11.353224273951392"><ele>238.0</ele><time>2026-04-11T09:14:52.999Z</time></trkpt><trkpt lat="43.281006193528725" lon="11.35320006443304"><ele>237.99999999999997</ele><time>2026-04-11T09:14:53.999Z</time></trkpt><trkpt lat="43.28093454463091" lon="11.353172896509548"><ele>238.0</ele><time>2026-04-11T09:14:54.999Z</time></trkpt><trkpt lat="43.28085904521671" lon="11.35314728316389"><ele>238.0</ele><time>2026-04-11T09:14:55.999Z</time></trkpt><trkpt lat="43.28078214938209" lon="11.353121855659806"><ele>238.0</ele><time>2026-04-11T09:14:56.999Z</time></trkpt><trkpt lat="43.28070089716567" lon="11.35309461737955"><ele>237.99999999999997</ele><time>2026-04-11T09:14:57.999Z</time></trkpt><trkpt lat="43.280622990344845" lon="11.353065882222348"><ele>238.0</ele><time>2026-04-11T09:14:58.999Z</time></trkpt><trkpt lat="43.28054291092582" lon="11.353036850390101"><ele>236.66666666666666</ele><time>2026-04-11T09:14:59.999Z</time></trkpt><trkpt lat="43.28046274309762" lon="11.353007024848266"><ele>235.33333333333331</ele><time>2026-04-11T09:15:00.999Z</time></trkpt><trkpt lat="43.28038355479798" lon="11.352975658745786"><ele>234.0</ele><time>2026-04-11T09:15:01.999Z</time></trkpt><trkpt lat="43.28030116860175" lon="11.35294720118039"><ele>232.66666666666669</ele><time>2026-04-11T09:15:02.999Z</time></trkpt><trkpt lat="43.280218511703325" lon="11.352916487234758"><ele>231.33333333333334</ele><time>2026-04-11T09:15:03.999Z</time></trkpt><trkpt lat="43.28013690333539" lon="11.352886084501028"><ele>230.0</ele><time>2026-04-11T09:15:04.999Z</time></trkpt><trkpt lat="43.28005245834329" lon="11.35285883028978"><ele>230.00000000000003</ele><time>2026-04-11T09:15:05.999Z</time></trkpt><trkpt lat="43.27996798090902" lon="11.352829858536932"><ele>230.0</ele><time>2026-04-11T09:15:06.999Z</time></trkpt><trkpt lat="43.27988318812074" lon="11.352805723274756"><ele>230.0</ele><time>2026-04-11T09:15:07.999Z</time></trkpt><trkpt lat="43.27979588486854" lon="11.35278169380142"><ele>230.0</ele><time>2026-04-11T09:15:08.999Z</time></trkpt><trkpt lat="43.27970922603016" lon="11.352759911496468"><ele>230.00000000000003</ele><time>2026-04-11T09:15:09.999Z</time></trkpt><trkpt lat="43.27962337641379" lon="11.352739533771059"><ele>230.0</ele><time>2026-04-11T09:15:10.999Z</time></trkpt><trkpt lat="43.2795367371462" lon="11.352722882520801"><ele>229.50000000000003</ele><time>2026-04-11T09:15:11.999Z</time></trkpt><trkpt lat="43.27945247740061" lon="11.352707177381552"><ele>229.0</ele><time>2026-04-11T09:15:12.999Z</time></trkpt><trkpt lat="43.27936759897628" lon="11.352694181189262"><ele>228.5</ele><time>2026-04-11T09:15:13.999Z</time></trkpt><trkpt lat="43.2792823632898" lon="11.352684733407273"><ele>228.0</ele><time>2026-04-11T09:15:14.999Z</time></trkpt><trkpt lat="43.279198810617935" lon="11.352679063437717"><ele>227.50000000000003</ele><time>2026-04-11T09:15:15.999Z</time></trkpt><trkpt lat="43.279111695110835" lon="11.352670875336443"><ele>227.0</ele><time>2026-04-11T09:15:16.999Z</time></trkpt><trkpt lat="43.27902918494343" lon="11.352661121904028"><ele>227.00000000000003</ele><time>2026-04-11T09:15:17.998Z</time></trkpt><trkpt lat="43.278945043199556" lon="11.352660772084375"><ele>227.0</ele><time>2026-04-11T09:15:18.998Z</time></trkpt><trkpt lat="43.27886209634908" lon="11.352674065188355"><ele>227.0</ele><time>2026-04-11T09:15:19.998Z</time></trkpt><trkpt lat="43.278780152736445" lon="11.352693824290563"><ele>227.0</ele><time>2026-04-11T09:15:20.998Z</time></trkpt><trkpt lat="43.278704150797566" lon="11.35272412902876"><ele>227.00000000000003</ele><time>2026-04-11T09:15:21.998Z</time></trkpt><trkpt lat="43.278628336382056" lon="11.35276289914692"><ele>227.0</ele><time>2026-04-11T09:15:22.998Z</time></trkpt><trkpt lat="43.27855581394616" lon="11.352800686249546"><ele>227.00000000000003</ele><time>2026-04-11T09:15:23.998Z</time></trkpt><trkpt lat="43.27848481753669" lon="11.35283800218471"><ele>227.0</ele><time>2026-04-11T09:15:24.998Z</time></trkpt><trkpt lat="43.27841641283395" lon="11.352879518242586"><ele>227.0</ele><time>2026-04-11T09:15:25.998Z</time></trkpt><trkpt lat="43.27834313665709" lon="11.352921231654376"><ele>227.0</ele><time>2026-04-11T09:15:26.998Z</time></trkpt><trkpt lat="43.27827068960263" lon="11.352964754556815"><ele>227.00000000000003</ele><time>2026-04-11T09:15:27.998Z</time></trkpt><trkpt lat="43.278198209077686" lon="11.353013097514769"><ele>227.0</ele><time>2026-04-11T09:15:28.998Z</time></trkpt><trkpt lat="43.278125244801345" lon="11.353065063775386"><ele>227.66666666666669</ele><time>2026-04-11T09:15:29.998Z</time></trkpt><trkpt lat="43.278051268374185" lon="11.353113180215617"><ele>228.33333333333334</ele><time>2026-04-11T09:15:30.998Z</time></trkpt><trkpt lat="43.277977814978094" lon="11.353158626487085"><ele>229.0</ele><time>2026-04-11T09:15:31.998Z</time></trkpt><trkpt lat="43.27790217425433" lon="11.353206383891601"><ele>229.66666666666669</ele><time>2026-04-11T09:15:32.998Z</time></trkpt><trkpt lat="43.27782631372618" lon="11.353251648993544"><ele>230.33333333333334</ele><time>2026-04-11T09:15:33.998Z</time></trkpt><trkpt lat="43.27774957584071" lon="11.353294057224687"><ele>231.0</ele><time>2026-04-11T09:15:34.998Z</time></trkpt><trkpt lat="43.27767414546494" lon="11.353341735917668"><ele>231.0</ele><time>2026-04-11T09:15:35.998Z</time></trkpt><trkpt lat="43.27760051519128" lon="11.353391511062389"><ele>231.0</ele><time>2026-04-11T09:15:36.998Z</time></trkpt><trkpt lat="43.277528852974" lon="11.353437647180035"><ele>231.0</ele><time>2026-04-11T09:15:37.998Z</time></trkpt><trkpt lat="43.277458211873224" lon="11.353482247316657"><ele>231.0</ele><time>2026-04-11T09:15:38.998Z</time></trkpt><trkpt lat="43.277385407614894" lon="11.35352361540937"><ele>231.0</ele><time>2026-04-11T09:15:39.998Z</time></trkpt><trkpt lat="43.27730889759857" lon="11.353564508139858"><ele>231.0</ele><time>2026-04-11T09:15:40.998Z</time></trkpt><trkpt lat="43.277232484770785" lon="11.35360407806259"><ele>231.16666666666666</ele><time>2026-04-11T09:15:41.998Z</time></trkpt><trkpt lat="43.27715630564557" lon="11.353642284096253"><ele>231.33333333333331</ele><time>2026-04-11T09:15:42.998Z</time></trkpt><trkpt lat="43.27707639904867" lon="11.35367238494453"><ele>231.5</ele><time>2026-04-11T09:15:43.998Z</time></trkpt><trkpt lat="43.276995336741344" lon="11.353697559318977"><ele>231.66666666666666</ele><time>2026-04-11T09:15:44.998Z</time></trkpt><trkpt lat="43.2769137216526" lon="11.353716501283246"><ele>231.83333333333331</ele><time>2026-04-11T09:15:45.998Z</time></trkpt><trkpt lat="43.27683059841852" lon="11.353734969773088"><ele>232.0</ele><time>2026-04-11T09:15:46.998Z</time></trkpt><trkpt lat="43.276744828686354" lon="11.35375362615179"><ele>231.99999999999997</ele><time>2026-04-11T09:15:47.998Z</time></trkpt><trkpt lat="43.27666084212447" lon="11.353770447980548"><ele>232.0</ele><time>2026-04-11T09:15:48.998Z</time></trkpt><trkpt lat="43.27657500814622" lon="11.353787246013415"><ele>232.0</ele><time>2026-04-11T09:15:49.998Z</time></trkpt><trkpt lat="43.276488931918855" lon="11.353802436741107"><ele>232.0</ele><time>2026-04-11T09:15:50.998Z</time></trkpt><trkpt lat="43.276400471233835" lon="11.35381786763525"><ele>231.99999999999997</ele><time>2026-04-11T09:15:51.998Z</time></trkpt><trkpt lat="43.27631261956091" lon="11.353835976830899"><ele>232.0</ele><time>2026-04-11T09:15:52.998Z</time></trkpt><trkpt lat="43.27622335007758" lon="11.35385168844755"><ele>231.16666666666666</ele><time>2026-04-11T09:15:53.998Z</time></trkpt><trkpt lat="43.27613442302695" lon="11.353866751584475"><ele>230.33333333333331</ele><time>2026-04-11T09:15:54.998Z</time></trkpt><trkpt lat="43.276045159741514" lon="11.353881951008013"><ele>229.5</ele><time>2026-04-11T09:15:55.998Z</time></trkpt><trkpt lat="43.27596042789502" lon="11.353899841375016"><ele>228.66666666666669</ele><time>2026-04-11T09:15:56.998Z</time></trkpt><trkpt lat="43.27588368200259" lon="11.35391417725011"><ele>227.83333333333334</ele><time>2026-04-11T09:15:58Z</time></trkpt><trkpt lat="43.27580714078436" lon="11.353930060411754"><ele>227.0</ele><time>2026-04-11T09:15:59Z</time></trkpt><trkpt lat="43.27572936274138" lon="11.353944258476732"><ele>226.33333333333334</ele><time>2026-04-11T09:16:00Z</time></trkpt><trkpt lat="43.27564780904132" lon="11.353958726875918"><ele>225.66666666666669</ele><time>2026-04-11T09:16:01Z</time></trkpt><trkpt lat="43.27556488432791" lon="11.353974794831055"><ele>225.0</ele><time>2026-04-11T09:16:02Z</time></trkpt><trkpt lat="43.27547885377147" lon="11.353992852251277"><ele>224.33333333333331</ele><time>2026-04-11T09:16:03Z</time></trkpt><trkpt lat="43.27539332163011" lon="11.354010997306496"><ele>223.66666666666666</ele><time>2026-04-11T09:16:04Z</time></trkpt><trkpt lat="43.27530557408657" lon="11.354029399982167"><ele>223.0</ele><time>2026-04-11T09:16:05Z</time></trkpt><trkpt lat="43.27521855324289" lon="11.354046092340647"><ele>222.83333333333331</ele><time>2026-04-11T09:16:06Z</time></trkpt><trkpt lat="43.27512966516776" lon="11.354063942229923"><ele>222.66666666666666</ele><time>2026-04-11T09:16:07Z</time></trkpt><trkpt lat="43.275041224228495" lon="11.354084796511083"><ele>222.5</ele><time>2026-04-11T09:16:08Z</time></trkpt><trkpt lat="43.27495400501892" lon="11.354106761667586"><ele>222.33333333333331</ele><time>2026-04-11T09:16:09Z</time></trkpt><trkpt lat="43.27486997040841" lon="11.35413103452098"><ele>222.16666666666666</ele><time>2026-04-11T09:16:10Z</time></trkpt><trkpt lat="43.27478818664426" lon="11.354160836977297"><ele>222.0</ele><time>2026-04-11T09:16:11Z</time></trkpt><trkpt lat="43.27470704253183" lon="11.354198741093072"><ele>222.5</ele><time>2026-04-11T09:16:12Z</time></trkpt><trkpt lat="43.27463197464284" lon="11.354246916026442"><ele>223.0</ele><time>2026-04-11T09:16:13Z</time></trkpt><trkpt lat="43.27455794177441" lon="11.354298772358273"><ele>223.5</ele><time>2026-04-11T09:16:14Z</time></trkpt><trkpt lat="43.274488554149755" lon="11.35436166781529"><ele>224.0</ele><time>2026-04-11T09:16:15Z</time></trkpt><trkpt lat="43.274424598546425" lon="11.354434004012514"><ele>224.5</ele><time>2026-04-11T09:16:16Z</time></trkpt><trkpt lat="43.274365601587235" lon="11.35451287654523"><ele>225.0</ele><time>2026-04-11T09:16:17Z</time></trkpt><trkpt lat="43.27431015908164" lon="11.3545956350672"><ele>225.0</ele><time>2026-04-11T09:16:18Z</time></trkpt><trkpt lat="43.27425575755565" lon="11.354678648798526"><ele>225.0</ele><time>2026-04-11T09:16:19Z</time></trkpt><trkpt lat="43.27420027057326" lon="11.354760724848974"><ele>225.0</ele><time>2026-04-11T09:16:20Z</time></trkpt><trkpt lat="43.2741448995765" lon="11.35484013531318"><ele>225.0</ele><time>2026-04-11T09:16:21Z</time></trkpt><trkpt lat="43.27409058136037" lon="11.354921428885866"><ele>225.0</ele><time>2026-04-11T09:16:22Z</time></trkpt><trkpt lat="43.274036676418596" lon="11.355005056831338"><ele>225.0</ele><time>2026-04-11T09:16:23Z</time></trkpt><trkpt lat="43.27398120323756" lon="11.355083860015435"><ele>223.66666666666666</ele><time>2026-04-11T09:16:24Z</time></trkpt><trkpt lat="43.273923059308245" lon="11.3551559339959"><ele>222.33333333333331</ele><time>2026-04-11T09:16:25Z</time></trkpt><trkpt lat="43.27385997053749" lon="11.355218473085834"><ele>221.0</ele><time>2026-04-11T09:16:26Z</time></trkpt><trkpt lat="43.27379944108584" lon="11.355285964956906"><ele>219.66666666666666</ele><time>2026-04-11T09:16:27Z</time></trkpt><trkpt lat="43.273741026621245" lon="11.355349434450316"><ele>218.33333333333331</ele><time>2026-04-11T09:16:28Z</time></trkpt><trkpt lat="43.2736834996363" lon="11.355414024066805"><ele>217.0</ele><time>2026-04-11T09:16:29Z</time></trkpt><trkpt lat="43.27362617550001" lon="11.355477462893916"><ele>217.85714285714286</ele><time>2026-04-11T09:16:30Z</time></trkpt><trkpt lat="43.27357050165702" lon="11.355541266055436"><ele>218.71428571428572</ele><time>2026-04-11T09:16:31Z</time></trkpt><trkpt lat="43.273514551711315" lon="11.35560353016518"><ele>219.57142857142856</ele><time>2026-04-11T09:16:32Z</time></trkpt><trkpt lat="43.273460778600175" lon="11.355663145730665"><ele>220.42857142857144</ele><time>2026-04-11T09:16:33Z</time></trkpt><trkpt lat="43.27340957278337" lon="11.355723470448275"><ele>221.28571428571428</ele><time>2026-04-11T09:16:34Z</time></trkpt><trkpt lat="43.27335820855313" lon="11.355781424272525"><ele>222.14285714285714</ele><time>2026-04-11T09:16:35Z</time></trkpt><trkpt lat="43.273304661134816" lon="11.355838402365306"><ele>223.0</ele><time>2026-04-11T09:16:36Z</time></trkpt><trkpt lat="43.2732548082905" lon="11.355900229154283"><ele>223.0</ele><time>2026-04-11T09:16:36.999Z</time></trkpt><trkpt lat="43.27320408258846" lon="11.35595874725306"><ele>223.0</ele><time>2026-04-11T09:16:37.999Z</time></trkpt><trkpt lat="43.27314887349557" lon="11.356015439358782"><ele>223.0</ele><time>2026-04-11T09:16:38.999Z</time></trkpt><trkpt lat="43.273095956601395" lon="11.356073518518464"><ele>223.0</ele><time>2026-04-11T09:16:39.999Z</time></trkpt><trkpt lat="43.273044449182606" lon="11.356136146711425"><ele>223.0</ele><time>2026-04-11T09:16:40.999Z</time></trkpt><trkpt lat="43.272993519152095" lon="11.35619681736627"><ele>223.0</ele><time>2026-04-11T09:16:41.999Z</time></trkpt><trkpt lat="43.272943506255395" lon="11.356252611349952"><ele>223.0</ele><time>2026-04-11T09:16:42.999Z</time></trkpt><trkpt lat="43.27289407848855" lon="11.356312603076937"><ele>223.57142857142856</ele><time>2026-04-11T09:16:43.999Z</time></trkpt><trkpt lat="43.27284438063173" lon="11.356372010758625"><ele>224.14285714285714</ele><time>2026-04-11T09:16:44.999Z</time></trkpt><trkpt lat="43.272793075887336" lon="11.356424082798318"><ele>224.71428571428572</ele><time>2026-04-11T09:16:45.999Z</time></trkpt><trkpt lat="43.272742751555654" lon="11.356481007995292"><ele>225.28571428571428</ele><time>2026-04-11T09:16:46.999Z</time></trkpt><trkpt lat="43.27269085673468" lon="11.356530863398959"><ele>225.8571428571429</ele><time>2026-04-11T09:16:47.999Z</time></trkpt><trkpt lat="43.27264016379333" lon="11.356586261494828"><ele>226.42857142857144</ele><time>2026-04-11T09:16:48.999Z</time></trkpt><trkpt lat="43.27259131747602" lon="11.356643153929731"><ele>227.0</ele><time>2026-04-11T09:16:49.999Z</time></trkpt><trkpt lat="43.27254146712943" lon="11.356700836978115"><ele>227.00000000000003</ele><time>2026-04-11T09:16:50.999Z</time></trkpt><trkpt lat="43.27249442100982" lon="11.35675831227959"><ele>227.0</ele><time>2026-04-11T09:16:51.999Z</time></trkpt><trkpt lat="43.272442551167714" lon="11.356813007756378"><ele>227.0</ele><time>2026-04-11T09:16:52.999Z</time></trkpt><trkpt lat="43.272347033525925" lon="11.356922834678318"><ele>227.0</ele><time>2026-04-11T09:16:54.999Z</time></trkpt><trkpt lat="43.27229947842723" lon="11.35698062459147"><ele>227.00000000000003</ele><time>2026-04-11T09:16:55.999Z</time></trkpt><trkpt lat="43.27220289512356" lon="11.357086790623908"><ele>227.0</ele><time>2026-04-11T09:16:57.999Z</time></trkpt><trkpt lat="43.272112873538575" lon="11.357192273095272"><ele>226.2</ele><time>2026-04-11T09:16:59.999Z</time></trkpt><trkpt lat="43.272029011629165" lon="11.357288726759302"><ele>225.39999999999998</ele><time>2026-04-11T09:17:01.999Z</time></trkpt><trkpt lat="43.271951739086205" lon="11.357374882345873"><ele>224.60000000000002</ele><time>2026-04-11T09:17:03.999Z</time></trkpt><trkpt lat="43.27186817016366" lon="11.357437295218512"><ele>223.8</ele><time>2026-04-11T09:17:05.999Z</time></trkpt><trkpt lat="43.27176386357668" lon="11.35741186496852"><ele>223.0</ele><time>2026-04-11T09:17:07.999Z</time></trkpt><trkpt lat="43.2716643028107" lon="11.357316121601292"><ele>223.0</ele><time>2026-04-11T09:17:09.999Z</time></trkpt><trkpt lat="43.271615258339594" lon="11.357255277821954"><ele>223.0</ele><time>2026-04-11T09:17:10.999Z</time></trkpt><trkpt lat="43.271562121678876" lon="11.357199924504885"><ele>223.0</ele><time>2026-04-11T09:17:11.999Z</time></trkpt><trkpt lat="43.27150637523109" lon="11.357143891804395"><ele>223.0</ele><time>2026-04-11T09:17:12.999Z</time></trkpt><trkpt lat="43.271451684603335" lon="11.357079563885113"><ele>223.0</ele><time>2026-04-11T09:17:13.999Z</time></trkpt><trkpt lat="43.2713936103483" lon="11.357013119804602"><ele>223.0</ele><time>2026-04-11T09:17:14.999Z</time></trkpt><trkpt lat="43.271330490971344" lon="11.356947980077756"><ele>223.0</ele><time>2026-04-11T09:17:15.999Z</time></trkpt><trkpt lat="43.271266656703844" lon="11.356878296964688"><ele>222.83333333333331</ele><time>2026-04-11T09:17:16.999Z</time></trkpt><trkpt lat="43.27120127869341" lon="11.356803029860053"><ele>222.66666666666666</ele><time>2026-04-11T09:17:17.999Z</time></trkpt><trkpt lat="43.27113835265044" lon="11.356739042651517"><ele>222.5</ele><time>2026-04-11T09:17:18.999Z</time></trkpt><trkpt lat="43.271078014051426" lon="11.356680042758214"><ele>222.33333333333331</ele><time>2026-04-11T09:17:19.999Z</time></trkpt><trkpt lat="43.27101228792792" lon="11.356610489574932"><ele>222.16666666666666</ele><time>2026-04-11T09:17:20.999Z</time></trkpt><trkpt lat="43.270946637763515" lon="11.356535955848686"><ele>222.0</ele><time>2026-04-11T09:17:21.999Z</time></trkpt><trkpt lat="43.27088076081103" lon="11.356468781869378"><ele>222.0</ele><time>2026-04-11T09:17:22.999Z</time></trkpt><trkpt lat="43.270820029126895" lon="11.356406230131643"><ele>222.0</ele><time>2026-04-11T09:17:23.999Z</time></trkpt><trkpt lat="43.27076115000717" lon="11.356344718091295"><ele>222.0</ele><time>2026-04-11T09:17:24.999Z</time></trkpt><trkpt lat="43.27070028120557" lon="11.356283005789782"><ele>222.0</ele><time>2026-04-11T09:17:25.999Z</time></trkpt><trkpt lat="43.27064104599417" lon="11.356220601173673"><ele>222.0</ele><time>2026-04-11T09:17:26.998Z</time></trkpt><trkpt lat="43.270582354275945" lon="11.356157146997036"><ele>222.0</ele><time>2026-04-11T09:17:27.998Z</time></trkpt><trkpt lat="43.270527565695126" lon="11.356100591597027"><ele>222.0</ele><time>2026-04-11T09:17:28.998Z</time></trkpt><trkpt lat="43.27047366405628" lon="11.356050556800588"><ele>220.0</ele><time>2026-04-11T09:17:29.998Z</time></trkpt><trkpt lat="43.270369276826735" lon="11.355972359302587"><ele>218.0</ele><time>2026-04-11T09:17:31.998Z</time></trkpt><trkpt lat="43.27030650347729" lon="11.355945255162197"><ele>216.0</ele><time>2026-04-11T09:17:32.998Z</time></trkpt><trkpt lat="43.27023647119656" lon="11.355930172111952"><ele>214.0</ele><time>2026-04-11T09:17:33.998Z</time></trkpt><trkpt lat="43.27016104604009" lon="11.35592154616597"><ele>212.0</ele><time>2026-04-11T09:17:34.998Z</time></trkpt><trkpt lat="43.270080498131044" lon="11.355921389431176"><ele>210.0</ele><time>2026-04-11T09:17:35.998Z</time></trkpt><trkpt lat="43.26999905172692" lon="11.355926081933086"><ele>210.0</ele><time>2026-04-11T09:17:36.998Z</time></trkpt><trkpt lat="43.26991804866236" lon="11.355935688835357"><ele>210.0</ele><time>2026-04-11T09:17:37.998Z</time></trkpt><trkpt lat="43.269837066313535" lon="11.355954231859947"><ele>210.0</ele><time>2026-04-11T09:17:38.998Z</time></trkpt><trkpt lat="43.269756083368854" lon="11.355981443916649"><ele>210.0</ele><time>2026-04-11T09:17:39.998Z</time></trkpt><trkpt lat="43.26967591694689" lon="11.356014234039622"><ele>210.0</ele><time>2026-04-11T09:17:40.998Z</time></trkpt><trkpt lat="43.26960289418366" lon="11.356055298713484"><ele>210.0</ele><time>2026-04-11T09:17:41.998Z</time></trkpt><trkpt lat="43.269534730000835" lon="11.35610891825768"><ele>208.66666666666666</ele><time>2026-04-11T09:17:42.998Z</time></trkpt><trkpt lat="43.269464626395596" lon="11.356170696249073"><ele>207.33333333333331</ele><time>2026-04-11T09:17:43.998Z</time></trkpt><trkpt lat="43.26939356886648" lon="11.35623895144373"><ele>206.0</ele><time>2026-04-11T09:17:44.998Z</time></trkpt><trkpt lat="43.269326226981605" lon="11.356312748046099"><ele>204.66666666666666</ele><time>2026-04-11T09:17:45.998Z</time></trkpt><trkpt lat="43.269260873035414" lon="11.356392567360444"><ele>203.33333333333331</ele><time>2026-04-11T09:17:46.998Z</time></trkpt><trkpt lat="43.26920651187793" lon="11.356473113475065"><ele>202.0</ele><time>2026-04-11T09:17:47.998Z</time></trkpt><trkpt lat="43.26915803946258" lon="11.356567510109874"><ele>201.99999999999997</ele><time>2026-04-11T09:17:48.998Z</time></trkpt><trkpt lat="43.26911021803074" lon="11.356667144965664"><ele>202.0</ele><time>2026-04-11T09:17:49.998Z</time></trkpt><trkpt lat="43.269066104484025" lon="11.356775547654332"><ele>202.0</ele><time>2026-04-11T09:17:50.998Z</time></trkpt><trkpt lat="43.269029124275654" lon="11.35688197508791"><ele>202.0</ele><time>2026-04-11T09:17:51.998Z</time></trkpt><trkpt lat="43.269000845841894" lon="11.356988682416377"><ele>201.99999999999997</ele><time>2026-04-11T09:17:52.998Z</time></trkpt><trkpt lat="43.26897931770177" lon="11.357102072602043"><ele>202.0</ele><time>2026-04-11T09:17:53.998Z</time></trkpt><trkpt lat="43.26896278661029" lon="11.357221145036542"><ele>202.33333333333331</ele><time>2026-04-11T09:17:54.998Z</time></trkpt><trkpt lat="43.26895230161806" lon="11.35734187076073"><ele>202.66666666666666</ele><time>2026-04-11T09:17:55.998Z</time></trkpt><trkpt lat="43.268943601467036" lon="11.357462714693442"><ele>203.0</ele><time>2026-04-11T09:17:56.998Z</time></trkpt><trkpt lat="43.26894252340278" lon="11.357586841577648"><ele>203.33333333333331</ele><time>2026-04-11T09:17:57.998Z</time></trkpt><trkpt lat="43.26894160676389" lon="11.357711216270179"><ele>203.66666666666666</ele><time>2026-04-11T09:17:58.998Z</time></trkpt><trkpt lat="43.26893725979843" lon="11.357833082629288"><ele>204.0</ele><time>2026-04-11T09:17:59.998Z</time></trkpt><trkpt lat="43.268935242558435" lon="11.35795484783403"><ele>201.0</ele><time>2026-04-11T09:18:00.998Z</time></trkpt><trkpt lat="43.268932874402175" lon="11.358076194726372"><ele>198.0</ele><time>2026-04-11T09:18:01.998Z</time></trkpt><trkpt lat="43.26892770716689" lon="11.358199386533835"><ele>195.0</ele><time>2026-04-11T09:18:02.998Z</time></trkpt><trkpt lat="43.26891567075937" lon="11.358327529855881"><ele>192.0</ele><time>2026-04-11T09:18:04Z</time></trkpt><trkpt lat="43.26889604335373" lon="11.358454262029596"><ele>189.0</ele><time>2026-04-11T09:18:05Z</time></trkpt><trkpt lat="43.26886901198917" lon="11.358579944034522"><ele>189.0</ele><time>2026-04-11T09:18:06Z</time></trkpt><trkpt lat="43.26883560426237" lon="11.358696631748707"><ele>189.0</ele><time>2026-04-11T09:18:07Z</time></trkpt><trkpt lat="43.268797252705525" lon="11.358808831066339"><ele>189.0</ele><time>2026-04-11T09:18:08Z</time></trkpt><trkpt lat="43.26874697184523" lon="11.358917618489688"><ele>189.0</ele><time>2026-04-11T09:18:09Z</time></trkpt><trkpt lat="43.268683568307324" lon="11.359024328797895"><ele>189.0</ele><time>2026-04-11T09:18:10Z</time></trkpt><trkpt lat="43.268607247686944" lon="11.359121586750966"><ele>189.2</ele><time>2026-04-11T09:18:11Z</time></trkpt><trkpt lat="43.268522624362944" lon="11.359208811868207"><ele>189.39999999999998</ele><time>2026-04-11T09:18:12Z</time></trkpt><trkpt lat="43.26843155629785" lon="11.359287377868641"><ele>189.6</ele><time>2026-04-11T09:18:13Z</time></trkpt><trkpt lat="43.2683290574584" lon="11.35934991180757"><ele>189.8</ele><time>2026-04-11T09:18:14Z</time></trkpt><trkpt lat="43.268219326633" lon="11.35939532508545"><ele>190.0</ele><time>2026-04-11T09:18:15Z</time></trkpt><trkpt lat="43.26809966213463" lon="11.35938330027597"><ele>189.2</ele><time>2026-04-11T09:18:16Z</time></trkpt><trkpt lat="43.26798811328815" lon="11.359390846791575"><ele>188.4</ele><time>2026-04-11T09:18:17Z</time></trkpt><trkpt lat="43.26788344153388" lon="11.359373755538083"><ele>187.60000000000002</ele><time>2026-04-11T09:18:18Z</time></trkpt><trkpt lat="43.26777415798064" lon="11.359346110795332"><ele>186.8</ele><time>2026-04-11T09:18:19Z</time></trkpt><trkpt lat="43.267670379668694" lon="11.359312133234507"><ele>186.0</ele><time>2026-04-11T09:18:20Z</time></trkpt><trkpt lat="43.26757016621684" lon="11.35927518707032"><ele>186.0</ele><time>2026-04-11T09:18:21Z</time></trkpt><trkpt lat="43.26746825613697" lon="11.359253142448148"><ele>186.0</ele><time>2026-04-11T09:18:22Z</time></trkpt><trkpt lat="43.26737246183246" lon="11.35921098609891"><ele>186.0</ele><time>2026-04-11T09:18:23Z</time></trkpt><trkpt lat="43.26727766777471" lon="11.359170647574322"><ele>186.0</ele><time>2026-04-11T09:18:24Z</time></trkpt><trkpt lat="43.2671861291295" lon="11.359132606174601"><ele>186.0</ele><time>2026-04-11T09:18:25Z</time></trkpt><trkpt lat="43.267101086018094" lon="11.359075658839796"><ele>185.83333333333334</ele><time>2026-04-11T09:18:26Z</time></trkpt><trkpt lat="43.267013442777255" lon="11.359040003212167"><ele>185.66666666666666</ele><time>2026-04-11T09:18:27Z</time></trkpt><trkpt lat="43.26692758555432" lon="11.359005074191646"><ele>185.5</ele><time>2026-04-11T09:18:28Z</time></trkpt><trkpt lat="43.26684401130625" lon="11.358971073949794"><ele>185.33333333333331</ele><time>2026-04-11T09:18:29Z</time></trkpt><trkpt lat="43.26676166485366" lon="11.358937573198977"><ele>185.16666666666666</ele><time>2026-04-11T09:18:30Z</time></trkpt><trkpt lat="43.26668129670052" lon="11.358904974507983"><ele>185.0</ele><time>2026-04-11T09:18:31Z</time></trkpt><trkpt lat="43.266604809661246" lon="11.358873958802738"><ele>184.99999999999997</ele><time>2026-04-11T09:18:32Z</time></trkpt><trkpt lat="43.26652703152983" lon="11.358863972433733"><ele>185.0</ele><time>2026-04-11T09:18:33Z</time></trkpt><trkpt lat="43.26645717267401" lon="11.358832850253316"><ele>185.0</ele><time>2026-04-11T09:18:34Z</time></trkpt><trkpt lat="43.26638811585559" lon="11.358804365439923"><ele>185.0</ele><time>2026-04-11T09:18:35Z</time></trkpt><trkpt lat="43.26632543652" lon="11.35875274238349"><ele>185.0</ele><time>2026-04-11T09:18:36Z</time></trkpt><trkpt lat="43.26625553011377" lon="11.358721230276164"><ele>184.99999999999997</ele><time>2026-04-11T09:18:37Z</time></trkpt><trkpt lat="43.26618081719279" lon="11.358688819144605"><ele>185.0</ele><time>2026-04-11T09:18:38Z</time></trkpt><trkpt lat="43.26610349772455" lon="11.358654869377117"><ele>185.0</ele><time>2026-04-11T09:18:39Z</time></trkpt><trkpt lat="43.26602546010082" lon="11.358620604271797"><ele>185.0</ele><time>2026-04-11T09:18:40Z</time></trkpt><trkpt lat="43.26593974089242" lon="11.358624684589415"><ele>185.0</ele><time>2026-04-11T09:18:41Z</time></trkpt><trkpt lat="43.26585965570552" lon="11.358594591940793"><ele>185.0</ele><time>2026-04-11T09:18:42Z</time></trkpt><trkpt lat="43.265781819415444" lon="11.35856116922846"><ele>185.0</ele><time>2026-04-11T09:18:43Z</time></trkpt><trkpt lat="43.265707303016136" lon="11.358530741534311"><ele>185.0</ele><time>2026-04-11T09:18:44Z</time></trkpt><trkpt lat="43.26563101442277" lon="11.358497933030923"><ele>184.85714285714283</ele><time>2026-04-11T09:18:44.999Z</time></trkpt><trkpt lat="43.265556809447276" lon="11.358463336445945"><ele>184.71428571428572</ele><time>2026-04-11T09:18:45.999Z</time></trkpt><trkpt lat="43.265483471775454" lon="11.358430618330688"><ele>184.57142857142856</ele><time>2026-04-11T09:18:46.999Z</time></trkpt><trkpt lat="43.26541223351456" lon="11.358400900183176"><ele>184.42857142857142</ele><time>2026-04-11T09:18:47.999Z</time></trkpt><trkpt lat="43.26534183563986" lon="11.35836918009573"><ele>184.28571428571428</ele><time>2026-04-11T09:18:48.999Z</time></trkpt><trkpt lat="43.2652736483565" lon="11.358340691387783"><ele>184.14285714285714</ele><time>2026-04-11T09:18:49.999Z</time></trkpt><trkpt lat="43.265205612247236" lon="11.358316439719104"><ele>184.0</ele><time>2026-04-11T09:18:50.999Z</time></trkpt><trkpt lat="43.26514295130224" lon="11.358290554235559"><ele>184.0</ele><time>2026-04-11T09:18:51.999Z</time></trkpt><trkpt lat="43.26507956869686" lon="11.358263208842168"><ele>184.0</ele><time>2026-04-11T09:18:52.999Z</time></trkpt><trkpt lat="43.26501331942882" lon="11.358239906898012"><ele>184.0</ele><time>2026-04-11T09:18:53.999Z</time></trkpt><trkpt lat="43.264946874580666" lon="11.358225938874073"><ele>184.0</ele><time>2026-04-11T09:18:54.999Z</time></trkpt><trkpt lat="43.26488024929926" lon="11.358224375080733"><ele>184.0</ele><time>2026-04-11T09:18:55.999Z</time></trkpt><trkpt lat="43.26481571209715" lon="11.35823965827077"><ele>184.0</ele><time>2026-04-11T09:18:56.999Z</time></trkpt><trkpt lat="43.26475234731381" lon="11.358265143779162"><ele>184.0</ele><time>2026-04-11T09:18:57.999Z</time></trkpt><trkpt lat="43.264691607865025" lon="11.358305253301273"><ele>184.5</ele><time>2026-04-11T09:18:58.999Z</time></trkpt><trkpt lat="43.264639147440995" lon="11.35835957442162"><ele>185.0</ele><time>2026-04-11T09:18:59.999Z</time></trkpt><trkpt lat="43.264592060732724" lon="11.358420891912212"><ele>185.5</ele><time>2026-04-11T09:19:00.999Z</time></trkpt><trkpt lat="43.264550859311484" lon="11.358487095813725"><ele>186.0</ele><time>2026-04-11T09:19:01.999Z</time></trkpt><trkpt lat="43.26448182879213" lon="11.358632652695029"><ele>186.5</ele><time>2026-04-11T09:19:03.999Z</time></trkpt><trkpt lat="43.26444514834102" lon="11.358707990607446"><ele>187.0</ele><time>2026-04-11T09:19:04.999Z</time></trkpt><trkpt lat="43.26440667236865" lon="11.358779165325982"><ele>187.0</ele><time>2026-04-11T09:19:05.999Z</time></trkpt><trkpt lat="43.26436431939109" lon="11.358849523431182"><ele>187.0</ele><time>2026-04-11T09:19:06.999Z</time></trkpt><trkpt lat="43.26432204626208" lon="11.358922354189449"><ele>187.0</ele><time>2026-04-11T09:19:07.999Z</time></trkpt><trkpt lat="43.26427939025498" lon="11.358994463796792"><ele>187.0</ele><time>2026-04-11T09:19:08.999Z</time></trkpt><trkpt lat="43.26423436241367" lon="11.359060760242839"><ele>187.0</ele><time>2026-04-11T09:19:09.999Z</time></trkpt><trkpt lat="43.26418964490589" lon="11.359127349050121"><ele>187.0</ele><time>2026-04-11T09:19:10.999Z</time></trkpt><trkpt lat="43.264142378625216" lon="11.359186358763862"><ele>187.0</ele><time>2026-04-11T09:19:11.999Z</time></trkpt><trkpt lat="43.26409028723641" lon="11.35924267047103"><ele>186.57142857142856</ele><time>2026-04-11T09:19:12.999Z</time></trkpt><trkpt lat="43.26403626757505" lon="11.3592944430444"><ele>186.14285714285717</ele><time>2026-04-11T09:19:13.999Z</time></trkpt><trkpt lat="43.26397902318761" lon="11.359339388278185"><ele>185.71428571428572</ele><time>2026-04-11T09:19:14.999Z</time></trkpt><trkpt lat="43.263922510149854" lon="11.359385471318223"><ele>185.28571428571428</ele><time>2026-04-11T09:19:15.999Z</time></trkpt><trkpt lat="43.26386376332576" lon="11.359427548418038"><ele>184.85714285714283</ele><time>2026-04-11T09:19:16.999Z</time></trkpt><trkpt lat="43.263805873495166" lon="11.359469808855081"><ele>184.42857142857144</ele><time>2026-04-11T09:19:17.999Z</time></trkpt><trkpt lat="43.263745847874624" lon="11.35950828649243"><ele>184.0</ele><time>2026-04-11T09:19:18.999Z</time></trkpt><trkpt lat="43.26368594842873" lon="11.35954439151444"><ele>183.85714285714286</ele><time>2026-04-11T09:19:19.999Z</time></trkpt><trkpt lat="43.26362585592322" lon="11.359586464559996"><ele>183.7142857142857</ele><time>2026-04-11T09:19:20.999Z</time></trkpt><trkpt lat="43.26356755043681" lon="11.359630159366764"><ele>183.57142857142856</ele><time>2026-04-11T09:19:21.999Z</time></trkpt><trkpt lat="43.26351097510481" lon="11.359676667634421"><ele>183.42857142857144</ele><time>2026-04-11T09:19:22.999Z</time></trkpt><trkpt lat="43.2634520702383" lon="11.359722697970561"><ele>183.28571428571428</ele><time>2026-04-11T09:19:23.999Z</time></trkpt><trkpt lat="43.263393431299846" lon="11.359771758762328"><ele>183.14285714285714</ele><time>2026-04-11T09:19:24.999Z</time></trkpt><trkpt lat="43.26333897818431" lon="11.359824943023318"><ele>183.0</ele><time>2026-04-11T09:19:25.999Z</time></trkpt><trkpt lat="43.263284256955636" lon="11.359879113498984"><ele>182.85714285714286</ele><time>2026-04-11T09:19:26.999Z</time></trkpt><trkpt lat="43.263231623936754" lon="11.359927698508336"><ele>182.71428571428572</ele><time>2026-04-11T09:19:27.999Z</time></trkpt><trkpt lat="43.263178493730564" lon="11.359986921972721"><ele>182.57142857142856</ele><time>2026-04-11T09:19:28.999Z</time></trkpt><trkpt lat="43.26312677459257" lon="11.360039496404255"><ele>182.42857142857144</ele><time>2026-04-11T09:19:29.999Z</time></trkpt><trkpt lat="43.26307489067859" lon="11.360093173476457"><ele>182.28571428571428</ele><time>2026-04-11T09:19:30.999Z</time></trkpt><trkpt lat="43.26302414925216" lon="11.36015083459535"><ele>182.14285714285714</ele><time>2026-04-11T09:19:31.999Z</time></trkpt><trkpt lat="43.2629741659047" lon="11.36020613033775"><ele>182.0</ele><time>2026-04-11T09:19:32.999Z</time></trkpt><trkpt lat="43.26292391541332" lon="11.360266629309221"><ele>182.2</ele><time>2026-04-11T09:19:33.999Z</time></trkpt><trkpt lat="43.262873911531344" lon="11.360324635681287"><ele>182.39999999999998</ele><time>2026-04-11T09:19:34.999Z</time></trkpt><trkpt lat="43.26277824257263" lon="11.360435821415122"><ele>182.60000000000002</ele><time>2026-04-11T09:19:36.998Z</time></trkpt><trkpt lat="43.262683180571464" lon="11.360543136145816"><ele>182.8</ele><time>2026-04-11T09:19:38.998Z</time></trkpt><trkpt lat="43.26260702904624" lon="11.360548819074907"><ele>183.0</ele><time>2026-04-11T09:19:39.998Z</time></trkpt><trkpt lat="43.262517688524774" lon="11.360660588644164"><ele>183.0</ele><time>2026-04-11T09:19:41.998Z</time></trkpt><trkpt lat="43.26243222352659" lon="11.360770465068619"><ele>183.0</ele><time>2026-04-11T09:19:43.998Z</time></trkpt><trkpt lat="43.26234901637774" lon="11.360877492629704"><ele>183.0</ele><time>2026-04-11T09:19:45.998Z</time></trkpt><trkpt lat="43.262267938202726" lon="11.360981781790006"><ele>183.0</ele><time>2026-04-11T09:19:47.998Z</time></trkpt><trkpt lat="43.26221915885852" lon="11.361129731018814"><ele>182.8</ele><time>2026-04-11T09:19:49.998Z</time></trkpt><trkpt lat="43.2621378953026" lon="11.361229458905107"><ele>182.60000000000002</ele><time>2026-04-11T09:19:51.998Z</time></trkpt><trkpt lat="43.26205560724469" lon="11.361328873906881"><ele>182.39999999999998</ele><time>2026-04-11T09:19:53.998Z</time></trkpt><trkpt lat="43.261966514661175" lon="11.361416765882401"><ele>182.2</ele><time>2026-04-11T09:19:55.998Z</time></trkpt><trkpt lat="43.261870138923136" lon="11.361502542561706"><ele>182.0</ele><time>2026-04-11T09:19:57.998Z</time></trkpt><trkpt lat="43.26176893465657" lon="11.36158338408136"><ele>182.0</ele><time>2026-04-11T09:19:59.998Z</time></trkpt><trkpt lat="43.26166883874392" lon="11.361655369481298"><ele>182.0</ele><time>2026-04-11T09:20:01.998Z</time></trkpt><trkpt lat="43.26156477630147" lon="11.361727453528406"><ele>182.0</ele><time>2026-04-11T09:20:03.998Z</time></trkpt><trkpt lat="43.26145642638907" lon="11.36179767794994"><ele>182.0</ele><time>2026-04-11T09:20:05.998Z</time></trkpt><trkpt lat="43.2613472626022" lon="11.361861754970802"><ele>182.0</ele><time>2026-04-11T09:20:07.998Z</time></trkpt><trkpt lat="43.26123778418781" lon="11.361923108043923"><ele>182.0</ele><time>2026-04-11T09:20:10Z</time></trkpt><trkpt lat="43.261121711389556" lon="11.36197315025056"><ele>182.0</ele><time>2026-04-11T09:20:12Z</time></trkpt><trkpt lat="43.26100239744271" lon="11.362001314199683"><ele>182.0</ele><time>2026-04-11T09:20:14Z</time></trkpt><trkpt lat="43.260882960141075" lon="11.36202286067339"><ele>182.0</ele><time>2026-04-11T09:20:16Z</time></trkpt><trkpt lat="43.260767470877994" lon="11.36203586597965"><ele>182.0</ele><time>2026-04-11T09:20:18Z</time></trkpt><trkpt lat="43.26065462190904" lon="11.362032538099877"><ele>182.0</ele><time>2026-04-11T09:20:20Z</time></trkpt><trkpt lat="43.26054783739292" lon="11.362021311752635"><ele>182.0</ele><time>2026-04-11T09:20:22Z</time></trkpt><trkpt lat="43.26045088229128" lon="11.36200555286171"><ele>182.0</ele><time>2026-04-11T09:20:24Z</time></trkpt><trkpt lat="43.260360594530844" lon="11.361976682843842"><ele>182.5</ele><time>2026-04-11T09:20:26Z</time></trkpt><trkpt lat="43.26027469723265" lon="11.361952757315203"><ele>183.0</ele><time>2026-04-11T09:20:28Z</time></trkpt><trkpt lat="43.26019454850054" lon="11.36193133069036"><ele>183.5</ele><time>2026-04-11T09:20:30Z</time></trkpt><trkpt lat="43.26011852446941" lon="11.361911218926998"><ele>184.0</ele><time>2026-04-11T09:20:32Z</time></trkpt><trkpt lat="43.2600446750614" lon="11.361889345716078"><ele>184.5</ele><time>2026-04-11T09:20:34Z</time></trkpt><trkpt lat="43.25997240319953" lon="11.361862282299068"><ele>185.0</ele><time>2026-04-11T09:20:36Z</time></trkpt><trkpt lat="43.259902471000906" lon="11.361840810340187"><ele>184.99999999999997</ele><time>2026-04-11T09:20:38Z</time></trkpt><trkpt lat="43.25982767167367" lon="11.361824206254004"><ele>185.0</ele><time>2026-04-11T09:20:40Z</time></trkpt><trkpt lat="43.25975897264967" lon="11.361793666094247"><ele>185.0</ele><time>2026-04-11T09:20:42Z</time></trkpt><trkpt lat="43.25968716488986" lon="11.361767630919486"><ele>185.0</ele><time>2026-04-11T09:20:44Z</time></trkpt><trkpt lat="43.25962055806523" lon="11.361740806994144"><ele>185.0</ele><time>2026-04-11T09:20:46Z</time></trkpt><trkpt lat="43.25955173938327" lon="11.361707409319076"><ele>184.99999999999997</ele><time>2026-04-11T09:20:48Z</time></trkpt><trkpt lat="43.25948475974922" lon="11.36167344520032"><ele>185.0</ele><time>2026-04-11T09:20:50Z</time></trkpt><trkpt lat="43.25941581884144" lon="11.361635736787987"><ele>186.33333333333331</ele><time>2026-04-11T09:20:51.999Z</time></trkpt><trkpt lat="43.25935671068062" lon="11.361600526737824"><ele>187.66666666666666</ele><time>2026-04-11T09:20:53.999Z</time></trkpt><trkpt lat="43.259290120654065" lon="11.361569290956508"><ele>189.0</ele><time>2026-04-11T09:20:55.999Z</time></trkpt><trkpt lat="43.259227074347756" lon="11.361531018578082"><ele>190.33333333333331</ele><time>2026-04-11T09:20:58.999Z</time></trkpt><trkpt lat="43.25915095983432" lon="11.361495947084752"><ele>191.66666666666666</ele><time>2026-04-11T09:21:01.999Z</time></trkpt><trkpt lat="43.25907381761948" lon="11.361446208044622"><ele>193.0</ele><time>2026-04-11T09:21:04.999Z</time></trkpt><trkpt lat="43.2589973948418" lon="11.361396504831852"><ele>193.33333333333331</ele><time>2026-04-11T09:21:07.999Z</time></trkpt><trkpt lat="43.258925273727755" lon="11.361338243531254"><ele>193.66666666666666</ele><time>2026-04-11T09:21:10.999Z</time></trkpt><trkpt lat="43.258848131743115" lon="11.361276677988627"><ele>194.0</ele><time>2026-04-11T09:21:13.999Z</time></trkpt><trkpt lat="43.25879404732269" lon="11.361231908901079"><ele>194.33333333333331</ele><time>2026-04-11T09:21:15.999Z</time></trkpt><trkpt lat="43.25874154948065" lon="11.361184123108819"><ele>194.66666666666666</ele><time>2026-04-11T09:21:17.999Z</time></trkpt><trkpt lat="43.25868614400502" lon="11.361137225992278"><ele>195.0</ele><time>2026-04-11T09:21:19.999Z</time></trkpt><trkpt lat="43.258595737432834" lon="11.361053573121774"><ele>195.0</ele><time>2026-04-11T09:21:22.999Z</time></trkpt><trkpt lat="43.258527153756205" lon="11.360990432126693"><ele>195.0</ele><time>2026-04-11T09:21:24.999Z</time></trkpt><trkpt lat="43.25846749788572" lon="11.360945174416571"><ele>195.0</ele><time>2026-04-11T09:21:27.999Z</time></trkpt><trkpt lat="43.258396249196394" lon="11.360876834969"><ele>195.0</ele><time>2026-04-11T09:21:30.999Z</time></trkpt><trkpt lat="43.25834376805233" lon="11.360823605902377"><ele>195.0</ele><time>2026-04-11T09:21:32.999Z</time></trkpt><trkpt lat="43.258283198809345" lon="11.360767202210551"><ele>195.0</ele><time>2026-04-11T09:21:34.999Z</time></trkpt><trkpt lat="43.25820202598398" lon="11.360696655203911"><ele>195.0</ele><time>2026-04-11T09:21:36.999Z</time></trkpt><trkpt lat="43.25814794593227" lon="11.360639143478972"><ele>195.0</ele><time>2026-04-11T09:21:38.999Z</time></trkpt><trkpt lat="43.25807853294575" lon="11.36058226650758"><ele>195.0</ele><time>2026-04-11T09:21:40.998Z</time></trkpt><trkpt lat="43.25801628678446" lon="11.360537266290025"><ele>195.0</ele><time>2026-04-11T09:21:42.998Z</time></trkpt><trkpt lat="43.25794887302647" lon="11.360500241973288"><ele>195.0</ele><time>2026-04-11T09:21:44.998Z</time></trkpt><trkpt lat="43.25788174372746" lon="11.360471181360847"><ele>195.0</ele><time>2026-04-11T09:21:46.998Z</time></trkpt><trkpt lat="43.257821530759735" lon="11.360435509231488"><ele>195.0</ele><time>2026-04-11T09:21:48.998Z</time></trkpt><trkpt lat="43.257733099500626" lon="11.360391565143301"><ele>195.0</ele><time>2026-04-11T09:21:51.998Z</time></trkpt><trkpt lat="43.25764341210437" lon="11.360347326403799"><ele>195.0</ele><time>2026-04-11T09:21:54.998Z</time></trkpt><trkpt lat="43.25757896348902" lon="11.360321460982746"><ele>195.0</ele><time>2026-04-11T09:21:56.998Z</time></trkpt><trkpt lat="43.257516109721735" lon="11.36028638586082"><ele>195.0</ele><time>2026-04-11T09:21:58.998Z</time></trkpt><trkpt lat="43.25744993215596" lon="11.360260834022048"><ele>195.0</ele><time>2026-04-11T09:22:00.998Z</time></trkpt><trkpt lat="43.25738446413048" lon="11.360232392730756"><ele>195.0</ele><time>2026-04-11T09:22:02.998Z</time></trkpt><trkpt lat="43.25732389717794" lon="11.360208566281198"><ele>195.0</ele><time>2026-04-11T09:22:04.998Z</time></trkpt><trkpt lat="43.25723894184279" lon="11.360179698513614"><ele>195.57142857142856</ele><time>2026-04-11T09:22:07.998Z</time></trkpt><trkpt lat="43.25715023357201" lon="11.360145941979916"><ele>196.14285714285714</ele><time>2026-04-11T09:22:10.998Z</time></trkpt><trkpt lat="43.257086280654185" lon="11.360139402576193"><ele>196.71428571428572</ele><time>2026-04-11T09:22:12.998Z</time></trkpt><trkpt lat="43.25701905229101" lon="11.360132458425142"><ele>197.28571428571428</ele><time>2026-04-11T09:22:14.998Z</time></trkpt><trkpt lat="43.25695291735292" lon="11.360127795442503"><ele>197.85714285714286</ele><time>2026-04-11T09:22:17Z</time></trkpt><trkpt lat="43.256886138562095" lon="11.360122007222529"><ele>198.42857142857142</ele><time>2026-04-11T09:22:19Z</time></trkpt><trkpt lat="43.25681582709823" lon="11.36012632436894"><ele>199.0</ele><time>2026-04-11T09:22:21Z</time></trkpt><trkpt lat="43.256747361762784" lon="11.360134223493356"><ele>198.99999999999997</ele><time>2026-04-11T09:22:23Z</time></trkpt><trkpt lat="43.256677939371166" lon="11.360141056384538"><ele>199.0</ele><time>2026-04-11T09:22:25Z</time></trkpt><trkpt lat="43.25660773926329" lon="11.360152309858039"><ele>199.0</ele><time>2026-04-11T09:22:27Z</time></trkpt><trkpt lat="43.25654026271663" lon="11.360172610270975"><ele>199.0</ele><time>2026-04-11T09:22:29Z</time></trkpt><trkpt lat="43.256470588316866" lon="11.360183893612238"><ele>199.0</ele><time>2026-04-11T09:22:31Z</time></trkpt><trkpt lat="43.25640464064382" lon="11.360198385385631"><ele>198.99999999999997</ele><time>2026-04-11T09:22:33Z</time></trkpt><trkpt lat="43.25634090279811" lon="11.360213464470554"><ele>199.0</ele><time>2026-04-11T09:22:35Z</time></trkpt><trkpt lat="43.2562746555533" lon="11.360236282362337"><ele>199.57142857142856</ele><time>2026-04-11T09:22:37Z</time></trkpt><trkpt lat="43.25621033238062" lon="11.360259731610645"><ele>200.14285714285714</ele><time>2026-04-11T09:22:39Z</time></trkpt><trkpt lat="43.25614751517256" lon="11.360280967003705"><ele>200.71428571428572</ele><time>2026-04-11T09:22:41Z</time></trkpt><trkpt lat="43.25609178511551" lon="11.360321171988929"><ele>201.28571428571428</ele><time>2026-04-11T09:22:43Z</time></trkpt><trkpt lat="43.25603347147698" lon="11.360360539606221"><ele>201.85714285714286</ele><time>2026-04-11T09:22:45Z</time></trkpt><trkpt lat="43.25597483683649" lon="11.360397643911801"><ele>202.42857142857142</ele><time>2026-04-11T09:22:47Z</time></trkpt><trkpt lat="43.255913627366105" lon="11.360434570368191"><ele>203.0</ele><time>2026-04-11T09:22:49Z</time></trkpt><trkpt lat="43.25585496514515" lon="11.360472068051642"><ele>203.0</ele><time>2026-04-11T09:22:51Z</time></trkpt><trkpt lat="43.25579762937828" lon="11.360514537510175"><ele>203.0</ele><time>2026-04-11T09:22:53Z</time></trkpt><trkpt lat="43.25573903942235" lon="11.360558001238077"><ele>203.0</ele><time>2026-04-11T09:22:55Z</time></trkpt><trkpt lat="43.25568138447943" lon="11.360595617895855"><ele>203.0</ele><time>2026-04-11T09:22:57Z</time></trkpt><trkpt lat="43.2556248482249" lon="11.360635532486814"><ele>203.0</ele><time>2026-04-11T09:22:58.999Z</time></trkpt><trkpt lat="43.25556794557186" lon="11.360674724774755"><ele>203.0</ele><time>2026-04-11T09:23:00.999Z</time></trkpt><trkpt lat="43.25548061624764" lon="11.360732322933996"><ele>203.0</ele><time>2026-04-11T09:23:03.999Z</time></trkpt><trkpt lat="43.255399133150945" lon="11.360792246465886"><ele>204.83333333333334</ele><time>2026-04-11T09:23:06.999Z</time></trkpt><trkpt lat="43.255320027833385" lon="11.3608583682734"><ele>206.66666666666669</ele><time>2026-04-11T09:23:09.999Z</time></trkpt><trkpt lat="43.255246742036384" lon="11.360939948929774"><ele>208.5</ele><time>2026-04-11T09:23:12.999Z</time></trkpt><trkpt lat="43.25518010339642" lon="11.36102842711511"><ele>210.33333333333331</ele><time>2026-04-11T09:23:15.999Z</time></trkpt><trkpt lat="43.25512184768579" lon="11.361109222470176"><ele>212.16666666666666</ele><time>2026-04-11T09:23:18.999Z</time></trkpt><trkpt lat="43.255066692102424" lon="11.361201433006807"><ele>214.0</ele><time>2026-04-11T09:23:21.999Z</time></trkpt><trkpt lat="43.25502798487394" lon="11.361271578187448"><ele>213.99999999999997</ele><time>2026-04-11T09:23:23.999Z</time></trkpt><trkpt lat="43.25497259559459" lon="11.361371998298718"><ele>214.0</ele><time>2026-04-11T09:23:26.999Z</time></trkpt><trkpt lat="43.25492170662191" lon="11.361473096811268"><ele>214.0</ele><time>2026-04-11T09:23:29.999Z</time></trkpt><trkpt lat="43.254874958645075" lon="11.36156472002709"><ele>214.0</ele><time>2026-04-11T09:23:32.999Z</time></trkpt><trkpt lat="43.25482853931608" lon="11.361660704477497"><ele>213.99999999999997</ele><time>2026-04-11T09:23:36.999Z</time></trkpt><trkpt lat="43.25479132373236" lon="11.361750691206622"><ele>214.0</ele><time>2026-04-11T09:23:39.999Z</time></trkpt><trkpt lat="43.254749691179846" lon="11.36183670351445"><ele>214.99999999999997</ele><time>2026-04-11T09:23:42.999Z</time></trkpt><trkpt lat="43.254698641300564" lon="11.361915166370917"><ele>216.0</ele><time>2026-04-11T09:23:45.999Z</time></trkpt><trkpt lat="43.25464467271196" lon="11.361992638449772"><ele>217.0</ele><time>2026-04-11T09:23:48.998Z</time></trkpt><trkpt lat="43.254581748894275" lon="11.362061360609555"><ele>218.0</ele><time>2026-04-11T09:23:51.998Z</time></trkpt><trkpt lat="43.25451637656725" lon="11.362123946926461"><ele>218.99999999999997</ele><time>2026-04-11T09:23:54.998Z</time></trkpt><trkpt lat="43.25444909335945" lon="11.362187252304597"><ele>220.0</ele><time>2026-04-11T09:23:57.998Z</time></trkpt><trkpt lat="43.2543667659783" lon="11.36224100143685"><ele>219.99999999999997</ele><time>2026-04-11T09:24:00.998Z</time></trkpt><trkpt lat="43.25430729990015" lon="11.362277126178146"><ele>220.0</ele><time>2026-04-11T09:24:02.998Z</time></trkpt><trkpt lat="43.25424131520054" lon="11.362307852759493"><ele>220.0</ele><time>2026-04-11T09:24:04.998Z</time></trkpt><trkpt lat="43.254165628263344" lon="11.362337200639308"><ele>220.0</ele><time>2026-04-11T09:24:06.998Z</time></trkpt><trkpt lat="43.254078753482766" lon="11.362364641202996"><ele>219.99999999999997</ele><time>2026-04-11T09:24:08.998Z</time></trkpt><trkpt lat="43.25401384512192" lon="11.362380712395247"><ele>220.0</ele><time>2026-04-11T09:24:11.998Z</time></trkpt><trkpt lat="43.25392942692211" lon="11.362394820181336"><ele>220.83333333333331</ele><time>2026-04-11T09:24:14.998Z</time></trkpt><trkpt lat="43.25382456066998" lon="11.362403400877257"><ele>221.66666666666666</ele><time>2026-04-11T09:24:17.998Z</time></trkpt><trkpt lat="43.25373507151181" lon="11.362418117332961"><ele>222.5</ele><time>2026-04-11T09:24:20.998Z</time></trkpt><trkpt lat="43.253641549605135" lon="11.362431125463637"><ele>223.33333333333331</ele><time>2026-04-11T09:24:24Z</time></trkpt><trkpt lat="43.25358028310949" lon="11.362455802274116"><ele>224.16666666666666</ele><time>2026-04-11T09:24:26Z</time></trkpt><trkpt lat="43.25349282564041" lon="11.362468635136013"><ele>225.0</ele><time>2026-04-11T09:24:29Z</time></trkpt><trkpt lat="43.253408742236516" lon="11.36249643112221"><ele>225.0</ele><time>2026-04-11T09:24:32Z</time></trkpt><trkpt lat="43.25332524228203" lon="11.362520413550154"><ele>225.0</ele><time>2026-04-11T09:24:36Z</time></trkpt><trkpt lat="43.25324707630577" lon="11.362549832471355"><ele>225.0</ele><time>2026-04-11T09:24:39Z</time></trkpt><trkpt lat="43.25316716480495" lon="11.36258223341887"><ele>225.0</ele><time>2026-04-11T09:24:42Z</time></trkpt><trkpt lat="43.253098899436054" lon="11.362613853486023"><ele>225.0</ele><time>2026-04-11T09:24:44Z</time></trkpt><trkpt lat="43.253038240116375" lon="11.362642600694201"><ele>225.0</ele><time>2026-04-11T09:24:47Z</time></trkpt><trkpt lat="43.25296423254126" lon="11.362681734445957"><ele>225.42857142857144</ele><time>2026-04-11T09:24:49Z</time></trkpt><trkpt lat="43.2528968800695" lon="11.362727721572277"><ele>225.85714285714286</ele><time>2026-04-11T09:24:52Z</time></trkpt><trkpt lat="43.25283169768705" lon="11.362770495415477"><ele>226.28571428571428</ele><time>2026-04-11T09:24:55Z</time></trkpt><trkpt lat="43.25276708059025" lon="11.362811959596472"><ele>226.71428571428572</ele><time>2026-04-11T09:24:59Z</time></trkpt><trkpt lat="43.25270503580824" lon="11.36284858562028"><ele>227.1428571428571</ele><time>2026-04-11T09:25:02Z</time></trkpt><trkpt lat="43.252637346724626" lon="11.362891386139337"><ele>227.57142857142856</ele><time>2026-04-11T09:25:05.999Z</time></trkpt><trkpt lat="43.25256580521326" lon="11.362939954596984"><ele>228.0</ele><time>2026-04-11T09:25:09.999Z</time></trkpt><trkpt lat="43.25251019905899" lon="11.362985627221535"><ele>228.83333333333334</ele><time>2026-04-11T09:25:13.999Z</time></trkpt><trkpt lat="43.25245197131464" lon="11.363044938335461"><ele>229.66666666666669</ele><time>2026-04-11T09:25:16.999Z</time></trkpt><trkpt lat="43.252397812359874" lon="11.363097390460444"><ele>230.5</ele><time>2026-04-11T09:25:19.999Z</time></trkpt><trkpt lat="43.252320633382666" lon="11.363168893819292"><ele>231.33333333333334</ele><time>2026-04-11T09:25:23.999Z</time></trkpt><trkpt lat="43.25226168273806" lon="11.363233254557304"><ele>232.16666666666669</ele><time>2026-04-11T09:25:26.999Z</time></trkpt><trkpt lat="43.252203494349956" lon="11.36329906775754"><ele>233.0</ele><time>2026-04-11T09:25:29.999Z</time></trkpt><trkpt lat="43.25214427860574" lon="11.363365354836422"><ele>233.0</ele><time>2026-04-11T09:25:32.999Z</time></trkpt><trkpt lat="43.25206817387635" lon="11.363434926361325"><ele>233.0</ele><time>2026-04-11T09:25:35.999Z</time></trkpt><trkpt lat="43.25196948120899" lon="11.363508461259576"><ele>233.0</ele><time>2026-04-11T09:25:37.999Z</time></trkpt><trkpt lat="43.25188309688798" lon="11.363565252265351"><ele>233.0</ele><time>2026-04-11T09:25:39.999Z</time></trkpt><trkpt lat="43.251788733092404" lon="11.363610308203812"><ele>233.0</ele><time>2026-04-11T09:25:41.999Z</time></trkpt><trkpt lat="43.25169385088499" lon="11.363632903198631"><ele>233.0</ele><time>2026-04-11T09:25:43.999Z</time></trkpt><trkpt lat="43.2515795543384" lon="11.36363768880999"><ele>233.0</ele><time>2026-04-11T09:25:45.999Z</time></trkpt><trkpt lat="43.25147357033225" lon="11.363626025736744"><ele>233.0</ele><time>2026-04-11T09:25:47.999Z</time></trkpt><trkpt lat="43.25139534203347" lon="11.363622965489059"><ele>233.0</ele><time>2026-04-11T09:25:50.999Z</time></trkpt><trkpt lat="43.25149525289611" lon="11.363618203143654"><ele>233.0</ele><time>2026-04-11T09:26:13.998Z</time></trkpt><trkpt lat="43.251570458186904" lon="11.363623063728543"><ele>233.0</ele><time>2026-04-11T09:26:32Z</time></trkpt><trkpt lat="43.25151020525174" lon="11.363656886175969"><ele>233.0</ele><time>2026-04-11T09:26:59Z</time></trkpt><trkpt lat="43.251425149312155" lon="11.363634855287051"><ele>233.0</ele><time>2026-04-11T09:27:01Z</time></trkpt><trkpt lat="43.25131961543284" lon="11.363605160866447"><ele>233.0</ele><time>2026-04-11T09:27:03Z</time></trkpt><trkpt lat="43.251195382571375" lon="11.363562539307882"><ele>233.0</ele><time>2026-04-11T09:27:05Z</time></trkpt><trkpt lat="43.251130488087156" lon="11.363536916612468"><ele>231.66666666666669</ele><time>2026-04-11T09:27:06Z</time></trkpt><trkpt lat="43.251060099813095" lon="11.363504549209999"><ele>230.33333333333334</ele><time>2026-04-11T09:27:07Z</time></trkpt><trkpt lat="43.25099083777779" lon="11.363469045260427"><ele>229.0</ele><time>2026-04-11T09:27:08Z</time></trkpt><trkpt lat="43.25091604650286" lon="11.363433947230867"><ele>227.66666666666669</ele><time>2026-04-11T09:27:09Z</time></trkpt><trkpt lat="43.25083949129344" lon="11.363402802052736"><ele>226.33333333333334</ele><time>2026-04-11T09:27:10Z</time></trkpt><trkpt lat="43.25076064033194" lon="11.363376840563888"><ele>225.0</ele><time>2026-04-11T09:27:10.999Z</time></trkpt><trkpt lat="43.250680261250864" lon="11.363352185529754"><ele>224.66666666666666</ele><time>2026-04-11T09:27:11.999Z</time></trkpt><trkpt lat="43.25060185911168" lon="11.363330678158988"><ele>224.33333333333331</ele><time>2026-04-11T09:27:12.999Z</time></trkpt><trkpt lat="43.250523888648615" lon="11.363310060822753"><ele>224.0</ele><time>2026-04-11T09:27:13.999Z</time></trkpt><trkpt lat="43.250447995393834" lon="11.363292315699425"><ele>223.66666666666666</ele><time>2026-04-11T09:27:14.999Z</time></trkpt><trkpt lat="43.250370926715334" lon="11.36327473691098"><ele>223.33333333333331</ele><time>2026-04-11T09:27:15.999Z</time></trkpt><trkpt lat="43.25029534237288" lon="11.363255970127273"><ele>223.0</ele><time>2026-04-11T09:27:16.999Z</time></trkpt><trkpt lat="43.25021485412854" lon="11.363237309538107"><ele>222.99999999999997</ele><time>2026-04-11T09:27:17.999Z</time></trkpt><trkpt lat="43.250135055436175" lon="11.363211809255386"><ele>223.0</ele><time>2026-04-11T09:27:18.999Z</time></trkpt><trkpt lat="43.25005417580749" lon="11.363184433513783"><ele>223.0</ele><time>2026-04-11T09:27:19.999Z</time></trkpt><trkpt lat="43.24997236165097" lon="11.363159673945734"><ele>223.0</ele><time>2026-04-11T09:27:20.999Z</time></trkpt><trkpt lat="43.24989020850792" lon="11.363139002742283"><ele>222.99999999999997</ele><time>2026-04-11T09:27:21.999Z</time></trkpt><trkpt lat="43.24980738946373" lon="11.363119217336513"><ele>223.0</ele><time>2026-04-11T09:27:22.999Z</time></trkpt><trkpt lat="43.249726684627106" lon="11.363104443816415"><ele>223.71428571428572</ele><time>2026-04-11T09:27:23.999Z</time></trkpt><trkpt lat="43.2496465314436" lon="11.36309890327865"><ele>224.42857142857142</ele><time>2026-04-11T09:27:24.999Z</time></trkpt><trkpt lat="43.24957028820124" lon="11.363101514881958"><ele>225.14285714285714</ele><time>2026-04-11T09:27:25.999Z</time></trkpt><trkpt lat="43.24949279050553" lon="11.36311759735009"><ele>225.85714285714283</ele><time>2026-04-11T09:27:26.999Z</time></trkpt><trkpt lat="43.24942204849917" lon="11.363139670740747"><ele>226.57142857142856</ele><time>2026-04-11T09:27:27.999Z</time></trkpt><trkpt lat="43.24935549595573" lon="11.36316843339848"><ele>227.28571428571428</ele><time>2026-04-11T09:27:28.999Z</time></trkpt><trkpt lat="43.24929278044171" lon="11.363201555339902"><ele>228.0</ele><time>2026-04-11T09:27:29.999Z</time></trkpt><trkpt lat="43.24923320667001" lon="11.363241544757384"><ele>228.0</ele><time>2026-04-11T09:27:30.999Z</time></trkpt><trkpt lat="43.24917613458913" lon="11.363283207613035"><ele>228.0</ele><time>2026-04-11T09:27:31.999Z</time></trkpt><trkpt lat="43.24907421930114" lon="11.363375185155432"><ele>228.0</ele><time>2026-04-11T09:27:33.999Z</time></trkpt><trkpt lat="43.2489874825765" lon="11.363483208109315"><ele>228.0</ele><time>2026-04-11T09:27:35.999Z</time></trkpt><trkpt lat="43.24891398116826" lon="11.363594417597007"><ele>228.0</ele><time>2026-04-11T09:27:37.999Z</time></trkpt><trkpt lat="43.24883571284266" lon="11.36370483492432"><ele>228.0</ele><time>2026-04-11T09:27:39.999Z</time></trkpt><trkpt lat="43.24878880911082" lon="11.36376642185578"><ele>227.99999999999997</ele><time>2026-04-11T09:27:40.999Z</time></trkpt><trkpt lat="43.24874201702208" lon="11.363830288755723"><ele>228.0</ele><time>2026-04-11T09:27:41.999Z</time></trkpt><trkpt lat="43.248696456715756" lon="11.363897890217366"><ele>228.0</ele><time>2026-04-11T09:27:42.999Z</time></trkpt><trkpt lat="43.248652383842426" lon="11.363966339027233"><ele>227.99999999999997</ele><time>2026-04-11T09:27:43.999Z</time></trkpt><trkpt lat="43.24860609071283" lon="11.36403435970926"><ele>228.0</ele><time>2026-04-11T09:27:44.999Z</time></trkpt><trkpt lat="43.2485608204678" lon="11.364097670845538"><ele>228.0</ele><time>2026-04-11T09:27:45.999Z</time></trkpt><trkpt lat="43.24851630058568" lon="11.364159353354557"><ele>227.75</ele><time>2026-04-11T09:27:46.999Z</time></trkpt><trkpt lat="43.24842942449552" lon="11.364278272668358"><ele>227.5</ele><time>2026-04-11T09:27:48.999Z</time></trkpt><trkpt lat="43.248360080019054" lon="11.36439972228998"><ele>227.25</ele><time>2026-04-11T09:27:50.999Z</time></trkpt><trkpt lat="43.248305390362106" lon="11.364523617393878"><ele>227.0</ele><time>2026-04-11T09:27:52.999Z</time></trkpt><trkpt lat="43.24826924533152" lon="11.364665582934295"><ele>226.6</ele><time>2026-04-11T09:27:54.999Z</time></trkpt><trkpt lat="43.24825604569131" lon="11.364820373954913"><ele>226.2</ele><time>2026-04-11T09:27:56.999Z</time></trkpt><trkpt lat="43.248261091540755" lon="11.364971990895205"><ele>225.8</ele><time>2026-04-11T09:27:58.999Z</time></trkpt><trkpt lat="43.24826431328955" lon="11.365123593541062"><ele>225.4</ele><time>2026-04-11T09:28:00.998Z</time></trkpt><trkpt lat="43.248252070161236" lon="11.365254962977291"><ele>225.0</ele><time>2026-04-11T09:28:02.998Z</time></trkpt><trkpt lat="43.2482233783676" lon="11.365369621389435"><ele>225.0</ele><time>2026-04-11T09:28:04.998Z</time></trkpt><trkpt lat="43.248189208159474" lon="11.365474735169451"><ele>225.0</ele><time>2026-04-11T09:28:06.998Z</time></trkpt><trkpt lat="43.24814761257624" lon="11.3655859038876"><ele>225.0</ele><time>2026-04-11T09:28:08.998Z</time></trkpt><trkpt lat="43.24808601780668" lon="11.365688784044734"><ele>225.0</ele><time>2026-04-11T09:28:10.998Z</time></trkpt><trkpt lat="43.24801361641279" lon="11.365793626394677"><ele>225.0</ele><time>2026-04-11T09:28:12.998Z</time></trkpt><trkpt lat="43.247931984108746" lon="11.365896924990384"><ele>224.66666666666666</ele><time>2026-04-11T09:28:14.998Z</time></trkpt><trkpt lat="43.24783009516808" lon="11.365992959042396"><ele>224.33333333333331</ele><time>2026-04-11T09:28:16.998Z</time></trkpt><trkpt lat="43.247766764278" lon="11.366028393101288"><ele>224.0</ele><time>2026-04-11T09:28:17.998Z</time></trkpt><trkpt lat="43.24769583323032" lon="11.366061632662252"><ele>223.66666666666666</ele><time>2026-04-11T09:28:18.998Z</time></trkpt><trkpt lat="43.2476240796065" lon="11.366087336796557"><ele>223.33333333333331</ele><time>2026-04-11T09:28:19.998Z</time></trkpt><trkpt lat="43.2475523744876" lon="11.366111246185822"><ele>223.0</ele><time>2026-04-11T09:28:20.998Z</time></trkpt><trkpt lat="43.24747515076606" lon="11.3661303618292"><ele>222.99999999999997</ele><time>2026-04-11T09:28:21.998Z</time></trkpt><trkpt lat="43.24740513487577" lon="11.366147090765091"><ele>223.0</ele><time>2026-04-11T09:28:22.998Z</time></trkpt><trkpt lat="43.24732967776406" lon="11.366161690917824"><ele>223.0</ele><time>2026-04-11T09:28:23.998Z</time></trkpt><trkpt lat="43.24726038446805" lon="11.366178244818823"><ele>223.0</ele><time>2026-04-11T09:28:24.998Z</time></trkpt><trkpt lat="43.2471927153072" lon="11.366194855401881"><ele>222.99999999999997</ele><time>2026-04-11T09:28:25.998Z</time></trkpt><trkpt lat="43.24712820931725" lon="11.366215645694265"><ele>223.0</ele><time>2026-04-11T09:28:26.998Z</time></trkpt><trkpt lat="43.247008148437196" lon="11.366251756878233"><ele>223.0</ele><time>2026-04-11T09:28:28.998Z</time></trkpt><trkpt lat="43.246896467529886" lon="11.366287863308306"><ele>223.0</ele><time>2026-04-11T09:28:30.998Z</time></trkpt><trkpt lat="43.24678887203939" lon="11.366327394848179"><ele>223.0</ele><time>2026-04-11T09:28:33Z</time></trkpt><trkpt lat="43.246689188361046" lon="11.366368082219486"><ele>223.0</ele><time>2026-04-11T09:28:35Z</time></trkpt><trkpt lat="43.246593555119595" lon="11.366415509094963"><ele>223.0</ele><time>2026-04-11T09:28:37Z</time></trkpt><trkpt lat="43.24650240050161" lon="11.366459805907773"><ele>223.16666666666666</ele><time>2026-04-11T09:28:39Z</time></trkpt><trkpt lat="43.2464179078485" lon="11.366510894009416"><ele>223.33333333333331</ele><time>2026-04-11T09:28:41Z</time></trkpt><trkpt lat="43.246335536914316" lon="11.366561216999605"><ele>223.5</ele><time>2026-04-11T09:28:43Z</time></trkpt><trkpt lat="43.24626284935943" lon="11.366618726043926"><ele>223.66666666666669</ele><time>2026-04-11T09:28:45Z</time></trkpt><trkpt lat="43.24619820773908" lon="11.366680652350881"><ele>223.83333333333334</ele><time>2026-04-11T09:28:47Z</time></trkpt><trkpt lat="43.24612030903652" lon="11.366741624682692"><ele>224.0</ele><time>2026-04-11T09:28:49Z</time></trkpt><trkpt lat="43.24604255968784" lon="11.366835056921683"><ele>224.00000000000003</ele><time>2026-04-11T09:28:51Z</time></trkpt><trkpt lat="43.245952720328404" lon="11.366939734763973"><ele>224.0</ele><time>2026-04-11T09:28:53Z</time></trkpt><trkpt lat="43.24589879621428" lon="11.366995551839143"><ele>224.0</ele><time>2026-04-11T09:28:54Z</time></trkpt><trkpt lat="43.24584313622534" lon="11.367054032545315"><ele>224.0</ele><time>2026-04-11T09:28:55Z</time></trkpt><trkpt lat="43.24578434526152" lon="11.36711461417391"><ele>224.00000000000003</ele><time>2026-04-11T09:28:56Z</time></trkpt><trkpt lat="43.24572166600201" lon="11.367174545310023"><ele>224.0</ele><time>2026-04-11T09:28:57Z</time></trkpt><trkpt lat="43.24565290456639" lon="11.367236035711144"><ele>223.2</ele><time>2026-04-11T09:28:58Z</time></trkpt><trkpt lat="43.24557757569687" lon="11.367298169317504"><ele>222.39999999999998</ele><time>2026-04-11T09:28:59Z</time></trkpt><trkpt lat="43.24549777977604" lon="11.367353929888544"><ele>221.6</ele><time>2026-04-11T09:29:00Z</time></trkpt><trkpt lat="43.24541337910512" lon="11.367403174770406"><ele>220.8</ele><time>2026-04-11T09:29:01Z</time></trkpt><trkpt lat="43.24532507028108" lon="11.367444434698516"><ele>220.0</ele><time>2026-04-11T09:29:02Z</time></trkpt><trkpt lat="43.2452355003708" lon="11.367477049755575"><ele>219.99999999999997</ele><time>2026-04-11T09:29:03Z</time></trkpt><trkpt lat="43.24514521420263" lon="11.367504948444273"><ele>220.0</ele><time>2026-04-11T09:29:04Z</time></trkpt><trkpt lat="43.24505808593163" lon="11.36753123521126"><ele>220.0</ele><time>2026-04-11T09:29:05Z</time></trkpt><trkpt lat="43.244971104849895" lon="11.3675550162376"><ele>220.0</ele><time>2026-04-11T09:29:06Z</time></trkpt><trkpt lat="43.24488399895766" lon="11.367577721214143"><ele>219.99999999999997</ele><time>2026-04-11T09:29:07Z</time></trkpt><trkpt lat="43.244801693204316" lon="11.367604481459926"><ele>220.0</ele><time>2026-04-11T09:29:08Z</time></trkpt><trkpt lat="43.244721254227684" lon="11.36763103976283"><ele>220.49999999999997</ele><time>2026-04-11T09:29:09Z</time></trkpt><trkpt lat="43.24464676658854" lon="11.367654035331514"><ele>221.0</ele><time>2026-04-11T09:29:10Z</time></trkpt><trkpt lat="43.244577816412274" lon="11.367674124075036"><ele>221.5</ele><time>2026-04-11T09:29:11Z</time></trkpt><trkpt lat="43.24451493974308" lon="11.367696835180263"><ele>222.0</ele><time>2026-04-11T09:29:12Z</time></trkpt><trkpt lat="43.24440822393412" lon="11.367738762974142"><ele>222.49999999999997</ele><time>2026-04-11T09:29:14Z</time></trkpt><trkpt lat="43.24432507702773" lon="11.367753635204174"><ele>223.0</ele><time>2026-04-11T09:29:15.999Z</time></trkpt><trkpt lat="43.24424106936712" lon="11.367781329757753"><ele>223.0</ele><time>2026-04-11T09:29:17.999Z</time></trkpt><trkpt lat="43.24415271355742" lon="11.36781516210927"><ele>223.0</ele><time>2026-04-11T09:29:19.999Z</time></trkpt><trkpt lat="43.24406115158354" lon="11.367859808655732"><ele>223.0</ele><time>2026-04-11T09:29:21.999Z</time></trkpt><trkpt lat="43.24395888293133" lon="11.367895267524586"><ele>223.0</ele><time>2026-04-11T09:29:23.999Z</time></trkpt><trkpt lat="43.24385876677453" lon="11.367919067112938"><ele>223.0</ele><time>2026-04-11T09:29:25.999Z</time></trkpt><trkpt lat="43.24376375616934" lon="11.367950595797158"><ele>222.8</ele><time>2026-04-11T09:29:27.999Z</time></trkpt><trkpt lat="43.24366772920161" lon="11.367974089168198"><ele>222.60000000000002</ele><time>2026-04-11T09:29:29.999Z</time></trkpt><trkpt lat="43.243554217908354" lon="11.367995314575323"><ele>222.39999999999998</ele><time>2026-04-11T09:29:31.999Z</time></trkpt><trkpt lat="43.24344017756207" lon="11.368024276096468"><ele>222.2</ele><time>2026-04-11T09:29:33.999Z</time></trkpt><trkpt lat="43.24337542694559" lon="11.368031490594886"><ele>222.0</ele><time>2026-04-11T09:29:34.999Z</time></trkpt><trkpt lat="43.24330918201184" lon="11.368043159657704"><ele>222.0</ele><time>2026-04-11T09:29:35.999Z</time></trkpt><trkpt lat="43.243240818878334" lon="11.36805676562819"><ele>222.0</ele><time>2026-04-11T09:29:36.999Z</time></trkpt><trkpt lat="43.24316835452184" lon="11.368070127878525"><ele>222.0</ele><time>2026-04-11T09:29:37.999Z</time></trkpt><trkpt lat="43.24309605514658" lon="11.368089528697087"><ele>222.0</ele><time>2026-04-11T09:29:38.999Z</time></trkpt><trkpt lat="43.24301551286149" lon="11.368069631632459"><ele>222.0</ele><time>2026-04-11T09:29:39.999Z</time></trkpt><trkpt lat="43.24294475781407" lon="11.368101196034692"><ele>222.0</ele><time>2026-04-11T09:29:40.999Z</time></trkpt><trkpt lat="43.24287251043885" lon="11.368134470714098"><ele>222.0</ele><time>2026-04-11T09:29:41.999Z</time></trkpt><trkpt lat="43.24281177147959" lon="11.36821475220679"><ele>222.0</ele><time>2026-04-11T09:29:42.999Z</time></trkpt><trkpt lat="43.24274201387146" lon="11.368267050990765"><ele>222.0</ele><time>2026-04-11T09:29:43.999Z</time></trkpt><trkpt lat="43.24267316629489" lon="11.368324934497496"><ele>222.0</ele><time>2026-04-11T09:29:44.999Z</time></trkpt><trkpt lat="43.24260035708089" lon="11.368385954933188"><ele>222.0</ele><time>2026-04-11T09:29:45.999Z</time></trkpt><trkpt lat="43.242527749930126" lon="11.36845603518693"><ele>222.0</ele><time>2026-04-11T09:29:46.999Z</time></trkpt><trkpt lat="43.24245789131536" lon="11.368536246908878"><ele>222.0</ele><time>2026-04-11T09:29:47.999Z</time></trkpt><trkpt lat="43.242384301248336" lon="11.368622313149242"><ele>222.0</ele><time>2026-04-11T09:29:48.999Z</time></trkpt><trkpt lat="43.242313778436944" lon="11.36871586691825"><ele>222.0</ele><time>2026-04-11T09:29:49.999Z</time></trkpt><trkpt lat="43.24224278783146" lon="11.368810286889623"><ele>222.0</ele><time>2026-04-11T09:29:50.999Z</time></trkpt><trkpt lat="43.24217168620313" lon="11.368906477362492"><ele>222.0</ele><time>2026-04-11T09:29:51.999Z</time></trkpt><trkpt lat="43.242102530941814" lon="11.369002510677543"><ele>222.0</ele><time>2026-04-11T09:29:52.999Z</time></trkpt><trkpt lat="43.24203609209693" lon="11.36909863443326"><ele>221.6</ele><time>2026-04-11T09:29:53.999Z</time></trkpt><trkpt lat="43.24196886655775" lon="11.369189148270403"><ele>221.2</ele><time>2026-04-11T09:29:54.999Z</time></trkpt><trkpt lat="43.24190054884136" lon="11.369277153776492"><ele>220.8</ele><time>2026-04-11T09:29:55.999Z</time></trkpt><trkpt lat="43.24183446005441" lon="11.369363506365278"><ele>220.4</ele><time>2026-04-11T09:29:56.999Z</time></trkpt><trkpt lat="43.241769214595074" lon="11.369448965189756"><ele>220.0</ele><time>2026-04-11T09:29:57.999Z</time></trkpt><trkpt lat="43.24170755900768" lon="11.369530832386674"><ele>220.0</ele><time>2026-04-11T09:29:58.999Z</time></trkpt><trkpt lat="43.24164385372742" lon="11.369611444987372"><ele>220.0</ele><time>2026-04-11T09:29:59.999Z</time></trkpt><trkpt lat="43.24157592806014" lon="11.369686238347509"><ele>220.0</ele><time>2026-04-11T09:30:00.999Z</time></trkpt><trkpt lat="43.241505114365985" lon="11.369762564599588"><ele>220.0</ele><time>2026-04-11T09:30:01.999Z</time></trkpt><trkpt lat="43.24143323497776" lon="11.369844719519607"><ele>220.0</ele><time>2026-04-11T09:30:02.999Z</time></trkpt><trkpt lat="43.241359726534085" lon="11.369922747394297"><ele>219.0</ele><time>2026-04-11T09:30:03.999Z</time></trkpt><trkpt lat="43.241283451824074" lon="11.369999649545253"><ele>218.0</ele><time>2026-04-11T09:30:04.998Z</time></trkpt><trkpt lat="43.241206400295454" lon="11.370072530491909"><ele>217.0</ele><time>2026-04-11T09:30:05.998Z</time></trkpt><trkpt lat="43.24113072676454" lon="11.370143327985252"><ele>216.0</ele><time>2026-04-11T09:30:06.998Z</time></trkpt><trkpt lat="43.24105369157611" lon="11.370213017234448"><ele>215.0</ele><time>2026-04-11T09:30:07.998Z</time></trkpt><trkpt lat="43.24097870583043" lon="11.37027530691102"><ele>215.00000000000003</ele><time>2026-04-11T09:30:08.998Z</time></trkpt><trkpt lat="43.24090534440637" lon="11.370342214240415"><ele>215.0</ele><time>2026-04-11T09:30:09.998Z</time></trkpt><trkpt lat="43.240832533772554" lon="11.370408822863808"><ele>215.0</ele><time>2026-04-11T09:30:10.998Z</time></trkpt><trkpt lat="43.24076122402917" lon="11.370473385619293"><ele>215.0</ele><time>2026-04-11T09:30:11.998Z</time></trkpt><trkpt lat="43.2406948470056" lon="11.370536823617988"><ele>215.00000000000003</ele><time>2026-04-11T09:30:12.998Z</time></trkpt><trkpt lat="43.240631779458504" lon="11.370607961796185"><ele>215.0</ele><time>2026-04-11T09:30:13.998Z</time></trkpt><trkpt lat="43.24057603327453" lon="11.370680030650336"><ele>215.28571428571428</ele><time>2026-04-11T09:30:14.998Z</time></trkpt><trkpt lat="43.240523989743686" lon="11.370753566454963"><ele>215.57142857142858</ele><time>2026-04-11T09:30:15.998Z</time></trkpt><trkpt lat="43.2404745930467" lon="11.370825204891426"><ele>215.85714285714286</ele><time>2026-04-11T09:30:16.998Z</time></trkpt><trkpt lat="43.24042918373838" lon="11.370898649311108"><ele>216.14285714285714</ele><time>2026-04-11T09:30:17.998Z</time></trkpt><trkpt lat="43.24038340912797" lon="11.370973700545639"><ele>216.42857142857144</ele><time>2026-04-11T09:30:18.998Z</time></trkpt><trkpt lat="43.24033940681152" lon="11.371049022289009"><ele>216.71428571428572</ele><time>2026-04-11T09:30:19.998Z</time></trkpt><trkpt lat="43.24029439537309" lon="11.371124466165973"><ele>217.0</ele><time>2026-04-11T09:30:20.998Z</time></trkpt><trkpt lat="43.24025159209975" lon="11.371200567502257"><ele>217.0</ele><time>2026-04-11T09:30:21.998Z</time></trkpt><trkpt lat="43.24020527667487" lon="11.371280957721135"><ele>217.0</ele><time>2026-04-11T09:30:22.998Z</time></trkpt><trkpt lat="43.24016134954799" lon="11.371357739073554"><ele>217.0</ele><time>2026-04-11T09:30:23.998Z</time></trkpt><trkpt lat="43.240115506347735" lon="11.371438505182407"><ele>217.0</ele><time>2026-04-11T09:30:24.998Z</time></trkpt><trkpt lat="43.2400712539059" lon="11.371517956219066"><ele>217.0</ele><time>2026-04-11T09:30:25.998Z</time></trkpt><trkpt lat="43.240027503350504" lon="11.371598062347628"><ele>217.0</ele><time>2026-04-11T09:30:26.998Z</time></trkpt><trkpt lat="43.23998386849276" lon="11.371680335712393"><ele>217.0</ele><time>2026-04-11T09:30:27.998Z</time></trkpt><trkpt lat="43.23994778632639" lon="11.371758821777709"><ele>216.49999999999997</ele><time>2026-04-11T09:30:28.998Z</time></trkpt><trkpt lat="43.23991162931167" lon="11.371832076551831"><ele>216.0</ele><time>2026-04-11T09:30:29.998Z</time></trkpt><trkpt lat="43.23987478857013" lon="11.371904591628708"><ele>215.5</ele><time>2026-04-11T09:30:30.998Z</time></trkpt><trkpt lat="43.239837974704685" lon="11.371977743243027"><ele>215.0</ele><time>2026-04-11T09:30:31.998Z</time></trkpt><trkpt lat="43.23976937210408" lon="11.372125239130057"><ele>214.49999999999997</ele><time>2026-04-11T09:30:33.998Z</time></trkpt><trkpt lat="43.23973421670138" lon="11.372202883810832"><ele>214.0</ele><time>2026-04-11T09:30:34.998Z</time></trkpt><trkpt lat="43.23969996847121" lon="11.37227938795511"><ele>213.83333333333331</ele><time>2026-04-11T09:30:35.998Z</time></trkpt><trkpt lat="43.23966641730401" lon="11.372356150558609"><ele>213.66666666666666</ele><time>2026-04-11T09:30:36.998Z</time></trkpt><trkpt lat="43.239631416943745" lon="11.372428343170906"><ele>213.5</ele><time>2026-04-11T09:30:37.998Z</time></trkpt><trkpt lat="43.23955904734653" lon="11.372567219261116"><ele>213.33333333333331</ele><time>2026-04-11T09:30:40Z</time></trkpt><trkpt lat="43.23951523459088" lon="11.37263001264115"><ele>213.16666666666666</ele><time>2026-04-11T09:30:41Z</time></trkpt><trkpt lat="43.23945902549583" lon="11.372680655820716"><ele>213.0</ele><time>2026-04-11T09:30:42Z</time></trkpt><trkpt lat="43.239392499882726" lon="11.372715808729497"><ele>213.0</ele><time>2026-04-11T09:30:43Z</time></trkpt><trkpt lat="43.23932216078376" lon="11.372737670233924"><ele>213.0</ele><time>2026-04-11T09:30:44Z</time></trkpt><trkpt lat="43.23924717623135" lon="11.37274867914999"><ele>213.0</ele><time>2026-04-11T09:30:45Z</time></trkpt><trkpt lat="43.23917006664129" lon="11.372749987268671"><ele>213.0</ele><time>2026-04-11T09:30:46Z</time></trkpt><trkpt lat="43.239092908275296" lon="11.372744207698409"><ele>213.0</ele><time>2026-04-11T09:30:47Z</time></trkpt><trkpt lat="43.2390152366936" lon="11.372739929144796"><ele>213.0</ele><time>2026-04-11T09:30:48Z</time></trkpt><trkpt lat="43.23893754656445" lon="11.372740741833562"><ele>213.0</ele><time>2026-04-11T09:30:49Z</time></trkpt><trkpt lat="43.238860997083044" lon="11.372749146638842"><ele>213.0</ele><time>2026-04-11T09:30:50Z</time></trkpt><trkpt lat="43.2387819490315" lon="11.372766727310909"><ele>213.0</ele><time>2026-04-11T09:30:51Z</time></trkpt><trkpt lat="43.23870425268181" lon="11.372795253233857"><ele>213.0</ele><time>2026-04-11T09:30:52Z</time></trkpt><trkpt lat="43.23862780542565" lon="11.372832225482782"><ele>213.0</ele><time>2026-04-11T09:30:53Z</time></trkpt><trkpt lat="43.23855616873289" lon="11.372870562074969"><ele>213.0</ele><time>2026-04-11T09:30:54Z</time></trkpt><trkpt lat="43.23848806399058" lon="11.372909833972296"><ele>212.99999999999997</ele><time>2026-04-11T09:30:55Z</time></trkpt><trkpt lat="43.23841960212892" lon="11.372952075962901"><ele>213.0</ele><time>2026-04-11T09:30:56Z</time></trkpt><trkpt lat="43.23835658544092" lon="11.373000126497644"><ele>213.0</ele><time>2026-04-11T09:30:57Z</time></trkpt><trkpt lat="43.23830629418922" lon="11.373059121237537"><ele>213.0</ele><time>2026-04-11T09:30:58Z</time></trkpt><trkpt lat="43.2382661796367" lon="11.373128749848357"><ele>213.0</ele><time>2026-04-11T09:30:59Z</time></trkpt><trkpt lat="43.23823693823495" lon="11.373210716429162"><ele>212.99999999999997</ele><time>2026-04-11T09:31:00Z</time></trkpt><trkpt lat="43.23821583707488" lon="11.373298697596384"><ele>213.0</ele><time>2026-04-11T09:31:01Z</time></trkpt><trkpt lat="43.2382154147544" lon="11.373395441835635"><ele>211.85714285714283</ele><time>2026-04-11T09:31:02Z</time></trkpt><trkpt lat="43.2382219770497" lon="11.373495088275854"><ele>210.71428571428572</ele><time>2026-04-11T09:31:03Z</time></trkpt><trkpt lat="43.23822921328961" lon="11.373590599056167"><ele>209.57142857142856</ele><time>2026-04-11T09:31:04Z</time></trkpt><trkpt lat="43.23823687712453" lon="11.373683838678268"><ele>208.42857142857142</ele><time>2026-04-11T09:31:05Z</time></trkpt><trkpt lat="43.23824612339071" lon="11.373780400674233"><ele>207.28571428571428</ele><time>2026-04-11T09:31:06Z</time></trkpt><trkpt lat="43.23825220168448" lon="11.37387472537315"><ele>206.14285714285714</ele><time>2026-04-11T09:31:07Z</time></trkpt><trkpt lat="43.238260483890386" lon="11.373967256556563"><ele>205.0</ele><time>2026-04-11T09:31:08Z</time></trkpt><trkpt lat="43.23826754117173" lon="11.374061922386689"><ele>204.85714285714286</ele><time>2026-04-11T09:31:09Z</time></trkpt><trkpt lat="43.238272869340705" lon="11.374155617088446"><ele>204.7142857142857</ele><time>2026-04-11T09:31:10Z</time></trkpt><trkpt lat="43.238279245270896" lon="11.37424988382818"><ele>204.57142857142856</ele><time>2026-04-11T09:31:11Z</time></trkpt><trkpt lat="43.23828660762397" lon="11.374344625454208"><ele>204.42857142857144</ele><time>2026-04-11T09:31:12Z</time></trkpt><trkpt lat="43.23829372545564" lon="11.374434998640666"><ele>204.28571428571428</ele><time>2026-04-11T09:31:13Z</time></trkpt><trkpt lat="43.23829986653954" lon="11.374526784785912"><ele>204.14285714285714</ele><time>2026-04-11T09:31:14Z</time></trkpt><trkpt lat="43.23830405755076" lon="11.374617876583917"><ele>204.0</ele><time>2026-04-11T09:31:15Z</time></trkpt><trkpt lat="43.238303301095414" lon="11.374711512161529"><ele>204.0</ele><time>2026-04-11T09:31:16Z</time></trkpt><trkpt lat="43.23830049131498" lon="11.374807939608829"><ele>204.0</ele><time>2026-04-11T09:31:17Z</time></trkpt><trkpt lat="43.23828855882295" lon="11.374904189161652"><ele>204.0</ele><time>2026-04-11T09:31:18Z</time></trkpt><trkpt lat="43.23826795174193" lon="11.374996190858873"><ele>204.0</ele><time>2026-04-11T09:31:19Z</time></trkpt><trkpt lat="43.238236447037245" lon="11.37507915081522"><ele>204.0</ele><time>2026-04-11T09:31:20Z</time></trkpt><trkpt lat="43.23819389164884" lon="11.37515423521499"><ele>204.0</ele><time>2026-04-11T09:31:21Z</time></trkpt><trkpt lat="43.23813918803503" lon="11.375220783670782"><ele>204.0</ele><time>2026-04-11T09:31:22Z</time></trkpt><trkpt lat="43.23807472502355" lon="11.375279496143193"><ele>204.0</ele><time>2026-04-11T09:31:23Z</time></trkpt><trkpt lat="43.23800942847427" lon="11.375330888663328"><ele>204.0</ele><time>2026-04-11T09:31:24Z</time></trkpt><trkpt lat="43.23794221645704" lon="11.375387881814843"><ele>204.0</ele><time>2026-04-11T09:31:24.999Z</time></trkpt><trkpt lat="43.237874646675884" lon="11.375439201577445"><ele>204.0</ele><time>2026-04-11T09:31:25.999Z</time></trkpt><trkpt lat="43.2378057977073" lon="11.37549270309328"><ele>204.0</ele><time>2026-04-11T09:31:26.999Z</time></trkpt><trkpt lat="43.23773967422418" lon="11.375552942451357"><ele>204.0</ele><time>2026-04-11T09:31:27.999Z</time></trkpt><trkpt lat="43.23767432102228" lon="11.375624857839796"><ele>203.16666666666666</ele><time>2026-04-11T09:31:28.999Z</time></trkpt><trkpt lat="43.237608156828074" lon="11.37569836106803"><ele>202.33333333333331</ele><time>2026-04-11T09:31:29.999Z</time></trkpt><trkpt lat="43.237509814298136" lon="11.375719209969207"><ele>201.5</ele><time>2026-04-11T09:31:30.999Z</time></trkpt><trkpt lat="43.23744240141945" lon="11.37579422687066"><ele>200.66666666666666</ele><time>2026-04-11T09:31:31.999Z</time></trkpt><trkpt lat="43.23737572870918" lon="11.37586842011412"><ele>199.83333333333331</ele><time>2026-04-11T09:31:32.999Z</time></trkpt><trkpt lat="43.23730988863966" lon="11.375941686761376"><ele>199.0</ele><time>2026-04-11T09:31:33.999Z</time></trkpt><trkpt lat="43.237243013843646" lon="11.376016104876719"><ele>198.49999999999997</ele><time>2026-04-11T09:31:34.999Z</time></trkpt><trkpt lat="43.23718190124501" lon="11.376084096893333"><ele>198.0</ele><time>2026-04-11T09:31:35.999Z</time></trkpt><trkpt lat="43.237125584981534" lon="11.37614665306659"><ele>197.5</ele><time>2026-04-11T09:31:36.999Z</time></trkpt><trkpt lat="43.237070192515745" lon="11.376206962391135"><ele>197.0</ele><time>2026-04-11T09:31:37.999Z</time></trkpt><trkpt lat="43.23700786659894" lon="11.376269647733324"><ele>196.49999999999997</ele><time>2026-04-11T09:31:38.999Z</time></trkpt><trkpt lat="43.23697201129596" lon="11.376379285990158"><ele>196.0</ele><time>2026-04-11T09:31:39.999Z</time></trkpt><trkpt lat="43.236890046728185" lon="11.376407926872108"><ele>194.99999999999997</ele><time>2026-04-11T09:31:40.999Z</time></trkpt><trkpt lat="43.236806397387944" lon="11.376427735070884"><ele>194.0</ele><time>2026-04-11T09:31:41.999Z</time></trkpt><trkpt lat="43.236717243633755" lon="11.376433036288915"><ele>193.0</ele><time>2026-04-11T09:31:42.999Z</time></trkpt><trkpt lat="43.236630554259214" lon="11.376424838984812"><ele>192.0</ele><time>2026-04-11T09:31:43.999Z</time></trkpt><trkpt lat="43.23655224164326" lon="11.37640445166162"><ele>191.0</ele><time>2026-04-11T09:31:44.999Z</time></trkpt><trkpt lat="43.23647541680809" lon="11.376370542918435"><ele>190.0</ele><time>2026-04-11T09:31:45.999Z</time></trkpt><trkpt lat="43.23640561920663" lon="11.376314348021092"><ele>189.33333333333334</ele><time>2026-04-11T09:31:46.999Z</time></trkpt><trkpt lat="43.23634119577653" lon="11.376237140710865"><ele>188.66666666666669</ele><time>2026-04-11T09:31:47.999Z</time></trkpt><trkpt lat="43.236286619524314" lon="11.376147383913732"><ele>188.0</ele><time>2026-04-11T09:31:48.999Z</time></trkpt><trkpt lat="43.2362450313588" lon="11.376046108763504"><ele>187.33333333333334</ele><time>2026-04-11T09:31:49.999Z</time></trkpt><trkpt lat="43.23621863011477" lon="11.375935087118492"><ele>186.66666666666666</ele><time>2026-04-11T09:31:50.999Z</time></trkpt><trkpt lat="43.236204598044594" lon="11.375819404755049"><ele>186.0</ele><time>2026-04-11T09:31:51.999Z</time></trkpt><trkpt lat="43.236195306396176" lon="11.37569865533043"><ele>186.0</ele><time>2026-04-11T09:31:52.999Z</time></trkpt><trkpt lat="43.236191078336105" lon="11.375581605857755"><ele>186.0</ele><time>2026-04-11T09:31:53.999Z</time></trkpt><trkpt lat="43.236195417760946" lon="11.375467355447348"><ele>186.0</ele><time>2026-04-11T09:31:54.999Z</time></trkpt><trkpt lat="43.23621022120683" lon="11.375357933069157"><ele>186.0</ele><time>2026-04-11T09:31:55.999Z</time></trkpt><trkpt lat="43.23623875889377" lon="11.375248651732404"><ele>186.0</ele><time>2026-04-11T09:31:56.999Z</time></trkpt><trkpt lat="43.2362788800884" lon="11.37514560270732"><ele>186.0</ele><time>2026-04-11T09:31:57.999Z</time></trkpt><trkpt lat="43.236333394622" lon="11.3750528552119"><ele>185.20000000000002</ele><time>2026-04-11T09:31:58.999Z</time></trkpt><trkpt lat="43.23638966604118" lon="11.374957573968887"><ele>184.4</ele><time>2026-04-11T09:31:59.999Z</time></trkpt><trkpt lat="43.23643579097737" lon="11.374852867447348"><ele>183.6</ele><time>2026-04-11T09:32:00.999Z</time></trkpt><trkpt lat="43.23647342699552" lon="11.374738037619275"><ele>182.8</ele><time>2026-04-11T09:32:01.999Z</time></trkpt><trkpt lat="43.23650114663403" lon="11.374618821814844"><ele>182.0</ele><time>2026-04-11T09:32:02.999Z</time></trkpt><trkpt lat="43.23652437310399" lon="11.374494515023143"><ele>182.83333333333331</ele><time>2026-04-11T09:32:03.999Z</time></trkpt><trkpt lat="43.2365458047305" lon="11.374373111155089"><ele>183.66666666666666</ele><time>2026-04-11T09:32:04.999Z</time></trkpt><trkpt lat="43.23656591949411" lon="11.37425567627644"><ele>184.5</ele><time>2026-04-11T09:32:05.999Z</time></trkpt><trkpt lat="43.23658167302856" lon="11.374142685940589"><ele>185.33333333333334</ele><time>2026-04-11T09:32:06.999Z</time></trkpt><trkpt lat="43.236587319642815" lon="11.374026307219113"><ele>186.16666666666669</ele><time>2026-04-11T09:32:07.999Z</time></trkpt><trkpt lat="43.23658209710098" lon="11.37391230194222"><ele>187.0</ele><time>2026-04-11T09:32:08.999Z</time></trkpt><trkpt lat="43.23656149232494" lon="11.373799558406198"><ele>187.0</ele><time>2026-04-11T09:32:09.999Z</time></trkpt><trkpt lat="43.236523330017285" lon="11.37369174124537"><ele>187.0</ele><time>2026-04-11T09:32:10.999Z</time></trkpt><trkpt lat="43.23646894854781" lon="11.373594812558446"><ele>187.0</ele><time>2026-04-11T09:32:11.999Z</time></trkpt><trkpt lat="43.23640073652202" lon="11.373514869431146"><ele>187.0</ele><time>2026-04-11T09:32:12.999Z</time></trkpt><trkpt lat="43.23632051234156" lon="11.3734652411565"><ele>187.0</ele><time>2026-04-11T09:32:13.999Z</time></trkpt><trkpt lat="43.236231102340625" lon="11.373439485233693"><ele>187.0</ele><time>2026-04-11T09:32:14.998Z</time></trkpt><trkpt lat="43.23614099388722" lon="11.373373627756157"><ele>186.0</ele><time>2026-04-11T09:32:15.998Z</time></trkpt><trkpt lat="43.23604292332212" lon="11.373376768710862"><ele>185.0</ele><time>2026-04-11T09:32:16.998Z</time></trkpt><trkpt lat="43.23594684398338" lon="11.373383930110606"><ele>184.0</ele><time>2026-04-11T09:32:17.998Z</time></trkpt><trkpt lat="43.23585649048896" lon="11.373472030986875"><ele>183.0</ele><time>2026-04-11T09:32:18.998Z</time></trkpt><trkpt lat="43.235760332215854" lon="11.37348026248655"><ele>182.0</ele><time>2026-04-11T09:32:19.998Z</time></trkpt><trkpt lat="43.235663207945606" lon="11.373489380871566"><ele>181.0</ele><time>2026-04-11T09:32:20.998Z</time></trkpt><trkpt lat="43.23556494451898" lon="11.373500715619073"><ele>180.0</ele><time>2026-04-11T09:32:21.998Z</time></trkpt><trkpt lat="43.23546439094864" lon="11.373513327316724"><ele>179.0</ele><time>2026-04-11T09:32:22.998Z</time></trkpt><trkpt lat="43.23536371810755" lon="11.373524319475498"><ele>178.0</ele><time>2026-04-11T09:32:23.998Z</time></trkpt><trkpt lat="43.23526298441881" lon="11.373533432910369"><ele>177.0</ele><time>2026-04-11T09:32:24.998Z</time></trkpt><trkpt lat="43.23516175099916" lon="11.373540996065465"><ele>177.0</ele><time>2026-04-11T09:32:25.998Z</time></trkpt><trkpt lat="43.23506462738575" lon="11.373549000809144"><ele>177.0</ele><time>2026-04-11T09:32:26.998Z</time></trkpt><trkpt lat="43.23496769362401" lon="11.373559082010399"><ele>177.0</ele><time>2026-04-11T09:32:27.998Z</time></trkpt><trkpt lat="43.23487545829653" lon="11.373566790436277"><ele>177.0</ele><time>2026-04-11T09:32:28.998Z</time></trkpt><trkpt lat="43.234784331204324" lon="11.373573444131623"><ele>177.0</ele><time>2026-04-11T09:32:29.998Z</time></trkpt><trkpt lat="43.23469514137067" lon="11.37358062491493"><ele>177.16666666666666</ele><time>2026-04-11T09:32:30.998Z</time></trkpt><trkpt lat="43.234607868793326" lon="11.373588914590323"><ele>177.33333333333334</ele><time>2026-04-11T09:32:31.998Z</time></trkpt><trkpt lat="43.23452482007771" lon="11.373597827820895"><ele>177.5</ele><time>2026-04-11T09:32:32.998Z</time></trkpt><trkpt lat="43.234441294934975" lon="11.373605114110704"><ele>177.66666666666669</ele><time>2026-04-11T09:32:33.998Z</time></trkpt><trkpt lat="43.23436027949499" lon="11.373616883366715"><ele>177.83333333333334</ele><time>2026-04-11T09:32:34.998Z</time></trkpt><trkpt lat="43.234279939194245" lon="11.37362255844874"><ele>178.0</ele><time>2026-04-11T09:32:35.998Z</time></trkpt><trkpt lat="43.23420099911657" lon="11.373627460222421"><ele>178.0</ele><time>2026-04-11T09:32:36.998Z</time></trkpt><trkpt lat="43.234126024631436" lon="11.373633287162434"><ele>178.0</ele><time>2026-04-11T09:32:37.998Z</time></trkpt><trkpt lat="43.234055039113336" lon="11.373638152653527"><ele>178.0</ele><time>2026-04-11T09:32:38.998Z</time></trkpt><trkpt lat="43.23398662178677" lon="11.373641254494373"><ele>178.0</ele><time>2026-04-11T09:32:39.998Z</time></trkpt><trkpt lat="43.233918341419916" lon="11.373643981925536"><ele>178.0</ele><time>2026-04-11T09:32:40.998Z</time></trkpt><trkpt lat="43.23379081938941" lon="11.373670599373295"><ele>178.0</ele><time>2026-04-11T09:32:42.998Z</time></trkpt><trkpt lat="43.233727273543316" lon="11.373693162072566"><ele>178.16666666666669</ele><time>2026-04-11T09:32:43.998Z</time></trkpt><trkpt lat="43.23366532117371" lon="11.37372525099304"><ele>178.33333333333334</ele><time>2026-04-11T09:32:45Z</time></trkpt><trkpt lat="43.23360686605753" lon="11.373760781534937"><ele>178.5</ele><time>2026-04-11T09:32:46Z</time></trkpt><trkpt lat="43.233548495984344" lon="11.373796216656519"><ele>178.66666666666666</ele><time>2026-04-11T09:32:47Z</time></trkpt><trkpt lat="43.23344179895293" lon="11.373868421841122"><ele>178.83333333333331</ele><time>2026-04-11T09:32:49Z</time></trkpt><trkpt lat="43.233336961483694" lon="11.373942109568993"><ele>179.0</ele><time>2026-04-11T09:32:51Z</time></trkpt><trkpt lat="43.23323022612762" lon="11.374016108682937"><ele>179.0</ele><time>2026-04-11T09:32:53Z</time></trkpt><trkpt lat="43.23312631514926" lon="11.374089135594797"><ele>179.0</ele><time>2026-04-11T09:32:55Z</time></trkpt><trkpt lat="43.23302285206663" lon="11.374164670866318"><ele>179.0</ele><time>2026-04-11T09:32:57Z</time></trkpt><trkpt lat="43.23291800763051" lon="11.374239789570701"><ele>179.0</ele><time>2026-04-11T09:32:59Z</time></trkpt><trkpt lat="43.232814086003295" lon="11.374318292893705"><ele>179.0</ele><time>2026-04-11T09:33:01Z</time></trkpt><trkpt lat="43.23270844978678" lon="11.374391803143748"><ele>179.0</ele><time>2026-04-11T09:33:03Z</time></trkpt><trkpt lat="43.23260037196083" lon="11.374470071968727"><ele>179.0</ele><time>2026-04-11T09:33:05Z</time></trkpt><trkpt lat="43.23249382470482" lon="11.374546594136017"><ele>179.0</ele><time>2026-04-11T09:33:07Z</time></trkpt><trkpt lat="43.23238737670781" lon="11.374618406204377"><ele>179.0</ele><time>2026-04-11T09:33:09Z</time></trkpt><trkpt lat="43.23228370217429" lon="11.374688754385543"><ele>179.0</ele><time>2026-04-11T09:33:11Z</time></trkpt><trkpt lat="43.23218235459418" lon="11.3747587520442"><ele>179.0</ele><time>2026-04-11T09:33:13Z</time></trkpt><trkpt lat="43.23208112865761" lon="11.374828543056877"><ele>179.0</ele><time>2026-04-11T09:33:15Z</time></trkpt><trkpt lat="43.23198439617369" lon="11.374901572294721"><ele>179.0</ele><time>2026-04-11T09:33:17Z</time></trkpt><trkpt lat="43.23188663629706" lon="11.374971349283657"><ele>179.0</ele><time>2026-04-11T09:33:19Z</time></trkpt><trkpt lat="43.23178775890387" lon="11.375041407399678"><ele>179.0</ele><time>2026-04-11T09:33:21Z</time></trkpt><trkpt lat="43.231689819057145" lon="11.375112705363591"><ele>179.0</ele><time>2026-04-11T09:33:23Z</time></trkpt><trkpt lat="43.23159078608942" lon="11.375182891574966"><ele>179.0</ele><time>2026-04-11T09:33:25Z</time></trkpt><trkpt lat="43.231488995936495" lon="11.375254797446743"><ele>179.0</ele><time>2026-04-11T09:33:27Z</time></trkpt><trkpt lat="43.231388521913175" lon="11.375328893248644"><ele>179.0</ele><time>2026-04-11T09:33:29Z</time></trkpt><trkpt lat="43.23128644080237" lon="11.375401853274594"><ele>179.0</ele><time>2026-04-11T09:33:31Z</time></trkpt><trkpt lat="43.231182844120475" lon="11.375476615617151"><ele>179.0</ele><time>2026-04-11T09:33:33Z</time></trkpt><trkpt lat="43.231075862488865" lon="11.375545610867041"><ele>179.0</ele><time>2026-04-11T09:33:34.999Z</time></trkpt><trkpt lat="43.230972701701035" lon="11.375619603694053"><ele>179.0</ele><time>2026-04-11T09:33:36.999Z</time></trkpt><trkpt lat="43.230867476104244" lon="11.375693484932274"><ele>179.0</ele><time>2026-04-11T09:33:38.999Z</time></trkpt><trkpt lat="43.23076700359974" lon="11.375771304863365"><ele>179.0</ele><time>2026-04-11T09:33:40.999Z</time></trkpt><trkpt lat="43.23066373393262" lon="11.375841454153774"><ele>180.25</ele><time>2026-04-11T09:33:42.999Z</time></trkpt><trkpt lat="43.23056409868084" lon="11.375915204853444"><ele>181.5</ele><time>2026-04-11T09:33:44.999Z</time></trkpt><trkpt lat="43.23046490816465" lon="11.375986246772435"><ele>182.75</ele><time>2026-04-11T09:33:46.999Z</time></trkpt><trkpt lat="43.230365342953355" lon="11.376059288908122"><ele>184.0</ele><time>2026-04-11T09:33:48.999Z</time></trkpt><trkpt lat="43.23026417494462" lon="11.376135378711904"><ele>184.0</ele><time>2026-04-11T09:33:50.999Z</time></trkpt><trkpt lat="43.23016443530727" lon="11.376205153818391"><ele>184.0</ele><time>2026-04-11T09:33:52.999Z</time></trkpt><trkpt lat="43.23006557114608" lon="11.376280062803923"><ele>184.0</ele><time>2026-04-11T09:33:54.999Z</time></trkpt><trkpt lat="43.22996637336117" lon="11.37635580348814"><ele>184.0</ele><time>2026-04-11T09:33:56.999Z</time></trkpt><trkpt lat="43.22986609622946" lon="11.376431992303118"><ele>184.39999999999998</ele><time>2026-04-11T09:33:58.999Z</time></trkpt><trkpt lat="43.229770610325524" lon="11.37650738587121"><ele>184.8</ele><time>2026-04-11T09:34:00.999Z</time></trkpt><trkpt lat="43.22967671954402" lon="11.376589421867113"><ele>185.2</ele><time>2026-04-11T09:34:02.999Z</time></trkpt><trkpt lat="43.22958417961372" lon="11.376665032632884"><ele>185.60000000000002</ele><time>2026-04-11T09:34:04.999Z</time></trkpt><trkpt lat="43.22949022914541" lon="11.376746342609623"><ele>186.0</ele><time>2026-04-11T09:34:06.999Z</time></trkpt><trkpt lat="43.22939515817943" lon="11.376830144459376"><ele>186.0</ele><time>2026-04-11T09:34:08.999Z</time></trkpt><trkpt lat="43.22930793964867" lon="11.376900045456932"><ele>186.0</ele><time>2026-04-11T09:34:10.999Z</time></trkpt><trkpt lat="43.22921115356176" lon="11.376984089752277"><ele>186.0</ele><time>2026-04-11T09:34:12.999Z</time></trkpt><trkpt lat="43.229119424448044" lon="11.37705808278465"><ele>186.0</ele><time>2026-04-11T09:34:14.999Z</time></trkpt><trkpt lat="43.22901606264108" lon="11.377135838924747"><ele>186.0</ele><time>2026-04-11T09:34:16.999Z</time></trkpt><trkpt lat="43.22890660166975" lon="11.377199160475643"><ele>184.0</ele><time>2026-04-11T09:34:18.999Z</time></trkpt><trkpt lat="43.22879078699767" lon="11.377250536314289"><ele>182.0</ele><time>2026-04-11T09:34:20.999Z</time></trkpt><trkpt lat="43.22867586136112" lon="11.37729768053608"><ele>180.0</ele><time>2026-04-11T09:34:22.999Z</time></trkpt><trkpt lat="43.22855605683124" lon="11.377330941631667"><ele>178.0</ele><time>2026-04-11T09:34:24.998Z</time></trkpt><trkpt lat="43.22843347185187" lon="11.377346328822695"><ele>178.0</ele><time>2026-04-11T09:34:26.998Z</time></trkpt><trkpt lat="43.22831066596248" lon="11.377350523408788"><ele>178.0</ele><time>2026-04-11T09:34:28.998Z</time></trkpt><trkpt lat="43.228193741514524" lon="11.377353502570353"><ele>178.0</ele><time>2026-04-11T09:34:30.998Z</time></trkpt><trkpt lat="43.22807882942173" lon="11.377366131834966"><ele>178.0</ele><time>2026-04-11T09:34:32.998Z</time></trkpt><trkpt lat="43.22797022391276" lon="11.377369964359675"><ele>178.0</ele><time>2026-04-11T09:34:34.998Z</time></trkpt><trkpt lat="43.227858534737365" lon="11.377378383791376"><ele>178.0</ele><time>2026-04-11T09:34:36.998Z</time></trkpt><trkpt lat="43.22774160066834" lon="11.377386720208674"><ele>178.0</ele><time>2026-04-11T09:34:38.998Z</time></trkpt><trkpt lat="43.22762052490177" lon="11.37739053639067"><ele>178.0</ele><time>2026-04-11T09:34:40.998Z</time></trkpt><trkpt lat="43.227498895367226" lon="11.377386291260283"><ele>178.0</ele><time>2026-04-11T09:34:42.998Z</time></trkpt><trkpt lat="43.22737828916652" lon="11.37737587766934"><ele>178.0</ele><time>2026-04-11T09:34:44.998Z</time></trkpt><trkpt lat="43.22725982452762" lon="11.377345743737365"><ele>178.0</ele><time>2026-04-11T09:34:46.998Z</time></trkpt><trkpt lat="43.22714196904096" lon="11.37730003916888"><ele>178.0</ele><time>2026-04-11T09:34:48.998Z</time></trkpt><trkpt lat="43.22703012980731" lon="11.377236827050819"><ele>178.75</ele><time>2026-04-11T09:34:51Z</time></trkpt><trkpt lat="43.22692259424316" lon="11.37717234421301"><ele>179.5</ele><time>2026-04-11T09:34:53Z</time></trkpt><trkpt lat="43.22681674437164" lon="11.377093129922219"><ele>180.25</ele><time>2026-04-11T09:34:55Z</time></trkpt><trkpt lat="43.22671897255171" lon="11.377019762054495"><ele>181.0</ele><time>2026-04-11T09:34:57Z</time></trkpt><trkpt lat="43.22662637116446" lon="11.376933674136103"><ele>181.0</ele><time>2026-04-11T09:34:59Z</time></trkpt><trkpt lat="43.22653655278778" lon="11.376842218231921"><ele>181.0</ele><time>2026-04-11T09:35:01Z</time></trkpt><trkpt lat="43.226448600238996" lon="11.376748119183402"><ele>181.0</ele><time>2026-04-11T09:35:03Z</time></trkpt><trkpt lat="43.22637219659387" lon="11.37663263510301"><ele>181.0</ele><time>2026-04-11T09:35:05Z</time></trkpt><trkpt lat="43.226296350575325" lon="11.376516291784597"><ele>180.60000000000002</ele><time>2026-04-11T09:35:07Z</time></trkpt><trkpt lat="43.226228934763434" lon="11.376391434629427"><ele>180.2</ele><time>2026-04-11T09:35:09Z</time></trkpt><trkpt lat="43.22617460877115" lon="11.37625517957173"><ele>179.8</ele><time>2026-04-11T09:35:11Z</time></trkpt><trkpt lat="43.226123430065066" lon="11.37612176221579"><ele>179.39999999999998</ele><time>2026-04-11T09:35:13Z</time></trkpt><trkpt lat="43.2260879892785" lon="11.375985393823044"><ele>179.0</ele><time>2026-04-11T09:35:15Z</time></trkpt><trkpt lat="43.226053375635615" lon="11.375844957470077"><ele>179.0</ele><time>2026-04-11T09:35:17Z</time></trkpt><trkpt lat="43.22602687052243" lon="11.37569839804211"><ele>179.0</ele><time>2026-04-11T09:35:19Z</time></trkpt><trkpt lat="43.22601346623025" lon="11.375550663735876"><ele>179.0</ele><time>2026-04-11T09:35:21Z</time></trkpt><trkpt lat="43.2260132963088" lon="11.375398995477628"><ele>179.0</ele><time>2026-04-11T09:35:23Z</time></trkpt><trkpt lat="43.22602251463077" lon="11.375247289966666"><ele>179.0</ele><time>2026-04-11T09:35:25Z</time></trkpt><trkpt lat="43.22603462932919" lon="11.375090704120334"><ele>178.79999999999998</ele><time>2026-04-11T09:35:27Z</time></trkpt><trkpt lat="43.226050468525045" lon="11.374940409638313"><ele>178.6</ele><time>2026-04-11T09:35:29Z</time></trkpt><trkpt lat="43.22606529561101" lon="11.374789380953334"><ele>178.4</ele><time>2026-04-11T09:35:31Z</time></trkpt><trkpt lat="43.22608184742149" lon="11.374634221221209"><ele>178.2</ele><time>2026-04-11T09:35:33Z</time></trkpt><trkpt lat="43.22609618226468" lon="11.37448337486474"><ele>178.0</ele><time>2026-04-11T09:35:35Z</time></trkpt><trkpt lat="43.22610895326263" lon="11.374329449675399"><ele>178.0</ele><time>2026-04-11T09:35:37Z</time></trkpt><trkpt lat="43.22612150841556" lon="11.374177275799015"><ele>178.0</ele><time>2026-04-11T09:35:39Z</time></trkpt><trkpt lat="43.226127183815386" lon="11.374021934107661"><ele>178.0</ele><time>2026-04-11T09:35:41Z</time></trkpt><trkpt lat="43.22612212158924" lon="11.373863332541696"><ele>178.0</ele><time>2026-04-11T09:35:42.999Z</time></trkpt><trkpt lat="43.22610396222713" lon="11.37370775279899"><ele>178.0</ele><time>2026-04-11T09:35:44.999Z</time></trkpt><trkpt lat="43.226070285982345" lon="11.373556348854516"><ele>178.0</ele><time>2026-04-11T09:35:46.999Z</time></trkpt><trkpt lat="43.2260335777872" lon="11.373415474070235"><ele>178.0</ele><time>2026-04-11T09:35:48.999Z</time></trkpt><trkpt lat="43.225997613791215" lon="11.373282750254697"><ele>178.0</ele><time>2026-04-11T09:35:50.999Z</time></trkpt><trkpt lat="43.22596304045518" lon="11.373145623224033"><ele>178.0</ele><time>2026-04-11T09:35:52.999Z</time></trkpt><trkpt lat="43.22591890127124" lon="11.372995905038879"><ele>179.0</ele><time>2026-04-11T09:35:54.999Z</time></trkpt><trkpt lat="43.22587396965806" lon="11.372853006458024"><ele>180.0</ele><time>2026-04-11T09:35:56.999Z</time></trkpt><trkpt lat="43.22582704846994" lon="11.372709667229085"><ele>181.0</ele><time>2026-04-11T09:35:58.999Z</time></trkpt><trkpt lat="43.22577687946817" lon="11.372563223593808"><ele>182.0</ele><time>2026-04-11T09:36:00.999Z</time></trkpt><trkpt lat="43.225724690983874" lon="11.372407568492164"><ele>182.0</ele><time>2026-04-11T09:36:02.999Z</time></trkpt><trkpt lat="43.22566062905818" lon="11.372274974953744"><ele>182.0</ele><time>2026-04-11T09:36:04.999Z</time></trkpt><trkpt lat="43.225563137085224" lon="11.372193485310158"><ele>182.0</ele><time>2026-04-11T09:36:06.999Z</time></trkpt><trkpt lat="43.22550007498351" lon="11.372183116333808"><ele>182.0</ele><time>2026-04-11T09:36:07.999Z</time></trkpt><trkpt lat="43.225434552022094" lon="11.372201176079901"><ele>182.0</ele><time>2026-04-11T09:36:08.999Z</time></trkpt><trkpt lat="43.225375439145324" lon="11.37225008250434"><ele>182.0</ele><time>2026-04-11T09:36:09.999Z</time></trkpt><trkpt lat="43.2253285771364" lon="11.372319049841595"><ele>181.66666666666666</ele><time>2026-04-11T09:36:10.999Z</time></trkpt><trkpt lat="43.22529405750663" lon="11.372403552816682"><ele>181.33333333333331</ele><time>2026-04-11T09:36:11.999Z</time></trkpt><trkpt lat="43.22526640517456" lon="11.372487774974555"><ele>181.0</ele><time>2026-04-11T09:36:12.999Z</time></trkpt><trkpt lat="43.225238134125846" lon="11.372568597209856"><ele>180.66666666666666</ele><time>2026-04-11T09:36:13.999Z</time></trkpt><trkpt lat="43.225212378678954" lon="11.372647464003192"><ele>180.33333333333334</ele><time>2026-04-11T09:36:14.999Z</time></trkpt><trkpt lat="43.2251664235474" lon="11.372798546405686"><ele>180.0</ele><time>2026-04-11T09:36:16.999Z</time></trkpt><trkpt lat="43.22511143397954" lon="11.372936101364385"><ele>180.0</ele><time>2026-04-11T09:36:18.999Z</time></trkpt><trkpt lat="43.22506525892264" lon="11.373053328812297"><ele>180.0</ele><time>2026-04-11T09:36:20.999Z</time></trkpt><trkpt lat="43.22502051297199" lon="11.373151241734938"><ele>180.0</ele><time>2026-04-11T09:36:22.999Z</time></trkpt><trkpt lat="43.22497685059642" lon="11.373232983116536"><ele>180.0</ele><time>2026-04-11T09:36:24.999Z</time></trkpt><trkpt lat="43.224912048074515" lon="11.37332809691387"><ele>180.0</ele><time>2026-04-11T09:36:27.999Z</time></trkpt><trkpt lat="43.22484393871727" lon="11.373408568021272"><ele>180.0</ele><time>2026-04-11T09:36:30.999Z</time></trkpt><trkpt lat="43.22477201430663" lon="11.37346924797972"><ele>181.14285714285714</ele><time>2026-04-11T09:36:33.998Z</time></trkpt><trkpt lat="43.224703740325964" lon="11.373510750375662"><ele>182.2857142857143</ele><time>2026-04-11T09:36:36.998Z</time></trkpt><trkpt lat="43.224632034348225" lon="11.373540942915893"><ele>183.42857142857144</ele><time>2026-04-11T09:36:39.998Z</time></trkpt><trkpt lat="43.22457101378985" lon="11.373572101127134"><ele>184.57142857142856</ele><time>2026-04-11T09:36:42.998Z</time></trkpt><trkpt lat="43.22449335048337" lon="11.373584870215545"><ele>185.71428571428572</ele><time>2026-04-11T09:36:46.998Z</time></trkpt><trkpt lat="43.22442555521011" lon="11.373594170408845"><ele>186.85714285714286</ele><time>2026-04-11T09:36:50.998Z</time></trkpt><trkpt lat="43.224344040942924" lon="11.37360097602873"><ele>188.0</ele><time>2026-04-11T09:36:54.998Z</time></trkpt><trkpt lat="43.22426266083811" lon="11.373586580989523"><ele>188.0</ele><time>2026-04-11T09:36:59Z</time></trkpt><trkpt lat="43.22419058246488" lon="11.373561514511632"><ele>188.0</ele><time>2026-04-11T09:37:03Z</time></trkpt><trkpt lat="43.22411740979042" lon="11.373530434934409"><ele>188.0</ele><time>2026-04-11T09:37:07Z</time></trkpt><trkpt lat="43.22404877349171" lon="11.37348495921932"><ele>188.0</ele><time>2026-04-11T09:37:11Z</time></trkpt><trkpt lat="43.223974698709526" lon="11.37343288058915"><ele>188.0</ele><time>2026-04-11T09:37:15Z</time></trkpt><trkpt lat="43.22391978956266" lon="11.37338774086531"><ele>188.0</ele><time>2026-04-11T09:37:18Z</time></trkpt><trkpt lat="43.22385532628418" lon="11.373328592549518"><ele>190.57142857142856</ele><time>2026-04-11T09:37:22Z</time></trkpt><trkpt lat="43.22379610663965" lon="11.373262516281505"><ele>193.14285714285714</ele><time>2026-04-11T09:37:26Z</time></trkpt><trkpt lat="43.223748705775115" lon="11.373182100117408"><ele>195.71428571428572</ele><time>2026-04-11T09:37:30Z</time></trkpt><trkpt lat="43.223718633012446" lon="11.37310616173312"><ele>198.28571428571428</ele><time>2026-04-11T09:37:33Z</time></trkpt><trkpt lat="43.22368149729857" lon="11.373009136008472"><ele>200.85714285714286</ele><time>2026-04-11T09:37:37Z</time></trkpt><trkpt lat="43.223644386750244" lon="11.372911453467681"><ele>203.42857142857142</ele><time>2026-04-11T09:37:41Z</time></trkpt><trkpt lat="43.223618366375625" lon="11.37282672013619"><ele>206.0</ele><time>2026-04-11T09:37:44Z</time></trkpt><trkpt lat="43.22359257510137" lon="11.37274666098823"><ele>205.99999999999997</ele><time>2026-04-11T09:37:47Z</time></trkpt><trkpt lat="43.22359017798072" lon="11.37266020868294"><ele>206.0</ele><time>2026-04-11T09:37:49.999Z</time></trkpt><trkpt lat="43.223595359508955" lon="11.372565821686655"><ele>206.0</ele><time>2026-04-11T09:37:52.999Z</time></trkpt><trkpt lat="43.22359798554344" lon="11.372467376012656"><ele>206.0</ele><time>2026-04-11T09:37:55.999Z</time></trkpt><trkpt lat="43.22360339778919" lon="11.372367116963748"><ele>206.0</ele><time>2026-04-11T09:37:58.999Z</time></trkpt><trkpt lat="43.22361211489306" lon="11.372262707007042"><ele>205.99999999999997</ele><time>2026-04-11T09:38:01.999Z</time></trkpt><trkpt lat="43.22361681045042" lon="11.372165650036193"><ele>206.0</ele><time>2026-04-11T09:38:04.999Z</time></trkpt><trkpt lat="43.22361673807984" lon="11.372072421031584"><ele>206.00000000000003</ele><time>2026-04-11T09:38:07.999Z</time></trkpt><trkpt lat="43.223608573007446" lon="11.371962669999878"><ele>206.0</ele><time>2026-04-11T09:38:10.999Z</time></trkpt><trkpt lat="43.22358819935917" lon="11.371847466628054"><ele>206.0</ele><time>2026-04-11T09:38:13.999Z</time></trkpt><trkpt lat="43.22356127908209" lon="11.371763062085535"><ele>206.0</ele><time>2026-04-11T09:38:15.999Z</time></trkpt><trkpt lat="43.22352841450952" lon="11.37167978034908"><ele>206.00000000000003</ele><time>2026-04-11T09:38:17.999Z</time></trkpt><trkpt lat="43.22348276159589" lon="11.371586384864758"><ele>206.0</ele><time>2026-04-11T09:38:20.999Z</time></trkpt><trkpt lat="43.22343283115998" lon="11.371504165349293"><ele>205.99999999999997</ele><time>2026-04-11T09:38:23.999Z</time></trkpt><trkpt lat="43.223380450625115" lon="11.371439473545395"><ele>206.0</ele><time>2026-04-11T09:38:26.999Z</time></trkpt><trkpt lat="43.22333020599051" lon="11.37136567914034"><ele>206.0</ele><time>2026-04-11T09:38:29.999Z</time></trkpt><trkpt lat="43.223276069447934" lon="11.371315965147069"><ele>206.0</ele><time>2026-04-11T09:38:32.999Z</time></trkpt><trkpt lat="43.22321000250918" lon="11.371276888099484"><ele>206.0</ele><time>2026-04-11T09:38:36.998Z</time></trkpt><trkpt lat="43.22313293466499" lon="11.371273688830023"><ele>205.99999999999997</ele><time>2026-04-11T09:38:40.998Z</time></trkpt><trkpt lat="43.22306996030815" lon="11.37129011905314"><ele>206.0</ele><time>2026-04-11T09:38:43.998Z</time></trkpt><trkpt lat="43.22300690721462" lon="11.371314783738466"><ele>206.28571428571428</ele><time>2026-04-11T09:38:46.998Z</time></trkpt><trkpt lat="43.222951430229756" lon="11.371361560666363"><ele>206.57142857142856</ele><time>2026-04-11T09:38:49.998Z</time></trkpt><trkpt lat="43.22290237391844" lon="11.371422999617767"><ele>206.85714285714283</ele><time>2026-04-11T09:38:52.998Z</time></trkpt><trkpt lat="43.22285836705905" lon="11.371488178585345"><ele>207.14285714285714</ele><time>2026-04-11T09:38:55.998Z</time></trkpt><trkpt lat="43.2228153939683" lon="11.371562622128303"><ele>207.42857142857144</ele><time>2026-04-11T09:38:58.998Z</time></trkpt><trkpt lat="43.22277795358018" lon="11.371639254908965"><ele>207.7142857142857</ele><time>2026-04-11T09:39:01.998Z</time></trkpt><trkpt lat="43.22274127478698" lon="11.371714587471384"><ele>208.0</ele><time>2026-04-11T09:39:05Z</time></trkpt><trkpt lat="43.22269965784652" lon="11.371781668912305"><ele>208.0</ele><time>2026-04-11T09:39:08Z</time></trkpt><trkpt lat="43.22264934405049" lon="11.371867273601241"><ele>208.0</ele><time>2026-04-11T09:39:12Z</time></trkpt><trkpt lat="43.222611748388026" lon="11.37194151104196"><ele>208.0</ele><time>2026-04-11T09:39:15Z</time></trkpt><trkpt lat="43.22256762687284" lon="11.372011692476978"><ele>208.0</ele><time>2026-04-11T09:39:18Z</time></trkpt><trkpt lat="43.222524403298216" lon="11.372081882458549"><ele>208.0</ele><time>2026-04-11T09:39:21Z</time></trkpt><trkpt lat="43.222481734431696" lon="11.372150336465428"><ele>208.0</ele><time>2026-04-11T09:39:24Z</time></trkpt><trkpt lat="43.222436421436065" lon="11.372215535126019"><ele>208.0</ele><time>2026-04-11T09:39:27Z</time></trkpt><trkpt lat="43.22238762425206" lon="11.37228077089291"><ele>209.0</ele><time>2026-04-11T09:39:30Z</time></trkpt><trkpt lat="43.22233831887305" lon="11.372340845908193"><ele>210.0</ele><time>2026-04-11T09:39:33Z</time></trkpt><trkpt lat="43.22228938627638" lon="11.37239896551223"><ele>211.0</ele><time>2026-04-11T09:39:36Z</time></trkpt><trkpt lat="43.222235468493594" lon="11.372455394205662"><ele>212.0</ele><time>2026-04-11T09:39:39Z</time></trkpt><trkpt lat="43.22217939519294" lon="11.372512372759923"><ele>213.0</ele><time>2026-04-11T09:39:42Z</time></trkpt><trkpt lat="43.222119725433586" lon="11.372558864794245"><ele>214.0</ele><time>2026-04-11T09:39:45Z</time></trkpt><trkpt lat="43.22205369786123" lon="11.372605567472098"><ele>215.0</ele><time>2026-04-11T09:39:48Z</time></trkpt><trkpt lat="43.22199335961426" lon="11.37264684174271"><ele>215.85714285714286</ele><time>2026-04-11T09:39:51Z</time></trkpt><trkpt lat="43.22193437323627" lon="11.372678134105628"><ele>216.71428571428572</ele><time>2026-04-11T09:39:54Z</time></trkpt><trkpt lat="43.22187233837169" lon="11.372705955353549"><ele>217.57142857142858</ele><time>2026-04-11T09:39:56.999Z</time></trkpt><trkpt lat="43.2217907540463" lon="11.372730908567677"><ele>218.42857142857144</ele><time>2026-04-11T09:40:00.999Z</time></trkpt><trkpt lat="43.22172788312481" lon="11.37274315774034"><ele>219.28571428571428</ele><time>2026-04-11T09:40:03.999Z</time></trkpt><trkpt lat="43.22166534102139" lon="11.372762861286029"><ele>220.14285714285717</ele><time>2026-04-11T09:40:06.999Z</time></trkpt><trkpt lat="43.22159843305046" lon="11.37277809606105"><ele>221.0</ele><time>2026-04-11T09:40:09.999Z</time></trkpt><trkpt lat="43.22153346436673" lon="11.372785981099552"><ele>221.8571428571429</ele><time>2026-04-11T09:40:12.999Z</time></trkpt><trkpt lat="43.22146985637925" lon="11.372802320362304"><ele>222.71428571428572</ele><time>2026-04-11T09:40:15.999Z</time></trkpt><trkpt lat="43.22139812010471" lon="11.372813904895724"><ele>223.57142857142858</ele><time>2026-04-11T09:40:18.999Z</time></trkpt><trkpt lat="43.22132423230472" lon="11.372829463077673"><ele>224.42857142857144</ele><time>2026-04-11T09:40:21.999Z</time></trkpt><trkpt lat="43.221255092733436" lon="11.372843778414431"><ele>225.2857142857143</ele><time>2026-04-11T09:40:24.999Z</time></trkpt><trkpt lat="43.22118007441331" lon="11.372861671149831"><ele>226.14285714285717</ele><time>2026-04-11T09:40:27.999Z</time></trkpt><trkpt lat="43.22111359760483" lon="11.372872628322833"><ele>227.0</ele><time>2026-04-11T09:40:30.999Z</time></trkpt><trkpt lat="43.221040356914095" lon="11.372882517169748"><ele>227.00000000000003</ele><time>2026-04-11T09:40:33.999Z</time></trkpt><trkpt lat="43.220966486189546" lon="11.372899666267502"><ele>227.0</ele><time>2026-04-11T09:40:36.999Z</time></trkpt><trkpt lat="43.22088803317088" lon="11.372921067817547"><ele>227.0</ele><time>2026-04-11T09:40:39.999Z</time></trkpt><trkpt lat="43.22081394404135" lon="11.37293626227433"><ele>227.0</ele><time>2026-04-11T09:40:42.999Z</time></trkpt><trkpt lat="43.22073745567146" lon="11.372946733074366"><ele>227.00000000000003</ele><time>2026-04-11T09:40:45.998Z</time></trkpt><trkpt lat="43.220666841577184" lon="11.372962889400469"><ele>227.0</ele><time>2026-04-11T09:40:48.998Z</time></trkpt><trkpt lat="43.22059643562299" lon="11.372978126178245"><ele>227.57142857142858</ele><time>2026-04-11T09:40:51.998Z</time></trkpt><trkpt lat="43.220528759787044" lon="11.372992348092273"><ele>228.14285714285717</ele><time>2026-04-11T09:40:54.998Z</time></trkpt><trkpt lat="43.22046517492681" lon="11.373000613448296"><ele>228.71428571428572</ele><time>2026-04-11T09:40:57.998Z</time></trkpt><trkpt lat="43.22040332976482" lon="11.373021403812459"><ele>229.28571428571428</ele><time>2026-04-11T09:41:00.998Z</time></trkpt><trkpt lat="43.220321704995456" lon="11.373037961651185"><ele>229.85714285714286</ele><time>2026-04-11T09:41:04.998Z</time></trkpt><trkpt lat="43.22024248632046" lon="11.37305780912459"><ele>230.42857142857144</ele><time>2026-04-11T09:41:09Z</time></trkpt><trkpt lat="43.22017810513766" lon="11.373076058438702"><ele>231.0</ele><time>2026-04-11T09:41:12Z</time></trkpt><trkpt lat="43.220092748503056" lon="11.373093494969892"><ele>231.0</ele><time>2026-04-11T09:41:16Z</time></trkpt><trkpt lat="43.22001408463411" lon="11.373099476646637"><ele>231.0</ele><time>2026-04-11T09:41:20Z</time></trkpt><trkpt lat="43.21994056485471" lon="11.373111576522875"><ele>231.0</ele><time>2026-04-11T09:41:23Z</time></trkpt><trkpt lat="43.21987553436845" lon="11.373129397892715"><ele>231.0</ele><time>2026-04-11T09:41:26Z</time></trkpt><trkpt lat="43.21979964494215" lon="11.373141273154253"><ele>231.0</ele><time>2026-04-11T09:41:30Z</time></trkpt><trkpt lat="43.21972474508496" lon="11.373158320569795"><ele>231.0</ele><time>2026-04-11T09:41:34Z</time></trkpt><trkpt lat="43.21965716618557" lon="11.373149540119266"><ele>231.0</ele><time>2026-04-11T09:41:39Z</time></trkpt><trkpt lat="43.2195896496743" lon="11.373144786532919"><ele>232.85714285714286</ele><time>2026-04-11T09:41:43Z</time></trkpt><trkpt lat="43.21952645785244" lon="11.373137941087796"><ele>234.71428571428572</ele><time>2026-04-11T09:41:47Z</time></trkpt><trkpt lat="43.21945018748525" lon="11.373145843452082"><ele>236.57142857142856</ele><time>2026-04-11T09:41:52Z</time></trkpt><trkpt lat="43.21937638802865" lon="11.373153998309348"><ele>238.42857142857142</ele><time>2026-04-11T09:41:56Z</time></trkpt><trkpt lat="43.21931329591261" lon="11.37314981132696"><ele>240.28571428571428</ele><time>2026-04-11T09:41:59Z</time></trkpt><trkpt lat="43.21925184674373" lon="11.373125824924259"><ele>242.1428571428571</ele><time>2026-04-11T09:42:02Z</time></trkpt><trkpt lat="43.219182065285906" lon="11.373128068590416"><ele>243.99999999999997</ele><time>2026-04-11T09:42:04.999Z</time></trkpt><trkpt lat="43.21910644863725" lon="11.37312385408384"><ele>243.99999999999997</ele><time>2026-04-11T09:42:08.999Z</time></trkpt><trkpt lat="43.21903398889243" lon="11.373098790736096"><ele>244.0</ele><time>2026-04-11T09:42:11.999Z</time></trkpt><trkpt lat="43.21896262267538" lon="11.373076355129157"><ele>244.0</ele><time>2026-04-11T09:42:14.999Z</time></trkpt><trkpt lat="43.21889155885008" lon="11.373041604311938"><ele>244.0</ele><time>2026-04-11T09:42:17.999Z</time></trkpt><trkpt lat="43.21881120264713" lon="11.372999142278381"><ele>243.99999999999997</ele><time>2026-04-11T09:42:19.999Z</time></trkpt><trkpt lat="43.218732160550466" lon="11.372949582151108"><ele>244.0</ele><time>2026-04-11T09:42:22.999Z</time></trkpt><trkpt lat="43.218660843753234" lon="11.372923948512634"><ele>245.33333333333331</ele><time>2026-04-11T09:42:24.999Z</time></trkpt><trkpt lat="43.21859683599908" lon="11.372884163302352"><ele>246.66666666666666</ele><time>2026-04-11T09:42:25.999Z</time></trkpt><trkpt lat="43.21852922163573" lon="11.372833391068648"><ele>248.0</ele><time>2026-04-11T09:42:27.999Z</time></trkpt><trkpt lat="43.21845216475104" lon="11.37279197020798"><ele>249.33333333333331</ele><time>2026-04-11T09:42:29.999Z</time></trkpt><trkpt lat="43.218376354987825" lon="11.372758103338471"><ele>250.66666666666666</ele><time>2026-04-11T09:42:31.999Z</time></trkpt><trkpt lat="43.21829399318751" lon="11.372720201774277"><ele>252.0</ele><time>2026-04-11T09:42:33.999Z</time></trkpt><trkpt lat="43.21822142444774" lon="11.372683241932524"><ele>250.33333333333334</ele><time>2026-04-11T09:42:35.999Z</time></trkpt><trkpt lat="43.218149717945" lon="11.372647908911997"><ele>248.66666666666669</ele><time>2026-04-11T09:42:37.999Z</time></trkpt><trkpt lat="43.21807155790163" lon="11.372610786358228"><ele>247.0</ele><time>2026-04-11T09:42:39.999Z</time></trkpt><trkpt lat="43.21799022569607" lon="11.37256798412572"><ele>245.33333333333334</ele><time>2026-04-11T09:42:41.999Z</time></trkpt><trkpt lat="43.217902085331446" lon="11.372530918877848"><ele>243.66666666666669</ele><time>2026-04-11T09:42:43.999Z</time></trkpt><trkpt lat="43.21781099874775" lon="11.372480349632319"><ele>242.0</ele><time>2026-04-11T09:42:45.999Z</time></trkpt><trkpt lat="43.21771155595321" lon="11.37243020827028"><ele>242.00000000000003</ele><time>2026-04-11T09:42:47.999Z</time></trkpt><trkpt lat="43.217610308019815" lon="11.37237665638114"><ele>242.0</ele><time>2026-04-11T09:42:49.999Z</time></trkpt><trkpt lat="43.21757239503259" lon="11.372295122789973"><ele>242.0</ele><time>2026-04-11T09:42:50.999Z</time></trkpt><trkpt lat="43.217481428078514" lon="11.372252276191741"><ele>242.0</ele><time>2026-04-11T09:42:52.998Z</time></trkpt><trkpt lat="43.21742073166599" lon="11.372223633764522"><ele>242.00000000000003</ele><time>2026-04-11T09:42:54.998Z</time></trkpt><trkpt lat="43.2173527817443" lon="11.3722256869481"><ele>242.0</ele><time>2026-04-11T09:43:04.998Z</time></trkpt><trkpt lat="43.217402593504865" lon="11.372161239459835"><ele>242.0</ele><time>2026-04-11T09:43:18Z</time></trkpt><trkpt lat="43.21734893589083" lon="11.372208951656058"><ele>241.99999999999997</ele><time>2026-04-11T09:46:41.999Z</time></trkpt><trkpt lat="43.21726533456281" lon="11.372196197606623"><ele>242.0</ele><time>2026-04-11T09:46:47.999Z</time></trkpt><trkpt lat="43.217207948083505" lon="11.372153339180791"><ele>242.0</ele><time>2026-04-11T09:46:50.999Z</time></trkpt><trkpt lat="43.217140438405885" lon="11.372106839921825"><ele>241.99999999999997</ele><time>2026-04-11T09:46:53.999Z</time></trkpt><trkpt lat="43.21706547825135" lon="11.372066060299732"><ele>242.0</ele><time>2026-04-11T09:46:56.999Z</time></trkpt><trkpt lat="43.217005487212035" lon="11.37203550528527"><ele>242.0</ele><time>2026-04-11T09:46:58.999Z</time></trkpt><trkpt lat="43.216938998926736" lon="11.37199618558705"><ele>241.2</ele><time>2026-04-11T09:47:00.999Z</time></trkpt><trkpt lat="43.216861254001834" lon="11.371965727042477"><ele>240.39999999999998</ele><time>2026-04-11T09:47:02.999Z</time></trkpt><trkpt lat="43.21677702319384" lon="11.37191534410649"><ele>239.60000000000002</ele><time>2026-04-11T09:47:04.999Z</time></trkpt><trkpt lat="43.216687212883734" lon="11.371871293558808"><ele>238.8</ele><time>2026-04-11T09:47:06.999Z</time></trkpt><trkpt lat="43.216596121758904" lon="11.371824916531333"><ele>238.0</ele><time>2026-04-11T09:47:08.998Z</time></trkpt><trkpt lat="43.216509777151934" lon="11.371775824728724"><ele>238.99999999999997</ele><time>2026-04-11T09:47:10.998Z</time></trkpt><trkpt lat="43.21643036815098" lon="11.371736507383476"><ele>240.0</ele><time>2026-04-11T09:47:12.998Z</time></trkpt><trkpt lat="43.21635633713087" lon="11.37169986713491"><ele>241.0</ele><time>2026-04-11T09:47:14.998Z</time></trkpt><trkpt lat="43.21628547409849" lon="11.371665060353715"><ele>242.0</ele><time>2026-04-11T09:47:16.998Z</time></trkpt><trkpt lat="43.216208735605086" lon="11.371631138581417"><ele>242.99999999999997</ele><time>2026-04-11T09:47:18.998Z</time></trkpt><trkpt lat="43.21613596991508" lon="11.371591446739911"><ele>244.0</ele><time>2026-04-11T09:47:20.998Z</time></trkpt><trkpt lat="43.2160667926289" lon="11.371559070295616"><ele>243.99999999999997</ele><time>2026-04-11T09:47:22.998Z</time></trkpt><trkpt lat="43.216001576855845" lon="11.37151593664412"><ele>244.0</ele><time>2026-04-11T09:47:24.998Z</time></trkpt><trkpt lat="43.21594353750434" lon="11.371464483023464"><ele>243.99999999999997</ele><time>2026-04-11T09:47:27Z</time></trkpt><trkpt lat="43.21586008091505" lon="11.371409550367693"><ele>243.99999999999997</ele><time>2026-04-11T09:47:30Z</time></trkpt><trkpt lat="43.215801177717175" lon="11.37136876125249"><ele>244.0</ele><time>2026-04-11T09:47:32Z</time></trkpt><trkpt lat="43.215742524679285" lon="11.371320727329522"><ele>243.99999999999997</ele><time>2026-04-11T09:47:34Z</time></trkpt><trkpt lat="43.21569341967753" lon="11.371236069702867"><ele>243.99999999999997</ele><time>2026-04-11T09:47:36Z</time></trkpt><trkpt lat="43.215628800697104" lon="11.37117833127601"><ele>243.2</ele><time>2026-04-11T09:47:38Z</time></trkpt><trkpt lat="43.21554414669987" lon="11.371088261058732"><ele>242.39999999999998</ele><time>2026-04-11T09:47:40Z</time></trkpt><trkpt lat="43.21548335261443" lon="11.371022517356419"><ele>241.6</ele><time>2026-04-11T09:47:41Z</time></trkpt><trkpt lat="43.21537998380497" lon="11.370932863278277"><ele>240.8</ele><time>2026-04-11T09:47:43Z</time></trkpt><trkpt lat="43.21531659603516" lon="11.37089019400557"><ele>240.0</ele><time>2026-04-11T09:47:44Z</time></trkpt><trkpt lat="43.215247632239695" lon="11.370845307456866"><ele>240.0</ele><time>2026-04-11T09:47:45Z</time></trkpt><trkpt lat="43.21517247905817" lon="11.37080462305101"><ele>240.0</ele><time>2026-04-11T09:47:46Z</time></trkpt><trkpt lat="43.215101946715315" lon="11.370765715396972"><ele>240.0</ele><time>2026-04-11T09:47:47Z</time></trkpt><trkpt lat="43.215035283461006" lon="11.370734978752441"><ele>240.0</ele><time>2026-04-11T09:47:48Z</time></trkpt><trkpt lat="43.214964537967255" lon="11.370712777293706"><ele>240.0</ele><time>2026-04-11T09:47:49Z</time></trkpt><trkpt lat="43.21488917983937" lon="11.370697316528338"><ele>240.0</ele><time>2026-04-11T09:47:50Z</time></trkpt><trkpt lat="43.214808578648224" lon="11.37069416329606"><ele>237.6</ele><time>2026-04-11T09:47:51Z</time></trkpt><trkpt lat="43.21472714262108" lon="11.370716388032948"><ele>235.2</ele><time>2026-04-11T09:47:52Z</time></trkpt><trkpt lat="43.21464309151487" lon="11.370756451418368"><ele>232.8</ele><time>2026-04-11T09:47:53Z</time></trkpt><trkpt lat="43.214557309614676" lon="11.370805893205219"><ele>230.4</ele><time>2026-04-11T09:47:54Z</time></trkpt><trkpt lat="43.21446346245781" lon="11.37086804901539"><ele>228.0</ele><time>2026-04-11T09:47:55Z</time></trkpt><trkpt lat="43.21436840045403" lon="11.370931816700745"><ele>228.0</ele><time>2026-04-11T09:47:56Z</time></trkpt><trkpt lat="43.21427223520151" lon="11.370995777325831"><ele>228.0</ele><time>2026-04-11T09:47:57Z</time></trkpt><trkpt lat="43.214185363764955" lon="11.371048607829293"><ele>228.0</ele><time>2026-04-11T09:47:58Z</time></trkpt><trkpt lat="43.21409611463017" lon="11.371099968997372"><ele>228.0</ele><time>2026-04-11T09:47:59Z</time></trkpt><trkpt lat="43.21399934733536" lon="11.371162395467593"><ele>228.0</ele><time>2026-04-11T09:48:00Z</time></trkpt><trkpt lat="43.21390064729826" lon="11.37123117322944"><ele>226.8</ele><time>2026-04-11T09:48:01Z</time></trkpt><trkpt lat="43.213802880223824" lon="11.371291832972892"><ele>225.60000000000002</ele><time>2026-04-11T09:48:02Z</time></trkpt><trkpt lat="43.21370409684797" lon="11.37134751218548"><ele>224.39999999999998</ele><time>2026-04-11T09:48:03Z</time></trkpt><trkpt lat="43.21360107046798" lon="11.371389818872895"><ele>223.2</ele><time>2026-04-11T09:48:04Z</time></trkpt><trkpt lat="43.21350376364506" lon="11.371412565837758"><ele>222.0</ele><time>2026-04-11T09:48:05Z</time></trkpt><trkpt lat="43.213413538526865" lon="11.37139921840767"><ele>222.0</ele><time>2026-04-11T09:48:06Z</time></trkpt><trkpt lat="43.2133313911908" lon="11.371339605598576"><ele>222.0</ele><time>2026-04-11T09:48:07Z</time></trkpt><trkpt lat="43.21326401846658" lon="11.371255386035378"><ele>222.0</ele><time>2026-04-11T09:48:08Z</time></trkpt><trkpt lat="43.21321464718067" lon="11.371161477772624"><ele>222.0</ele><time>2026-04-11T09:48:09Z</time></trkpt><trkpt lat="43.213173333476696" lon="11.37107291027971"><ele>222.0</ele><time>2026-04-11T09:48:10Z</time></trkpt><trkpt lat="43.21313453661263" lon="11.370992891434806"><ele>222.0</ele><time>2026-04-11T09:48:11Z</time></trkpt><trkpt lat="43.21309172650062" lon="11.370916711222625"><ele>222.0</ele><time>2026-04-11T09:48:12Z</time></trkpt><trkpt lat="43.21304998874497" lon="11.37083673877193"><ele>222.0</ele><time>2026-04-11T09:48:13Z</time></trkpt><trkpt lat="43.21300918739851" lon="11.37075100387415"><ele>222.0</ele><time>2026-04-11T09:48:14Z</time></trkpt><trkpt lat="43.212972814977434" lon="11.370669725468858"><ele>222.0</ele><time>2026-04-11T09:48:15Z</time></trkpt><trkpt lat="43.21293507843836" lon="11.370590912372517"><ele>222.0</ele><time>2026-04-11T09:48:16Z</time></trkpt><trkpt lat="43.21289860916977" lon="11.37051857843654"><ele>222.0</ele><time>2026-04-11T09:48:17Z</time></trkpt><trkpt lat="43.2128325469019" lon="11.370387473430256"><ele>222.83333333333334</ele><time>2026-04-11T09:48:19Z</time></trkpt><trkpt lat="43.21277579365495" lon="11.370265857918115"><ele>223.66666666666669</ele><time>2026-04-11T09:48:21Z</time></trkpt><trkpt lat="43.212721378082115" lon="11.370163225708119"><ele>224.5</ele><time>2026-04-11T09:48:22.999Z</time></trkpt><trkpt lat="43.21267419483798" lon="11.370065418635377"><ele>225.33333333333334</ele><time>2026-04-11T09:48:24.999Z</time></trkpt><trkpt lat="43.21262684153323" lon="11.369974493666088"><ele>226.16666666666669</ele><time>2026-04-11T09:48:26.999Z</time></trkpt><trkpt lat="43.21257425924095" lon="11.369891603070602"><ele>227.0</ele><time>2026-04-11T09:48:28.999Z</time></trkpt><trkpt lat="43.21252414734545" lon="11.36981079062998"><ele>227.0</ele><time>2026-04-11T09:48:30.999Z</time></trkpt><trkpt lat="43.21247311525861" lon="11.369737229023485"><ele>227.00000000000003</ele><time>2026-04-11T09:48:32.999Z</time></trkpt><trkpt lat="43.21242302009764" lon="11.369657695429584"><ele>227.0</ele><time>2026-04-11T09:48:34.999Z</time></trkpt><trkpt lat="43.21237010010451" lon="11.36958461111122"><ele>227.0</ele><time>2026-04-11T09:48:36.999Z</time></trkpt><trkpt lat="43.21231950855814" lon="11.369507288924241"><ele>227.00000000000003</ele><time>2026-04-11T09:48:38.999Z</time></trkpt><trkpt lat="43.212271914787294" lon="11.369432429984002"><ele>227.0</ele><time>2026-04-11T09:48:40.999Z</time></trkpt><trkpt lat="43.21222320476713" lon="11.369356013976093"><ele>227.0</ele><time>2026-04-11T09:48:42.999Z</time></trkpt><trkpt lat="43.21217370460077" lon="11.369286905172032"><ele>228.0</ele><time>2026-04-11T09:48:44.999Z</time></trkpt><trkpt lat="43.2121209761685" lon="11.369220207174314"><ele>229.00000000000003</ele><time>2026-04-11T09:48:46.999Z</time></trkpt><trkpt lat="43.212066789979545" lon="11.369160392828286"><ele>230.0</ele><time>2026-04-11T09:48:48.999Z</time></trkpt><trkpt lat="43.2120129320482" lon="11.369108322349732"><ele>231.0</ele><time>2026-04-11T09:48:50.999Z</time></trkpt><trkpt lat="43.21195111338847" lon="11.369061659566205"><ele>232.00000000000003</ele><time>2026-04-11T09:48:52.999Z</time></trkpt><trkpt lat="43.21188595318594" lon="11.369011945862841"><ele>233.0</ele><time>2026-04-11T09:48:54.999Z</time></trkpt><trkpt lat="43.211819247229954" lon="11.36896834298511"><ele>234.0</ele><time>2026-04-11T09:48:56.999Z</time></trkpt><trkpt lat="43.21175587508617" lon="11.368928364349543"><ele>234.0</ele><time>2026-04-11T09:48:58.999Z</time></trkpt><trkpt lat="43.211688786785714" lon="11.368886992380588"><ele>234.00000000000003</ele><time>2026-04-11T09:49:00.999Z</time></trkpt><trkpt lat="43.211623643372164" lon="11.368846763222267"><ele>234.0</ele><time>2026-04-11T09:49:02.999Z</time></trkpt><trkpt lat="43.21155757835889" lon="11.368811573299158"><ele>234.0</ele><time>2026-04-11T09:49:04.999Z</time></trkpt><trkpt lat="43.21149043860641" lon="11.368776525540243"><ele>234.00000000000003</ele><time>2026-04-11T09:49:06.999Z</time></trkpt><trkpt lat="43.211421030719194" lon="11.368746132257854"><ele>234.0</ele><time>2026-04-11T09:49:08.999Z</time></trkpt><trkpt lat="43.21134764914414" lon="11.368718443719857"><ele>234.0</ele><time>2026-04-11T09:49:10.999Z</time></trkpt><trkpt lat="43.21127106331489" lon="11.368696713202139"><ele>233.83333333333334</ele><time>2026-04-11T09:49:12.998Z</time></trkpt><trkpt lat="43.21119447739137" lon="11.368665792478053"><ele>233.66666666666669</ele><time>2026-04-11T09:49:14.998Z</time></trkpt><trkpt lat="43.211110320828446" lon="11.368635996424027"><ele>233.5</ele><time>2026-04-11T09:49:16.998Z</time></trkpt><trkpt lat="43.21103121281642" lon="11.368610236097958"><ele>233.33333333333334</ele><time>2026-04-11T09:49:18.998Z</time></trkpt><trkpt lat="43.210949363751695" lon="11.3685826921978"><ele>233.16666666666669</ele><time>2026-04-11T09:49:20.998Z</time></trkpt><trkpt lat="43.21087184966613" lon="11.368558883767932"><ele>233.0</ele><time>2026-04-11T09:49:22.998Z</time></trkpt><trkpt lat="43.2108023391258" lon="11.368534428984796"><ele>233.00000000000003</ele><time>2026-04-11T09:49:24.998Z</time></trkpt><trkpt lat="43.21072999497456" lon="11.36850871855782"><ele>233.0</ele><time>2026-04-11T09:49:26.998Z</time></trkpt><trkpt lat="43.21065877412915" lon="11.368487584642658"><ele>233.0</ele><time>2026-04-11T09:49:28.998Z</time></trkpt><trkpt lat="43.21058650645519" lon="11.368456773429168"><ele>233.0</ele><time>2026-04-11T09:49:30.998Z</time></trkpt><trkpt lat="43.21050286632907" lon="11.368437541970497"><ele>233.00000000000003</ele><time>2026-04-11T09:49:33Z</time></trkpt><trkpt lat="43.21042198871809" lon="11.36840724391958"><ele>233.0</ele><time>2026-04-11T09:49:35Z</time></trkpt><trkpt lat="43.21033736900626" lon="11.368382585971647"><ele>232.66666666666669</ele><time>2026-04-11T09:49:37Z</time></trkpt><trkpt lat="43.21025291758504" lon="11.368353360101645"><ele>232.33333333333334</ele><time>2026-04-11T09:49:39Z</time></trkpt><trkpt lat="43.21017060237703" lon="11.368319618693917"><ele>232.0</ele><time>2026-04-11T09:49:41Z</time></trkpt><trkpt lat="43.21009068648994" lon="11.368287441879254"><ele>231.66666666666669</ele><time>2026-04-11T09:49:43Z</time></trkpt><trkpt lat="43.210015627678786" lon="11.368258028920776"><ele>231.33333333333334</ele><time>2026-04-11T09:49:45Z</time></trkpt><trkpt lat="43.20993963762611" lon="11.368231126683849"><ele>231.0</ele><time>2026-04-11T09:49:47Z</time></trkpt><trkpt lat="43.20986757571383" lon="11.368211908091155"><ele>233.33333333333334</ele><time>2026-04-11T09:49:49Z</time></trkpt><trkpt lat="43.209796597048815" lon="11.368212447472347"><ele>235.66666666666669</ele><time>2026-04-11T09:49:51Z</time></trkpt><trkpt lat="43.209729951726814" lon="11.368225375870685"><ele>238.0</ele><time>2026-04-11T09:49:53Z</time></trkpt><trkpt lat="43.209669143066904" lon="11.368255606166297"><ele>240.33333333333334</ele><time>2026-04-11T09:49:55Z</time></trkpt><trkpt lat="43.20959908450227" lon="11.368333812367423"><ele>242.66666666666669</ele><time>2026-04-11T09:49:58Z</time></trkpt><trkpt lat="43.2095292505868" lon="11.368425519937476"><ele>245.0</ele><time>2026-04-11T09:50:01Z</time></trkpt><trkpt lat="43.209485974892154" lon="11.36849170370779"><ele>245.0</ele><time>2026-04-11T09:50:03Z</time></trkpt><trkpt lat="43.209434708704656" lon="11.368574571303498"><ele>245.0</ele><time>2026-04-11T09:50:05Z</time></trkpt><trkpt lat="43.209384379377106" lon="11.368648372160136"><ele>245.0</ele><time>2026-04-11T09:50:07Z</time></trkpt><trkpt lat="43.20933538653649" lon="11.368726241283426"><ele>245.0</ele><time>2026-04-11T09:50:09Z</time></trkpt><trkpt lat="43.20928890268734" lon="11.368801051768397"><ele>245.0</ele><time>2026-04-11T09:50:11Z</time></trkpt><trkpt lat="43.209244411075524" lon="11.368871534513632"><ele>245.0</ele><time>2026-04-11T09:50:13Z</time></trkpt><trkpt lat="43.20920047907321" lon="11.36894413057262"><ele>245.0</ele><time>2026-04-11T09:50:15Z</time></trkpt><trkpt lat="43.20915669216641" lon="11.369012080050053"><ele>244.00000000000003</ele><time>2026-04-11T09:50:17Z</time></trkpt><trkpt lat="43.20909640411047" lon="11.369104625442919"><ele>243.0</ele><time>2026-04-11T09:50:20Z</time></trkpt><trkpt lat="43.20903445719394" lon="11.369196645862623"><ele>242.0</ele><time>2026-04-11T09:50:23Z</time></trkpt><trkpt lat="43.208972167977365" lon="11.369286784930487"><ele>241.0</ele><time>2026-04-11T09:50:26Z</time></trkpt><trkpt lat="43.208909266890686" lon="11.36937614357114"><ele>240.00000000000003</ele><time>2026-04-11T09:50:29Z</time></trkpt><trkpt lat="43.20885892275637" lon="11.369435138610863"><ele>239.0</ele><time>2026-04-11T09:50:30.999Z</time></trkpt><trkpt lat="43.20881080307142" lon="11.369500965923507"><ele>241.33333333333334</ele><time>2026-04-11T09:50:32.999Z</time></trkpt><trkpt lat="43.208761411739125" lon="11.369569282022686"><ele>243.66666666666669</ele><time>2026-04-11T09:50:34.999Z</time></trkpt><trkpt lat="43.20871609858092" lon="11.369632467733494"><ele>246.0</ele><time>2026-04-11T09:50:36.999Z</time></trkpt><trkpt lat="43.20866248286609" lon="11.369718281057253"><ele>248.33333333333331</ele><time>2026-04-11T09:50:39.999Z</time></trkpt><trkpt lat="43.208601003881526" lon="11.36980643839678"><ele>250.66666666666666</ele><time>2026-04-11T09:50:42.999Z</time></trkpt><trkpt lat="43.208542158987136" lon="11.369878300449777"><ele>253.0</ele><time>2026-04-11T09:50:45.999Z</time></trkpt><trkpt lat="43.20848638031465" lon="11.369960262533617"><ele>253.00000000000003</ele><time>2026-04-11T09:50:48.999Z</time></trkpt><trkpt lat="43.208428509332435" lon="11.370039188523641"><ele>253.0</ele><time>2026-04-11T09:50:51.999Z</time></trkpt><trkpt lat="43.20838503063186" lon="11.370119691117385"><ele>253.00000000000003</ele><time>2026-04-11T09:50:54.999Z</time></trkpt><trkpt lat="43.20833562975303" lon="11.370208692347575"><ele>253.00000000000003</ele><time>2026-04-11T09:50:58.999Z</time></trkpt><trkpt lat="43.20828531326584" lon="11.370275466359645"><ele>253.0</ele><time>2026-04-11T09:51:01.999Z</time></trkpt><trkpt lat="43.208242450148376" lon="11.370348245751597"><ele>253.00000000000003</ele><time>2026-04-11T09:51:04.999Z</time></trkpt><trkpt lat="43.2081936966947" lon="11.37041028029961"><ele>253.00000000000003</ele><time>2026-04-11T09:51:07.999Z</time></trkpt><trkpt lat="43.20814340537995" lon="11.370481597945016"><ele>255.83333333333331</ele><time>2026-04-11T09:51:10.999Z</time></trkpt><trkpt lat="43.208093435161565" lon="11.37054776128301"><ele>258.66666666666663</ele><time>2026-04-11T09:51:13.999Z</time></trkpt><trkpt lat="43.208048311176675" lon="11.370614656421358"><ele>261.5</ele><time>2026-04-11T09:51:16.999Z</time></trkpt><trkpt lat="43.207991130371994" lon="11.37067436508289"><ele>264.3333333333333</ele><time>2026-04-11T09:51:19.998Z</time></trkpt><trkpt lat="43.2079299270448" lon="11.37076518637783"><ele>267.1666666666667</ele><time>2026-04-11T09:51:23.998Z</time></trkpt><trkpt lat="43.2078662003517" lon="11.370855604428709"><ele>270.0</ele><time>2026-04-11T09:51:26.998Z</time></trkpt><trkpt lat="43.20782563692194" lon="11.370927440486723"><ele>270.0</ele><time>2026-04-11T09:51:29.998Z</time></trkpt><trkpt lat="43.20777284266626" lon="11.370996926695252"><ele>270.0</ele><time>2026-04-11T09:51:32.998Z</time></trkpt><trkpt lat="43.20771981381673" lon="11.371062905769467"><ele>270.0</ele><time>2026-04-11T09:51:35.998Z</time></trkpt><trkpt lat="43.2076733018317" lon="11.371125926144726"><ele>270.0</ele><time>2026-04-11T09:51:39Z</time></trkpt><trkpt lat="43.20762497102774" lon="11.371200440585916"><ele>270.0</ele><time>2026-04-11T09:51:43Z</time></trkpt><trkpt lat="43.20756871329122" lon="11.371264342198476"><ele>270.0</ele><time>2026-04-11T09:51:46Z</time></trkpt><trkpt lat="43.20752102121125" lon="11.371347400701291"><ele>270.0</ele><time>2026-04-11T09:51:50Z</time></trkpt><trkpt lat="43.207465100783075" lon="11.371407346052393"><ele>268.1666666666667</ele><time>2026-04-11T09:51:53Z</time></trkpt><trkpt lat="43.20741926366992" lon="11.37148279681317"><ele>266.3333333333333</ele><time>2026-04-11T09:51:56Z</time></trkpt><trkpt lat="43.2073643520833" lon="11.371565720030267"><ele>264.5</ele><time>2026-04-11T09:51:59Z</time></trkpt><trkpt lat="43.20731964665796" lon="11.37163012933517"><ele>262.66666666666663</ele><time>2026-04-11T09:52:01Z</time></trkpt><trkpt lat="43.20727057815051" lon="11.371706947587079"><ele>260.8333333333333</ele><time>2026-04-11T09:52:04Z</time></trkpt><trkpt lat="43.20721011548826" lon="11.371797171781212"><ele>259.0</ele><time>2026-04-11T09:52:07Z</time></trkpt><trkpt lat="43.20715503546978" lon="11.371888097466773"><ele>261.0</ele><time>2026-04-11T09:52:10Z</time></trkpt><trkpt lat="43.207104529019645" lon="11.371988024552826"><ele>263.0</ele><time>2026-04-11T09:52:13Z</time></trkpt><trkpt lat="43.20706817873884" lon="11.372060139413588"><ele>265.0</ele><time>2026-04-11T09:52:15Z</time></trkpt><trkpt lat="43.20701328918096" lon="11.372157117109547"><ele>267.0</ele><time>2026-04-11T09:52:18Z</time></trkpt><trkpt lat="43.206967582562996" lon="11.37226379861202"><ele>269.0</ele><time>2026-04-11T09:52:21Z</time></trkpt><trkpt lat="43.20692906096947" lon="11.372334865461553"><ele>271.0</ele><time>2026-04-11T09:52:23Z</time></trkpt><trkpt lat="43.20687692656739" lon="11.372427063795742"><ele>271.0</ele><time>2026-04-11T09:52:25Z</time></trkpt><trkpt lat="43.2068192686361" lon="11.372522653330307"><ele>271.0</ele><time>2026-04-11T09:52:27Z</time></trkpt><trkpt lat="43.20674623036316" lon="11.372617239232879"><ele>271.0</ele><time>2026-04-11T09:52:29Z</time></trkpt><trkpt lat="43.206663488489504" lon="11.372721061108109"><ele>271.0</ele><time>2026-04-11T09:52:31Z</time></trkpt><trkpt lat="43.206568297730776" lon="11.372822820818616"><ele>271.0</ele><time>2026-04-11T09:52:33Z</time></trkpt><trkpt lat="43.206464186095374" lon="11.3729074617923"><ele>270.2</ele><time>2026-04-11T09:52:35Z</time></trkpt><trkpt lat="43.206361715767486" lon="11.372981763740095"><ele>269.40000000000003</ele><time>2026-04-11T09:52:37Z</time></trkpt><trkpt lat="43.20630172100304" lon="11.373016751313683"><ele>268.6</ele><time>2026-04-11T09:52:38Z</time></trkpt><trkpt lat="43.20618989330429" lon="11.373095365820491"><ele>267.8</ele><time>2026-04-11T09:52:39.999Z</time></trkpt><trkpt lat="43.206090677662374" lon="11.373172024113535"><ele>267.0</ele><time>2026-04-11T09:52:41.999Z</time></trkpt><trkpt lat="43.20599268894755" lon="11.373243665255611"><ele>267.0</ele><time>2026-04-11T09:52:43.999Z</time></trkpt><trkpt lat="43.20589664991875" lon="11.373309956216035"><ele>267.0</ele><time>2026-04-11T09:52:45.999Z</time></trkpt><trkpt lat="43.20580220922609" lon="11.37338051683196"><ele>267.0</ele><time>2026-04-11T09:52:47.999Z</time></trkpt><trkpt lat="43.205724693703644" lon="11.373452213019124"><ele>267.0</ele><time>2026-04-11T09:52:49.999Z</time></trkpt><trkpt lat="43.205635157671345" lon="11.373536025945938"><ele>267.0</ele><time>2026-04-11T09:52:51.999Z</time></trkpt><trkpt lat="43.20554470999834" lon="11.373634370360199"><ele>267.1666666666667</ele><time>2026-04-11T09:52:53.999Z</time></trkpt><trkpt lat="43.20548908956247" lon="11.373683112169925"><ele>267.3333333333333</ele><time>2026-04-11T09:52:54.999Z</time></trkpt><trkpt lat="43.205427020925455" lon="11.373730255827834"><ele>267.5</ele><time>2026-04-11T09:52:55.999Z</time></trkpt><trkpt lat="43.205350367370755" lon="11.373765393195548"><ele>267.66666666666663</ele><time>2026-04-11T09:52:56.999Z</time></trkpt><trkpt lat="43.20527015560752" lon="11.373788431442483"><ele>267.8333333333333</ele><time>2026-04-11T09:52:57.999Z</time></trkpt><trkpt lat="43.20518089815199" lon="11.373787387059458"><ele>268.0</ele><time>2026-04-11T09:52:58.999Z</time></trkpt><trkpt lat="43.205092344539274" lon="11.37377823158267"><ele>268.0</ele><time>2026-04-11T09:52:59.999Z</time></trkpt><trkpt lat="43.20500537027316" lon="11.373766298913637"><ele>268.0</ele><time>2026-04-11T09:53:00.999Z</time></trkpt><trkpt lat="43.20492061895764" lon="11.373755468160134"><ele>268.0</ele><time>2026-04-11T09:53:01.999Z</time></trkpt><trkpt lat="43.204838223490995" lon="11.373750167528467"><ele>268.0</ele><time>2026-04-11T09:53:02.999Z</time></trkpt><trkpt lat="43.20475564765908" lon="11.373759310432408"><ele>268.0</ele><time>2026-04-11T09:53:03.999Z</time></trkpt><trkpt lat="43.20467805326287" lon="11.373778055679576"><ele>268.0</ele><time>2026-04-11T09:53:04.999Z</time></trkpt><trkpt lat="43.20459569440486" lon="11.37379779508771"><ele>267.8333333333333</ele><time>2026-04-11T09:53:05.999Z</time></trkpt><trkpt lat="43.204509085380316" lon="11.373820894211056"><ele>267.66666666666663</ele><time>2026-04-11T09:53:06.999Z</time></trkpt><trkpt lat="43.20442608771748" lon="11.373851882584429"><ele>267.5</ele><time>2026-04-11T09:53:07.999Z</time></trkpt><trkpt lat="43.20434406483463" lon="11.373892626835717"><ele>267.3333333333333</ele><time>2026-04-11T09:53:08.999Z</time></trkpt><trkpt lat="43.20425862664126" lon="11.373923761635806"><ele>267.1666666666667</ele><time>2026-04-11T09:53:09.999Z</time></trkpt><trkpt lat="43.204163651293456" lon="11.373955224407199"><ele>267.0</ele><time>2026-04-11T09:53:10.999Z</time></trkpt><trkpt lat="43.20406803871623" lon="11.373984985388365"><ele>265.5</ele><time>2026-04-11T09:53:11.999Z</time></trkpt><trkpt lat="43.2039736272345" lon="11.374012209098701"><ele>264.0</ele><time>2026-04-11T09:53:12.999Z</time></trkpt><trkpt lat="43.203882836132195" lon="11.374041324232447"><ele>262.5</ele><time>2026-04-11T09:53:13.999Z</time></trkpt><trkpt lat="43.20379863203902" lon="11.374074868687355"><ele>261.0</ele><time>2026-04-11T09:53:14.999Z</time></trkpt><trkpt lat="43.2037214703485" lon="11.374128522084868"><ele>259.5</ele><time>2026-04-11T09:53:15.999Z</time></trkpt><trkpt lat="43.203646963863434" lon="11.374184305694525"><ele>258.0</ele><time>2026-04-11T09:53:16.999Z</time></trkpt><trkpt lat="43.203579612714016" lon="11.374255534773633"><ele>258.0</ele><time>2026-04-11T09:53:17.999Z</time></trkpt><trkpt lat="43.203512520491415" lon="11.374324528698164"><ele>258.0</ele><time>2026-04-11T09:53:18.999Z</time></trkpt><trkpt lat="43.20344494233144" lon="11.374390333026456"><ele>258.0</ele><time>2026-04-11T09:53:19.999Z</time></trkpt><trkpt lat="43.20337564197878" lon="11.374453864921744"><ele>258.0</ele><time>2026-04-11T09:53:20.999Z</time></trkpt><trkpt lat="43.20330167655038" lon="11.37449694197935"><ele>258.0</ele><time>2026-04-11T09:53:21.999Z</time></trkpt><trkpt lat="43.20322712677706" lon="11.374527940836595"><ele>258.0</ele><time>2026-04-11T09:53:22.999Z</time></trkpt><trkpt lat="43.20315471802482" lon="11.374553066176325"><ele>259.1666666666667</ele><time>2026-04-11T09:53:23.999Z</time></trkpt><trkpt lat="43.20308133081613" lon="11.374569061767279"><ele>260.3333333333333</ele><time>2026-04-11T09:53:24.999Z</time></trkpt><trkpt lat="43.2030107897495" lon="11.374579188006427"><ele>261.5</ele><time>2026-04-11T09:53:25.999Z</time></trkpt><trkpt lat="43.2029423042712" lon="11.374588915552444"><ele>262.66666666666663</ele><time>2026-04-11T09:53:26.999Z</time></trkpt><trkpt lat="43.20287768314797" lon="11.374602099225664"><ele>263.8333333333333</ele><time>2026-04-11T09:53:27.999Z</time></trkpt><trkpt lat="43.20281414909757" lon="11.374621007982395"><ele>265.0</ele><time>2026-04-11T09:53:28.998Z</time></trkpt><trkpt lat="43.20269814806737" lon="11.374662463417101"><ele>265.0</ele><time>2026-04-11T09:53:30.998Z</time></trkpt><trkpt lat="43.20263495982583" lon="11.37467768996837"><ele>265.0</ele><time>2026-04-11T09:53:31.998Z</time></trkpt><trkpt lat="43.20252983694402" lon="11.374707205721915"><ele>265.0</ele><time>2026-04-11T09:53:33.998Z</time></trkpt><trkpt lat="43.20244208141098" lon="11.374733778617834"><ele>265.0</ele><time>2026-04-11T09:53:35.998Z</time></trkpt><trkpt lat="43.20237531272548" lon="11.374760991036666"><ele>265.0</ele><time>2026-04-11T09:53:37.998Z</time></trkpt><trkpt lat="43.20229999506282" lon="11.374785030741444"><ele>265.0</ele><time>2026-04-11T09:53:40.998Z</time></trkpt><trkpt lat="43.202231798681154" lon="11.374802723100192"><ele>265.1428571428571</ele><time>2026-04-11T09:53:44Z</time></trkpt><trkpt lat="43.20216579612421" lon="11.374818582274958"><ele>265.2857142857143</ele><time>2026-04-11T09:53:47Z</time></trkpt><trkpt lat="43.20208326498986" lon="11.374841843505978"><ele>265.42857142857144</ele><time>2026-04-11T09:53:51Z</time></trkpt><trkpt lat="43.202021239130744" lon="11.374857982693069"><ele>265.57142857142856</ele><time>2026-04-11T09:53:54Z</time></trkpt><trkpt lat="43.20195347424284" lon="11.374879120479566"><ele>265.7142857142857</ele><time>2026-04-11T09:53:57Z</time></trkpt><trkpt lat="43.20188345717202" lon="11.374917097589071"><ele>265.85714285714283</ele><time>2026-04-11T09:54:00Z</time></trkpt><trkpt lat="43.20181355226552" lon="11.3749460020573"><ele>266.0</ele><time>2026-04-11T09:54:03Z</time></trkpt><trkpt lat="43.20174823810488" lon="11.374989667691201"><ele>266.0</ele><time>2026-04-11T09:54:06Z</time></trkpt><trkpt lat="43.20168275059674" lon="11.37504226445684"><ele>266.0</ele><time>2026-04-11T09:54:09Z</time></trkpt><trkpt lat="43.20162532236351" lon="11.375087386035595"><ele>266.0</ele><time>2026-04-11T09:54:12Z</time></trkpt><trkpt lat="43.201561935665" lon="11.375135015124885"><ele>266.0</ele><time>2026-04-11T09:54:15Z</time></trkpt><trkpt lat="43.20149988013558" lon="11.375174235055242"><ele>266.0</ele><time>2026-04-11T09:54:18Z</time></trkpt><trkpt lat="43.20144375080492" lon="11.375217657524193"><ele>266.0</ele><time>2026-04-11T09:54:21Z</time></trkpt><trkpt lat="43.20138059025803" lon="11.375261827297482"><ele>266.0</ele><time>2026-04-11T09:54:24Z</time></trkpt><trkpt lat="43.2013203202342" lon="11.37531224109466"><ele>266.83333333333337</ele><time>2026-04-11T09:54:27Z</time></trkpt><trkpt lat="43.201265561727844" lon="11.37535617631368"><ele>267.6666666666667</ele><time>2026-04-11T09:54:30Z</time></trkpt><trkpt lat="43.20118688666347" lon="11.375401644951927"><ele>268.5</ele><time>2026-04-11T09:54:33Z</time></trkpt><trkpt lat="43.20112120470282" lon="11.375426909051267"><ele>269.3333333333333</ele><time>2026-04-11T09:54:36Z</time></trkpt><trkpt lat="43.20105046310581" lon="11.375455611939875"><ele>270.16666666666663</ele><time>2026-04-11T09:54:40Z</time></trkpt><trkpt lat="43.20098107082646" lon="11.375430332147298"><ele>271.0</ele><time>2026-04-11T09:54:44Z</time></trkpt><trkpt lat="43.20088438121539" lon="11.375375679801289"><ele>271.0</ele><time>2026-04-11T09:54:46.999Z</time></trkpt><trkpt lat="43.20079217858496" lon="11.375322902935196"><ele>271.0</ele><time>2026-04-11T09:54:48.999Z</time></trkpt><trkpt lat="43.200686074283084" lon="11.375263218477484"><ele>271.0</ele><time>2026-04-11T09:54:50.999Z</time></trkpt><trkpt lat="43.20058613862349" lon="11.375218981666267"><ele>271.0</ele><time>2026-04-11T09:54:52.999Z</time></trkpt><trkpt lat="43.20047949888295" lon="11.375142744926125"><ele>271.0</ele><time>2026-04-11T09:54:54.999Z</time></trkpt><trkpt lat="43.200385933064965" lon="11.375084358036904"><ele>268.0</ele><time>2026-04-11T09:54:56.999Z</time></trkpt><trkpt lat="43.200304663487906" lon="11.375024265984294"><ele>265.0</ele><time>2026-04-11T09:54:58.999Z</time></trkpt><trkpt lat="43.200219829651324" lon="11.37498106725258"><ele>262.0</ele><time>2026-04-11T09:55:00.999Z</time></trkpt><trkpt lat="43.20012688789779" lon="11.374984524913788"><ele>259.0</ele><time>2026-04-11T09:55:02.999Z</time></trkpt><trkpt lat="43.20003304068743" lon="11.375061022409161"><ele>256.0</ele><time>2026-04-11T09:55:04.999Z</time></trkpt><trkpt lat="43.19996990977722" lon="11.37520474465827"><ele>255.99999999999997</ele><time>2026-04-11T09:55:06.999Z</time></trkpt><trkpt lat="43.199938052929824" lon="11.375298146352982"><ele>256.0</ele><time>2026-04-11T09:55:07.999Z</time></trkpt><trkpt lat="43.1998950216519" lon="11.375392174733888"><ele>256.0</ele><time>2026-04-11T09:55:08.999Z</time></trkpt><trkpt lat="43.19984387327517" lon="11.375490563041867"><ele>256.0</ele><time>2026-04-11T09:55:09.999Z</time></trkpt><trkpt lat="43.199784600289355" lon="11.375587100021392"><ele>255.99999999999997</ele><time>2026-04-11T09:55:10.999Z</time></trkpt><trkpt lat="43.19971526390183" lon="11.375667798949392"><ele>256.0</ele><time>2026-04-11T09:55:11.999Z</time></trkpt><trkpt lat="43.19964019470627" lon="11.375743683676456"><ele>253.99999999999997</ele><time>2026-04-11T09:55:12.999Z</time></trkpt><trkpt lat="43.199569815325965" lon="11.375822275953828"><ele>252.0</ele><time>2026-04-11T09:55:13.999Z</time></trkpt><trkpt lat="43.19950847231022" lon="11.375900881038115"><ele>250.0</ele><time>2026-04-11T09:55:14.999Z</time></trkpt><trkpt lat="43.199446511956126" lon="11.375980719998932"><ele>248.0</ele><time>2026-04-11T09:55:15.999Z</time></trkpt><trkpt lat="43.19938109339745" lon="11.37605591498419"><ele>245.99999999999997</ele><time>2026-04-11T09:55:16.999Z</time></trkpt><trkpt lat="43.1993023471292" lon="11.376118852843202"><ele>244.0</ele><time>2026-04-11T09:55:17.999Z</time></trkpt><trkpt lat="43.19920740910567" lon="11.376167880594151"><ele>244.0</ele><time>2026-04-11T09:55:18.999Z</time></trkpt><trkpt lat="43.19910114882225" lon="11.376201768495337"><ele>243.99999999999997</ele><time>2026-04-11T09:55:19.999Z</time></trkpt><trkpt lat="43.1989904558586" lon="11.37622294017057"><ele>243.99999999999997</ele><time>2026-04-11T09:55:20.999Z</time></trkpt><trkpt lat="43.19888077207571" lon="11.376241663830433"><ele>244.0</ele><time>2026-04-11T09:55:21.999Z</time></trkpt><trkpt lat="43.19876942375358" lon="11.376260865271602"><ele>244.0</ele><time>2026-04-11T09:55:22.999Z</time></trkpt><trkpt lat="43.198656145929995" lon="11.376292265870076"><ele>243.0</ele><time>2026-04-11T09:55:23.999Z</time></trkpt><trkpt lat="43.19854140512625" lon="11.376326357036456"><ele>242.0</ele><time>2026-04-11T09:55:24.999Z</time></trkpt><trkpt lat="43.198431089194024" lon="11.376375242898668"><ele>241.0</ele><time>2026-04-11T09:55:25.999Z</time></trkpt><trkpt lat="43.19833303587786" lon="11.376443097867332"><ele>240.0</ele><time>2026-04-11T09:55:26.999Z</time></trkpt><trkpt lat="43.19824616486122" lon="11.376529101709368"><ele>239.2</ele><time>2026-04-11T09:55:27.999Z</time></trkpt><trkpt lat="43.19816801024952" lon="11.37661866561782"><ele>238.4</ele><time>2026-04-11T09:55:28.999Z</time></trkpt><trkpt lat="43.19809861033571" lon="11.376716066247551"><ele>237.60000000000002</ele><time>2026-04-11T09:55:29.999Z</time></trkpt><trkpt lat="43.19802682918571" lon="11.376805728126183"><ele>236.8</ele><time>2026-04-11T09:55:30.999Z</time></trkpt><trkpt lat="43.19795190085876" lon="11.376884167953232"><ele>236.0</ele><time>2026-04-11T09:55:31.999Z</time></trkpt><trkpt lat="43.19787075151472" lon="11.376953307601042"><ele>236.0</ele><time>2026-04-11T09:55:32.999Z</time></trkpt><trkpt lat="43.19779112309779" lon="11.37702331119926"><ele>236.00000000000003</ele><time>2026-04-11T09:55:33.999Z</time></trkpt><trkpt lat="43.19770920615593" lon="11.377090459628718"><ele>236.00000000000003</ele><time>2026-04-11T09:55:34.999Z</time></trkpt><trkpt lat="43.19762688319107" lon="11.377147441354323"><ele>236.0</ele><time>2026-04-11T09:55:35.999Z</time></trkpt><trkpt lat="43.19754284763424" lon="11.37720234531252"><ele>236.0</ele><time>2026-04-11T09:55:36.998Z</time></trkpt><trkpt lat="43.197458083087554" lon="11.377257599037058"><ele>236.8</ele><time>2026-04-11T09:55:37.998Z</time></trkpt><trkpt lat="43.19737337335862" lon="11.377311211567239"><ele>237.60000000000002</ele><time>2026-04-11T09:55:38.998Z</time></trkpt><trkpt lat="43.197287059489376" lon="11.377365371818682"><ele>238.4</ele><time>2026-04-11T09:55:39.998Z</time></trkpt><trkpt lat="43.19720407207187" lon="11.377419230253029"><ele>239.2</ele><time>2026-04-11T09:55:40.998Z</time></trkpt><trkpt lat="43.197118147648276" lon="11.377474546605658"><ele>240.0</ele><time>2026-04-11T09:55:41.998Z</time></trkpt><trkpt lat="43.19703692811171" lon="11.377529462822192"><ele>238.4</ele><time>2026-04-11T09:55:42.998Z</time></trkpt><trkpt lat="43.19695504800156" lon="11.377584236324472"><ele>236.8</ele><time>2026-04-11T09:55:43.998Z</time></trkpt><trkpt lat="43.19687152103666" lon="11.377645227037647"><ele>235.2</ele><time>2026-04-11T09:55:44.998Z</time></trkpt><trkpt lat="43.196791403086465" lon="11.377709758473758"><ele>233.6</ele><time>2026-04-11T09:55:45.998Z</time></trkpt><trkpt lat="43.19670974789317" lon="11.37777569108565"><ele>232.0</ele><time>2026-04-11T09:55:46.998Z</time></trkpt><trkpt lat="43.19662841652265" lon="11.377838335774953"><ele>231.99999999999997</ele><time>2026-04-11T09:55:47.998Z</time></trkpt><trkpt lat="43.196546390416934" lon="11.377898055424648"><ele>232.0</ele><time>2026-04-11T09:55:48.998Z</time></trkpt><trkpt lat="43.19646167456679" lon="11.377952804085025"><ele>232.0</ele><time>2026-04-11T09:55:50.001Z</time></trkpt><trkpt lat="43.196380864142256" lon="11.37800693366544"><ele>232.0</ele><time>2026-04-11T09:55:51.001Z</time></trkpt><trkpt lat="43.19630467890744" lon="11.378060975947482"><ele>231.99999999999997</ele><time>2026-04-11T09:55:52.001Z</time></trkpt><trkpt lat="43.19622974123248" lon="11.378109694418455"><ele>232.0</ele><time>2026-04-11T09:55:53.001Z</time></trkpt><trkpt lat="43.19615746852934" lon="11.378156736888995"><ele>232.33333333333331</ele><time>2026-04-11T09:55:54.001Z</time></trkpt><trkpt lat="43.19608356809975" lon="11.37819987925844"><ele>232.66666666666666</ele><time>2026-04-11T09:55:55Z</time></trkpt><trkpt lat="43.196007916117026" lon="11.378240834506508"><ele>233.0</ele><time>2026-04-11T09:55:56.001Z</time></trkpt><trkpt lat="43.19593070680255" lon="11.378286280057175"><ele>233.33333333333331</ele><time>2026-04-11T09:55:57.001Z</time></trkpt><trkpt lat="43.195852445973685" lon="11.378327793547179"><ele>233.66666666666666</ele><time>2026-04-11T09:55:58Z</time></trkpt><trkpt lat="43.19577304974461" lon="11.378367102019183"><ele>234.0</ele><time>2026-04-11T09:55:59.001Z</time></trkpt><trkpt lat="43.195697750670114" lon="11.37840249178427"><ele>233.33333333333334</ele><time>2026-04-11T09:56:00.001Z</time></trkpt><trkpt lat="43.19562263021805" lon="11.378432311715951"><ele>232.66666666666669</ele><time>2026-04-11T09:56:01Z</time></trkpt><trkpt lat="43.195554404291954" lon="11.37846158337927"><ele>232.0</ele><time>2026-04-11T09:56:02.001Z</time></trkpt><trkpt lat="43.195492721927174" lon="11.378489154756267"><ele>231.33333333333334</ele><time>2026-04-11T09:56:03.001Z</time></trkpt><trkpt lat="43.19538172134322" lon="11.378550125107692"><ele>230.66666666666669</ele><time>2026-04-11T09:56:05Z</time></trkpt><trkpt lat="43.19528737638562" lon="11.378614192258079"><ele>230.0</ele><time>2026-04-11T09:56:06.999Z</time></trkpt><trkpt lat="43.195201194647424" lon="11.378692084392348"><ele>230.0</ele><time>2026-04-11T09:56:08.999Z</time></trkpt><trkpt lat="43.19511637682391" lon="11.378780858279459"><ele>230.0</ele><time>2026-04-11T09:56:10.999Z</time></trkpt><trkpt lat="43.19504627075838" lon="11.378881428752846"><ele>230.0</ele><time>2026-04-11T09:56:12.999Z</time></trkpt><trkpt lat="43.194966560109506" lon="11.378987115711634"><ele>230.0</ele><time>2026-04-11T09:56:14.999Z</time></trkpt><trkpt lat="43.19489516171455" lon="11.379099787099262"><ele>230.0</ele><time>2026-04-11T09:56:16.999Z</time></trkpt><trkpt lat="43.19482746909527" lon="11.379215990817963"><ele>229.50000000000003</ele><time>2026-04-11T09:56:18.999Z</time></trkpt><trkpt lat="43.194766419845614" lon="11.379337362425694"><ele>229.0</ele><time>2026-04-11T09:56:20.999Z</time></trkpt><trkpt lat="43.19470523507269" lon="11.379468907994394"><ele>228.5</ele><time>2026-04-11T09:56:22.999Z</time></trkpt><trkpt lat="43.19467966668175" lon="11.379547961267981"><ele>228.0</ele><time>2026-04-11T09:56:23.999Z</time></trkpt><trkpt lat="43.194654842985386" lon="11.379633209080689"><ele>227.50000000000003</ele><time>2026-04-11T09:56:24.999Z</time></trkpt><trkpt lat="43.19462783400786" lon="11.379732170445697"><ele>227.0</ele><time>2026-04-11T09:56:25.999Z</time></trkpt><trkpt lat="43.19460413749546" lon="11.379840440095862"><ele>227.00000000000003</ele><time>2026-04-11T09:56:26.999Z</time></trkpt><trkpt lat="43.19458589174477" lon="11.379955050587528"><ele>227.0</ele><time>2026-04-11T09:56:27.999Z</time></trkpt><trkpt lat="43.194569223581" lon="11.380074240590137"><ele>227.0</ele><time>2026-04-11T09:56:28.999Z</time></trkpt><trkpt lat="43.19455737429014" lon="11.380194086918431"><ele>227.0</ele><time>2026-04-11T09:56:29.999Z</time></trkpt><trkpt lat="43.19454967140863" lon="11.380312445000818"><ele>227.00000000000003</ele><time>2026-04-11T09:56:30.999Z</time></trkpt><trkpt lat="43.194541931535696" lon="11.38042886571138"><ele>227.0</ele><time>2026-04-11T09:56:31.999Z</time></trkpt><trkpt lat="43.194538576349984" lon="11.3805383937249"><ele>227.14285714285717</ele><time>2026-04-11T09:56:32.999Z</time></trkpt><trkpt lat="43.19453126763367" lon="11.380644592993153"><ele>227.2857142857143</ele><time>2026-04-11T09:56:33.999Z</time></trkpt><trkpt lat="43.19452030749944" lon="11.380751270042975"><ele>227.42857142857144</ele><time>2026-04-11T09:56:34.999Z</time></trkpt><trkpt lat="43.19450607937078" lon="11.380852019187051"><ele>227.57142857142856</ele><time>2026-04-11T09:56:35.999Z</time></trkpt><trkpt lat="43.194484720242976" lon="11.380945090151531"><ele>227.7142857142857</ele><time>2026-04-11T09:56:36.999Z</time></trkpt><trkpt lat="43.1944621360279" lon="11.381033128619766"><ele>227.85714285714283</ele><time>2026-04-11T09:56:37.999Z</time></trkpt><trkpt lat="43.194438654287715" lon="11.381113590375808"><ele>228.0</ele><time>2026-04-11T09:56:38.999Z</time></trkpt><trkpt lat="43.194412921080776" lon="11.381192450456105"><ele>228.0</ele><time>2026-04-11T09:56:39.999Z</time></trkpt><trkpt lat="43.19438632468135" lon="11.381272708413345"><ele>227.99999999999997</ele><time>2026-04-11T09:56:40.999Z</time></trkpt><trkpt lat="43.19435777106832" lon="11.381351621492344"><ele>228.0</ele><time>2026-04-11T09:56:41.999Z</time></trkpt><trkpt lat="43.19433165323199" lon="11.381432258004057"><ele>228.0</ele><time>2026-04-11T09:56:42.999Z</time></trkpt><trkpt lat="43.194304329130176" lon="11.381510403034365"><ele>227.99999999999997</ele><time>2026-04-11T09:56:43.999Z</time></trkpt><trkpt lat="43.19427531007542" lon="11.381589710960625"><ele>228.0</ele><time>2026-04-11T09:56:44.999Z</time></trkpt><trkpt lat="43.19424570965589" lon="11.38166645331533"><ele>228.0</ele><time>2026-04-11T09:56:45.999Z</time></trkpt><trkpt lat="43.19421603945169" lon="11.381747428420951"><ele>228.0</ele><time>2026-04-11T09:56:46.999Z</time></trkpt><trkpt lat="43.19418624560797" lon="11.381826047577084"><ele>227.99999999999997</ele><time>2026-04-11T09:56:47.999Z</time></trkpt><trkpt lat="43.19415752086722" lon="11.38191268767079"><ele>228.0</ele><time>2026-04-11T09:56:48.999Z</time></trkpt><trkpt lat="43.1941268026817" lon="11.382004319546862"><ele>228.0</ele><time>2026-04-11T09:56:49.999Z</time></trkpt><trkpt lat="43.19409580292518" lon="11.382095677211634"><ele>227.99999999999997</ele><time>2026-04-11T09:56:50.999Z</time></trkpt><trkpt lat="43.19406224723623" lon="11.382191124827028"><ele>228.0</ele><time>2026-04-11T09:56:51.999Z</time></trkpt><trkpt lat="43.19402633771049" lon="11.382283420342734"><ele>228.0</ele><time>2026-04-11T09:56:52.998Z</time></trkpt><trkpt lat="43.19399245276493" lon="11.3823760618539"><ele>227.0</ele><time>2026-04-11T09:56:53.998Z</time></trkpt><trkpt lat="43.193959928516215" lon="11.3824678667148"><ele>225.99999999999997</ele><time>2026-04-11T09:56:54.998Z</time></trkpt><trkpt lat="43.193930163998665" lon="11.382553355957462"><ele>225.0</ele><time>2026-04-11T09:56:55.998Z</time></trkpt><trkpt lat="43.19389770871671" lon="11.382640963873687"><ele>224.0</ele><time>2026-04-11T09:56:56.998Z</time></trkpt><trkpt lat="43.19386661481599" lon="11.382725840891322"><ele>223.0</ele><time>2026-04-11T09:56:57.998Z</time></trkpt><trkpt lat="43.19383700832548" lon="11.38280721369545"><ele>222.0</ele><time>2026-04-11T09:56:58.998Z</time></trkpt><trkpt lat="43.19381023884482" lon="11.382891427524012"><ele>221.0</ele><time>2026-04-11T09:56:59.998Z</time></trkpt><trkpt lat="43.19378174973937" lon="11.382969125626508"><ele>222.0</ele><time>2026-04-11T09:57:00.998Z</time></trkpt><trkpt lat="43.193729762576986" lon="11.38311877557085"><ele>223.00000000000003</ele><time>2026-04-11T09:57:02.998Z</time></trkpt><trkpt lat="43.19366715043217" lon="11.383251250532327"><ele>224.00000000000003</ele><time>2026-04-11T09:57:04.998Z</time></trkpt><trkpt lat="43.193595287473975" lon="11.383358789461957"><ele>225.0</ele><time>2026-04-11T09:57:06.998Z</time></trkpt><trkpt lat="43.19351899397396" lon="11.383441773587434"><ele>226.0</ele><time>2026-04-11T09:57:08.998Z</time></trkpt><trkpt lat="43.19342157035969" lon="11.383506003161717"><ele>225.99999999999997</ele><time>2026-04-11T09:57:10.998Z</time></trkpt><trkpt lat="43.19331043174794" lon="11.383553861989803"><ele>226.0</ele><time>2026-04-11T09:57:12.998Z</time></trkpt><trkpt lat="43.19319117434784" lon="11.383602333309867"><ele>226.0</ele><time>2026-04-11T09:57:14.998Z</time></trkpt><trkpt lat="43.193128926934385" lon="11.383631558222154"><ele>226.0</ele><time>2026-04-11T09:57:15.998Z</time></trkpt><trkpt lat="43.1930648889474" lon="11.383664310119558"><ele>225.99999999999997</ele><time>2026-04-11T09:57:16.998Z</time></trkpt><trkpt lat="43.19300336548039" lon="11.383696677197069"><ele>226.0</ele><time>2026-04-11T09:57:17.998Z</time></trkpt><trkpt lat="43.19293581458475" lon="11.383727307149963"><ele>225.71428571428572</ele><time>2026-04-11T09:57:18.998Z</time></trkpt><trkpt lat="43.19286595736341" lon="11.383762238363834"><ele>225.42857142857142</ele><time>2026-04-11T09:57:19.998Z</time></trkpt><trkpt lat="43.19279785990072" lon="11.383794935000395"><ele>225.14285714285714</ele><time>2026-04-11T09:57:20.998Z</time></trkpt><trkpt lat="43.19272565424577" lon="11.383828934372774"><ele>224.85714285714286</ele><time>2026-04-11T09:57:21.998Z</time></trkpt><trkpt lat="43.19265430557074" lon="11.383863698359047"><ele>224.57142857142856</ele><time>2026-04-11T09:57:22.998Z</time></trkpt><trkpt lat="43.19258086572045" lon="11.383896249593855"><ele>224.28571428571428</ele><time>2026-04-11T09:57:23.998Z</time></trkpt><trkpt lat="43.19251391595316" lon="11.383925337078804"><ele>224.0</ele><time>2026-04-11T09:57:24.998Z</time></trkpt><trkpt lat="43.19245094607982" lon="11.383945723745201"><ele>224.0</ele><time>2026-04-11T09:57:25.998Z</time></trkpt><trkpt lat="43.19237953254808" lon="11.38395286967"><ele>224.0</ele><time>2026-04-11T09:57:26.998Z</time></trkpt><trkpt lat="43.19230641734599" lon="11.383952358636742"><ele>224.0</ele><time>2026-04-11T09:57:27.998Z</time></trkpt><trkpt lat="43.19223251546676" lon="11.383953626194746"><ele>224.0</ele><time>2026-04-11T09:57:28.998Z</time></trkpt><trkpt lat="43.19215905060592" lon="11.383951917123701"><ele>224.0</ele><time>2026-04-11T09:57:29.998Z</time></trkpt><trkpt lat="43.1920830232169" lon="11.383945354124375"><ele>224.0</ele><time>2026-04-11T09:57:30.998Z</time></trkpt><trkpt lat="43.192005848093274" lon="11.383933954559541"><ele>224.0</ele><time>2026-04-11T09:57:31.998Z</time></trkpt><trkpt lat="43.191936244576304" lon="11.383928946597402"><ele>224.14285714285714</ele><time>2026-04-11T09:57:32.998Z</time></trkpt><trkpt lat="43.19186795353337" lon="11.383935959815798"><ele>224.28571428571428</ele><time>2026-04-11T09:57:33.998Z</time></trkpt><trkpt lat="43.19179785450742" lon="11.383957889162339"><ele>224.42857142857144</ele><time>2026-04-11T09:57:34.998Z</time></trkpt><trkpt lat="43.191733743682796" lon="11.384006032020707"><ele>224.57142857142858</ele><time>2026-04-11T09:57:35.998Z</time></trkpt><trkpt lat="43.19167737447078" lon="11.384070589620961"><ele>224.71428571428572</ele><time>2026-04-11T09:57:36.998Z</time></trkpt><trkpt lat="43.19162304905296" lon="11.384135336669482"><ele>224.8571428571429</ele><time>2026-04-11T09:57:37.998Z</time></trkpt><trkpt lat="43.191576429980294" lon="11.384199251388415"><ele>225.00000000000003</ele><time>2026-04-11T09:57:38.998Z</time></trkpt><trkpt lat="43.191525703663345" lon="11.38426647330932"><ele>225.5</ele><time>2026-04-11T09:57:39.998Z</time></trkpt><trkpt lat="43.191441770797084" lon="11.384402181703651"><ele>226.0</ele><time>2026-04-11T09:57:41.998Z</time></trkpt><trkpt lat="43.1914012717899" lon="11.384468550658404"><ele>226.5</ele><time>2026-04-11T09:57:42.997Z</time></trkpt><trkpt lat="43.19132460283781" lon="11.384602733094654"><ele>227.0</ele><time>2026-04-11T09:57:44.997Z</time></trkpt><trkpt lat="43.19128407632133" lon="11.384673445688913"><ele>227.5</ele><time>2026-04-11T09:57:45.997Z</time></trkpt><trkpt lat="43.191241082204066" lon="11.384737113616541"><ele>228.0</ele><time>2026-04-11T09:57:46.997Z</time></trkpt><trkpt lat="43.19119114070586" lon="11.384793387856515"><ele>228.0</ele><time>2026-04-11T09:57:47.997Z</time></trkpt><trkpt lat="43.19114502017583" lon="11.384854942092591"><ele>227.99999999999997</ele><time>2026-04-11T09:57:48.997Z</time></trkpt><trkpt lat="43.191095473784344" lon="11.384916071333896"><ele>228.0</ele><time>2026-04-11T09:57:49.997Z</time></trkpt><trkpt lat="43.19104665482194" lon="11.384976236966583"><ele>228.0</ele><time>2026-04-11T09:57:50.997Z</time></trkpt><trkpt lat="43.19099516657116" lon="11.385031538015577"><ele>227.99999999999997</ele><time>2026-04-11T09:57:51.997Z</time></trkpt><trkpt lat="43.19094139628789" lon="11.385085965700146"><ele>228.0</ele><time>2026-04-11T09:57:52.997Z</time></trkpt><trkpt lat="43.19088528074849" lon="11.385137725233568"><ele>228.0</ele><time>2026-04-11T09:57:53.997Z</time></trkpt><trkpt lat="43.19083144880009" lon="11.385187941669342"><ele>228.0</ele><time>2026-04-11T09:57:54.997Z</time></trkpt><trkpt lat="43.19077519443876" lon="11.385234793867161"><ele>228.0</ele><time>2026-04-11T09:57:56Z</time></trkpt><trkpt lat="43.190717550331264" lon="11.385282224709506"><ele>228.0</ele><time>2026-04-11T09:57:57Z</time></trkpt><trkpt lat="43.19060550670767" lon="11.38536386241738"><ele>228.0</ele><time>2026-04-11T09:57:59Z</time></trkpt><trkpt lat="43.19054620032584" lon="11.385403363876362"><ele>228.0</ele><time>2026-04-11T09:58:00Z</time></trkpt><trkpt lat="43.190435618261425" lon="11.385471263758111"><ele>228.0</ele><time>2026-04-11T09:58:02Z</time></trkpt><trkpt lat="43.19037443357513" lon="11.385502413730597"><ele>227.0</ele><time>2026-04-11T09:58:03Z</time></trkpt><trkpt lat="43.190251981320976" lon="11.385557952503277"><ele>226.0</ele><time>2026-04-11T09:58:05Z</time></trkpt><trkpt lat="43.19018743570529" lon="11.385581675821777"><ele>225.0</ele><time>2026-04-11T09:58:06Z</time></trkpt><trkpt lat="43.190125653242" lon="11.38560403193214"><ele>224.0</ele><time>2026-04-11T09:58:07Z</time></trkpt><trkpt lat="43.190063388021265" lon="11.385620222979684"><ele>223.0</ele><time>2026-04-11T09:58:08Z</time></trkpt><trkpt lat="43.18993949487152" lon="11.385649520928952"><ele>222.0</ele><time>2026-04-11T09:58:10Z</time></trkpt><trkpt lat="43.189826451636996" lon="11.385677636838023"><ele>221.39999999999998</ele><time>2026-04-11T09:58:11.999Z</time></trkpt><trkpt lat="43.18970611336252" lon="11.385710902468452"><ele>220.79999999999998</ele><time>2026-04-11T09:58:13.999Z</time></trkpt><trkpt lat="43.18958752126827" lon="11.385744393678658"><ele>220.2</ele><time>2026-04-11T09:58:15.999Z</time></trkpt><trkpt lat="43.189525239155074" lon="11.385758792363175"><ele>219.6</ele><time>2026-04-11T09:58:16.999Z</time></trkpt><trkpt lat="43.18940452060021" lon="11.38579239329566"><ele>219.0</ele><time>2026-04-11T09:58:18.999Z</time></trkpt><trkpt lat="43.189285144318546" lon="11.38583414693689"><ele>219.0</ele><time>2026-04-11T09:58:20.999Z</time></trkpt><trkpt lat="43.189158929285526" lon="11.385875392190949"><ele>218.99999999999997</ele><time>2026-04-11T09:58:22.999Z</time></trkpt><trkpt lat="43.18909581908764" lon="11.385896639048385"><ele>218.99999999999997</ele><time>2026-04-11T09:58:23.999Z</time></trkpt><trkpt lat="43.189034325690265" lon="11.385915432390867"><ele>219.0</ele><time>2026-04-11T09:58:24.999Z</time></trkpt><trkpt lat="43.18891925186639" lon="11.385952416651397"><ele>219.0</ele><time>2026-04-11T09:58:26.999Z</time></trkpt><trkpt lat="43.18881989161081" lon="11.385973379735095"><ele>220.0</ele><time>2026-04-11T09:58:28.999Z</time></trkpt><trkpt lat="43.188736200249" lon="11.385986939405871"><ele>221.0</ele><time>2026-04-11T09:58:30.999Z</time></trkpt><trkpt lat="43.188671134658854" lon="11.385988598670973"><ele>222.0</ele><time>2026-04-11T09:58:32.999Z</time></trkpt><trkpt lat="43.1885944610367" lon="11.38597313577971"><ele>223.0</ele><time>2026-04-11T09:58:35.999Z</time></trkpt><trkpt lat="43.18852800255132" lon="11.385953393448949"><ele>224.0</ele><time>2026-04-11T09:58:38.999Z</time></trkpt><trkpt lat="43.18846129462943" lon="11.385912685298303"><ele>225.0</ele><time>2026-04-11T09:58:42.999Z</time></trkpt><trkpt lat="43.18840558153874" lon="11.385870987928204"><ele>226.0</ele><time>2026-04-11T09:58:45.999Z</time></trkpt><trkpt lat="43.18834620768649" lon="11.385820886387808"><ele>226.0</ele><time>2026-04-11T09:58:49.999Z</time></trkpt><trkpt lat="43.188284928760574" lon="11.385768244947098"><ele>226.0</ele><time>2026-04-11T09:58:53.999Z</time></trkpt><trkpt lat="43.1882312660207" lon="11.385709417144582"><ele>226.0</ele><time>2026-04-11T09:58:57.999Z</time></trkpt><trkpt lat="43.18817024271247" lon="11.3856638136139"><ele>226.0</ele><time>2026-04-11T09:59:01.998Z</time></trkpt><trkpt lat="43.18810510611175" lon="11.385614831530347"><ele>226.0</ele><time>2026-04-11T09:59:06.998Z</time></trkpt><trkpt lat="43.18805135015236" lon="11.385563943801193"><ele>226.0</ele><time>2026-04-11T09:59:10.998Z</time></trkpt><trkpt lat="43.18798328102833" lon="11.385520664188293"><ele>226.0</ele><time>2026-04-11T09:59:15.998Z</time></trkpt><trkpt lat="43.18791548038523" lon="11.385476460849498"><ele>228.0</ele><time>2026-04-11T09:59:20.998Z</time></trkpt><trkpt lat="43.18784790163867" lon="11.385432673458862"><ele>230.0</ele><time>2026-04-11T09:59:25.998Z</time></trkpt><trkpt lat="43.18777631064063" lon="11.385391317748397"><ele>232.0</ele><time>2026-04-11T09:59:30.998Z</time></trkpt><trkpt lat="43.18770552911525" lon="11.385363873854057"><ele>234.0</ele><time>2026-04-11T09:59:35.998Z</time></trkpt><trkpt lat="43.18763766324599" lon="11.385337024654207"><ele>236.0</ele><time>2026-04-11T09:59:40.998Z</time></trkpt><trkpt lat="43.187568030828764" lon="11.38531108784485"><ele>238.0</ele><time>2026-04-11T09:59:45.998Z</time></trkpt><trkpt lat="43.18749172694155" lon="11.385289726168198"><ele>240.0</ele><time>2026-04-11T09:59:50.997Z</time></trkpt><trkpt lat="43.18741131783466" lon="11.385276244726024"><ele>241.14285714285717</ele><time>2026-04-11T09:59:55.997Z</time></trkpt><trkpt lat="43.18734186545854" lon="11.385265816787355"><ele>242.28571428571428</ele><time>2026-04-11T09:59:59.997Z</time></trkpt><trkpt lat="43.18727039228473" lon="11.38526775502138"><ele>243.42857142857144</ele><time>2026-04-11T10:00:04Z</time></trkpt><trkpt lat="43.187196139046556" lon="11.385270950824118"><ele>244.57142857142858</ele><time>2026-04-11T10:00:08Z</time></trkpt><trkpt lat="43.18711856717711" lon="11.38528100479014"><ele>245.71428571428572</ele><time>2026-04-11T10:00:12Z</time></trkpt><trkpt lat="43.18704400809411" lon="11.38529662894341"><ele>246.85714285714286</ele><time>2026-04-11T10:00:16Z</time></trkpt><trkpt lat="43.18697374187026" lon="11.385313378059484"><ele>248.0</ele><time>2026-04-11T10:00:19.999Z</time></trkpt><trkpt lat="43.186907090063066" lon="11.385335721397245"><ele>248.0</ele><time>2026-04-11T10:00:23.999Z</time></trkpt><trkpt lat="43.18683882661468" lon="11.385350493099487"><ele>248.00000000000003</ele><time>2026-04-11T10:00:27.999Z</time></trkpt><trkpt lat="43.18676807345311" lon="11.385368043393234"><ele>248.0</ele><time>2026-04-11T10:00:31.999Z</time></trkpt><trkpt lat="43.186691653645866" lon="11.385383257331833"><ele>248.0</ele><time>2026-04-11T10:00:35.999Z</time></trkpt><trkpt lat="43.18660918084452" lon="11.385400385553968"><ele>248.00000000000003</ele><time>2026-04-11T10:00:39.999Z</time></trkpt><trkpt lat="43.186544630925994" lon="11.385412860848579"><ele>248.0</ele><time>2026-04-11T10:00:42.999Z</time></trkpt><trkpt lat="43.18648111272481" lon="11.38542210116744"><ele>248.0</ele><time>2026-04-11T10:00:45.999Z</time></trkpt><trkpt lat="43.186417019418606" lon="11.385433585789324"><ele>249.14285714285717</ele><time>2026-04-11T10:00:48.999Z</time></trkpt><trkpt lat="43.186352444603834" lon="11.385443290717621"><ele>250.2857142857143</ele><time>2026-04-11T10:00:51.999Z</time></trkpt><trkpt lat="43.18628732115637" lon="11.38545230489125"><ele>251.42857142857144</ele><time>2026-04-11T10:00:54.999Z</time></trkpt><trkpt lat="43.18621159240577" lon="11.385453029189843"><ele>252.57142857142856</ele><time>2026-04-11T10:00:58.999Z</time></trkpt><trkpt lat="43.18614077176959" lon="11.38545147761886"><ele>253.7142857142857</ele><time>2026-04-11T10:01:02.999Z</time></trkpt><trkpt lat="43.18607179699934" lon="11.385453349982448"><ele>254.85714285714283</ele><time>2026-04-11T10:01:06.999Z</time></trkpt><trkpt lat="43.18599484239133" lon="11.385448723059314"><ele>256.0</ele><time>2026-04-11T10:01:11.998Z</time></trkpt><trkpt lat="43.1859222886226" lon="11.385448647315046"><ele>256.0</ele><time>2026-04-11T10:01:15.998Z</time></trkpt><trkpt lat="43.18585254517546" lon="11.385452735689473"><ele>255.99999999999997</ele><time>2026-04-11T10:01:19.998Z</time></trkpt><trkpt lat="43.185786407771154" lon="11.385454260349322"><ele>256.0</ele><time>2026-04-11T10:01:23.998Z</time></trkpt><trkpt lat="43.18570872867843" lon="11.385455036443378"><ele>256.0</ele><time>2026-04-11T10:01:28.998Z</time></trkpt><trkpt lat="43.185645452136" lon="11.385455034499786"><ele>255.99999999999997</ele><time>2026-04-11T10:01:32.998Z</time></trkpt><trkpt lat="43.18558100029906" lon="11.385445340021334"><ele>256.0</ele><time>2026-04-11T10:01:36.998Z</time></trkpt><trkpt lat="43.18551412054386" lon="11.385435460964304"><ele>256.0</ele><time>2026-04-11T10:01:40.998Z</time></trkpt><trkpt lat="43.185446517751316" lon="11.385400518241317"><ele>257.57142857142856</ele><time>2026-04-11T10:01:44.998Z</time></trkpt><trkpt lat="43.18538633036204" lon="11.385348510106391"><ele>259.1428571428571</ele><time>2026-04-11T10:01:48.998Z</time></trkpt><trkpt lat="43.18532623025996" lon="11.385300194367037"><ele>260.7142857142857</ele><time>2026-04-11T10:01:52.998Z</time></trkpt><trkpt lat="43.18527340820315" lon="11.385236526022329"><ele>262.2857142857143</ele><time>2026-04-11T10:01:56.997Z</time></trkpt><trkpt lat="43.18522349202252" lon="11.38517132899526"><ele>263.8571428571429</ele><time>2026-04-11T10:02:00.997Z</time></trkpt><trkpt lat="43.185177718710726" lon="11.385100316239386"><ele>265.42857142857144</ele><time>2026-04-11T10:02:04.997Z</time></trkpt><trkpt lat="43.1851231471681" lon="11.385033544576071"><ele>267.0</ele><time>2026-04-11T10:02:09Z</time></trkpt><trkpt lat="43.18507691154457" lon="11.384958018647051"><ele>267.00000000000006</ele><time>2026-04-11T10:02:13Z</time></trkpt><trkpt lat="43.18503810461805" lon="11.384885407798928"><ele>267.0</ele><time>2026-04-11T10:02:17Z</time></trkpt><trkpt lat="43.18499068273151" lon="11.384808876880227"><ele>267.0</ele><time>2026-04-11T10:02:21Z</time></trkpt><trkpt lat="43.184940092771775" lon="11.384726600725031"><ele>267.0</ele><time>2026-04-11T10:02:25Z</time></trkpt><trkpt lat="43.18489536019707" lon="11.384661735393545"><ele>267.0</ele><time>2026-04-11T10:02:27.999Z</time></trkpt><trkpt lat="43.184836084221665" lon="11.384581153899019"><ele>267.00000000000006</ele><time>2026-04-11T10:02:31.999Z</time></trkpt><trkpt lat="43.18478226035233" lon="11.38451857678207"><ele>267.0</ele><time>2026-04-11T10:02:34.999Z</time></trkpt><trkpt lat="43.18472658516687" lon="11.384455480527397"><ele>268.3333333333333</ele><time>2026-04-11T10:02:37.999Z</time></trkpt><trkpt lat="43.1846648712057" lon="11.384394765173994"><ele>269.6666666666667</ele><time>2026-04-11T10:02:40.999Z</time></trkpt><trkpt lat="43.184605613446664" lon="11.384335513334584"><ele>271.0</ele><time>2026-04-11T10:02:43.999Z</time></trkpt><trkpt lat="43.184545355400566" lon="11.384274702033663"><ele>272.33333333333337</ele><time>2026-04-11T10:02:46.999Z</time></trkpt><trkpt lat="43.184483431211305" lon="11.38421513157779"><ele>273.6666666666667</ele><time>2026-04-11T10:02:49.999Z</time></trkpt><trkpt lat="43.18442140225565" lon="11.38414864757183"><ele>275.0</ele><time>2026-04-11T10:02:52.999Z</time></trkpt><trkpt lat="43.184358883605285" lon="11.384088385955929"><ele>275.0</ele><time>2026-04-11T10:02:55.999Z</time></trkpt><trkpt lat="43.184290867687146" lon="11.384034158940727"><ele>275.0</ele><time>2026-04-11T10:02:58.999Z</time></trkpt><trkpt lat="43.184222640855374" lon="11.38398722759469"><ele>275.0</ele><time>2026-04-11T10:03:01.999Z</time></trkpt><trkpt lat="43.184150124291776" lon="11.383947330344341"><ele>275.0</ele><time>2026-04-11T10:03:04.999Z</time></trkpt><trkpt lat="43.184076628651056" lon="11.383910806255741"><ele>275.0</ele><time>2026-04-11T10:03:07.999Z</time></trkpt><trkpt lat="43.18399617234451" lon="11.383873511535153"><ele>275.0</ele><time>2026-04-11T10:03:10.999Z</time></trkpt><trkpt lat="43.18393098057316" lon="11.383844610811279"><ele>274.83333333333337</ele><time>2026-04-11T10:03:13.999Z</time></trkpt><trkpt lat="43.183849718938816" lon="11.383817500882069"><ele>274.6666666666667</ele><time>2026-04-11T10:03:16.999Z</time></trkpt><trkpt lat="43.18378219921114" lon="11.383783904687816"><ele>274.5</ele><time>2026-04-11T10:03:19.998Z</time></trkpt><trkpt lat="43.18371701387502" lon="11.383752948812997"><ele>274.3333333333333</ele><time>2026-04-11T10:03:22.998Z</time></trkpt><trkpt lat="43.183627580077115" lon="11.38373604823353"><ele>274.16666666666663</ele><time>2026-04-11T10:03:25.998Z</time></trkpt><trkpt lat="43.18354330532827" lon="11.383696539897157"><ele>274.0</ele><time>2026-04-11T10:03:28.998Z</time></trkpt><trkpt lat="43.18345682923591" lon="11.383665863757296"><ele>274.0</ele><time>2026-04-11T10:03:31.998Z</time></trkpt><trkpt lat="43.18337128219483" lon="11.383630677002333"><ele>274.0</ele><time>2026-04-11T10:03:34.998Z</time></trkpt><trkpt lat="43.18330058876469" lon="11.383596661641942"><ele>274.0</ele><time>2026-04-11T10:03:36.998Z</time></trkpt><trkpt lat="43.1832109033977" lon="11.383562965327979"><ele>274.0</ele><time>2026-04-11T10:03:38.998Z</time></trkpt><trkpt lat="43.183111889015365" lon="11.383523664290303"><ele>274.0</ele><time>2026-04-11T10:03:40.998Z</time></trkpt><trkpt lat="43.18305015319822" lon="11.38349509992855"><ele>274.0</ele><time>2026-04-11T10:03:41.998Z</time></trkpt><trkpt lat="43.18298644845214" lon="11.38346421406589"><ele>273.5714285714286</ele><time>2026-04-11T10:03:42.998Z</time></trkpt><trkpt lat="43.18292253830897" lon="11.38343574153129"><ele>273.14285714285717</ele><time>2026-04-11T10:03:43.998Z</time></trkpt><trkpt lat="43.182854421340544" lon="11.383401978382112"><ele>272.7142857142857</ele><time>2026-04-11T10:03:44.998Z</time></trkpt><trkpt lat="43.18278733593148" lon="11.383372962186547"><ele>272.28571428571433</ele><time>2026-04-11T10:03:45.998Z</time></trkpt><trkpt lat="43.18271642179311" lon="11.383338320765079"><ele>271.8571428571429</ele><time>2026-04-11T10:03:46.998Z</time></trkpt><trkpt lat="43.18264998921214" lon="11.38330902879352"><ele>271.42857142857144</ele><time>2026-04-11T10:03:47.998Z</time></trkpt><trkpt lat="43.18258623602899" lon="11.383279103881296"><ele>271.0</ele><time>2026-04-11T10:03:48.998Z</time></trkpt><trkpt lat="43.18251994648156" lon="11.3832508046186"><ele>271.0</ele><time>2026-04-11T10:03:49.998Z</time></trkpt><trkpt lat="43.18245297001746" lon="11.383222026537164"><ele>271.0</ele><time>2026-04-11T10:03:50.998Z</time></trkpt><trkpt lat="43.182384273590436" lon="11.383197320774416"><ele>271.0</ele><time>2026-04-11T10:03:51.998Z</time></trkpt><trkpt lat="43.182311574452314" lon="11.383172816427345"><ele>271.0</ele><time>2026-04-11T10:03:52.998Z</time></trkpt><trkpt lat="43.18223957687591" lon="11.383149438822535"><ele>271.0</ele><time>2026-04-11T10:03:53.998Z</time></trkpt><trkpt lat="43.182172458878185" lon="11.383131193821747"><ele>271.0</ele><time>2026-04-11T10:03:54.998Z</time></trkpt><trkpt lat="43.18210291531257" lon="11.383114986139136"><ele>271.0</ele><time>2026-04-11T10:03:55.998Z</time></trkpt><trkpt lat="43.182040196944584" lon="11.383098323643711"><ele>270.6</ele><time>2026-04-11T10:03:56.998Z</time></trkpt><trkpt lat="43.18191884723488" lon="11.383074649591922"><ele>270.20000000000005</ele><time>2026-04-11T10:03:58.998Z</time></trkpt><trkpt lat="43.18181430347238" lon="11.383044549089867"><ele>269.79999999999995</ele><time>2026-04-11T10:04:00.998Z</time></trkpt><trkpt lat="43.18171332646501" lon="11.383022923754906"><ele>269.4</ele><time>2026-04-11T10:04:02.998Z</time></trkpt><trkpt lat="43.18162098426452" lon="11.382992218677005"><ele>269.0</ele><time>2026-04-11T10:04:04.998Z</time></trkpt><trkpt lat="43.181531309301405" lon="11.382973546129202"><ele>268.57142857142856</ele><time>2026-04-11T10:04:06.998Z</time></trkpt><trkpt lat="43.18146471209931" lon="11.382961713328688"><ele>268.14285714285717</ele><time>2026-04-11T10:04:08.997Z</time></trkpt><trkpt lat="43.18137372458903" lon="11.382947641173882"><ele>267.7142857142857</ele><time>2026-04-11T10:04:11.997Z</time></trkpt><trkpt lat="43.18130879169086" lon="11.38293148705451"><ele>267.2857142857143</ele><time>2026-04-11T10:04:14Z</time></trkpt><trkpt lat="43.18124616955066" lon="11.382892097013443"><ele>266.8571428571429</ele><time>2026-04-11T10:04:16Z</time></trkpt><trkpt lat="43.1811785050007" lon="11.382854850986451"><ele>266.42857142857144</ele><time>2026-04-11T10:04:18Z</time></trkpt><trkpt lat="43.1811067596465" lon="11.382810347360769"><ele>266.0</ele><time>2026-04-11T10:04:20Z</time></trkpt><trkpt lat="43.18102369461603" lon="11.382760721976085"><ele>266.0</ele><time>2026-04-11T10:04:22Z</time></trkpt><trkpt lat="43.180951117638074" lon="11.382705245385944"><ele>266.0</ele><time>2026-04-11T10:04:24Z</time></trkpt><trkpt lat="43.180883793515605" lon="11.382654006375306"><ele>266.0</ele><time>2026-04-11T10:04:27Z</time></trkpt><trkpt lat="43.18079930253669" lon="11.382675869157987"><ele>266.0</ele><time>2026-04-11T10:04:29Z</time></trkpt><trkpt lat="43.18072237860809" lon="11.382764928098068"><ele>266.0</ele><time>2026-04-11T10:04:31Z</time></trkpt><trkpt lat="43.18063769798465" lon="11.382834063861608"><ele>266.0</ele><time>2026-04-11T10:04:33Z</time></trkpt><trkpt lat="43.180562264394474" lon="11.382930223129105"><ele>266.0</ele><time>2026-04-11T10:04:34.999Z</time></trkpt><trkpt lat="43.18047702039278" lon="11.383012860990574"><ele>266.0</ele><time>2026-04-11T10:04:36.999Z</time></trkpt><trkpt lat="43.180385699871046" lon="11.383095676904599"><ele>266.0</ele><time>2026-04-11T10:04:38.999Z</time></trkpt><trkpt lat="43.180298460079925" lon="11.383183910814875"><ele>266.0</ele><time>2026-04-11T10:04:40.999Z</time></trkpt><trkpt lat="43.18020766220144" lon="11.38326376725563"><ele>266.0</ele><time>2026-04-11T10:04:42.999Z</time></trkpt><trkpt lat="43.18011456204719" lon="11.383340434999882"><ele>266.0</ele><time>2026-04-11T10:04:44.999Z</time></trkpt><trkpt lat="43.180018629854516" lon="11.383401463423484"><ele>266.0</ele><time>2026-04-11T10:04:46.999Z</time></trkpt><trkpt lat="43.17991900700111" lon="11.383453558953454"><ele>266.0</ele><time>2026-04-11T10:04:48.999Z</time></trkpt><trkpt lat="43.17982409561599" lon="11.383513607902156"><ele>266.0</ele><time>2026-04-11T10:04:50.999Z</time></trkpt><trkpt lat="43.179728992045625" lon="11.383567758973342"><ele>266.0</ele><time>2026-04-11T10:04:52.999Z</time></trkpt><trkpt lat="43.17963257605978" lon="11.383616771236644"><ele>265.40000000000003</ele><time>2026-04-11T10:04:54.999Z</time></trkpt><trkpt lat="43.17953422909208" lon="11.383656370074217"><ele>264.8</ele><time>2026-04-11T10:04:56.999Z</time></trkpt><trkpt lat="43.17944014725027" lon="11.383707022938355"><ele>264.20000000000005</ele><time>2026-04-11T10:04:58.999Z</time></trkpt><trkpt lat="43.17934753964957" lon="11.383762031252736"><ele>263.6</ele><time>2026-04-11T10:05:00.999Z</time></trkpt><trkpt lat="43.17925231448372" lon="11.38380725428387"><ele>263.0</ele><time>2026-04-11T10:05:02.999Z</time></trkpt><trkpt lat="43.17915828253321" lon="11.3838560001945"><ele>264.2</ele><time>2026-04-11T10:05:04.999Z</time></trkpt><trkpt lat="43.179064544184996" lon="11.383909187214474"><ele>265.4</ele><time>2026-04-11T10:05:06.999Z</time></trkpt><trkpt lat="43.1789700242177" lon="11.383961101604848"><ele>266.59999999999997</ele><time>2026-04-11T10:05:08.999Z</time></trkpt><trkpt lat="43.17888180110632" lon="11.384022827581969"><ele>267.8</ele><time>2026-04-11T10:05:10.999Z</time></trkpt><trkpt lat="43.178798836007736" lon="11.384097354238403"><ele>269.0</ele><time>2026-04-11T10:05:12.999Z</time></trkpt><trkpt lat="43.17872035460177" lon="11.384178732892863"><ele>269.0</ele><time>2026-04-11T10:05:14.999Z</time></trkpt><trkpt lat="43.178644433875206" lon="11.384264752140245"><ele>269.0</ele><time>2026-04-11T10:05:16.999Z</time></trkpt><trkpt lat="43.17857178011643" lon="11.384361208501332"><ele>269.0</ele><time>2026-04-11T10:05:18.999Z</time></trkpt><trkpt lat="43.17849694181734" lon="11.38445813566591"><ele>269.0</ele><time>2026-04-11T10:05:20.999Z</time></trkpt><trkpt lat="43.17843217547443" lon="11.384552429314148"><ele>269.0</ele><time>2026-04-11T10:05:22.999Z</time></trkpt><trkpt lat="43.178366680884785" lon="11.384633910029873"><ele>269.0</ele><time>2026-04-11T10:05:24.998Z</time></trkpt><trkpt lat="43.1782965015972" lon="11.384721435615635"><ele>269.0</ele><time>2026-04-11T10:05:26.998Z</time></trkpt><trkpt lat="43.17821836173243" lon="11.384810012001845"><ele>269.0</ele><time>2026-04-11T10:05:28.998Z</time></trkpt><trkpt lat="43.178132071122214" lon="11.384889121978306"><ele>269.0</ele><time>2026-04-11T10:05:30.998Z</time></trkpt><trkpt lat="43.17804396409058" lon="11.384962711391903"><ele>269.0</ele><time>2026-04-11T10:05:32.998Z</time></trkpt><trkpt lat="43.177943277537324" lon="11.385036626863936"><ele>269.0</ele><time>2026-04-11T10:05:34.998Z</time></trkpt><trkpt lat="43.177833779827566" lon="11.385109961670416"><ele>269.0</ele><time>2026-04-11T10:05:36.998Z</time></trkpt><trkpt lat="43.17772912522154" lon="11.385193604067824"><ele>269.0</ele><time>2026-04-11T10:05:38.998Z</time></trkpt><trkpt lat="43.17762551032385" lon="11.385277515995778"><ele>269.0</ele><time>2026-04-11T10:05:40.998Z</time></trkpt><trkpt lat="43.177520243230106" lon="11.385367243058955"><ele>269.0</ele><time>2026-04-11T10:05:42.998Z</time></trkpt><trkpt lat="43.17743022951915" lon="11.385473099371426"><ele>269.0</ele><time>2026-04-11T10:05:44.998Z</time></trkpt><trkpt lat="43.177350390741715" lon="11.385601689015362"><ele>269.0</ele><time>2026-04-11T10:05:46.998Z</time></trkpt><trkpt lat="43.17730917305857" lon="11.385672135586297"><ele>269.0</ele><time>2026-04-11T10:05:47.998Z</time></trkpt><trkpt lat="43.17726995184337" lon="11.385748702263763"><ele>269.0</ele><time>2026-04-11T10:05:48.998Z</time></trkpt><trkpt lat="43.177232493831454" lon="11.385829292567593"><ele>269.0</ele><time>2026-04-11T10:05:49.998Z</time></trkpt><trkpt lat="43.17719404880454" lon="11.385908617999652"><ele>269.42857142857144</ele><time>2026-04-11T10:05:50.998Z</time></trkpt><trkpt lat="43.17716057510601" lon="11.38599598013029"><ele>269.8571428571429</ele><time>2026-04-11T10:05:51.998Z</time></trkpt><trkpt lat="43.177125971260445" lon="11.386086235836872"><ele>270.2857142857143</ele><time>2026-04-11T10:05:52.998Z</time></trkpt><trkpt lat="43.17709037709988" lon="11.38617423474262"><ele>270.7142857142857</ele><time>2026-04-11T10:05:53.998Z</time></trkpt><trkpt lat="43.177054928501136" lon="11.386261141006141"><ele>271.1428571428571</ele><time>2026-04-11T10:05:54.998Z</time></trkpt><trkpt lat="43.17701758564369" lon="11.386344584154163"><ele>271.57142857142856</ele><time>2026-04-11T10:05:55.998Z</time></trkpt><trkpt lat="43.176980495015314" lon="11.386428577246274"><ele>272.0</ele><time>2026-04-11T10:05:56.998Z</time></trkpt><trkpt lat="43.17694682709981" lon="11.386515334405454"><ele>271.99999999999994</ele><time>2026-04-11T10:05:57.998Z</time></trkpt><trkpt lat="43.17691118202721" lon="11.386597535703055"><ele>272.0</ele><time>2026-04-11T10:05:58.998Z</time></trkpt><trkpt lat="43.17687751003449" lon="11.386676797703794"><ele>272.0</ele><time>2026-04-11T10:05:59.998Z</time></trkpt><trkpt lat="43.17684544668917" lon="11.386753374220232"><ele>272.0</ele><time>2026-04-11T10:06:00.998Z</time></trkpt><trkpt lat="43.176814105455435" lon="11.386831817998125"><ele>272.0</ele><time>2026-04-11T10:06:01.998Z</time></trkpt><trkpt lat="43.176783228914715" lon="11.38691032896613"><ele>271.99999999999994</ele><time>2026-04-11T10:06:02.998Z</time></trkpt><trkpt lat="43.176748420447375" lon="11.386985323978063"><ele>272.0</ele><time>2026-04-11T10:06:03.998Z</time></trkpt><trkpt lat="43.176717128253436" lon="11.387064725484542"><ele>272.0</ele><time>2026-04-11T10:06:04.998Z</time></trkpt><trkpt lat="43.17668515447588" lon="11.387142771667465"><ele>272.0</ele><time>2026-04-11T10:06:05.998Z</time></trkpt><trkpt lat="43.176653310197445" lon="11.387219294474876"><ele>272.0</ele><time>2026-04-11T10:06:06.998Z</time></trkpt><trkpt lat="43.17662225340859" lon="11.387298601882442"><ele>272.0</ele><time>2026-04-11T10:06:07.998Z</time></trkpt><trkpt lat="43.17655723157076" lon="11.387448732223458"><ele>272.0</ele><time>2026-04-11T10:06:09.998Z</time></trkpt><trkpt lat="43.17652407854105" lon="11.387525288768558"><ele>272.0</ele><time>2026-04-11T10:06:10.998Z</time></trkpt><trkpt lat="43.17649181855999" lon="11.387600875427719"><ele>272.2857142857143</ele><time>2026-04-11T10:06:11.998Z</time></trkpt><trkpt lat="43.1764557979279" lon="11.387671859603927"><ele>272.57142857142856</ele><time>2026-04-11T10:06:12.998Z</time></trkpt><trkpt lat="43.176417861672824" lon="11.387743951166629"><ele>272.8571428571429</ele><time>2026-04-11T10:06:13.997Z</time></trkpt><trkpt lat="43.17633170224795" lon="11.387868580063245"><ele>273.1428571428571</ele><time>2026-04-11T10:06:15.997Z</time></trkpt><trkpt lat="43.176285913461136" lon="11.387932175999756"><ele>273.42857142857144</ele><time>2026-04-11T10:06:16.997Z</time></trkpt><trkpt lat="43.176238465704486" lon="11.387989809756839"><ele>273.7142857142857</ele><time>2026-04-11T10:06:17.997Z</time></trkpt><trkpt lat="43.1761899633126" lon="11.388047754653982"><ele>274.0</ele><time>2026-04-11T10:06:19Z</time></trkpt><trkpt lat="43.176140302624304" lon="11.38810303076447"><ele>274.0</ele><time>2026-04-11T10:06:20Z</time></trkpt><trkpt lat="43.17603574662141" lon="11.388192796559528"><ele>274.0</ele><time>2026-04-11T10:06:22Z</time></trkpt><trkpt lat="43.17597845598206" lon="11.388233441335236"><ele>274.0</ele><time>2026-04-11T10:06:23Z</time></trkpt><trkpt lat="43.175866452412585" lon="11.388307587394392"><ele>274.0</ele><time>2026-04-11T10:06:25Z</time></trkpt><trkpt lat="43.17575011890582" lon="11.388364172733926"><ele>274.0</ele><time>2026-04-11T10:06:27Z</time></trkpt><trkpt lat="43.17568886934352" lon="11.388392365851688"><ele>273.8</ele><time>2026-04-11T10:06:28Z</time></trkpt><trkpt lat="43.175574294868504" lon="11.388444228745293"><ele>273.59999999999997</ele><time>2026-04-11T10:06:30Z</time></trkpt><trkpt lat="43.17546570534198" lon="11.388499210199333"><ele>273.4</ele><time>2026-04-11T10:06:32Z</time></trkpt><trkpt lat="43.17536460717889" lon="11.388531583281358"><ele>273.2</ele><time>2026-04-11T10:06:34Z</time></trkpt><trkpt lat="43.17527576363623" lon="11.388569042676263"><ele>273.0</ele><time>2026-04-11T10:06:36Z</time></trkpt><trkpt lat="43.175193486355234" lon="11.388607118967517"><ele>273.0</ele><time>2026-04-11T10:06:38Z</time></trkpt><trkpt lat="43.1751160256896" lon="11.3886445876565"><ele>273.0</ele><time>2026-04-11T10:06:39.999Z</time></trkpt><trkpt lat="43.175041212439545" lon="11.388675481766102"><ele>273.0</ele><time>2026-04-11T10:06:41.999Z</time></trkpt><trkpt lat="43.17496687582472" lon="11.388708376650555"><ele>273.0</ele><time>2026-04-11T10:06:43.999Z</time></trkpt><trkpt lat="43.17488927031839" lon="11.388740216246559"><ele>273.0</ele><time>2026-04-11T10:06:45.999Z</time></trkpt><trkpt lat="43.17481434440708" lon="11.388772188687497"><ele>273.0</ele><time>2026-04-11T10:06:47.999Z</time></trkpt><trkpt lat="43.17474034086225" lon="11.388806500976495"><ele>274.0</ele><time>2026-04-11T10:06:49.999Z</time></trkpt><trkpt lat="43.17466936330894" lon="11.388843686044737"><ele>275.0</ele><time>2026-04-11T10:06:51.999Z</time></trkpt><trkpt lat="43.17459868774546" lon="11.388873621930394"><ele>276.0</ele><time>2026-04-11T10:06:53.999Z</time></trkpt><trkpt lat="43.17452193023499" lon="11.388901308642943"><ele>277.0</ele><time>2026-04-11T10:06:55.999Z</time></trkpt><trkpt lat="43.174454340479116" lon="11.388931417940928"><ele>278.0</ele><time>2026-04-11T10:06:57.999Z</time></trkpt><trkpt lat="43.17438073998415" lon="11.388962996070823"><ele>279.0</ele><time>2026-04-11T10:06:59.999Z</time></trkpt><trkpt lat="43.17430644915743" lon="11.388992837784434"><ele>279.0</ele><time>2026-04-11T10:07:01.999Z</time></trkpt><trkpt lat="43.17424632099563" lon="11.38902093222541"><ele>279.0</ele><time>2026-04-11T10:07:03.999Z</time></trkpt><trkpt lat="43.174165306980925" lon="11.389064105320191"><ele>279.0</ele><time>2026-04-11T10:07:06.999Z</time></trkpt><trkpt lat="43.17410397732097" lon="11.389104212954587"><ele>279.0</ele><time>2026-04-11T10:07:08.999Z</time></trkpt><trkpt lat="43.17404543927406" lon="11.389150126048312"><ele>279.0</ele><time>2026-04-11T10:07:10.999Z</time></trkpt><trkpt lat="43.173983949214936" lon="11.389203818147687"><ele>279.0</ele><time>2026-04-11T10:07:12.999Z</time></trkpt><trkpt lat="43.17389699772928" lon="11.389289848911774"><ele>280.1666666666667</ele><time>2026-04-11T10:07:14.999Z</time></trkpt><trkpt lat="43.17383799534163" lon="11.389367250271977"><ele>281.3333333333333</ele><time>2026-04-11T10:07:16.999Z</time></trkpt><trkpt lat="43.173779863620524" lon="11.389441679243149"><ele>282.5</ele><time>2026-04-11T10:07:18.999Z</time></trkpt><trkpt lat="43.173723406382294" lon="11.389526452852134"><ele>283.66666666666663</ele><time>2026-04-11T10:07:20.999Z</time></trkpt><trkpt lat="43.173670144112705" lon="11.38961893484866"><ele>284.8333333333333</ele><time>2026-04-11T10:07:22.999Z</time></trkpt><trkpt lat="43.1736201249719" lon="11.389714110753046"><ele>286.0</ele><time>2026-04-11T10:07:24.999Z</time></trkpt><trkpt lat="43.17356109776911" lon="11.389797969184132"><ele>286.0</ele><time>2026-04-11T10:07:26.999Z</time></trkpt><trkpt lat="43.17350443947171" lon="11.38988144581355"><ele>286.0</ele><time>2026-04-11T10:07:28.999Z</time></trkpt><trkpt lat="43.173454524880036" lon="11.389969879970533"><ele>286.0</ele><time>2026-04-11T10:07:30.998Z</time></trkpt><trkpt lat="43.173409469355526" lon="11.390055921869497"><ele>286.0</ele><time>2026-04-11T10:07:32.998Z</time></trkpt><trkpt lat="43.17336249872878" lon="11.390135873604178"><ele>286.0</ele><time>2026-04-11T10:07:34.998Z</time></trkpt><trkpt lat="43.173318541083155" lon="11.390209203471837"><ele>286.0</ele><time>2026-04-11T10:07:36.998Z</time></trkpt><trkpt lat="43.173279170186646" lon="11.39027903121887"><ele>286.0</ele><time>2026-04-11T10:07:38.998Z</time></trkpt><trkpt lat="43.17322186560093" lon="11.390364763366339"><ele>286.0</ele><time>2026-04-11T10:07:41.998Z</time></trkpt><trkpt lat="43.17317236268278" lon="11.390454078065646"><ele>286.0</ele><time>2026-04-11T10:07:44.998Z</time></trkpt><trkpt lat="43.17312218928236" lon="11.390530872068345"><ele>286.0</ele><time>2026-04-11T10:07:47.998Z</time></trkpt><trkpt lat="43.17308015391395" lon="11.390606360313475"><ele>286.0</ele><time>2026-04-11T10:07:50.998Z</time></trkpt><trkpt lat="43.17301861223733" lon="11.390650348156255"><ele>286.0</ele><time>2026-04-11T10:07:53.998Z</time></trkpt><trkpt lat="43.172955322329344" lon="11.390696588755544"><ele>287.71428571428567</ele><time>2026-04-11T10:07:57.998Z</time></trkpt><trkpt lat="43.17287557526669" lon="11.390731759184675"><ele>289.42857142857144</ele><time>2026-04-11T10:08:01.998Z</time></trkpt><trkpt lat="43.172815046391186" lon="11.39076343367479"><ele>291.1428571428571</ele><time>2026-04-11T10:08:04.998Z</time></trkpt><trkpt lat="43.17275375586644" lon="11.39078569868141"><ele>292.85714285714283</ele><time>2026-04-11T10:08:07.998Z</time></trkpt><trkpt lat="43.17268913956879" lon="11.39080723818871"><ele>294.57142857142856</ele><time>2026-04-11T10:08:11.998Z</time></trkpt><trkpt lat="43.17262692114357" lon="11.390841367646908"><ele>296.2857142857143</ele><time>2026-04-11T10:08:14.998Z</time></trkpt><trkpt lat="43.17255178617112" lon="11.39087493017267"><ele>298.0</ele><time>2026-04-11T10:08:18.998Z</time></trkpt><trkpt lat="43.172478536317485" lon="11.390913241234339"><ele>298.0</ele><time>2026-04-11T10:08:22.997Z</time></trkpt><trkpt lat="43.17240206424695" lon="11.390948841045073"><ele>298.0</ele><time>2026-04-11T10:08:27Z</time></trkpt><trkpt lat="43.1723372102238" lon="11.39098656617987"><ele>298.0</ele><time>2026-04-11T10:08:30Z</time></trkpt><trkpt lat="43.17226022375843" lon="11.391021133939251"><ele>298.0</ele><time>2026-04-11T10:08:34Z</time></trkpt><trkpt lat="43.17218379905948" lon="11.391056937830312"><ele>298.0</ele><time>2026-04-11T10:08:38Z</time></trkpt><trkpt lat="43.17210583822308" lon="11.3910885275325"><ele>298.0</ele><time>2026-04-11T10:08:42Z</time></trkpt><trkpt lat="43.17204360183833" lon="11.391122636283736"><ele>299.16666666666663</ele><time>2026-04-11T10:08:45Z</time></trkpt><trkpt lat="43.17197054869903" lon="11.391163060353541"><ele>300.3333333333333</ele><time>2026-04-11T10:08:47.999Z</time></trkpt><trkpt lat="43.17189516305864" lon="11.39120944485138"><ele>301.5</ele><time>2026-04-11T10:08:50.999Z</time></trkpt><trkpt lat="43.17180633244356" lon="11.391241765249115"><ele>302.6666666666667</ele><time>2026-04-11T10:08:53.999Z</time></trkpt><trkpt lat="43.17174176849998" lon="11.391261847318967"><ele>303.83333333333337</ele><time>2026-04-11T10:08:55.999Z</time></trkpt><trkpt lat="43.1716696123823" lon="11.391290440312533"><ele>305.0</ele><time>2026-04-11T10:08:57.999Z</time></trkpt><trkpt lat="43.17158770344606" lon="11.391317984114707"><ele>304.4</ele><time>2026-04-11T10:08:59.999Z</time></trkpt><trkpt lat="43.17149674689569" lon="11.391337155303273"><ele>303.8</ele><time>2026-04-11T10:09:01.999Z</time></trkpt><trkpt lat="43.17139677332016" lon="11.391336646955933"><ele>303.2</ele><time>2026-04-11T10:09:03.999Z</time></trkpt><trkpt lat="43.17128084186375" lon="11.391332566972705"><ele>302.6</ele><time>2026-04-11T10:09:05.999Z</time></trkpt><trkpt lat="43.17115934612623" lon="11.391299083421755"><ele>302.0</ele><time>2026-04-11T10:09:07.999Z</time></trkpt><trkpt lat="43.17106396880245" lon="11.391256344195991"><ele>302.00000000000006</ele><time>2026-04-11T10:09:09.999Z</time></trkpt><trkpt lat="43.17099343446528" lon="11.39119189538857"><ele>302.0</ele><time>2026-04-11T10:09:11.999Z</time></trkpt><trkpt lat="43.17093030337314" lon="11.391142892399985"><ele>302.0</ele><time>2026-04-11T10:09:13.999Z</time></trkpt><trkpt lat="43.170863675843336" lon="11.391108176468386"><ele>302.0</ele><time>2026-04-11T10:09:15.999Z</time></trkpt><trkpt lat="43.17080189889488" lon="11.391074310587749"><ele>302.0</ele><time>2026-04-11T10:09:17.999Z</time></trkpt><trkpt lat="43.17073806872918" lon="11.391038267745234"><ele>302.00000000000006</ele><time>2026-04-11T10:09:19.999Z</time></trkpt><trkpt lat="43.17067521935474" lon="11.391002776827595"><ele>302.0</ele><time>2026-04-11T10:09:21.999Z</time></trkpt><trkpt lat="43.170607473375945" lon="11.390966892360865"><ele>302.0</ele><time>2026-04-11T10:09:23.999Z</time></trkpt><trkpt lat="43.17053687341118" lon="11.390918792884868"><ele>302.0</ele><time>2026-04-11T10:09:25.999Z</time></trkpt><trkpt lat="43.17046096623612" lon="11.390870227677228"><ele>302.0</ele><time>2026-04-11T10:09:27.999Z</time></trkpt><trkpt lat="43.17037457359061" lon="11.390814637651768"><ele>302.0</ele><time>2026-04-11T10:09:29.999Z</time></trkpt><trkpt lat="43.17028554473117" lon="11.390736165166839"><ele>302.0</ele><time>2026-04-11T10:09:31.999Z</time></trkpt><trkpt lat="43.17018143401676" lon="11.390655266640573"><ele>302.00000000000006</ele><time>2026-04-11T10:09:33.999Z</time></trkpt><trkpt lat="43.1701257851466" lon="11.390609943108814"><ele>302.0</ele><time>2026-04-11T10:09:34.999Z</time></trkpt><trkpt lat="43.17006699322945" lon="11.39055893831281"><ele>302.0</ele><time>2026-04-11T10:09:35.998Z</time></trkpt><trkpt lat="43.17000617127075" lon="11.39050823349357"><ele>302.0</ele><time>2026-04-11T10:09:36.998Z</time></trkpt><trkpt lat="43.16994152460898" lon="11.390457010130872"><ele>302.0</ele><time>2026-04-11T10:09:37.998Z</time></trkpt><trkpt lat="43.16987395246449" lon="11.390402141649394"><ele>302.00000000000006</ele><time>2026-04-11T10:09:38.998Z</time></trkpt><trkpt lat="43.169804394201485" lon="11.390340306602656"><ele>302.0</ele><time>2026-04-11T10:09:39.998Z</time></trkpt><trkpt lat="43.16973340606745" lon="11.390276555415198"><ele>299.6</ele><time>2026-04-11T10:09:40.998Z</time></trkpt><trkpt lat="43.169655184761865" lon="11.390221382101084"><ele>297.2</ele><time>2026-04-11T10:09:41.998Z</time></trkpt><trkpt lat="43.16956912483295" lon="11.390172718699485"><ele>294.8</ele><time>2026-04-11T10:09:42.998Z</time></trkpt><trkpt lat="43.169480431068884" lon="11.390123677572852"><ele>292.4</ele><time>2026-04-11T10:09:43.998Z</time></trkpt><trkpt lat="43.16938585022079" lon="11.390073058486882"><ele>290.0</ele><time>2026-04-11T10:09:44.998Z</time></trkpt><trkpt lat="43.169286561750454" lon="11.390033522927043"><ele>290.0</ele><time>2026-04-11T10:09:45.998Z</time></trkpt><trkpt lat="43.16918459697798" lon="11.390012915504096"><ele>290.0</ele><time>2026-04-11T10:09:46.998Z</time></trkpt><trkpt lat="43.169090776446346" lon="11.389997762888564"><ele>290.0</ele><time>2026-04-11T10:09:47.998Z</time></trkpt><trkpt lat="43.16899320654996" lon="11.389981903725364"><ele>290.0</ele><time>2026-04-11T10:09:48.998Z</time></trkpt><trkpt lat="43.16888773638518" lon="11.389974001958176"><ele>290.0</ele><time>2026-04-11T10:09:49.998Z</time></trkpt><trkpt lat="43.16878033334236" lon="11.38996635367479"><ele>287.25</ele><time>2026-04-11T10:09:50.998Z</time></trkpt><trkpt lat="43.168665834774096" lon="11.38995824411761"><ele>284.5</ele><time>2026-04-11T10:09:51.998Z</time></trkpt><trkpt lat="43.168550497646564" lon="11.389947088810203"><ele>281.75</ele><time>2026-04-11T10:09:52.998Z</time></trkpt><trkpt lat="43.16843072685947" lon="11.389935856134528"><ele>279.0</ele><time>2026-04-11T10:09:53.998Z</time></trkpt><trkpt lat="43.1683083054754" lon="11.389924533636965"><ele>277.5</ele><time>2026-04-11T10:09:54.998Z</time></trkpt><trkpt lat="43.16818373614318" lon="11.389911526059276"><ele>276.0</ele><time>2026-04-11T10:09:55.998Z</time></trkpt><trkpt lat="43.16805934447048" lon="11.389902328779382"><ele>274.5</ele><time>2026-04-11T10:09:56.998Z</time></trkpt><trkpt lat="43.16793237296649" lon="11.389897950584304"><ele>273.0</ele><time>2026-04-11T10:09:57.998Z</time></trkpt><trkpt lat="43.16780510050012" lon="11.389892310790346"><ele>273.0</ele><time>2026-04-11T10:09:58.998Z</time></trkpt><trkpt lat="43.16767724693916" lon="11.389879322587289"><ele>273.0</ele><time>2026-04-11T10:09:59.998Z</time></trkpt><trkpt lat="43.16754945517746" lon="11.389867180467963"><ele>273.0</ele><time>2026-04-11T10:10:00.998Z</time></trkpt><trkpt lat="43.16742243242624" lon="11.38985586921824"><ele>273.0</ele><time>2026-04-11T10:10:01.998Z</time></trkpt><trkpt lat="43.16729624858954" lon="11.389849026023315"><ele>273.2</ele><time>2026-04-11T10:10:02.998Z</time></trkpt><trkpt lat="43.16718099014918" lon="11.38984045707336"><ele>273.4</ele><time>2026-04-11T10:10:03.998Z</time></trkpt><trkpt lat="43.167081921888744" lon="11.389840612837048"><ele>273.59999999999997</ele><time>2026-04-11T10:10:04.998Z</time></trkpt><trkpt lat="43.16698434176774" lon="11.389853870653967"><ele>273.8</ele><time>2026-04-11T10:10:05.998Z</time></trkpt><trkpt lat="43.16688360688955" lon="11.389880273278996"><ele>274.0</ele><time>2026-04-11T10:10:06.998Z</time></trkpt><trkpt lat="43.16678639552974" lon="11.389921823985757"><ele>274.0</ele><time>2026-04-11T10:10:07.998Z</time></trkpt><trkpt lat="43.16669343305207" lon="11.389975163143296"><ele>274.0</ele><time>2026-04-11T10:10:08.998Z</time></trkpt><trkpt lat="43.166607517865714" lon="11.390043398078866"><ele>274.0</ele><time>2026-04-11T10:10:09.998Z</time></trkpt><trkpt lat="43.166531895361096" lon="11.390126640748521"><ele>274.0</ele><time>2026-04-11T10:10:10.998Z</time></trkpt><trkpt lat="43.166467464883695" lon="11.390226265520539"><ele>274.0</ele><time>2026-04-11T10:10:11.998Z</time></trkpt><trkpt lat="43.166406294434545" lon="11.390318978179403"><ele>274.5</ele><time>2026-04-11T10:10:12.998Z</time></trkpt><trkpt lat="43.16635220515478" lon="11.390402339490068"><ele>275.0</ele><time>2026-04-11T10:10:13.998Z</time></trkpt><trkpt lat="43.16630336425337" lon="11.390484444288651"><ele>275.5</ele><time>2026-04-11T10:10:14.998Z</time></trkpt><trkpt lat="43.16624439599541" lon="11.390554820738481"><ele>276.0</ele><time>2026-04-11T10:10:15.998Z</time></trkpt><trkpt lat="43.16618126122769" lon="11.390606485560399"><ele>276.5</ele><time>2026-04-11T10:10:16.998Z</time></trkpt><trkpt lat="43.166113033679466" lon="11.390642531949448"><ele>277.0</ele><time>2026-04-11T10:10:17.998Z</time></trkpt><trkpt lat="43.16604850014503" lon="11.39068686545362"><ele>276.5</ele><time>2026-04-11T10:10:18.998Z</time></trkpt><trkpt lat="43.16598369107539" lon="11.39073540770583"><ele>276.0</ele><time>2026-04-11T10:10:19.998Z</time></trkpt><trkpt lat="43.16591990528807" lon="11.390766218370935"><ele>275.5</ele><time>2026-04-11T10:10:20.998Z</time></trkpt><trkpt lat="43.16585434789316" lon="11.39078762351933"><ele>275.0</ele><time>2026-04-11T10:10:21.998Z</time></trkpt><trkpt lat="43.165789832424096" lon="11.390807528760819"><ele>274.5</ele><time>2026-04-11T10:10:22.998Z</time></trkpt><trkpt lat="43.16572763482124" lon="11.390829901204025"><ele>274.0</ele><time>2026-04-11T10:10:23.998Z</time></trkpt><trkpt lat="43.16560760627112" lon="11.39086271063703"><ele>274.0</ele><time>2026-04-11T10:10:25.997Z</time></trkpt><trkpt lat="43.16549332649686" lon="11.390895117280317"><ele>274.0</ele><time>2026-04-11T10:10:27.997Z</time></trkpt><trkpt lat="43.165385926345486" lon="11.390927124945298"><ele>274.0</ele><time>2026-04-11T10:10:29.997Z</time></trkpt><trkpt lat="43.16528227757265" lon="11.3909525246916"><ele>274.0</ele><time>2026-04-11T10:10:32Z</time></trkpt><trkpt lat="43.165188016669156" lon="11.390986616020944"><ele>274.0</ele><time>2026-04-11T10:10:34Z</time></trkpt><trkpt lat="43.16508835784723" lon="11.391009227338788"><ele>274.0</ele><time>2026-04-11T10:10:36Z</time></trkpt><trkpt lat="43.16499225542608" lon="11.391026344600405"><ele>274.0</ele><time>2026-04-11T10:10:38Z</time></trkpt><trkpt lat="43.16490415044909" lon="11.391053906745068"><ele>274.0</ele><time>2026-04-11T10:10:40Z</time></trkpt><trkpt lat="43.16481350390215" lon="11.39107285406795"><ele>274.0</ele><time>2026-04-11T10:10:42Z</time></trkpt><trkpt lat="43.16473450296845" lon="11.391095526731528"><ele>274.0</ele><time>2026-04-11T10:10:44Z</time></trkpt><trkpt lat="43.16465245462913" lon="11.391114127030155"><ele>274.0</ele><time>2026-04-11T10:10:46Z</time></trkpt><trkpt lat="43.16457019235376" lon="11.391139959378007"><ele>274.16666666666663</ele><time>2026-04-11T10:10:48Z</time></trkpt><trkpt lat="43.164492056172485" lon="11.391157175876211"><ele>274.3333333333333</ele><time>2026-04-11T10:10:50Z</time></trkpt><trkpt lat="43.16441981465256" lon="11.391177971925364"><ele>274.5</ele><time>2026-04-11T10:10:52Z</time></trkpt><trkpt lat="43.1643470437057" lon="11.391196430148042"><ele>274.6666666666667</ele><time>2026-04-11T10:10:53.999Z</time></trkpt><trkpt lat="43.16426980112022" lon="11.391208177388382"><ele>274.83333333333337</ele><time>2026-04-11T10:10:55.999Z</time></trkpt><trkpt lat="43.16419169716652" lon="11.391222828676664"><ele>275.0</ele><time>2026-04-11T10:10:57.999Z</time></trkpt><trkpt lat="43.16411318358484" lon="11.391239787558463"><ele>275.0</ele><time>2026-04-11T10:10:59.999Z</time></trkpt><trkpt lat="43.16403471475581" lon="11.391258691278143"><ele>275.0</ele><time>2026-04-11T10:11:01.999Z</time></trkpt><trkpt lat="43.16395668017709" lon="11.391276441341775"><ele>275.0</ele><time>2026-04-11T10:11:03.999Z</time></trkpt><trkpt lat="43.16387704884991" lon="11.39129739556217"><ele>275.0</ele><time>2026-04-11T10:11:05.999Z</time></trkpt><trkpt lat="43.16379656919202" lon="11.391322464172505"><ele>275.0</ele><time>2026-04-11T10:11:07.999Z</time></trkpt><trkpt lat="43.16371893637647" lon="11.39135532432341"><ele>275.0</ele><time>2026-04-11T10:11:09.999Z</time></trkpt><trkpt lat="43.163637388416916" lon="11.391373378716427"><ele>275.33333333333337</ele><time>2026-04-11T10:11:11.999Z</time></trkpt><trkpt lat="43.163560012265805" lon="11.391391003106284"><ele>275.6666666666667</ele><time>2026-04-11T10:11:13.999Z</time></trkpt><trkpt lat="43.16348094963688" lon="11.391408480737098"><ele>276.0</ele><time>2026-04-11T10:11:15.999Z</time></trkpt><trkpt lat="43.16340222124091" lon="11.391426155729564"><ele>276.3333333333333</ele><time>2026-04-11T10:11:17.999Z</time></trkpt><trkpt lat="43.163325574634" lon="11.391442556100397"><ele>276.66666666666663</ele><time>2026-04-11T10:11:19.999Z</time></trkpt><trkpt lat="43.16325068347744" lon="11.391459533425934"><ele>277.0</ele><time>2026-04-11T10:11:21.999Z</time></trkpt><trkpt lat="43.16317495624397" lon="11.391477540775012"><ele>277.7142857142857</ele><time>2026-04-11T10:11:23.999Z</time></trkpt><trkpt lat="43.163097390706334" lon="11.391502574188353"><ele>278.4285714285714</ele><time>2026-04-11T10:11:25.999Z</time></trkpt><trkpt lat="43.16302117783086" lon="11.391524264337992"><ele>279.1428571428571</ele><time>2026-04-11T10:11:27.999Z</time></trkpt><trkpt lat="43.16294734708842" lon="11.391537359252903"><ele>279.85714285714283</ele><time>2026-04-11T10:11:29.999Z</time></trkpt><trkpt lat="43.16287537771415" lon="11.391553028878066"><ele>280.57142857142856</ele><time>2026-04-11T10:11:31.999Z</time></trkpt><trkpt lat="43.1628040333848" lon="11.391568433585611"><ele>281.2857142857143</ele><time>2026-04-11T10:11:33.999Z</time></trkpt><trkpt lat="43.16273511999566" lon="11.391582490919797"><ele>282.0</ele><time>2026-04-11T10:11:35.999Z</time></trkpt><trkpt lat="43.16267028913532" lon="11.391591697110647"><ele>282.0</ele><time>2026-04-11T10:11:37.999Z</time></trkpt><trkpt lat="43.16259982508409" lon="11.391599820506958"><ele>282.0</ele><time>2026-04-11T10:11:39.999Z</time></trkpt><trkpt lat="43.16253091023175" lon="11.391610738010808"><ele>282.0</ele><time>2026-04-11T10:11:42.999Z</time></trkpt><trkpt lat="43.16244133591414" lon="11.391624871651471"><ele>282.0</ele><time>2026-04-11T10:11:45.998Z</time></trkpt><trkpt lat="43.162338275109235" lon="11.391638311554612"><ele>282.0</ele><time>2026-04-11T10:11:47.998Z</time></trkpt><trkpt lat="43.16224250608827" lon="11.391642481856483"><ele>282.0</ele><time>2026-04-11T10:11:50.998Z</time></trkpt><trkpt lat="43.162173912653756" lon="11.391656819827693"><ele>282.6666666666667</ele><time>2026-04-11T10:11:52.998Z</time></trkpt><trkpt lat="43.162103627803965" lon="11.391672753071608"><ele>283.3333333333333</ele><time>2026-04-11T10:11:54.998Z</time></trkpt><trkpt lat="43.162026316706346" lon="11.391695318181805"><ele>284.0</ele><time>2026-04-11T10:11:56.998Z</time></trkpt><trkpt lat="43.16194872824936" lon="11.391734738275755"><ele>284.66666666666663</ele><time>2026-04-11T10:11:58.998Z</time></trkpt><trkpt lat="43.16187253097532" lon="11.391796173620756"><ele>285.3333333333333</ele><time>2026-04-11T10:12:00.998Z</time></trkpt><trkpt lat="43.161800421580566" lon="11.391887822172679"><ele>286.0</ele><time>2026-04-11T10:12:02.998Z</time></trkpt><trkpt lat="43.16174629561433" lon="11.392013481631144"><ele>286.0</ele><time>2026-04-11T10:12:04.998Z</time></trkpt><trkpt lat="43.161701510325166" lon="11.392159400982187"><ele>286.0</ele><time>2026-04-11T10:12:06.998Z</time></trkpt><trkpt lat="43.16165725875696" lon="11.392306893878523"><ele>286.0</ele><time>2026-04-11T10:12:08.998Z</time></trkpt><trkpt lat="43.161615104710066" lon="11.392461068977212"><ele>286.0</ele><time>2026-04-11T10:12:10.998Z</time></trkpt><trkpt lat="43.16156678935691" lon="11.392618533654316"><ele>285.4285714285714</ele><time>2026-04-11T10:12:12.998Z</time></trkpt><trkpt lat="43.16154043746911" lon="11.392698123308172"><ele>284.85714285714283</ele><time>2026-04-11T10:12:13.998Z</time></trkpt><trkpt lat="43.16150678081378" lon="11.392774735158259"><ele>284.2857142857143</ele><time>2026-04-11T10:12:14.998Z</time></trkpt><trkpt lat="43.161463827686525" lon="11.392842432155245"><ele>283.71428571428567</ele><time>2026-04-11T10:12:15.998Z</time></trkpt><trkpt lat="43.16141135372765" lon="11.392902670423064"><ele>283.1428571428571</ele><time>2026-04-11T10:12:16.998Z</time></trkpt><trkpt lat="43.16135929958856" lon="11.392962261655017"><ele>282.57142857142856</ele><time>2026-04-11T10:12:17.998Z</time></trkpt><trkpt lat="43.161302759060696" lon="11.393013692335586"><ele>282.0</ele><time>2026-04-11T10:12:18.998Z</time></trkpt><trkpt lat="43.16124077005731" lon="11.39305537660821"><ele>281.57142857142856</ele><time>2026-04-11T10:12:19.998Z</time></trkpt><trkpt lat="43.16117903177003" lon="11.393090785065404"><ele>281.1428571428571</ele><time>2026-04-11T10:12:20.998Z</time></trkpt><trkpt lat="43.161116108047544" lon="11.393119911794207"><ele>280.71428571428567</ele><time>2026-04-11T10:12:21.998Z</time></trkpt><trkpt lat="43.16105194537393" lon="11.393144680105921"><ele>280.2857142857143</ele><time>2026-04-11T10:12:22.998Z</time></trkpt><trkpt lat="43.16098788415684" lon="11.393171705269886"><ele>279.85714285714283</ele><time>2026-04-11T10:12:23.998Z</time></trkpt><trkpt lat="43.16092402171247" lon="11.393197475128634"><ele>279.4285714285714</ele><time>2026-04-11T10:12:24.998Z</time></trkpt><trkpt lat="43.160860148197436" lon="11.39322726784299"><ele>279.0</ele><time>2026-04-11T10:12:25.998Z</time></trkpt><trkpt lat="43.16079669255905" lon="11.393256690011452"><ele>279.0</ele><time>2026-04-11T10:12:26.998Z</time></trkpt><trkpt lat="43.16073396969607" lon="11.393282826016941"><ele>279.0</ele><time>2026-04-11T10:12:27.998Z</time></trkpt><trkpt lat="43.16061870885071" lon="11.39332780373947"><ele>279.0</ele><time>2026-04-11T10:12:29.998Z</time></trkpt><trkpt lat="43.16050579283453" lon="11.393372213071958"><ele>279.0</ele><time>2026-04-11T10:12:31.998Z</time></trkpt><trkpt lat="43.16039417366516" lon="11.39341593381177"><ele>279.0</ele><time>2026-04-11T10:12:33.997Z</time></trkpt><trkpt lat="43.16029341436422" lon="11.39346852465721"><ele>278.59999999999997</ele><time>2026-04-11T10:12:35.997Z</time></trkpt><trkpt lat="43.160190482010165" lon="11.393504603144336"><ele>278.2</ele><time>2026-04-11T10:12:38Z</time></trkpt><trkpt lat="43.16009018649895" lon="11.393536830315764"><ele>277.79999999999995</ele><time>2026-04-11T10:12:40Z</time></trkpt><trkpt lat="43.159996917544575" lon="11.393587648136174"><ele>277.4</ele><time>2026-04-11T10:12:42Z</time></trkpt><trkpt lat="43.15990367938526" lon="11.393642862180975"><ele>277.0</ele><time>2026-04-11T10:12:44Z</time></trkpt><trkpt lat="43.159814798296146" lon="11.393703237494131"><ele>276.8</ele><time>2026-04-11T10:12:46Z</time></trkpt><trkpt lat="43.1597256142635" lon="11.393762777887364"><ele>276.6</ele><time>2026-04-11T10:12:48Z</time></trkpt><trkpt lat="43.159637395211874" lon="11.393808034363154"><ele>276.40000000000003</ele><time>2026-04-11T10:12:50Z</time></trkpt><trkpt lat="43.15955243275104" lon="11.393873993221145"><ele>276.2</ele><time>2026-04-11T10:12:52Z</time></trkpt><trkpt lat="43.15947470193149" lon="11.393957565197205"><ele>276.0</ele><time>2026-04-11T10:12:54Z</time></trkpt><trkpt lat="43.15939345079822" lon="11.394040281431137"><ele>276.0</ele><time>2026-04-11T10:12:56Z</time></trkpt><trkpt lat="43.15930513822615" lon="11.394121242537457"><ele>276.0</ele><time>2026-04-11T10:12:58Z</time></trkpt><trkpt lat="43.159224232106446" lon="11.394228004471676"><ele>276.0</ele><time>2026-04-11T10:13:00Z</time></trkpt><trkpt lat="43.15915333722909" lon="11.394331371605778"><ele>276.0</ele><time>2026-04-11T10:13:01.999Z</time></trkpt><trkpt lat="43.159096870258004" lon="11.39439222161916"><ele>276.0</ele><time>2026-04-11T10:13:04.999Z</time></trkpt><trkpt lat="43.15903524595647" lon="11.394472054274313"><ele>276.5</ele><time>2026-04-11T10:13:07.999Z</time></trkpt><trkpt lat="43.158982809248414" lon="11.394571358689813"><ele>277.0</ele><time>2026-04-11T10:13:11.999Z</time></trkpt><trkpt lat="43.15894243096922" lon="11.394651288150845"><ele>277.5</ele><time>2026-04-11T10:13:13.999Z</time></trkpt><trkpt lat="43.15889436988374" lon="11.394740157392468"><ele>278.0</ele><time>2026-04-11T10:13:15.999Z</time></trkpt><trkpt lat="43.15885022528246" lon="11.394843140084213"><ele>278.5</ele><time>2026-04-11T10:13:17.999Z</time></trkpt><trkpt lat="43.15880636219405" lon="11.394944596979482"><ele>279.0</ele><time>2026-04-11T10:13:19.999Z</time></trkpt><trkpt lat="43.1587805383054" lon="11.39506729073854"><ele>279.0</ele><time>2026-04-11T10:13:21.999Z</time></trkpt><trkpt lat="43.15875386877616" lon="11.395217691816516"><ele>279.0</ele><time>2026-04-11T10:13:23.999Z</time></trkpt><trkpt lat="43.15873672467936" lon="11.39530328939943"><ele>279.0</ele><time>2026-04-11T10:13:24.999Z</time></trkpt><trkpt lat="43.15872513857265" lon="11.395396490550233"><ele>279.0</ele><time>2026-04-11T10:13:25.999Z</time></trkpt><trkpt lat="43.158716497991605" lon="11.395493062358764"><ele>279.0</ele><time>2026-04-11T10:13:26.999Z</time></trkpt><trkpt lat="43.15871248649146" lon="11.395592382370232"><ele>279.0</ele><time>2026-04-11T10:13:27.999Z</time></trkpt><trkpt lat="43.15870899194384" lon="11.395692992316826"><ele>279.0</ele><time>2026-04-11T10:13:28.999Z</time></trkpt><trkpt lat="43.15870711644991" lon="11.39579447148959"><ele>279.0</ele><time>2026-04-11T10:13:29.999Z</time></trkpt><trkpt lat="43.15870735522004" lon="11.395895764302407"><ele>279.0</ele><time>2026-04-11T10:13:30.999Z</time></trkpt><trkpt lat="43.15866791685109" lon="11.395995549834412"><ele>279.0</ele><time>2026-04-11T10:13:31.999Z</time></trkpt><trkpt lat="43.15866643639774" lon="11.396096870937086"><ele>279.0</ele><time>2026-04-11T10:13:32.999Z</time></trkpt><trkpt lat="43.15870138537961" lon="11.396201947553926"><ele>279.0</ele><time>2026-04-11T10:13:33.999Z</time></trkpt><trkpt lat="43.15870022856879" lon="11.396304654717868"><ele>279.1666666666667</ele><time>2026-04-11T10:13:34.999Z</time></trkpt><trkpt lat="43.15869998764302" lon="11.396408182739263"><ele>279.3333333333333</ele><time>2026-04-11T10:13:35.999Z</time></trkpt><trkpt lat="43.15869993354074" lon="11.39651127293379"><ele>279.5</ele><time>2026-04-11T10:13:36.999Z</time></trkpt><trkpt lat="43.15869701483186" lon="11.396613324921532"><ele>279.66666666666663</ele><time>2026-04-11T10:13:37.999Z</time></trkpt><trkpt lat="43.15869355817734" lon="11.396715902824115"><ele>279.8333333333333</ele><time>2026-04-11T10:13:38.999Z</time></trkpt><trkpt lat="43.15869162436507" lon="11.39682036717434"><ele>280.0</ele><time>2026-04-11T10:13:39.999Z</time></trkpt><trkpt lat="43.158690404610056" lon="11.39692503477664"><ele>280.0</ele><time>2026-04-11T10:13:40.999Z</time></trkpt><trkpt lat="43.15868904042881" lon="11.397029279913951"><ele>280.0</ele><time>2026-04-11T10:13:41.999Z</time></trkpt><trkpt lat="43.15868751074817" lon="11.397135866825334"><ele>280.0</ele><time>2026-04-11T10:13:42.999Z</time></trkpt><trkpt lat="43.15868679152802" lon="11.39724051795618"><ele>280.0</ele><time>2026-04-11T10:13:43.999Z</time></trkpt><trkpt lat="43.15868735057222" lon="11.397347756551854"><ele>280.0</ele><time>2026-04-11T10:13:44.999Z</time></trkpt><trkpt lat="43.15868633507086" lon="11.397453600435188"><ele>280.0</ele><time>2026-04-11T10:13:45.999Z</time></trkpt><trkpt lat="43.15868697339148" lon="11.397561012962676"><ele>280.0</ele><time>2026-04-11T10:13:46.999Z</time></trkpt><trkpt lat="43.15869189913886" lon="11.397665914646012"><ele>280.0</ele><time>2026-04-11T10:13:47.999Z</time></trkpt><trkpt lat="43.15870151797686" lon="11.397769431459714"><ele>280.0</ele><time>2026-04-11T10:13:48.999Z</time></trkpt><trkpt lat="43.158713630582206" lon="11.397867261684928"><ele>280.0</ele><time>2026-04-11T10:13:49.999Z</time></trkpt><trkpt lat="43.1587300527399" lon="11.397963113897088"><ele>280.0</ele><time>2026-04-11T10:13:50.998Z</time></trkpt><trkpt lat="43.15874698857686" lon="11.398056756064763"><ele>280.0</ele><time>2026-04-11T10:13:51.998Z</time></trkpt><trkpt lat="43.15876534708163" lon="11.39814886464982"><ele>280.0</ele><time>2026-04-11T10:13:52.998Z</time></trkpt><trkpt lat="43.15878475229265" lon="11.39823649850246"><ele>280.4</ele><time>2026-04-11T10:13:53.998Z</time></trkpt><trkpt lat="43.15880388123231" lon="11.39832049359437"><ele>280.8</ele><time>2026-04-11T10:13:54.998Z</time></trkpt><trkpt lat="43.158825148813484" lon="11.398404899417956"><ele>281.2</ele><time>2026-04-11T10:13:55.998Z</time></trkpt><trkpt lat="43.15886351092639" lon="11.398567745319587"><ele>281.6</ele><time>2026-04-11T10:13:57.998Z</time></trkpt><trkpt lat="43.15890042330504" lon="11.398720492245115"><ele>282.0</ele><time>2026-04-11T10:13:59.998Z</time></trkpt><trkpt lat="43.15892944415896" lon="11.398879075852946"><ele>282.4</ele><time>2026-04-11T10:14:01.998Z</time></trkpt><trkpt lat="43.15894430106901" lon="11.399032717281305"><ele>282.79999999999995</ele><time>2026-04-11T10:14:03.998Z</time></trkpt><trkpt lat="43.15894719841649" lon="11.399180773173725"><ele>283.2</ele><time>2026-04-11T10:14:05.998Z</time></trkpt><trkpt lat="43.15893261634765" lon="11.399322906479647"><ele>283.59999999999997</ele><time>2026-04-11T10:14:07.998Z</time></trkpt><trkpt lat="43.15889051403855" lon="11.399453522028312"><ele>284.0</ele><time>2026-04-11T10:14:09.998Z</time></trkpt><trkpt lat="43.15881703973767" lon="11.399554333006437"><ele>284.0</ele><time>2026-04-11T10:14:11.998Z</time></trkpt><trkpt lat="43.15873880979182" lon="11.399611503019855"><ele>284.0</ele><time>2026-04-11T10:14:13.998Z</time></trkpt><trkpt lat="43.1586600263582" lon="11.39963144293716"><ele>284.0</ele><time>2026-04-11T10:14:15.998Z</time></trkpt><trkpt lat="43.15858209394344" lon="11.399632571326382"><ele>284.0</ele><time>2026-04-11T10:14:17.998Z</time></trkpt><trkpt lat="43.158507204828744" lon="11.399616650683875"><ele>284.0</ele><time>2026-04-11T10:14:19.998Z</time></trkpt><trkpt lat="43.15843073154958" lon="11.399602598917875"><ele>284.0</ele><time>2026-04-11T10:14:21.998Z</time></trkpt><trkpt lat="43.15835510811626" lon="11.399594944459821"><ele>284.0</ele><time>2026-04-11T10:14:23.998Z</time></trkpt><trkpt lat="43.15828192060744" lon="11.39959612891366"><ele>284.0</ele><time>2026-04-11T10:14:25.998Z</time></trkpt><trkpt lat="43.15820789414592" lon="11.399598651958906"><ele>284.0</ele><time>2026-04-11T10:14:27.998Z</time></trkpt><trkpt lat="43.15813406751135" lon="11.399612799177731"><ele>284.0</ele><time>2026-04-11T10:14:29.998Z</time></trkpt><trkpt lat="43.1580605559676" lon="11.399634800723643"><ele>284.0</ele><time>2026-04-11T10:14:31.998Z</time></trkpt><trkpt lat="43.15799031522457" lon="11.399668048712622"><ele>284.0</ele><time>2026-04-11T10:14:33.998Z</time></trkpt><trkpt lat="43.157925429085374" lon="11.39971819312752"><ele>284.0</ele><time>2026-04-11T10:14:35.998Z</time></trkpt><trkpt lat="43.15786463122618" lon="11.399771565516287"><ele>284.85714285714283</ele><time>2026-04-11T10:14:37.998Z</time></trkpt><trkpt lat="43.15780607667187" lon="11.39982231349618"><ele>285.71428571428567</ele><time>2026-04-11T10:14:39.998Z</time></trkpt><trkpt lat="43.15774911762282" lon="11.399880038503127"><ele>286.57142857142856</ele><time>2026-04-11T10:14:41.997Z</time></trkpt><trkpt lat="43.15768271938803" lon="11.399927979246975"><ele>287.42857142857144</ele><time>2026-04-11T10:14:44Z</time></trkpt><trkpt lat="43.157620183757935" lon="11.399982718549458"><ele>288.28571428571433</ele><time>2026-04-11T10:14:46Z</time></trkpt><trkpt lat="43.157550606694734" lon="11.40003487731791"><ele>289.14285714285717</ele><time>2026-04-11T10:14:48Z</time></trkpt><trkpt lat="43.157484544196066" lon="11.40008678694588"><ele>290.0</ele><time>2026-04-11T10:14:50Z</time></trkpt><trkpt lat="43.157410394183344" lon="11.40012615639327"><ele>290.6666666666667</ele><time>2026-04-11T10:14:52Z</time></trkpt><trkpt lat="43.15733314239477" lon="11.400147665154735"><ele>291.33333333333337</ele><time>2026-04-11T10:14:54Z</time></trkpt><trkpt lat="43.157253858245646" lon="11.400165460683942"><ele>292.0</ele><time>2026-04-11T10:14:56Z</time></trkpt><trkpt lat="43.157172831011046" lon="11.400160500432888"><ele>292.6666666666667</ele><time>2026-04-11T10:14:58Z</time></trkpt><trkpt lat="43.157092404654236" lon="11.400139634895249"><ele>293.3333333333333</ele><time>2026-04-11T10:15:00Z</time></trkpt><trkpt lat="43.15701177286984" lon="11.40011235502355"><ele>294.0</ele><time>2026-04-11T10:15:02Z</time></trkpt><trkpt lat="43.15693005085238" lon="11.400079880080831"><ele>294.0</ele><time>2026-04-11T10:15:04Z</time></trkpt><trkpt lat="43.15684995427857" lon="11.400049219587011"><ele>294.0</ele><time>2026-04-11T10:15:06Z</time></trkpt><trkpt lat="43.15677062172744" lon="11.400019985910568"><ele>294.0</ele><time>2026-04-11T10:15:08Z</time></trkpt><trkpt lat="43.1566921772161" lon="11.39999613507279"><ele>294.0</ele><time>2026-04-11T10:15:09.999Z</time></trkpt><trkpt lat="43.156613077436766" lon="11.39997223266508"><ele>294.0</ele><time>2026-04-11T10:15:11.999Z</time></trkpt><trkpt lat="43.15652832693274" lon="11.399970786973274"><ele>294.0</ele><time>2026-04-11T10:15:13.999Z</time></trkpt><trkpt lat="43.15644549325922" lon="11.39999410174324"><ele>296.59999999999997</ele><time>2026-04-11T10:15:15.999Z</time></trkpt><trkpt lat="43.156372468430625" lon="11.40006020626637"><ele>299.2</ele><time>2026-04-11T10:15:17.999Z</time></trkpt><trkpt lat="43.15631801717661" lon="11.40016042211522"><ele>301.79999999999995</ele><time>2026-04-11T10:15:19.999Z</time></trkpt><trkpt lat="43.156295546774004" lon="11.400290993109488"><ele>304.4</ele><time>2026-04-11T10:15:21.999Z</time></trkpt><trkpt lat="43.156318498458425" lon="11.40043968042333"><ele>307.0</ele><time>2026-04-11T10:15:23.999Z</time></trkpt><trkpt lat="43.15636641839052" lon="11.400593326426659"><ele>307.1428571428571</ele><time>2026-04-11T10:15:25.999Z</time></trkpt><trkpt lat="43.15639969372293" lon="11.400674291704236"><ele>307.2857142857143</ele><time>2026-04-11T10:15:26.999Z</time></trkpt><trkpt lat="43.15643881647028" lon="11.400751004632125"><ele>307.42857142857144</ele><time>2026-04-11T10:15:27.999Z</time></trkpt><trkpt lat="43.156480462813285" lon="11.40083174925328"><ele>307.57142857142856</ele><time>2026-04-11T10:15:28.999Z</time></trkpt><trkpt lat="43.15651886052455" lon="11.40091975796553"><ele>307.7142857142857</ele><time>2026-04-11T10:15:29.999Z</time></trkpt><trkpt lat="43.15655878740908" lon="11.401012682335002"><ele>307.85714285714283</ele><time>2026-04-11T10:15:30.999Z</time></trkpt><trkpt lat="43.15659664291701" lon="11.401108459266577"><ele>308.0</ele><time>2026-04-11T10:15:31.999Z</time></trkpt><trkpt lat="43.15664116599132" lon="11.40120646249673"><ele>303.8</ele><time>2026-04-11T10:15:32.999Z</time></trkpt><trkpt lat="43.1566794186543" lon="11.401314003318955"><ele>299.6</ele><time>2026-04-11T10:15:33.999Z</time></trkpt><trkpt lat="43.15671250873824" lon="11.401429369664985"><ele>295.4</ele><time>2026-04-11T10:15:34.999Z</time></trkpt><trkpt lat="43.15673325205713" lon="11.40155135847187"><ele>291.2</ele><time>2026-04-11T10:15:35.999Z</time></trkpt><trkpt lat="43.15673949893853" lon="11.40167715090403"><ele>287.0</ele><time>2026-04-11T10:15:36.999Z</time></trkpt><trkpt lat="43.15672966296826" lon="11.40180553109563"><ele>286.6</ele><time>2026-04-11T10:15:37.999Z</time></trkpt><trkpt lat="43.15671127714556" lon="11.40192910406105"><ele>286.2</ele><time>2026-04-11T10:15:38.999Z</time></trkpt><trkpt lat="43.156686546951505" lon="11.40205020341624"><ele>285.8</ele><time>2026-04-11T10:15:39.999Z</time></trkpt><trkpt lat="43.15666056011445" lon="11.402171434006227"><ele>285.4</ele><time>2026-04-11T10:15:40.999Z</time></trkpt><trkpt lat="43.15663432559577" lon="11.402295596212323"><ele>285.0</ele><time>2026-04-11T10:15:41.999Z</time></trkpt><trkpt lat="43.15660998122199" lon="11.40241909936508"><ele>284.6</ele><time>2026-04-11T10:15:42.999Z</time></trkpt><trkpt lat="43.1565935213917" lon="11.402546789410117"><ele>284.2</ele><time>2026-04-11T10:15:43.999Z</time></trkpt><trkpt lat="43.15657338089395" lon="11.40267356761382"><ele>283.8</ele><time>2026-04-11T10:15:44.999Z</time></trkpt><trkpt lat="43.15654983200203" lon="11.402800223104501"><ele>283.4</ele><time>2026-04-11T10:15:45.999Z</time></trkpt><trkpt lat="43.156525478643744" lon="11.4029276511626"><ele>283.0</ele><time>2026-04-11T10:15:46.999Z</time></trkpt><trkpt lat="43.156506448234694" lon="11.40305944467971"><ele>286.0</ele><time>2026-04-11T10:15:47.999Z</time></trkpt><trkpt lat="43.15649182347581" lon="11.403196028733364"><ele>289.0</ele><time>2026-04-11T10:15:48.999Z</time></trkpt><trkpt lat="43.15648020701586" lon="11.403332599741367"><ele>292.0</ele><time>2026-04-11T10:15:49.999Z</time></trkpt><trkpt lat="43.15646972701825" lon="11.403469428006561"><ele>295.0</ele><time>2026-04-11T10:15:50.999Z</time></trkpt><trkpt lat="43.15645975201745" lon="11.403604134497535"><ele>298.0</ele><time>2026-04-11T10:15:51.999Z</time></trkpt><trkpt lat="43.156450035010934" lon="11.403737516671333"><ele>296.8</ele><time>2026-04-11T10:15:52.999Z</time></trkpt><trkpt lat="43.1564404594042" lon="11.403869990132877"><ele>295.6</ele><time>2026-04-11T10:15:53.999Z</time></trkpt><trkpt lat="43.15642996165485" lon="11.404003185136121"><ele>294.4</ele><time>2026-04-11T10:15:54.999Z</time></trkpt><trkpt lat="43.15640949691815" lon="11.404129336071923"><ele>293.2</ele><time>2026-04-11T10:15:55.999Z</time></trkpt><trkpt lat="43.15637113591229" lon="11.404251335752079"><ele>292.0</ele><time>2026-04-11T10:15:56.999Z</time></trkpt><trkpt lat="43.15632273522824" lon="11.404363987333378"><ele>292.0</ele><time>2026-04-11T10:15:57.998Z</time></trkpt><trkpt lat="43.15626152948716" lon="11.404463425971576"><ele>292.0</ele><time>2026-04-11T10:15:58.998Z</time></trkpt><trkpt lat="43.156185300209955" lon="11.404543872718314"><ele>292.0</ele><time>2026-04-11T10:15:59.998Z</time></trkpt><trkpt lat="43.15611159696448" lon="11.40461513609798"><ele>292.0</ele><time>2026-04-11T10:16:00.998Z</time></trkpt><trkpt lat="43.156037020520074" lon="11.404676974901582"><ele>292.0</ele><time>2026-04-11T10:16:01.998Z</time></trkpt><trkpt lat="43.15596354661909" lon="11.404733429534124"><ele>290.8333333333333</ele><time>2026-04-11T10:16:02.998Z</time></trkpt><trkpt lat="43.15589169246209" lon="11.404782877448696"><ele>289.66666666666663</ele><time>2026-04-11T10:16:03.998Z</time></trkpt><trkpt lat="43.15581841537949" lon="11.404820055935295"><ele>288.5</ele><time>2026-04-11T10:16:04.998Z</time></trkpt><trkpt lat="43.155741352139145" lon="11.404832769055679"><ele>287.3333333333333</ele><time>2026-04-11T10:16:05.998Z</time></trkpt><trkpt lat="43.15566450586818" lon="11.404855192424755"><ele>286.1666666666667</ele><time>2026-04-11T10:16:06.998Z</time></trkpt><trkpt lat="43.15559301805046" lon="11.404867577792427"><ele>285.0</ele><time>2026-04-11T10:16:07.998Z</time></trkpt><trkpt lat="43.15552146430837" lon="11.404875328240927"><ele>285.0</ele><time>2026-04-11T10:16:08.998Z</time></trkpt><trkpt lat="43.15545452178455" lon="11.4048848499469"><ele>285.0</ele><time>2026-04-11T10:16:09.998Z</time></trkpt><trkpt lat="43.155385380696245" lon="11.404894312335266"><ele>285.0</ele><time>2026-04-11T10:16:10.998Z</time></trkpt><trkpt lat="43.15531891863099" lon="11.404912734292171"><ele>285.0</ele><time>2026-04-11T10:16:11.998Z</time></trkpt><trkpt lat="43.15525385506184" lon="11.404921992068118"><ele>285.0</ele><time>2026-04-11T10:16:12.998Z</time></trkpt><trkpt lat="43.15518861480528" lon="11.404944386518682"><ele>285.0</ele><time>2026-04-11T10:16:13.998Z</time></trkpt><trkpt lat="43.15507170672288" lon="11.404999985724292"><ele>285.0</ele><time>2026-04-11T10:16:15.998Z</time></trkpt><trkpt lat="43.15495709987195" lon="11.405053384792023"><ele>285.0</ele><time>2026-04-11T10:16:17.998Z</time></trkpt><trkpt lat="43.15484383133262" lon="11.405104593096807"><ele>285.0</ele><time>2026-04-11T10:16:19.998Z</time></trkpt><trkpt lat="43.15473957571537" lon="11.405156024326597"><ele>285.0</ele><time>2026-04-11T10:16:21.998Z</time></trkpt><trkpt lat="43.15463850970324" lon="11.405204994969417"><ele>286.8</ele><time>2026-04-11T10:16:23.998Z</time></trkpt><trkpt lat="43.15454273430372" lon="11.40525526927685"><ele>288.6</ele><time>2026-04-11T10:16:25.998Z</time></trkpt><trkpt lat="43.154454635236945" lon="11.405311164640482"><ele>290.4</ele><time>2026-04-11T10:16:27.998Z</time></trkpt><trkpt lat="43.15437344802868" lon="11.405369403698645"><ele>292.2</ele><time>2026-04-11T10:16:29.998Z</time></trkpt><trkpt lat="43.15429264104352" lon="11.405423150249785"><ele>294.0</ele><time>2026-04-11T10:16:31.998Z</time></trkpt><trkpt lat="43.1542180494186" lon="11.405484854525854"><ele>292.4</ele><time>2026-04-11T10:16:33.998Z</time></trkpt><trkpt lat="43.15413838244967" lon="11.405541005132728"><ele>290.79999999999995</ele><time>2026-04-11T10:16:35.998Z</time></trkpt><trkpt lat="43.154053885038856" lon="11.405585616786484"><ele>289.20000000000005</ele><time>2026-04-11T10:16:37.998Z</time></trkpt><trkpt lat="43.153962592107405" lon="11.405619688397321"><ele>287.6</ele><time>2026-04-11T10:16:39.998Z</time></trkpt><trkpt lat="43.15386760344997" lon="11.405643002578827"><ele>286.0</ele><time>2026-04-11T10:16:41.998Z</time></trkpt><trkpt lat="43.15377230758809" lon="11.405646384396153"><ele>286.0</ele><time>2026-04-11T10:16:43.998Z</time></trkpt><trkpt lat="43.15368201568961" lon="11.405652964552083"><ele>286.0</ele><time>2026-04-11T10:16:45.998Z</time></trkpt><trkpt lat="43.15359286442714" lon="11.405653663857738"><ele>286.0</ele><time>2026-04-11T10:16:47.997Z</time></trkpt><trkpt lat="43.153502307802" lon="11.40566865825909"><ele>286.0</ele><time>2026-04-11T10:16:50Z</time></trkpt><trkpt lat="43.153411549608194" lon="11.405694241871013"><ele>286.0</ele><time>2026-04-11T10:16:52Z</time></trkpt><trkpt lat="43.15332023169563" lon="11.405733325346317"><ele>286.0</ele><time>2026-04-11T10:16:54Z</time></trkpt><trkpt lat="43.153236949387725" lon="11.405793991833132"><ele>286.0</ele><time>2026-04-11T10:16:56Z</time></trkpt><trkpt lat="43.15315766624115" lon="11.405865452651902"><ele>286.0</ele><time>2026-04-11T10:16:58Z</time></trkpt><trkpt lat="43.153082424824305" lon="11.405944724900968"><ele>286.0</ele><time>2026-04-11T10:17:00Z</time></trkpt><trkpt lat="43.15300890299234" lon="11.406025328483988"><ele>286.0</ele><time>2026-04-11T10:17:02Z</time></trkpt><trkpt lat="43.15293283027313" lon="11.406103873383492"><ele>285.40000000000003</ele><time>2026-04-11T10:17:04Z</time></trkpt><trkpt lat="43.152853583673405" lon="11.406180240441673"><ele>284.8</ele><time>2026-04-11T10:17:06Z</time></trkpt><trkpt lat="43.15277202953672" lon="11.406247217548371"><ele>284.20000000000005</ele><time>2026-04-11T10:17:08Z</time></trkpt><trkpt lat="43.15268916899831" lon="11.406312925409832"><ele>283.6</ele><time>2026-04-11T10:17:10Z</time></trkpt><trkpt lat="43.15260285392014" lon="11.406376947086551"><ele>283.0</ele><time>2026-04-11T10:17:12Z</time></trkpt><trkpt lat="43.15250937932606" lon="11.406427223264313"><ele>283.0</ele><time>2026-04-11T10:17:14Z</time></trkpt><trkpt lat="43.15241532445862" lon="11.406473141912175"><ele>283.0</ele><time>2026-04-11T10:17:15.999Z</time></trkpt><trkpt lat="43.15231787061685" lon="11.406511643533197"><ele>283.0</ele><time>2026-04-11T10:17:17.999Z</time></trkpt><trkpt lat="43.15221534441445" lon="11.40653768317068"><ele>283.0</ele><time>2026-04-11T10:17:19.999Z</time></trkpt><trkpt lat="43.15211338181918" lon="11.40656171006276"><ele>283.0</ele><time>2026-04-11T10:17:21.999Z</time></trkpt><trkpt lat="43.15200752555581" lon="11.406574995334445"><ele>283.0</ele><time>2026-04-11T10:17:23.999Z</time></trkpt><trkpt lat="43.15189794311291" lon="11.406581186532371"><ele>283.0</ele><time>2026-04-11T10:17:25.999Z</time></trkpt><trkpt lat="43.151783333972425" lon="11.406589889815118"><ele>283.0</ele><time>2026-04-11T10:17:27.999Z</time></trkpt><trkpt lat="43.15166465245182" lon="11.406602624196516"><ele>283.0</ele><time>2026-04-11T10:17:29.999Z</time></trkpt><trkpt lat="43.15154457398271" lon="11.406615443022636"><ele>283.75</ele><time>2026-04-11T10:17:31.999Z</time></trkpt><trkpt lat="43.151425812196194" lon="11.406635986224144"><ele>284.5</ele><time>2026-04-11T10:17:33.999Z</time></trkpt><trkpt lat="43.151307048992905" lon="11.4066721448692"><ele>285.25</ele><time>2026-04-11T10:17:35.999Z</time></trkpt><trkpt lat="43.15119129992454" lon="11.406705391775677"><ele>286.0</ele><time>2026-04-11T10:17:37.999Z</time></trkpt><trkpt lat="43.151070714164106" lon="11.406743714328874"><ele>285.99999999999994</ele><time>2026-04-11T10:17:39.999Z</time></trkpt><trkpt lat="43.15095162104673" lon="11.406765939996173"><ele>286.0</ele><time>2026-04-11T10:17:41.999Z</time></trkpt><trkpt lat="43.15088729683422" lon="11.406772967911746"><ele>286.0</ele><time>2026-04-11T10:17:42.999Z</time></trkpt><trkpt lat="43.1508224454181" lon="11.406774496992615"><ele>286.0</ele><time>2026-04-11T10:17:43.999Z</time></trkpt><trkpt lat="43.150758492883796" lon="11.406773830712027"><ele>286.0</ele><time>2026-04-11T10:17:44.999Z</time></trkpt><trkpt lat="43.15069430592793" lon="11.406768964593434"><ele>285.99999999999994</ele><time>2026-04-11T10:17:45.999Z</time></trkpt><trkpt lat="43.150628984598505" lon="11.406758520994655"><ele>286.0</ele><time>2026-04-11T10:17:46.999Z</time></trkpt><trkpt lat="43.15056300202151" lon="11.406747206236002"><ele>285.2857142857143</ele><time>2026-04-11T10:17:47.999Z</time></trkpt><trkpt lat="43.150497643565814" lon="11.406732498111804"><ele>284.57142857142856</ele><time>2026-04-11T10:17:48.999Z</time></trkpt><trkpt lat="43.15043263581019" lon="11.406716688146176"><ele>283.8571428571429</ele><time>2026-04-11T10:17:49.999Z</time></trkpt><trkpt lat="43.15036835877458" lon="11.40669334475336"><ele>283.1428571428571</ele><time>2026-04-11T10:17:50.999Z</time></trkpt><trkpt lat="43.15030630174246" lon="11.406667154976015"><ele>282.42857142857144</ele><time>2026-04-11T10:17:51.999Z</time></trkpt><trkpt lat="43.150243597961534" lon="11.406632555019005"><ele>281.7142857142857</ele><time>2026-04-11T10:17:52.999Z</time></trkpt><trkpt lat="43.150186598588185" lon="11.406590325043569"><ele>281.0</ele><time>2026-04-11T10:17:53.999Z</time></trkpt><trkpt lat="43.1501321345371" lon="11.40654227313165"><ele>281.0</ele><time>2026-04-11T10:17:54.999Z</time></trkpt><trkpt lat="43.15008290518344" lon="11.406482057735722"><ele>281.0</ele><time>2026-04-11T10:17:55.999Z</time></trkpt><trkpt lat="43.149996343798115" lon="11.406355507504175"><ele>281.0</ele><time>2026-04-11T10:17:57.999Z</time></trkpt><trkpt lat="43.14994986267617" lon="11.406296657825965"><ele>281.0</ele><time>2026-04-11T10:17:58.999Z</time></trkpt><trkpt lat="43.149900103165976" lon="11.40624379247309"><ele>281.0</ele><time>2026-04-11T10:17:59.999Z</time></trkpt><trkpt lat="43.14979127182989" lon="11.406172714466017"><ele>281.0</ele><time>2026-04-11T10:18:01.999Z</time></trkpt><trkpt lat="43.14972830640253" lon="11.406164171008491"><ele>282.0</ele><time>2026-04-11T10:18:02.999Z</time></trkpt><trkpt lat="43.149604046506504" lon="11.40617566880092"><ele>283.0</ele><time>2026-04-11T10:18:04.999Z</time></trkpt><trkpt lat="43.14949383175917" lon="11.40624239682168"><ele>284.0</ele><time>2026-04-11T10:18:06.999Z</time></trkpt><trkpt lat="43.14940718439277" lon="11.406344278916071"><ele>285.0</ele><time>2026-04-11T10:18:08.998Z</time></trkpt><trkpt lat="43.14933454624081" lon="11.406452768679317"><ele>285.0</ele><time>2026-04-11T10:18:10.998Z</time></trkpt><trkpt lat="43.149259230511944" lon="11.406557382533364"><ele>285.0</ele><time>2026-04-11T10:18:12.998Z</time></trkpt><trkpt lat="43.1491721541449" lon="11.40664163460374"><ele>285.0</ele><time>2026-04-11T10:18:14.998Z</time></trkpt><trkpt lat="43.149064620295356" lon="11.406690300928565"><ele>285.0</ele><time>2026-04-11T10:18:16.998Z</time></trkpt><trkpt lat="43.14894228595503" lon="11.406710130038363"><ele>285.57142857142856</ele><time>2026-04-11T10:18:18.998Z</time></trkpt><trkpt lat="43.14887825894108" lon="11.406717474828845"><ele>286.14285714285717</ele><time>2026-04-11T10:18:19.998Z</time></trkpt><trkpt lat="43.14881090797606" lon="11.406727334215695"><ele>286.7142857142857</ele><time>2026-04-11T10:18:20.998Z</time></trkpt><trkpt lat="43.14874285832391" lon="11.406738799687142"><ele>287.2857142857143</ele><time>2026-04-11T10:18:21.998Z</time></trkpt><trkpt lat="43.14867560373625" lon="11.406757858233435"><ele>287.85714285714283</ele><time>2026-04-11T10:18:22.998Z</time></trkpt><trkpt lat="43.148609048351986" lon="11.406789714518982"><ele>288.42857142857144</ele><time>2026-04-11T10:18:23.998Z</time></trkpt><trkpt lat="43.148544835293755" lon="11.406832277136914"><ele>289.0</ele><time>2026-04-11T10:18:24.998Z</time></trkpt><trkpt lat="43.148482494472866" lon="11.406886147078122"><ele>289.0</ele><time>2026-04-11T10:18:25.998Z</time></trkpt><trkpt lat="43.14842649229867" lon="11.40695441576198"><ele>289.0</ele><time>2026-04-11T10:18:26.998Z</time></trkpt><trkpt lat="43.14837395318239" lon="11.407032918829929"><ele>289.0</ele><time>2026-04-11T10:18:27.998Z</time></trkpt><trkpt lat="43.14832964187346" lon="11.40711769231243"><ele>289.0</ele><time>2026-04-11T10:18:28.998Z</time></trkpt><trkpt lat="43.1482910007261" lon="11.407210143642875"><ele>289.0</ele><time>2026-04-11T10:18:29.998Z</time></trkpt><trkpt lat="43.148251159235905" lon="11.407300869804315"><ele>289.0</ele><time>2026-04-11T10:18:30.998Z</time></trkpt><trkpt lat="43.14820871222681" lon="11.407390331199474"><ele>289.5</ele><time>2026-04-11T10:18:31.998Z</time></trkpt><trkpt lat="43.14816885536878" lon="11.40748010765293"><ele>290.0</ele><time>2026-04-11T10:18:32.998Z</time></trkpt><trkpt lat="43.14812820681841" lon="11.40756853148158"><ele>290.5</ele><time>2026-04-11T10:18:33.998Z</time></trkpt><trkpt lat="43.148088368879264" lon="11.407659246654807"><ele>291.0</ele><time>2026-04-11T10:18:34.998Z</time></trkpt><trkpt lat="43.148046561861676" lon="11.407748570264468"><ele>291.5</ele><time>2026-04-11T10:18:35.998Z</time></trkpt><trkpt lat="43.14800960416281" lon="11.407842743773546"><ele>292.0</ele><time>2026-04-11T10:18:36.998Z</time></trkpt><trkpt lat="43.14797471026083" lon="11.40793945752425"><ele>291.0</ele><time>2026-04-11T10:18:37.998Z</time></trkpt><trkpt lat="43.147945670411744" lon="11.408047307878908"><ele>290.0</ele><time>2026-04-11T10:18:38.998Z</time></trkpt><trkpt lat="43.14792141890826" lon="11.408154358054086"><ele>289.0</ele><time>2026-04-11T10:18:39.998Z</time></trkpt><trkpt lat="43.14790708137006" lon="11.408267396117864"><ele>288.0</ele><time>2026-04-11T10:18:40.998Z</time></trkpt><trkpt lat="43.14789818285795" lon="11.408384260887798"><ele>287.0</ele><time>2026-04-11T10:18:41.998Z</time></trkpt><trkpt lat="43.14789245678446" lon="11.408502310730334"><ele>286.0</ele><time>2026-04-11T10:18:42.998Z</time></trkpt><trkpt lat="43.14788394517331" lon="11.408622642581738"><ele>286.0</ele><time>2026-04-11T10:18:43.998Z</time></trkpt><trkpt lat="43.147871733424395" lon="11.40874497225946"><ele>286.0</ele><time>2026-04-11T10:18:44.998Z</time></trkpt><trkpt lat="43.14785532141854" lon="11.408871898936713"><ele>286.0</ele><time>2026-04-11T10:18:45.998Z</time></trkpt><trkpt lat="43.14783724794634" lon="11.409001948247843"><ele>286.0</ele><time>2026-04-11T10:18:46.998Z</time></trkpt><trkpt lat="43.147821854921354" lon="11.409137184053064"><ele>286.0</ele><time>2026-04-11T10:18:47.998Z</time></trkpt><trkpt lat="43.147803421787536" lon="11.4092702832515"><ele>284.8</ele><time>2026-04-11T10:18:48.998Z</time></trkpt><trkpt lat="43.147783006088204" lon="11.409413886353619"><ele>283.6</ele><time>2026-04-11T10:18:49.998Z</time></trkpt><trkpt lat="43.14775966714495" lon="11.409557108749366"><ele>282.4</ele><time>2026-04-11T10:18:50.998Z</time></trkpt><trkpt lat="43.147733870195744" lon="11.409703087851495"><ele>281.2</ele><time>2026-04-11T10:18:51.998Z</time></trkpt><trkpt lat="43.14770975327619" lon="11.409847199939513"><ele>280.0</ele><time>2026-04-11T10:18:52.998Z</time></trkpt><trkpt lat="43.147679718307415" lon="11.409990131026218"><ele>278.25</ele><time>2026-04-11T10:18:54Z</time></trkpt><trkpt lat="43.14764325430934" lon="11.410130412444246"><ele>276.5</ele><time>2026-04-11T10:18:55Z</time></trkpt><trkpt lat="43.147586417345494" lon="11.410263799826236"><ele>274.75</ele><time>2026-04-11T10:18:56Z</time></trkpt><trkpt lat="43.14750755353494" lon="11.410380768058413"><ele>273.0</ele><time>2026-04-11T10:18:57Z</time></trkpt><trkpt lat="43.14741543413953" lon="11.410482589280358"><ele>271.25</ele><time>2026-04-11T10:18:58Z</time></trkpt><trkpt lat="43.14731538116492" lon="11.410570270341552"><ele>269.5</ele><time>2026-04-11T10:18:59Z</time></trkpt><trkpt lat="43.147211700763364" lon="11.410641064385551"><ele>267.75</ele><time>2026-04-11T10:19:00Z</time></trkpt><trkpt lat="43.14710742197026" lon="11.410700040172543"><ele>266.0</ele><time>2026-04-11T10:19:01Z</time></trkpt><trkpt lat="43.147005983498445" lon="11.410758436677256"><ele>266.0</ele><time>2026-04-11T10:19:02Z</time></trkpt><trkpt lat="43.14690557015591" lon="11.410826452593668"><ele>266.0</ele><time>2026-04-11T10:19:03Z</time></trkpt><trkpt lat="43.14680921721186" lon="11.410905446033567"><ele>266.0</ele><time>2026-04-11T10:19:04Z</time></trkpt><trkpt lat="43.14672148744256" lon="11.411001213658427"><ele>266.0</ele><time>2026-04-11T10:19:05Z</time></trkpt><trkpt lat="43.14664041452368" lon="11.411107667970423"><ele>266.0</ele><time>2026-04-11T10:19:06Z</time></trkpt><trkpt lat="43.14657097982387" lon="11.411226022121234"><ele>265.0</ele><time>2026-04-11T10:19:07Z</time></trkpt><trkpt lat="43.14650729056272" lon="11.41134870583016"><ele>264.0</ele><time>2026-04-11T10:19:08Z</time></trkpt><trkpt lat="43.146437747283834" lon="11.411465383048553"><ele>263.0</ele><time>2026-04-11T10:19:09Z</time></trkpt><trkpt lat="43.14636823986213" lon="11.411582842595216"><ele>262.0</ele><time>2026-04-11T10:19:10Z</time></trkpt><trkpt lat="43.14629711219536" lon="11.411703029135396"><ele>261.0</ele><time>2026-04-11T10:19:11Z</time></trkpt><trkpt lat="43.14622468620072" lon="11.411823338829475"><ele>261.0</ele><time>2026-04-11T10:19:12Z</time></trkpt><trkpt lat="43.14615392475493" lon="11.411949375250135"><ele>261.0</ele><time>2026-04-11T10:19:13Z</time></trkpt><trkpt lat="43.1460870366162" lon="11.412082413469149"><ele>261.0</ele><time>2026-04-11T10:19:14Z</time></trkpt><trkpt lat="43.14602857399009" lon="11.412225018812128"><ele>261.0</ele><time>2026-04-11T10:19:15Z</time></trkpt><trkpt lat="43.145979314979364" lon="11.412378989745317"><ele>259.0</ele><time>2026-04-11T10:19:16Z</time></trkpt><trkpt lat="43.14594179055882" lon="11.412535385099421"><ele>257.0</ele><time>2026-04-11T10:19:17Z</time></trkpt><trkpt lat="43.14591218591263" lon="11.41268268694122"><ele>255.0</ele><time>2026-04-11T10:19:18Z</time></trkpt><trkpt lat="43.14588122414398" lon="11.412828367503048"><ele>253.0</ele><time>2026-04-11T10:19:19Z</time></trkpt><trkpt lat="43.14585245831489" lon="11.412977963674269"><ele>252.75</ele><time>2026-04-11T10:19:20Z</time></trkpt><trkpt lat="43.14581497177813" lon="11.41312959274147"><ele>252.5</ele><time>2026-04-11T10:19:21Z</time></trkpt><trkpt lat="43.14576172600722" lon="11.413277964795986"><ele>252.25</ele><time>2026-04-11T10:19:21.999Z</time></trkpt><trkpt lat="43.14569646085754" lon="11.413416531710629"><ele>252.0</ele><time>2026-04-11T10:19:22.999Z</time></trkpt><trkpt lat="43.1456155378211" lon="11.41354513527334"><ele>250.5</ele><time>2026-04-11T10:19:23.999Z</time></trkpt><trkpt lat="43.14552930955028" lon="11.413667922636035"><ele>249.0</ele><time>2026-04-11T10:19:24.999Z</time></trkpt><trkpt lat="43.145442058752415" lon="11.413786551638958"><ele>247.5</ele><time>2026-04-11T10:19:25.999Z</time></trkpt><trkpt lat="43.1453586961683" lon="11.413900729880469"><ele>246.0</ele><time>2026-04-11T10:19:26.999Z</time></trkpt><trkpt lat="43.14528828839932" lon="11.414017297832729"><ele>245.0</ele><time>2026-04-11T10:19:27.999Z</time></trkpt><trkpt lat="43.145240269102665" lon="11.414154620326036"><ele>244.0</ele><time>2026-04-11T10:19:28.999Z</time></trkpt><trkpt lat="43.14521744155792" lon="11.41430646507772"><ele>243.0</ele><time>2026-04-11T10:19:29.999Z</time></trkpt><trkpt lat="43.14521993466964" lon="11.41446694019595"><ele>242.0</ele><time>2026-04-11T10:19:30.999Z</time></trkpt><trkpt lat="43.14524823460727" lon="11.414628388170753"><ele>240.5</ele><time>2026-04-11T10:19:31.999Z</time></trkpt><trkpt lat="43.145314333891754" lon="11.414775545941088"><ele>239.0</ele><time>2026-04-11T10:19:32.999Z</time></trkpt><trkpt lat="43.14539454178127" lon="11.414910770354686"><ele>237.5</ele><time>2026-04-11T10:19:33.999Z</time></trkpt><trkpt lat="43.14548805346775" lon="11.415032072594025"><ele>236.0</ele><time>2026-04-11T10:19:34.999Z</time></trkpt><trkpt lat="43.14557714317593" lon="11.415154810125554"><ele>236.0</ele><time>2026-04-11T10:19:35.999Z</time></trkpt><trkpt lat="43.14565652901958" lon="11.415289559084995"><ele>236.0</ele><time>2026-04-11T10:19:36.999Z</time></trkpt><trkpt lat="43.145722205916975" lon="11.415437954638461"><ele>236.0</ele><time>2026-04-11T10:19:37.999Z</time></trkpt><trkpt lat="43.14577265211336" lon="11.415604430945534"><ele>236.0</ele><time>2026-04-11T10:19:38.999Z</time></trkpt><trkpt lat="43.14580404801935" lon="11.415776122536343"><ele>236.0</ele><time>2026-04-11T10:19:39.999Z</time></trkpt><trkpt lat="43.14581412605023" lon="11.415956433490566"><ele>236.0</ele><time>2026-04-11T10:19:40.999Z</time></trkpt><trkpt lat="43.14580458118412" lon="11.416138975398137"><ele>236.0</ele><time>2026-04-11T10:19:41.999Z</time></trkpt><trkpt lat="43.14578247265709" lon="11.416318631979994"><ele>236.0</ele><time>2026-04-11T10:19:42.999Z</time></trkpt><trkpt lat="43.145758527676634" lon="11.416500398331282"><ele>236.0</ele><time>2026-04-11T10:19:43.999Z</time></trkpt><trkpt lat="43.1457417701905" lon="11.416684910092314"><ele>236.0</ele><time>2026-04-11T10:19:44.999Z</time></trkpt><trkpt lat="43.14572100457431" lon="11.416870094998693"><ele>236.0</ele><time>2026-04-11T10:19:45.999Z</time></trkpt><trkpt lat="43.14569589245894" lon="11.417057015611643"><ele>236.0</ele><time>2026-04-11T10:19:46.999Z</time></trkpt><trkpt lat="43.14566128304028" lon="11.41724355288542"><ele>231.25</ele><time>2026-04-11T10:19:47.999Z</time></trkpt><trkpt lat="43.14560887338027" lon="11.417418700365662"><ele>226.5</ele><time>2026-04-11T10:19:48.999Z</time></trkpt><trkpt lat="43.14555141767701" lon="11.417599957255176"><ele>221.75</ele><time>2026-04-11T10:19:49.999Z</time></trkpt><trkpt lat="43.145494122103706" lon="11.417779736101021"><ele>217.0</ele><time>2026-04-11T10:19:50.999Z</time></trkpt><trkpt lat="43.145441175916204" lon="11.417959973409085"><ele>216.25</ele><time>2026-04-11T10:19:51.999Z</time></trkpt><trkpt lat="43.14539185866494" lon="11.418145669380374"><ele>215.5</ele><time>2026-04-11T10:19:52.999Z</time></trkpt><trkpt lat="43.145366138220766" lon="11.418335785958597"><ele>214.75</ele><time>2026-04-11T10:19:53.999Z</time></trkpt><trkpt lat="43.145365253309066" lon="11.418536410974509"><ele>214.0</ele><time>2026-04-11T10:19:54.999Z</time></trkpt><trkpt lat="43.14536574111376" lon="11.418729291484276"><ele>213.75</ele><time>2026-04-11T10:19:55.999Z</time></trkpt><trkpt lat="43.14536243802175" lon="11.418921615458528"><ele>213.5</ele><time>2026-04-11T10:19:56.999Z</time></trkpt><trkpt lat="43.1453546541831" lon="11.419113174540495"><ele>213.25</ele><time>2026-04-11T10:19:57.999Z</time></trkpt><trkpt lat="43.14533330655127" lon="11.419306895846514"><ele>213.0</ele><time>2026-04-11T10:19:58.999Z</time></trkpt><trkpt lat="43.14529940788057" lon="11.419494122037685"><ele>212.25</ele><time>2026-04-11T10:19:59.999Z</time></trkpt><trkpt lat="43.14525267351965" lon="11.419680189725138"><ele>211.5</ele><time>2026-04-11T10:20:00.999Z</time></trkpt><trkpt lat="43.145207053889926" lon="11.419863221771775"><ele>210.75</ele><time>2026-04-11T10:20:01.999Z</time></trkpt><trkpt lat="43.14517587538936" lon="11.420031250058159"><ele>210.0</ele><time>2026-04-11T10:20:02.999Z</time></trkpt><trkpt lat="43.145165276367486" lon="11.420182724615188"><ele>210.0</ele><time>2026-04-11T10:20:03.999Z</time></trkpt><trkpt lat="43.14516590113952" lon="11.420325830515917"><ele>210.0</ele><time>2026-04-11T10:20:04.999Z</time></trkpt><trkpt lat="43.145173306830515" lon="11.42045277225254"><ele>210.0</ele><time>2026-04-11T10:20:05.999Z</time></trkpt><trkpt lat="43.145173960498354" lon="11.420556419795954"><ele>210.0</ele><time>2026-04-11T10:20:06.999Z</time></trkpt><trkpt lat="43.145174513916544" lon="11.420724662397063"><ele>210.0</ele><time>2026-04-11T10:20:08.999Z</time></trkpt><trkpt lat="43.14517408972531" lon="11.420886231988952"><ele>209.5</ele><time>2026-04-11T10:20:10.998Z</time></trkpt><trkpt lat="43.14515833369366" lon="11.421010431254135"><ele>209.0</ele><time>2026-04-11T10:20:12.998Z</time></trkpt><trkpt lat="43.14515041102658" lon="11.421101743466794"><ele>208.5</ele><time>2026-04-11T10:20:34.998Z</time></trkpt><trkpt lat="43.14515421803631" lon="11.421196438665408"><ele>208.0</ele><time>2026-04-11T10:20:36.998Z</time></trkpt><trkpt lat="43.145189367848886" lon="11.421296220312476"><ele>207.5</ele><time>2026-04-11T10:20:38.998Z</time></trkpt><trkpt lat="43.145244654097546" lon="11.421391534837278"><ele>207.0</ele><time>2026-04-11T10:20:40.998Z</time></trkpt><trkpt lat="43.14527963845734" lon="11.421504790474538"><ele>206.83333333333334</ele><time>2026-04-11T10:20:42.998Z</time></trkpt><trkpt lat="43.14531671483647" lon="11.421625044159116"><ele>206.66666666666669</ele><time>2026-04-11T10:20:44.998Z</time></trkpt><trkpt lat="43.145346583853545" lon="11.421712960364587"><ele>206.5</ele><time>2026-04-11T10:20:46.998Z</time></trkpt><trkpt lat="43.145354346551905" lon="11.421828136754383"><ele>206.33333333333334</ele><time>2026-04-11T10:20:49.998Z</time></trkpt><trkpt lat="43.145317811378504" lon="11.421929293700003"><ele>206.16666666666669</ele><time>2026-04-11T10:20:52.998Z</time></trkpt><trkpt lat="43.145263394398874" lon="11.421991526630851"><ele>206.0</ele><time>2026-04-11T10:20:56.998Z</time></trkpt><trkpt lat="43.14522724287439" lon="11.422072232866723"><ele>205.99999999999997</ele><time>2026-04-11T10:21:01Z</time></trkpt><trkpt lat="43.145230058807826" lon="11.422159483215717"><ele>206.0</ele><time>2026-04-11T10:30:58.998Z</time></trkpt><trkpt lat="43.145208530116776" lon="11.422074557354424"><ele>206.0</ele><time>2026-04-11T10:42:39Z</time></trkpt><trkpt lat="43.14518838365545" lon="11.421990385037267"><ele>206.0</ele><time>2026-04-11T10:42:44Z</time></trkpt><trkpt lat="43.1452367284363" lon="11.421920726628235"><ele>206.0</ele><time>2026-04-11T10:42:49.999Z</time></trkpt><trkpt lat="43.14531078125271" lon="11.421933333286312"><ele>205.99999999999997</ele><time>2026-04-11T10:42:52.999Z</time></trkpt><trkpt lat="43.1453795745803" lon="11.421939989676149"><ele>206.0</ele><time>2026-04-11T10:42:54.999Z</time></trkpt><trkpt lat="43.14544891235971" lon="11.42201689009073"><ele>205.99999999999997</ele><time>2026-04-11T10:42:57.999Z</time></trkpt><trkpt lat="43.14548224827683" lon="11.422134754892086"><ele>206.0</ele><time>2026-04-11T10:43:00.999Z</time></trkpt><trkpt lat="43.145515875388526" lon="11.422213855179525"><ele>206.0</ele><time>2026-04-11T10:43:02.999Z</time></trkpt><trkpt lat="43.14554005413593" lon="11.422298368396163"><ele>206.0</ele><time>2026-04-11T10:43:04.999Z</time></trkpt><trkpt lat="43.145562631697146" lon="11.422387917128491"><ele>206.0</ele><time>2026-04-11T10:43:06.999Z</time></trkpt><trkpt lat="43.14559774172845" lon="11.422477349791498"><ele>205.99999999999997</ele><time>2026-04-11T10:43:08.999Z</time></trkpt><trkpt lat="43.1456396284235" lon="11.422565736992095"><ele>206.0</ele><time>2026-04-11T10:43:10.999Z</time></trkpt><trkpt lat="43.14566647824801" lon="11.422658883290156"><ele>206.16666666666669</ele><time>2026-04-11T10:43:12.999Z</time></trkpt><trkpt lat="43.14569602162282" lon="11.422746805342312"><ele>206.33333333333334</ele><time>2026-04-11T10:43:14.999Z</time></trkpt><trkpt lat="43.14572967528191" lon="11.42283864422042"><ele>206.5</ele><time>2026-04-11T10:43:16.999Z</time></trkpt><trkpt lat="43.14575816046267" lon="11.422938599612705"><ele>206.66666666666669</ele><time>2026-04-11T10:43:18.999Z</time></trkpt><trkpt lat="43.14579587693066" lon="11.423034721824472"><ele>206.83333333333334</ele><time>2026-04-11T10:43:20.999Z</time></trkpt><trkpt lat="43.14582996713873" lon="11.423139821131496"><ele>207.0</ele><time>2026-04-11T10:43:22.999Z</time></trkpt><trkpt lat="43.145865036999595" lon="11.423239777660886"><ele>207.0</ele><time>2026-04-11T10:43:24.999Z</time></trkpt><trkpt lat="43.1458964878262" lon="11.423340183489815"><ele>207.0</ele><time>2026-04-11T10:43:26.999Z</time></trkpt><trkpt lat="43.145926811512" lon="11.423439284586355"><ele>207.0</ele><time>2026-04-11T10:43:28.999Z</time></trkpt><trkpt lat="43.14594769265102" lon="11.423542480522162"><ele>207.0</ele><time>2026-04-11T10:43:30.999Z</time></trkpt><trkpt lat="43.14596800319296" lon="11.423645158823339"><ele>207.0</ele><time>2026-04-11T10:43:32.999Z</time></trkpt><trkpt lat="43.14597783698432" lon="11.423752358775635"><ele>207.0</ele><time>2026-04-11T10:43:34.999Z</time></trkpt><trkpt lat="43.1459819270889" lon="11.423860732174942"><ele>206.83333333333334</ele><time>2026-04-11T10:43:36.999Z</time></trkpt><trkpt lat="43.14597760181673" lon="11.423966353589682"><ele>206.66666666666669</ele><time>2026-04-11T10:43:38.999Z</time></trkpt><trkpt lat="43.145964981545035" lon="11.424066421208005"><ele>206.5</ele><time>2026-04-11T10:43:40.999Z</time></trkpt><trkpt lat="43.145938811872796" lon="11.424164850747324"><ele>206.33333333333334</ele><time>2026-04-11T10:43:42.999Z</time></trkpt><trkpt lat="43.1459024666607" lon="11.42426507233499"><ele>206.16666666666669</ele><time>2026-04-11T10:43:44.999Z</time></trkpt><trkpt lat="43.1458615647766" lon="11.424365604633062"><ele>206.0</ele><time>2026-04-11T10:43:46.999Z</time></trkpt><trkpt lat="43.14581653791021" lon="11.424466100518913"><ele>206.00000000000003</ele><time>2026-04-11T10:43:48.998Z</time></trkpt><trkpt lat="43.1457692146341" lon="11.424567805008662"><ele>206.0</ele><time>2026-04-11T10:43:50.998Z</time></trkpt><trkpt lat="43.14571477467489" lon="11.424665729925252"><ele>206.0</ele><time>2026-04-11T10:43:52.998Z</time></trkpt><trkpt lat="43.14565723250426" lon="11.424756155697775"><ele>206.0</ele><time>2026-04-11T10:43:54.998Z</time></trkpt><trkpt lat="43.145610641538674" lon="11.424848115931024"><ele>206.00000000000003</ele><time>2026-04-11T10:43:56.998Z</time></trkpt><trkpt lat="43.145581226343936" lon="11.424947957535602"><ele>206.0</ele><time>2026-04-11T10:43:58.998Z</time></trkpt><trkpt lat="43.145567323211196" lon="11.425070319301208"><ele>206.0</ele><time>2026-04-11T10:44:00.998Z</time></trkpt><trkpt lat="43.14558967922877" lon="11.425187287932609"><ele>206.0</ele><time>2026-04-11T10:44:03Z</time></trkpt><trkpt lat="43.145650846383084" lon="11.425265488249684"><ele>206.0</ele><time>2026-04-11T10:44:05Z</time></trkpt><trkpt lat="43.14572987910811" lon="11.425325058844097"><ele>206.0</ele><time>2026-04-11T10:44:07Z</time></trkpt><trkpt lat="43.14581276648254" lon="11.425377022042712"><ele>206.0</ele><time>2026-04-11T10:44:09Z</time></trkpt><trkpt lat="43.14590318598762" lon="11.425424180685605"><ele>207.4</ele><time>2026-04-11T10:44:11Z</time></trkpt><trkpt lat="43.14599817797584" lon="11.425480072476734"><ele>208.8</ele><time>2026-04-11T10:44:13Z</time></trkpt><trkpt lat="43.14608798164511" lon="11.42554731017403"><ele>210.20000000000002</ele><time>2026-04-11T10:44:15Z</time></trkpt><trkpt lat="43.14617274722709" lon="11.425633837634638"><ele>211.60000000000002</ele><time>2026-04-11T10:44:17Z</time></trkpt><trkpt lat="43.14625137809256" lon="11.425728176637561"><ele>213.0</ele><time>2026-04-11T10:44:19Z</time></trkpt><trkpt lat="43.14632640682861" lon="11.42582467667657"><ele>213.0</ele><time>2026-04-11T10:44:21Z</time></trkpt><trkpt lat="43.1464044815343" lon="11.425910976486085"><ele>213.0</ele><time>2026-04-11T10:44:23Z</time></trkpt><trkpt lat="43.14648315225691" lon="11.425999482213896"><ele>213.0</ele><time>2026-04-11T10:44:25Z</time></trkpt><trkpt lat="43.14656449620486" lon="11.426079171543352"><ele>213.0</ele><time>2026-04-11T10:44:27Z</time></trkpt><trkpt lat="43.14664455626544" lon="11.426156155409917"><ele>213.0</ele><time>2026-04-11T10:44:29Z</time></trkpt><trkpt lat="43.1467202422511" lon="11.426228232894124"><ele>212.8</ele><time>2026-04-11T10:44:31Z</time></trkpt><trkpt lat="43.146797644489176" lon="11.42629022231667"><ele>212.60000000000002</ele><time>2026-04-11T10:44:33Z</time></trkpt><trkpt lat="43.14687690574032" lon="11.426352542602846"><ele>212.39999999999998</ele><time>2026-04-11T10:44:35Z</time></trkpt><trkpt lat="43.146958397323345" lon="11.426405633969688"><ele>212.2</ele><time>2026-04-11T10:44:37Z</time></trkpt><trkpt lat="43.147039993364295" lon="11.426465615825311"><ele>212.0</ele><time>2026-04-11T10:44:39Z</time></trkpt><trkpt lat="43.14712376627629" lon="11.426531401487837"><ele>212.0</ele><time>2026-04-11T10:44:41Z</time></trkpt><trkpt lat="43.147201690826655" lon="11.426610751460778"><ele>212.0</ele><time>2026-04-11T10:44:43Z</time></trkpt><trkpt lat="43.14727539297957" lon="11.426697602721928"><ele>212.0</ele><time>2026-04-11T10:44:45Z</time></trkpt><trkpt lat="43.14734527223467" lon="11.426787841657186"><ele>212.0</ele><time>2026-04-11T10:44:47Z</time></trkpt><trkpt lat="43.14741258928553" lon="11.426883084682995"><ele>212.0</ele><time>2026-04-11T10:44:49Z</time></trkpt><trkpt lat="43.147481822560195" lon="11.426970478347593"><ele>211.2</ele><time>2026-04-11T10:44:51Z</time></trkpt><trkpt lat="43.14755328254386" lon="11.42704797728067"><ele>210.39999999999998</ele><time>2026-04-11T10:44:53Z</time></trkpt><trkpt lat="43.147637069690504" lon="11.42711606594672"><ele>209.60000000000002</ele><time>2026-04-11T10:44:55Z</time></trkpt><trkpt lat="43.14773266288101" lon="11.427169706443838"><ele>208.8</ele><time>2026-04-11T10:44:57Z</time></trkpt><trkpt lat="43.147829855756655" lon="11.42720554674316"><ele>208.0</ele><time>2026-04-11T10:44:59Z</time></trkpt><trkpt lat="43.147927382257976" lon="11.427228013863617"><ele>208.0</ele><time>2026-04-11T10:45:00.999Z</time></trkpt><trkpt lat="43.14801709070413" lon="11.427247782693339"><ele>208.0</ele><time>2026-04-11T10:45:02.999Z</time></trkpt><trkpt lat="43.14809699909103" lon="11.42727822456005"><ele>208.0</ele><time>2026-04-11T10:45:04.999Z</time></trkpt><trkpt lat="43.14818331642632" lon="11.427309920459674"><ele>208.0</ele><time>2026-04-11T10:45:06.999Z</time></trkpt><trkpt lat="43.148274386102685" lon="11.42735027803299"><ele>208.0</ele><time>2026-04-11T10:45:08.999Z</time></trkpt><trkpt lat="43.14836591084598" lon="11.42739629278335"><ele>207.4</ele><time>2026-04-11T10:45:10.999Z</time></trkpt><trkpt lat="43.14846690740267" lon="11.427451422702966"><ele>206.8</ele><time>2026-04-11T10:45:12.999Z</time></trkpt><trkpt lat="43.1485763601418" lon="11.427509949971963"><ele>206.2</ele><time>2026-04-11T10:45:14.999Z</time></trkpt><trkpt lat="43.14869047967929" lon="11.427569205345877"><ele>205.6</ele><time>2026-04-11T10:45:16.999Z</time></trkpt><trkpt lat="43.14875003195591" lon="11.427599847428498"><ele>205.0</ele><time>2026-04-11T10:45:17.999Z</time></trkpt><trkpt lat="43.148812119446625" lon="11.427632774403055"><ele>204.99999999999997</ele><time>2026-04-11T10:45:18.999Z</time></trkpt><trkpt lat="43.14887159384331" lon="11.427668227984226"><ele>205.0</ele><time>2026-04-11T10:45:19.999Z</time></trkpt><trkpt lat="43.148937047071826" lon="11.427702236379794"><ele>205.0</ele><time>2026-04-11T10:45:20.999Z</time></trkpt><trkpt lat="43.14900070880201" lon="11.427735946693938"><ele>205.0</ele><time>2026-04-11T10:45:21.999Z</time></trkpt><trkpt lat="43.149119764564965" lon="11.427799932803737"><ele>204.99999999999997</ele><time>2026-04-11T10:45:23.999Z</time></trkpt><trkpt lat="43.149178367457786" lon="11.427840486349382"><ele>205.0</ele><time>2026-04-11T10:45:24.999Z</time></trkpt><trkpt lat="43.14923950952051" lon="11.427884209271832"><ele>204.85714285714286</ele><time>2026-04-11T10:45:25.999Z</time></trkpt><trkpt lat="43.14929899918203" lon="11.427934274504086"><ele>204.7142857142857</ele><time>2026-04-11T10:45:26.999Z</time></trkpt><trkpt lat="43.14935989677765" lon="11.427986922212629"><ele>204.57142857142856</ele><time>2026-04-11T10:45:27.999Z</time></trkpt><trkpt lat="43.149418112573954" lon="11.428047527847331"><ele>204.42857142857144</ele><time>2026-04-11T10:45:28.999Z</time></trkpt><trkpt lat="43.14947481506794" lon="11.428111177032159"><ele>204.28571428571428</ele><time>2026-04-11T10:45:29.999Z</time></trkpt><trkpt lat="43.149532387070806" lon="11.428176708320088"><ele>204.14285714285714</ele><time>2026-04-11T10:45:30.999Z</time></trkpt><trkpt lat="43.14959146818856" lon="11.428243933247732"><ele>204.0</ele><time>2026-04-11T10:45:31.999Z</time></trkpt><trkpt lat="43.14965250932793" lon="11.428308285470372"><ele>203.0</ele><time>2026-04-11T10:45:32.999Z</time></trkpt><trkpt lat="43.1497155608998" lon="11.428371673282872"><ele>202.0</ele><time>2026-04-11T10:45:33.999Z</time></trkpt><trkpt lat="43.14977713781762" lon="11.428434156916754"><ele>201.0</ele><time>2026-04-11T10:45:34.999Z</time></trkpt><trkpt lat="43.149840661228865" lon="11.428498256747305"><ele>200.0</ele><time>2026-04-11T10:45:35.999Z</time></trkpt><trkpt lat="43.149889711005144" lon="11.428587964876083"><ele>199.0</ele><time>2026-04-11T10:45:36.999Z</time></trkpt><trkpt lat="43.14995232860612" lon="11.428654124439632"><ele>198.0</ele><time>2026-04-11T10:45:37.999Z</time></trkpt><trkpt lat="43.1500130178236" lon="11.428723919145336"><ele>198.0</ele><time>2026-04-11T10:45:38.999Z</time></trkpt><trkpt lat="43.15006687184703" lon="11.428801046529982"><ele>198.0</ele><time>2026-04-11T10:45:39.999Z</time></trkpt><trkpt lat="43.15011236327211" lon="11.428890110035033"><ele>198.0</ele><time>2026-04-11T10:45:40.999Z</time></trkpt><trkpt lat="43.15015512744407" lon="11.428987675619124"><ele>198.0</ele><time>2026-04-11T10:45:41.999Z</time></trkpt><trkpt lat="43.150204418135374" lon="11.429079158492677"><ele>198.0</ele><time>2026-04-11T10:45:42.999Z</time></trkpt><trkpt lat="43.15025626599694" lon="11.429169734554696"><ele>198.0</ele><time>2026-04-11T10:45:43.999Z</time></trkpt><trkpt lat="43.15031212991007" lon="11.429260652574678"><ele>196.5</ele><time>2026-04-11T10:45:44.999Z</time></trkpt><trkpt lat="43.15037157214278" lon="11.429349039532871"><ele>195.0</ele><time>2026-04-11T10:45:45.999Z</time></trkpt><trkpt lat="43.150432955739106" lon="11.42943647649123"><ele>193.5</ele><time>2026-04-11T10:45:46.999Z</time></trkpt><trkpt lat="43.15049490680016" lon="11.429518785660761"><ele>192.0</ele><time>2026-04-11T10:45:47.999Z</time></trkpt><trkpt lat="43.15055526776273" lon="11.42959596766155"><ele>190.5</ele><time>2026-04-11T10:45:48.999Z</time></trkpt><trkpt lat="43.15061420028278" lon="11.429666374806569"><ele>189.0</ele><time>2026-04-11T10:45:49.999Z</time></trkpt><trkpt lat="43.15068496004677" lon="11.429717967554037"><ele>189.16666666666666</ele><time>2026-04-11T10:45:50.999Z</time></trkpt><trkpt lat="43.15074571805663" lon="11.429786702254315"><ele>189.33333333333334</ele><time>2026-04-11T10:45:51.999Z</time></trkpt><trkpt lat="43.150814758019756" lon="11.429847068280264"><ele>189.5</ele><time>2026-04-11T10:45:52.999Z</time></trkpt><trkpt lat="43.150876063996854" lon="11.429924591942212"><ele>189.66666666666669</ele><time>2026-04-11T10:45:53.999Z</time></trkpt><trkpt lat="43.15094489899758" lon="11.429987726827413"><ele>189.83333333333334</ele><time>2026-04-11T10:45:54.999Z</time></trkpt><trkpt lat="43.15100917121274" lon="11.430060298630274"><ele>190.0</ele><time>2026-04-11T10:45:55.999Z</time></trkpt><trkpt lat="43.15107107729941" lon="11.430144976814093"><ele>190.0</ele><time>2026-04-11T10:45:56.999Z</time></trkpt><trkpt lat="43.151111245603424" lon="11.430246529770407"><ele>190.0</ele><time>2026-04-11T10:45:57.999Z</time></trkpt><trkpt lat="43.15113131286572" lon="11.430361991524908"><ele>190.0</ele><time>2026-04-11T10:45:58.999Z</time></trkpt><trkpt lat="43.15113641941674" lon="11.430478848650791"><ele>190.0</ele><time>2026-04-11T10:45:59.998Z</time></trkpt><trkpt lat="43.151129750322184" lon="11.430592944318938"><ele>190.0</ele><time>2026-04-11T10:46:00.998Z</time></trkpt><trkpt lat="43.15112005996011" lon="11.430715451830844"><ele>190.0</ele><time>2026-04-11T10:46:01.998Z</time></trkpt><trkpt lat="43.151109909154016" lon="11.430842539953959"><ele>188.6</ele><time>2026-04-11T10:46:02.998Z</time></trkpt><trkpt lat="43.15110025950362" lon="11.43097187394776"><ele>187.2</ele><time>2026-04-11T10:46:03.998Z</time></trkpt><trkpt lat="43.151090813164906" lon="11.43110219481128"><ele>185.8</ele><time>2026-04-11T10:46:04.998Z</time></trkpt><trkpt lat="43.151081418623335" lon="11.431231801041356"><ele>184.4</ele><time>2026-04-11T10:46:05.998Z</time></trkpt><trkpt lat="43.151076099810204" lon="11.431356642276324"><ele>183.0</ele><time>2026-04-11T10:46:06.998Z</time></trkpt><trkpt lat="43.151075253675295" lon="11.431479527779901"><ele>182.0</ele><time>2026-04-11T10:46:07.998Z</time></trkpt><trkpt lat="43.15108097759881" lon="11.431596001948503"><ele>181.0</ele><time>2026-04-11T10:46:09Z</time></trkpt><trkpt lat="43.15109059010308" lon="11.43171837661515"><ele>180.0</ele><time>2026-04-11T10:46:10Z</time></trkpt><trkpt lat="43.15110104687347" lon="11.43183587420302"><ele>179.0</ele><time>2026-04-11T10:46:11Z</time></trkpt><trkpt lat="43.151113384375776" lon="11.431946814952273"><ele>178.0</ele><time>2026-04-11T10:46:12Z</time></trkpt><trkpt lat="43.15112518021718" lon="11.432059009460371"><ele>177.0</ele><time>2026-04-11T10:46:13Z</time></trkpt><trkpt lat="43.151127648024904" lon="11.43217153253147"><ele>176.5</ele><time>2026-04-11T10:46:14Z</time></trkpt><trkpt lat="43.15111615263583" lon="11.432281443674388"><ele>176.0</ele><time>2026-04-11T10:46:15Z</time></trkpt><trkpt lat="43.15110093101784" lon="11.432392710700036"><ele>175.5</ele><time>2026-04-11T10:46:16Z</time></trkpt><trkpt lat="43.15109414817141" lon="11.432506200792917"><ele>175.0</ele><time>2026-04-11T10:46:17Z</time></trkpt><trkpt lat="43.15109935947019" lon="11.432613370495146"><ele>174.5</ele><time>2026-04-11T10:46:18Z</time></trkpt><trkpt lat="43.15112194102446" lon="11.432719670799797"><ele>174.0</ele><time>2026-04-11T10:46:19Z</time></trkpt><trkpt lat="43.1511559202516" lon="11.432819086887887"><ele>174.0</ele><time>2026-04-11T10:46:20Z</time></trkpt><trkpt lat="43.151196103470205" lon="11.432911570823688"><ele>174.0</ele><time>2026-04-11T10:46:21Z</time></trkpt><trkpt lat="43.15125999474226" lon="11.432984610680759"><ele>174.0</ele><time>2026-04-11T10:46:22Z</time></trkpt><trkpt lat="43.15131445360525" lon="11.433066216233941"><ele>174.0</ele><time>2026-04-11T10:46:23Z</time></trkpt><trkpt lat="43.15137368261794" lon="11.43314430808202"><ele>174.0</ele><time>2026-04-11T10:46:24Z</time></trkpt><trkpt lat="43.15143518862022" lon="11.433219739243711"><ele>174.0</ele><time>2026-04-11T10:46:25Z</time></trkpt><trkpt lat="43.15149372413293" lon="11.433283052238023"><ele>174.57142857142856</ele><time>2026-04-11T10:46:26Z</time></trkpt><trkpt lat="43.15155204752649" lon="11.43334087575161"><ele>175.14285714285714</ele><time>2026-04-11T10:46:27Z</time></trkpt><trkpt lat="43.15160993967487" lon="11.433396562994915"><ele>175.71428571428572</ele><time>2026-04-11T10:46:28Z</time></trkpt><trkpt lat="43.151668383810474" lon="11.433443837609342"><ele>176.28571428571428</ele><time>2026-04-11T10:46:29Z</time></trkpt><trkpt lat="43.15172503590975" lon="11.433486050757915"><ele>176.85714285714286</ele><time>2026-04-11T10:46:30Z</time></trkpt><trkpt lat="43.15178441919509" lon="11.433519348304577"><ele>177.42857142857142</ele><time>2026-04-11T10:46:31Z</time></trkpt><trkpt lat="43.15184668951663" lon="11.433539459303642"><ele>178.0</ele><time>2026-04-11T10:46:32Z</time></trkpt><trkpt lat="43.15191356274928" lon="11.433551929010605"><ele>178.0</ele><time>2026-04-11T10:46:33Z</time></trkpt><trkpt lat="43.15198105389967" lon="11.433549105762848"><ele>178.0</ele><time>2026-04-11T10:46:34Z</time></trkpt><trkpt lat="43.15204619788512" lon="11.4335302453608"><ele>178.0</ele><time>2026-04-11T10:46:35Z</time></trkpt><trkpt lat="43.15210934961948" lon="11.43349446066342"><ele>178.0</ele><time>2026-04-11T10:46:36Z</time></trkpt><trkpt lat="43.15216533414034" lon="11.433447093790026"><ele>178.0</ele><time>2026-04-11T10:46:37Z</time></trkpt><trkpt lat="43.152264836287614" lon="11.433343711267629"><ele>178.0</ele><time>2026-04-11T10:46:39Z</time></trkpt><trkpt lat="43.15231224519527" lon="11.433286804017627"><ele>176.60000000000002</ele><time>2026-04-11T10:46:40Z</time></trkpt><trkpt lat="43.15240005215536" lon="11.433173457126085"><ele>175.20000000000002</ele><time>2026-04-11T10:46:42Z</time></trkpt><trkpt lat="43.152478188836355" lon="11.43307506866209"><ele>173.8</ele><time>2026-04-11T10:46:44Z</time></trkpt><trkpt lat="43.15255856926899" lon="11.432992755062813"><ele>172.4</ele><time>2026-04-11T10:46:46Z</time></trkpt><trkpt lat="43.152664365414964" lon="11.43297715021162"><ele>171.0</ele><time>2026-04-11T10:46:48Z</time></trkpt><trkpt lat="43.15274824777291" lon="11.433059823417317"><ele>171.0</ele><time>2026-04-11T10:46:50Z</time></trkpt><trkpt lat="43.15277050442116" lon="11.433180605137258"><ele>171.0</ele><time>2026-04-11T10:46:52Z</time></trkpt><trkpt lat="43.15274450446229" lon="11.433295262119369"><ele>171.0</ele><time>2026-04-11T10:46:54Z</time></trkpt><trkpt lat="43.152681111569144" lon="11.433408498816517"><ele>171.0</ele><time>2026-04-11T10:46:56Z</time></trkpt><trkpt lat="43.15259780276686" lon="11.433520356689407"><ele>171.0</ele><time>2026-04-11T10:46:58Z</time></trkpt><trkpt lat="43.152549640711456" lon="11.433578807731784"><ele>170.99999999999997</ele><time>2026-04-11T10:46:59Z</time></trkpt><trkpt lat="43.15250086302627" lon="11.433636833136207"><ele>171.0</ele><time>2026-04-11T10:47:00Z</time></trkpt><trkpt lat="43.15245155381516" lon="11.433695490802357"><ele>171.0</ele><time>2026-04-11T10:47:01Z</time></trkpt><trkpt lat="43.15240111585964" lon="11.433755930182622"><ele>171.0</ele><time>2026-04-11T10:47:02Z</time></trkpt><trkpt lat="43.15234982289811" lon="11.433817944046618"><ele>171.0</ele><time>2026-04-11T10:47:03Z</time></trkpt><trkpt lat="43.15229731634827" lon="11.43388142520282"><ele>170.99999999999997</ele><time>2026-04-11T10:47:04Z</time></trkpt><trkpt lat="43.15224286731222" lon="11.433947254792832"><ele>171.0</ele><time>2026-04-11T10:47:05Z</time></trkpt><trkpt lat="43.152186959685935" lon="11.43401484787683"><ele>170.5</ele><time>2026-04-11T10:47:06Z</time></trkpt><trkpt lat="43.152129618338435" lon="11.434083713733147"><ele>170.0</ele><time>2026-04-11T10:47:07Z</time></trkpt><trkpt lat="43.15206936275088" lon="11.434154314684466"><ele>169.5</ele><time>2026-04-11T10:47:08Z</time></trkpt><trkpt lat="43.15200795448759" lon="11.434226266220552"><ele>169.0</ele><time>2026-04-11T10:47:08.999Z</time></trkpt><trkpt lat="43.151945917738864" lon="11.434298954125754"><ele>168.5</ele><time>2026-04-11T10:47:09.999Z</time></trkpt><trkpt lat="43.151883337088464" lon="11.434373577469936"><ele>168.0</ele><time>2026-04-11T10:47:10.999Z</time></trkpt><trkpt lat="43.15182347032176" lon="11.434447368890202"><ele>168.0</ele><time>2026-04-11T10:47:11.999Z</time></trkpt><trkpt lat="43.1517666079267" lon="11.43451806896036"><ele>168.0</ele><time>2026-04-11T10:47:12.999Z</time></trkpt><trkpt lat="43.151711579371984" lon="11.434587541598003"><ele>168.0</ele><time>2026-04-11T10:47:13.999Z</time></trkpt><trkpt lat="43.151683236141636" lon="11.434685297625567"><ele>168.0</ele><time>2026-04-11T10:47:14.999Z</time></trkpt><trkpt lat="43.151640191320176" lon="11.434763979172939"><ele>168.0</ele><time>2026-04-11T10:47:15.999Z</time></trkpt><trkpt lat="43.15160515510928" lon="11.434856018430978"><ele>168.0</ele><time>2026-04-11T10:47:16.999Z</time></trkpt><trkpt lat="43.151582073867566" lon="11.434958401430409"><ele>166.5</ele><time>2026-04-11T10:47:17.999Z</time></trkpt><trkpt lat="43.15157015623384" lon="11.435065976916862"><ele>165.0</ele><time>2026-04-11T10:47:18.999Z</time></trkpt><trkpt lat="43.15156966938157" lon="11.435180695937918"><ele>163.5</ele><time>2026-04-11T10:47:19.999Z</time></trkpt><trkpt lat="43.15157804500875" lon="11.435292479961204"><ele>162.0</ele><time>2026-04-11T10:47:20.999Z</time></trkpt><trkpt lat="43.151594154228235" lon="11.435406623685555"><ele>160.5</ele><time>2026-04-11T10:47:21.999Z</time></trkpt><trkpt lat="43.15161327035393" lon="11.435517558704767"><ele>159.0</ele><time>2026-04-11T10:47:22.999Z</time></trkpt><trkpt lat="43.15163008586603" lon="11.435630977647918"><ele>158.66666666666666</ele><time>2026-04-11T10:47:23.999Z</time></trkpt><trkpt lat="43.1516469943939" lon="11.435740132829846"><ele>158.33333333333334</ele><time>2026-04-11T10:47:24.999Z</time></trkpt><trkpt lat="43.15166287688942" lon="11.43584817193488"><ele>158.0</ele><time>2026-04-11T10:47:25.999Z</time></trkpt><trkpt lat="43.151678280425685" lon="11.435955507902593"><ele>157.66666666666669</ele><time>2026-04-11T10:47:26.999Z</time></trkpt><trkpt lat="43.15169525862008" lon="11.43605965665905"><ele>157.33333333333334</ele><time>2026-04-11T10:47:27.999Z</time></trkpt><trkpt lat="43.15171149685955" lon="11.436162522338805"><ele>157.0</ele><time>2026-04-11T10:47:28.999Z</time></trkpt><trkpt lat="43.151726774370246" lon="11.436264004936742"><ele>156.7142857142857</ele><time>2026-04-11T10:47:29.999Z</time></trkpt><trkpt lat="43.15174066978807" lon="11.436362513587113"><ele>156.42857142857142</ele><time>2026-04-11T10:47:30.999Z</time></trkpt><trkpt lat="43.15175420044595" lon="11.436459742783056"><ele>156.14285714285714</ele><time>2026-04-11T10:47:31.999Z</time></trkpt><trkpt lat="43.15176781617126" lon="11.436553540420709"><ele>155.85714285714283</ele><time>2026-04-11T10:47:32.999Z</time></trkpt><trkpt lat="43.15178145749748" lon="11.436646891781958"><ele>155.57142857142856</ele><time>2026-04-11T10:47:33.999Z</time></trkpt><trkpt lat="43.151796909819" lon="11.436736538175346"><ele>155.28571428571428</ele><time>2026-04-11T10:47:34.999Z</time></trkpt><trkpt lat="43.151810295694304" lon="11.436823480314102"><ele>155.0</ele><time>2026-04-11T10:47:35.999Z</time></trkpt><trkpt lat="43.151822493151634" lon="11.436908876369866"><ele>155.0</ele><time>2026-04-11T10:47:36.999Z</time></trkpt><trkpt lat="43.15184761990823" lon="11.437069386415022"><ele>155.0</ele><time>2026-04-11T10:47:38.999Z</time></trkpt><trkpt lat="43.151872170956565" lon="11.43722735924226"><ele>155.0</ele><time>2026-04-11T10:47:40.999Z</time></trkpt><trkpt lat="43.15189536937618" lon="11.437382635037766"><ele>155.0</ele><time>2026-04-11T10:47:42.999Z</time></trkpt><trkpt lat="43.1519161227119" lon="11.43753714355379"><ele>155.2</ele><time>2026-04-11T10:47:44.999Z</time></trkpt><trkpt lat="43.15194025931866" lon="11.437690126739836"><ele>155.4</ele><time>2026-04-11T10:47:46.999Z</time></trkpt><trkpt lat="43.1519659210305" lon="11.43783296080142"><ele>155.6</ele><time>2026-04-11T10:47:48.999Z</time></trkpt><trkpt lat="43.15198935693421" lon="11.437974107409529"><ele>155.8</ele><time>2026-04-11T10:47:50.999Z</time></trkpt><trkpt lat="43.1520101056747" lon="11.438119747781057"><ele>156.0</ele><time>2026-04-11T10:47:52.999Z</time></trkpt><trkpt lat="43.15202456281476" lon="11.438263002493805"><ele>157.0</ele><time>2026-04-11T10:47:54.999Z</time></trkpt><trkpt lat="43.15202615589736" lon="11.438406268262991"><ele>158.0</ele><time>2026-04-11T10:47:56.999Z</time></trkpt><trkpt lat="43.15200770326524" lon="11.438543235119418"><ele>159.0</ele><time>2026-04-11T10:47:58.999Z</time></trkpt><trkpt lat="43.15197741258402" lon="11.438674374675031"><ele>160.0</ele><time>2026-04-11T10:48:00.999Z</time></trkpt><trkpt lat="43.15192887346381" lon="11.4387852396656"><ele>161.0</ele><time>2026-04-11T10:48:02.999Z</time></trkpt><trkpt lat="43.15187075594422" lon="11.43887294939295"><ele>161.42857142857142</ele><time>2026-04-11T10:48:04.999Z</time></trkpt><trkpt lat="43.1518191186911" lon="11.438950549671231"><ele>161.85714285714286</ele><time>2026-04-11T10:48:06.998Z</time></trkpt><trkpt lat="43.151769394418395" lon="11.439024767515681"><ele>162.28571428571428</ele><time>2026-04-11T10:48:08.998Z</time></trkpt><trkpt lat="43.151721311774956" lon="11.439096553418189"><ele>162.71428571428572</ele><time>2026-04-11T10:48:10.998Z</time></trkpt><trkpt lat="43.15167538859643" lon="11.439171837500602"><ele>163.14285714285714</ele><time>2026-04-11T10:48:12.998Z</time></trkpt><trkpt lat="43.151630217919895" lon="11.439246916025343"><ele>163.57142857142856</ele><time>2026-04-11T10:48:15Z</time></trkpt><trkpt lat="43.151586991945926" lon="11.439322178018122"><ele>164.0</ele><time>2026-04-11T10:48:17Z</time></trkpt><trkpt lat="43.15154119649669" lon="11.439395055940162"><ele>163.66666666666666</ele><time>2026-04-11T10:48:19Z</time></trkpt><trkpt lat="43.15149424800618" lon="11.439471653275707"><ele>163.33333333333331</ele><time>2026-04-11T10:48:21Z</time></trkpt><trkpt lat="43.15144671189436" lon="11.439558201096837"><ele>163.0</ele><time>2026-04-11T10:48:23Z</time></trkpt><trkpt lat="43.15139508482275" lon="11.439649399801874"><ele>162.66666666666666</ele><time>2026-04-11T10:48:25Z</time></trkpt><trkpt lat="43.15135001736704" lon="11.439744506921674"><ele>162.33333333333334</ele><time>2026-04-11T10:48:27Z</time></trkpt><trkpt lat="43.15130130047981" lon="11.439835745968324"><ele>162.0</ele><time>2026-04-11T10:48:29Z</time></trkpt><trkpt lat="43.15125723081235" lon="11.439927324535823"><ele>162.0</ele><time>2026-04-11T10:48:31Z</time></trkpt><trkpt lat="43.15121348139539" lon="11.44002397112023"><ele>162.0</ele><time>2026-04-11T10:48:33Z</time></trkpt><trkpt lat="43.151170223857825" lon="11.440124597815384"><ele>162.0</ele><time>2026-04-11T10:48:35Z</time></trkpt><trkpt lat="43.15113038723485" lon="11.440226002615603"><ele>162.0</ele><time>2026-04-11T10:48:37Z</time></trkpt><trkpt lat="43.151095179776696" lon="11.440332544105901"><ele>162.0</ele><time>2026-04-11T10:48:39Z</time></trkpt><trkpt lat="43.15106202389253" lon="11.440421849839273"><ele>162.0</ele><time>2026-04-11T10:48:41Z</time></trkpt><trkpt lat="43.15101426532363" lon="11.440542501770036"><ele>162.2</ele><time>2026-04-11T10:48:43Z</time></trkpt><trkpt lat="43.15095557043345" lon="11.440653113432985"><ele>162.39999999999998</ele><time>2026-04-11T10:48:45Z</time></trkpt><trkpt lat="43.1508839016333" lon="11.440753807774062"><ele>162.60000000000002</ele><time>2026-04-11T10:48:47Z</time></trkpt><trkpt lat="43.15079889818031" lon="11.44084030703991"><ele>162.8</ele><time>2026-04-11T10:48:49Z</time></trkpt><trkpt lat="43.15070881252309" lon="11.440914661556352"><ele>163.0</ele><time>2026-04-11T10:48:51Z</time></trkpt><trkpt lat="43.1506270789402" lon="11.440977351861113"><ele>163.0</ele><time>2026-04-11T10:48:53Z</time></trkpt><trkpt lat="43.150551633238514" lon="11.441035997346027"><ele>163.0</ele><time>2026-04-11T10:48:55Z</time></trkpt><trkpt lat="43.150478277377914" lon="11.441090865292068"><ele>163.0</ele><time>2026-04-11T10:48:57Z</time></trkpt><trkpt lat="43.15040281938767" lon="11.44115032069226"><ele>163.0</ele><time>2026-04-11T10:48:59Z</time></trkpt><trkpt lat="43.15032844261757" lon="11.441207451988072"><ele>163.0</ele><time>2026-04-11T10:49:01Z</time></trkpt><trkpt lat="43.15023944066473" lon="11.441260196878222"><ele>163.0</ele><time>2026-04-11T10:49:03Z</time></trkpt><trkpt lat="43.150161124106894" lon="11.44132296756732"><ele>163.0</ele><time>2026-04-11T10:49:05Z</time></trkpt><trkpt lat="43.15009592049951" lon="11.441380777982907"><ele>163.0</ele><time>2026-04-11T10:49:07Z</time></trkpt><trkpt lat="43.150017452609774" lon="11.441441749317814"><ele>163.0</ele><time>2026-04-11T10:49:09Z</time></trkpt><trkpt lat="43.14993990113515" lon="11.441500758391516"><ele>163.0</ele><time>2026-04-11T10:49:10.999Z</time></trkpt><trkpt lat="43.14986533272036" lon="11.441563418603389"><ele>163.0</ele><time>2026-04-11T10:49:12.999Z</time></trkpt><trkpt lat="43.149786609922664" lon="11.441623368995371"><ele>163.0</ele><time>2026-04-11T10:49:14.999Z</time></trkpt><trkpt lat="43.149707819814914" lon="11.44168545684414"><ele>163.0</ele><time>2026-04-11T10:49:16.999Z</time></trkpt><trkpt lat="43.14963012457108" lon="11.44174837100955"><ele>163.0</ele><time>2026-04-11T10:49:18.999Z</time></trkpt><trkpt lat="43.14955065367207" lon="11.441816330772982"><ele>163.0</ele><time>2026-04-11T10:49:20.999Z</time></trkpt><trkpt lat="43.14947055309405" lon="11.4418767716268"><ele>163.0</ele><time>2026-04-11T10:49:22.999Z</time></trkpt><trkpt lat="43.149389475802764" lon="11.441943029086374"><ele>163.0</ele><time>2026-04-11T10:49:24.999Z</time></trkpt><trkpt lat="43.14930939262197" lon="11.442008033791888"><ele>163.0</ele><time>2026-04-11T10:49:26.999Z</time></trkpt><trkpt lat="43.14922772498768" lon="11.442073924418759"><ele>163.0</ele><time>2026-04-11T10:49:28.999Z</time></trkpt><trkpt lat="43.149150019774126" lon="11.44213933700192"><ele>163.0</ele><time>2026-04-11T10:49:30.999Z</time></trkpt><trkpt lat="43.14907265335278" lon="11.442202618223149"><ele>163.0</ele><time>2026-04-11T10:49:32.999Z</time></trkpt><trkpt lat="43.14899615109774" lon="11.442263452419008"><ele>163.0</ele><time>2026-04-11T10:49:34.999Z</time></trkpt><trkpt lat="43.14891859739357" lon="11.442335895492016"><ele>163.2</ele><time>2026-04-11T10:49:36.999Z</time></trkpt><trkpt lat="43.14884075781765" lon="11.442402800498343"><ele>163.4</ele><time>2026-04-11T10:49:38.999Z</time></trkpt><trkpt lat="43.148769827015414" lon="11.442488207936833"><ele>163.6</ele><time>2026-04-11T10:49:40.999Z</time></trkpt><trkpt lat="43.14870381825228" lon="11.442570486682577"><ele>163.79999999999998</ele><time>2026-04-11T10:49:42.999Z</time></trkpt><trkpt lat="43.14864105740939" lon="11.442662650011636"><ele>164.0</ele><time>2026-04-11T10:49:44.999Z</time></trkpt><trkpt lat="43.148584796954076" lon="11.442759316850406"><ele>164.0</ele><time>2026-04-11T10:49:46.999Z</time></trkpt><trkpt lat="43.14852166141928" lon="11.442844536426858"><ele>164.0</ele><time>2026-04-11T10:49:48.999Z</time></trkpt><trkpt lat="43.14846573486451" lon="11.442936661320672"><ele>164.0</ele><time>2026-04-11T10:49:50.999Z</time></trkpt><trkpt lat="43.148406826253805" lon="11.443024214542795"><ele>164.0</ele><time>2026-04-11T10:49:52.999Z</time></trkpt><trkpt lat="43.148344352904935" lon="11.443114061795091"><ele>164.0</ele><time>2026-04-11T10:49:54.999Z</time></trkpt><trkpt lat="43.14828294714404" lon="11.443205415055422"><ele>164.0</ele><time>2026-04-11T10:49:56.999Z</time></trkpt><trkpt lat="43.1482198823496" lon="11.443297657940844"><ele>164.0</ele><time>2026-04-11T10:49:58.999Z</time></trkpt><trkpt lat="43.14816246269223" lon="11.443394818649274"><ele>164.0</ele><time>2026-04-11T10:50:00.999Z</time></trkpt><trkpt lat="43.148109361770864" lon="11.443499968108153"><ele>164.0</ele><time>2026-04-11T10:50:02.999Z</time></trkpt><trkpt lat="43.14807372689194" lon="11.443622741405983"><ele>164.0</ele><time>2026-04-11T10:50:04.999Z</time></trkpt><trkpt lat="43.14806043394347" lon="11.44374821936203"><ele>164.0</ele><time>2026-04-11T10:50:06.999Z</time></trkpt><trkpt lat="43.14806996738048" lon="11.443867897742797"><ele>164.0</ele><time>2026-04-11T10:50:08.998Z</time></trkpt><trkpt lat="43.148100054426116" lon="11.443987879115355"><ele>164.0</ele><time>2026-04-11T10:50:10.998Z</time></trkpt><trkpt lat="43.1481484052527" lon="11.444098501960937"><ele>164.0</ele><time>2026-04-11T10:50:12.998Z</time></trkpt><trkpt lat="43.14819268934285" lon="11.444216008437781"><ele>164.0</ele><time>2026-04-11T10:50:14.998Z</time></trkpt><trkpt lat="43.148224816786204" lon="11.44435254651937"><ele>164.0</ele><time>2026-04-11T10:50:16.998Z</time></trkpt><trkpt lat="43.14822790637218" lon="11.444499910251796"><ele>165.75</ele><time>2026-04-11T10:50:18.998Z</time></trkpt><trkpt lat="43.14819059440883" lon="11.444647918785105"><ele>167.5</ele><time>2026-04-11T10:50:21Z</time></trkpt><trkpt lat="43.1481138105378" lon="11.444758126705896"><ele>169.25</ele><time>2026-04-11T10:50:23Z</time></trkpt><trkpt lat="43.148008592164" lon="11.44481740616524"><ele>171.0</ele><time>2026-04-11T10:50:25Z</time></trkpt><trkpt lat="43.147896459176934" lon="11.444813084289835"><ele>171.0</ele><time>2026-04-11T10:50:27Z</time></trkpt><trkpt lat="43.14779295260635" lon="11.444777595331072"><ele>171.0</ele><time>2026-04-11T10:50:29Z</time></trkpt><trkpt lat="43.14769714050523" lon="11.444731972806778"><ele>171.0</ele><time>2026-04-11T10:50:31Z</time></trkpt><trkpt lat="43.14760834116558" lon="11.444687905726834"><ele>171.0</ele><time>2026-04-11T10:50:33Z</time></trkpt><trkpt lat="43.147515920761506" lon="11.44464591682788"><ele>171.0</ele><time>2026-04-11T10:50:35Z</time></trkpt><trkpt lat="43.147420294183455" lon="11.444604878832157"><ele>169.20000000000002</ele><time>2026-04-11T10:50:37Z</time></trkpt><trkpt lat="43.147326048029775" lon="11.444579974261224"><ele>167.4</ele><time>2026-04-11T10:50:39Z</time></trkpt><trkpt lat="43.14723509452289" lon="11.444557480041938"><ele>165.6</ele><time>2026-04-11T10:50:41Z</time></trkpt><trkpt lat="43.14714072328812" lon="11.444539660719835"><ele>163.8</ele><time>2026-04-11T10:50:43Z</time></trkpt><trkpt lat="43.147044332527734" lon="11.444526655625392"><ele>162.0</ele><time>2026-04-11T10:50:45Z</time></trkpt><trkpt lat="43.14694385526107" lon="11.444520166182917"><ele>162.0</ele><time>2026-04-11T10:50:47Z</time></trkpt><trkpt lat="43.146845058726896" lon="11.444520985477553"><ele>162.0</ele><time>2026-04-11T10:50:49Z</time></trkpt><trkpt lat="43.146746436782315" lon="11.44452880666097"><ele>162.0</ele><time>2026-04-11T10:50:51Z</time></trkpt><trkpt lat="43.14664662257984" lon="11.444540169864974"><ele>162.0</ele><time>2026-04-11T10:50:53Z</time></trkpt><trkpt lat="43.14654930475624" lon="11.44455970162857"><ele>162.0</ele><time>2026-04-11T10:50:55Z</time></trkpt><trkpt lat="43.146456193102296" lon="11.444589831985331"><ele>162.0</ele><time>2026-04-11T10:50:57Z</time></trkpt><trkpt lat="43.14636757130093" lon="11.444637054759413"><ele>162.0</ele><time>2026-04-11T10:50:59Z</time></trkpt><trkpt lat="43.14629331285343" lon="11.444713028121079"><ele>162.0</ele><time>2026-04-11T10:51:01Z</time></trkpt><trkpt lat="43.146232278608565" lon="11.444804952657208"><ele>162.0</ele><time>2026-04-11T10:51:03Z</time></trkpt><trkpt lat="43.146184028711275" lon="11.444915485838722"><ele>162.0</ele><time>2026-04-11T10:51:05Z</time></trkpt><trkpt lat="43.14614848449894" lon="11.445040820997296"><ele>162.0</ele><time>2026-04-11T10:51:07Z</time></trkpt><trkpt lat="43.14612119593421" lon="11.445170741536815"><ele>162.0</ele><time>2026-04-11T10:51:09Z</time></trkpt><trkpt lat="43.146119025295214" lon="11.44530705985546"><ele>162.0</ele><time>2026-04-11T10:51:11Z</time></trkpt><trkpt lat="43.14613576452271" lon="11.445442861604425"><ele>162.0</ele><time>2026-04-11T10:51:13Z</time></trkpt><trkpt lat="43.146164806843764" lon="11.44556947765623"><ele>162.0</ele><time>2026-04-11T10:51:14.999Z</time></trkpt><trkpt lat="43.14619535190694" lon="11.445695425978236"><ele>161.8</ele><time>2026-04-11T10:51:16.999Z</time></trkpt><trkpt lat="43.146226640360105" lon="11.445823874887454"><ele>161.6</ele><time>2026-04-11T10:51:18.999Z</time></trkpt><trkpt lat="43.14625502026065" lon="11.445952710842656"><ele>161.4</ele><time>2026-04-11T10:51:20.999Z</time></trkpt><trkpt lat="43.14628812260407" lon="11.44608383177148"><ele>161.20000000000002</ele><time>2026-04-11T10:51:22.999Z</time></trkpt><trkpt lat="43.14632397841506" lon="11.44621337099701"><ele>161.0</ele><time>2026-04-11T10:51:24.999Z</time></trkpt><trkpt lat="43.14635893390133" lon="11.44634703677921"><ele>162.0</ele><time>2026-04-11T10:51:26.999Z</time></trkpt><trkpt lat="43.146393300203336" lon="11.446478797796155"><ele>163.0</ele><time>2026-04-11T10:51:28.999Z</time></trkpt><trkpt lat="43.14642526419575" lon="11.446616212936535"><ele>164.0</ele><time>2026-04-11T10:51:30.999Z</time></trkpt><trkpt lat="43.146436260976266" lon="11.446761581649088"><ele>165.0</ele><time>2026-04-11T10:51:32.999Z</time></trkpt><trkpt lat="43.146385082722695" lon="11.446890505956283"><ele>166.0</ele><time>2026-04-11T10:51:34.999Z</time></trkpt><trkpt lat="43.14628084626943" lon="11.446947622971365"><ele>166.0</ele><time>2026-04-11T10:51:36.999Z</time></trkpt><trkpt lat="43.14617433051048" lon="11.446928748662383"><ele>166.0</ele><time>2026-04-11T10:51:38.999Z</time></trkpt><trkpt lat="43.14606945349754" lon="11.446898450495533"><ele>166.0</ele><time>2026-04-11T10:51:40.999Z</time></trkpt><trkpt lat="43.145968885144505" lon="11.446880247909158"><ele>166.0</ele><time>2026-04-11T10:51:42.999Z</time></trkpt><trkpt lat="43.14587103732113" lon="11.44687237180536"><ele>166.0</ele><time>2026-04-11T10:51:44.999Z</time></trkpt><trkpt lat="43.1457710247786" lon="11.44687821698256"><ele>165.20000000000002</ele><time>2026-04-11T10:51:46.999Z</time></trkpt><trkpt lat="43.14567018431051" lon="11.446889113318534"><ele>164.4</ele><time>2026-04-11T10:51:48.999Z</time></trkpt><trkpt lat="43.145573029017285" lon="11.446906020950234"><ele>163.6</ele><time>2026-04-11T10:51:50.999Z</time></trkpt><trkpt lat="43.14547936220738" lon="11.446944422659412"><ele>162.8</ele><time>2026-04-11T10:51:52.999Z</time></trkpt><trkpt lat="43.145391737165404" lon="11.447000635904967"><ele>162.0</ele><time>2026-04-11T10:51:54.999Z</time></trkpt><trkpt lat="43.14531627129425" lon="11.447071765489564"><ele>163.2</ele><time>2026-04-11T10:51:56.999Z</time></trkpt><trkpt lat="43.14524227187731" lon="11.447151810879916"><ele>164.39999999999998</ele><time>2026-04-11T10:51:58.999Z</time></trkpt><trkpt lat="43.14516745681819" lon="11.4472405345191"><ele>165.60000000000002</ele><time>2026-04-11T10:52:00.999Z</time></trkpt><trkpt lat="43.145092095970845" lon="11.447334710910045"><ele>166.8</ele><time>2026-04-11T10:52:02.999Z</time></trkpt><trkpt lat="43.1450168122042" lon="11.447424648155653"><ele>168.0</ele><time>2026-04-11T10:52:04.999Z</time></trkpt><trkpt lat="43.1449597569733" lon="11.447518189058616"><ele>168.0</ele><time>2026-04-11T10:52:06.999Z</time></trkpt><trkpt lat="43.14492001706349" lon="11.44762713161524"><ele>168.0</ele><time>2026-04-11T10:52:08.998Z</time></trkpt><trkpt lat="43.14491003717121" lon="11.447752899663719"><ele>168.0</ele><time>2026-04-11T10:52:10.998Z</time></trkpt><trkpt lat="43.14489636816113" lon="11.447873355261581"><ele>168.0</ele><time>2026-04-11T10:52:12.998Z</time></trkpt><trkpt lat="43.14489200119302" lon="11.448003042472553"><ele>168.0</ele><time>2026-04-11T10:52:14.998Z</time></trkpt><trkpt lat="43.1448983602284" lon="11.448143662587926"><ele>167.8</ele><time>2026-04-11T10:52:16.998Z</time></trkpt><trkpt lat="43.14488817473861" lon="11.448286967330436"><ele>167.60000000000002</ele><time>2026-04-11T10:52:18.998Z</time></trkpt><trkpt lat="43.14484384812361" lon="11.44841942820227"><ele>167.39999999999998</ele><time>2026-04-11T10:52:20.998Z</time></trkpt><trkpt lat="43.144766510869665" lon="11.448519001318397"><ele>167.2</ele><time>2026-04-11T10:52:22.998Z</time></trkpt><trkpt lat="43.14467066245107" lon="11.448581026192576"><ele>167.0</ele><time>2026-04-11T10:52:24.998Z</time></trkpt><trkpt lat="43.14457209456559" lon="11.44860321783979"><ele>167.0</ele><time>2026-04-11T10:52:27Z</time></trkpt><trkpt lat="43.14447521147666" lon="11.448602321733745"><ele>167.0</ele><time>2026-04-11T10:52:29Z</time></trkpt><trkpt lat="43.14438330548979" lon="11.448592183773926"><ele>167.0</ele><time>2026-04-11T10:52:31Z</time></trkpt><trkpt lat="43.14429468619617" lon="11.448571060615002"><ele>167.0</ele><time>2026-04-11T10:52:33Z</time></trkpt><trkpt lat="43.14420638495594" lon="11.448544660162042"><ele>167.0</ele><time>2026-04-11T10:52:35Z</time></trkpt><trkpt lat="43.144120748537155" lon="11.448507231640505"><ele>168.0</ele><time>2026-04-11T10:52:37Z</time></trkpt><trkpt lat="43.144032676329374" lon="11.448467670662257"><ele>169.0</ele><time>2026-04-11T10:52:39Z</time></trkpt><trkpt lat="43.14394656686333" lon="11.448422577107678"><ele>170.0</ele><time>2026-04-11T10:52:41Z</time></trkpt><trkpt lat="43.14386052131507" lon="11.44837144719537"><ele>171.0</ele><time>2026-04-11T10:52:43Z</time></trkpt><trkpt lat="43.143771878525385" lon="11.448313361945958"><ele>172.0</ele><time>2026-04-11T10:52:45Z</time></trkpt><trkpt lat="43.143682890427996" lon="11.448255811641411"><ele>172.0</ele><time>2026-04-11T10:52:47Z</time></trkpt><trkpt lat="43.14359976899622" lon="11.448192674511231"><ele>172.0</ele><time>2026-04-11T10:52:49Z</time></trkpt><trkpt lat="43.14351304631958" lon="11.448137093470262"><ele>172.0</ele><time>2026-04-11T10:52:51Z</time></trkpt><trkpt lat="43.14343025614747" lon="11.44807604076193"><ele>172.0</ele><time>2026-04-11T10:52:53Z</time></trkpt><trkpt lat="43.143346869590836" lon="11.448011773536413"><ele>172.0</ele><time>2026-04-11T10:52:55Z</time></trkpt><trkpt lat="43.143264197079056" lon="11.447946556001895"><ele>170.2</ele><time>2026-04-11T10:52:57Z</time></trkpt><trkpt lat="43.143182239377126" lon="11.447881144636254"><ele>168.39999999999998</ele><time>2026-04-11T10:52:59Z</time></trkpt><trkpt lat="43.14309877294715" lon="11.447826489333451"><ele>166.60000000000002</ele><time>2026-04-11T10:53:01Z</time></trkpt><trkpt lat="43.143014339595425" lon="11.447777107282405"><ele>164.8</ele><time>2026-04-11T10:53:03Z</time></trkpt><trkpt lat="43.14292492210713" lon="11.447740025214653"><ele>163.0</ele><time>2026-04-11T10:53:05Z</time></trkpt><trkpt lat="43.142830392739185" lon="11.447709496917142"><ele>163.0</ele><time>2026-04-11T10:53:07Z</time></trkpt><trkpt lat="43.14273548159028" lon="11.447695252996583"><ele>163.0</ele><time>2026-04-11T10:53:09Z</time></trkpt><trkpt lat="43.14263795266114" lon="11.447691116865792"><ele>163.0</ele><time>2026-04-11T10:53:11Z</time></trkpt><trkpt lat="43.142542575069996" lon="11.44769730078209"><ele>163.0</ele><time>2026-04-11T10:53:13Z</time></trkpt><trkpt lat="43.142447848247514" lon="11.447715303560436"><ele>163.0</ele><time>2026-04-11T10:53:15Z</time></trkpt><trkpt lat="43.1423513588099" lon="11.44774189804355"><ele>162.8</ele><time>2026-04-11T10:53:17Z</time></trkpt><trkpt lat="43.14225626790184" lon="11.447767530506004"><ele>162.60000000000002</ele><time>2026-04-11T10:53:18.999Z</time></trkpt><trkpt lat="43.14216408202917" lon="11.447800310060385"><ele>162.39999999999998</ele><time>2026-04-11T10:53:20.999Z</time></trkpt><trkpt lat="43.14207026311979" lon="11.447831534931318"><ele>162.2</ele><time>2026-04-11T10:53:22.999Z</time></trkpt><trkpt lat="43.141980353190725" lon="11.447864113452487"><ele>162.0</ele><time>2026-04-11T10:53:24.999Z</time></trkpt><trkpt lat="43.14188929981743" lon="11.447899767827515"><ele>162.0</ele><time>2026-04-11T10:53:26.999Z</time></trkpt><trkpt lat="43.14179781357116" lon="11.447934917511729"><ele>162.0</ele><time>2026-04-11T10:53:28.999Z</time></trkpt><trkpt lat="43.141702259948325" lon="11.447968379219223"><ele>162.0</ele><time>2026-04-11T10:53:30.999Z</time></trkpt><trkpt lat="43.14160542577855" lon="11.448002662852884"><ele>162.0</ele><time>2026-04-11T10:53:32.999Z</time></trkpt><trkpt lat="43.14150537849457" lon="11.448027808457297"><ele>162.0</ele><time>2026-04-11T10:53:34.999Z</time></trkpt><trkpt lat="43.1414087882469" lon="11.448049695060533"><ele>163.8</ele><time>2026-04-11T10:53:36.999Z</time></trkpt><trkpt lat="43.14131736733699" lon="11.44807274802878"><ele>165.6</ele><time>2026-04-11T10:53:38.999Z</time></trkpt><trkpt lat="43.14122362947727" lon="11.44809095407902"><ele>167.4</ele><time>2026-04-11T10:53:40.999Z</time></trkpt><trkpt lat="43.14112820820356" lon="11.44810816749525"><ele>169.20000000000002</ele><time>2026-04-11T10:53:42.999Z</time></trkpt><trkpt lat="43.14103831861712" lon="11.448123068062065"><ele>171.0</ele><time>2026-04-11T10:53:44.999Z</time></trkpt><trkpt lat="43.14095090786268" lon="11.448136595812965"><ele>171.0</ele><time>2026-04-11T10:53:46.999Z</time></trkpt><trkpt lat="43.140868293609444" lon="11.448150023232326"><ele>171.0</ele><time>2026-04-11T10:53:48.999Z</time></trkpt><trkpt lat="43.14079206653452" lon="11.448165497169235"><ele>171.0</ele><time>2026-04-11T10:53:50.999Z</time></trkpt><trkpt lat="43.140717238483056" lon="11.448177955272165"><ele>171.0</ele><time>2026-04-11T10:53:52.999Z</time></trkpt><trkpt lat="43.140637713696115" lon="11.448185359040375"><ele>171.0</ele><time>2026-04-11T10:53:54.999Z</time></trkpt><trkpt lat="43.14055325189355" lon="11.448184597878086"><ele>171.0</ele><time>2026-04-11T10:53:56.999Z</time></trkpt><trkpt lat="43.1404651891043" lon="11.448168468200945"><ele>170.4</ele><time>2026-04-11T10:53:58.999Z</time></trkpt><trkpt lat="43.14037258311355" lon="11.448149844966492"><ele>169.8</ele><time>2026-04-11T10:54:00.999Z</time></trkpt><trkpt lat="43.140271468279465" lon="11.448105954965438"><ele>169.20000000000002</ele><time>2026-04-11T10:54:02.999Z</time></trkpt><trkpt lat="43.14017084298789" lon="11.44805902678987"><ele>168.60000000000002</ele><time>2026-04-11T10:54:04.999Z</time></trkpt><trkpt lat="43.14007845233816" lon="11.448010065772053"><ele>168.0</ele><time>2026-04-11T10:54:06.999Z</time></trkpt><trkpt lat="43.139989182551474" lon="11.44796344151259"><ele>167.66666666666666</ele><time>2026-04-11T10:54:08.999Z</time></trkpt><trkpt lat="43.13990983715115" lon="11.447907932001055"><ele>167.33333333333334</ele><time>2026-04-11T10:54:10.999Z</time></trkpt><trkpt lat="43.13984962715005" lon="11.447855519047488"><ele>167.0</ele><time>2026-04-11T10:54:12.998Z</time></trkpt><trkpt lat="43.139784186421586" lon="11.44780656383165"><ele>166.66666666666669</ele><time>2026-04-11T10:54:14.998Z</time></trkpt><trkpt lat="43.13970039316658" lon="11.447785280078659"><ele>166.33333333333334</ele><time>2026-04-11T10:54:16.998Z</time></trkpt><trkpt lat="43.13960051298244" lon="11.44778981200625"><ele>166.0</ele><time>2026-04-11T10:54:18.998Z</time></trkpt><trkpt lat="43.13949614896489" lon="11.447852823807985"><ele>165.0</ele><time>2026-04-11T10:54:20.998Z</time></trkpt><trkpt lat="43.13940503539873" lon="11.447966669408887"><ele>164.0</ele><time>2026-04-11T10:54:22.998Z</time></trkpt><trkpt lat="43.139356577003056" lon="11.44803297081695"><ele>163.0</ele><time>2026-04-11T10:54:23.998Z</time></trkpt><trkpt lat="43.13934584970874" lon="11.44813015056704"><ele>162.0</ele><time>2026-04-11T10:54:24.998Z</time></trkpt><trkpt lat="43.13932864895023" lon="11.448217181631623"><ele>161.0</ele><time>2026-04-11T10:54:25.998Z</time></trkpt><trkpt lat="43.13931757605378" lon="11.448308996820359"><ele>160.0</ele><time>2026-04-11T10:54:26.998Z</time></trkpt><trkpt lat="43.13928947514365" lon="11.448395791406796"><ele>160.0</ele><time>2026-04-11T10:54:27.998Z</time></trkpt><trkpt lat="43.13927958268521" lon="11.448488763055561"><ele>160.0</ele><time>2026-04-11T10:54:28.998Z</time></trkpt><trkpt lat="43.13927226513494" lon="11.448581817739438"><ele>160.0</ele><time>2026-04-11T10:54:29.998Z</time></trkpt><trkpt lat="43.139266497598875" lon="11.448678315932925"><ele>160.0</ele><time>2026-04-11T10:54:30.998Z</time></trkpt><trkpt lat="43.13926304139421" lon="11.448773865550397"><ele>160.0</ele><time>2026-04-11T10:54:32Z</time></trkpt><trkpt lat="43.1392605420448" lon="11.448872792886066"><ele>160.0</ele><time>2026-04-11T10:54:33Z</time></trkpt><trkpt lat="43.13925821264277" lon="11.448969976326124"><ele>160.0</ele><time>2026-04-11T10:54:34Z</time></trkpt><trkpt lat="43.139278888593566" lon="11.449066978218644"><ele>160.0</ele><time>2026-04-11T10:54:35Z</time></trkpt><trkpt lat="43.13927529596508" lon="11.449163335096635"><ele>160.0</ele><time>2026-04-11T10:54:36Z</time></trkpt><trkpt lat="43.13927251473083" lon="11.449262028661586"><ele>160.0</ele><time>2026-04-11T10:54:37Z</time></trkpt><trkpt lat="43.13927137016768" lon="11.449363754790266"><ele>160.0</ele><time>2026-04-11T10:54:38Z</time></trkpt><trkpt lat="43.13927110134362" lon="11.449465667582734"><ele>160.0</ele><time>2026-04-11T10:54:39Z</time></trkpt><trkpt lat="43.13927059818188" lon="11.449566373329425"><ele>160.0</ele><time>2026-04-11T10:54:40Z</time></trkpt><trkpt lat="43.13926781503143" lon="11.449667359007863"><ele>160.0</ele><time>2026-04-11T10:54:41Z</time></trkpt><trkpt lat="43.13926769840179" lon="11.449765299092071"><ele>160.0</ele><time>2026-04-11T10:54:42Z</time></trkpt><trkpt lat="43.139269193306895" lon="11.44986052041128"><ele>160.0</ele><time>2026-04-11T10:54:43Z</time></trkpt><trkpt lat="43.139271243405105" lon="11.44995519534773"><ele>160.0</ele><time>2026-04-11T10:54:44Z</time></trkpt><trkpt lat="43.13927512862769" lon="11.450048369095082"><ele>160.0</ele><time>2026-04-11T10:54:45Z</time></trkpt><trkpt lat="43.13927985409369" lon="11.450141444510608"><ele>160.0</ele><time>2026-04-11T10:54:46Z</time></trkpt><trkpt lat="43.13928760673487" lon="11.450233834819526"><ele>160.0</ele><time>2026-04-11T10:54:47Z</time></trkpt><trkpt lat="43.13929611802151" lon="11.450326664275787"><ele>160.0</ele><time>2026-04-11T10:54:48Z</time></trkpt><trkpt lat="43.1393004901122" lon="11.450420075367676"><ele>160.28571428571428</ele><time>2026-04-11T10:54:49Z</time></trkpt><trkpt lat="43.13930265680791" lon="11.450513787665164"><ele>160.57142857142858</ele><time>2026-04-11T10:54:50Z</time></trkpt><trkpt lat="43.13930125039756" lon="11.45060754998042"><ele>160.85714285714286</ele><time>2026-04-11T10:54:51Z</time></trkpt><trkpt lat="43.13929797028254" lon="11.450699368880587"><ele>161.14285714285714</ele><time>2026-04-11T10:54:52Z</time></trkpt><trkpt lat="43.13928048923612" lon="11.450790802021476"><ele>161.42857142857142</ele><time>2026-04-11T10:54:53Z</time></trkpt><trkpt lat="43.13926101908513" lon="11.450878424511442"><ele>161.71428571428572</ele><time>2026-04-11T10:54:54Z</time></trkpt><trkpt lat="43.139231495303065" lon="11.450960022188955"><ele>162.0</ele><time>2026-04-11T10:54:55Z</time></trkpt><trkpt lat="43.13919652835172" lon="11.451037109083599"><ele>162.0</ele><time>2026-04-11T10:54:56Z</time></trkpt><trkpt lat="43.13912683373838" lon="11.451171831508896"><ele>162.0</ele><time>2026-04-11T10:54:58Z</time></trkpt><trkpt lat="43.13905901341021" lon="11.451300446806897"><ele>162.0</ele><time>2026-04-11T10:55:00Z</time></trkpt><trkpt lat="43.13899890579327" lon="11.451418022458528"><ele>162.0</ele><time>2026-04-11T10:55:02Z</time></trkpt><trkpt lat="43.13893856984825" lon="11.45153764924778"><ele>162.0</ele><time>2026-04-11T10:55:04Z</time></trkpt><trkpt lat="43.138875975878356" lon="11.451662770232023"><ele>161.4</ele><time>2026-04-11T10:55:06Z</time></trkpt><trkpt lat="43.13881151850866" lon="11.451790080870982"><ele>160.79999999999998</ele><time>2026-04-11T10:55:08Z</time></trkpt><trkpt lat="43.13874364256447" lon="11.451914547740797"><ele>160.2</ele><time>2026-04-11T10:55:10Z</time></trkpt><trkpt lat="43.13867392522978" lon="11.452030082368369"><ele>159.6</ele><time>2026-04-11T10:55:12Z</time></trkpt><trkpt lat="43.138603081506574" lon="11.45214492058474"><ele>159.0</ele><time>2026-04-11T10:55:14Z</time></trkpt><trkpt lat="43.13852795025925" lon="11.452249678568682"><ele>159.0</ele><time>2026-04-11T10:55:16Z</time></trkpt><trkpt lat="43.13845344590878" lon="11.45235288060007"><ele>159.0</ele><time>2026-04-11T10:55:18Z</time></trkpt><trkpt lat="43.138379305643255" lon="11.452442215247611"><ele>159.0</ele><time>2026-04-11T10:55:20Z</time></trkpt><trkpt lat="43.13831085935499" lon="11.452445288420929"><ele>159.0</ele><time>2026-04-11T10:55:21Z</time></trkpt><trkpt lat="43.13829682492634" lon="11.452536502828035"><ele>159.0</ele><time>2026-04-11T10:55:22Z</time></trkpt><trkpt lat="43.13820642446036" lon="11.452615678907064"><ele>159.0</ele><time>2026-04-11T10:55:24Z</time></trkpt><trkpt lat="43.13810826550253" lon="11.452686109909864"><ele>159.4</ele><time>2026-04-11T10:55:25.999Z</time></trkpt><trkpt lat="43.13800958154869" lon="11.452759349689078"><ele>159.8</ele><time>2026-04-11T10:55:27.999Z</time></trkpt><trkpt lat="43.13791231628799" lon="11.452825609012502"><ele>160.20000000000002</ele><time>2026-04-11T10:55:29.999Z</time></trkpt><trkpt lat="43.1378088944912" lon="11.452889061361894"><ele>160.60000000000002</ele><time>2026-04-11T10:55:31.999Z</time></trkpt><trkpt lat="43.137709400547145" lon="11.452953285461366"><ele>161.0</ele><time>2026-04-11T10:55:33.999Z</time></trkpt><trkpt lat="43.13760749558715" lon="11.453012393523197"><ele>161.0</ele><time>2026-04-11T10:55:35.999Z</time></trkpt><trkpt lat="43.137505273807" lon="11.453072717842035"><ele>161.0</ele><time>2026-04-11T10:55:37.999Z</time></trkpt><trkpt lat="43.137413712832696" lon="11.453133318712352"><ele>161.0</ele><time>2026-04-11T10:55:39.999Z</time></trkpt><trkpt lat="43.13732118777439" lon="11.453198909962154"><ele>161.0</ele><time>2026-04-11T10:55:41.999Z</time></trkpt><trkpt lat="43.137231961847256" lon="11.453284074904662"><ele>161.0</ele><time>2026-04-11T10:55:43.999Z</time></trkpt><trkpt lat="43.13714782721278" lon="11.453374747305865"><ele>161.0</ele><time>2026-04-11T10:55:45.999Z</time></trkpt><trkpt lat="43.13706120435266" lon="11.45346529333708"><ele>161.0</ele><time>2026-04-11T10:55:47.999Z</time></trkpt><trkpt lat="43.136975848909366" lon="11.45355336846011"><ele>161.0</ele><time>2026-04-11T10:55:49.999Z</time></trkpt><trkpt lat="43.136892830315574" lon="11.45364181160305"><ele>161.0</ele><time>2026-04-11T10:55:51.999Z</time></trkpt><trkpt lat="43.13680673289649" lon="11.45373206569199"><ele>161.0</ele><time>2026-04-11T10:55:53.999Z</time></trkpt><trkpt lat="43.136724926211876" lon="11.45382641267768"><ele>161.0</ele><time>2026-04-11T10:55:55.999Z</time></trkpt><trkpt lat="43.13664001859934" lon="11.45392514475626"><ele>161.0</ele><time>2026-04-11T10:55:57.999Z</time></trkpt><trkpt lat="43.1365597121459" lon="11.454029936314242"><ele>161.0</ele><time>2026-04-11T10:55:59.999Z</time></trkpt><trkpt lat="43.136484156352786" lon="11.454138929533434"><ele>161.0</ele><time>2026-04-11T10:56:01.999Z</time></trkpt><trkpt lat="43.13641514082593" lon="11.454247973633779"><ele>161.0</ele><time>2026-04-11T10:56:03.999Z</time></trkpt><trkpt lat="43.13635091077928" lon="11.454358961931847"><ele>160.0</ele><time>2026-04-11T10:56:05.999Z</time></trkpt><trkpt lat="43.13628453200829" lon="11.454469714283134"><ele>159.0</ele><time>2026-04-11T10:56:07.999Z</time></trkpt><trkpt lat="43.136226560625374" lon="11.454586965629112"><ele>158.0</ele><time>2026-04-11T10:56:09.999Z</time></trkpt><trkpt lat="43.13617275757273" lon="11.454700028896191"><ele>157.0</ele><time>2026-04-11T10:56:11.999Z</time></trkpt><trkpt lat="43.136117343881025" lon="11.45482263894378"><ele>156.0</ele><time>2026-04-11T10:56:13.999Z</time></trkpt><trkpt lat="43.136062125326916" lon="11.454955428578826"><ele>156.0</ele><time>2026-04-11T10:56:15.999Z</time></trkpt><trkpt lat="43.13600664903886" lon="11.455079625289923"><ele>156.0</ele><time>2026-04-11T10:56:17.998Z</time></trkpt><trkpt lat="43.13595125032254" lon="11.455207593209712"><ele>156.0</ele><time>2026-04-11T10:56:19.998Z</time></trkpt><trkpt lat="43.13589404850015" lon="11.455335037110663"><ele>156.0</ele><time>2026-04-11T10:56:21.998Z</time></trkpt><trkpt lat="43.13582782308835" lon="11.455459396489706"><ele>156.0</ele><time>2026-04-11T10:56:23.998Z</time></trkpt><trkpt lat="43.13575488354313" lon="11.455567689978274"><ele>155.2</ele><time>2026-04-11T10:56:25.998Z</time></trkpt><trkpt lat="43.13567109115112" lon="11.455662051843767"><ele>154.39999999999998</ele><time>2026-04-11T10:56:27.998Z</time></trkpt><trkpt lat="43.13559037295958" lon="11.455750790671015"><ele>153.6</ele><time>2026-04-11T10:56:29.998Z</time></trkpt><trkpt lat="43.13550334282793" lon="11.455841860935807"><ele>152.79999999999998</ele><time>2026-04-11T10:56:31.998Z</time></trkpt><trkpt lat="43.13541469649893" lon="11.45592774988076"><ele>152.0</ele><time>2026-04-11T10:56:33.998Z</time></trkpt><trkpt lat="43.13533122810469" lon="11.456017815389542"><ele>152.0</ele><time>2026-04-11T10:56:35.998Z</time></trkpt><trkpt lat="43.135250305968825" lon="11.456099826148616"><ele>152.0</ele><time>2026-04-11T10:56:38Z</time></trkpt><trkpt lat="43.135170755045664" lon="11.456178406767743"><ele>152.0</ele><time>2026-04-11T10:56:40Z</time></trkpt><trkpt lat="43.135090773433575" lon="11.456256310481661"><ele>152.0</ele><time>2026-04-11T10:56:42Z</time></trkpt><trkpt lat="43.135009323287576" lon="11.45634213011581"><ele>152.0</ele><time>2026-04-11T10:56:44Z</time></trkpt><trkpt lat="43.13492343947226" lon="11.456429697841802"><ele>152.0</ele><time>2026-04-11T10:56:46Z</time></trkpt><trkpt lat="43.13483722747707" lon="11.456516143719359"><ele>152.0</ele><time>2026-04-11T10:56:48Z</time></trkpt><trkpt lat="43.13474967219192" lon="11.456601760522345"><ele>152.0</ele><time>2026-04-11T10:56:50Z</time></trkpt><trkpt lat="43.134662132402646" lon="11.45669122754053"><ele>152.0</ele><time>2026-04-11T10:56:52Z</time></trkpt><trkpt lat="43.13457418649295" lon="11.456779191765294"><ele>152.0</ele><time>2026-04-11T10:56:54Z</time></trkpt><trkpt lat="43.13448665520262" lon="11.456864104864819"><ele>152.0</ele><time>2026-04-11T10:56:56Z</time></trkpt><trkpt lat="43.13440252377962" lon="11.456948508848145"><ele>152.0</ele><time>2026-04-11T10:56:58Z</time></trkpt><trkpt lat="43.1343134942813" lon="11.457036577946496"><ele>152.0</ele><time>2026-04-11T10:57:00Z</time></trkpt><trkpt lat="43.1342224703586" lon="11.457127578595339"><ele>152.0</ele><time>2026-04-11T10:57:02Z</time></trkpt><trkpt lat="43.13413076956624" lon="11.45722031713911"><ele>152.0</ele><time>2026-04-11T10:57:04Z</time></trkpt><trkpt lat="43.134036910175084" lon="11.457315048707041"><ele>151.5</ele><time>2026-04-11T10:57:06Z</time></trkpt><trkpt lat="43.13394124346225" lon="11.45740874176556"><ele>151.0</ele><time>2026-04-11T10:57:08Z</time></trkpt><trkpt lat="43.13384475692306" lon="11.457503150396077"><ele>150.5</ele><time>2026-04-11T10:57:10Z</time></trkpt><trkpt lat="43.13374733737358" lon="11.457598451701116"><ele>150.0</ele><time>2026-04-11T10:57:12Z</time></trkpt><trkpt lat="43.13365050925225" lon="11.457687648013998"><ele>150.0</ele><time>2026-04-11T10:57:14Z</time></trkpt><trkpt lat="43.13355661332435" lon="11.45777263757688"><ele>150.0</ele><time>2026-04-11T10:57:16Z</time></trkpt><trkpt lat="43.133461049777" lon="11.457847998174525"><ele>150.0</ele><time>2026-04-11T10:57:18Z</time></trkpt><trkpt lat="43.133367085905576" lon="11.457929832018023"><ele>150.0</ele><time>2026-04-11T10:57:20Z</time></trkpt><trkpt lat="43.13327337182422" lon="11.458015080318878"><ele>150.0</ele><time>2026-04-11T10:57:22Z</time></trkpt><trkpt lat="43.13318399149866" lon="11.458110140019539"><ele>149.25</ele><time>2026-04-11T10:57:24Z</time></trkpt><trkpt lat="43.13309661565206" lon="11.458211501530618"><ele>148.5</ele><time>2026-04-11T10:57:26Z</time></trkpt><trkpt lat="43.13300716550328" lon="11.458319272431682"><ele>147.75</ele><time>2026-04-11T10:57:28Z</time></trkpt><trkpt lat="43.132919132947926" lon="11.458426164431256"><ele>147.0</ele><time>2026-04-11T10:57:29.999Z</time></trkpt><trkpt lat="43.13282673568978" lon="11.458535731907785"><ele>147.0</ele><time>2026-04-11T10:57:31.999Z</time></trkpt><trkpt lat="43.132739664299415" lon="11.458649815117605"><ele>147.0</ele><time>2026-04-11T10:57:33.999Z</time></trkpt><trkpt lat="43.132660027479844" lon="11.45877283875455"><ele>147.0</ele><time>2026-04-11T10:57:35.999Z</time></trkpt><trkpt lat="43.13259345309414" lon="11.458910484789133"><ele>147.0</ele><time>2026-04-11T10:57:37.999Z</time></trkpt><trkpt lat="43.13254379804602" lon="11.459059110779604"><ele>146.5</ele><time>2026-04-11T10:57:39.999Z</time></trkpt><trkpt lat="43.132502583610204" lon="11.459201086320155"><ele>146.0</ele><time>2026-04-11T10:57:41.999Z</time></trkpt><trkpt lat="43.132463031340826" lon="11.459342005218572"><ele>145.5</ele><time>2026-04-11T10:57:43.999Z</time></trkpt><trkpt lat="43.132420425590325" lon="11.459488685717805"><ele>145.0</ele><time>2026-04-11T10:57:45.999Z</time></trkpt><trkpt lat="43.13238917934609" lon="11.45963898614803"><ele>145.0</ele><time>2026-04-11T10:57:47.999Z</time></trkpt><trkpt lat="43.13235539572437" lon="11.459788719165461"><ele>145.0</ele><time>2026-04-11T10:57:49.999Z</time></trkpt><trkpt lat="43.13232113004543" lon="11.459926862132589"><ele>145.0</ele><time>2026-04-11T10:57:51.999Z</time></trkpt><trkpt lat="43.13228561494134" lon="11.46006944794389"><ele>145.0</ele><time>2026-04-11T10:57:53.999Z</time></trkpt><trkpt lat="43.13225573901776" lon="11.460192903638141"><ele>145.0</ele><time>2026-04-11T10:57:55.999Z</time></trkpt><trkpt lat="43.132228428049835" lon="11.46031525307007"><ele>145.0</ele><time>2026-04-11T10:57:57.999Z</time></trkpt><trkpt lat="43.132196117678205" lon="11.460436467698788"><ele>145.0</ele><time>2026-04-11T10:57:59.999Z</time></trkpt><trkpt lat="43.13216513630136" lon="11.460552044573395"><ele>145.0</ele><time>2026-04-11T10:58:01.999Z</time></trkpt><trkpt lat="43.1321390208648" lon="11.460670405065127"><ele>145.0</ele><time>2026-04-11T10:58:03.999Z</time></trkpt><trkpt lat="43.13211539749721" lon="11.460795087010066"><ele>145.0</ele><time>2026-04-11T10:58:05.999Z</time></trkpt><trkpt lat="43.132100316013954" lon="11.460931238852176"><ele>145.16666666666669</ele><time>2026-04-11T10:58:07.999Z</time></trkpt><trkpt lat="43.1321033120594" lon="11.46107749348973"><ele>145.33333333333334</ele><time>2026-04-11T10:58:09.999Z</time></trkpt><trkpt lat="43.13212030759412" lon="11.461249201980838"><ele>145.5</ele><time>2026-04-11T10:58:11.999Z</time></trkpt><trkpt lat="43.132133517459245" lon="11.461335491614898"><ele>145.66666666666666</ele><time>2026-04-11T10:58:12.999Z</time></trkpt><trkpt lat="43.13214444538005" lon="11.461423141375679"><ele>145.83333333333331</ele><time>2026-04-11T10:58:13.999Z</time></trkpt><trkpt lat="43.13215673181976" lon="11.461513954285584"><ele>146.0</ele><time>2026-04-11T10:58:14.999Z</time></trkpt><trkpt lat="43.13217301552381" lon="11.461655008009272"><ele>146.0</ele><time>2026-04-11T10:58:16.999Z</time></trkpt><trkpt lat="43.13214513105845" lon="11.461752486092065"><ele>146.0</ele><time>2026-04-11T10:58:18.999Z</time></trkpt><trkpt lat="43.13206201671785" lon="11.461769796170763"><ele>146.0</ele><time>2026-04-11T10:58:20.999Z</time></trkpt><trkpt lat="43.131986032257984" lon="11.461727401862134"><ele>146.0</ele><time>2026-04-11T10:58:22.998Z</time></trkpt><trkpt lat="43.13192205208638" lon="11.46165294451238"><ele>146.0</ele><time>2026-04-11T10:58:24.998Z</time></trkpt><trkpt lat="43.13183248108032" lon="11.461611814194628"><ele>146.0</ele><time>2026-04-11T10:58:26.998Z</time></trkpt><trkpt lat="43.13172090603873" lon="11.461593246490684"><ele>146.0</ele><time>2026-04-11T10:58:28.998Z</time></trkpt><trkpt lat="43.13159406100397" lon="11.461578518862256"><ele>146.0</ele><time>2026-04-11T10:58:30.998Z</time></trkpt><trkpt lat="43.131526410823795" lon="11.461560916240058"><ele>146.0</ele><time>2026-04-11T10:58:31.998Z</time></trkpt><trkpt lat="43.131462675740934" lon="11.461544879423748"><ele>146.0</ele><time>2026-04-11T10:58:32.998Z</time></trkpt><trkpt lat="43.13135986705456" lon="11.46148470506293"><ele>146.0</ele><time>2026-04-11T10:58:34.998Z</time></trkpt><trkpt lat="43.13128724142376" lon="11.461348495503376"><ele>145.25</ele><time>2026-04-11T10:58:36.998Z</time></trkpt><trkpt lat="43.13121750134822" lon="11.4612081604832"><ele>144.5</ele><time>2026-04-11T10:58:38.998Z</time></trkpt><trkpt lat="43.131150612179695" lon="11.461076429989161"><ele>143.75</ele><time>2026-04-11T10:58:40.998Z</time></trkpt><trkpt lat="43.13107910389885" lon="11.460956160200146"><ele>143.0</ele><time>2026-04-11T10:58:43Z</time></trkpt><trkpt lat="43.13099371837722" lon="11.460863051198347"><ele>143.0</ele><time>2026-04-11T10:58:45Z</time></trkpt><trkpt lat="43.13088818958481" lon="11.460816209897507"><ele>143.0</ele><time>2026-04-11T10:58:47Z</time></trkpt><trkpt lat="43.13078125106082" lon="11.46080911769542"><ele>143.0</ele><time>2026-04-11T10:58:49Z</time></trkpt><trkpt lat="43.130669289395435" lon="11.460784254502988"><ele>143.0</ele><time>2026-04-11T10:58:51Z</time></trkpt><trkpt lat="43.1305781334469" lon="11.460725500847333"><ele>143.0</ele><time>2026-04-11T10:58:53Z</time></trkpt><trkpt lat="43.13050939380984" lon="11.460639158044042"><ele>142.8</ele><time>2026-04-11T10:58:55Z</time></trkpt><trkpt lat="43.130461362211854" lon="11.460530957702158"><ele>142.60000000000002</ele><time>2026-04-11T10:58:57Z</time></trkpt><trkpt lat="43.13043760768579" lon="11.460416127466203"><ele>142.39999999999998</ele><time>2026-04-11T10:58:59Z</time></trkpt><trkpt lat="43.13042277491323" lon="11.460292891180076"><ele>142.2</ele><time>2026-04-11T10:59:01Z</time></trkpt><trkpt lat="43.13039745398102" lon="11.460174469246224"><ele>142.0</ele><time>2026-04-11T10:59:03Z</time></trkpt><trkpt lat="43.13036744494907" lon="11.460056871549504"><ele>142.4</ele><time>2026-04-11T10:59:05Z</time></trkpt><trkpt lat="43.130343480851366" lon="11.459938950047404"><ele>142.79999999999998</ele><time>2026-04-11T10:59:07Z</time></trkpt><trkpt lat="43.130316065031906" lon="11.459815041719034"><ele>143.2</ele><time>2026-04-11T10:59:09Z</time></trkpt><trkpt lat="43.13029093059888" lon="11.459695694147577"><ele>143.6</ele><time>2026-04-11T10:59:11Z</time></trkpt><trkpt lat="43.13026882561181" lon="11.459578826285092"><ele>144.0</ele><time>2026-04-11T10:59:13Z</time></trkpt><trkpt lat="43.13024104312025" lon="11.459457639183674"><ele>144.14285714285717</ele><time>2026-04-11T10:59:15Z</time></trkpt><trkpt lat="43.1302149891818" lon="11.459344850295087"><ele>144.28571428571428</ele><time>2026-04-11T10:59:17Z</time></trkpt><trkpt lat="43.130192139174135" lon="11.459236582405468"><ele>144.42857142857144</ele><time>2026-04-11T10:59:19Z</time></trkpt><trkpt lat="43.13017440631152" lon="11.45913497979432"><ele>144.57142857142858</ele><time>2026-04-11T10:59:21Z</time></trkpt><trkpt lat="43.130154061322386" lon="11.459042701055472"><ele>144.71428571428572</ele><time>2026-04-11T10:59:23Z</time></trkpt><trkpt lat="43.13013341237226" lon="11.45895498314286"><ele>144.85714285714286</ele><time>2026-04-11T10:59:25Z</time></trkpt><trkpt lat="43.130115534558" lon="11.458867884396996"><ele>145.0</ele><time>2026-04-11T10:59:27Z</time></trkpt><trkpt lat="43.13008501639776" lon="11.458744953302775"><ele>146.0</ele><time>2026-04-11T10:59:30Z</time></trkpt><trkpt lat="43.130057783780494" lon="11.458637901673663"><ele>147.0</ele><time>2026-04-11T10:59:33Z</time></trkpt><trkpt lat="43.1300351798999" lon="11.458546690811337"><ele>148.0</ele><time>2026-04-11T10:59:36Z</time></trkpt><trkpt lat="43.130023202038444" lon="11.458437660253391"><ele>149.0</ele><time>2026-04-11T10:59:39.999Z</time></trkpt><trkpt lat="43.13004452373978" lon="11.458334171260915"><ele>150.0</ele><time>2026-04-11T10:59:43.999Z</time></trkpt><trkpt lat="43.13001843469578" lon="11.458229887945903"><ele>151.0</ele><time>2026-04-11T10:59:47.999Z</time></trkpt><trkpt lat="43.12997056209815" lon="11.458146714902622"><ele>151.00000000000003</ele><time>2026-04-11T10:59:51.999Z</time></trkpt><trkpt lat="43.12992519135738" lon="11.458059447101812"><ele>151.0</ele><time>2026-04-11T10:59:55.999Z</time></trkpt><trkpt lat="43.12988076638939" lon="11.45797948396208"><ele>151.0</ele><time>2026-04-11T10:59:58.999Z</time></trkpt><trkpt lat="43.12982731432158" lon="11.457898879035303"><ele>151.0</ele><time>2026-04-11T11:00:02.999Z</time></trkpt><trkpt lat="43.12978804529946" lon="11.457820558066693"><ele>151.0</ele><time>2026-04-11T11:00:06.999Z</time></trkpt><trkpt lat="43.12974280035658" lon="11.457745947296669"><ele>151.00000000000003</ele><time>2026-04-11T11:00:10.999Z</time></trkpt><trkpt lat="43.129696432635534" lon="11.457673278924329"><ele>151.0</ele><time>2026-04-11T11:00:13.999Z</time></trkpt><trkpt lat="43.12965472823966" lon="11.457596236869245"><ele>152.42857142857144</ele><time>2026-04-11T11:00:17.999Z</time></trkpt><trkpt lat="43.129611203583835" lon="11.457516380289094"><ele>153.85714285714286</ele><time>2026-04-11T11:00:21.999Z</time></trkpt><trkpt lat="43.129567549893565" lon="11.457435274273728"><ele>155.28571428571428</ele><time>2026-04-11T11:00:25.999Z</time></trkpt><trkpt lat="43.129518298158864" lon="11.457356820970476"><ele>156.71428571428572</ele><time>2026-04-11T11:00:28.999Z</time></trkpt><trkpt lat="43.129484735840535" lon="11.457280213290822"><ele>158.14285714285714</ele><time>2026-04-11T11:00:31.998Z</time></trkpt><trkpt lat="43.129443819476954" lon="11.457214517027642"><ele>159.57142857142858</ele><time>2026-04-11T11:00:34.998Z</time></trkpt><trkpt lat="43.1294051686559" lon="11.457144235054638"><ele>161.0</ele><time>2026-04-11T11:00:37.998Z</time></trkpt><trkpt lat="43.12936637285777" lon="11.45707069820833"><ele>161.33333333333331</ele><time>2026-04-11T11:00:40.998Z</time></trkpt><trkpt lat="43.12932980721321" lon="11.456998832915987"><ele>161.66666666666666</ele><time>2026-04-11T11:00:43.998Z</time></trkpt><trkpt lat="43.129273088199774" lon="11.456916942162374"><ele>162.0</ele><time>2026-04-11T11:00:47.998Z</time></trkpt><trkpt lat="43.129228070710205" lon="11.456824480868221"><ele>162.33333333333334</ele><time>2026-04-11T11:00:52Z</time></trkpt><trkpt lat="43.129178114377076" lon="11.456740036555976"><ele>162.66666666666669</ele><time>2026-04-11T11:00:56Z</time></trkpt><trkpt lat="43.129143298022775" lon="11.456665731275121"><ele>163.0</ele><time>2026-04-11T11:00:59Z</time></trkpt><trkpt lat="43.12908990344473" lon="11.45657885665171"><ele>164.66666666666669</ele><time>2026-04-11T11:01:03Z</time></trkpt><trkpt lat="43.129040844232144" lon="11.456493166735237"><ele>166.33333333333334</ele><time>2026-04-11T11:01:07Z</time></trkpt><trkpt lat="43.1289927837421" lon="11.45641124922174"><ele>168.0</ele><time>2026-04-11T11:01:11Z</time></trkpt><trkpt lat="43.1289496052287" lon="11.45632640516156"><ele>169.66666666666666</ele><time>2026-04-11T11:01:15Z</time></trkpt><trkpt lat="43.12890387767917" lon="11.456244670407328"><ele>171.33333333333331</ele><time>2026-04-11T11:01:19Z</time></trkpt><trkpt lat="43.12884859202334" lon="11.456180744538287"><ele>173.0</ele><time>2026-04-11T11:01:23Z</time></trkpt><trkpt lat="43.12879929037404" lon="11.456102501219059"><ele>173.28571428571428</ele><time>2026-04-11T11:01:28Z</time></trkpt><trkpt lat="43.12876806245747" lon="11.456025196468085"><ele>173.57142857142858</ele><time>2026-04-11T11:01:32Z</time></trkpt><trkpt lat="43.12872719196766" lon="11.455956145912419"><ele>173.85714285714286</ele><time>2026-04-11T11:01:36Z</time></trkpt><trkpt lat="43.12867938415917" lon="11.455872078991431"><ele>174.14285714285714</ele><time>2026-04-11T11:01:41Z</time></trkpt><trkpt lat="43.1286349316144" lon="11.45579623056495"><ele>174.42857142857144</ele><time>2026-04-11T11:01:45.999Z</time></trkpt><trkpt lat="43.12858620378322" lon="11.455725974865535"><ele>174.71428571428572</ele><time>2026-04-11T11:01:50.999Z</time></trkpt><trkpt lat="43.128547255768545" lon="11.455649760324869"><ele>175.0</ele><time>2026-04-11T11:01:55.999Z</time></trkpt><trkpt lat="43.12849880727531" lon="11.455590717480828"><ele>175.0</ele><time>2026-04-11T11:02:00.999Z</time></trkpt><trkpt lat="43.128429663415716" lon="11.4555391572959"><ele>175.0</ele><time>2026-04-11T11:02:05.999Z</time></trkpt><trkpt lat="43.12837588309044" lon="11.455485813565847"><ele>175.0</ele><time>2026-04-11T11:02:09.999Z</time></trkpt><trkpt lat="43.128306616205606" lon="11.455458098935095"><ele>175.0</ele><time>2026-04-11T11:02:13.999Z</time></trkpt><trkpt lat="43.128253060263305" lon="11.455405885287638"><ele>175.0</ele><time>2026-04-11T11:02:17.999Z</time></trkpt><trkpt lat="43.12819082135387" lon="11.455379320036917"><ele>175.0</ele><time>2026-04-11T11:02:21.999Z</time></trkpt><trkpt lat="43.128120265697206" lon="11.455360716764996"><ele>175.0</ele><time>2026-04-11T11:02:26.999Z</time></trkpt><trkpt lat="43.12804972751805" lon="11.455318879512259"><ele>178.0</ele><time>2026-04-11T11:02:31.999Z</time></trkpt><trkpt lat="43.12797724301408" lon="11.455297709416975"><ele>181.0</ele><time>2026-04-11T11:02:36.999Z</time></trkpt><trkpt lat="43.12791595934843" lon="11.455257128028459"><ele>184.0</ele><time>2026-04-11T11:02:41.998Z</time></trkpt><trkpt lat="43.12784735890943" lon="11.455229537947838"><ele>187.0</ele><time>2026-04-11T11:02:46.998Z</time></trkpt><trkpt lat="43.127779728303196" lon="11.455196793927295"><ele>189.99999999999997</ele><time>2026-04-11T11:02:51.998Z</time></trkpt><trkpt lat="43.12770810766059" lon="11.455155616305383"><ele>193.0</ele><time>2026-04-11T11:02:57Z</time></trkpt><trkpt lat="43.127629436572356" lon="11.455103091169063"><ele>193.00000000000003</ele><time>2026-04-11T11:03:02Z</time></trkpt><trkpt lat="43.12756085603588" lon="11.455071090990241"><ele>193.0</ele><time>2026-04-11T11:03:06Z</time></trkpt><trkpt lat="43.127482484833855" lon="11.455034871411577"><ele>193.0</ele><time>2026-04-11T11:03:10Z</time></trkpt><trkpt lat="43.127419792983794" lon="11.455002742480374"><ele>193.0</ele><time>2026-04-11T11:03:15Z</time></trkpt><trkpt lat="43.127350309482324" lon="11.454966106541338"><ele>193.0</ele><time>2026-04-11T11:03:20Z</time></trkpt><trkpt lat="43.12728550477821" lon="11.454941544183566"><ele>193.00000000000003</ele><time>2026-04-11T11:03:25Z</time></trkpt><trkpt lat="43.12722717450595" lon="11.454907205145588"><ele>193.0</ele><time>2026-04-11T11:03:30Z</time></trkpt><trkpt lat="43.1271817555064" lon="11.454835345072324"><ele>194.57142857142858</ele><time>2026-04-11T11:03:35Z</time></trkpt><trkpt lat="43.12713630694538" lon="11.454772687257622"><ele>196.14285714285714</ele><time>2026-04-11T11:03:40Z</time></trkpt><trkpt lat="43.127073742148724" lon="11.454744396873608"><ele>197.71428571428572</ele><time>2026-04-11T11:03:45Z</time></trkpt><trkpt lat="43.12705059568954" lon="11.454655430153222"><ele>199.28571428571428</ele><time>2026-04-11T11:03:49.999Z</time></trkpt><trkpt lat="43.12701296797883" lon="11.454573386655076"><ele>200.85714285714286</ele><time>2026-04-11T11:03:54.999Z</time></trkpt><trkpt lat="43.12696036356094" lon="11.454507084936264"><ele>202.42857142857144</ele><time>2026-04-11T11:03:59.999Z</time></trkpt><trkpt lat="43.12691935217898" lon="11.454429892330653"><ele>204.0</ele><time>2026-04-11T11:04:04.999Z</time></trkpt><trkpt lat="43.12688899104601" lon="11.45433744466608"><ele>205.28571428571428</ele><time>2026-04-11T11:04:09.999Z</time></trkpt><trkpt lat="43.12686731664474" lon="11.454252092163546"><ele>206.57142857142858</ele><time>2026-04-11T11:04:14.999Z</time></trkpt><trkpt lat="43.12684727984496" lon="11.454159263113747"><ele>207.85714285714283</ele><time>2026-04-11T11:04:19.999Z</time></trkpt><trkpt lat="43.12682638127538" lon="11.454069645711355"><ele>209.14285714285714</ele><time>2026-04-11T11:04:24.999Z</time></trkpt><trkpt lat="43.12681456451666" lon="11.453976769626912"><ele>210.42857142857142</ele><time>2026-04-11T11:04:29.999Z</time></trkpt><trkpt lat="43.12679520561862" lon="11.453883760915753"><ele>211.7142857142857</ele><time>2026-04-11T11:04:34.999Z</time></trkpt><trkpt lat="43.12679153823664" lon="11.453785834823769"><ele>213.0</ele><time>2026-04-11T11:04:39.999Z</time></trkpt><trkpt lat="43.12679544928543" lon="11.45368437667446"><ele>213.85714285714283</ele><time>2026-04-11T11:04:44.998Z</time></trkpt><trkpt lat="43.12678769381164" lon="11.453584740003937"><ele>214.71428571428572</ele><time>2026-04-11T11:04:49.998Z</time></trkpt><trkpt lat="43.12678023094548" lon="11.453492222239463"><ele>215.57142857142856</ele><time>2026-04-11T11:04:53.998Z</time></trkpt><trkpt lat="43.12678149652065" lon="11.453391768799998"><ele>216.42857142857142</ele><time>2026-04-11T11:04:59Z</time></trkpt><trkpt lat="43.12677916392502" lon="11.453286102891076"><ele>217.28571428571428</ele><time>2026-04-11T11:05:04Z</time></trkpt><trkpt lat="43.126775852396115" lon="11.453178464441134"><ele>218.14285714285714</ele><time>2026-04-11T11:05:09Z</time></trkpt><trkpt lat="43.12677070096503" lon="11.453083803033799"><ele>219.0</ele><time>2026-04-11T11:05:13Z</time></trkpt><trkpt lat="43.126769699711474" lon="11.452970017457037"><ele>219.5</ele><time>2026-04-11T11:05:17Z</time></trkpt><trkpt lat="43.12676428560603" lon="11.452878830082582"><ele>220.0</ele><time>2026-04-11T11:05:20Z</time></trkpt><trkpt lat="43.126765252395174" lon="11.452750524523456"><ele>220.5</ele><time>2026-04-11T11:05:23Z</time></trkpt><trkpt lat="43.126766358319045" lon="11.452645770075174"><ele>221.0</ele><time>2026-04-11T11:05:26Z</time></trkpt><trkpt lat="43.1267767809411" lon="11.452529444687837"><ele>221.5</ele><time>2026-04-11T11:05:29Z</time></trkpt><trkpt lat="43.12677413853662" lon="11.452418675015887"><ele>222.0</ele><time>2026-04-11T11:05:32Z</time></trkpt><trkpt lat="43.1267794167108" lon="11.452308325920107"><ele>222.0</ele><time>2026-04-11T11:05:35Z</time></trkpt><trkpt lat="43.12677362025193" lon="11.452197871623905"><ele>222.0</ele><time>2026-04-11T11:05:38Z</time></trkpt><trkpt lat="43.12675807165103" lon="11.452086995255705"><ele>222.0</ele><time>2026-04-11T11:05:41Z</time></trkpt><trkpt lat="43.12675396869969" lon="11.451973777424358"><ele>222.0</ele><time>2026-04-11T11:05:44Z</time></trkpt><trkpt lat="43.12674325830705" lon="11.451858209095265"><ele>222.0</ele><time>2026-04-11T11:05:47Z</time></trkpt><trkpt lat="43.126728505916056" lon="11.45174995416581"><ele>222.0</ele><time>2026-04-11T11:05:50Z</time></trkpt><trkpt lat="43.12672383474946" lon="11.451637500780025"><ele>222.42857142857142</ele><time>2026-04-11T11:05:53Z</time></trkpt><trkpt lat="43.12671363067874" lon="11.451528583451715"><ele>222.8571428571429</ele><time>2026-04-11T11:05:55.999Z</time></trkpt><trkpt lat="43.12669865650097" lon="11.451422710418164"><ele>223.2857142857143</ele><time>2026-04-11T11:05:58.999Z</time></trkpt><trkpt lat="43.12668305670008" lon="11.451320544655136"><ele>223.71428571428572</ele><time>2026-04-11T11:06:01.999Z</time></trkpt><trkpt lat="43.126658053582176" lon="11.451225086339074"><ele>224.14285714285717</ele><time>2026-04-11T11:06:04.999Z</time></trkpt><trkpt lat="43.12663063362852" lon="11.451136747129656"><ele>224.5714285714286</ele><time>2026-04-11T11:06:07.999Z</time></trkpt><trkpt lat="43.12660460290153" lon="11.451048636005067"><ele>225.00000000000003</ele><time>2026-04-11T11:06:10.999Z</time></trkpt><trkpt lat="43.126574770779364" lon="11.450964863310872"><ele>225.00000000000003</ele><time>2026-04-11T11:06:13.999Z</time></trkpt><trkpt lat="43.12654942656099" lon="11.450881248889226"><ele>225.0</ele><time>2026-04-11T11:06:16.999Z</time></trkpt><trkpt lat="43.12652131751315" lon="11.450803140872393"><ele>225.00000000000003</ele><time>2026-04-11T11:06:19.999Z</time></trkpt><trkpt lat="43.126502194589484" lon="11.450715355833898"><ele>225.00000000000003</ele><time>2026-04-11T11:06:22.999Z</time></trkpt><trkpt lat="43.126476068056235" lon="11.450627306669139"><ele>225.0</ele><time>2026-04-11T11:06:25.999Z</time></trkpt><trkpt lat="43.12644998698422" lon="11.45054829851274"><ele>225.00000000000003</ele><time>2026-04-11T11:06:28.999Z</time></trkpt><trkpt lat="43.12640642257793" lon="11.450468764312124"><ele>225.00000000000003</ele><time>2026-04-11T11:06:32.999Z</time></trkpt><trkpt lat="43.12638469276122" lon="11.450370766067874"><ele>225.8571428571429</ele><time>2026-04-11T11:06:36.999Z</time></trkpt><trkpt lat="43.126364767472644" lon="11.450268823793074"><ele>226.71428571428572</ele><time>2026-04-11T11:06:40.999Z</time></trkpt><trkpt lat="43.12631967072941" lon="11.450176879955341"><ele>227.57142857142858</ele><time>2026-04-11T11:06:44.999Z</time></trkpt><trkpt lat="43.126298951045136" lon="11.45009327085746"><ele>228.42857142857144</ele><time>2026-04-11T11:06:47.999Z</time></trkpt><trkpt lat="43.12627422205635" lon="11.450011286285859"><ele>229.28571428571428</ele><time>2026-04-11T11:06:50.998Z</time></trkpt><trkpt lat="43.12624953130848" lon="11.44992903515316"><ele>230.14285714285714</ele><time>2026-04-11T11:06:53.998Z</time></trkpt><trkpt lat="43.126225398402724" lon="11.44983278386137"><ele>231.0</ele><time>2026-04-11T11:06:56.998Z</time></trkpt><trkpt lat="43.126189432898684" lon="11.449727122816435"><ele>231.0</ele><time>2026-04-11T11:07:00.998Z</time></trkpt><trkpt lat="43.1261540979125" lon="11.449633139388256"><ele>231.0</ele><time>2026-04-11T11:07:03.998Z</time></trkpt><trkpt lat="43.126112847809566" lon="11.449544362522976"><ele>231.0</ele><time>2026-04-11T11:07:07Z</time></trkpt><trkpt lat="43.12608138156077" lon="11.449463724332267"><ele>231.0</ele><time>2026-04-11T11:07:10Z</time></trkpt><trkpt lat="43.12604118412591" lon="11.449388136375871"><ele>231.0</ele><time>2026-04-11T11:07:13Z</time></trkpt><trkpt lat="43.12599223554602" lon="11.4493046903931"><ele>231.0</ele><time>2026-04-11T11:07:16Z</time></trkpt><trkpt lat="43.125920937412886" lon="11.44926100641311"><ele>231.0</ele><time>2026-04-11T11:07:19Z</time></trkpt><trkpt lat="43.12585309973232" lon="11.449227327994357"><ele>232.33333333333334</ele><time>2026-04-11T11:07:22Z</time></trkpt><trkpt lat="43.125783290134834" lon="11.449183987403405"><ele>233.66666666666669</ele><time>2026-04-11T11:07:25Z</time></trkpt><trkpt lat="43.12570627274234" lon="11.449133376548067"><ele>235.0</ele><time>2026-04-11T11:07:29Z</time></trkpt><trkpt lat="43.125615122009386" lon="11.44910014098152"><ele>236.33333333333334</ele><time>2026-04-11T11:07:32Z</time></trkpt><trkpt lat="43.125525121214125" lon="11.449077509790914"><ele>237.66666666666669</ele><time>2026-04-11T11:07:35Z</time></trkpt><trkpt lat="43.1254650891172" lon="11.449048396521176"><ele>239.0</ele><time>2026-04-11T11:07:37Z</time></trkpt><trkpt lat="43.1254012999029" lon="11.44902324725662"><ele>239.00000000000003</ele><time>2026-04-11T11:07:40Z</time></trkpt><trkpt lat="43.125302636388646" lon="11.448984902599458"><ele>239.0</ele><time>2026-04-11T11:07:43Z</time></trkpt><trkpt lat="43.125238838790615" lon="11.448955603863034"><ele>239.0</ele><time>2026-04-11T11:07:46Z</time></trkpt><trkpt lat="43.125151328212894" lon="11.448926453520542"><ele>239.0</ele><time>2026-04-11T11:07:48Z</time></trkpt><trkpt lat="43.12509108776236" lon="11.44889294823094"><ele>239.00000000000003</ele><time>2026-04-11T11:07:50Z</time></trkpt><trkpt lat="43.125026563852195" lon="11.448848131636575"><ele>239.0</ele><time>2026-04-11T11:07:52Z</time></trkpt><trkpt lat="43.12495639583147" lon="11.448802272538872"><ele>239.14285714285717</ele><time>2026-04-11T11:07:54Z</time></trkpt><trkpt lat="43.124887449487765" lon="11.448782155959986"><ele>239.28571428571428</ele><time>2026-04-11T11:07:56Z</time></trkpt><trkpt lat="43.12481189518768" lon="11.448748192338781"><ele>239.42857142857144</ele><time>2026-04-11T11:07:58Z</time></trkpt><trkpt lat="43.124738780631056" lon="11.448727855738683"><ele>239.57142857142858</ele><time>2026-04-11T11:08:00Z</time></trkpt><trkpt lat="43.124672563555244" lon="11.448734711841807"><ele>239.71428571428572</ele><time>2026-04-11T11:08:02.999Z</time></trkpt><trkpt lat="43.124632977303406" lon="11.44882420144369"><ele>239.85714285714286</ele><time>2026-04-11T11:11:31Z</time></trkpt><trkpt lat="43.12457037511501" lon="11.44885209932307"><ele>240.0</ele><time>2026-04-11T11:11:35Z</time></trkpt><trkpt lat="43.124526899325424" lon="11.448914997278765"><ele>239.57142857142858</ele><time>2026-04-11T11:11:39Z</time></trkpt><trkpt lat="43.12448224218261" lon="11.448988485101758"><ele>239.1428571428571</ele><time>2026-04-11T11:11:43Z</time></trkpt><trkpt lat="43.12441521150397" lon="11.449059179530607"><ele>238.7142857142857</ele><time>2026-04-11T11:11:46Z</time></trkpt><trkpt lat="43.12435858821272" lon="11.449119356776617"><ele>238.28571428571428</ele><time>2026-04-11T11:11:48Z</time></trkpt><trkpt lat="43.12429640321407" lon="11.449184799531913"><ele>237.85714285714283</ele><time>2026-04-11T11:11:51Z</time></trkpt><trkpt lat="43.12423911345271" lon="11.44922493313241"><ele>237.4285714285714</ele><time>2026-04-11T11:11:55Z</time></trkpt><trkpt lat="43.12416947713213" lon="11.449236831868548"><ele>236.99999999999997</ele><time>2026-04-11T11:11:59Z</time></trkpt><trkpt lat="43.12408591006665" lon="11.449252619643657"><ele>236.5</ele><time>2026-04-11T11:12:02Z</time></trkpt><trkpt lat="43.124021697102265" lon="11.449238919643621"><ele>236.0</ele><time>2026-04-11T11:12:04Z</time></trkpt><trkpt lat="43.123956057997056" lon="11.44922327603636"><ele>235.5</ele><time>2026-04-11T11:12:06Z</time></trkpt><trkpt lat="43.12387934228501" lon="11.449200470494343"><ele>235.0</ele><time>2026-04-11T11:12:08Z</time></trkpt><trkpt lat="43.12379980508856" lon="11.449174881585188"><ele>234.5</ele><time>2026-04-11T11:12:10Z</time></trkpt><trkpt lat="43.12371607057288" lon="11.449137935627697"><ele>234.0</ele><time>2026-04-11T11:12:12Z</time></trkpt><trkpt lat="43.123626019693056" lon="11.449108751298018"><ele>234.0</ele><time>2026-04-11T11:12:14Z</time></trkpt><trkpt lat="43.12352957257548" lon="11.449068146165592"><ele>233.99999999999997</ele><time>2026-04-11T11:12:15.999Z</time></trkpt><trkpt lat="43.12343500489616" lon="11.44904071350626"><ele>233.99999999999997</ele><time>2026-04-11T11:12:17.999Z</time></trkpt><trkpt lat="43.123348088409564" lon="11.44901293571831"><ele>234.0</ele><time>2026-04-11T11:12:19.999Z</time></trkpt><trkpt lat="43.123272470131774" lon="11.448982790754853"><ele>234.0</ele><time>2026-04-11T11:12:21.999Z</time></trkpt><trkpt lat="43.12318821634748" lon="11.44894081431572"><ele>233.5</ele><time>2026-04-11T11:12:24.999Z</time></trkpt><trkpt lat="43.12309719612554" lon="11.44891052685654"><ele>233.0</ele><time>2026-04-11T11:12:27.999Z</time></trkpt><trkpt lat="43.12302870109588" lon="11.448890527365775"><ele>232.5</ele><time>2026-04-11T11:12:29.999Z</time></trkpt><trkpt lat="43.122956820469284" lon="11.448861873895686"><ele>232.0</ele><time>2026-04-11T11:12:31.999Z</time></trkpt><trkpt lat="43.122874219301806" lon="11.44884412493125"><ele>231.5</ele><time>2026-04-11T11:12:33.999Z</time></trkpt><trkpt lat="43.12278269631992" lon="11.44882219956583"><ele>231.0</ele><time>2026-04-11T11:12:35.999Z</time></trkpt><trkpt lat="43.12268750877366" lon="11.448779324929134"><ele>230.8</ele><time>2026-04-11T11:12:37.999Z</time></trkpt><trkpt lat="43.12257956066881" lon="11.448741202041914"><ele>230.60000000000002</ele><time>2026-04-11T11:12:39.999Z</time></trkpt><trkpt lat="43.122478748106545" lon="11.448707840876384"><ele>230.4</ele><time>2026-04-11T11:12:41.999Z</time></trkpt><trkpt lat="43.12239810887723" lon="11.448669817894425"><ele>230.2</ele><time>2026-04-11T11:12:43.999Z</time></trkpt><trkpt lat="43.12230974981975" lon="11.448633141049472"><ele>230.0</ele><time>2026-04-11T11:12:45.999Z</time></trkpt><trkpt lat="43.12219819715202" lon="11.448601890038761"><ele>228.8</ele><time>2026-04-11T11:12:47.999Z</time></trkpt><trkpt lat="43.122097498893005" lon="11.448563881865903"><ele>227.6</ele><time>2026-04-11T11:12:49.999Z</time></trkpt><trkpt lat="43.12200052249837" lon="11.448531470059997"><ele>226.39999999999998</ele><time>2026-04-11T11:12:51.999Z</time></trkpt><trkpt lat="43.12189153986026" lon="11.448496061345413"><ele>225.2</ele><time>2026-04-11T11:12:53.999Z</time></trkpt><trkpt lat="43.12179171320185" lon="11.448451904445777"><ele>224.0</ele><time>2026-04-11T11:12:55.999Z</time></trkpt><trkpt lat="43.121694864426466" lon="11.44841751324534"><ele>224.0</ele><time>2026-04-11T11:12:57.999Z</time></trkpt><trkpt lat="43.12160247969842" lon="11.448377609004096"><ele>223.99999999999997</ele><time>2026-04-11T11:12:59.999Z</time></trkpt><trkpt lat="43.12150360542323" lon="11.448303836694738"><ele>223.99999999999997</ele><time>2026-04-11T11:13:01.999Z</time></trkpt><trkpt lat="43.12140832303791" lon="11.448190279996618"><ele>224.0</ele><time>2026-04-11T11:13:03.999Z</time></trkpt><trkpt lat="43.12136749215146" lon="11.448123176166535"><ele>224.0</ele><time>2026-04-11T11:13:04.999Z</time></trkpt><trkpt lat="43.121308017605344" lon="11.447980175363101"><ele>222.83333333333334</ele><time>2026-04-11T11:13:06.999Z</time></trkpt><trkpt lat="43.12125628003981" lon="11.44784997903555"><ele>221.66666666666669</ele><time>2026-04-11T11:13:08.998Z</time></trkpt><trkpt lat="43.12122297416369" lon="11.447737370867394"><ele>220.5</ele><time>2026-04-11T11:13:10.998Z</time></trkpt><trkpt lat="43.12119865330739" lon="11.447628595333049"><ele>219.33333333333331</ele><time>2026-04-11T11:13:12.998Z</time></trkpt><trkpt lat="43.121163755956964" lon="11.44753320367485"><ele>218.16666666666666</ele><time>2026-04-11T11:13:14.998Z</time></trkpt><trkpt lat="43.121126532205324" lon="11.44743712346064"><ele>217.0</ele><time>2026-04-11T11:13:18.998Z</time></trkpt><trkpt lat="43.12108890725349" lon="11.447304997610038"><ele>216.99999999999997</ele><time>2026-04-11T11:13:22Z</time></trkpt><trkpt lat="43.12104394388367" lon="11.447183915769667"><ele>217.0</ele><time>2026-04-11T11:13:24Z</time></trkpt><trkpt lat="43.12099912889838" lon="11.447033209554162"><ele>217.0</ele><time>2026-04-11T11:13:26Z</time></trkpt><trkpt lat="43.12097648135353" lon="11.446951394115823"><ele>217.0</ele><time>2026-04-11T11:13:27Z</time></trkpt><trkpt lat="43.12095060390575" lon="11.446864724283081"><ele>216.99999999999997</ele><time>2026-04-11T11:13:28Z</time></trkpt><trkpt lat="43.12091850186378" lon="11.446775121695554"><ele>217.0</ele><time>2026-04-11T11:13:29Z</time></trkpt><trkpt lat="43.120884400730596" lon="11.446681235537072"><ele>216.33333333333331</ele><time>2026-04-11T11:13:30Z</time></trkpt><trkpt lat="43.120850108454476" lon="11.446579120931196"><ele>215.66666666666666</ele><time>2026-04-11T11:13:31Z</time></trkpt><trkpt lat="43.12081855231083" lon="11.446472327142109"><ele>215.0</ele><time>2026-04-11T11:13:32Z</time></trkpt><trkpt lat="43.12078501622948" lon="11.446357136828208"><ele>214.33333333333331</ele><time>2026-04-11T11:13:33Z</time></trkpt><trkpt lat="43.12074970402209" lon="11.44623967743144"><ele>213.66666666666666</ele><time>2026-04-11T11:13:34Z</time></trkpt><trkpt lat="43.12072428875596" lon="11.446123535399733"><ele>213.0</ele><time>2026-04-11T11:13:35Z</time></trkpt><trkpt lat="43.12071063683297" lon="11.44600750923064"><ele>212.60000000000002</ele><time>2026-04-11T11:13:36Z</time></trkpt><trkpt lat="43.12071651139911" lon="11.44587992596888"><ele>212.20000000000002</ele><time>2026-04-11T11:13:37Z</time></trkpt><trkpt lat="43.12074267068004" lon="11.445745345025083"><ele>211.8</ele><time>2026-04-11T11:13:38Z</time></trkpt><trkpt lat="43.120782919279065" lon="11.44561789678136"><ele>211.4</ele><time>2026-04-11T11:13:39Z</time></trkpt><trkpt lat="43.12082762499272" lon="11.44548675011427"><ele>211.0</ele><time>2026-04-11T11:13:40Z</time></trkpt><trkpt lat="43.12087592817102" lon="11.4453552198554"><ele>211.0</ele><time>2026-04-11T11:13:41Z</time></trkpt><trkpt lat="43.12091231142345" lon="11.445224191325817"><ele>211.0</ele><time>2026-04-11T11:13:42Z</time></trkpt><trkpt lat="43.12092984746251" lon="11.44509381121908"><ele>211.0</ele><time>2026-04-11T11:13:43Z</time></trkpt><trkpt lat="43.12092456467702" lon="11.444962356360092"><ele>211.0</ele><time>2026-04-11T11:13:44Z</time></trkpt><trkpt lat="43.12089185718926" lon="11.444837193701003"><ele>211.0</ele><time>2026-04-11T11:13:45Z</time></trkpt><trkpt lat="43.120838298289165" lon="11.44471911732377"><ele>211.20000000000002</ele><time>2026-04-11T11:13:46Z</time></trkpt><trkpt lat="43.120765227020605" lon="11.444620174997427"><ele>211.4</ele><time>2026-04-11T11:13:47Z</time></trkpt><trkpt lat="43.12067906651531" lon="11.44453885946617"><ele>211.6</ele><time>2026-04-11T11:13:48Z</time></trkpt><trkpt lat="43.12058263667572" lon="11.444474202615762"><ele>211.8</ele><time>2026-04-11T11:13:49Z</time></trkpt><trkpt lat="43.12048440293798" lon="11.444403458582338"><ele>212.0</ele><time>2026-04-11T11:13:50Z</time></trkpt><trkpt lat="43.12037962237567" lon="11.444339578782051"><ele>210.0</ele><time>2026-04-11T11:13:51Z</time></trkpt><trkpt lat="43.12027350406998" lon="11.444264182009544"><ele>208.0</ele><time>2026-04-11T11:13:52Z</time></trkpt><trkpt lat="43.12016319660794" lon="11.444190256441189"><ele>206.0</ele><time>2026-04-11T11:13:53Z</time></trkpt><trkpt lat="43.120056163767764" lon="11.444111193773274"><ele>204.0</ele><time>2026-04-11T11:13:54Z</time></trkpt><trkpt lat="43.11994560896291" lon="11.444031055333518"><ele>202.39999999999998</ele><time>2026-04-11T11:13:55Z</time></trkpt><trkpt lat="43.119841580874244" lon="11.443962124609863"><ele>200.8</ele><time>2026-04-11T11:13:56Z</time></trkpt><trkpt lat="43.11974906281363" lon="11.44390114495082"><ele>199.2</ele><time>2026-04-11T11:13:57Z</time></trkpt><trkpt lat="43.11966264866743" lon="11.44384465190898"><ele>197.60000000000002</ele><time>2026-04-11T11:13:58Z</time></trkpt><trkpt lat="43.11958167752054" lon="11.4437917476538"><ele>196.0</ele><time>2026-04-11T11:13:59Z</time></trkpt><trkpt lat="43.11949989864321" lon="11.443731553732457"><ele>195.0</ele><time>2026-04-11T11:14:00Z</time></trkpt><trkpt lat="43.11941010827897" lon="11.443670607618296"><ele>194.0</ele><time>2026-04-11T11:14:01Z</time></trkpt><trkpt lat="43.11931367841147" lon="11.443605303688582"><ele>193.0</ele><time>2026-04-11T11:14:02Z</time></trkpt><trkpt lat="43.119214112264245" lon="11.44352953989996"><ele>192.0</ele><time>2026-04-11T11:14:03Z</time></trkpt><trkpt lat="43.11911745005356" lon="11.443443177134144"><ele>191.0</ele><time>2026-04-11T11:14:04Z</time></trkpt><trkpt lat="43.11903027755946" lon="11.443360854380185"><ele>190.33333333333331</ele><time>2026-04-11T11:14:05Z</time></trkpt><trkpt lat="43.11895130861314" lon="11.443276817298448"><ele>189.66666666666666</ele><time>2026-04-11T11:14:06Z</time></trkpt><trkpt lat="43.11888991474887" lon="11.443188394064878"><ele>189.0</ele><time>2026-04-11T11:14:07Z</time></trkpt><trkpt lat="43.118837678130745" lon="11.44310900284527"><ele>188.33333333333334</ele><time>2026-04-11T11:14:08Z</time></trkpt><trkpt lat="43.11878602203531" lon="11.443043984251405"><ele>187.66666666666669</ele><time>2026-04-11T11:14:09Z</time></trkpt><trkpt lat="43.11870240496564" lon="11.44294690517311"><ele>187.0</ele><time>2026-04-11T11:14:11Z</time></trkpt><trkpt lat="43.118620982883314" lon="11.442863777088554"><ele>185.16666666666669</ele><time>2026-04-11T11:14:13Z</time></trkpt><trkpt lat="43.11852202877498" lon="11.442755922230628"><ele>183.33333333333334</ele><time>2026-04-11T11:14:15Z</time></trkpt><trkpt lat="43.11846532466519" lon="11.442703100662563"><ele>181.5</ele><time>2026-04-11T11:14:16Z</time></trkpt><trkpt lat="43.11840102733337" lon="11.442645141158435"><ele>179.66666666666666</ele><time>2026-04-11T11:14:17Z</time></trkpt><trkpt lat="43.11833114827512" lon="11.442583942053536"><ele>177.83333333333331</ele><time>2026-04-11T11:14:18Z</time></trkpt><trkpt lat="43.11827020338432" lon="11.442505624309636"><ele>176.0</ele><time>2026-04-11T11:14:19Z</time></trkpt><trkpt lat="43.1182021702582" lon="11.44244634625028"><ele>176.0</ele><time>2026-04-11T11:14:20Z</time></trkpt><trkpt lat="43.11812958930082" lon="11.442384618504079"><ele>176.0</ele><time>2026-04-11T11:14:21Z</time></trkpt><trkpt lat="43.11806593124663" lon="11.44233072884271"><ele>176.0</ele><time>2026-04-11T11:14:21.999Z</time></trkpt><trkpt lat="43.11800672988122" lon="11.442281921965696"><ele>176.0</ele><time>2026-04-11T11:14:22.999Z</time></trkpt><trkpt lat="43.11795173825996" lon="11.442236585695241"><ele>176.0</ele><time>2026-04-11T11:14:23.999Z</time></trkpt><trkpt lat="43.11789660291009" lon="11.442191130931265"><ele>176.0</ele><time>2026-04-11T11:14:24.999Z</time></trkpt><trkpt lat="43.11784263712887" lon="11.442146640385674"><ele>176.0</ele><time>2026-04-11T11:14:25.999Z</time></trkpt><trkpt lat="43.117737137445836" lon="11.44206458956972"><ele>174.16666666666666</ele><time>2026-04-11T11:14:27.999Z</time></trkpt><trkpt lat="43.11768109662562" lon="11.442023903552588"><ele>172.33333333333331</ele><time>2026-04-11T11:14:28.999Z</time></trkpt><trkpt lat="43.1175672943004" lon="11.441957959570624"><ele>170.5</ele><time>2026-04-11T11:14:30.999Z</time></trkpt><trkpt lat="43.11749848452136" lon="11.441937442205901"><ele>168.66666666666666</ele><time>2026-04-11T11:14:31.999Z</time></trkpt><trkpt lat="43.11742421066461" lon="11.441936868933192"><ele>166.83333333333334</ele><time>2026-04-11T11:14:32.999Z</time></trkpt><trkpt lat="43.117345162214846" lon="11.441952712689789"><ele>165.0</ele><time>2026-04-11T11:14:33.999Z</time></trkpt><trkpt lat="43.117264615596376" lon="11.441978924556672"><ele>165.5</ele><time>2026-04-11T11:14:34.999Z</time></trkpt><trkpt lat="43.117195934840616" lon="11.442012024752986"><ele>166.0</ele><time>2026-04-11T11:14:35.999Z</time></trkpt><trkpt lat="43.117129409780105" lon="11.442061360068974"><ele>166.5</ele><time>2026-04-11T11:14:36.999Z</time></trkpt><trkpt lat="43.11705874400781" lon="11.442104625726763"><ele>167.0</ele><time>2026-04-11T11:14:37.999Z</time></trkpt><trkpt lat="43.11698353529397" lon="11.442148400620757"><ele>167.5</ele><time>2026-04-11T11:14:38.999Z</time></trkpt><trkpt lat="43.11691448043811" lon="11.442186354967214"><ele>168.0</ele><time>2026-04-11T11:14:39.999Z</time></trkpt><trkpt lat="43.11684601822107" lon="11.442222207057533"><ele>168.0</ele><time>2026-04-11T11:14:40.999Z</time></trkpt><trkpt lat="43.116732887940834" lon="11.442256583402287"><ele>168.0</ele><time>2026-04-11T11:14:42.999Z</time></trkpt><trkpt lat="43.11661775396846" lon="11.442245515231079"><ele>168.0</ele><time>2026-04-11T11:14:44.999Z</time></trkpt><trkpt lat="43.116516935022005" lon="11.442195013975818"><ele>168.0</ele><time>2026-04-11T11:14:46.999Z</time></trkpt><trkpt lat="43.11645490074169" lon="11.442151061245328"><ele>168.0</ele><time>2026-04-11T11:14:47.999Z</time></trkpt><trkpt lat="43.11640053455441" lon="11.442078372684946"><ele>166.5</ele><time>2026-04-11T11:14:48.999Z</time></trkpt><trkpt lat="43.116343974276994" lon="11.442013870763583"><ele>165.0</ele><time>2026-04-11T11:14:49.999Z</time></trkpt><trkpt lat="43.11628475516176" lon="11.441944847429006"><ele>163.5</ele><time>2026-04-11T11:14:50.999Z</time></trkpt><trkpt lat="43.116222689480445" lon="11.441869865094707"><ele>162.0</ele><time>2026-04-11T11:14:51.999Z</time></trkpt><trkpt lat="43.11616274400551" lon="11.441798022172607"><ele>160.5</ele><time>2026-04-11T11:14:52.999Z</time></trkpt><trkpt lat="43.11609856908555" lon="11.441728233905339"><ele>159.0</ele><time>2026-04-11T11:14:53.999Z</time></trkpt><trkpt lat="43.11604152323104" lon="11.44167175571656"><ele>159.0</ele><time>2026-04-11T11:14:54.999Z</time></trkpt><trkpt lat="43.115985939915454" lon="11.441611729865404"><ele>159.0</ele><time>2026-04-11T11:14:55.999Z</time></trkpt><trkpt lat="43.115934921270586" lon="11.441556955940605"><ele>159.0</ele><time>2026-04-11T11:14:56.999Z</time></trkpt><trkpt lat="43.11587349563094" lon="11.441453102146607"><ele>159.0</ele><time>2026-04-11T11:14:57.999Z</time></trkpt><trkpt lat="43.115823635468345" lon="11.441388249169748"><ele>159.0</ele><time>2026-04-11T11:14:58.999Z</time></trkpt><trkpt lat="43.11577394385045" lon="11.441333310748853"><ele>159.0</ele><time>2026-04-11T11:14:59.999Z</time></trkpt><trkpt lat="43.11571151098992" lon="11.441285177980227"><ele>159.0</ele><time>2026-04-11T11:15:00.999Z</time></trkpt><trkpt lat="43.11565278730149" lon="11.441241607812525"><ele>157.28571428571428</ele><time>2026-04-11T11:15:01.999Z</time></trkpt><trkpt lat="43.11558786392827" lon="11.441215497152404"><ele>155.57142857142858</ele><time>2026-04-11T11:15:02.999Z</time></trkpt><trkpt lat="43.11552219098383" lon="11.441212065151134"><ele>153.85714285714286</ele><time>2026-04-11T11:15:03.999Z</time></trkpt><trkpt lat="43.11544944042584" lon="11.441220295166211"><ele>152.14285714285714</ele><time>2026-04-11T11:15:04.999Z</time></trkpt><trkpt lat="43.11537588488825" lon="11.441237273263509"><ele>150.42857142857144</ele><time>2026-04-11T11:15:05.999Z</time></trkpt><trkpt lat="43.11530324712824" lon="11.44126077352785"><ele>148.71428571428572</ele><time>2026-04-11T11:15:06.999Z</time></trkpt><trkpt lat="43.11523120969542" lon="11.441282231706701"><ele>147.0</ele><time>2026-04-11T11:15:07.999Z</time></trkpt><trkpt lat="43.11515895222358" lon="11.441294320292549"><ele>147.71428571428572</ele><time>2026-04-11T11:15:08.999Z</time></trkpt><trkpt lat="43.11508598523734" lon="11.441305158001656"><ele>148.42857142857144</ele><time>2026-04-11T11:15:09.999Z</time></trkpt><trkpt lat="43.11501461128752" lon="11.441319371246557"><ele>149.14285714285714</ele><time>2026-04-11T11:15:10.999Z</time></trkpt><trkpt lat="43.114941655890945" lon="11.441329981009897"><ele>149.85714285714286</ele><time>2026-04-11T11:15:11.999Z</time></trkpt><trkpt lat="43.114863788261395" lon="11.441333366286797"><ele>150.57142857142858</ele><time>2026-04-11T11:15:12.999Z</time></trkpt><trkpt lat="43.11478919037998" lon="11.44133847276297"><ele>151.28571428571428</ele><time>2026-04-11T11:15:13.999Z</time></trkpt><trkpt lat="43.11471396678953" lon="11.441341860019117"><ele>152.0</ele><time>2026-04-11T11:15:14.998Z</time></trkpt><trkpt lat="43.1146391883612" lon="11.441346667555083"><ele>150.16666666666666</ele><time>2026-04-11T11:15:15.998Z</time></trkpt><trkpt lat="43.11456701798087" lon="11.441350612812075"><ele>148.33333333333331</ele><time>2026-04-11T11:15:16.998Z</time></trkpt><trkpt lat="43.1144749240139" lon="11.441377048224266"><ele>146.5</ele><time>2026-04-11T11:15:17.998Z</time></trkpt><trkpt lat="43.114401043272295" lon="11.441373613500486"><ele>144.66666666666666</ele><time>2026-04-11T11:15:18.998Z</time></trkpt><trkpt lat="43.114326695598066" lon="11.441384017947417"><ele>142.83333333333334</ele><time>2026-04-11T11:15:19.998Z</time></trkpt><trkpt lat="43.11425335723823" lon="11.441396355025072"><ele>141.0</ele><time>2026-04-11T11:15:20.998Z</time></trkpt><trkpt lat="43.11417692036529" lon="11.441408532154012"><ele>141.0</ele><time>2026-04-11T11:15:21.998Z</time></trkpt><trkpt lat="43.114107762304286" lon="11.441421095410803"><ele>141.0</ele><time>2026-04-11T11:15:22.998Z</time></trkpt><trkpt lat="43.114030640529315" lon="11.441417487073382"><ele>141.0</ele><time>2026-04-11T11:15:23.998Z</time></trkpt><trkpt lat="43.113953183047265" lon="11.441419266421791"><ele>141.0</ele><time>2026-04-11T11:15:24.998Z</time></trkpt><trkpt lat="43.11388558524169" lon="11.441408700741865"><ele>141.0</ele><time>2026-04-11T11:15:25.998Z</time></trkpt><trkpt lat="43.113812193061264" lon="11.441403045165425"><ele>141.0</ele><time>2026-04-11T11:15:27Z</time></trkpt><trkpt lat="43.113734564249995" lon="11.44142084616266"><ele>141.0</ele><time>2026-04-11T11:15:28Z</time></trkpt><trkpt lat="43.11365393478013" lon="11.441458408193421"><ele>140.57142857142858</ele><time>2026-04-11T11:15:29Z</time></trkpt><trkpt lat="43.11358083886403" lon="11.441468440286124"><ele>140.14285714285714</ele><time>2026-04-11T11:15:30Z</time></trkpt><trkpt lat="43.11350385371687" lon="11.44147213279603"><ele>139.71428571428572</ele><time>2026-04-11T11:15:31Z</time></trkpt><trkpt lat="43.11343379440844" lon="11.441477352371573"><ele>139.28571428571428</ele><time>2026-04-11T11:15:32Z</time></trkpt><trkpt lat="43.11335938057011" lon="11.441485287834514"><ele>138.85714285714286</ele><time>2026-04-11T11:15:33Z</time></trkpt><trkpt lat="43.1132863166755" lon="11.441491769938281"><ele>138.42857142857144</ele><time>2026-04-11T11:15:34Z</time></trkpt><trkpt lat="43.11321213556922" lon="11.44150119558377"><ele>138.0</ele><time>2026-04-11T11:15:35Z</time></trkpt><trkpt lat="43.11314352054594" lon="11.441503888601561"><ele>137.85714285714286</ele><time>2026-04-11T11:15:36Z</time></trkpt><trkpt lat="43.11307542740671" lon="11.441510687288767"><ele>137.71428571428572</ele><time>2026-04-11T11:15:37Z</time></trkpt><trkpt lat="43.11300621727633" lon="11.4415223689755"><ele>137.57142857142858</ele><time>2026-04-11T11:15:38Z</time></trkpt><trkpt lat="43.11293673483659" lon="11.441525498688382"><ele>137.42857142857144</ele><time>2026-04-11T11:15:39Z</time></trkpt><trkpt lat="43.112868662907694" lon="11.441528769154017"><ele>137.28571428571428</ele><time>2026-04-11T11:15:40Z</time></trkpt><trkpt lat="43.11280369342577" lon="11.441535765333672"><ele>137.14285714285717</ele><time>2026-04-11T11:15:41Z</time></trkpt><trkpt lat="43.112737603782925" lon="11.441536399652927"><ele>137.0</ele><time>2026-04-11T11:15:42Z</time></trkpt><trkpt lat="43.112671067388" lon="11.44154474800565"><ele>137.00000000000003</ele><time>2026-04-11T11:15:43Z</time></trkpt><trkpt lat="43.11260428693421" lon="11.441550183556336"><ele>137.0</ele><time>2026-04-11T11:15:44Z</time></trkpt><trkpt lat="43.112537894997274" lon="11.441557429567169"><ele>137.0</ele><time>2026-04-11T11:15:45Z</time></trkpt><trkpt lat="43.11246875898948" lon="11.441564634060734"><ele>137.0</ele><time>2026-04-11T11:15:46Z</time></trkpt><trkpt lat="43.11239904224925" lon="11.44157139827566"><ele>137.0</ele><time>2026-04-11T11:15:47Z</time></trkpt><trkpt lat="43.11233180260852" lon="11.441576257094606"><ele>137.00000000000003</ele><time>2026-04-11T11:15:48Z</time></trkpt><trkpt lat="43.11225935909921" lon="11.441577076313713"><ele>137.0</ele><time>2026-04-11T11:15:49Z</time></trkpt><trkpt lat="43.11219187483256" lon="11.441584648187943"><ele>136.85714285714286</ele><time>2026-04-11T11:15:50Z</time></trkpt><trkpt lat="43.11212364292973" lon="11.441592008735386"><ele>136.71428571428572</ele><time>2026-04-11T11:15:51Z</time></trkpt><trkpt lat="43.11205508568952" lon="11.441598965355592"><ele>136.57142857142856</ele><time>2026-04-11T11:15:52Z</time></trkpt><trkpt lat="43.11198718541455" lon="11.441606090906891"><ele>136.42857142857144</ele><time>2026-04-11T11:15:53Z</time></trkpt><trkpt lat="43.11191875064902" lon="11.441611918869807"><ele>136.28571428571428</ele><time>2026-04-11T11:15:54Z</time></trkpt><trkpt lat="43.11185154788329" lon="11.441619867217604"><ele>136.14285714285714</ele><time>2026-04-11T11:15:55Z</time></trkpt><trkpt lat="43.1117828282195" lon="11.441623673460496"><ele>136.0</ele><time>2026-04-11T11:15:56Z</time></trkpt><trkpt lat="43.111717209098934" lon="11.441624319258779"><ele>136.0</ele><time>2026-04-11T11:15:57Z</time></trkpt><trkpt lat="43.11165338386055" lon="11.441630065873696"><ele>136.0</ele><time>2026-04-11T11:15:58Z</time></trkpt><trkpt lat="43.11159047996557" lon="11.441638380625982"><ele>136.0</ele><time>2026-04-11T11:15:59Z</time></trkpt><trkpt lat="43.11148855171168" lon="11.441658077403535"><ele>136.0</ele><time>2026-04-11T11:16:01Z</time></trkpt><trkpt lat="43.11138999586766" lon="11.4416732574529"><ele>136.0</ele><time>2026-04-11T11:16:03Z</time></trkpt><trkpt lat="43.11128504227312" lon="11.44169869187137"><ele>136.0</ele><time>2026-04-11T11:16:05Z</time></trkpt><trkpt lat="43.11116530453751" lon="11.441714503556023"><ele>135.8</ele><time>2026-04-11T11:16:07Z</time></trkpt><trkpt lat="43.11104042167582" lon="11.441732687619274"><ele>135.6</ele><time>2026-04-11T11:16:09Z</time></trkpt><trkpt lat="43.110909857344446" lon="11.441742228867843"><ele>135.4</ele><time>2026-04-11T11:16:11Z</time></trkpt><trkpt lat="43.11084540676554" lon="11.441747627596902"><ele>135.2</ele><time>2026-04-11T11:16:12Z</time></trkpt><trkpt lat="43.11077693282997" lon="11.441755437637905"><ele>135.0</ele><time>2026-04-11T11:16:13Z</time></trkpt><trkpt lat="43.11071046603716" lon="11.44175994979486"><ele>134.71428571428572</ele><time>2026-04-11T11:16:14Z</time></trkpt><trkpt lat="43.11064416265499" lon="11.441758304560944"><ele>134.42857142857142</ele><time>2026-04-11T11:16:15Z</time></trkpt><trkpt lat="43.11057760037377" lon="11.441756080570446"><ele>134.14285714285714</ele><time>2026-04-11T11:16:16Z</time></trkpt><trkpt lat="43.11051163947423" lon="11.44175566068369"><ele>133.85714285714286</ele><time>2026-04-11T11:16:17Z</time></trkpt><trkpt lat="43.1104439839003" lon="11.441754446048702"><ele>133.57142857142856</ele><time>2026-04-11T11:16:18Z</time></trkpt><trkpt lat="43.110379156483404" lon="11.441756686398369"><ele>133.28571428571428</ele><time>2026-04-11T11:16:19Z</time></trkpt><trkpt lat="43.11031335835555" lon="11.441768267659322"><ele>133.0</ele><time>2026-04-11T11:16:20Z</time></trkpt><trkpt lat="43.11025002423142" lon="11.441776463709617"><ele>133.0</ele><time>2026-04-11T11:16:21Z</time></trkpt><trkpt lat="43.11018545401878" lon="11.441788931928098"><ele>133.0</ele><time>2026-04-11T11:16:22Z</time></trkpt><trkpt lat="43.11006190190486" lon="11.44182114388252"><ele>133.0</ele><time>2026-04-11T11:16:24Z</time></trkpt><trkpt lat="43.10995056107977" lon="11.441867650048902"><ele>133.0</ele><time>2026-04-11T11:16:26Z</time></trkpt><trkpt lat="43.10983724984894" lon="11.441909387239146"><ele>133.0</ele><time>2026-04-11T11:16:27.999Z</time></trkpt><trkpt lat="43.109732123308476" lon="11.44196002656363"><ele>133.0</ele><time>2026-04-11T11:16:29.999Z</time></trkpt><trkpt lat="43.10963408358318" lon="11.442007645933794"><ele>133.0</ele><time>2026-04-11T11:16:31.999Z</time></trkpt><trkpt lat="43.10953991254662" lon="11.442045626017778"><ele>133.0</ele><time>2026-04-11T11:16:33.999Z</time></trkpt><trkpt lat="43.10943733631436" lon="11.442087880026538"><ele>133.0</ele><time>2026-04-11T11:16:35.999Z</time></trkpt><trkpt lat="43.109329967649614" lon="11.442125626070304"><ele>133.0</ele><time>2026-04-11T11:16:37.999Z</time></trkpt><trkpt lat="43.10922365882245" lon="11.442166332742456"><ele>133.0</ele><time>2026-04-11T11:16:39.999Z</time></trkpt><trkpt lat="43.109115608244636" lon="11.442201528538543"><ele>133.0</ele><time>2026-04-11T11:16:41.999Z</time></trkpt><trkpt lat="43.109007446817444" lon="11.442224760205283"><ele>133.0</ele><time>2026-04-11T11:16:43.999Z</time></trkpt><trkpt lat="43.108898130344095" lon="11.442243758155083"><ele>133.0</ele><time>2026-04-11T11:16:45.999Z</time></trkpt><trkpt lat="43.108791838990165" lon="11.442262127951706"><ele>133.0</ele><time>2026-04-11T11:16:47.999Z</time></trkpt><trkpt lat="43.10868797178605" lon="11.442283780171566"><ele>133.0</ele><time>2026-04-11T11:16:49.999Z</time></trkpt><trkpt lat="43.10858216400196" lon="11.442305998451285"><ele>133.0</ele><time>2026-04-11T11:16:51.999Z</time></trkpt><trkpt lat="43.10847715685799" lon="11.442329858203827"><ele>133.0</ele><time>2026-04-11T11:16:53.999Z</time></trkpt><trkpt lat="43.10836886802409" lon="11.44235269554278"><ele>133.0</ele><time>2026-04-11T11:16:55.999Z</time></trkpt><trkpt lat="43.10826778052766" lon="11.442371194384497"><ele>133.0</ele><time>2026-04-11T11:16:57.999Z</time></trkpt><trkpt lat="43.108165536824025" lon="11.442393537007854"><ele>133.20000000000002</ele><time>2026-04-11T11:16:59.999Z</time></trkpt><trkpt lat="43.10806417971552" lon="11.442416961162031"><ele>133.4</ele><time>2026-04-11T11:17:01.999Z</time></trkpt><trkpt lat="43.107964353719915" lon="11.442437963564448"><ele>133.60000000000002</ele><time>2026-04-11T11:17:03.999Z</time></trkpt><trkpt lat="43.107868329372636" lon="11.442461974931115"><ele>133.8</ele><time>2026-04-11T11:17:05.999Z</time></trkpt><trkpt lat="43.10777324569844" lon="11.442478556981104"><ele>134.0</ele><time>2026-04-11T11:17:07.999Z</time></trkpt><trkpt lat="43.10767356395803" lon="11.442481441223054"><ele>134.0</ele><time>2026-04-11T11:17:09.999Z</time></trkpt><trkpt lat="43.107563264519285" lon="11.44247394804333"><ele>134.0</ele><time>2026-04-11T11:17:11.999Z</time></trkpt><trkpt lat="43.107500063305665" lon="11.442453848697605"><ele>134.0</ele><time>2026-04-11T11:17:13.999Z</time></trkpt><trkpt lat="43.107401902597374" lon="11.442361535563318"><ele>134.0</ele><time>2026-04-11T11:17:15.999Z</time></trkpt><trkpt lat="43.10735030351497" lon="11.442304254916563"><ele>134.0</ele><time>2026-04-11T11:17:16.999Z</time></trkpt><trkpt lat="43.10725972088629" lon="11.442187323243363"><ele>133.57142857142858</ele><time>2026-04-11T11:17:18.999Z</time></trkpt><trkpt lat="43.10721196329137" lon="11.44211577169022"><ele>133.14285714285714</ele><time>2026-04-11T11:17:19.999Z</time></trkpt><trkpt lat="43.107163923098675" lon="11.442052225470638"><ele>132.71428571428572</ele><time>2026-04-11T11:17:20.998Z</time></trkpt><trkpt lat="43.10710751704545" lon="11.442002950635944"><ele>132.28571428571428</ele><time>2026-04-11T11:17:21.998Z</time></trkpt><trkpt lat="43.107057946629986" lon="11.441948729340476"><ele>131.85714285714286</ele><time>2026-04-11T11:17:22.998Z</time></trkpt><trkpt lat="43.10701735427915" lon="11.441876335110747"><ele>131.42857142857144</ele><time>2026-04-11T11:17:23.998Z</time></trkpt><trkpt lat="43.10695403249665" lon="11.441754375923542"><ele>131.0</ele><time>2026-04-11T11:17:25.998Z</time></trkpt><trkpt lat="43.10687447227791" lon="11.441633901626147"><ele>131.0</ele><time>2026-04-11T11:17:27.998Z</time></trkpt><trkpt lat="43.10682767423782" lon="11.441563409301851"><ele>131.0</ele><time>2026-04-11T11:17:28.998Z</time></trkpt><trkpt lat="43.10678154183878" lon="11.44149871415089"><ele>131.0</ele><time>2026-04-11T11:17:29.998Z</time></trkpt><trkpt lat="43.106691704956575" lon="11.441381433238575"><ele>131.0</ele><time>2026-04-11T11:17:31.998Z</time></trkpt><trkpt lat="43.10662142664765" lon="11.441270633927328"><ele>131.0</ele><time>2026-04-11T11:17:34Z</time></trkpt><trkpt lat="43.106551787562864" lon="11.441143450161528"><ele>131.0</ele><time>2026-04-11T11:17:36Z</time></trkpt><trkpt lat="43.10647754230583" lon="11.441037553246428"><ele>131.0</ele><time>2026-04-11T11:17:38Z</time></trkpt><trkpt lat="43.106397707565826" lon="11.440924959943755"><ele>131.0</ele><time>2026-04-11T11:17:40Z</time></trkpt><trkpt lat="43.106317011018234" lon="11.440811151189074"><ele>131.0</ele><time>2026-04-11T11:17:42Z</time></trkpt><trkpt lat="43.106235014617944" lon="11.440695509209961"><ele>131.0</ele><time>2026-04-11T11:17:44Z</time></trkpt><trkpt lat="43.106151717230624" lon="11.440578032461017"><ele>131.0</ele><time>2026-04-11T11:17:46Z</time></trkpt><trkpt lat="43.10604203543026" lon="11.44050357663849"><ele>131.0</ele><time>2026-04-11T11:17:48Z</time></trkpt><trkpt lat="43.10596930204883" lon="11.440400861209213"><ele>131.0</ele><time>2026-04-11T11:17:50Z</time></trkpt><trkpt lat="43.10589920539092" lon="11.440287841465278"><ele>131.0</ele><time>2026-04-11T11:17:52Z</time></trkpt><trkpt lat="43.10583007447383" lon="11.440191976587101"><ele>131.0</ele><time>2026-04-11T11:17:54Z</time></trkpt><trkpt lat="43.10575428447706" lon="11.440095013719604"><ele>131.0</ele><time>2026-04-11T11:17:56Z</time></trkpt><trkpt lat="43.105700531627676" lon="11.439964974706507"><ele>131.0</ele><time>2026-04-11T11:17:58Z</time></trkpt><trkpt lat="43.10565080747642" lon="11.439904412277834"><ele>131.0</ele><time>2026-04-11T11:18:00Z</time></trkpt><trkpt lat="43.10549959372711" lon="11.43974963880112"><ele>130.8</ele><time>2026-04-11T11:18:02Z</time></trkpt><trkpt lat="43.10543889459926" lon="11.43963974827607"><ele>130.6</ele><time>2026-04-11T11:18:04Z</time></trkpt><trkpt lat="43.10536696708127" lon="11.439544205260134"><ele>130.4</ele><time>2026-04-11T11:18:06Z</time></trkpt><trkpt lat="43.10528823365183" lon="11.439459295074677"><ele>130.2</ele><time>2026-04-11T11:18:08Z</time></trkpt><trkpt lat="43.10522833150845" lon="11.439359792765481"><ele>130.0</ele><time>2026-04-11T11:18:10Z</time></trkpt><trkpt lat="43.105172531114185" lon="11.439257647064505"><ele>130.0</ele><time>2026-04-11T11:18:12Z</time></trkpt><trkpt lat="43.1051196661662" lon="11.439168064978219"><ele>130.0</ele><time>2026-04-11T11:18:14Z</time></trkpt><trkpt lat="43.105079130916224" lon="11.439079514955564"><ele>130.0</ele><time>2026-04-11T11:18:16Z</time></trkpt><trkpt lat="43.10501935739903" lon="11.438992798392858"><ele>130.0</ele><time>2026-04-11T11:18:18Z</time></trkpt><trkpt lat="43.10496166404056" lon="11.438879780581399"><ele>130.0</ele><time>2026-04-11T11:18:20Z</time></trkpt><trkpt lat="43.104897115218265" lon="11.438850070279683"><ele>130.0</ele><time>2026-04-11T11:18:22Z</time></trkpt><trkpt lat="43.1048362515411" lon="11.438721974957561"><ele>130.2</ele><time>2026-04-11T11:18:24Z</time></trkpt><trkpt lat="43.10476936616481" lon="11.43863351531376"><ele>130.4</ele><time>2026-04-11T11:18:26Z</time></trkpt><trkpt lat="43.1047028970061" lon="11.438538333334643"><ele>130.6</ele><time>2026-04-11T11:18:28Z</time></trkpt><trkpt lat="43.10463465649268" lon="11.438449188122528"><ele>130.8</ele><time>2026-04-11T11:18:30Z</time></trkpt><trkpt lat="43.10456026051858" lon="11.438359218774186"><ele>131.0</ele><time>2026-04-11T11:18:32Z</time></trkpt><trkpt lat="43.104497844198306" lon="11.438258591319121"><ele>131.0</ele><time>2026-04-11T11:18:34Z</time></trkpt><trkpt lat="43.104430157117235" lon="11.438160052807012"><ele>131.0</ele><time>2026-04-11T11:18:36Z</time></trkpt><trkpt lat="43.10436585262679" lon="11.438072327675371"><ele>131.0</ele><time>2026-04-11T11:18:38Z</time></trkpt><trkpt lat="43.1042997080758" lon="11.437987564140313"><ele>131.0</ele><time>2026-04-11T11:18:40Z</time></trkpt><trkpt lat="43.104235073189095" lon="11.437903771842487"><ele>131.0</ele><time>2026-04-11T11:18:42Z</time></trkpt><trkpt lat="43.10417087991959" lon="11.437816253593418"><ele>131.0</ele><time>2026-04-11T11:18:44Z</time></trkpt><trkpt lat="43.10410827689768" lon="11.43772851501294"><ele>131.0</ele><time>2026-04-11T11:18:46Z</time></trkpt><trkpt lat="43.104045791155215" lon="11.437647662286844"><ele>131.0</ele><time>2026-04-11T11:18:48Z</time></trkpt><trkpt lat="43.10398863748467" lon="11.437564345972799"><ele>131.0</ele><time>2026-04-11T11:18:50Z</time></trkpt><trkpt lat="43.103931699710984" lon="11.437484233930917"><ele>131.0</ele><time>2026-04-11T11:18:51.999Z</time></trkpt><trkpt lat="43.103871954035824" lon="11.437406394433344"><ele>131.0</ele><time>2026-04-11T11:18:53.999Z</time></trkpt><trkpt lat="43.10381872301429" lon="11.437332932737045"><ele>131.16666666666666</ele><time>2026-04-11T11:18:55.999Z</time></trkpt><trkpt lat="43.10375781603483" lon="11.437262636325082"><ele>131.33333333333331</ele><time>2026-04-11T11:18:57.999Z</time></trkpt><trkpt lat="43.10370925082414" lon="11.437184440295795"><ele>131.5</ele><time>2026-04-11T11:18:59.999Z</time></trkpt><trkpt lat="43.10365537670143" lon="11.437113819499917"><ele>131.66666666666666</ele><time>2026-04-11T11:19:01.999Z</time></trkpt><trkpt lat="43.103602730250145" lon="11.437039424687734"><ele>131.83333333333334</ele><time>2026-04-11T11:19:03.999Z</time></trkpt><trkpt lat="43.10355092184952" lon="11.436961324197766"><ele>132.0</ele><time>2026-04-11T11:19:05.999Z</time></trkpt><trkpt lat="43.10349845328117" lon="11.436884220672122"><ele>132.28571428571428</ele><time>2026-04-11T11:19:07.999Z</time></trkpt><trkpt lat="43.1034503477955" lon="11.436815367051347"><ele>132.57142857142858</ele><time>2026-04-11T11:19:09.999Z</time></trkpt><trkpt lat="43.10340591912686" lon="11.43675023167955"><ele>132.85714285714286</ele><time>2026-04-11T11:19:11.999Z</time></trkpt><trkpt lat="43.103338865131136" lon="11.436661116045896"><ele>133.14285714285714</ele><time>2026-04-11T11:19:14.999Z</time></trkpt><trkpt lat="43.10329665953796" lon="11.43659133152599"><ele>133.42857142857142</ele><time>2026-04-11T11:19:16.999Z</time></trkpt><trkpt lat="43.10325101677547" lon="11.436529616811848"><ele>133.71428571428572</ele><time>2026-04-11T11:19:18.999Z</time></trkpt><trkpt lat="43.10319640681746" lon="11.43646244048793"><ele>134.0</ele><time>2026-04-11T11:19:20.999Z</time></trkpt><trkpt lat="43.10314452618903" lon="11.43639227578488"><ele>134.28571428571428</ele><time>2026-04-11T11:19:22.999Z</time></trkpt><trkpt lat="43.10309095398885" lon="11.436321552121614"><ele>134.57142857142856</ele><time>2026-04-11T11:19:24.999Z</time></trkpt><trkpt lat="43.10303778676481" lon="11.436252678424532"><ele>134.85714285714283</ele><time>2026-04-11T11:19:26.999Z</time></trkpt><trkpt lat="43.10298885277457" lon="11.436177576882244"><ele>135.14285714285714</ele><time>2026-04-11T11:19:28.999Z</time></trkpt><trkpt lat="43.10293515181267" lon="11.436104788400527"><ele>135.42857142857142</ele><time>2026-04-11T11:19:30.999Z</time></trkpt><trkpt lat="43.10288580069519" lon="11.4360319393818"><ele>135.7142857142857</ele><time>2026-04-11T11:19:32.999Z</time></trkpt><trkpt lat="43.10283904653623" lon="11.435955508290043"><ele>136.0</ele><time>2026-04-11T11:19:34.999Z</time></trkpt><trkpt lat="43.102791332127886" lon="11.435873404659397"><ele>136.0</ele><time>2026-04-11T11:19:38.001Z</time></trkpt><trkpt lat="43.102744707685986" lon="11.435802323409892"><ele>136.0</ele><time>2026-04-11T11:19:40.001Z</time></trkpt><trkpt lat="43.102701112475096" lon="11.435738468299329"><ele>136.0</ele><time>2026-04-11T11:19:42.001Z</time></trkpt><trkpt lat="43.10265074371596" lon="11.435670912365675"><ele>136.0</ele><time>2026-04-11T11:19:43.001Z</time></trkpt><trkpt lat="43.10260682999102" lon="11.43556788836504"><ele>136.0</ele><time>2026-04-11T11:19:44.001Z</time></trkpt><trkpt lat="43.10255363941605" lon="11.435487947548836"><ele>136.0</ele><time>2026-04-11T11:19:46.001Z</time></trkpt><trkpt lat="43.10249923676246" lon="11.435405182700896"><ele>136.0</ele><time>2026-04-11T11:19:48.001Z</time></trkpt><trkpt lat="43.10244666700618" lon="11.435324036273583"><ele>136.0</ele><time>2026-04-11T11:19:50.001Z</time></trkpt><trkpt lat="43.102394381076905" lon="11.435248324755603"><ele>136.0</ele><time>2026-04-11T11:19:52.001Z</time></trkpt><trkpt lat="43.102342177557375" lon="11.435177424688769"><ele>136.0</ele><time>2026-04-11T11:19:54.001Z</time></trkpt><trkpt lat="43.10229043099079" lon="11.435090414308782"><ele>136.0</ele><time>2026-04-11T11:19:57.001Z</time></trkpt><trkpt lat="43.102251612435516" lon="11.43500408283448"><ele>136.0</ele><time>2026-04-11T11:20:00.001Z</time></trkpt><trkpt lat="43.10222150898917" lon="11.43491674267755"><ele>136.42857142857142</ele><time>2026-04-11T11:20:03Z</time></trkpt><trkpt lat="43.10219883566908" lon="11.434831761804583"><ele>136.85714285714286</ele><time>2026-04-11T11:20:06Z</time></trkpt><trkpt lat="43.10219989211731" lon="11.43474480681892"><ele>137.28571428571428</ele><time>2026-04-11T11:20:08.999Z</time></trkpt><trkpt lat="43.102201736287796" lon="11.434650003144295"><ele>137.71428571428572</ele><time>2026-04-11T11:20:11.999Z</time></trkpt><trkpt lat="43.10221945285507" lon="11.434530722465924"><ele>138.14285714285714</ele><time>2026-04-11T11:20:14.999Z</time></trkpt><trkpt lat="43.102243965114475" lon="11.43441956498313"><ele>138.57142857142856</ele><time>2026-04-11T11:20:17.999Z</time></trkpt><trkpt lat="43.10226271856225" lon="11.434318359995402"><ele>139.0</ele><time>2026-04-11T11:20:20.999Z</time></trkpt><trkpt lat="43.10227590590839" lon="11.434219847523469"><ele>139.85714285714286</ele><time>2026-04-11T11:20:23.999Z</time></trkpt><trkpt lat="43.10229662386648" lon="11.43412401607437"><ele>140.71428571428572</ele><time>2026-04-11T11:20:26.999Z</time></trkpt><trkpt lat="43.10231138950725" lon="11.434022801483584"><ele>141.57142857142858</ele><time>2026-04-11T11:20:29.999Z</time></trkpt><trkpt lat="43.102323641836826" lon="11.433914497685176"><ele>142.42857142857144</ele><time>2026-04-11T11:20:32.999Z</time></trkpt><trkpt lat="43.10233430851613" lon="11.433817837812782"><ele>143.2857142857143</ele><time>2026-04-11T11:20:35.999Z</time></trkpt><trkpt lat="43.10234710096808" lon="11.433719859304718"><ele>144.14285714285714</ele><time>2026-04-11T11:20:38.999Z</time></trkpt><trkpt lat="43.1023611624323" lon="11.433621508227501"><ele>145.0</ele><time>2026-04-11T11:20:41.999Z</time></trkpt><trkpt lat="43.10236347500031" lon="11.433521072876866"><ele>145.16666666666669</ele><time>2026-04-11T11:20:44.999Z</time></trkpt><trkpt lat="43.1023591750941" lon="11.433422915891354"><ele>145.33333333333334</ele><time>2026-04-11T11:20:47.999Z</time></trkpt><trkpt lat="43.102348211535386" lon="11.433325001500044"><ele>145.5</ele><time>2026-04-11T11:20:50.999Z</time></trkpt><trkpt lat="43.10233447505254" lon="11.433217586214578"><ele>145.66666666666666</ele><time>2026-04-11T11:20:53.999Z</time></trkpt><trkpt lat="43.1023154417018" lon="11.433106912223742"><ele>145.83333333333331</ele><time>2026-04-11T11:20:56.998Z</time></trkpt><trkpt lat="43.10228965149961" lon="11.433004294547965"><ele>146.0</ele><time>2026-04-11T11:20:59.998Z</time></trkpt><trkpt lat="43.10226206555215" lon="11.432913813152078"><ele>146.0</ele><time>2026-04-11T11:21:02.998Z</time></trkpt><trkpt lat="43.1022313695021" lon="11.432825332251777"><ele>146.0</ele><time>2026-04-11T11:21:05.998Z</time></trkpt><trkpt lat="43.10218508551553" lon="11.43275059785344"><ele>146.0</ele><time>2026-04-11T11:21:08.998Z</time></trkpt><trkpt lat="43.10214106083526" lon="11.432681598525122"><ele>146.0</ele><time>2026-04-11T11:21:11.998Z</time></trkpt><trkpt lat="43.10208735818674" lon="11.43261918408109"><ele>146.0</ele><time>2026-04-11T11:21:14.998Z</time></trkpt><trkpt lat="43.102022012985444" lon="11.43255218897199"><ele>146.0</ele><time>2026-04-11T11:21:17.998Z</time></trkpt><trkpt lat="43.10196359853675" lon="11.432511523817181"><ele>146.0</ele><time>2026-04-11T11:21:20.998Z</time></trkpt><trkpt lat="43.10189224971196" lon="11.432478670858618"><ele>146.0</ele><time>2026-04-11T11:21:23.998Z</time></trkpt><trkpt lat="43.101822741468055" lon="11.432464632654598"><ele>146.0</ele><time>2026-04-11T11:21:26.998Z</time></trkpt><trkpt lat="43.101750465020146" lon="11.432455062471796"><ele>146.0</ele><time>2026-04-11T11:21:29.998Z</time></trkpt><trkpt lat="43.10167798166908" lon="11.432452293035508"><ele>146.0</ele><time>2026-04-11T11:21:32.998Z</time></trkpt><trkpt lat="43.10160663494674" lon="11.432456303298302"><ele>146.0</ele><time>2026-04-11T11:21:35.998Z</time></trkpt><trkpt lat="43.10153690155238" lon="11.432446991851386"><ele>146.0</ele><time>2026-04-11T11:21:38.998Z</time></trkpt><trkpt lat="43.10146824164756" lon="11.432438164365658"><ele>146.0</ele><time>2026-04-11T11:21:41.998Z</time></trkpt><trkpt lat="43.101397962601304" lon="11.432427353216088"><ele>146.85714285714286</ele><time>2026-04-11T11:21:45Z</time></trkpt><trkpt lat="43.10133270145505" lon="11.432438013891462"><ele>147.71428571428572</ele><time>2026-04-11T11:21:48Z</time></trkpt><trkpt lat="43.10125785549237" lon="11.432416489989105"><ele>148.57142857142856</ele><time>2026-04-11T11:21:51Z</time></trkpt><trkpt lat="43.101183666066134" lon="11.432415548382208"><ele>149.42857142857144</ele><time>2026-04-11T11:21:54Z</time></trkpt><trkpt lat="43.10110661076303" lon="11.43241436136685"><ele>150.2857142857143</ele><time>2026-04-11T11:21:57Z</time></trkpt><trkpt lat="43.10103394176096" lon="11.432398547096433"><ele>151.14285714285714</ele><time>2026-04-11T11:22:00Z</time></trkpt><trkpt lat="43.100959619063005" lon="11.432392216397453"><ele>152.0</ele><time>2026-04-11T11:22:02.999Z</time></trkpt><trkpt lat="43.100886626277116" lon="11.432384911766928"><ele>152.0</ele><time>2026-04-11T11:22:05.999Z</time></trkpt><trkpt lat="43.10080546886554" lon="11.43237962164803"><ele>152.0</ele><time>2026-04-11T11:22:09.999Z</time></trkpt><trkpt lat="43.10073913403123" lon="11.432379187639707"><ele>152.0</ele><time>2026-04-11T11:22:11.999Z</time></trkpt><trkpt lat="43.10067305012274" lon="11.432369797734172"><ele>152.0</ele><time>2026-04-11T11:22:14.999Z</time></trkpt><trkpt lat="43.100601045051846" lon="11.432360253110906"><ele>152.0</ele><time>2026-04-11T11:22:17.999Z</time></trkpt><trkpt lat="43.10053008671642" lon="11.432355602353402"><ele>152.0</ele><time>2026-04-11T11:22:20.999Z</time></trkpt><trkpt lat="43.100460755239745" lon="11.43234918989361"><ele>152.0</ele><time>2026-04-11T11:22:23.999Z</time></trkpt><trkpt lat="43.10037803924928" lon="11.432347536664006"><ele>152.85714285714286</ele><time>2026-04-11T11:22:27.999Z</time></trkpt><trkpt lat="43.100311436859286" lon="11.432340200171799"><ele>153.71428571428572</ele><time>2026-04-11T11:22:30.999Z</time></trkpt><trkpt lat="43.10024525762178" lon="11.43234543153579"><ele>154.57142857142858</ele><time>2026-04-11T11:22:33.999Z</time></trkpt><trkpt lat="43.100163889724044" lon="11.432330905430401"><ele>155.42857142857144</ele><time>2026-04-11T11:22:37.999Z</time></trkpt><trkpt lat="43.10008439205534" lon="11.432323769740924"><ele>156.28571428571428</ele><time>2026-04-11T11:22:41.999Z</time></trkpt><trkpt lat="43.10002161755138" lon="11.432334903638532"><ele>157.14285714285717</ele><time>2026-04-11T11:22:44.999Z</time></trkpt><trkpt lat="43.09994766695723" lon="11.432315286904146"><ele>158.0</ele><time>2026-04-11T11:22:47.999Z</time></trkpt><trkpt lat="43.09987257335029" lon="11.43229307613174"><ele>158.42857142857144</ele><time>2026-04-11T11:22:50.999Z</time></trkpt><trkpt lat="43.0998060855247" lon="11.432279077118205"><ele>158.85714285714286</ele><time>2026-04-11T11:22:53.999Z</time></trkpt><trkpt lat="43.09973250101191" lon="11.432284006531198"><ele>159.28571428571428</ele><time>2026-04-11T11:22:56.998Z</time></trkpt><trkpt lat="43.099663659115485" lon="11.432268046266953"><ele>159.71428571428572</ele><time>2026-04-11T11:22:59.998Z</time></trkpt><trkpt lat="43.09959337300999" lon="11.432265755964353"><ele>160.14285714285714</ele><time>2026-04-11T11:23:02.998Z</time></trkpt><trkpt lat="43.09952611233265" lon="11.432257785625763"><ele>160.57142857142858</ele><time>2026-04-11T11:23:05.998Z</time></trkpt><trkpt lat="43.09946089907668" lon="11.432248481821057"><ele>161.0</ele><time>2026-04-11T11:23:08.998Z</time></trkpt><trkpt lat="43.09939591280896" lon="11.432238643560689"><ele>161.0</ele><time>2026-04-11T11:23:11.998Z</time></trkpt><trkpt lat="43.09933163840038" lon="11.432231277877069"><ele>161.0</ele><time>2026-04-11T11:23:14.998Z</time></trkpt><trkpt lat="43.0992659107871" lon="11.432228355014036"><ele>161.0</ele><time>2026-04-11T11:23:17.998Z</time></trkpt><trkpt lat="43.09919918637603" lon="11.432224168842986"><ele>161.0</ele><time>2026-04-11T11:23:20.998Z</time></trkpt><trkpt lat="43.09913253367854" lon="11.43222594165663"><ele>161.0</ele><time>2026-04-11T11:23:23.998Z</time></trkpt><trkpt lat="43.099064755739256" lon="11.432208605124305"><ele>161.0</ele><time>2026-04-11T11:23:26.998Z</time></trkpt><trkpt lat="43.09897969851191" lon="11.432210508772766"><ele>161.0</ele><time>2026-04-11T11:23:30.998Z</time></trkpt><trkpt lat="43.0989022498588" lon="11.432192293549186"><ele>160.33333333333331</ele><time>2026-04-11T11:23:34.998Z</time></trkpt><trkpt lat="43.09883766457839" lon="11.432181008112439"><ele>159.66666666666666</ele><time>2026-04-11T11:23:37.998Z</time></trkpt><trkpt lat="43.09876587876441" lon="11.432163231907186"><ele>159.0</ele><time>2026-04-11T11:23:40.998Z</time></trkpt><trkpt lat="43.09869469153715" lon="11.432136325853469"><ele>158.33333333333334</ele><time>2026-04-11T11:23:43.998Z</time></trkpt><trkpt lat="43.09862528922871" lon="11.432104683945193"><ele>157.66666666666669</ele><time>2026-04-11T11:23:45.998Z</time></trkpt><trkpt lat="43.09855121791234" lon="11.432062347375243"><ele>157.0</ele><time>2026-04-11T11:23:48.998Z</time></trkpt><trkpt lat="43.09847528034642" lon="11.432006429480321"><ele>158.0</ele><time>2026-04-11T11:23:53Z</time></trkpt><trkpt lat="43.09841116031248" lon="11.43195573120426"><ele>159.0</ele><time>2026-04-11T11:23:56Z</time></trkpt><trkpt lat="43.09831994539082" lon="11.431882580321437"><ele>160.0</ele><time>2026-04-11T11:23:59Z</time></trkpt><trkpt lat="43.09825660649303" lon="11.431828842753022"><ele>161.0</ele><time>2026-04-11T11:24:02Z</time></trkpt><trkpt lat="43.09818666885494" lon="11.431779938620025"><ele>162.0</ele><time>2026-04-11T11:24:04.999Z</time></trkpt><trkpt lat="43.098116596646626" lon="11.431714487580264"><ele>163.0</ele><time>2026-04-11T11:24:07.999Z</time></trkpt><trkpt lat="43.09804154898533" lon="11.431655068948158"><ele>163.0</ele><time>2026-04-11T11:24:10.999Z</time></trkpt><trkpt lat="43.09796575540407" lon="11.431597343803151"><ele>163.0</ele><time>2026-04-11T11:24:13.999Z</time></trkpt><trkpt lat="43.0978888752146" lon="11.431547649617372"><ele>163.0</ele><time>2026-04-11T11:24:16.999Z</time></trkpt><trkpt lat="43.09781663747739" lon="11.431481604047066"><ele>163.0</ele><time>2026-04-11T11:24:19.999Z</time></trkpt><trkpt lat="43.09773954669686" lon="11.43142263681599"><ele>163.0</ele><time>2026-04-11T11:24:22.999Z</time></trkpt><trkpt lat="43.097662316856436" lon="11.431359146983661"><ele>163.0</ele><time>2026-04-11T11:24:25.999Z</time></trkpt><trkpt lat="43.097599248742966" lon="11.431308963168785"><ele>163.66666666666669</ele><time>2026-04-11T11:24:28.999Z</time></trkpt><trkpt lat="43.09751284675721" lon="11.431230854210675"><ele>164.33333333333334</ele><time>2026-04-11T11:24:31.999Z</time></trkpt><trkpt lat="43.09746296097696" lon="11.431172583659578"><ele>165.0</ele><time>2026-04-11T11:24:33.999Z</time></trkpt><trkpt lat="43.097386586709604" lon="11.431110823252547"><ele>165.66666666666666</ele><time>2026-04-11T11:24:36.999Z</time></trkpt><trkpt lat="43.097308392944754" lon="11.4310524487218"><ele>166.33333333333331</ele><time>2026-04-11T11:24:39.999Z</time></trkpt><trkpt lat="43.09722885675087" lon="11.430987784617944"><ele>167.0</ele><time>2026-04-11T11:24:42.999Z</time></trkpt><trkpt lat="43.09715927883213" lon="11.430931632272348"><ele>167.0</ele><time>2026-04-11T11:24:45.999Z</time></trkpt><trkpt lat="43.09708102673103" lon="11.430872509270712"><ele>167.0</ele><time>2026-04-11T11:24:48.999Z</time></trkpt><trkpt lat="43.09700422091276" lon="11.430817192897095"><ele>167.0</ele><time>2026-04-11T11:24:51.999Z</time></trkpt><trkpt lat="43.09693091252846" lon="11.43075735740666"><ele>167.0</ele><time>2026-04-11T11:24:54.999Z</time></trkpt><trkpt lat="43.096857653422475" lon="11.430692276410824"><ele>167.0</ele><time>2026-04-11T11:24:57.999Z</time></trkpt><trkpt lat="43.096791556120806" lon="11.430623331121188"><ele>167.0</ele><time>2026-04-11T11:25:00.998Z</time></trkpt><trkpt lat="43.0967261813055" lon="11.430552552271882"><ele>167.0</ele><time>2026-04-11T11:25:03.998Z</time></trkpt><trkpt lat="43.09666589049836" lon="11.430483953159056"><ele>167.0</ele><time>2026-04-11T11:25:06.998Z</time></trkpt><trkpt lat="43.09660586691535" lon="11.430401623337051"><ele>167.0</ele><time>2026-04-11T11:25:09.998Z</time></trkpt><trkpt lat="43.09653834901223" lon="11.430323695092717"><ele>167.0</ele><time>2026-04-11T11:25:12.998Z</time></trkpt><trkpt lat="43.09647254696641" lon="11.430243057340231"><ele>167.0</ele><time>2026-04-11T11:25:15.998Z</time></trkpt><trkpt lat="43.09640718048466" lon="11.430163957864538"><ele>167.0</ele><time>2026-04-11T11:25:18.998Z</time></trkpt><trkpt lat="43.09634694727883" lon="11.430088424161193"><ele>167.66666666666666</ele><time>2026-04-11T11:25:21.998Z</time></trkpt><trkpt lat="43.09628954869288" lon="11.430002393368683"><ele>168.33333333333331</ele><time>2026-04-11T11:25:24.998Z</time></trkpt><trkpt lat="43.09622457005006" lon="11.429931183478534"><ele>169.0</ele><time>2026-04-11T11:25:27.998Z</time></trkpt><trkpt lat="43.096163858167614" lon="11.429859617520213"><ele>169.66666666666666</ele><time>2026-04-11T11:25:30.998Z</time></trkpt><trkpt lat="43.0960983179277" lon="11.429785778710988"><ele>170.33333333333334</ele><time>2026-04-11T11:25:33.998Z</time></trkpt><trkpt lat="43.09603311684385" lon="11.429717903432316"><ele>171.0</ele><time>2026-04-11T11:25:36.998Z</time></trkpt><trkpt lat="43.095962624362194" lon="11.429662012285696"><ele>171.66666666666666</ele><time>2026-04-11T11:25:39.998Z</time></trkpt><trkpt lat="43.09589188869375" lon="11.429599324530736"><ele>172.33333333333334</ele><time>2026-04-11T11:25:42.998Z</time></trkpt><trkpt lat="43.095816877608236" lon="11.429541070076715"><ele>173.0</ele><time>2026-04-11T11:25:45.998Z</time></trkpt><trkpt lat="43.09574616787599" lon="11.429484823553482"><ele>173.66666666666669</ele><time>2026-04-11T11:25:48.998Z</time></trkpt><trkpt lat="43.095677856113575" lon="11.429421741488035"><ele>174.33333333333334</ele><time>2026-04-11T11:25:51.998Z</time></trkpt><trkpt lat="43.09560382583001" lon="11.429369259208784"><ele>175.0</ele><time>2026-04-11T11:25:54.997Z</time></trkpt><trkpt lat="43.09552708596674" lon="11.429310918213945"><ele>175.66666666666669</ele><time>2026-04-11T11:25:58Z</time></trkpt><trkpt lat="43.09545494419987" lon="11.429249812367003"><ele>176.33333333333334</ele><time>2026-04-11T11:26:01Z</time></trkpt><trkpt lat="43.09538446146628" lon="11.429198536885128"><ele>177.0</ele><time>2026-04-11T11:26:04Z</time></trkpt><trkpt lat="43.095315911831925" lon="11.429149633667143"><ele>177.66666666666666</ele><time>2026-04-11T11:26:06.999Z</time></trkpt><trkpt lat="43.095250212888246" lon="11.42910247852889"><ele>178.33333333333331</ele><time>2026-04-11T11:26:09.999Z</time></trkpt><trkpt lat="43.09518354475752" lon="11.42905393072232"><ele>179.0</ele><time>2026-04-11T11:26:12.999Z</time></trkpt><trkpt lat="43.095127696716204" lon="11.429006493905314"><ele>179.00000000000003</ele><time>2026-04-11T11:26:15.999Z</time></trkpt><trkpt lat="43.09506429708575" lon="11.428961374367406"><ele>179.0</ele><time>2026-04-11T11:26:18.999Z</time></trkpt><trkpt lat="43.09500198573952" lon="11.428918068213411"><ele>179.0</ele><time>2026-04-11T11:26:21.999Z</time></trkpt><trkpt lat="43.09493860719467" lon="11.428870409747871"><ele>179.0</ele><time>2026-04-11T11:26:24.999Z</time></trkpt><trkpt lat="43.09487198055924" lon="11.428819166852788"><ele>179.0</ele><time>2026-04-11T11:26:27.999Z</time></trkpt><trkpt lat="43.09480923997224" lon="11.428779301750541"><ele>179.00000000000003</ele><time>2026-04-11T11:26:30.999Z</time></trkpt><trkpt lat="43.0947518207152" lon="11.428735405554642"><ele>179.0</ele><time>2026-04-11T11:26:33.999Z</time></trkpt><trkpt lat="43.094693812202614" lon="11.42869366473882"><ele>180.00000000000003</ele><time>2026-04-11T11:26:36.999Z</time></trkpt><trkpt lat="43.09463012126163" lon="11.428654761160944"><ele>181.0</ele><time>2026-04-11T11:26:39.999Z</time></trkpt><trkpt lat="43.09457351487203" lon="11.428614697750522"><ele>182.0</ele><time>2026-04-11T11:26:42.999Z</time></trkpt><trkpt lat="43.09450865726587" lon="11.428564188323982"><ele>183.0</ele><time>2026-04-11T11:26:45.999Z</time></trkpt><trkpt lat="43.09444472472582" lon="11.428516756639539"><ele>184.0</ele><time>2026-04-11T11:26:48.999Z</time></trkpt><trkpt lat="43.09437995561747" lon="11.428460697146274"><ele>185.00000000000003</ele><time>2026-04-11T11:26:51.999Z</time></trkpt><trkpt lat="43.09432150141685" lon="11.428403202172568"><ele>186.0</ele><time>2026-04-11T11:26:54.999Z</time></trkpt><trkpt lat="43.09426151096702" lon="11.428355081816811"><ele>186.0</ele><time>2026-04-11T11:26:57.999Z</time></trkpt><trkpt lat="43.094191562352144" lon="11.428312261530282"><ele>186.0</ele><time>2026-04-11T11:27:00.999Z</time></trkpt><trkpt lat="43.0941202670272" lon="11.428256882227998"><ele>186.0</ele><time>2026-04-11T11:27:03.999Z</time></trkpt><trkpt lat="43.09404109771711" lon="11.42819692870676"><ele>186.0</ele><time>2026-04-11T11:27:06.998Z</time></trkpt><trkpt lat="43.09397261002284" lon="11.428148374573375"><ele>186.0</ele><time>2026-04-11T11:27:09.998Z</time></trkpt><trkpt lat="43.093909890609126" lon="11.42810191955967"><ele>186.0</ele><time>2026-04-11T11:27:11.998Z</time></trkpt><trkpt lat="43.093824372104955" lon="11.428047438402624"><ele>186.2857142857143</ele><time>2026-04-11T11:27:15.998Z</time></trkpt><trkpt lat="43.09375289879717" lon="11.428009046006716"><ele>186.57142857142858</ele><time>2026-04-11T11:27:18.998Z</time></trkpt><trkpt lat="43.093683377717326" lon="11.427967070931645"><ele>186.85714285714286</ele><time>2026-04-11T11:27:21.998Z</time></trkpt><trkpt lat="43.09361914885983" lon="11.427919625897045"><ele>187.14285714285717</ele><time>2026-04-11T11:27:24.998Z</time></trkpt><trkpt lat="43.09355369824843" lon="11.427873535016742"><ele>187.42857142857142</ele><time>2026-04-11T11:27:27.998Z</time></trkpt><trkpt lat="43.09348760215361" lon="11.427821758635579"><ele>187.71428571428572</ele><time>2026-04-11T11:27:30.998Z</time></trkpt><trkpt lat="43.09342944113518" lon="11.427770298838386"><ele>188.0</ele><time>2026-04-11T11:27:33.998Z</time></trkpt><trkpt lat="43.09336145139574" lon="11.427716298569244"><ele>188.5</ele><time>2026-04-11T11:27:36.998Z</time></trkpt><trkpt lat="43.0932961509686" lon="11.427672094691038"><ele>189.0</ele><time>2026-04-11T11:27:39.998Z</time></trkpt><trkpt lat="43.09323326368061" lon="11.427629984583852"><ele>189.5</ele><time>2026-04-11T11:27:42.998Z</time></trkpt><trkpt lat="43.0931651060078" lon="11.427581820303903"><ele>190.0</ele><time>2026-04-11T11:27:45.998Z</time></trkpt><trkpt lat="43.093101360429664" lon="11.427532283984782"><ele>190.5</ele><time>2026-04-11T11:27:48.998Z</time></trkpt><trkpt lat="43.09303058331155" lon="11.427480319993833"><ele>191.0</ele><time>2026-04-11T11:27:52.998Z</time></trkpt><trkpt lat="43.09295140651366" lon="11.427435851407436"><ele>191.42857142857144</ele><time>2026-04-11T11:27:55.998Z</time></trkpt><trkpt lat="43.09288607166977" lon="11.427373369034493"><ele>191.85714285714283</ele><time>2026-04-11T11:27:59.997Z</time></trkpt><trkpt lat="43.09281302114152" lon="11.427317345468644"><ele>192.28571428571428</ele><time>2026-04-11T11:28:04Z</time></trkpt><trkpt lat="43.09275074613318" lon="11.427272006385197"><ele>192.71428571428572</ele><time>2026-04-11T11:28:06Z</time></trkpt><trkpt lat="43.09269398347575" lon="11.427222661550394"><ele>193.14285714285717</ele><time>2026-04-11T11:28:09Z</time></trkpt><trkpt lat="43.09262470523852" lon="11.427180368370031"><ele>193.57142857142856</ele><time>2026-04-11T11:28:13Z</time></trkpt><trkpt lat="43.092568274695935" lon="11.42713750676062"><ele>194.0</ele><time>2026-04-11T11:28:15Z</time></trkpt><trkpt lat="43.09249923207396" lon="11.42708442132858"><ele>194.42857142857142</ele><time>2026-04-11T11:28:18Z</time></trkpt><trkpt lat="43.09243637090934" lon="11.427034068113404"><ele>194.85714285714286</ele><time>2026-04-11T11:28:20.999Z</time></trkpt><trkpt lat="43.092375238286905" lon="11.426984065683373"><ele>195.28571428571428</ele><time>2026-04-11T11:28:23.999Z</time></trkpt><trkpt lat="43.09230973059354" lon="11.426939141680252"><ele>195.71428571428572</ele><time>2026-04-11T11:28:26.999Z</time></trkpt><trkpt lat="43.09224585652908" lon="11.426894415535754"><ele>196.14285714285717</ele><time>2026-04-11T11:28:29.999Z</time></trkpt><trkpt lat="43.09218177909018" lon="11.426846741584407"><ele>196.57142857142858</ele><time>2026-04-11T11:28:32.999Z</time></trkpt><trkpt lat="43.09211725699985" lon="11.42680463214996"><ele>197.0</ele><time>2026-04-11T11:28:35.999Z</time></trkpt><trkpt lat="43.09205565606314" lon="11.426755815335"><ele>197.42857142857144</ele><time>2026-04-11T11:28:38.999Z</time></trkpt><trkpt lat="43.091993232193545" lon="11.426710706489713"><ele>197.85714285714286</ele><time>2026-04-11T11:28:41.999Z</time></trkpt><trkpt lat="43.09193280232357" lon="11.426662915453003"><ele>198.28571428571428</ele><time>2026-04-11T11:28:44.999Z</time></trkpt><trkpt lat="43.09186703956267" lon="11.4266226812621"><ele>198.71428571428572</ele><time>2026-04-11T11:28:47.999Z</time></trkpt><trkpt lat="43.09180063548569" lon="11.426576915716975"><ele>199.14285714285714</ele><time>2026-04-11T11:28:51.999Z</time></trkpt><trkpt lat="43.09174037331802" lon="11.426535962232762"><ele>199.57142857142858</ele><time>2026-04-11T11:28:53.999Z</time></trkpt><trkpt lat="43.091684788997455" lon="11.426485319103428"><ele>200.0</ele><time>2026-04-11T11:28:56.999Z</time></trkpt><trkpt lat="43.09162415613664" lon="11.42643160052358"><ele>199.83333333333334</ele><time>2026-04-11T11:28:59.999Z</time></trkpt><trkpt lat="43.09154876635938" lon="11.426392557132356"><ele>199.66666666666669</ele><time>2026-04-11T11:29:03.999Z</time></trkpt><trkpt lat="43.09146521441801" lon="11.426327114212985"><ele>199.5</ele><time>2026-04-11T11:29:06.999Z</time></trkpt><trkpt lat="43.091400135903214" lon="11.426290338552215"><ele>199.33333333333331</ele><time>2026-04-11T11:29:09.999Z</time></trkpt><trkpt lat="43.09133434174218" lon="11.426237078217085"><ele>199.16666666666666</ele><time>2026-04-11T11:29:12.999Z</time></trkpt><trkpt lat="43.09127189788122" lon="11.426189222779517"><ele>199.0</ele><time>2026-04-11T11:29:15.998Z</time></trkpt><trkpt lat="43.09120520291919" lon="11.426150816805468"><ele>199.66666666666666</ele><time>2026-04-11T11:29:18.998Z</time></trkpt><trkpt lat="43.09113724775776" lon="11.426103185869309"><ele>200.33333333333331</ele><time>2026-04-11T11:29:21.998Z</time></trkpt><trkpt lat="43.091070743458" lon="11.426057548146185"><ele>201.0</ele><time>2026-04-11T11:29:24.998Z</time></trkpt><trkpt lat="43.090998210683885" lon="11.426022307461517"><ele>201.66666666666669</ele><time>2026-04-11T11:29:27.998Z</time></trkpt><trkpt lat="43.090921808321944" lon="11.425994839376889"><ele>202.33333333333334</ele><time>2026-04-11T11:29:30.998Z</time></trkpt><trkpt lat="43.090837849217294" lon="11.425973244952866"><ele>203.0</ele><time>2026-04-11T11:29:33.998Z</time></trkpt><trkpt lat="43.090761445701204" lon="11.425951668585451"><ele>203.85714285714286</ele><time>2026-04-11T11:29:36.998Z</time></trkpt><trkpt lat="43.09068610906747" lon="11.425929185321502"><ele>204.71428571428572</ele><time>2026-04-11T11:29:39.998Z</time></trkpt><trkpt lat="43.09061138832407" lon="11.425909728454554"><ele>205.57142857142856</ele><time>2026-04-11T11:29:42.998Z</time></trkpt><trkpt lat="43.090541272973226" lon="11.425902349255606"><ele>206.42857142857144</ele><time>2026-04-11T11:29:45.998Z</time></trkpt><trkpt lat="43.09046795392077" lon="11.425878603555987"><ele>207.28571428571428</ele><time>2026-04-11T11:29:48.998Z</time></trkpt><trkpt lat="43.09039769882067" lon="11.425854462832518"><ele>208.14285714285714</ele><time>2026-04-11T11:29:51.998Z</time></trkpt><trkpt lat="43.09032998437629" lon="11.425837589814057"><ele>209.0</ele><time>2026-04-11T11:29:54.998Z</time></trkpt><trkpt lat="43.09025994074198" lon="11.425818014482358"><ele>209.0</ele><time>2026-04-11T11:29:57.998Z</time></trkpt><trkpt lat="43.090189934098895" lon="11.425798226382348"><ele>209.0</ele><time>2026-04-11T11:30:00.998Z</time></trkpt><trkpt lat="43.090121789710935" lon="11.425778987066625"><ele>209.0</ele><time>2026-04-11T11:30:03.998Z</time></trkpt><trkpt lat="43.09004991877098" lon="11.425758065361627"><ele>209.0</ele><time>2026-04-11T11:30:06.998Z</time></trkpt><trkpt lat="43.08997741996398" lon="11.425743120369265"><ele>209.0</ele><time>2026-04-11T11:30:10Z</time></trkpt><trkpt lat="43.08990827941317" lon="11.425717973429366"><ele>209.0</ele><time>2026-04-11T11:30:13Z</time></trkpt><trkpt lat="43.08983640962451" lon="11.425690078368499"><ele>209.0</ele><time>2026-04-11T11:30:16Z</time></trkpt><trkpt lat="43.089764995772235" lon="11.425673203087541"><ele>209.71428571428572</ele><time>2026-04-11T11:30:19Z</time></trkpt><trkpt lat="43.08969541693276" lon="11.425658860656219"><ele>210.42857142857142</ele><time>2026-04-11T11:30:22Z</time></trkpt><trkpt lat="43.089626469572536" lon="11.425645599389936"><ele>211.14285714285717</ele><time>2026-04-11T11:30:25Z</time></trkpt><trkpt lat="43.08955522797131" lon="11.425632394283856"><ele>211.85714285714286</ele><time>2026-04-11T11:30:28Z</time></trkpt><trkpt lat="43.08948656608558" lon="11.425608516048827"><ele>212.57142857142858</ele><time>2026-04-11T11:30:30.999Z</time></trkpt><trkpt lat="43.089415637250255" lon="11.425581763588196"><ele>213.2857142857143</ele><time>2026-04-11T11:30:33.999Z</time></trkpt><trkpt lat="43.08934589486251" lon="11.425552169495747"><ele>214.0</ele><time>2026-04-11T11:30:36.999Z</time></trkpt><trkpt lat="43.08927905381874" lon="11.425536332942533"><ele>214.00000000000003</ele><time>2026-04-11T11:30:39.999Z</time></trkpt><trkpt lat="43.089216842086316" lon="11.425518092780298"><ele>214.0</ele><time>2026-04-11T11:30:42.999Z</time></trkpt><trkpt lat="43.08914588467209" lon="11.425485711977748"><ele>214.0</ele><time>2026-04-11T11:30:46.999Z</time></trkpt><trkpt lat="43.089076347788726" lon="11.425447501556897"><ele>214.0</ele><time>2026-04-11T11:30:50.999Z</time></trkpt><trkpt lat="43.08902024742834" lon="11.425387533933684"><ele>214.0</ele><time>2026-04-11T11:30:54.999Z</time></trkpt><trkpt lat="43.0889743208775" lon="11.425301981300585"><ele>214.00000000000003</ele><time>2026-04-11T11:30:58.999Z</time></trkpt><trkpt lat="43.08894834433002" lon="11.425204330451182"><ele>214.0</ele><time>2026-04-11T11:31:02.999Z</time></trkpt><trkpt lat="43.0889435031692" lon="11.425097849030154"><ele>218.33333333333331</ele><time>2026-04-11T11:31:06.999Z</time></trkpt><trkpt lat="43.08894952166705" lon="11.424987952819787"><ele>222.66666666666666</ele><time>2026-04-11T11:31:10.999Z</time></trkpt><trkpt lat="43.08896527488478" lon="11.424886344957734"><ele>227.0</ele><time>2026-04-11T11:31:14.999Z</time></trkpt><trkpt lat="43.08898067377085" lon="11.424784790131628"><ele>231.33333333333331</ele><time>2026-04-11T11:31:18.999Z</time></trkpt><trkpt lat="43.0889893049658" lon="11.424680701798994"><ele>235.66666666666666</ele><time>2026-04-11T11:31:22.998Z</time></trkpt><trkpt lat="43.08900578025536" lon="11.424582344860475"><ele>240.0</ele><time>2026-04-11T11:31:26.998Z</time></trkpt><trkpt lat="43.08902347264964" lon="11.424476794038311"><ele>238.5</ele><time>2026-04-11T11:31:30.998Z</time></trkpt><trkpt lat="43.08903511365941" lon="11.424388900511959"><ele>237.0</ele><time>2026-04-11T11:31:33.998Z</time></trkpt><trkpt lat="43.089050354260166" lon="11.424294733286239"><ele>235.5</ele><time>2026-04-11T11:31:37.998Z</time></trkpt><trkpt lat="43.08907267814396" lon="11.424197637986051"><ele>234.0</ele><time>2026-04-11T11:31:41.998Z</time></trkpt><trkpt lat="43.08908481183707" lon="11.424094617996486"><ele>232.5</ele><time>2026-04-11T11:31:45.998Z</time></trkpt><trkpt lat="43.0891189309348" lon="11.423982795235677"><ele>231.0</ele><time>2026-04-11T11:31:48.998Z</time></trkpt><trkpt lat="43.089153050270184" lon="11.423867488430362"><ele>232.0</ele><time>2026-04-11T11:31:51.998Z</time></trkpt><trkpt lat="43.0891702603781" lon="11.423768358599753"><ele>233.0</ele><time>2026-04-11T11:31:54.998Z</time></trkpt><trkpt lat="43.0891840315238" lon="11.423669978032711"><ele>234.0</ele><time>2026-04-11T11:31:57.998Z</time></trkpt><trkpt lat="43.08919102646367" lon="11.423568025713498"><ele>235.0</ele><time>2026-04-11T11:32:00.998Z</time></trkpt><trkpt lat="43.08918504787576" lon="11.423478548154097"><ele>236.0</ele><time>2026-04-11T11:32:04.998Z</time></trkpt><trkpt lat="43.089183793652424" lon="11.423389830076857"><ele>237.0</ele><time>2026-04-11T11:32:08.998Z</time></trkpt><trkpt lat="43.08917060600415" lon="11.42328923354218"><ele>238.0</ele><time>2026-04-11T11:32:14Z</time></trkpt><trkpt lat="43.089149651026915" lon="11.42320732029596"><ele>238.0</ele><time>2026-04-11T11:32:18Z</time></trkpt><trkpt lat="43.08912564687557" lon="11.42312397227217"><ele>238.0</ele><time>2026-04-11T11:32:22Z</time></trkpt><trkpt lat="43.08908556291879" lon="11.423027534603271"><ele>238.0</ele><time>2026-04-11T11:32:27Z</time></trkpt><trkpt lat="43.08904212469812" lon="11.422955364607093"><ele>238.0</ele><time>2026-04-11T11:32:31Z</time></trkpt><trkpt lat="43.08900238332366" lon="11.422864187890454"><ele>238.0</ele><time>2026-04-11T11:32:34Z</time></trkpt><trkpt lat="43.088964044735185" lon="11.42278177464561"><ele>238.0</ele><time>2026-04-11T11:32:37.999Z</time></trkpt><trkpt lat="43.08892652354255" lon="11.42269158781612"><ele>238.0</ele><time>2026-04-11T11:32:41.999Z</time></trkpt><trkpt lat="43.08889296057153" lon="11.422605873967907"><ele>240.71428571428572</ele><time>2026-04-11T11:32:45.999Z</time></trkpt><trkpt lat="43.08885662207551" lon="11.422509200799293"><ele>243.42857142857144</ele><time>2026-04-11T11:32:49.999Z</time></trkpt><trkpt lat="43.08883548501667" lon="11.422418115423074"><ele>246.14285714285714</ele><time>2026-04-11T11:32:53.999Z</time></trkpt><trkpt lat="43.088814135645116" lon="11.422336779975268"><ele>248.85714285714286</ele><time>2026-04-11T11:32:56.999Z</time></trkpt><trkpt lat="43.08878523631903" lon="11.422241014736464"><ele>251.57142857142858</ele><time>2026-04-11T11:33:00.999Z</time></trkpt><trkpt lat="43.08875755437133" lon="11.422154499406831"><ele>254.28571428571428</ele><time>2026-04-11T11:33:04.999Z</time></trkpt><trkpt lat="43.088721804617066" lon="11.42206350140077"><ele>257.0</ele><time>2026-04-11T11:33:08.999Z</time></trkpt><trkpt lat="43.08868832681535" lon="11.42198127267614"><ele>257.0</ele><time>2026-04-11T11:33:12.999Z</time></trkpt><trkpt lat="43.088648800165444" lon="11.421893903954825"><ele>257.0</ele><time>2026-04-11T11:33:16.999Z</time></trkpt><trkpt lat="43.08860051026545" lon="11.421827951523225"><ele>257.0</ele><time>2026-04-11T11:33:20.999Z</time></trkpt><trkpt lat="43.08854643079039" lon="11.421766267109117"><ele>257.0</ele><time>2026-04-11T11:33:24.999Z</time></trkpt><trkpt lat="43.08848264219581" lon="11.421717840855823"><ele>257.0</ele><time>2026-04-11T11:33:28.999Z</time></trkpt><trkpt lat="43.08841325382258" lon="11.421696143803807"><ele>257.0</ele><time>2026-04-11T11:33:32.998Z</time></trkpt><trkpt lat="43.08834575386004" lon="11.421698549467735"><ele>257.0</ele><time>2026-04-11T11:33:36.998Z</time></trkpt><trkpt lat="43.08827927245449" lon="11.421721539927676"><ele>260.1428571428571</ele><time>2026-04-11T11:33:40.998Z</time></trkpt><trkpt lat="43.08821448202136" lon="11.421775888923152"><ele>263.2857142857143</ele><time>2026-04-11T11:33:45.998Z</time></trkpt><trkpt lat="43.08817101371448" lon="11.421858630135837"><ele>266.42857142857144</ele><time>2026-04-11T11:33:49.998Z</time></trkpt><trkpt lat="43.088144632592005" lon="11.421943921129058"><ele>269.57142857142856</ele><time>2026-04-11T11:33:53.998Z</time></trkpt><trkpt lat="43.08812002550246" lon="11.422051084216752"><ele>272.7142857142857</ele><time>2026-04-11T11:33:57.998Z</time></trkpt><trkpt lat="43.088104261125416" lon="11.422140715856418"><ele>275.85714285714283</ele><time>2026-04-11T11:34:01.998Z</time></trkpt><trkpt lat="43.08807739796849" lon="11.422246532049392"><ele>279.0</ele><time>2026-04-11T11:34:05.998Z</time></trkpt><trkpt lat="43.08805970014798" lon="11.422344408986612"><ele>279.4285714285714</ele><time>2026-04-11T11:34:09.998Z</time></trkpt><trkpt lat="43.08803282376154" lon="11.4224332005569"><ele>279.85714285714283</ele><time>2026-04-11T11:34:13.998Z</time></trkpt><trkpt lat="43.08801123778573" lon="11.422528135063802"><ele>280.2857142857143</ele><time>2026-04-11T11:34:17.998Z</time></trkpt><trkpt lat="43.08798835370928" lon="11.42262679290519"><ele>280.71428571428567</ele><time>2026-04-11T11:34:21Z</time></trkpt><trkpt lat="43.087963901165004" lon="11.422718396839866"><ele>281.1428571428571</ele><time>2026-04-11T11:34:25Z</time></trkpt><trkpt lat="43.087937440539484" lon="11.422822317700154"><ele>281.57142857142856</ele><time>2026-04-11T11:34:29Z</time></trkpt><trkpt lat="43.087914708899646" lon="11.422919466746816"><ele>282.0</ele><time>2026-04-11T11:34:33Z</time></trkpt><trkpt lat="43.087897025591566" lon="11.423002413327236"><ele>282.14285714285717</ele><time>2026-04-11T11:34:36Z</time></trkpt><trkpt lat="43.08787619614597" lon="11.423094619287307"><ele>282.2857142857143</ele><time>2026-04-11T11:34:40Z</time></trkpt><trkpt lat="43.08785091279028" lon="11.423182137816301"><ele>282.42857142857144</ele><time>2026-04-11T11:34:43.999Z</time></trkpt><trkpt lat="43.08782803314266" lon="11.423270824539529"><ele>282.57142857142856</ele><time>2026-04-11T11:34:47.999Z</time></trkpt><trkpt lat="43.087794909450814" lon="11.423347567399347"><ele>282.7142857142857</ele><time>2026-04-11T11:34:51.999Z</time></trkpt><trkpt lat="43.087740676238816" lon="11.423429853400702"><ele>282.8571428571429</ele><time>2026-04-11T11:34:55.999Z</time></trkpt><trkpt lat="43.087679268325935" lon="11.423498365896208"><ele>283.0</ele><time>2026-04-11T11:34:59.999Z</time></trkpt><trkpt lat="43.087600755015416" lon="11.42351333071826"><ele>283.0</ele><time>2026-04-11T11:35:03.999Z</time></trkpt><trkpt lat="43.08752880026588" lon="11.423460496939313"><ele>283.0</ele><time>2026-04-11T11:35:07.999Z</time></trkpt><trkpt lat="43.08748710346528" lon="11.423367658385095"><ele>283.0</ele><time>2026-04-11T11:35:11.999Z</time></trkpt><trkpt lat="43.08747196222003" lon="11.423262739370024"><ele>283.0</ele><time>2026-04-11T11:35:15.999Z</time></trkpt><trkpt lat="43.087452574360036" lon="11.423156359385047"><ele>283.0</ele><time>2026-04-11T11:35:19.999Z</time></trkpt><trkpt lat="43.08742754127214" lon="11.423056152376128"><ele>283.0</ele><time>2026-04-11T11:35:23.999Z</time></trkpt><trkpt lat="43.08740334333362" lon="11.422956044755963"><ele>286.8571428571429</ele><time>2026-04-11T11:35:27.999Z</time></trkpt><trkpt lat="43.08738250431713" lon="11.422851571807788"><ele>290.7142857142857</ele><time>2026-04-11T11:35:31.999Z</time></trkpt><trkpt lat="43.087363928348914" lon="11.422748692069991"><ele>294.57142857142856</ele><time>2026-04-11T11:35:35.998Z</time></trkpt><trkpt lat="43.08732856766338" lon="11.422662762221938"><ele>298.42857142857144</ele><time>2026-04-11T11:35:39.998Z</time></trkpt><trkpt lat="43.08726990249033" lon="11.422611501999457"><ele>302.2857142857143</ele><time>2026-04-11T11:35:43.998Z</time></trkpt><trkpt lat="43.087202077074124" lon="11.422610119880991"><ele>306.14285714285717</ele><time>2026-04-11T11:35:47.998Z</time></trkpt><trkpt lat="43.08715351546456" lon="11.422672828848135"><ele>310.0</ele><time>2026-04-11T11:35:51.998Z</time></trkpt><trkpt lat="43.08714612246408" lon="11.422765489457442"><ele>310.0</ele><time>2026-04-11T11:35:56.998Z</time></trkpt><trkpt lat="43.08714427753713" lon="11.422871643282363"><ele>310.0</ele><time>2026-04-11T11:36:01.998Z</time></trkpt><trkpt lat="43.08712374942547" lon="11.422974566287028"><ele>310.0</ele><time>2026-04-11T11:36:06.998Z</time></trkpt><trkpt lat="43.08710921906153" lon="11.423062418841283"><ele>310.0</ele><time>2026-04-11T11:36:10.998Z</time></trkpt><trkpt lat="43.08709217390454" lon="11.423153736531765"><ele>310.0</ele><time>2026-04-11T11:36:14.998Z</time></trkpt><trkpt lat="43.08708364281494" lon="11.42324183304545"><ele>310.0</ele><time>2026-04-11T11:36:18.998Z</time></trkpt><trkpt lat="43.087053684256134" lon="11.42332111984307"><ele>310.0</ele><time>2026-04-11T11:36:22.998Z</time></trkpt><trkpt lat="43.087029386091224" lon="11.423423411112898"><ele>310.0</ele><time>2026-04-11T11:36:28Z</time></trkpt><trkpt lat="43.0870236949848" lon="11.423512146505459"><ele>310.0</ele><time>2026-04-11T11:36:32Z</time></trkpt><trkpt lat="43.08699183275459" lon="11.423598539274824"><ele>310.0</ele><time>2026-04-11T11:36:36Z</time></trkpt><trkpt lat="43.08695787734974" lon="11.423687569426425"><ele>310.0</ele><time>2026-04-11T11:36:40Z</time></trkpt><trkpt lat="43.08690851681476" lon="11.423764318393953"><ele>310.0</ele><time>2026-04-11T11:36:44Z</time></trkpt><trkpt lat="43.08686171482934" lon="11.423838718005683"><ele>310.0</ele><time>2026-04-11T11:36:47.999Z</time></trkpt><trkpt lat="43.086798469182604" lon="11.423880105423356"><ele>310.0</ele><time>2026-04-11T11:36:51.999Z</time></trkpt><trkpt lat="43.08673212728753" lon="11.42388903978621"><ele>308.42857142857144</ele><time>2026-04-11T11:36:55.999Z</time></trkpt><trkpt lat="43.08666489831681" lon="11.423854807992527"><ele>306.85714285714283</ele><time>2026-04-11T11:36:59.999Z</time></trkpt><trkpt lat="43.08660105435072" lon="11.423841227988259"><ele>305.2857142857143</ele><time>2026-04-11T11:37:03.999Z</time></trkpt><trkpt lat="43.08652831580516" lon="11.423804896297272"><ele>303.7142857142857</ele><time>2026-04-11T11:37:08.999Z</time></trkpt><trkpt lat="43.0864612161783" lon="11.423758825869733"><ele>302.14285714285717</ele><time>2026-04-11T11:37:13.999Z</time></trkpt><trkpt lat="43.08640651832151" lon="11.423698331865687"><ele>300.57142857142856</ele><time>2026-04-11T11:37:18.999Z</time></trkpt><trkpt lat="43.08636956914066" lon="11.423618424284546"><ele>299.0</ele><time>2026-04-11T11:37:23.999Z</time></trkpt><trkpt lat="43.086375146986796" lon="11.423524625273744"><ele>303.1428571428571</ele><time>2026-04-11T11:37:28.999Z</time></trkpt><trkpt lat="43.086385551345785" lon="11.423430545101441"><ele>307.2857142857143</ele><time>2026-04-11T11:37:32.999Z</time></trkpt><trkpt lat="43.086428736221976" lon="11.423366130516165"><ele>311.42857142857144</ele><time>2026-04-11T11:37:36.999Z</time></trkpt><trkpt lat="43.0864717444704" lon="11.423286269867067"><ele>315.57142857142856</ele><time>2026-04-11T11:37:41.998Z</time></trkpt><trkpt lat="43.08648615482922" lon="11.423187243097976"><ele>319.7142857142857</ele><time>2026-04-11T11:37:46.998Z</time></trkpt><trkpt lat="43.08651513363159" lon="11.423097010739566"><ele>323.85714285714283</ele><time>2026-04-11T11:37:51.998Z</time></trkpt><trkpt lat="43.08653170981238" lon="11.422999558155412"><ele>328.0</ele><time>2026-04-11T11:37:56.998Z</time></trkpt><trkpt lat="43.08653139443059" lon="11.422907215447493"><ele>327.99999999999994</ele><time>2026-04-11T11:38:01.998Z</time></trkpt><trkpt lat="43.0865188553295" lon="11.4228157198037"><ele>328.0</ele><time>2026-04-11T11:38:06.998Z</time></trkpt><trkpt lat="43.08649570138239" lon="11.42272584981977"><ele>328.0</ele><time>2026-04-11T11:38:11.998Z</time></trkpt><trkpt lat="43.08644468918141" lon="11.42265627032072"><ele>328.0</ele><time>2026-04-11T11:38:16.998Z</time></trkpt><trkpt lat="43.086375396544064" lon="11.422611777814664"><ele>328.0</ele><time>2026-04-11T11:38:21.998Z</time></trkpt><trkpt lat="43.08629797751246" lon="11.422612344570382"><ele>327.99999999999994</ele><time>2026-04-11T11:38:26.998Z</time></trkpt><trkpt lat="43.08623047579762" lon="11.422668127075772"><ele>328.0</ele><time>2026-04-11T11:38:32Z</time></trkpt><trkpt lat="43.08618566458509" lon="11.422739003297714"><ele>327.99999999999994</ele><time>2026-04-11T11:38:36Z</time></trkpt><trkpt lat="43.08614496168496" lon="11.422813773063229"><ele>328.0</ele><time>2026-04-11T11:38:40Z</time></trkpt><trkpt lat="43.086103601746146" lon="11.422892152899648"><ele>328.0</ele><time>2026-04-11T11:38:44Z</time></trkpt><trkpt lat="43.08606397823094" lon="11.422978994465442"><ele>328.0</ele><time>2026-04-11T11:38:48Z</time></trkpt><trkpt lat="43.08601616396103" lon="11.423057546838098"><ele>328.0</ele><time>2026-04-11T11:38:52Z</time></trkpt><trkpt lat="43.08596220546443" lon="11.423140867873295"><ele>327.99999999999994</ele><time>2026-04-11T11:38:55.999Z</time></trkpt><trkpt lat="43.08591468937771" lon="11.423201633804364"><ele>328.0</ele><time>2026-04-11T11:38:58.999Z</time></trkpt><trkpt lat="43.08584218760375" lon="11.423257682276784"><ele>328.1428571428571</ele><time>2026-04-11T11:39:02.999Z</time></trkpt><trkpt lat="43.0857676993104" lon="11.423261607360486"><ele>328.2857142857143</ele><time>2026-04-11T11:39:06.999Z</time></trkpt><trkpt lat="43.085697278700884" lon="11.42321997658088"><ele>328.42857142857144</ele><time>2026-04-11T11:39:10.999Z</time></trkpt><trkpt lat="43.08563622682494" lon="11.423167685312386"><ele>328.57142857142856</ele><time>2026-04-11T11:39:14.999Z</time></trkpt><trkpt lat="43.08559337524724" lon="11.423095829189949"><ele>328.7142857142857</ele><time>2026-04-11T11:39:18.999Z</time></trkpt><trkpt lat="43.08556830252636" lon="11.423011901287051"><ele>328.85714285714283</ele><time>2026-04-11T11:39:22.999Z</time></trkpt><trkpt lat="43.08554052894566" lon="11.422927350935634"><ele>329.0</ele><time>2026-04-11T11:39:26.999Z</time></trkpt><trkpt lat="43.08551885447812" lon="11.422841466318166"><ele>331.85714285714283</ele><time>2026-04-11T11:39:30.999Z</time></trkpt><trkpt lat="43.08548953827393" lon="11.422733725154771"><ele>334.7142857142857</ele><time>2026-04-11T11:39:34.999Z</time></trkpt><trkpt lat="43.08546227814104" lon="11.422628890545921"><ele>337.57142857142856</ele><time>2026-04-11T11:39:38.999Z</time></trkpt><trkpt lat="43.085436641021296" lon="11.422538784424338"><ele>340.42857142857144</ele><time>2026-04-11T11:39:41.999Z</time></trkpt><trkpt lat="43.08541201364883" lon="11.422457682992713"><ele>343.2857142857143</ele><time>2026-04-11T11:39:44.999Z</time></trkpt><trkpt lat="43.08539382050358" lon="11.42237258607203"><ele>346.1428571428571</ele><time>2026-04-11T11:39:47.999Z</time></trkpt><trkpt lat="43.08536356074619" lon="11.422264202185117"><ele>349.0</ele><time>2026-04-11T11:39:50.998Z</time></trkpt><trkpt lat="43.08533117843922" lon="11.422167894629968"><ele>347.1428571428571</ele><time>2026-04-11T11:39:54.998Z</time></trkpt><trkpt lat="43.08529376228499" lon="11.422084331490888"><ele>345.2857142857143</ele><time>2026-04-11T11:39:57.998Z</time></trkpt><trkpt lat="43.085246385852955" lon="11.422003512956048"><ele>343.42857142857144</ele><time>2026-04-11T11:40:00.998Z</time></trkpt><trkpt lat="43.08518263496007" lon="11.42193513524"><ele>341.57142857142856</ele><time>2026-04-11T11:40:03.998Z</time></trkpt><trkpt lat="43.08512057460345" lon="11.42188036667955"><ele>339.7142857142857</ele><time>2026-04-11T11:40:06.998Z</time></trkpt><trkpt lat="43.08506212587284" lon="11.421834721590777"><ele>337.85714285714283</ele><time>2026-04-11T11:40:10.998Z</time></trkpt><trkpt lat="43.08500061577877" lon="11.421789160899877"><ele>336.0</ele><time>2026-04-11T11:40:15.998Z</time></trkpt><trkpt lat="43.08494122497815" lon="11.421746181461478"><ele>337.5</ele><time>2026-04-11T11:40:19.998Z</time></trkpt><trkpt lat="43.0848779488002" lon="11.421704951976285"><ele>339.0</ele><time>2026-04-11T11:40:23.998Z</time></trkpt><trkpt lat="43.08481567523762" lon="11.421667805486472"><ele>340.5</ele><time>2026-04-11T11:40:26.998Z</time></trkpt><trkpt lat="43.08474424615724" lon="11.421633803330016"><ele>342.0</ele><time>2026-04-11T11:40:29.998Z</time></trkpt><trkpt lat="43.08467039206202" lon="11.421605286226955"><ele>343.5</ele><time>2026-04-11T11:40:32.998Z</time></trkpt><trkpt lat="43.08459045944776" lon="11.421577516909682"><ele>345.0</ele><time>2026-04-11T11:40:36Z</time></trkpt><trkpt lat="43.08450548261953" lon="11.421538189266467"><ele>345.0</ele><time>2026-04-11T11:40:39Z</time></trkpt><trkpt lat="43.0844221960073" lon="11.421497318060975"><ele>345.0</ele><time>2026-04-11T11:40:42Z</time></trkpt><trkpt lat="43.08434830831335" lon="11.421458716037023"><ele>345.0</ele><time>2026-04-11T11:40:45Z</time></trkpt><trkpt lat="43.08426746457277" lon="11.42139222322512"><ele>345.0</ele><time>2026-04-11T11:40:48Z</time></trkpt><trkpt lat="43.0841870775428" lon="11.421337368835527"><ele>345.0</ele><time>2026-04-11T11:40:51Z</time></trkpt><trkpt lat="43.08412146679729" lon="11.42127772618544"><ele>345.0</ele><time>2026-04-11T11:40:54Z</time></trkpt><trkpt lat="43.08406476195524" lon="11.42122877902835"><ele>345.2857142857143</ele><time>2026-04-11T11:40:57Z</time></trkpt><trkpt lat="43.08399760453866" lon="11.421177259794732"><ele>345.57142857142856</ele><time>2026-04-11T11:41:01Z</time></trkpt><trkpt lat="43.08392818951082" lon="11.421128205000151"><ele>345.8571428571429</ele><time>2026-04-11T11:41:04.999Z</time></trkpt><trkpt lat="43.08388181851185" lon="11.421069193738873"><ele>346.1428571428571</ele><time>2026-04-11T11:41:07.999Z</time></trkpt><trkpt lat="43.08381122826223" lon="11.42102247377166"><ele>346.4285714285714</ele><time>2026-04-11T11:41:11.999Z</time></trkpt><trkpt lat="43.08374014439444" lon="11.4209865597267"><ele>346.7142857142857</ele><time>2026-04-11T11:41:15.999Z</time></trkpt><trkpt lat="43.08367461475917" lon="11.420952246763212"><ele>347.0</ele><time>2026-04-11T11:41:19.999Z</time></trkpt><trkpt lat="43.08360962215189" lon="11.420929899552588"><ele>347.0</ele><time>2026-04-11T11:41:23.999Z</time></trkpt><trkpt lat="43.08354141796921" lon="11.420912681282935"><ele>347.0</ele><time>2026-04-11T11:41:27.999Z</time></trkpt><trkpt lat="43.083472329827416" lon="11.420898384472585"><ele>347.0</ele><time>2026-04-11T11:41:31.999Z</time></trkpt><trkpt lat="43.08340488926744" lon="11.42087493644066"><ele>347.0</ele><time>2026-04-11T11:41:35.999Z</time></trkpt><trkpt lat="43.08333648761518" lon="11.42084933162625"><ele>347.0</ele><time>2026-04-11T11:41:39.999Z</time></trkpt><trkpt lat="43.08326735169475" lon="11.42083354795687"><ele>347.0</ele><time>2026-04-11T11:41:43.999Z</time></trkpt><trkpt lat="43.08319783250525" lon="11.420808252496881"><ele>347.0</ele><time>2026-04-11T11:41:47.999Z</time></trkpt><trkpt lat="43.0831236456169" lon="11.420788477917354"><ele>348.14285714285717</ele><time>2026-04-11T11:41:51.999Z</time></trkpt><trkpt lat="43.08305203937663" lon="11.420772784003068"><ele>349.2857142857143</ele><time>2026-04-11T11:41:55.998Z</time></trkpt><trkpt lat="43.082981541754556" lon="11.42073990649298"><ele>350.42857142857144</ele><time>2026-04-11T11:41:59.998Z</time></trkpt><trkpt lat="43.08291211730971" lon="11.420715912908227"><ele>351.57142857142856</ele><time>2026-04-11T11:42:03.998Z</time></trkpt><trkpt lat="43.0828426811982" lon="11.420691295323449"><ele>352.7142857142857</ele><time>2026-04-11T11:42:07.998Z</time></trkpt><trkpt lat="43.08277116062453" lon="11.420674817791586"><ele>353.85714285714283</ele><time>2026-04-11T11:42:11.998Z</time></trkpt><trkpt lat="43.08270220157854" lon="11.420647155064765"><ele>355.0</ele><time>2026-04-11T11:42:15.998Z</time></trkpt><trkpt lat="43.08262583317468" lon="11.420628222099632"><ele>355.0</ele><time>2026-04-11T11:42:19.998Z</time></trkpt><trkpt lat="43.082554527492604" lon="11.420608445557372"><ele>355.0</ele><time>2026-04-11T11:42:23.998Z</time></trkpt><trkpt lat="43.08247638713155" lon="11.420582686268077"><ele>355.0</ele><time>2026-04-11T11:42:27.998Z</time></trkpt><trkpt lat="43.082409649031035" lon="11.420560829583405"><ele>355.0</ele><time>2026-04-11T11:42:30.998Z</time></trkpt><trkpt lat="43.08233849225252" lon="11.420542352195053"><ele>355.0</ele><time>2026-04-11T11:42:33.998Z</time></trkpt><trkpt lat="43.08226299739181" lon="11.420534492914497"><ele>355.0</ele><time>2026-04-11T11:42:36.998Z</time></trkpt><trkpt lat="43.08216175754298" lon="11.420544841550823"><ele>354.85714285714283</ele><time>2026-04-11T11:42:39.998Z</time></trkpt><trkpt lat="43.08209697859121" lon="11.42055108207523"><ele>354.7142857142857</ele><time>2026-04-11T11:42:43Z</time></trkpt><trkpt lat="43.08202596407325" lon="11.420558701086808"><ele>354.57142857142856</ele><time>2026-04-11T11:42:46Z</time></trkpt><trkpt lat="43.08195480615217" lon="11.420551113145283"><ele>354.42857142857144</ele><time>2026-04-11T11:42:49Z</time></trkpt><trkpt lat="43.08187263975209" lon="11.42053601518589"><ele>354.2857142857143</ele><time>2026-04-11T11:42:53Z</time></trkpt><trkpt lat="43.08180423013241" lon="11.420502239705142"><ele>354.14285714285717</ele><time>2026-04-11T11:42:56Z</time></trkpt><trkpt lat="43.08173986407512" lon="11.420460923229461"><ele>354.0</ele><time>2026-04-11T11:42:59Z</time></trkpt><trkpt lat="43.08167598676919" lon="11.420412440935332"><ele>354.8333333333333</ele><time>2026-04-11T11:43:02Z</time></trkpt><trkpt lat="43.081612088516295" lon="11.42034991076294"><ele>355.6666666666667</ele><time>2026-04-11T11:43:05Z</time></trkpt><trkpt lat="43.081549597976796" lon="11.42027906239155"><ele>356.5</ele><time>2026-04-11T11:43:08.999Z</time></trkpt><trkpt lat="43.08148983876012" lon="11.420199801349867"><ele>357.33333333333337</ele><time>2026-04-11T11:43:12.999Z</time></trkpt><trkpt lat="43.08143579545645" lon="11.420130732356961"><ele>358.1666666666667</ele><time>2026-04-11T11:43:16.999Z</time></trkpt><trkpt lat="43.081394164900836" lon="11.420059545343399"><ele>359.0</ele><time>2026-04-11T11:43:20.999Z</time></trkpt><trkpt lat="43.08134853553627" lon="11.419990524225673"><ele>360.0</ele><time>2026-04-11T11:43:24.999Z</time></trkpt><trkpt lat="43.08130457275213" lon="11.419924246299853"><ele>361.0</ele><time>2026-04-11T11:43:28.999Z</time></trkpt><trkpt lat="43.08127353698705" lon="11.419845193335002"><ele>362.0</ele><time>2026-04-11T11:43:32.999Z</time></trkpt><trkpt lat="43.08123473358758" lon="11.419770083041067"><ele>363.0</ele><time>2026-04-11T11:43:36.999Z</time></trkpt><trkpt lat="43.081191534153845" lon="11.419706841193067"><ele>364.0</ele><time>2026-04-11T11:43:39.999Z</time></trkpt><trkpt lat="43.08114186828844" lon="11.419640701328328"><ele>365.0</ele><time>2026-04-11T11:43:42.999Z</time></trkpt><trkpt lat="43.08107395369919" lon="11.419585202177235"><ele>366.0</ele><time>2026-04-11T11:43:46.999Z</time></trkpt><trkpt lat="43.081012750377106" lon="11.419542942766725"><ele>366.0</ele><time>2026-04-11T11:43:49.999Z</time></trkpt><trkpt lat="43.08095067406059" lon="11.419511705594424"><ele>366.0</ele><time>2026-04-11T11:43:52.999Z</time></trkpt><trkpt lat="43.0808908541245" lon="11.419481772252396"><ele>366.0</ele><time>2026-04-11T11:43:55.999Z</time></trkpt><trkpt lat="43.080822562746135" lon="11.419447642594784"><ele>366.0</ele><time>2026-04-11T11:43:58.999Z</time></trkpt><trkpt lat="43.08074774290779" lon="11.419423672208072"><ele>366.0</ele><time>2026-04-11T11:44:02.999Z</time></trkpt><trkpt lat="43.0806809887341" lon="11.419409332896322"><ele>366.0</ele><time>2026-04-11T11:44:06.998Z</time></trkpt><trkpt lat="43.080607591158106" lon="11.419389486860911"><ele>366.0</ele><time>2026-04-11T11:44:11.998Z</time></trkpt><trkpt lat="43.08054053157441" lon="11.419385836881624"><ele>368.7142857142857</ele><time>2026-04-11T11:44:16.998Z</time></trkpt><trkpt lat="43.08046605586595" lon="11.419375064830124"><ele>371.42857142857144</ele><time>2026-04-11T11:44:21.998Z</time></trkpt><trkpt lat="43.08040132921835" lon="11.41935500577297"><ele>374.1428571428571</ele><time>2026-04-11T11:44:26.998Z</time></trkpt><trkpt lat="43.080341762213074" lon="11.419317195690445"><ele>376.8571428571429</ele><time>2026-04-11T11:44:30.998Z</time></trkpt><trkpt lat="43.08028776843215" lon="11.419268291267079"><ele>379.57142857142856</ele><time>2026-04-11T11:44:34.998Z</time></trkpt><trkpt lat="43.08023146636598" lon="11.419191711535069"><ele>382.2857142857143</ele><time>2026-04-11T11:44:39.998Z</time></trkpt><trkpt lat="43.08019166266691" lon="11.419100403146043"><ele>385.0</ele><time>2026-04-11T11:44:44.998Z</time></trkpt><trkpt lat="43.08016430949255" lon="11.419004258125533"><ele>385.0</ele><time>2026-04-11T11:44:50Z</time></trkpt><trkpt lat="43.080123757802106" lon="11.418917892246272"><ele>385.0</ele><time>2026-04-11T11:44:55Z</time></trkpt><trkpt lat="43.080070566326704" lon="11.418844815035978"><ele>385.0</ele><time>2026-04-11T11:45:00Z</time></trkpt><trkpt lat="43.08001476902551" lon="11.418772315198229"><ele>385.0</ele><time>2026-04-11T11:45:05Z</time></trkpt><trkpt lat="43.079962698905945" lon="11.418719847594767"><ele>385.0</ele><time>2026-04-11T11:45:09Z</time></trkpt><trkpt lat="43.07989572785893" lon="11.418666610712338"><ele>385.0</ele><time>2026-04-11T11:45:14Z</time></trkpt><trkpt lat="43.07982695431486" lon="11.418619689668827"><ele>385.0</ele><time>2026-04-11T11:45:18.999Z</time></trkpt><trkpt lat="43.07975984745912" lon="11.418597695309334"><ele>386.7142857142857</ele><time>2026-04-11T11:45:22.999Z</time></trkpt><trkpt lat="43.079683952391136" lon="11.418561645689984"><ele>388.42857142857144</ele><time>2026-04-11T11:45:27.999Z</time></trkpt><trkpt lat="43.079621517067864" lon="11.418530986355531"><ele>390.1428571428571</ele><time>2026-04-11T11:45:31.999Z</time></trkpt><trkpt lat="43.079562975522315" lon="11.418499178757179"><ele>391.8571428571429</ele><time>2026-04-11T11:45:35.999Z</time></trkpt><trkpt lat="43.07948204553857" lon="11.418464169611921"><ele>393.57142857142856</ele><time>2026-04-11T11:45:39.999Z</time></trkpt><trkpt lat="43.07942105398726" lon="11.418438235234271"><ele>395.2857142857143</ele><time>2026-04-11T11:45:43.999Z</time></trkpt><trkpt lat="43.079344382963754" lon="11.418403567504111"><ele>397.0</ele><time>2026-04-11T11:45:47.999Z</time></trkpt><trkpt lat="43.07928404520648" lon="11.418370766476547"><ele>397.00000000000006</ele><time>2026-04-11T11:45:51.999Z</time></trkpt><trkpt lat="43.07922281635246" lon="11.418322110323093"><ele>397.0</ele><time>2026-04-11T11:45:55.999Z</time></trkpt><trkpt lat="43.07915898375431" lon="11.418253647969813"><ele>397.0</ele><time>2026-04-11T11:45:59.999Z</time></trkpt><trkpt lat="43.07910637780855" lon="11.418176808819"><ele>397.0</ele><time>2026-04-11T11:46:03.999Z</time></trkpt><trkpt lat="43.079053942116" lon="11.418113980710228"><ele>397.00000000000006</ele><time>2026-04-11T11:46:06.999Z</time></trkpt><trkpt lat="43.078995596997814" lon="11.41806115496567"><ele>397.0</ele><time>2026-04-11T11:46:10.999Z</time></trkpt><trkpt lat="43.07892027016163" lon="11.41801218349082"><ele>396.6666666666667</ele><time>2026-04-11T11:46:14.998Z</time></trkpt><trkpt lat="43.078848110492565" lon="11.417985814251905"><ele>396.33333333333337</ele><time>2026-04-11T11:46:18.998Z</time></trkpt><trkpt lat="43.0787695486132" lon="11.41796673935289"><ele>396.0</ele><time>2026-04-11T11:46:22.998Z</time></trkpt><trkpt lat="43.078700397501656" lon="11.417956142964291"><ele>395.66666666666663</ele><time>2026-04-11T11:46:27.998Z</time></trkpt><trkpt lat="43.07862077060915" lon="11.417942106894285"><ele>395.3333333333333</ele><time>2026-04-11T11:46:33.998Z</time></trkpt><trkpt lat="43.07854254519382" lon="11.41793068151334"><ele>395.0</ele><time>2026-04-11T11:46:38.998Z</time></trkpt><trkpt lat="43.0784614655865" lon="11.4179321107682"><ele>395.0</ele><time>2026-04-11T11:46:43.998Z</time></trkpt><trkpt lat="43.07838109213243" lon="11.417928858306711"><ele>395.0</ele><time>2026-04-11T11:46:48.998Z</time></trkpt><trkpt lat="43.07830439507793" lon="11.417925960299083"><ele>395.0</ele><time>2026-04-11T11:46:54Z</time></trkpt><trkpt lat="43.078240781888375" lon="11.417918145835346"><ele>395.0</ele><time>2026-04-11T11:46:58Z</time></trkpt><trkpt lat="43.07817632805754" lon="11.417911397982362"><ele>395.0</ele><time>2026-04-11T11:47:02Z</time></trkpt><trkpt lat="43.07811247992479" lon="11.417904050671755"><ele>395.0</ele><time>2026-04-11T11:47:06Z</time></trkpt><trkpt lat="43.07804745915779" lon="11.417899560426768"><ele>395.0</ele><time>2026-04-11T11:47:10Z</time></trkpt><trkpt lat="43.07798281654667" lon="11.417900282232393"><ele>397.0</ele><time>2026-04-11T11:47:14Z</time></trkpt><trkpt lat="43.077918117073764" lon="11.417895254728768"><ele>399.0</ele><time>2026-04-11T11:47:18Z</time></trkpt><trkpt lat="43.07784410206055" lon="11.41790276269624"><ele>401.0</ele><time>2026-04-11T11:47:22Z</time></trkpt><trkpt lat="43.07775987918861" lon="11.417909206115961"><ele>403.0</ele><time>2026-04-11T11:47:25.999Z</time></trkpt><trkpt lat="43.0776949973314" lon="11.417917900778567"><ele>405.0</ele><time>2026-04-11T11:47:28.999Z</time></trkpt><trkpt lat="43.07763115059095" lon="11.417916637230428"><ele>407.0</ele><time>2026-04-11T11:47:31.999Z</time></trkpt><trkpt lat="43.07755950425034" lon="11.417907380771144"><ele>409.0</ele><time>2026-04-11T11:47:34.999Z</time></trkpt><trkpt lat="43.07748703231862" lon="11.417889810543207"><ele>412.00000000000006</ele><time>2026-04-11T11:47:37.999Z</time></trkpt><trkpt lat="43.07741852003837" lon="11.417855829567603"><ele>415.0</ele><time>2026-04-11T11:47:39.999Z</time></trkpt><trkpt lat="43.07735422902048" lon="11.417801208649628"><ele>418.0</ele><time>2026-04-11T11:47:42.999Z</time></trkpt><trkpt lat="43.0772871048163" lon="11.417753395053593"><ele>421.0</ele><time>2026-04-11T11:47:45.999Z</time></trkpt><trkpt lat="43.07721965720719" lon="11.417701245563272"><ele>424.00000000000006</ele><time>2026-04-11T11:47:48.999Z</time></trkpt><trkpt lat="43.077150497550655" lon="11.417661424004047"><ele>427.0</ele><time>2026-04-11T11:47:51.999Z</time></trkpt><trkpt lat="43.07707981313961" lon="11.41760897818476"><ele>427.0</ele><time>2026-04-11T11:47:55.999Z</time></trkpt><trkpt lat="43.077017842622894" lon="11.41755522492783"><ele>427.0</ele><time>2026-04-11T11:47:58.999Z</time></trkpt><trkpt lat="43.07695912300651" lon="11.417492294939388"><ele>427.0</ele><time>2026-04-11T11:48:01.999Z</time></trkpt><trkpt lat="43.07690788539324" lon="11.417407573975355"><ele>427.0</ele><time>2026-04-11T11:48:04.999Z</time></trkpt><trkpt lat="43.07686808975408" lon="11.41732566584381"><ele>427.0</ele><time>2026-04-11T11:48:07.999Z</time></trkpt><trkpt lat="43.0768452534736" lon="11.417242856210814"><ele>427.0</ele><time>2026-04-11T11:48:11.999Z</time></trkpt><trkpt lat="43.076820697505795" lon="11.41715097332149"><ele>427.0</ele><time>2026-04-11T11:48:15.999Z</time></trkpt><trkpt lat="43.07678877234359" lon="11.417068153311474"><ele>427.42857142857144</ele><time>2026-04-11T11:48:19.998Z</time></trkpt><trkpt lat="43.07675115863784" lon="11.41698973138206"><ele>427.8571428571429</ele><time>2026-04-11T11:48:23.998Z</time></trkpt><trkpt lat="43.076702404199324" lon="11.4169312844796"><ele>428.2857142857143</ele><time>2026-04-11T11:48:27.998Z</time></trkpt><trkpt lat="43.07664326855107" lon="11.41689611502978"><ele>428.7142857142857</ele><time>2026-04-11T11:48:31.998Z</time></trkpt><trkpt lat="43.076572842711776" lon="11.416860330685553"><ele>429.14285714285717</ele><time>2026-04-11T11:48:36.998Z</time></trkpt><trkpt lat="43.07650030727456" lon="11.416839476448189"><ele>429.57142857142856</ele><time>2026-04-11T11:48:41.998Z</time></trkpt><trkpt lat="43.076437443719705" lon="11.41682063985159"><ele>430.0</ele><time>2026-04-11T11:48:45.998Z</time></trkpt><trkpt lat="43.07636540254218" lon="11.416796889156876"><ele>430.00000000000006</ele><time>2026-04-11T11:48:49.998Z</time></trkpt><trkpt lat="43.07629502681094" lon="11.416784724844273"><ele>430.0</ele><time>2026-04-11T11:48:53.998Z</time></trkpt><trkpt lat="43.07621312850255" lon="11.416759584354105"><ele>430.0</ele><time>2026-04-11T11:48:57.998Z</time></trkpt><trkpt lat="43.076135578180896" lon="11.416734887878922"><ele>430.0</ele><time>2026-04-11T11:49:02Z</time></trkpt><trkpt lat="43.0760745027893" lon="11.416706425526183"><ele>430.00000000000006</ele><time>2026-04-11T11:49:05Z</time></trkpt><trkpt lat="43.07600498581499" lon="11.416680559158198"><ele>430.0</ele><time>2026-04-11T11:49:08Z</time></trkpt><trkpt lat="43.07591520696953" lon="11.41662539697222"><ele>430.0</ele><time>2026-04-11T11:49:12Z</time></trkpt><trkpt lat="43.075862518124865" lon="11.416577313898808"><ele>430.0</ele><time>2026-04-11T11:49:15Z</time></trkpt><trkpt lat="43.07580406877487" lon="11.41653282363428"><ele>430.0</ele><time>2026-04-11T11:49:18Z</time></trkpt><trkpt lat="43.07575328774237" lon="11.416477088805895"><ele>430.0</ele><time>2026-04-11T11:49:21Z</time></trkpt><trkpt lat="43.0756965420477" lon="11.41643284447198"><ele>430.0</ele><time>2026-04-11T11:49:24Z</time></trkpt><trkpt lat="43.07562531411578" lon="11.416374425261516"><ele>430.0</ele><time>2026-04-11T11:49:28Z</time></trkpt><trkpt lat="43.07555913470575" lon="11.416326986658433"><ele>430.0</ele><time>2026-04-11T11:49:31.999Z</time></trkpt><trkpt lat="43.075498250076734" lon="11.416275892535078"><ele>430.83333333333337</ele><time>2026-04-11T11:49:35.999Z</time></trkpt><trkpt lat="43.0754393741952" lon="11.416219164340415"><ele>431.6666666666667</ele><time>2026-04-11T11:49:38.999Z</time></trkpt><trkpt lat="43.075358389761114" lon="11.416154126198666"><ele>432.5</ele><time>2026-04-11T11:49:43.999Z</time></trkpt><trkpt lat="43.07527993273888" lon="11.416097339665384"><ele>433.33333333333337</ele><time>2026-04-11T11:49:48.999Z</time></trkpt><trkpt lat="43.07520834639949" lon="11.416043648621153"><ele>434.1666666666667</ele><time>2026-04-11T11:49:53.999Z</time></trkpt><trkpt lat="43.07514329090062" lon="11.416002673558861"><ele>435.0</ele><time>2026-04-11T11:49:57.999Z</time></trkpt><trkpt lat="43.07508008784243" lon="11.415961190140965"><ele>435.00000000000006</ele><time>2026-04-11T11:50:01.999Z</time></trkpt><trkpt lat="43.075010091503174" lon="11.415920608255535"><ele>435.0</ele><time>2026-04-11T11:50:05.999Z</time></trkpt><trkpt lat="43.07493956076135" lon="11.415884593408093"><ele>435.0</ele><time>2026-04-11T11:50:10.999Z</time></trkpt><trkpt lat="43.074880715611194" lon="11.415851668051756"><ele>435.0</ele><time>2026-04-11T11:50:14.999Z</time></trkpt><trkpt lat="43.074801062238" lon="11.415820456214673"><ele>435.0</ele><time>2026-04-11T11:50:19.999Z</time></trkpt><trkpt lat="43.07473584455975" lon="11.415804864412992"><ele>435.00000000000006</ele><time>2026-04-11T11:50:23.999Z</time></trkpt><trkpt lat="43.074672612931934" lon="11.41578404935735"><ele>435.0</ele><time>2026-04-11T11:50:27.999Z</time></trkpt><trkpt lat="43.07460627662637" lon="11.415786920541096"><ele>435.7142857142857</ele><time>2026-04-11T11:50:31.998Z</time></trkpt><trkpt lat="43.0745322377964" lon="11.415760164311063"><ele>436.42857142857144</ele><time>2026-04-11T11:50:36.998Z</time></trkpt><trkpt lat="43.07445634479343" lon="11.415737416495608"><ele>437.1428571428571</ele><time>2026-04-11T11:50:41.998Z</time></trkpt><trkpt lat="43.07440636958443" lon="11.415683379285946"><ele>437.8571428571429</ele><time>2026-04-11T11:50:45.998Z</time></trkpt><trkpt lat="43.07436539664171" lon="11.415617631035902"><ele>438.57142857142856</ele><time>2026-04-11T11:50:49.998Z</time></trkpt><trkpt lat="43.07434002888788" lon="11.41553653235659"><ele>439.2857142857143</ele><time>2026-04-11T11:50:53.998Z</time></trkpt><trkpt lat="43.07433487184696" lon="11.415446112430145"><ele>440.0</ele><time>2026-04-11T11:50:57.998Z</time></trkpt><trkpt lat="43.07433696757942" lon="11.415351383392988"><ele>441.4285714285714</ele><time>2026-04-11T11:51:01.998Z</time></trkpt><trkpt lat="43.07434732575692" lon="11.415260808255738"><ele>442.8571428571429</ele><time>2026-04-11T11:51:06Z</time></trkpt><trkpt lat="43.07435280177109" lon="11.41515725346224"><ele>444.28571428571433</ele><time>2026-04-11T11:51:11Z</time></trkpt><trkpt lat="43.07434731943335" lon="11.415057883558141"><ele>445.7142857142857</ele><time>2026-04-11T11:51:16Z</time></trkpt><trkpt lat="43.0743197457813" lon="11.414964648313767"><ele>447.14285714285717</ele><time>2026-04-11T11:51:21Z</time></trkpt><trkpt lat="43.074299350197904" lon="11.414879365754564"><ele>448.5714285714286</ele><time>2026-04-11T11:51:25Z</time></trkpt><trkpt lat="43.074268096096134" lon="11.414794855360888"><ele>450.00000000000006</ele><time>2026-04-11T11:51:29Z</time></trkpt><trkpt lat="43.07424297670735" lon="11.414707415231833"><ele>451.00000000000006</ele><time>2026-04-11T11:51:33Z</time></trkpt><trkpt lat="43.074215305474205" lon="11.41460973798036"><ele>452.0</ele><time>2026-04-11T11:51:38Z</time></trkpt><trkpt lat="43.07418158770478" lon="11.414536683977929"><ele>453.00000000000006</ele><time>2026-04-11T11:51:41.999Z</time></trkpt><trkpt lat="43.07413928978436" lon="11.414472610066115"><ele>454.00000000000006</ele><time>2026-04-11T11:51:45.999Z</time></trkpt><trkpt lat="43.07407861095639" lon="11.414427934138365"><ele>455.0</ele><time>2026-04-11T11:51:49.999Z</time></trkpt><trkpt lat="43.07401568385498" lon="11.414394975086305"><ele>456.00000000000006</ele><time>2026-04-11T11:51:53.999Z</time></trkpt><trkpt lat="43.07393393122587" lon="11.414389826750655"><ele>457.00000000000006</ele><time>2026-04-11T11:51:58.999Z</time></trkpt><trkpt lat="43.073867593843524" lon="11.41438056628806"><ele>458.57142857142867</ele><time>2026-04-11T11:52:03.999Z</time></trkpt><trkpt lat="43.073796019414665" lon="11.414382620551049"><ele>460.14285714285717</ele><time>2026-04-11T11:52:08.999Z</time></trkpt><trkpt lat="43.07372902755844" lon="11.414386955736534"><ele>461.7142857142858</ele><time>2026-04-11T11:52:13.999Z</time></trkpt><trkpt lat="43.073654977882" lon="11.414381215858215"><ele>463.28571428571433</ele><time>2026-04-11T11:52:18.999Z</time></trkpt><trkpt lat="43.07358996648541" lon="11.414368762435355"><ele>464.8571428571429</ele><time>2026-04-11T11:52:22.999Z</time></trkpt><trkpt lat="43.073526325516625" lon="11.414361310338625"><ele>466.42857142857144</ele><time>2026-04-11T11:52:26.999Z</time></trkpt><trkpt lat="43.07345759829337" lon="11.414347455200181"><ele>468.0</ele><time>2026-04-11T11:52:30.999Z</time></trkpt><trkpt lat="43.07339271577275" lon="11.414318469862547"><ele>468.0</ele><time>2026-04-11T11:52:34.998Z</time></trkpt><trkpt lat="43.07331714714142" lon="11.414302502320647"><ele>468.00000000000006</ele><time>2026-04-11T11:52:38.998Z</time></trkpt><trkpt lat="43.07324062434484" lon="11.414271163802345"><ele>468.0</ele><time>2026-04-11T11:52:42.998Z</time></trkpt><trkpt lat="43.07317823329119" lon="11.414250491770682"><ele>468.0</ele><time>2026-04-11T11:52:45.998Z</time></trkpt><trkpt lat="43.073113246532905" lon="11.414255210321823"><ele>468.00000000000006</ele><time>2026-04-11T11:52:49.998Z</time></trkpt><trkpt lat="43.073050734155736" lon="11.41426814950782"><ele>468.0</ele><time>2026-04-11T11:52:52.998Z</time></trkpt><trkpt lat="43.0729796643723" lon="11.414270454112307"><ele>468.0</ele><time>2026-04-11T11:52:57.998Z</time></trkpt><trkpt lat="43.072906192959664" lon="11.414283963018255"><ele>469.28571428571433</ele><time>2026-04-11T11:53:02.998Z</time></trkpt><trkpt lat="43.07283595834044" lon="11.414305184673932"><ele>470.5714285714286</ele><time>2026-04-11T11:53:07.998Z</time></trkpt><trkpt lat="43.072771998443386" lon="11.414305229120759"><ele>471.8571428571429</ele><time>2026-04-11T11:53:12Z</time></trkpt><trkpt lat="43.0727059892685" lon="11.414301804133673"><ele>473.1428571428571</ele><time>2026-04-11T11:53:16Z</time></trkpt><trkpt lat="43.07264252620736" lon="11.414287504081853"><ele>474.4285714285714</ele><time>2026-04-11T11:53:20Z</time></trkpt><trkpt lat="43.072582977013624" lon="11.414259441972687"><ele>475.71428571428567</ele><time>2026-04-11T11:53:24Z</time></trkpt><trkpt lat="43.07252302409854" lon="11.414230359155885"><ele>477.0</ele><time>2026-04-11T11:53:28Z</time></trkpt><trkpt lat="43.07245352283888" lon="11.414198486944963"><ele>476.71428571428567</ele><time>2026-04-11T11:53:33Z</time></trkpt><trkpt lat="43.072393606976426" lon="11.414150980846946"><ele>476.4285714285714</ele><time>2026-04-11T11:53:38Z</time></trkpt><trkpt lat="43.072326690296826" lon="11.41412111158561"><ele>476.1428571428571</ele><time>2026-04-11T11:53:43Z</time></trkpt><trkpt lat="43.07225673955622" lon="11.41409286649132"><ele>475.8571428571429</ele><time>2026-04-11T11:53:47.999Z</time></trkpt><trkpt lat="43.072196583658155" lon="11.41404288038694"><ele>475.5714285714286</ele><time>2026-04-11T11:53:51.999Z</time></trkpt><trkpt lat="43.07213780869236" lon="11.413990477218128"><ele>475.28571428571433</ele><time>2026-04-11T11:53:54.999Z</time></trkpt><trkpt lat="43.07207923204299" lon="11.41393884143284"><ele>475.0</ele><time>2026-04-11T11:53:57.999Z</time></trkpt><trkpt lat="43.07200898739704" lon="11.413920954044155"><ele>475.00000000000006</ele><time>2026-04-11T11:54:01.999Z</time></trkpt><trkpt lat="43.07193469515337" lon="11.413918836677345"><ele>475.0</ele><time>2026-04-11T11:54:06.999Z</time></trkpt><trkpt lat="43.07185205116748" lon="11.413880196847554"><ele>475.0</ele><time>2026-04-11T11:54:11.999Z</time></trkpt><trkpt lat="43.07179428292374" lon="11.413842199618536"><ele>475.0</ele><time>2026-04-11T11:54:13.999Z</time></trkpt><trkpt lat="43.071727898015176" lon="11.413792252804248"><ele>475.00000000000006</ele><time>2026-04-11T11:54:15.999Z</time></trkpt><trkpt lat="43.071654188271054" lon="11.41372264037152"><ele>475.0</ele><time>2026-04-11T11:54:17.999Z</time></trkpt><trkpt lat="43.071573911054514" lon="11.413652754468936"><ele>476.83333333333337</ele><time>2026-04-11T11:54:19.999Z</time></trkpt><trkpt lat="43.07148835610281" lon="11.413587918653525"><ele>478.6666666666667</ele><time>2026-04-11T11:54:21.999Z</time></trkpt><trkpt lat="43.071397413301646" lon="11.413559324601517"><ele>480.5</ele><time>2026-04-11T11:54:23.999Z</time></trkpt><trkpt lat="43.07131227899803" lon="11.41356135404016"><ele>482.33333333333337</ele><time>2026-04-11T11:54:25.999Z</time></trkpt><trkpt lat="43.07123843149525" lon="11.413583271321636"><ele>484.1666666666667</ele><time>2026-04-11T11:54:27.999Z</time></trkpt><trkpt lat="43.07115148753678" lon="11.413615737214592"><ele>486.0</ele><time>2026-04-11T11:54:30.999Z</time></trkpt><trkpt lat="43.07107868342716" lon="11.413630052234048"><ele>486.0</ele><time>2026-04-11T11:54:33.999Z</time></trkpt><trkpt lat="43.07101427338378" lon="11.413610108347138"><ele>486.0</ele><time>2026-04-11T11:54:36.999Z</time></trkpt><trkpt lat="43.07094123086157" lon="11.413570912055082"><ele>486.0</ele><time>2026-04-11T11:54:40.999Z</time></trkpt><trkpt lat="43.07088799431507" lon="11.413522329120841"><ele>486.0</ele><time>2026-04-11T11:54:43.998Z</time></trkpt><trkpt lat="43.07082547617232" lon="11.413458824709485"><ele>486.0</ele><time>2026-04-11T11:54:47.998Z</time></trkpt><trkpt lat="43.07076648978194" lon="11.413383966801344"><ele>486.0</ele><time>2026-04-11T11:54:51.998Z</time></trkpt><trkpt lat="43.07071099251727" lon="11.413316794723583"><ele>486.0</ele><time>2026-04-11T11:54:55.998Z</time></trkpt><trkpt lat="43.07066270211635" lon="11.413250067489802"><ele>487.2857142857143</ele><time>2026-04-11T11:54:59.998Z</time></trkpt><trkpt lat="43.070603737791934" lon="11.413175790079459"><ele>488.57142857142856</ele><time>2026-04-11T11:55:03.998Z</time></trkpt><trkpt lat="43.0705454009544" lon="11.413118156941715"><ele>489.85714285714283</ele><time>2026-04-11T11:55:07.998Z</time></trkpt><trkpt lat="43.07048849356129" lon="11.413054051835884"><ele>491.1428571428571</ele><time>2026-04-11T11:55:11.998Z</time></trkpt><trkpt lat="43.070434105968246" lon="11.413007658667924"><ele>492.42857142857144</ele><time>2026-04-11T11:55:14.998Z</time></trkpt><trkpt lat="43.070383267601656" lon="11.412953188005659"><ele>493.71428571428567</ele><time>2026-04-11T11:55:18Z</time></trkpt><trkpt lat="43.07030307128811" lon="11.41292844577816"><ele>494.99999999999994</ele><time>2026-04-11T11:55:22Z</time></trkpt><trkpt lat="43.070225538554475" lon="11.412956534199475"><ele>494.99999999999994</ele><time>2026-04-11T11:55:26Z</time></trkpt><trkpt lat="43.07016059258724" lon="11.413021226474601"><ele>495.0</ele><time>2026-04-11T11:55:30Z</time></trkpt><trkpt lat="43.07012597355879" lon="11.413113468095256"><ele>494.99999999999994</ele><time>2026-04-11T11:55:34Z</time></trkpt><trkpt lat="43.0701014955695" lon="11.413214264502882"><ele>494.99999999999994</ele><time>2026-04-11T11:55:38Z</time></trkpt><trkpt lat="43.070074985963934" lon="11.41330243068889"><ele>495.0</ele><time>2026-04-11T11:55:43Z</time></trkpt><trkpt lat="43.07003657774718" lon="11.413387118859303"><ele>494.99999999999994</ele><time>2026-04-11T11:55:48Z</time></trkpt><trkpt lat="43.06999548796929" lon="11.4134630482877"><ele>494.99999999999994</ele><time>2026-04-11T11:55:52Z</time></trkpt><trkpt lat="43.06998371124723" lon="11.413567021320576"><ele>495.0</ele><time>2026-04-11T11:55:55.999Z</time></trkpt><trkpt lat="43.06998277826595" lon="11.413672403877182"><ele>495.0</ele><time>2026-04-11T11:55:59.999Z</time></trkpt><trkpt lat="43.069988107814964" lon="11.413778443778533"><ele>495.0</ele><time>2026-04-11T11:56:03.999Z</time></trkpt><trkpt lat="43.069997091907005" lon="11.413886773708288"><ele>495.0</ele><time>2026-04-11T11:56:07.999Z</time></trkpt><trkpt lat="43.07000455430856" lon="11.413991049234173"><ele>495.0</ele><time>2026-04-11T11:56:11.999Z</time></trkpt><trkpt lat="43.07001319523779" lon="11.41409570289577"><ele>495.0</ele><time>2026-04-11T11:56:15.999Z</time></trkpt><trkpt lat="43.07001954128238" lon="11.41418477148852"><ele>494.8571428571428</ele><time>2026-04-11T11:56:18.999Z</time></trkpt><trkpt lat="43.0700230955496" lon="11.414273326362157"><ele>494.71428571428567</ele><time>2026-04-11T11:56:21.999Z</time></trkpt><trkpt lat="43.07001821832662" lon="11.414360258701059"><ele>494.57142857142856</ele><time>2026-04-11T11:56:24.999Z</time></trkpt><trkpt lat="43.070006190946835" lon="11.414454040945435"><ele>494.4285714285714</ele><time>2026-04-11T11:56:28.999Z</time></trkpt><trkpt lat="43.0699792081992" lon="11.414564362029095"><ele>494.2857142857142</ele><time>2026-04-11T11:56:32.999Z</time></trkpt><trkpt lat="43.06995113934426" lon="11.41466332144117"><ele>494.14285714285717</ele><time>2026-04-11T11:56:36.999Z</time></trkpt><trkpt lat="43.06991521229194" lon="11.414743995248386"><ele>494.0</ele><time>2026-04-11T11:56:39.999Z</time></trkpt><trkpt lat="43.06987467068869" lon="11.414821019997184"><ele>494.7142857142857</ele><time>2026-04-11T11:56:42.999Z</time></trkpt><trkpt lat="43.06982672697428" lon="11.41489179531878"><ele>495.42857142857144</ele><time>2026-04-11T11:56:46.999Z</time></trkpt><trkpt lat="43.06978010680046" lon="11.414954044818401"><ele>496.14285714285717</ele><time>2026-04-11T11:56:49.998Z</time></trkpt><trkpt lat="43.069713795178096" lon="11.415007800590248"><ele>496.8571428571429</ele><time>2026-04-11T11:56:52.998Z</time></trkpt><trkpt lat="43.069637382012914" lon="11.415061127341412"><ele>497.57142857142856</ele><time>2026-04-11T11:56:56.998Z</time></trkpt><trkpt lat="43.06958026810282" lon="11.415104846224086"><ele>498.28571428571433</ele><time>2026-04-11T11:56:58.998Z</time></trkpt><trkpt lat="43.06950800063973" lon="11.415149196336115"><ele>499.00000000000006</ele><time>2026-04-11T11:57:01.998Z</time></trkpt><trkpt lat="43.06943768839159" lon="11.415206071180803"><ele>499.00000000000006</ele><time>2026-04-11T11:57:03.998Z</time></trkpt><trkpt lat="43.06936641470188" lon="11.415275196335607"><ele>499.0</ele><time>2026-04-11T11:57:06.998Z</time></trkpt><trkpt lat="43.069292520017015" lon="11.415347045988124"><ele>499.0</ele><time>2026-04-11T11:57:09.998Z</time></trkpt><trkpt lat="43.06923606915117" lon="11.415399694527498"><ele>499.0</ele><time>2026-04-11T11:57:11.998Z</time></trkpt><trkpt lat="43.06917940215944" lon="11.415450714894492"><ele>499.00000000000006</ele><time>2026-04-11T11:57:13.998Z</time></trkpt><trkpt lat="43.06911388211116" lon="11.415488870593235"><ele>499.0</ele><time>2026-04-11T11:57:15.998Z</time></trkpt><trkpt lat="43.06904263468695" lon="11.415519633088737"><ele>496.79999999999995</ele><time>2026-04-11T11:57:17.998Z</time></trkpt><trkpt lat="43.068971581393086" lon="11.41554462255613"><ele>494.59999999999997</ele><time>2026-04-11T11:57:19.998Z</time></trkpt><trkpt lat="43.06889327692104" lon="11.415558942707033"><ele>492.4</ele><time>2026-04-11T11:57:21.998Z</time></trkpt><trkpt lat="43.068803877041745" lon="11.415578462933643"><ele>490.2</ele><time>2026-04-11T11:57:24Z</time></trkpt><trkpt lat="43.06870232066462" lon="11.415623827015455"><ele>488.0</ele><time>2026-04-11T11:57:26Z</time></trkpt><trkpt lat="43.06859976425672" lon="11.4156867486932"><ele>488.0</ele><time>2026-04-11T11:57:28Z</time></trkpt><trkpt lat="43.068506639947884" lon="11.415773022266336"><ele>487.99999999999994</ele><time>2026-04-11T11:57:30Z</time></trkpt><trkpt lat="43.06840770773999" lon="11.415853067222738"><ele>487.99999999999994</ele><time>2026-04-11T11:57:32Z</time></trkpt><trkpt lat="43.06833405862002" lon="11.415945198071764"><ele>488.0</ele><time>2026-04-11T11:57:34Z</time></trkpt><trkpt lat="43.06827022866346" lon="11.41605400254974"><ele>488.0</ele><time>2026-04-11T11:57:36Z</time></trkpt><trkpt lat="43.06817911957331" lon="11.416124040353694"><ele>487.8333333333333</ele><time>2026-04-11T11:57:38Z</time></trkpt><trkpt lat="43.068093890181004" lon="11.416198038242705"><ele>487.66666666666663</ele><time>2026-04-11T11:57:40Z</time></trkpt><trkpt lat="43.068015587821215" lon="11.416258425888495"><ele>487.5</ele><time>2026-04-11T11:57:42Z</time></trkpt><trkpt lat="43.067941307327004" lon="11.416305068752143"><ele>487.33333333333337</ele><time>2026-04-11T11:57:44Z</time></trkpt><trkpt lat="43.067868824135836" lon="11.41635754275651"><ele>487.1666666666667</ele><time>2026-04-11T11:57:46Z</time></trkpt><trkpt lat="43.06781212917578" lon="11.41641552028483"><ele>487.0</ele><time>2026-04-11T11:57:48Z</time></trkpt><trkpt lat="43.06778425850384" lon="11.41649475760451"><ele>488.6666666666667</ele><time>2026-04-11T11:57:50Z</time></trkpt><trkpt lat="43.067740675335955" lon="11.416588129643786"><ele>490.33333333333337</ele><time>2026-04-11T11:57:53Z</time></trkpt><trkpt lat="43.0677070145022" lon="11.416686013901115"><ele>492.0</ele><time>2026-04-11T11:57:56Z</time></trkpt><trkpt lat="43.06769293493132" lon="11.41678702374039"><ele>493.66666666666663</ele><time>2026-04-11T11:57:58.999Z</time></trkpt><trkpt lat="43.06766067094477" lon="11.41689046230786"><ele>495.3333333333333</ele><time>2026-04-11T11:58:01.999Z</time></trkpt><trkpt lat="43.067618175073115" lon="11.41699261930232"><ele>497.0</ele><time>2026-04-11T11:58:04.999Z</time></trkpt><trkpt lat="43.06756990930208" lon="11.417075345376709"><ele>496.49999999999994</ele><time>2026-04-11T11:58:07.999Z</time></trkpt><trkpt lat="43.067515182763124" lon="11.417166703259573"><ele>496.0</ele><time>2026-04-11T11:58:10.999Z</time></trkpt><trkpt lat="43.0674800579511" lon="11.417258000016961"><ele>495.5</ele><time>2026-04-11T11:58:12.999Z</time></trkpt><trkpt lat="43.0674341293771" lon="11.417318186092016"><ele>495.0</ele><time>2026-04-11T11:58:14.999Z</time></trkpt><trkpt lat="43.067375677275514" lon="11.41740168597261"><ele>494.49999999999994</ele><time>2026-04-11T11:58:17.999Z</time></trkpt><trkpt lat="43.06730994272072" lon="11.417475551227145"><ele>494.0</ele><time>2026-04-11T11:58:20.999Z</time></trkpt><trkpt lat="43.06724291306692" lon="11.417535666884325"><ele>495.66666666666663</ele><time>2026-04-11T11:58:23.999Z</time></trkpt><trkpt lat="43.06717136656134" lon="11.417577806084555"><ele>497.3333333333333</ele><time>2026-04-11T11:58:26.999Z</time></trkpt><trkpt lat="43.06710143739477" lon="11.41761306882552"><ele>499.0</ele><time>2026-04-11T11:58:29.999Z</time></trkpt><trkpt lat="43.06703037629708" lon="11.417631938911786"><ele>500.66666666666663</ele><time>2026-04-11T11:58:32.999Z</time></trkpt><trkpt lat="43.06693240485654" lon="11.417667820993188"><ele>502.3333333333333</ele><time>2026-04-11T11:58:35.999Z</time></trkpt><trkpt lat="43.06684998826399" lon="11.417715418219196"><ele>504.0</ele><time>2026-04-11T11:58:38.999Z</time></trkpt><trkpt lat="43.066801865190264" lon="11.417776716598217"><ele>504.0</ele><time>2026-04-11T11:58:41.999Z</time></trkpt><trkpt lat="43.066743214328035" lon="11.417879310279789"><ele>504.0</ele><time>2026-04-11T11:58:44.999Z</time></trkpt><trkpt lat="43.06669932474085" lon="11.417983511626387"><ele>504.0</ele><time>2026-04-11T11:58:47.999Z</time></trkpt><trkpt lat="43.066660818497866" lon="11.418107957666367"><ele>504.0</ele><time>2026-04-11T11:58:50.999Z</time></trkpt><trkpt lat="43.066627874948836" lon="11.418208268079322"><ele>504.0</ele><time>2026-04-11T11:58:52.999Z</time></trkpt><trkpt lat="43.066603602048986" lon="11.418313284170551"><ele>504.0</ele><time>2026-04-11T11:58:53.998Z</time></trkpt><trkpt lat="43.06658553387694" lon="11.418412311495517"><ele>501.3333333333333</ele><time>2026-04-11T11:58:55.998Z</time></trkpt><trkpt lat="43.06656962432533" lon="11.418512357268183"><ele>498.66666666666663</ele><time>2026-04-11T11:58:57.998Z</time></trkpt><trkpt lat="43.06655719157672" lon="11.418633995821864"><ele>496.0</ele><time>2026-04-11T11:58:59.998Z</time></trkpt><trkpt lat="43.06654952581364" lon="11.418754893425195"><ele>493.3333333333333</ele><time>2026-04-11T11:59:01.998Z</time></trkpt><trkpt lat="43.06654421425685" lon="11.418871117287065"><ele>490.66666666666663</ele><time>2026-04-11T11:59:03.998Z</time></trkpt><trkpt lat="43.06654639546869" lon="11.418977643710344"><ele>488.0</ele><time>2026-04-11T11:59:05.998Z</time></trkpt><trkpt lat="43.066548468796604" lon="11.419065163562863"><ele>487.49999999999994</ele><time>2026-04-11T11:59:07.998Z</time></trkpt><trkpt lat="43.06654888285919" lon="11.419182645952926"><ele>487.0</ele><time>2026-04-11T11:59:10.998Z</time></trkpt><trkpt lat="43.0665577989443" lon="11.41929566559187"><ele>486.5</ele><time>2026-04-11T11:59:14.998Z</time></trkpt><trkpt lat="43.066560053326675" lon="11.419389018343473"><ele>486.0</ele><time>2026-04-11T11:59:16.998Z</time></trkpt><trkpt lat="43.066561474275225" lon="11.419493900217617"><ele>485.49999999999994</ele><time>2026-04-11T11:59:18.998Z</time></trkpt><trkpt lat="43.066565678259295" lon="11.41960512493616"><ele>485.0</ele><time>2026-04-11T11:59:20.998Z</time></trkpt><trkpt lat="43.06656724129278" lon="11.419727959520044"><ele>484.99999999999994</ele><time>2026-04-11T11:59:22.998Z</time></trkpt><trkpt lat="43.06655939980988" lon="11.41985581121472"><ele>485.0</ele><time>2026-04-11T11:59:24.998Z</time></trkpt><trkpt lat="43.06652859660185" lon="11.41997642093082"><ele>485.0</ele><time>2026-04-11T11:59:26.998Z</time></trkpt><trkpt lat="43.06648703992001" lon="11.420081098669863"><ele>485.0</ele><time>2026-04-11T11:59:29Z</time></trkpt><trkpt lat="43.06643426492678" lon="11.42016870972106"><ele>484.99999999999994</ele><time>2026-04-11T11:59:31Z</time></trkpt><trkpt lat="43.06638603567971" lon="11.42025357837263"><ele>485.0</ele><time>2026-04-11T11:59:33Z</time></trkpt><trkpt lat="43.066341117445" lon="11.420345097763848"><ele>485.0</ele><time>2026-04-11T11:59:35Z</time></trkpt><trkpt lat="43.066296667829576" lon="11.420442540452942"><ele>485.0</ele><time>2026-04-11T11:59:37Z</time></trkpt><trkpt lat="43.066253150675955" lon="11.420556467729664"><ele>485.0</ele><time>2026-04-11T11:59:39Z</time></trkpt><trkpt lat="43.06620327430087" lon="11.420677376380441"><ele>485.0</ele><time>2026-04-11T11:59:41Z</time></trkpt><trkpt lat="43.066143362069326" lon="11.420795487142417"><ele>485.0</ele><time>2026-04-11T11:59:43Z</time></trkpt><trkpt lat="43.06607910834001" lon="11.42090739246021"><ele>485.2</ele><time>2026-04-11T11:59:45Z</time></trkpt><trkpt lat="43.06601356943262" lon="11.42101803123099"><ele>485.4</ele><time>2026-04-11T11:59:47Z</time></trkpt><trkpt lat="43.06594616004199" lon="11.42112332408813"><ele>485.6</ele><time>2026-04-11T11:59:49Z</time></trkpt><trkpt lat="43.06588127465008" lon="11.421240691961211"><ele>485.8</ele><time>2026-04-11T11:59:51Z</time></trkpt><trkpt lat="43.06581667603226" lon="11.421365436523388"><ele>486.0</ele><time>2026-04-11T11:59:53Z</time></trkpt><trkpt lat="43.06575584210455" lon="11.421499922501177"><ele>486.0</ele><time>2026-04-11T11:59:55Z</time></trkpt><trkpt lat="43.06568886544907" lon="11.421641756452281"><ele>486.0</ele><time>2026-04-11T11:59:57Z</time></trkpt><trkpt lat="43.06561683529533" lon="11.421756599475305"><ele>486.0</ele><time>2026-04-11T11:59:59Z</time></trkpt><trkpt lat="43.06552490981577" lon="11.421856482513528"><ele>486.0</ele><time>2026-04-11T12:00:01Z</time></trkpt><trkpt lat="43.065436105950745" lon="11.421944651482937"><ele>486.0</ele><time>2026-04-11T12:00:03Z</time></trkpt><trkpt lat="43.065341905402235" lon="11.422035698778027"><ele>486.0</ele><time>2026-04-11T12:00:05Z</time></trkpt><trkpt lat="43.06524412181956" lon="11.42211856816352"><ele>486.0</ele><time>2026-04-11T12:00:07Z</time></trkpt><trkpt lat="43.065186498330775" lon="11.42215843695167"><ele>486.0</ele><time>2026-04-11T12:00:07.999Z</time></trkpt><trkpt lat="43.06507628761605" lon="11.422200416367751"><ele>486.0</ele><time>2026-04-11T12:00:09.999Z</time></trkpt><trkpt lat="43.06495184127812" lon="11.422220053812865"><ele>486.0</ele><time>2026-04-11T12:00:11.999Z</time></trkpt><trkpt lat="43.06488705589808" lon="11.42222041379611"><ele>486.0</ele><time>2026-04-11T12:00:12.999Z</time></trkpt><trkpt lat="43.06481629812889" lon="11.422225476380804"><ele>486.0</ele><time>2026-04-11T12:00:13.999Z</time></trkpt><trkpt lat="43.064753184177896" lon="11.422226932366366"><ele>486.0</ele><time>2026-04-11T12:00:14.999Z</time></trkpt><trkpt lat="43.06468847880972" lon="11.422224070912907"><ele>486.0</ele><time>2026-04-11T12:00:15.999Z</time></trkpt><trkpt lat="43.064621104036846" lon="11.42221748920255"><ele>486.0</ele><time>2026-04-11T12:00:16.999Z</time></trkpt><trkpt lat="43.06454832081149" lon="11.422202117353548"><ele>486.0</ele><time>2026-04-11T12:00:17.999Z</time></trkpt><trkpt lat="43.06446920022948" lon="11.42217443691822"><ele>484.6</ele><time>2026-04-11T12:00:18.999Z</time></trkpt><trkpt lat="43.06439702568108" lon="11.422142291197188"><ele>483.20000000000005</ele><time>2026-04-11T12:00:19.999Z</time></trkpt><trkpt lat="43.064276734652054" lon="11.422080910384796"><ele>481.79999999999995</ele><time>2026-04-11T12:00:21.999Z</time></trkpt><trkpt lat="43.06421398154563" lon="11.4220489134142"><ele>480.4</ele><time>2026-04-11T12:00:22.999Z</time></trkpt><trkpt lat="43.06410575150377" lon="11.421977557070212"><ele>479.0</ele><time>2026-04-11T12:00:24.999Z</time></trkpt><trkpt lat="43.063990565122516" lon="11.421922807121431"><ele>477.8333333333333</ele><time>2026-04-11T12:00:26.999Z</time></trkpt><trkpt lat="43.063921492655126" lon="11.421918201557142"><ele>476.66666666666663</ele><time>2026-04-11T12:00:27.999Z</time></trkpt><trkpt lat="43.06384844317165" lon="11.421930426867368"><ele>475.5</ele><time>2026-04-11T12:00:28.999Z</time></trkpt><trkpt lat="43.063773352933474" lon="11.421944046690056"><ele>474.33333333333337</ele><time>2026-04-11T12:00:29.999Z</time></trkpt><trkpt lat="43.063707540454416" lon="11.421956981218568"><ele>473.1666666666667</ele><time>2026-04-11T12:00:30.999Z</time></trkpt><trkpt lat="43.063603649257885" lon="11.42197886124382"><ele>472.0</ele><time>2026-04-11T12:00:32.999Z</time></trkpt><trkpt lat="43.063530277828484" lon="11.422027158458732"><ele>472.0</ele><time>2026-04-11T12:00:34.999Z</time></trkpt><trkpt lat="43.06347950506026" lon="11.422124812594117"><ele>472.00000000000006</ele><time>2026-04-11T12:00:36.999Z</time></trkpt><trkpt lat="43.06346648197282" lon="11.422261649801419"><ele>472.00000000000006</ele><time>2026-04-11T12:00:38.999Z</time></trkpt><trkpt lat="43.06349335941196" lon="11.422397992327253"><ele>472.0</ele><time>2026-04-11T12:00:40.999Z</time></trkpt><trkpt lat="43.06353959250048" lon="11.422542112277311"><ele>472.0</ele><time>2026-04-11T12:00:42.999Z</time></trkpt><trkpt lat="43.06355206286902" lon="11.42271248887183"><ele>472.00000000000006</ele><time>2026-04-11T12:00:44.999Z</time></trkpt><trkpt lat="43.06354177658169" lon="11.422808750464288"><ele>472.0</ele><time>2026-04-11T12:00:45.999Z</time></trkpt><trkpt lat="43.06352037550525" lon="11.422904563292546"><ele>472.0</ele><time>2026-04-11T12:00:46.999Z</time></trkpt><trkpt lat="43.06348318656288" lon="11.4229932234388"><ele>472.0</ele><time>2026-04-11T12:00:47.999Z</time></trkpt><trkpt lat="43.06343996074605" lon="11.423072406112706"><ele>472.00000000000006</ele><time>2026-04-11T12:00:48.999Z</time></trkpt><trkpt lat="43.06337603609094" lon="11.423213546795035"><ele>472.0</ele><time>2026-04-11T12:00:50.999Z</time></trkpt><trkpt lat="43.06333664160276" lon="11.423359863174479"><ele>471.40000000000003</ele><time>2026-04-11T12:00:52.999Z</time></trkpt><trkpt lat="43.063323148582995" lon="11.423507498707101"><ele>470.80000000000007</ele><time>2026-04-11T12:00:54.999Z</time></trkpt><trkpt lat="43.06334337603935" lon="11.423641675082994"><ele>470.2</ele><time>2026-04-11T12:00:56.999Z</time></trkpt><trkpt lat="43.06337090933999" lon="11.42375622524646"><ele>469.6</ele><time>2026-04-11T12:00:58.999Z</time></trkpt><trkpt lat="43.06339655614655" lon="11.423869009938514"><ele>469.0</ele><time>2026-04-11T12:01:00.999Z</time></trkpt><trkpt lat="43.06340820846411" lon="11.423975273168278"><ele>468.33333333333337</ele><time>2026-04-11T12:01:02.998Z</time></trkpt><trkpt lat="43.06338789596658" lon="11.424121458026503"><ele>467.6666666666667</ele><time>2026-04-11T12:01:04.998Z</time></trkpt><trkpt lat="43.063362009648415" lon="11.424208535635335"><ele>467.0</ele><time>2026-04-11T12:01:05.998Z</time></trkpt><trkpt lat="43.06332750479795" lon="11.42430339395545"><ele>466.33333333333337</ele><time>2026-04-11T12:01:06.998Z</time></trkpt><trkpt lat="43.06330106032939" lon="11.4244006200899"><ele>465.6666666666667</ele><time>2026-04-11T12:01:07.998Z</time></trkpt><trkpt lat="43.0632749658415" lon="11.424511666430302"><ele>465.0</ele><time>2026-04-11T12:01:08.998Z</time></trkpt><trkpt lat="43.06325960050236" lon="11.424618675437022"><ele>464.57142857142856</ele><time>2026-04-11T12:01:09.998Z</time></trkpt><trkpt lat="43.06324780631724" lon="11.42472037789807"><ele>464.14285714285717</ele><time>2026-04-11T12:01:10.998Z</time></trkpt><trkpt lat="43.06323777504541" lon="11.424813725535166"><ele>463.7142857142857</ele><time>2026-04-11T12:01:11.998Z</time></trkpt><trkpt lat="43.06322127168717" lon="11.424906696202356"><ele>463.2857142857143</ele><time>2026-04-11T12:01:12.998Z</time></trkpt><trkpt lat="43.06319728496883" lon="11.4249946362568"><ele>462.8571428571429</ele><time>2026-04-11T12:01:13.998Z</time></trkpt><trkpt lat="43.06316172381722" lon="11.425089302393248"><ele>462.42857142857144</ele><time>2026-04-11T12:01:14.998Z</time></trkpt><trkpt lat="43.06312044537083" lon="11.425171606321761"><ele>462.0</ele><time>2026-04-11T12:01:15.998Z</time></trkpt><trkpt lat="43.06307730291543" lon="11.425250909201887"><ele>462.0</ele><time>2026-04-11T12:01:16.998Z</time></trkpt><trkpt lat="43.06303115362677" lon="11.425328461283142"><ele>462.0</ele><time>2026-04-11T12:01:17.998Z</time></trkpt><trkpt lat="43.06298716047347" lon="11.4254022903502"><ele>462.0</ele><time>2026-04-11T12:01:18.998Z</time></trkpt><trkpt lat="43.06294430512338" lon="11.425473701068768"><ele>462.0</ele><time>2026-04-11T12:01:19.998Z</time></trkpt><trkpt lat="43.06288066949111" lon="11.425614160478656"><ele>462.0</ele><time>2026-04-11T12:01:21.998Z</time></trkpt><trkpt lat="43.062843613299584" lon="11.425746754526967"><ele>462.0</ele><time>2026-04-11T12:01:23.998Z</time></trkpt><trkpt lat="43.062826845028425" lon="11.42586373639389"><ele>462.6666666666667</ele><time>2026-04-11T12:01:25.998Z</time></trkpt><trkpt lat="43.062816345293164" lon="11.425981394245907"><ele>463.33333333333337</ele><time>2026-04-11T12:01:28.998Z</time></trkpt><trkpt lat="43.062818274222515" lon="11.426076775648529"><ele>464.0</ele><time>2026-04-11T12:01:31.998Z</time></trkpt><trkpt lat="43.06282094962953" lon="11.426179988352315"><ele>464.6666666666667</ele><time>2026-04-11T12:01:35Z</time></trkpt><trkpt lat="43.06282296151494" lon="11.426300580738639"><ele>465.33333333333337</ele><time>2026-04-11T12:01:38Z</time></trkpt><trkpt lat="43.06283675332191" lon="11.426400700291342"><ele>466.0</ele><time>2026-04-11T12:01:40Z</time></trkpt><trkpt lat="43.06284437886348" lon="11.426504694193014"><ele>466.00000000000006</ele><time>2026-04-11T12:01:42Z</time></trkpt><trkpt lat="43.06285476486136" lon="11.42661066676845"><ele>466.0</ele><time>2026-04-11T12:01:44Z</time></trkpt><trkpt lat="43.06287581780882" lon="11.426706111945427"><ele>466.0</ele><time>2026-04-11T12:01:46Z</time></trkpt><trkpt lat="43.0628976662024" lon="11.426830118280229"><ele>466.0</ele><time>2026-04-11T12:01:49Z</time></trkpt><trkpt lat="43.062903551681785" lon="11.426956906274434"><ele>466.00000000000006</ele><time>2026-04-11T12:01:52Z</time></trkpt><trkpt lat="43.06288715588347" lon="11.427069915480565"><ele>466.0</ele><time>2026-04-11T12:01:55Z</time></trkpt><trkpt lat="43.06285307716813" lon="11.427158663268216"><ele>466.0</ele><time>2026-04-11T12:01:58Z</time></trkpt><trkpt lat="43.06280754702202" lon="11.427241377701176"><ele>466.0</ele><time>2026-04-11T12:02:01Z</time></trkpt><trkpt lat="43.06275041895745" lon="11.427311019894784"><ele>466.0</ele><time>2026-04-11T12:02:04Z</time></trkpt><trkpt lat="43.06268904415232" lon="11.42736870957742"><ele>466.0</ele><time>2026-04-11T12:02:07Z</time></trkpt><trkpt lat="43.062623309654406" lon="11.427412650287492"><ele>466.0</ele><time>2026-04-11T12:02:10Z</time></trkpt><trkpt lat="43.06255573085761" lon="11.427443807653642"><ele>466.0</ele><time>2026-04-11T12:02:12.999Z</time></trkpt><trkpt lat="43.06249079436365" lon="11.427473831821532"><ele>466.0</ele><time>2026-04-11T12:02:15.999Z</time></trkpt><trkpt lat="43.06242336459791" lon="11.427503813973821"><ele>466.6666666666667</ele><time>2026-04-11T12:02:18.999Z</time></trkpt><trkpt lat="43.06233838183777" lon="11.427538948993645"><ele>467.33333333333337</ele><time>2026-04-11T12:02:21.999Z</time></trkpt><trkpt lat="43.06226632469667" lon="11.427578161689924"><ele>468.0</ele><time>2026-04-11T12:02:23.999Z</time></trkpt><trkpt lat="43.06219084012454" lon="11.427611665280185"><ele>468.66666666666663</ele><time>2026-04-11T12:02:25.999Z</time></trkpt><trkpt lat="43.06211994650595" lon="11.427627002580179"><ele>469.3333333333333</ele><time>2026-04-11T12:02:27.999Z</time></trkpt><trkpt lat="43.0620275106356" lon="11.42762907028164"><ele>470.0</ele><time>2026-04-11T12:02:30.999Z</time></trkpt><trkpt lat="43.06193682053769" lon="11.427619895585828"><ele>469.99999999999994</ele><time>2026-04-11T12:02:33.999Z</time></trkpt><trkpt lat="43.06184612814411" lon="11.427583575696318"><ele>470.0</ele><time>2026-04-11T12:02:36.999Z</time></trkpt><trkpt lat="43.06178182338016" lon="11.427556037362216"><ele>470.0</ele><time>2026-04-11T12:02:38.999Z</time></trkpt><trkpt lat="43.0617094226339" lon="11.427512563141935"><ele>470.0</ele><time>2026-04-11T12:02:40.999Z</time></trkpt><trkpt lat="43.06163807190465" lon="11.42745075763168"><ele>469.99999999999994</ele><time>2026-04-11T12:02:42.999Z</time></trkpt><trkpt lat="43.06156020189586" lon="11.427394154752522"><ele>470.0</ele><time>2026-04-11T12:02:44.999Z</time></trkpt><trkpt lat="43.061471501843776" lon="11.427363992952612"><ele>470.16666666666663</ele><time>2026-04-11T12:02:46.999Z</time></trkpt><trkpt lat="43.06138597538616" lon="11.427363841842775"><ele>470.3333333333333</ele><time>2026-04-11T12:02:48.999Z</time></trkpt><trkpt lat="43.06130269070974" lon="11.427370462869074"><ele>470.5</ele><time>2026-04-11T12:02:50.999Z</time></trkpt><trkpt lat="43.06122404526536" lon="11.427392000821762"><ele>470.66666666666663</ele><time>2026-04-11T12:02:52.999Z</time></trkpt><trkpt lat="43.061145737206395" lon="11.427411000816871"><ele>470.8333333333333</ele><time>2026-04-11T12:02:54.999Z</time></trkpt><trkpt lat="43.0610780197183" lon="11.427442080348884"><ele>471.0</ele><time>2026-04-11T12:02:56.999Z</time></trkpt><trkpt lat="43.06101590300485" lon="11.427467649191854"><ele>471.0</ele><time>2026-04-11T12:02:58.999Z</time></trkpt><trkpt lat="43.0609234696229" lon="11.427492147513554"><ele>471.0</ele><time>2026-04-11T12:03:01.999Z</time></trkpt><trkpt lat="43.060834399792455" lon="11.427484009814242"><ele>471.0</ele><time>2026-04-11T12:03:04.999Z</time></trkpt><trkpt lat="43.06075536988564" lon="11.427437768770476"><ele>471.0</ele><time>2026-04-11T12:03:07.998Z</time></trkpt><trkpt lat="43.060681522869956" lon="11.4273787533052"><ele>471.0</ele><time>2026-04-11T12:03:10.998Z</time></trkpt><trkpt lat="43.060609088029864" lon="11.42732848345892"><ele>471.0</ele><time>2026-04-11T12:03:13.998Z</time></trkpt><trkpt lat="43.0605393181388" lon="11.427277521707031"><ele>472.3333333333333</ele><time>2026-04-11T12:03:16.998Z</time></trkpt><trkpt lat="43.06046747395215" lon="11.42723578133108"><ele>473.66666666666663</ele><time>2026-04-11T12:03:19.998Z</time></trkpt><trkpt lat="43.06039974042339" lon="11.427240182741004"><ele>475.0</ele><time>2026-04-11T12:03:22.998Z</time></trkpt><trkpt lat="43.06033938873166" lon="11.427303050401795"><ele>476.3333333333333</ele><time>2026-04-11T12:03:25.998Z</time></trkpt><trkpt lat="43.060307413035396" lon="11.427399261597635"><ele>477.66666666666663</ele><time>2026-04-11T12:03:28.998Z</time></trkpt><trkpt lat="43.060292313170876" lon="11.427520638164768"><ele>479.0</ele><time>2026-04-11T12:03:31.998Z</time></trkpt><trkpt lat="43.06027984287395" lon="11.427608267818842"><ele>479.0</ele><time>2026-04-11T12:03:33.998Z</time></trkpt><trkpt lat="43.060244860684826" lon="11.427688944653118"><ele>479.0</ele><time>2026-04-11T12:03:35.998Z</time></trkpt><trkpt lat="43.0601984608305" lon="11.427750839174456"><ele>479.0</ele><time>2026-04-11T12:03:37.998Z</time></trkpt><trkpt lat="43.060140606216656" lon="11.427790872184248"><ele>479.0</ele><time>2026-04-11T12:03:40Z</time></trkpt><trkpt lat="43.06006057544873" lon="11.42784298123532"><ele>479.0</ele><time>2026-04-11T12:03:43Z</time></trkpt><trkpt lat="43.059995471648485" lon="11.427873631764713"><ele>479.0</ele><time>2026-04-11T12:03:46Z</time></trkpt><trkpt lat="43.05991990712662" lon="11.427909252801149"><ele>479.0</ele><time>2026-04-11T12:03:49Z</time></trkpt><trkpt lat="43.05985688938324" lon="11.427912633338956"><ele>479.8333333333333</ele><time>2026-04-11T12:03:51Z</time></trkpt><trkpt lat="43.059777383329475" lon="11.427882142566213"><ele>480.66666666666663</ele><time>2026-04-11T12:03:53Z</time></trkpt><trkpt lat="43.059711846438425" lon="11.427819418318508"><ele>481.5</ele><time>2026-04-11T12:03:56Z</time></trkpt><trkpt lat="43.05966068732285" lon="11.427748363972894"><ele>482.33333333333337</ele><time>2026-04-11T12:03:58Z</time></trkpt><trkpt lat="43.05960214670854" lon="11.427647667745234"><ele>483.1666666666667</ele><time>2026-04-11T12:04:01Z</time></trkpt><trkpt lat="43.05955385682716" lon="11.42755991486133"><ele>484.0</ele><time>2026-04-11T12:04:04Z</time></trkpt><trkpt lat="43.0595004512123" lon="11.427483052275932"><ele>484.00000000000006</ele><time>2026-04-11T12:04:07Z</time></trkpt><trkpt lat="43.05945262725982" lon="11.427413353607301"><ele>484.0</ele><time>2026-04-11T12:04:10Z</time></trkpt><trkpt lat="43.05940111334832" lon="11.427346875542426"><ele>484.0</ele><time>2026-04-11T12:04:13Z</time></trkpt><trkpt lat="43.059333473704136" lon="11.427275870693691"><ele>484.0</ele><time>2026-04-11T12:04:16Z</time></trkpt><trkpt lat="43.05927074356134" lon="11.427237754591141"><ele>484.00000000000006</ele><time>2026-04-11T12:04:19Z</time></trkpt><trkpt lat="43.05918512591395" lon="11.42723172474186"><ele>484.0</ele><time>2026-04-11T12:04:21.999Z</time></trkpt><trkpt lat="43.05908025183575" lon="11.42729042043839"><ele>484.0</ele><time>2026-04-11T12:04:24.999Z</time></trkpt><trkpt lat="43.05902479098663" lon="11.42742898503691"><ele>484.0</ele><time>2026-04-11T12:04:27.999Z</time></trkpt><trkpt lat="43.059021577786176" lon="11.42753470703635"><ele>484.0</ele><time>2026-04-11T12:04:29.999Z</time></trkpt><trkpt lat="43.059060647986556" lon="11.42767333371905"><ele>484.0</ele><time>2026-04-11T12:04:32.999Z</time></trkpt><trkpt lat="43.059100068249414" lon="11.427756449338244"><ele>484.0</ele><time>2026-04-11T12:04:34.999Z</time></trkpt><trkpt lat="43.05913358719635" lon="11.42785808439608"><ele>484.00000000000006</ele><time>2026-04-11T12:04:36.999Z</time></trkpt><trkpt lat="43.05916644818971" lon="11.427948640458137"><ele>484.0</ele><time>2026-04-11T12:04:38.999Z</time></trkpt><trkpt lat="43.05919339375303" lon="11.428050633834186"><ele>484.0</ele><time>2026-04-11T12:04:40.999Z</time></trkpt><trkpt lat="43.059207218644985" lon="11.42814433357455"><ele>484.0</ele><time>2026-04-11T12:04:42.999Z</time></trkpt><trkpt lat="43.05919358586427" lon="11.42824170109905"><ele>484.00000000000006</ele><time>2026-04-11T12:04:44.999Z</time></trkpt><trkpt lat="43.059134479446655" lon="11.428330658848894"><ele>484.0</ele><time>2026-04-11T12:04:46.999Z</time></trkpt><trkpt lat="43.05905700812895" lon="11.428378984886617"><ele>485.0</ele><time>2026-04-11T12:04:48.999Z</time></trkpt><trkpt lat="43.05898848684997" lon="11.428402157416059"><ele>485.99999999999994</ele><time>2026-04-11T12:04:50.999Z</time></trkpt><trkpt lat="43.05890299141096" lon="11.428434785042406"><ele>487.0</ele><time>2026-04-11T12:04:53.999Z</time></trkpt><trkpt lat="43.05884319936257" lon="11.428477116164217"><ele>488.0</ele><time>2026-04-11T12:04:55.999Z</time></trkpt><trkpt lat="43.05877908351691" lon="11.42852263244992"><ele>488.99999999999994</ele><time>2026-04-11T12:04:57.999Z</time></trkpt><trkpt lat="43.058735491414275" lon="11.42858575898259"><ele>490.0</ele><time>2026-04-11T12:04:59.999Z</time></trkpt><trkpt lat="43.058691979142644" lon="11.428653326981102"><ele>491.0</ele><time>2026-04-11T12:05:01.999Z</time></trkpt><trkpt lat="43.05865255400921" lon="11.428732965240442"><ele>491.0</ele><time>2026-04-11T12:05:03.999Z</time></trkpt><trkpt lat="43.05861804845109" lon="11.428808812316587"><ele>490.99999999999994</ele><time>2026-04-11T12:05:05.999Z</time></trkpt><trkpt lat="43.05858672830004" lon="11.428888263983675"><ele>491.0</ele><time>2026-04-11T12:05:07.999Z</time></trkpt><trkpt lat="43.05854960671788" lon="11.428982858174988"><ele>491.0</ele><time>2026-04-11T12:05:10.999Z</time></trkpt><trkpt lat="43.0585323666555" lon="11.429068177732669"><ele>490.99999999999994</ele><time>2026-04-11T12:05:13.998Z</time></trkpt><trkpt lat="43.05848834289009" lon="11.42917547751639"><ele>491.0</ele><time>2026-04-11T12:05:16.998Z</time></trkpt><trkpt lat="43.0584580449448" lon="11.42925530162528"><ele>491.0</ele><time>2026-04-11T12:05:18.998Z</time></trkpt><trkpt lat="43.058423339769675" lon="11.429338511681035"><ele>490.16666666666663</ele><time>2026-04-11T12:05:20.998Z</time></trkpt><trkpt lat="43.058402542191224" lon="11.429426675299798"><ele>489.3333333333333</ele><time>2026-04-11T12:05:22.998Z</time></trkpt><trkpt lat="43.0583809346227" lon="11.429515818871645"><ele>488.5</ele><time>2026-04-11T12:05:24.998Z</time></trkpt><trkpt lat="43.058365352738846" lon="11.429602544870045"><ele>487.66666666666663</ele><time>2026-04-11T12:05:26.998Z</time></trkpt><trkpt lat="43.05834093530466" lon="11.429722228141747"><ele>486.8333333333333</ele><time>2026-04-11T12:05:29.998Z</time></trkpt><trkpt lat="43.05831657944229" lon="11.429832439233259"><ele>486.0</ele><time>2026-04-11T12:05:32.998Z</time></trkpt><trkpt lat="43.058304376631895" lon="11.429934082123923"><ele>486.0</ele><time>2026-04-11T12:05:34.998Z</time></trkpt><trkpt lat="43.05828418864887" lon="11.430042386987443"><ele>486.0</ele><time>2026-04-11T12:05:36.998Z</time></trkpt><trkpt lat="43.0582726718437" lon="11.430145836256026"><ele>486.0</ele><time>2026-04-11T12:05:39.998Z</time></trkpt><trkpt lat="43.05827363118912" lon="11.430251217665361"><ele>486.0</ele><time>2026-04-11T12:05:41.998Z</time></trkpt><trkpt lat="43.058275753490584" lon="11.430368811447757"><ele>486.0</ele><time>2026-04-11T12:05:44Z</time></trkpt><trkpt lat="43.058292188381536" lon="11.43045889770101"><ele>486.0</ele><time>2026-04-11T12:05:46Z</time></trkpt><trkpt lat="43.058294371834506" lon="11.430591008027259"><ele>484.8</ele><time>2026-04-11T12:05:48Z</time></trkpt><trkpt lat="43.058271823122084" lon="11.430741089309349"><ele>483.6</ele><time>2026-04-11T12:05:50Z</time></trkpt><trkpt lat="43.05824206002297" lon="11.430821370933286"><ele>482.4</ele><time>2026-04-11T12:05:51Z</time></trkpt><trkpt lat="43.05820009243227" lon="11.430895178373506"><ele>481.2</ele><time>2026-04-11T12:05:52Z</time></trkpt><trkpt lat="43.058104768716056" lon="11.43098102213254"><ele>480.0</ele><time>2026-04-11T12:05:54Z</time></trkpt><trkpt lat="43.05801468342965" lon="11.431042903554708"><ele>480.0</ele><time>2026-04-11T12:05:56Z</time></trkpt><trkpt lat="43.05792325636188" lon="11.431089682574914"><ele>480.0</ele><time>2026-04-11T12:05:58Z</time></trkpt><trkpt lat="43.05783754096336" lon="11.431152504142071"><ele>480.0</ele><time>2026-04-11T12:06:00Z</time></trkpt><trkpt lat="43.05775231648785" lon="11.431194567435469"><ele>480.0</ele><time>2026-04-11T12:06:02Z</time></trkpt><trkpt lat="43.057666019287936" lon="11.431227413380913"><ele>480.0</ele><time>2026-04-11T12:06:04Z</time></trkpt><trkpt lat="43.057583293108394" lon="11.43129090061393"><ele>481.3333333333333</ele><time>2026-04-11T12:06:06Z</time></trkpt><trkpt lat="43.05750363664484" lon="11.431363647568775"><ele>482.66666666666663</ele><time>2026-04-11T12:06:08Z</time></trkpt><trkpt lat="43.0574378294866" lon="11.431439027714667"><ele>484.0</ele><time>2026-04-11T12:06:10Z</time></trkpt><trkpt lat="43.05738811147322" lon="11.431511322253114"><ele>485.3333333333333</ele><time>2026-04-11T12:06:12Z</time></trkpt><trkpt lat="43.05733964672529" lon="11.431569861340398"><ele>486.66666666666663</ele><time>2026-04-11T12:06:14Z</time></trkpt><trkpt lat="43.05728502697836" lon="11.431644932698982"><ele>488.0</ele><time>2026-04-11T12:06:17Z</time></trkpt><trkpt lat="43.05723669798367" lon="11.43171159432051"><ele>488.16666666666663</ele><time>2026-04-11T12:06:20Z</time></trkpt><trkpt lat="43.057184999276345" lon="11.431801220387424"><ele>488.3333333333333</ele><time>2026-04-11T12:06:24Z</time></trkpt><trkpt lat="43.05714623752717" lon="11.431873983776844"><ele>488.5</ele><time>2026-04-11T12:06:26.999Z</time></trkpt><trkpt lat="43.05709393597385" lon="11.431975587325208"><ele>488.66666666666663</ele><time>2026-04-11T12:06:30.999Z</time></trkpt><trkpt lat="43.05705078700308" lon="11.432069712553428"><ele>488.8333333333333</ele><time>2026-04-11T12:06:34.999Z</time></trkpt><trkpt lat="43.05700992071372" lon="11.43214665586197"><ele>489.0</ele><time>2026-04-11T12:06:38.999Z</time></trkpt><trkpt lat="43.056949222586205" lon="11.432182007867464"><ele>489.42857142857144</ele><time>2026-04-11T12:07:02.999Z</time></trkpt><trkpt lat="43.05689114973377" lon="11.432220214178242"><ele>489.8571428571429</ele><time>2026-04-11T12:07:04.999Z</time></trkpt><trkpt lat="43.056823430322744" lon="11.432247138069613"><ele>490.28571428571433</ele><time>2026-04-11T12:07:07.999Z</time></trkpt><trkpt lat="43.05675013715527" lon="11.43225124915142"><ele>490.7142857142858</ele><time>2026-04-11T12:07:11.999Z</time></trkpt><trkpt lat="43.056690332891876" lon="11.432218818701468"><ele>491.14285714285717</ele><time>2026-04-11T12:07:14.999Z</time></trkpt><trkpt lat="43.05662618398629" lon="11.43217196300523"><ele>491.57142857142867</ele><time>2026-04-11T12:07:19.999Z</time></trkpt><trkpt lat="43.05655562677556" lon="11.432110421176741"><ele>492.00000000000006</ele><time>2026-04-11T12:07:27.998Z</time></trkpt><trkpt lat="43.05647890923696" lon="11.432055781804948"><ele>490.5</ele><time>2026-04-11T12:07:30.998Z</time></trkpt><trkpt lat="43.05642082216301" lon="11.43200670321835"><ele>489.0</ele><time>2026-04-11T12:07:32.998Z</time></trkpt><trkpt lat="43.05634866585765" lon="11.431969760811342"><ele>487.5</ele><time>2026-04-11T12:07:34.998Z</time></trkpt><trkpt lat="43.056264919971255" lon="11.43192996195202"><ele>486.0</ele><time>2026-04-11T12:07:36.998Z</time></trkpt><trkpt lat="43.05617711607195" lon="11.431892594770947"><ele>484.5</ele><time>2026-04-11T12:07:38.998Z</time></trkpt><trkpt lat="43.05607935693046" lon="11.431870996187522"><ele>483.0</ele><time>2026-04-11T12:07:40.998Z</time></trkpt><trkpt lat="43.055952436686006" lon="11.431830331319981"><ele>483.0</ele><time>2026-04-11T12:07:42.998Z</time></trkpt><trkpt lat="43.055835879705675" lon="11.43180042439619"><ele>483.0</ele><time>2026-04-11T12:07:44.998Z</time></trkpt><trkpt lat="43.05571823241544" lon="11.431768031395382"><ele>483.0</ele><time>2026-04-11T12:07:46.998Z</time></trkpt><trkpt lat="43.05560640465429" lon="11.431759356375178"><ele>483.0</ele><time>2026-04-11T12:07:49Z</time></trkpt><trkpt lat="43.05549566899375" lon="11.431723050341965"><ele>481.75</ele><time>2026-04-11T12:07:51Z</time></trkpt><trkpt lat="43.05537663653851" lon="11.431672192432572"><ele>480.5</ele><time>2026-04-11T12:07:53Z</time></trkpt><trkpt lat="43.055312004160996" lon="11.43153669938539"><ele>479.25</ele><time>2026-04-11T12:07:55Z</time></trkpt><trkpt lat="43.05523687962625" lon="11.431413897757535"><ele>478.0</ele><time>2026-04-11T12:07:57Z</time></trkpt><trkpt lat="43.055147586668184" lon="11.431327701062504"><ele>476.0</ele><time>2026-04-11T12:07:59Z</time></trkpt><trkpt lat="43.05508992205335" lon="11.431278633263561"><ele>473.99999999999994</ele><time>2026-04-11T12:08:00Z</time></trkpt><trkpt lat="43.05499676284969" lon="11.43115359005764"><ele>471.99999999999994</ele><time>2026-04-11T12:08:02Z</time></trkpt><trkpt lat="43.054949171605216" lon="11.431087508630732"><ele>470.0</ele><time>2026-04-11T12:08:03Z</time></trkpt><trkpt lat="43.0548953865942" lon="11.431029122884949"><ele>468.0</ele><time>2026-04-11T12:08:04Z</time></trkpt><trkpt lat="43.05479256336039" lon="11.430942619575823"><ele>467.6666666666667</ele><time>2026-04-11T12:08:06Z</time></trkpt><trkpt lat="43.05472713479928" lon="11.430903255398464"><ele>467.33333333333337</ele><time>2026-04-11T12:08:07Z</time></trkpt><trkpt lat="43.05466579537875" lon="11.430882667215988"><ele>467.0</ele><time>2026-04-11T12:08:08Z</time></trkpt><trkpt lat="43.05455792775347" lon="11.430855598670416"><ele>466.6666666666667</ele><time>2026-04-11T12:08:10Z</time></trkpt><trkpt lat="43.054461382752834" lon="11.430834211041965"><ele>466.33333333333337</ele><time>2026-04-11T12:08:12Z</time></trkpt><trkpt lat="43.05436145803327" lon="11.430820186183963"><ele>466.0</ele><time>2026-04-11T12:08:14Z</time></trkpt><trkpt lat="43.05423826032652" lon="11.430796967364302"><ele>466.00000000000006</ele><time>2026-04-11T12:08:16Z</time></trkpt><trkpt lat="43.05417069196995" lon="11.430780247237616"><ele>466.0</ele><time>2026-04-11T12:08:17Z</time></trkpt><trkpt lat="43.054101992503284" lon="11.430770084751815"><ele>466.0</ele><time>2026-04-11T12:08:18Z</time></trkpt><trkpt lat="43.05403739842638" lon="11.430763658277685"><ele>466.0</ele><time>2026-04-11T12:08:19Z</time></trkpt><trkpt lat="43.05393087923496" lon="11.430752440738248"><ele>466.00000000000006</ele><time>2026-04-11T12:08:21Z</time></trkpt><trkpt lat="43.053842610947775" lon="11.430734004858733"><ele>466.0</ele><time>2026-04-11T12:08:23Z</time></trkpt><trkpt lat="43.05373118307762" lon="11.430730695682698"><ele>464.4</ele><time>2026-04-11T12:08:25Z</time></trkpt><trkpt lat="43.05361609456518" lon="11.430723747116943"><ele>462.8</ele><time>2026-04-11T12:08:27Z</time></trkpt><trkpt lat="43.05355335943733" lon="11.43069995546075"><ele>461.19999999999993</ele><time>2026-04-11T12:08:28Z</time></trkpt><trkpt lat="43.05348540441792" lon="11.430667886091491"><ele>459.59999999999997</ele><time>2026-04-11T12:08:29Z</time></trkpt><trkpt lat="43.053377384641216" lon="11.430618320009179"><ele>458.0</ele><time>2026-04-11T12:08:31Z</time></trkpt><trkpt lat="43.05327664614602" lon="11.430566040302534"><ele>455.59999999999997</ele><time>2026-04-11T12:08:32.999Z</time></trkpt><trkpt lat="43.053180008318186" lon="11.430523906812132"><ele>453.19999999999993</ele><time>2026-04-11T12:08:34.999Z</time></trkpt><trkpt lat="43.05307222134452" lon="11.430485238317294"><ele>450.8</ele><time>2026-04-11T12:08:36.999Z</time></trkpt><trkpt lat="43.05296509878721" lon="11.430435313008868"><ele>448.4</ele><time>2026-04-11T12:08:38.999Z</time></trkpt><trkpt lat="43.05290331811126" lon="11.430391093376766"><ele>446.0</ele><time>2026-04-11T12:08:39.999Z</time></trkpt><trkpt lat="43.05283053322634" lon="11.430336294809583"><ele>445.99999999999994</ele><time>2026-04-11T12:08:40.999Z</time></trkpt><trkpt lat="43.052762112254" lon="11.430276296047605"><ele>446.0</ele><time>2026-04-11T12:08:41.999Z</time></trkpt><trkpt lat="43.052693291001574" lon="11.430221735124848"><ele>446.0</ele><time>2026-04-11T12:08:42.999Z</time></trkpt><trkpt lat="43.05261666776597" lon="11.430174872162077"><ele>446.0</ele><time>2026-04-11T12:08:43.999Z</time></trkpt><trkpt lat="43.052541543127205" lon="11.43013139534441"><ele>445.99999999999994</ele><time>2026-04-11T12:08:44.999Z</time></trkpt><trkpt lat="43.052465201067776" lon="11.430088855556471"><ele>446.0</ele><time>2026-04-11T12:08:45.999Z</time></trkpt><trkpt lat="43.05238218079874" lon="11.43004016832654"><ele>443.66666666666663</ele><time>2026-04-11T12:08:46.999Z</time></trkpt><trkpt lat="43.05230215046989" lon="11.429989734776825"><ele>441.3333333333333</ele><time>2026-04-11T12:08:47.999Z</time></trkpt><trkpt lat="43.05222195011233" lon="11.429944402756927"><ele>439.0</ele><time>2026-04-11T12:08:48.999Z</time></trkpt><trkpt lat="43.05213560188001" lon="11.42990437482506"><ele>436.66666666666663</ele><time>2026-04-11T12:08:49.999Z</time></trkpt><trkpt lat="43.052052480577146" lon="11.429868799408887"><ele>434.3333333333333</ele><time>2026-04-11T12:08:50.999Z</time></trkpt><trkpt lat="43.051969443167394" lon="11.429839246305718"><ele>432.0</ele><time>2026-04-11T12:08:51.999Z</time></trkpt><trkpt lat="43.051889016023" lon="11.429810455074374"><ele>432.0</ele><time>2026-04-11T12:08:52.999Z</time></trkpt><trkpt lat="43.051814698257324" lon="11.42978566068969"><ele>432.0</ele><time>2026-04-11T12:08:53.999Z</time></trkpt><trkpt lat="43.05173988072842" lon="11.429759079103187"><ele>432.0</ele><time>2026-04-11T12:08:54.999Z</time></trkpt><trkpt lat="43.05166456035695" lon="11.429732334484935"><ele>432.0</ele><time>2026-04-11T12:08:55.999Z</time></trkpt><trkpt lat="43.05158966031253" lon="11.42970467170474"><ele>432.0</ele><time>2026-04-11T12:08:56.999Z</time></trkpt><trkpt lat="43.05151706412442" lon="11.429668562677906"><ele>432.0</ele><time>2026-04-11T12:08:57.999Z</time></trkpt><trkpt lat="43.05144349607047" lon="11.429627636217328"><ele>432.57142857142856</ele><time>2026-04-11T12:08:58.999Z</time></trkpt><trkpt lat="43.051376768244566" lon="11.42957865741318"><ele>433.1428571428571</ele><time>2026-04-11T12:08:59.999Z</time></trkpt><trkpt lat="43.051310790580494" lon="11.429528538976484"><ele>433.7142857142857</ele><time>2026-04-11T12:09:00.999Z</time></trkpt><trkpt lat="43.05124876224923" lon="11.429471801953062"><ele>434.2857142857143</ele><time>2026-04-11T12:09:01.999Z</time></trkpt><trkpt lat="43.05119000111447" lon="11.429414002827537"><ele>434.8571428571429</ele><time>2026-04-11T12:09:02.999Z</time></trkpt><trkpt lat="43.05113260879271" lon="11.42935981530334"><ele>435.42857142857144</ele><time>2026-04-11T12:09:03.999Z</time></trkpt><trkpt lat="43.05107933391041" lon="11.429303071055758"><ele>436.0</ele><time>2026-04-11T12:09:04.999Z</time></trkpt><trkpt lat="43.051028906646636" lon="11.429248150060335"><ele>436.0</ele><time>2026-04-11T12:09:05.999Z</time></trkpt><trkpt lat="43.050937196560454" lon="11.429141449157951"><ele>436.0</ele><time>2026-04-11T12:09:07.999Z</time></trkpt><trkpt lat="43.05085952419092" lon="11.429043815497389"><ele>436.0</ele><time>2026-04-11T12:09:09.999Z</time></trkpt><trkpt lat="43.05080094352151" lon="11.42896910021919"><ele>436.0</ele><time>2026-04-11T12:09:11.999Z</time></trkpt><trkpt lat="43.05075076193738" lon="11.42891677154773"><ele>436.0</ele><time>2026-04-11T12:09:13.999Z</time></trkpt><trkpt lat="43.05067995835856" lon="11.428852613168612"><ele>436.1666666666667</ele><time>2026-04-11T12:09:16.999Z</time></trkpt><trkpt lat="43.05060207907164" lon="11.428792172296678"><ele>436.33333333333337</ele><time>2026-04-11T12:09:19.999Z</time></trkpt><trkpt lat="43.05054701915618" lon="11.428739626838874"><ele>436.5</ele><time>2026-04-11T12:09:21.999Z</time></trkpt><trkpt lat="43.050487667732675" lon="11.428681552285363"><ele>436.66666666666663</ele><time>2026-04-11T12:09:23.999Z</time></trkpt><trkpt lat="43.0504204272495" lon="11.428608544761913"><ele>436.8333333333333</ele><time>2026-04-11T12:09:25.998Z</time></trkpt><trkpt lat="43.0503510496445" lon="11.428538389267358"><ele>437.0</ele><time>2026-04-11T12:09:27.998Z</time></trkpt><trkpt lat="43.05027984391058" lon="11.428462165892777"><ele>436.99999999999994</ele><time>2026-04-11T12:09:29.998Z</time></trkpt><trkpt lat="43.05021088862345" lon="11.428397402223151"><ele>437.0</ele><time>2026-04-11T12:09:31.998Z</time></trkpt><trkpt lat="43.05013784420571" lon="11.428338175216899"><ele>437.0</ele><time>2026-04-11T12:09:33.998Z</time></trkpt><trkpt lat="43.05007619602161" lon="11.428297205073354"><ele>437.0</ele><time>2026-04-11T12:09:35.998Z</time></trkpt><trkpt lat="43.05000743701295" lon="11.428277443828854"><ele>436.99999999999994</ele><time>2026-04-11T12:09:37.998Z</time></trkpt><trkpt lat="43.049910480962936" lon="11.428262073590112"><ele>437.0</ele><time>2026-04-11T12:09:39.998Z</time></trkpt><trkpt lat="43.049788940545454" lon="11.428208765625463"><ele>437.7142857142857</ele><time>2026-04-11T12:09:41.998Z</time></trkpt><trkpt lat="43.049727097451516" lon="11.428157984605484"><ele>438.42857142857144</ele><time>2026-04-11T12:09:42.998Z</time></trkpt><trkpt lat="43.04966886143476" lon="11.428095676091388"><ele>439.14285714285717</ele><time>2026-04-11T12:09:43.998Z</time></trkpt><trkpt lat="43.04961418180838" lon="11.428030195910699"><ele>439.8571428571429</ele><time>2026-04-11T12:09:44.998Z</time></trkpt><trkpt lat="43.0495682559672" lon="11.42796115491162"><ele>440.57142857142856</ele><time>2026-04-11T12:09:45.998Z</time></trkpt><trkpt lat="43.04951864737133" lon="11.427894338719193"><ele>441.28571428571433</ele><time>2026-04-11T12:09:46.998Z</time></trkpt><trkpt lat="43.04946393406763" lon="11.427830389702454"><ele>442.0</ele><time>2026-04-11T12:09:47.998Z</time></trkpt><trkpt lat="43.04940647721951" lon="11.427773676365488"><ele>440.00000000000006</ele><time>2026-04-11T12:09:48.998Z</time></trkpt><trkpt lat="43.049347969374324" lon="11.427728962689509"><ele>438.0</ele><time>2026-04-11T12:09:49.998Z</time></trkpt><trkpt lat="43.04929052158092" lon="11.427678012203403"><ele>436.0</ele><time>2026-04-11T12:09:50.998Z</time></trkpt><trkpt lat="43.04923319251803" lon="11.42763166763486"><ele>434.0</ele><time>2026-04-11T12:09:51.998Z</time></trkpt><trkpt lat="43.0491713793765" lon="11.427576649634885"><ele>432.0</ele><time>2026-04-11T12:09:52.998Z</time></trkpt><trkpt lat="43.04910041038377" lon="11.42755600750193"><ele>430.00000000000006</ele><time>2026-04-11T12:09:53.998Z</time></trkpt><trkpt lat="43.049037956368736" lon="11.42751385093251"><ele>428.0</ele><time>2026-04-11T12:09:55Z</time></trkpt><trkpt lat="43.04897071844166" lon="11.42746889576207"><ele>427.8333333333333</ele><time>2026-04-11T12:09:56Z</time></trkpt><trkpt lat="43.04892455685706" lon="11.427388178893072"><ele>427.66666666666663</ele><time>2026-04-11T12:09:57Z</time></trkpt><trkpt lat="43.048871960501955" lon="11.427337154959417"><ele>427.5</ele><time>2026-04-11T12:09:58Z</time></trkpt><trkpt lat="43.04881957135754" lon="11.427278625938797"><ele>427.33333333333337</ele><time>2026-04-11T12:09:59Z</time></trkpt><trkpt lat="43.04874199527277" lon="11.427165519242406"><ele>427.1666666666667</ele><time>2026-04-11T12:10:01Z</time></trkpt><trkpt lat="43.04868572956911" lon="11.427038718021258"><ele>427.0</ele><time>2026-04-11T12:10:03Z</time></trkpt><trkpt lat="43.04862471485428" lon="11.426907315355304"><ele>425.50000000000006</ele><time>2026-04-11T12:10:05Z</time></trkpt><trkpt lat="43.04853876632853" lon="11.426784729212502"><ele>424.0</ele><time>2026-04-11T12:10:07Z</time></trkpt><trkpt lat="43.04849149775061" lon="11.426724776092005"><ele>422.5</ele><time>2026-04-11T12:10:08Z</time></trkpt><trkpt lat="43.048439878454005" lon="11.426663416742358"><ele>421.0</ele><time>2026-04-11T12:10:09Z</time></trkpt><trkpt lat="43.048391986583056" lon="11.426593098329347"><ele>419.50000000000006</ele><time>2026-04-11T12:10:10Z</time></trkpt><trkpt lat="43.04834895336492" lon="11.426518216477366"><ele>418.0</ele><time>2026-04-11T12:10:11Z</time></trkpt><trkpt lat="43.04831451214353" lon="11.426442256723307"><ele>417.0</ele><time>2026-04-11T12:10:12Z</time></trkpt><trkpt lat="43.048284356550674" lon="11.426363929238649"><ele>416.0</ele><time>2026-04-11T12:10:13Z</time></trkpt><trkpt lat="43.048231407057706" lon="11.426225263479017"><ele>415.0</ele><time>2026-04-11T12:10:15Z</time></trkpt><trkpt lat="43.048182105846394" lon="11.426097359057406"><ele>414.0</ele><time>2026-04-11T12:10:17Z</time></trkpt><trkpt lat="43.04813200794014" lon="11.425983755119677"><ele>413.0</ele><time>2026-04-11T12:10:19Z</time></trkpt><trkpt lat="43.048081087334" lon="11.425872858349084"><ele>411.79999999999995</ele><time>2026-04-11T12:10:21Z</time></trkpt><trkpt lat="43.048026804001964" lon="11.425770230784225"><ele>410.6</ele><time>2026-04-11T12:10:23Z</time></trkpt><trkpt lat="43.04797119648418" lon="11.42565344908802"><ele>409.4</ele><time>2026-04-11T12:10:25Z</time></trkpt><trkpt lat="43.04791735254692" lon="11.425553443984974"><ele>408.20000000000005</ele><time>2026-04-11T12:10:27Z</time></trkpt><trkpt lat="43.047852614271726" lon="11.425450860810601"><ele>407.0</ele><time>2026-04-11T12:10:29Z</time></trkpt><trkpt lat="43.04777781805124" lon="11.425330207981752"><ele>405.0</ele><time>2026-04-11T12:10:31Z</time></trkpt><trkpt lat="43.04770419276588" lon="11.4252172380104"><ele>403.0</ele><time>2026-04-11T12:10:33Z</time></trkpt><trkpt lat="43.047632775575686" lon="11.425107263044456"><ele>401.0</ele><time>2026-04-11T12:10:35Z</time></trkpt><trkpt lat="43.04756446354245" lon="11.424999003752047"><ele>399.0</ele><time>2026-04-11T12:10:37Z</time></trkpt><trkpt lat="43.04747738677511" lon="11.424901880432866"><ele>397.0</ele><time>2026-04-11T12:10:39Z</time></trkpt><trkpt lat="43.04740835015106" lon="11.424805171015878"><ele>396.40000000000003</ele><time>2026-04-11T12:10:40.999Z</time></trkpt><trkpt lat="43.04734007009059" lon="11.42472510063679"><ele>395.8</ele><time>2026-04-11T12:10:42.999Z</time></trkpt><trkpt lat="43.04725783936508" lon="11.424661819271817"><ele>395.2</ele><time>2026-04-11T12:10:44.999Z</time></trkpt><trkpt lat="43.047169269845" lon="11.424604912880426"><ele>394.6</ele><time>2026-04-11T12:10:46.999Z</time></trkpt><trkpt lat="43.04707718138375" lon="11.424515775742487"><ele>394.0</ele><time>2026-04-11T12:10:48.999Z</time></trkpt><trkpt lat="43.04699755718388" lon="11.424437690082025"><ele>393.0</ele><time>2026-04-11T12:10:50.999Z</time></trkpt><trkpt lat="43.04693375804835" lon="11.424303728045206"><ele>392.0</ele><time>2026-04-11T12:10:52.999Z</time></trkpt><trkpt lat="43.046880581957325" lon="11.424146428520606"><ele>391.0</ele><time>2026-04-11T12:10:54.999Z</time></trkpt><trkpt lat="43.04685259753611" lon="11.424061682212088"><ele>390.0</ele><time>2026-04-11T12:10:55.999Z</time></trkpt><trkpt lat="43.046826444348156" lon="11.423974618363289"><ele>389.0</ele><time>2026-04-11T12:10:56.999Z</time></trkpt><trkpt lat="43.04679650396608" lon="11.423886767711673"><ele>388.8333333333333</ele><time>2026-04-11T12:10:57.999Z</time></trkpt><trkpt lat="43.04676750647765" lon="11.423800172988694"><ele>388.66666666666663</ele><time>2026-04-11T12:10:58.999Z</time></trkpt><trkpt lat="43.04673846757719" lon="11.423715053612973"><ele>388.5</ele><time>2026-04-11T12:10:59.999Z</time></trkpt><trkpt lat="43.04670826670443" lon="11.423634964765114"><ele>388.33333333333337</ele><time>2026-04-11T12:11:00.999Z</time></trkpt><trkpt lat="43.04667752505164" lon="11.423552554580468"><ele>388.1666666666667</ele><time>2026-04-11T12:11:01.999Z</time></trkpt><trkpt lat="43.046625767228846" lon="11.423411943642924"><ele>388.0</ele><time>2026-04-11T12:11:03.999Z</time></trkpt><trkpt lat="43.04657683369601" lon="11.423284535117203"><ele>387.83333333333337</ele><time>2026-04-11T12:11:05.999Z</time></trkpt><trkpt lat="43.04653972421925" lon="11.423189303429513"><ele>387.6666666666667</ele><time>2026-04-11T12:11:07.999Z</time></trkpt><trkpt lat="43.046496234725566" lon="11.423082046430956"><ele>387.5</ele><time>2026-04-11T12:11:10.999Z</time></trkpt><trkpt lat="43.04645981519934" lon="11.422980296033472"><ele>387.33333333333337</ele><time>2026-04-11T12:11:13.999Z</time></trkpt><trkpt lat="43.04642832761091" lon="11.422890035048676"><ele>387.1666666666667</ele><time>2026-04-11T12:11:16.999Z</time></trkpt><trkpt lat="43.046388962368766" lon="11.422794704556315"><ele>387.0</ele><time>2026-04-11T12:11:20.999Z</time></trkpt><trkpt lat="43.046345298076716" lon="11.422713310565161"><ele>388.8571428571429</ele><time>2026-04-11T12:11:24.999Z</time></trkpt><trkpt lat="43.04626924461932" lon="11.42268023452096"><ele>390.7142857142857</ele><time>2026-04-11T12:11:28.999Z</time></trkpt><trkpt lat="43.04619522037208" lon="11.422660097779383"><ele>392.57142857142856</ele><time>2026-04-11T12:11:31.999Z</time></trkpt><trkpt lat="43.046120496679485" lon="11.422682623109909"><ele>394.42857142857144</ele><time>2026-04-11T12:11:34.998Z</time></trkpt><trkpt lat="43.046049629528675" lon="11.422676385591434"><ele>396.2857142857143</ele><time>2026-04-11T12:11:37.998Z</time></trkpt><trkpt lat="43.04597894778186" lon="11.422671124898038"><ele>398.14285714285717</ele><time>2026-04-11T12:11:40.998Z</time></trkpt><trkpt lat="43.04591250229273" lon="11.422662505097993"><ele>400.0</ele><time>2026-04-11T12:11:43.998Z</time></trkpt><trkpt lat="43.04584686906599" lon="11.422642550035826"><ele>397.33333333333337</ele><time>2026-04-11T12:11:46.998Z</time></trkpt><trkpt lat="43.04577581332221" lon="11.422623978735775"><ele>394.6666666666667</ele><time>2026-04-11T12:11:49.998Z</time></trkpt><trkpt lat="43.04569701382418" lon="11.422585778354051"><ele>392.0</ele><time>2026-04-11T12:11:52.998Z</time></trkpt><trkpt lat="43.045625634156686" lon="11.422522891391337"><ele>389.33333333333337</ele><time>2026-04-11T12:11:55.998Z</time></trkpt><trkpt lat="43.04556308151872" lon="11.422480781448536"><ele>386.6666666666667</ele><time>2026-04-11T12:11:58.998Z</time></trkpt><trkpt lat="43.045506467774885" lon="11.422422920342687"><ele>384.0</ele><time>2026-04-11T12:12:02Z</time></trkpt><trkpt lat="43.04543957286914" lon="11.422344610487421"><ele>384.0</ele><time>2026-04-11T12:12:05Z</time></trkpt><trkpt lat="43.04539317936391" lon="11.422274629629786"><ele>384.0</ele><time>2026-04-11T12:12:07Z</time></trkpt><trkpt lat="43.04534769886905" lon="11.4221835102429"><ele>384.0</ele><time>2026-04-11T12:12:09Z</time></trkpt><trkpt lat="43.045306013619616" lon="11.422075719594632"><ele>384.0</ele><time>2026-04-11T12:12:11Z</time></trkpt><trkpt lat="43.04525651254351" lon="11.421950349223657"><ele>384.0</ele><time>2026-04-11T12:12:13Z</time></trkpt><trkpt lat="43.04521335391384" lon="11.421812188749982"><ele>385.4</ele><time>2026-04-11T12:12:15Z</time></trkpt><trkpt lat="43.045169867760166" lon="11.421673619110562"><ele>386.79999999999995</ele><time>2026-04-11T12:12:17Z</time></trkpt><trkpt lat="43.04512686861593" lon="11.42152919125206"><ele>388.20000000000005</ele><time>2026-04-11T12:12:19Z</time></trkpt><trkpt lat="43.045084372929225" lon="11.421399920699324"><ele>389.6</ele><time>2026-04-11T12:12:21Z</time></trkpt><trkpt lat="43.045043616599045" lon="11.421268965444767"><ele>391.0</ele><time>2026-04-11T12:12:23Z</time></trkpt><trkpt lat="43.04499911341579" lon="11.421127450763166"><ele>390.99999999999994</ele><time>2026-04-11T12:12:25Z</time></trkpt><trkpt lat="43.04496999961199" lon="11.421034070735917"><ele>391.0</ele><time>2026-04-11T12:12:27Z</time></trkpt><trkpt lat="43.04494813902501" lon="11.420948277857818"><ele>391.0</ele><time>2026-04-11T12:12:29Z</time></trkpt><trkpt lat="43.04493324884869" lon="11.42085956375021"><ele>391.0</ele><time>2026-04-11T12:12:31Z</time></trkpt><trkpt lat="43.04492987481702" lon="11.420753423279747"><ele>391.0</ele><time>2026-04-11T12:12:33Z</time></trkpt><trkpt lat="43.0449653283406" lon="11.42066242054685"><ele>390.99999999999994</ele><time>2026-04-11T12:12:35Z</time></trkpt><trkpt lat="43.04502995536171" lon="11.420618927060747"><ele>391.0</ele><time>2026-04-11T12:12:37Z</time></trkpt><trkpt lat="43.04509180750716" lon="11.420577141189819"><ele>391.00000000000006</ele><time>2026-04-11T12:12:39Z</time></trkpt><trkpt lat="43.04514964889842" lon="11.420541808523138"><ele>391.0</ele><time>2026-04-11T12:12:41Z</time></trkpt><trkpt lat="43.04520404473365" lon="11.420470602335815"><ele>391.0</ele><time>2026-04-11T12:12:44Z</time></trkpt><trkpt lat="43.045196783516246" lon="11.420375956376326"><ele>391.0</ele><time>2026-04-11T12:12:46Z</time></trkpt><trkpt lat="43.0451440026151" lon="11.42022738106947"><ele>391.00000000000006</ele><time>2026-04-11T12:12:47.999Z</time></trkpt><trkpt lat="43.04511556517768" lon="11.420146480787972"><ele>391.0</ele><time>2026-04-11T12:12:48.999Z</time></trkpt><trkpt lat="43.04508630809619" lon="11.42006607436649"><ele>390.33333333333337</ele><time>2026-04-11T12:12:49.999Z</time></trkpt><trkpt lat="43.045053393487564" lon="11.419983130847534"><ele>389.6666666666667</ele><time>2026-04-11T12:12:50.999Z</time></trkpt><trkpt lat="43.04501974669641" lon="11.419897977696863"><ele>389.0</ele><time>2026-04-11T12:12:51.999Z</time></trkpt><trkpt lat="43.04499109075975" lon="11.41981824803074"><ele>388.33333333333337</ele><time>2026-04-11T12:12:52.999Z</time></trkpt><trkpt lat="43.044939132023124" lon="11.419681664604035"><ele>387.6666666666667</ele><time>2026-04-11T12:12:54.999Z</time></trkpt><trkpt lat="43.04488907513115" lon="11.419570014070647"><ele>387.0</ele><time>2026-04-11T12:12:56.999Z</time></trkpt><trkpt lat="43.04483810157464" lon="11.419440724888782"><ele>383.8</ele><time>2026-04-11T12:12:58.999Z</time></trkpt><trkpt lat="43.04476682559572" lon="11.419286511699362"><ele>380.6</ele><time>2026-04-11T12:13:00.999Z</time></trkpt><trkpt lat="43.04472166348353" lon="11.419195628712732"><ele>377.40000000000003</ele><time>2026-04-11T12:13:01.999Z</time></trkpt><trkpt lat="43.04467714098405" lon="11.419098118187096"><ele>374.20000000000005</ele><time>2026-04-11T12:13:02.999Z</time></trkpt><trkpt lat="43.04463514247391" lon="11.418995617156682"><ele>371.0</ele><time>2026-04-11T12:13:03.999Z</time></trkpt><trkpt lat="43.04459390146163" lon="11.418886970439589"><ele>371.33333333333337</ele><time>2026-04-11T12:13:04.999Z</time></trkpt><trkpt lat="43.044552102439674" lon="11.418774434483167"><ele>371.6666666666667</ele><time>2026-04-11T12:13:05.999Z</time></trkpt><trkpt lat="43.0445080876358" lon="11.418665442755408"><ele>372.0</ele><time>2026-04-11T12:13:06.999Z</time></trkpt><trkpt lat="43.04445970438381" lon="11.418561092835215"><ele>372.3333333333333</ele><time>2026-04-11T12:13:07.999Z</time></trkpt><trkpt lat="43.044413166405754" lon="11.418462306020539"><ele>372.66666666666663</ele><time>2026-04-11T12:13:08.999Z</time></trkpt><trkpt lat="43.04437062060368" lon="11.418369761538846"><ele>373.0</ele><time>2026-04-11T12:13:09.999Z</time></trkpt><trkpt lat="43.04433093038487" lon="11.41828224526928"><ele>373.0</ele><time>2026-04-11T12:13:10.999Z</time></trkpt><trkpt lat="43.044292670238455" lon="11.41819852022841"><ele>373.0</ele><time>2026-04-11T12:13:11.999Z</time></trkpt><trkpt lat="43.04425835888966" lon="11.418114225349658"><ele>373.0</ele><time>2026-04-11T12:13:12.999Z</time></trkpt><trkpt lat="43.044225626748656" lon="11.418031528521519"><ele>373.0</ele><time>2026-04-11T12:13:13.999Z</time></trkpt><trkpt lat="43.04419491354159" lon="11.417954055178853"><ele>373.0</ele><time>2026-04-11T12:13:14.999Z</time></trkpt><trkpt lat="43.04416378168924" lon="11.417876418554883"><ele>373.0</ele><time>2026-04-11T12:13:15.999Z</time></trkpt><trkpt lat="43.04413390436791" lon="11.417800104555335"><ele>373.0</ele><time>2026-04-11T12:13:16.999Z</time></trkpt><trkpt lat="43.04407081627532" lon="11.417654230974545"><ele>372.2857142857143</ele><time>2026-04-11T12:13:18.999Z</time></trkpt><trkpt lat="43.044034700524186" lon="11.417580849883219"><ele>371.57142857142856</ele><time>2026-04-11T12:13:19.999Z</time></trkpt><trkpt lat="43.043994953385095" lon="11.417509100815778"><ele>370.8571428571429</ele><time>2026-04-11T12:13:20.999Z</time></trkpt><trkpt lat="43.04394823500655" lon="11.417440728649117"><ele>370.1428571428571</ele><time>2026-04-11T12:13:21.999Z</time></trkpt><trkpt lat="43.043901425732976" lon="11.417370617998595"><ele>369.4285714285714</ele><time>2026-04-11T12:13:22.999Z</time></trkpt><trkpt lat="43.043855589325226" lon="11.417295315019416"><ele>368.7142857142857</ele><time>2026-04-11T12:13:23.999Z</time></trkpt><trkpt lat="43.04380943272054" lon="11.41722177452059"><ele>368.0</ele><time>2026-04-11T12:13:24.999Z</time></trkpt><trkpt lat="43.043763380877444" lon="11.417147865630863"><ele>368.0</ele><time>2026-04-11T12:13:25.999Z</time></trkpt><trkpt lat="43.0437207864215" lon="11.417072666444113"><ele>368.0</ele><time>2026-04-11T12:13:26.999Z</time></trkpt><trkpt lat="43.04367977010019" lon="11.417000020553887"><ele>368.0</ele><time>2026-04-11T12:13:27.999Z</time></trkpt><trkpt lat="43.043603742589006" lon="11.416877549443884"><ele>368.0</ele><time>2026-04-11T12:13:29.999Z</time></trkpt><trkpt lat="43.04352897803442" lon="11.41675463516839"><ele>368.0</ele><time>2026-04-11T12:13:31.999Z</time></trkpt><trkpt lat="43.04345494120472" lon="11.416633200519028"><ele>368.0</ele><time>2026-04-11T12:13:33.999Z</time></trkpt><trkpt lat="43.043381302477464" lon="11.41650699382753"><ele>368.0</ele><time>2026-04-11T12:13:35.999Z</time></trkpt><trkpt lat="43.043310093779446" lon="11.41637139197057"><ele>368.0</ele><time>2026-04-11T12:13:37.999Z</time></trkpt><trkpt lat="43.04326098300139" lon="11.416226061299673"><ele>368.0</ele><time>2026-04-11T12:13:39.999Z</time></trkpt><trkpt lat="43.04322628819888" lon="11.416082205920459"><ele>366.83333333333337</ele><time>2026-04-11T12:13:41.998Z</time></trkpt><trkpt lat="43.04316836038909" lon="11.415927774590683"><ele>365.6666666666667</ele><time>2026-04-11T12:13:43.998Z</time></trkpt><trkpt lat="43.04312919036214" lon="11.41585485284233"><ele>364.5</ele><time>2026-04-11T12:13:44.998Z</time></trkpt><trkpt lat="43.04308938442579" lon="11.415784209309873"><ele>363.3333333333333</ele><time>2026-04-11T12:13:45.998Z</time></trkpt><trkpt lat="43.043041635360325" lon="11.415709665034191"><ele>362.16666666666663</ele><time>2026-04-11T12:13:46.998Z</time></trkpt><trkpt lat="43.042992765337054" lon="11.415636379133927"><ele>361.0</ele><time>2026-04-11T12:13:47.998Z</time></trkpt><trkpt lat="43.042952438248165" lon="11.41556167921056"><ele>360.8571428571429</ele><time>2026-04-11T12:13:49.998Z</time></trkpt><trkpt lat="43.04291525042472" lon="11.41547867789287"><ele>360.71428571428567</ele><time>2026-04-11T12:13:50.998Z</time></trkpt><trkpt lat="43.0428804128233" lon="11.4153921385197"><ele>360.57142857142856</ele><time>2026-04-11T12:13:51.998Z</time></trkpt><trkpt lat="43.04284195213778" lon="11.415308690010887"><ele>360.42857142857144</ele><time>2026-04-11T12:13:52.998Z</time></trkpt><trkpt lat="43.04280511445339" lon="11.415233790008573"><ele>360.28571428571433</ele><time>2026-04-11T12:13:53.998Z</time></trkpt><trkpt lat="43.04276705194002" lon="11.415158452699902"><ele>360.1428571428571</ele><time>2026-04-11T12:13:54.998Z</time></trkpt><trkpt lat="43.04272788396719" lon="11.415082569514487"><ele>360.0</ele><time>2026-04-11T12:13:55.998Z</time></trkpt><trkpt lat="43.04265429918649" lon="11.414976777670951"><ele>360.0</ele><time>2026-04-11T12:13:57.998Z</time></trkpt><trkpt lat="43.04256902189218" lon="11.414866705054648"><ele>360.0</ele><time>2026-04-11T12:13:59.998Z</time></trkpt><trkpt lat="43.04249332174799" lon="11.41477667227525"><ele>360.0</ele><time>2026-04-11T12:14:01.998Z</time></trkpt><trkpt lat="43.04240492651948" lon="11.414671327489406"><ele>360.0</ele><time>2026-04-11T12:14:03.998Z</time></trkpt><trkpt lat="43.04231779999473" lon="11.414562385267233"><ele>358.2</ele><time>2026-04-11T12:14:05.998Z</time></trkpt><trkpt lat="43.04222860968718" lon="11.414456778149248"><ele>356.4</ele><time>2026-04-11T12:14:08Z</time></trkpt><trkpt lat="43.0421463239773" lon="11.414351247961957"><ele>354.6</ele><time>2026-04-11T12:14:10Z</time></trkpt><trkpt lat="43.04208126522869" lon="11.41424443051241"><ele>352.8</ele><time>2026-04-11T12:14:12Z</time></trkpt><trkpt lat="43.042049443229224" lon="11.414167102151936"><ele>351.0</ele><time>2026-04-11T12:14:13Z</time></trkpt><trkpt lat="43.04202500122717" lon="11.414087058408503"><ele>351.0</ele><time>2026-04-11T12:14:14Z</time></trkpt><trkpt lat="43.041969761041216" lon="11.41393128979106"><ele>351.0</ele><time>2026-04-11T12:14:16Z</time></trkpt><trkpt lat="43.0419423056098" lon="11.413842906059854"><ele>351.0</ele><time>2026-04-11T12:14:17Z</time></trkpt><trkpt lat="43.04191637266491" lon="11.41375179840209"><ele>351.0</ele><time>2026-04-11T12:14:18Z</time></trkpt><trkpt lat="43.041885917401146" lon="11.41365613719874"><ele>351.0</ele><time>2026-04-11T12:14:19Z</time></trkpt><trkpt lat="43.04185529972001" lon="11.413562301406907"><ele>351.0</ele><time>2026-04-11T12:14:20Z</time></trkpt><trkpt lat="43.04182179091788" lon="11.413464415125436"><ele>350.14285714285717</ele><time>2026-04-11T12:14:21Z</time></trkpt><trkpt lat="43.041792937213586" lon="11.413372499307645"><ele>349.2857142857143</ele><time>2026-04-11T12:14:22Z</time></trkpt><trkpt lat="43.041761503212925" lon="11.413278939341717"><ele>348.42857142857144</ele><time>2026-04-11T12:14:23Z</time></trkpt><trkpt lat="43.04172900911" lon="11.413182291398785"><ele>347.57142857142856</ele><time>2026-04-11T12:14:24Z</time></trkpt><trkpt lat="43.041699804392486" lon="11.413087228724187"><ele>346.7142857142857</ele><time>2026-04-11T12:14:25Z</time></trkpt><trkpt lat="43.04167233677741" lon="11.412998691386806"><ele>345.8571428571429</ele><time>2026-04-11T12:14:26Z</time></trkpt><trkpt lat="43.041644139217716" lon="11.412903689849664"><ele>345.0</ele><time>2026-04-11T12:14:27Z</time></trkpt><trkpt lat="43.04161699633541" lon="11.412808013387902"><ele>342.2</ele><time>2026-04-11T12:14:28Z</time></trkpt><trkpt lat="43.04159110507388" lon="11.412706579473655"><ele>339.4</ele><time>2026-04-11T12:14:29Z</time></trkpt><trkpt lat="43.04156788482353" lon="11.412598615750708"><ele>336.6</ele><time>2026-04-11T12:14:30Z</time></trkpt><trkpt lat="43.04155016616061" lon="11.412478267353112"><ele>333.8</ele><time>2026-04-11T12:14:31Z</time></trkpt><trkpt lat="43.041536136054816" lon="11.412344345845547"><ele>331.0</ele><time>2026-04-11T12:14:32Z</time></trkpt><trkpt lat="43.04153192031201" lon="11.412206935430978"><ele>329.6</ele><time>2026-04-11T12:14:33Z</time></trkpt><trkpt lat="43.041531079398155" lon="11.412068429648963"><ele>328.20000000000005</ele><time>2026-04-11T12:14:34Z</time></trkpt><trkpt lat="43.041529739048315" lon="11.411926951176284"><ele>326.79999999999995</ele><time>2026-04-11T12:14:35Z</time></trkpt><trkpt lat="43.04150850285527" lon="11.411800894603818"><ele>325.4</ele><time>2026-04-11T12:14:36Z</time></trkpt><trkpt lat="43.041531847153344" lon="11.411646678142448"><ele>324.0</ele><time>2026-04-11T12:14:37Z</time></trkpt><trkpt lat="43.04152685652184" lon="11.411531107161819"><ele>324.0</ele><time>2026-04-11T12:14:38Z</time></trkpt><trkpt lat="43.0415389845452" lon="11.411397576227127"><ele>324.0</ele><time>2026-04-11T12:14:39Z</time></trkpt><trkpt lat="43.04153793480893" lon="11.411294604633744"><ele>324.0</ele><time>2026-04-11T12:14:40Z</time></trkpt><trkpt lat="43.04154892777812" lon="11.411193955488395"><ele>324.0</ele><time>2026-04-11T12:14:41Z</time></trkpt><trkpt lat="43.04155059031848" lon="11.41110642502767"><ele>324.0</ele><time>2026-04-11T12:14:42Z</time></trkpt><trkpt lat="43.04156364580072" lon="11.410999104348628"><ele>324.0</ele><time>2026-04-11T12:14:43Z</time></trkpt><trkpt lat="43.041574212404" lon="11.41089005408715"><ele>323.6</ele><time>2026-04-11T12:14:44Z</time></trkpt><trkpt lat="43.0415865580563" lon="11.41078332130526"><ele>323.2</ele><time>2026-04-11T12:14:45Z</time></trkpt><trkpt lat="43.04160020642706" lon="11.41068584364967"><ele>322.8</ele><time>2026-04-11T12:14:46Z</time></trkpt><trkpt lat="43.041609798161616" lon="11.410597046438053"><ele>322.40000000000003</ele><time>2026-04-11T12:14:47Z</time></trkpt><trkpt lat="43.04163086241257" lon="11.410427088907173"><ele>322.0</ele><time>2026-04-11T12:14:49Z</time></trkpt><trkpt lat="43.041650328612036" lon="11.41026083835225"><ele>321.8</ele><time>2026-04-11T12:14:51Z</time></trkpt><trkpt lat="43.04166886018637" lon="11.410102359188091"><ele>321.6</ele><time>2026-04-11T12:14:53Z</time></trkpt><trkpt lat="43.041680313856595" lon="11.410017613758717"><ele>321.40000000000003</ele><time>2026-04-11T12:14:54Z</time></trkpt><trkpt lat="43.04169901636223" lon="11.409853760860688"><ele>321.20000000000005</ele><time>2026-04-11T12:14:55.999Z</time></trkpt><trkpt lat="43.04171298645419" lon="11.409701193921272"><ele>321.0</ele><time>2026-04-11T12:14:57.999Z</time></trkpt><trkpt lat="43.041727030516284" lon="11.40954808922656"><ele>319.40000000000003</ele><time>2026-04-11T12:14:59.999Z</time></trkpt><trkpt lat="43.04173410823249" lon="11.409405714413088"><ele>317.8</ele><time>2026-04-11T12:15:01.999Z</time></trkpt><trkpt lat="43.041738723088216" lon="11.40924285277056"><ele>316.20000000000005</ele><time>2026-04-11T12:15:03.999Z</time></trkpt><trkpt lat="43.041740239619884" lon="11.409152728155073"><ele>314.6</ele><time>2026-04-11T12:15:04.999Z</time></trkpt><trkpt lat="43.04174717806237" lon="11.40899459750118"><ele>313.0</ele><time>2026-04-11T12:15:06.999Z</time></trkpt><trkpt lat="43.041748517511266" lon="11.408858707035568"><ele>311.4</ele><time>2026-04-11T12:15:08.999Z</time></trkpt><trkpt lat="43.04175156154664" lon="11.408727394934393"><ele>309.8</ele><time>2026-04-11T12:15:10.999Z</time></trkpt><trkpt lat="43.04175499011407" lon="11.408567882826356"><ele>308.2</ele><time>2026-04-11T12:15:12.999Z</time></trkpt><trkpt lat="43.04176272583034" lon="11.40841099443966"><ele>306.6</ele><time>2026-04-11T12:15:14.999Z</time></trkpt><trkpt lat="43.041774383905484" lon="11.408262716630002"><ele>305.0</ele><time>2026-04-11T12:15:16.999Z</time></trkpt><trkpt lat="43.041783749223896" lon="11.408118196908395"><ele>303.2</ele><time>2026-04-11T12:15:18.999Z</time></trkpt><trkpt lat="43.04178227519652" lon="11.407988523242535"><ele>301.4</ele><time>2026-04-11T12:15:20.999Z</time></trkpt><trkpt lat="43.041755157529316" lon="11.407861277464376"><ele>299.6</ele><time>2026-04-11T12:15:22.999Z</time></trkpt><trkpt lat="43.0416938305426" lon="11.407752528968826"><ele>297.8</ele><time>2026-04-11T12:15:24.999Z</time></trkpt><trkpt lat="43.04158620133491" lon="11.407693671028579"><ele>296.0</ele><time>2026-04-11T12:15:26.999Z</time></trkpt><trkpt lat="43.04146616270716" lon="11.407662393103177"><ele>296.0</ele><time>2026-04-11T12:15:28.999Z</time></trkpt><trkpt lat="43.04135695739234" lon="11.407665170893964"><ele>296.0</ele><time>2026-04-11T12:15:30.999Z</time></trkpt><trkpt lat="43.041228051581875" lon="11.407658794659532"><ele>296.0</ele><time>2026-04-11T12:15:32.999Z</time></trkpt><trkpt lat="43.04115462743246" lon="11.407638736283689"><ele>296.0</ele><time>2026-04-11T12:15:33.999Z</time></trkpt><trkpt lat="43.04108272714652" lon="11.407609122152039"><ele>296.0</ele><time>2026-04-11T12:15:34.999Z</time></trkpt><trkpt lat="43.041006399631634" lon="11.407582096062093"><ele>296.0</ele><time>2026-04-11T12:15:35.999Z</time></trkpt><trkpt lat="43.04093011195533" lon="11.407560572526132"><ele>296.0</ele><time>2026-04-11T12:15:36.999Z</time></trkpt><trkpt lat="43.04085990790805" lon="11.407555165512495"><ele>296.0</ele><time>2026-04-11T12:15:37.999Z</time></trkpt><trkpt lat="43.040740711057985" lon="11.407533030733195"><ele>296.0</ele><time>2026-04-11T12:15:39.999Z</time></trkpt><trkpt lat="43.040622284274754" lon="11.407524342990552"><ele>296.0</ele><time>2026-04-11T12:15:41.999Z</time></trkpt><trkpt lat="43.040499498909796" lon="11.40755149428799"><ele>295.2857142857143</ele><time>2026-04-11T12:15:43.999Z</time></trkpt><trkpt lat="43.040437652170205" lon="11.40757750308723"><ele>294.57142857142856</ele><time>2026-04-11T12:15:44.999Z</time></trkpt><trkpt lat="43.04037843035501" lon="11.407614550785388"><ele>293.85714285714283</ele><time>2026-04-11T12:15:45.999Z</time></trkpt><trkpt lat="43.04032125185049" lon="11.407657653939735"><ele>293.1428571428571</ele><time>2026-04-11T12:15:46.999Z</time></trkpt><trkpt lat="43.04026716737736" lon="11.407703055011533"><ele>292.4285714285714</ele><time>2026-04-11T12:15:47.999Z</time></trkpt><trkpt lat="43.04021339070965" lon="11.407750525133453"><ele>291.7142857142857</ele><time>2026-04-11T12:15:48.998Z</time></trkpt><trkpt lat="43.040157538684795" lon="11.40779335912509"><ele>291.0</ele><time>2026-04-11T12:15:49.998Z</time></trkpt><trkpt lat="43.0400470514595" lon="11.407872037377844"><ele>290.5</ele><time>2026-04-11T12:15:51.998Z</time></trkpt><trkpt lat="43.039941599802866" lon="11.407931771255942"><ele>290.0</ele><time>2026-04-11T12:15:53.998Z</time></trkpt><trkpt lat="43.03983070890782" lon="11.407979599743971"><ele>289.5</ele><time>2026-04-11T12:15:55.998Z</time></trkpt><trkpt lat="43.039721518979874" lon="11.408023075464262"><ele>289.0</ele><time>2026-04-11T12:15:57.998Z</time></trkpt><trkpt lat="43.03958985761814" lon="11.40806705047776"><ele>289.0</ele><time>2026-04-11T12:15:59.998Z</time></trkpt><trkpt lat="43.03951746700478" lon="11.408074469096393"><ele>289.0</ele><time>2026-04-11T12:16:00.998Z</time></trkpt><trkpt lat="43.03944500036182" lon="11.408088795877662"><ele>289.0</ele><time>2026-04-11T12:16:01.998Z</time></trkpt><trkpt lat="43.03937746553569" lon="11.408102147261108"><ele>289.0</ele><time>2026-04-11T12:16:02.998Z</time></trkpt><trkpt lat="43.03931086680261" lon="11.408120327615341"><ele>289.0</ele><time>2026-04-11T12:16:03.998Z</time></trkpt><trkpt lat="43.039188733388436" lon="11.408149339745549"><ele>289.0</ele><time>2026-04-11T12:16:05.998Z</time></trkpt><trkpt lat="43.03907449135685" lon="11.40818970787028"><ele>287.4</ele><time>2026-04-11T12:16:07.998Z</time></trkpt><trkpt lat="43.03901135391639" lon="11.40821117169233"><ele>285.79999999999995</ele><time>2026-04-11T12:16:08.998Z</time></trkpt><trkpt lat="43.038898498990456" lon="11.4082663853806"><ele>284.20000000000005</ele><time>2026-04-11T12:16:10.998Z</time></trkpt><trkpt lat="43.03878519876922" lon="11.408330067738515"><ele>282.6</ele><time>2026-04-11T12:16:13Z</time></trkpt><trkpt lat="43.03867792803168" lon="11.40839401748145"><ele>281.0</ele><time>2026-04-11T12:16:15Z</time></trkpt><trkpt lat="43.038579888425886" lon="11.408446988030168"><ele>281.0</ele><time>2026-04-11T12:16:17Z</time></trkpt><trkpt lat="43.03849957598619" lon="11.408498704344384"><ele>281.0</ele><time>2026-04-11T12:16:19Z</time></trkpt><trkpt lat="43.038411883858736" lon="11.408556173877871"><ele>281.0</ele><time>2026-04-11T12:16:21Z</time></trkpt><trkpt lat="43.03832490219832" lon="11.408615906336383"><ele>281.0</ele><time>2026-04-11T12:16:23Z</time></trkpt><trkpt lat="43.038235813731205" lon="11.408692044718325"><ele>281.0</ele><time>2026-04-11T12:16:25Z</time></trkpt><trkpt lat="43.03815443335722" lon="11.408785909683061"><ele>280.2</ele><time>2026-04-11T12:16:27Z</time></trkpt><trkpt lat="43.03807950283057" lon="11.40889548407035"><ele>279.40000000000003</ele><time>2026-04-11T12:16:29Z</time></trkpt><trkpt lat="43.0380068690969" lon="11.409005869530265"><ele>278.6</ele><time>2026-04-11T12:16:31Z</time></trkpt><trkpt lat="43.03793509604702" lon="11.409112847967323"><ele>277.8</ele><time>2026-04-11T12:16:33Z</time></trkpt><trkpt lat="43.03786627120531" lon="11.409206154436356"><ele>277.0</ele><time>2026-04-11T12:16:35Z</time></trkpt><trkpt lat="43.037800937347036" lon="11.409299497272091"><ele>277.0</ele><time>2026-04-11T12:16:37Z</time></trkpt><trkpt lat="43.03773335842207" lon="11.409390224726602"><ele>277.0</ele><time>2026-04-11T12:16:39Z</time></trkpt><trkpt lat="43.037658032544165" lon="11.409463606507918"><ele>277.0</ele><time>2026-04-11T12:16:41Z</time></trkpt><trkpt lat="43.0375611745716" lon="11.409490806161507"><ele>277.0</ele><time>2026-04-11T12:16:43Z</time></trkpt><trkpt lat="43.0374593282968" lon="11.409443406255892"><ele>277.0</ele><time>2026-04-11T12:16:45Z</time></trkpt><trkpt lat="43.0374180830126" lon="11.409378102027665"><ele>276.7142857142857</ele><time>2026-04-11T12:16:46Z</time></trkpt><trkpt lat="43.03737150288302" lon="11.409311288085359"><ele>276.4285714285714</ele><time>2026-04-11T12:16:47Z</time></trkpt><trkpt lat="43.03732367159212" lon="11.409239133709958"><ele>276.1428571428571</ele><time>2026-04-11T12:16:48Z</time></trkpt><trkpt lat="43.03727818900435" lon="11.409166380446644"><ele>275.85714285714283</ele><time>2026-04-11T12:16:49Z</time></trkpt><trkpt lat="43.03723015939791" lon="11.409088781768395"><ele>275.57142857142856</ele><time>2026-04-11T12:16:50Z</time></trkpt><trkpt lat="43.037181211557495" lon="11.409007629060945"><ele>275.2857142857143</ele><time>2026-04-11T12:16:51Z</time></trkpt><trkpt lat="43.037132860325656" lon="11.408925319446881"><ele>275.0</ele><time>2026-04-11T12:16:52Z</time></trkpt><trkpt lat="43.037079278559624" lon="11.408840779076987"><ele>274.1666666666667</ele><time>2026-04-11T12:16:53Z</time></trkpt><trkpt lat="43.037021480200735" lon="11.408765379727171"><ele>273.33333333333337</ele><time>2026-04-11T12:16:54Z</time></trkpt><trkpt lat="43.0369655667909" lon="11.408675017285912"><ele>272.5</ele><time>2026-04-11T12:16:55Z</time></trkpt><trkpt lat="43.03690710461474" lon="11.408586335193005"><ele>271.6666666666667</ele><time>2026-04-11T12:16:56Z</time></trkpt><trkpt lat="43.03685049805392" lon="11.408492133911112"><ele>270.8333333333333</ele><time>2026-04-11T12:16:57Z</time></trkpt><trkpt lat="43.03679672793146" lon="11.408398805527803"><ele>270.0</ele><time>2026-04-11T12:16:58Z</time></trkpt><trkpt lat="43.036747597587485" lon="11.408314946178384"><ele>270.0</ele><time>2026-04-11T12:16:59Z</time></trkpt><trkpt lat="43.03670167196869" lon="11.408243948305698"><ele>270.0</ele><time>2026-04-11T12:17:00Z</time></trkpt><trkpt lat="43.03662002911328" lon="11.408186095390331"><ele>270.0</ele><time>2026-04-11T12:17:01.999Z</time></trkpt><trkpt lat="43.036538029739" lon="11.40821783728345"><ele>270.0</ele><time>2026-04-11T12:17:03.999Z</time></trkpt><trkpt lat="43.03646665099198" lon="11.408305085223926"><ele>270.0</ele><time>2026-04-11T12:17:05.999Z</time></trkpt><trkpt lat="43.03639973216736" lon="11.40840020352225"><ele>270.0</ele><time>2026-04-11T12:17:07.999Z</time></trkpt><trkpt lat="43.036326612695305" lon="11.408495258771415"><ele>270.4</ele><time>2026-04-11T12:17:09.999Z</time></trkpt><trkpt lat="43.03625554035165" lon="11.408592848269501"><ele>270.8</ele><time>2026-04-11T12:17:11.999Z</time></trkpt><trkpt lat="43.036185113734064" lon="11.408700703877876"><ele>271.2</ele><time>2026-04-11T12:17:13.999Z</time></trkpt><trkpt lat="43.03611115602108" lon="11.408809783769694"><ele>271.6</ele><time>2026-04-11T12:17:15.999Z</time></trkpt><trkpt lat="43.03603696688185" lon="11.408920390798537"><ele>272.0</ele><time>2026-04-11T12:17:17.999Z</time></trkpt><trkpt lat="43.0359668168871" lon="11.409020931839416"><ele>272.0</ele><time>2026-04-11T12:17:19.999Z</time></trkpt><trkpt lat="43.03589843643734" lon="11.409113755141668"><ele>272.0</ele><time>2026-04-11T12:17:21.999Z</time></trkpt><trkpt lat="43.035836339443065" lon="11.409203088919684"><ele>272.0</ele><time>2026-04-11T12:17:23.999Z</time></trkpt><trkpt lat="43.035777617766804" lon="11.409277788998027"><ele>272.0</ele><time>2026-04-11T12:17:25.999Z</time></trkpt><trkpt lat="43.035720301530944" lon="11.40935078845149"><ele>272.0</ele><time>2026-04-11T12:17:27.999Z</time></trkpt><trkpt lat="43.035665462166115" lon="11.409418377345718"><ele>272.0</ele><time>2026-04-11T12:17:29.999Z</time></trkpt><trkpt lat="43.03561443921493" lon="11.409482554596392"><ele>271.6666666666667</ele><time>2026-04-11T12:17:31.999Z</time></trkpt><trkpt lat="43.035544795152006" lon="11.409563898811442"><ele>271.33333333333337</ele><time>2026-04-11T12:17:34.999Z</time></trkpt><trkpt lat="43.03547521734853" lon="11.409641095896403"><ele>271.0</ele><time>2026-04-11T12:17:37.999Z</time></trkpt><trkpt lat="43.03541019753894" lon="11.409704504908598"><ele>270.6666666666667</ele><time>2026-04-11T12:17:40.999Z</time></trkpt><trkpt lat="43.03533945388264" lon="11.409775465524667"><ele>270.3333333333333</ele><time>2026-04-11T12:17:43.999Z</time></trkpt><trkpt lat="43.03525715581018" lon="11.409837344571756"><ele>270.0</ele><time>2026-04-11T12:17:46.999Z</time></trkpt><trkpt lat="43.03520055564662" lon="11.409887515845357"><ele>270.6666666666667</ele><time>2026-04-11T12:17:48.999Z</time></trkpt><trkpt lat="43.03512091538799" lon="11.40994799050277"><ele>271.3333333333333</ele><time>2026-04-11T12:17:51.999Z</time></trkpt><trkpt lat="43.035037585728745" lon="11.409995306843182"><ele>272.0</ele><time>2026-04-11T12:17:54.999Z</time></trkpt><trkpt lat="43.03495791110816" lon="11.410061653254983"><ele>272.66666666666663</ele><time>2026-04-11T12:17:57.998Z</time></trkpt><trkpt lat="43.03488626234746" lon="11.410117152972015"><ele>273.3333333333333</ele><time>2026-04-11T12:18:00.998Z</time></trkpt><trkpt lat="43.03481325518428" lon="11.410166516001814"><ele>274.0</ele><time>2026-04-11T12:18:03.998Z</time></trkpt><trkpt lat="43.0347393853421" lon="11.410216867022863"><ele>274.0</ele><time>2026-04-11T12:18:06.998Z</time></trkpt><trkpt lat="43.034680525228005" lon="11.410252140642633"><ele>274.0</ele><time>2026-04-11T12:18:08.998Z</time></trkpt><trkpt lat="43.03460836289986" lon="11.410290278572822"><ele>274.0</ele><time>2026-04-11T12:18:10.998Z</time></trkpt><trkpt lat="43.03453081307835" lon="11.410325321050587"><ele>274.0</ele><time>2026-04-11T12:18:12.998Z</time></trkpt><trkpt lat="43.034452246417246" lon="11.410359978984319"><ele>274.0</ele><time>2026-04-11T12:18:14.998Z</time></trkpt><trkpt lat="43.034364975003186" lon="11.410390482746097"><ele>274.0</ele><time>2026-04-11T12:18:16.998Z</time></trkpt><trkpt lat="43.03426576292583" lon="11.410419284543723"><ele>274.0</ele><time>2026-04-11T12:18:19Z</time></trkpt><trkpt lat="43.034159681499986" lon="11.410445571523207"><ele>274.0</ele><time>2026-04-11T12:18:21Z</time></trkpt><trkpt lat="43.034044468520285" lon="11.410453600352323"><ele>274.0</ele><time>2026-04-11T12:18:23Z</time></trkpt><trkpt lat="43.03393374884745" lon="11.410460674124794"><ele>274.0</ele><time>2026-04-11T12:18:25Z</time></trkpt><trkpt lat="43.033813096749" lon="11.410466668764359"><ele>273.8</ele><time>2026-04-11T12:18:27Z</time></trkpt><trkpt lat="43.03369356714502" lon="11.410482292498473"><ele>273.59999999999997</ele><time>2026-04-11T12:18:29Z</time></trkpt><trkpt lat="43.03357118196495" lon="11.410508367329767"><ele>273.4</ele><time>2026-04-11T12:18:31Z</time></trkpt><trkpt lat="43.03350474377122" lon="11.4105314835631"><ele>273.2</ele><time>2026-04-11T12:18:32Z</time></trkpt><trkpt lat="43.0334407398084" lon="11.410535124048426"><ele>273.0</ele><time>2026-04-11T12:18:33Z</time></trkpt><trkpt lat="43.033319702695344" lon="11.410567759077546"><ele>271.0</ele><time>2026-04-11T12:18:35Z</time></trkpt><trkpt lat="43.03320100450166" lon="11.410591882466099"><ele>269.0</ele><time>2026-04-11T12:18:37Z</time></trkpt><trkpt lat="43.033079745909426" lon="11.410610845817303"><ele>267.0</ele><time>2026-04-11T12:18:39Z</time></trkpt><trkpt lat="43.033012786233435" lon="11.410619863803927"><ele>265.0</ele><time>2026-04-11T12:18:40Z</time></trkpt><trkpt lat="43.03288033300486" lon="11.410632533213478"><ele>263.0</ele><time>2026-04-11T12:18:42Z</time></trkpt><trkpt lat="43.0328062084494" lon="11.41064562355544"><ele>263.0</ele><time>2026-04-11T12:18:43Z</time></trkpt><trkpt lat="43.03273538520328" lon="11.410664499331139"><ele>263.0</ele><time>2026-04-11T12:18:44Z</time></trkpt><trkpt lat="43.0326705151965" lon="11.410678900408108"><ele>263.0</ele><time>2026-04-11T12:18:45Z</time></trkpt><trkpt lat="43.032601598030965" lon="11.410693207106181"><ele>263.0</ele><time>2026-04-11T12:18:46Z</time></trkpt><trkpt lat="43.03253315991567" lon="11.410712201860562"><ele>263.0</ele><time>2026-04-11T12:18:47Z</time></trkpt><trkpt lat="43.03246139613622" lon="11.410732716689"><ele>263.0</ele><time>2026-04-11T12:18:48Z</time></trkpt><trkpt lat="43.03239464325258" lon="11.410754921961892"><ele>263.0</ele><time>2026-04-11T12:18:49Z</time></trkpt><trkpt lat="43.03232720553805" lon="11.410779183365294"><ele>261.1666666666667</ele><time>2026-04-11T12:18:50Z</time></trkpt><trkpt lat="43.032252834596584" lon="11.410809401396211"><ele>259.33333333333337</ele><time>2026-04-11T12:18:51Z</time></trkpt><trkpt lat="43.03217914249811" lon="11.410846315784"><ele>257.5</ele><time>2026-04-11T12:18:52Z</time></trkpt><trkpt lat="43.03211422024681" lon="11.410879813764424"><ele>255.66666666666669</ele><time>2026-04-11T12:18:53Z</time></trkpt><trkpt lat="43.03205154867461" lon="11.410908466257451"><ele>253.83333333333334</ele><time>2026-04-11T12:18:54Z</time></trkpt><trkpt lat="43.0319299064404" lon="11.410961151216533"><ele>252.0</ele><time>2026-04-11T12:18:56Z</time></trkpt><trkpt lat="43.031867572498236" lon="11.410989382297632"><ele>252.0</ele><time>2026-04-11T12:18:57Z</time></trkpt><trkpt lat="43.031803693955915" lon="11.411019517151082"><ele>252.0</ele><time>2026-04-11T12:18:58Z</time></trkpt><trkpt lat="43.031680771582764" lon="11.411070167330921"><ele>252.0</ele><time>2026-04-11T12:19:00Z</time></trkpt><trkpt lat="43.03156251357224" lon="11.411119638577699"><ele>252.0</ele><time>2026-04-11T12:19:02Z</time></trkpt><trkpt lat="43.03149551818404" lon="11.411112379230895"><ele>252.0</ele><time>2026-04-11T12:19:03Z</time></trkpt><trkpt lat="43.03137506361014" lon="11.411166150631006"><ele>252.2</ele><time>2026-04-11T12:19:05Z</time></trkpt><trkpt lat="43.03131364436626" lon="11.411191823649858"><ele>252.39999999999998</ele><time>2026-04-11T12:19:06Z</time></trkpt><trkpt lat="43.03124919316335" lon="11.411216259948317"><ele>252.60000000000002</ele><time>2026-04-11T12:19:07Z</time></trkpt><trkpt lat="43.03112710319465" lon="11.411259288589797"><ele>252.8</ele><time>2026-04-11T12:19:09Z</time></trkpt><trkpt lat="43.03101185054436" lon="11.411296792793394"><ele>253.0</ele><time>2026-04-11T12:19:10.999Z</time></trkpt><trkpt lat="43.03089400386146" lon="11.411337191718854"><ele>250.2</ele><time>2026-04-11T12:19:12.999Z</time></trkpt><trkpt lat="43.03077858007434" lon="11.411389438506712"><ele>247.4</ele><time>2026-04-11T12:19:14.999Z</time></trkpt><trkpt lat="43.03067745692381" lon="11.411473899811208"><ele>244.59999999999997</ele><time>2026-04-11T12:19:16.999Z</time></trkpt><trkpt lat="43.030563459468596" lon="11.411548539662572"><ele>241.79999999999998</ele><time>2026-04-11T12:19:18.999Z</time></trkpt><trkpt lat="43.0305093544597" lon="11.411602032847176"><ele>239.0</ele><time>2026-04-11T12:19:19.999Z</time></trkpt><trkpt lat="43.0304663744599" lon="11.411677134847375"><ele>239.00000000000003</ele><time>2026-04-11T12:19:20.999Z</time></trkpt><trkpt lat="43.03040871555103" lon="11.41174044833421"><ele>239.0</ele><time>2026-04-11T12:19:21.999Z</time></trkpt><trkpt lat="43.03035281839881" lon="11.411803444556497"><ele>239.00000000000003</ele><time>2026-04-11T12:19:22.999Z</time></trkpt><trkpt lat="43.03029724108174" lon="11.411866771873436"><ele>239.00000000000003</ele><time>2026-04-11T12:19:23.999Z</time></trkpt><trkpt lat="43.030245300085646" lon="11.411928130189988"><ele>239.0</ele><time>2026-04-11T12:19:24.999Z</time></trkpt><trkpt lat="43.03019493263446" lon="11.411989152238665"><ele>239.00000000000003</ele><time>2026-04-11T12:19:25.999Z</time></trkpt><trkpt lat="43.03014717174344" lon="11.412052136019804"><ele>239.00000000000003</ele><time>2026-04-11T12:19:26.999Z</time></trkpt><trkpt lat="43.03009676412374" lon="11.412123420598467"><ele>239.16666666666669</ele><time>2026-04-11T12:19:27.999Z</time></trkpt><trkpt lat="43.03004411166363" lon="11.41220666175855"><ele>239.33333333333334</ele><time>2026-04-11T12:19:28.999Z</time></trkpt><trkpt lat="43.0299841790139" lon="11.412304384026873"><ele>239.5</ele><time>2026-04-11T12:19:29.999Z</time></trkpt><trkpt lat="43.02993964669233" lon="11.412402442670004"><ele>239.66666666666669</ele><time>2026-04-11T12:19:30.999Z</time></trkpt><trkpt lat="43.029889253233186" lon="11.412507331847577"><ele>239.83333333333334</ele><time>2026-04-11T12:19:31.999Z</time></trkpt><trkpt lat="43.029842366828944" lon="11.412601696082186"><ele>240.0</ele><time>2026-04-11T12:19:32.999Z</time></trkpt><trkpt lat="43.02979952848754" lon="11.412683377250586"><ele>240.0</ele><time>2026-04-11T12:19:33.999Z</time></trkpt><trkpt lat="43.02973503883823" lon="11.41281223951285"><ele>240.0</ele><time>2026-04-11T12:19:35.999Z</time></trkpt><trkpt lat="43.02967372815584" lon="11.412913087121764"><ele>240.0</ele><time>2026-04-11T12:19:37.999Z</time></trkpt><trkpt lat="43.02962920283992" lon="11.412985780840692"><ele>240.0</ele><time>2026-04-11T12:19:39.999Z</time></trkpt><trkpt lat="43.02957611024641" lon="11.413080883122344"><ele>240.0</ele><time>2026-04-11T12:19:42.999Z</time></trkpt><trkpt lat="43.029529045867534" lon="11.41317384180301"><ele>240.0</ele><time>2026-04-11T12:19:45.999Z</time></trkpt><trkpt lat="43.029474555536986" lon="11.413258962684822"><ele>240.0</ele><time>2026-04-11T12:19:48.999Z</time></trkpt><trkpt lat="43.02941427276619" lon="11.413352375298954"><ele>240.0</ele><time>2026-04-11T12:19:51.999Z</time></trkpt><trkpt lat="43.02936335047555" lon="11.413437177112328"><ele>240.0</ele><time>2026-04-11T12:19:54.999Z</time></trkpt><trkpt lat="43.02931356136126" lon="11.413524163005752"><ele>240.0</ele><time>2026-04-11T12:19:57.999Z</time></trkpt><trkpt lat="43.02925899081972" lon="11.413615630197611"><ele>240.0</ele><time>2026-04-11T12:20:00.999Z</time></trkpt><trkpt lat="43.029202766183296" lon="11.413706302969802"><ele>240.0</ele><time>2026-04-11T12:20:03.998Z</time></trkpt><trkpt lat="43.02914588273496" lon="11.413802939765112"><ele>239.5</ele><time>2026-04-11T12:20:06.998Z</time></trkpt><trkpt lat="43.02910376199019" lon="11.41387342632637"><ele>239.0</ele><time>2026-04-11T12:20:08.998Z</time></trkpt><trkpt lat="43.02905705269603" lon="11.413942263057084"><ele>238.5</ele><time>2026-04-11T12:20:10.998Z</time></trkpt><trkpt lat="43.029007579766706" lon="11.414024193945385"><ele>238.0</ele><time>2026-04-11T12:20:12.998Z</time></trkpt><trkpt lat="43.02895808175837" lon="11.414120791585935"><ele>237.5</ele><time>2026-04-11T12:20:14.998Z</time></trkpt><trkpt lat="43.02890835754911" lon="11.414211882758469"><ele>237.0</ele><time>2026-04-11T12:20:16.998Z</time></trkpt><trkpt lat="43.02885205149631" lon="11.414307689057162"><ele>237.0</ele><time>2026-04-11T12:20:18.998Z</time></trkpt><trkpt lat="43.02879010825787" lon="11.414403935914196"><ele>237.0</ele><time>2026-04-11T12:20:20.998Z</time></trkpt><trkpt lat="43.02873041819571" lon="11.414506348777419"><ele>237.0</ele><time>2026-04-11T12:20:22.998Z</time></trkpt><trkpt lat="43.028665802728476" lon="11.414603352050039"><ele>237.0</ele><time>2026-04-11T12:20:25Z</time></trkpt><trkpt lat="43.02860854746587" lon="11.414697437287062"><ele>237.0</ele><time>2026-04-11T12:20:27Z</time></trkpt><trkpt lat="43.02854990859246" lon="11.414792204901747"><ele>237.33333333333334</ele><time>2026-04-11T12:20:29Z</time></trkpt><trkpt lat="43.02849125210824" lon="11.414875973205165"><ele>237.66666666666669</ele><time>2026-04-11T12:20:31Z</time></trkpt><trkpt lat="43.028440473893106" lon="11.41496277656018"><ele>238.0</ele><time>2026-04-11T12:20:33Z</time></trkpt><trkpt lat="43.02838934025024" lon="11.41504312043515"><ele>238.33333333333334</ele><time>2026-04-11T12:20:35Z</time></trkpt><trkpt lat="43.02834505302962" lon="11.41511775386768"><ele>238.66666666666669</ele><time>2026-04-11T12:20:37Z</time></trkpt><trkpt lat="43.02829989156368" lon="11.41518920110639"><ele>239.0</ele><time>2026-04-11T12:20:39Z</time></trkpt><trkpt lat="43.02825567860278" lon="11.415263164732727"><ele>239.00000000000003</ele><time>2026-04-11T12:20:41Z</time></trkpt><trkpt lat="43.028211984605" lon="11.415333910211501"><ele>239.0</ele><time>2026-04-11T12:20:43Z</time></trkpt><trkpt lat="43.02816208121353" lon="11.41540886682141"><ele>239.0</ele><time>2026-04-11T12:20:45Z</time></trkpt><trkpt lat="43.02810788854891" lon="11.41548286406403"><ele>239.0</ele><time>2026-04-11T12:20:47Z</time></trkpt><trkpt lat="43.02805257800835" lon="11.415560584677456"><ele>239.00000000000003</ele><time>2026-04-11T12:20:49Z</time></trkpt><trkpt lat="43.02799800423572" lon="11.415655743531588"><ele>239.0</ele><time>2026-04-11T12:20:51Z</time></trkpt><trkpt lat="43.0279547186434" lon="11.415734965651513"><ele>239.8571428571429</ele><time>2026-04-11T12:20:53Z</time></trkpt><trkpt lat="43.027914570041496" lon="11.415808507096893"><ele>240.71428571428572</ele><time>2026-04-11T12:20:55Z</time></trkpt><trkpt lat="43.02787036732271" lon="11.415881624260178"><ele>241.57142857142858</ele><time>2026-04-11T12:20:57Z</time></trkpt><trkpt lat="43.0278295413877" lon="11.415952254739569"><ele>242.42857142857144</ele><time>2026-04-11T12:20:59Z</time></trkpt><trkpt lat="43.02778498254071" lon="11.416026025450483"><ele>243.28571428571428</ele><time>2026-04-11T12:21:01Z</time></trkpt><trkpt lat="43.02774216877821" lon="11.41610216688727"><ele>244.14285714285714</ele><time>2026-04-11T12:21:03Z</time></trkpt><trkpt lat="43.0276934387481" lon="11.416185801130856"><ele>245.0</ele><time>2026-04-11T12:21:05Z</time></trkpt><trkpt lat="43.02764699077435" lon="11.416275008616848"><ele>246.0</ele><time>2026-04-11T12:21:07Z</time></trkpt><trkpt lat="43.02758938224653" lon="11.416367536848577"><ele>247.0</ele><time>2026-04-11T12:21:09Z</time></trkpt><trkpt lat="43.0275364340401" lon="11.416461937381579"><ele>248.0</ele><time>2026-04-11T12:21:11Z</time></trkpt><trkpt lat="43.027478348251115" lon="11.416573117377702"><ele>249.0</ele><time>2026-04-11T12:21:13Z</time></trkpt><trkpt lat="43.0274154273928" lon="11.416682654047577"><ele>250.0</ele><time>2026-04-11T12:21:15Z</time></trkpt><trkpt lat="43.02735652072486" lon="11.41678283149197"><ele>249.0</ele><time>2026-04-11T12:21:16.999Z</time></trkpt><trkpt lat="43.02728941693278" lon="11.416897837707147"><ele>248.0</ele><time>2026-04-11T12:21:18.999Z</time></trkpt><trkpt lat="43.02722703358479" lon="11.417010303303256"><ele>247.0</ele><time>2026-04-11T12:21:20.999Z</time></trkpt><trkpt lat="43.02715685911129" lon="11.417125108587516"><ele>246.0</ele><time>2026-04-11T12:21:22.999Z</time></trkpt><trkpt lat="43.02708792823023" lon="11.417245867730674"><ele>245.0</ele><time>2026-04-11T12:21:24.999Z</time></trkpt><trkpt lat="43.02701739024221" lon="11.417358141691842"><ele>245.0</ele><time>2026-04-11T12:21:26.999Z</time></trkpt><trkpt lat="43.02694185250576" lon="11.417470972391028"><ele>245.0</ele><time>2026-04-11T12:21:28.999Z</time></trkpt><trkpt lat="43.02686212693685" lon="11.417583983546944"><ele>245.0</ele><time>2026-04-11T12:21:30.999Z</time></trkpt><trkpt lat="43.02678280304344" lon="11.417695983537536"><ele>245.0</ele><time>2026-04-11T12:21:32.999Z</time></trkpt><trkpt lat="43.02670661534504" lon="11.417801566975866"><ele>245.0</ele><time>2026-04-11T12:21:34.999Z</time></trkpt><trkpt lat="43.026637611249846" lon="11.417894135488494"><ele>245.16666666666669</ele><time>2026-04-11T12:21:36.999Z</time></trkpt><trkpt lat="43.02657225155942" lon="11.417979655404674"><ele>245.33333333333334</ele><time>2026-04-11T12:21:38.999Z</time></trkpt><trkpt lat="43.02649641785483" lon="11.418064389496083"><ele>245.5</ele><time>2026-04-11T12:21:40.999Z</time></trkpt><trkpt lat="43.02643310496774" lon="11.418150500126742"><ele>245.66666666666669</ele><time>2026-04-11T12:21:42.999Z</time></trkpt><trkpt lat="43.02637607399668" lon="11.418223483179027"><ele>245.83333333333334</ele><time>2026-04-11T12:21:44.999Z</time></trkpt><trkpt lat="43.02631996909276" lon="11.418295153646474"><ele>246.0</ele><time>2026-04-11T12:21:46.999Z</time></trkpt><trkpt lat="43.02625581235355" lon="11.418371770382862"><ele>246.0</ele><time>2026-04-11T12:21:48.999Z</time></trkpt><trkpt lat="43.02618667241617" lon="11.418447952348698"><ele>246.00000000000003</ele><time>2026-04-11T12:21:50.999Z</time></trkpt><trkpt lat="43.02611812364564" lon="11.418535725595323"><ele>246.00000000000003</ele><time>2026-04-11T12:21:52.999Z</time></trkpt><trkpt lat="43.026042913841756" lon="11.418630263239516"><ele>246.0</ele><time>2026-04-11T12:21:54.999Z</time></trkpt><trkpt lat="43.02596427158614" lon="11.418735831542035"><ele>246.0</ele><time>2026-04-11T12:21:56.999Z</time></trkpt><trkpt lat="43.025875053280224" lon="11.418852571495501"><ele>246.16666666666666</ele><time>2026-04-11T12:21:58.999Z</time></trkpt><trkpt lat="43.025824797590914" lon="11.41891739120901"><ele>246.33333333333331</ele><time>2026-04-11T12:21:59.999Z</time></trkpt><trkpt lat="43.02577343222481" lon="11.418985519777351"><ele>246.5</ele><time>2026-04-11T12:22:00.999Z</time></trkpt><trkpt lat="43.02571745646535" lon="11.419053690911998"><ele>246.66666666666666</ele><time>2026-04-11T12:22:01.999Z</time></trkpt><trkpt lat="43.02565660917894" lon="11.41912609095729"><ele>246.83333333333331</ele><time>2026-04-11T12:22:02.999Z</time></trkpt><trkpt lat="43.025599010193744" lon="11.419202464823526"><ele>247.0</ele><time>2026-04-11T12:22:03.999Z</time></trkpt><trkpt lat="43.025537683225615" lon="11.419277677897236"><ele>246.16666666666666</ele><time>2026-04-11T12:22:04.999Z</time></trkpt><trkpt lat="43.0254775037206" lon="11.419353390760115"><ele>245.33333333333331</ele><time>2026-04-11T12:22:05.999Z</time></trkpt><trkpt lat="43.025418590188735" lon="11.419427830766947"><ele>244.5</ele><time>2026-04-11T12:22:06.999Z</time></trkpt><trkpt lat="43.0253601711568" lon="11.419499368475257"><ele>243.66666666666669</ele><time>2026-04-11T12:22:07.999Z</time></trkpt><trkpt lat="43.02530628954925" lon="11.419567143867967"><ele>242.83333333333334</ele><time>2026-04-11T12:22:08.998Z</time></trkpt><trkpt lat="43.025247143413296" lon="11.419634979645325"><ele>242.0</ele><time>2026-04-11T12:22:09.998Z</time></trkpt><trkpt lat="43.025192949489515" lon="11.419702593614403"><ele>242.00000000000003</ele><time>2026-04-11T12:22:10.998Z</time></trkpt><trkpt lat="43.02514043176092" lon="11.419764362558963"><ele>242.0</ele><time>2026-04-11T12:22:11.998Z</time></trkpt><trkpt lat="43.02508251085547" lon="11.419828862555914"><ele>242.0</ele><time>2026-04-11T12:22:12.998Z</time></trkpt><trkpt lat="43.02502757222061" lon="11.419886842132852"><ele>242.0</ele><time>2026-04-11T12:22:13.998Z</time></trkpt><trkpt lat="43.02496127990955" lon="11.419944941928241"><ele>242.00000000000003</ele><time>2026-04-11T12:22:14.998Z</time></trkpt><trkpt lat="43.024886247819644" lon="11.419995653421308"><ele>242.0</ele><time>2026-04-11T12:22:15.998Z</time></trkpt><trkpt lat="43.024815437464845" lon="11.420026953288417"><ele>240.16666666666669</ele><time>2026-04-11T12:22:16.998Z</time></trkpt><trkpt lat="43.024737335861786" lon="11.42004671996277"><ele>238.33333333333334</ele><time>2026-04-11T12:22:17.998Z</time></trkpt><trkpt lat="43.02465752892669" lon="11.42005583157533"><ele>236.5</ele><time>2026-04-11T12:22:18.998Z</time></trkpt><trkpt lat="43.02457933424231" lon="11.42005956203882"><ele>234.66666666666669</ele><time>2026-04-11T12:22:19.998Z</time></trkpt><trkpt lat="43.0244992321193" lon="11.420062546933659"><ele>232.83333333333334</ele><time>2026-04-11T12:22:20.998Z</time></trkpt><trkpt lat="43.02441566552929" lon="11.42006359720108"><ele>231.0</ele><time>2026-04-11T12:22:21.998Z</time></trkpt><trkpt lat="43.0243331687971" lon="11.420065311292214"><ele>231.0</ele><time>2026-04-11T12:22:22.998Z</time></trkpt><trkpt lat="43.024249484778935" lon="11.420068090565975"><ele>231.0</ele><time>2026-04-11T12:22:23.998Z</time></trkpt><trkpt lat="43.02416642165837" lon="11.420071312582952"><ele>231.0</ele><time>2026-04-11T12:22:24.998Z</time></trkpt><trkpt lat="43.02407645746627" lon="11.420074137057139"><ele>231.0</ele><time>2026-04-11T12:22:25.998Z</time></trkpt><trkpt lat="43.02399101383331" lon="11.420077530578357"><ele>231.0</ele><time>2026-04-11T12:22:26.998Z</time></trkpt><trkpt lat="43.023906895753825" lon="11.420079090265553"><ele>231.0</ele><time>2026-04-11T12:22:27.998Z</time></trkpt><trkpt lat="43.02382276220721" lon="11.420077777872999"><ele>230.33333333333334</ele><time>2026-04-11T12:22:28.998Z</time></trkpt><trkpt lat="43.02373907043662" lon="11.420075466361931"><ele>229.66666666666669</ele><time>2026-04-11T12:22:29.998Z</time></trkpt><trkpt lat="43.023651030560735" lon="11.420069379869476"><ele>229.0</ele><time>2026-04-11T12:22:31Z</time></trkpt><trkpt lat="43.02356238900601" lon="11.420052939311274"><ele>228.33333333333334</ele><time>2026-04-11T12:22:32Z</time></trkpt><trkpt lat="43.023472230031416" lon="11.420025346571729"><ele>227.66666666666669</ele><time>2026-04-11T12:22:33Z</time></trkpt><trkpt lat="43.023384535508924" lon="11.419991435406386"><ele>227.0</ele><time>2026-04-11T12:22:34Z</time></trkpt><trkpt lat="43.023297932152616" lon="11.4199385563247"><ele>227.0</ele><time>2026-04-11T12:22:35Z</time></trkpt><trkpt lat="43.023212726113776" lon="11.419883773676721"><ele>227.0</ele><time>2026-04-11T12:22:36Z</time></trkpt><trkpt lat="43.023128392686175" lon="11.419824237673321"><ele>227.0</ele><time>2026-04-11T12:22:37Z</time></trkpt><trkpt lat="43.023045026895254" lon="11.419764800099124"><ele>227.0</ele><time>2026-04-11T12:22:38Z</time></trkpt><trkpt lat="43.02296064810512" lon="11.419703640619488"><ele>227.0</ele><time>2026-04-11T12:22:39Z</time></trkpt><trkpt lat="43.022876697648925" lon="11.419640023518395"><ele>226.39999999999998</ele><time>2026-04-11T12:22:40Z</time></trkpt><trkpt lat="43.0227963287682" lon="11.419576439423745"><ele>225.79999999999998</ele><time>2026-04-11T12:22:41Z</time></trkpt><trkpt lat="43.02271720030174" lon="11.419513493872973"><ele>225.2</ele><time>2026-04-11T12:22:42Z</time></trkpt><trkpt lat="43.02263786319927" lon="11.419453039796021"><ele>224.6</ele><time>2026-04-11T12:22:43Z</time></trkpt><trkpt lat="43.02255739636102" lon="11.419392119153382"><ele>224.0</ele><time>2026-04-11T12:22:44Z</time></trkpt><trkpt lat="43.022478172255724" lon="11.419328355860225"><ele>224.00000000000003</ele><time>2026-04-11T12:22:45Z</time></trkpt><trkpt lat="43.02240025778814" lon="11.4192677374677"><ele>224.0</ele><time>2026-04-11T12:22:46Z</time></trkpt><trkpt lat="43.02232388103198" lon="11.419205971270014"><ele>224.0</ele><time>2026-04-11T12:22:47Z</time></trkpt><trkpt lat="43.02224847242251" lon="11.41914840711933"><ele>224.0</ele><time>2026-04-11T12:22:48Z</time></trkpt><trkpt lat="43.02217600023613" lon="11.4190925706101"><ele>224.00000000000003</ele><time>2026-04-11T12:22:49Z</time></trkpt><trkpt lat="43.02210680346344" lon="11.419040080100734"><ele>224.0</ele><time>2026-04-11T12:22:50Z</time></trkpt><trkpt lat="43.02204082343672" lon="11.418991454843788"><ele>224.0</ele><time>2026-04-11T12:22:51Z</time></trkpt><trkpt lat="43.02197813890146" lon="11.418946830152217"><ele>224.0</ele><time>2026-04-11T12:22:52Z</time></trkpt><trkpt lat="43.02191773198765" lon="11.41890363644949"><ele>224.0</ele><time>2026-04-11T12:22:53Z</time></trkpt><trkpt lat="43.02185719105091" lon="11.41886108655582"><ele>224.0</ele><time>2026-04-11T12:22:54Z</time></trkpt><trkpt lat="43.02179589666194" lon="11.418824104810334"><ele>224.0</ele><time>2026-04-11T12:22:55Z</time></trkpt><trkpt lat="43.02173334449732" lon="11.418791659385343"><ele>224.0</ele><time>2026-04-11T12:22:56Z</time></trkpt><trkpt lat="43.02167191653875" lon="11.418761172235191"><ele>224.0</ele><time>2026-04-11T12:22:57Z</time></trkpt><trkpt lat="43.0216069837421" lon="11.418737392977054"><ele>223.0</ele><time>2026-04-11T12:22:58Z</time></trkpt><trkpt lat="43.02154496456551" lon="11.418710365651547"><ele>221.99999999999997</ele><time>2026-04-11T12:22:59Z</time></trkpt><trkpt lat="43.02142746265296" lon="11.41866523647379"><ele>220.99999999999997</ele><time>2026-04-11T12:23:01Z</time></trkpt><trkpt lat="43.021315249853245" lon="11.41863508239227"><ele>220.0</ele><time>2026-04-11T12:23:03Z</time></trkpt><trkpt lat="43.02122804889155" lon="11.418619757460126"><ele>219.0</ele><time>2026-04-11T12:23:05Z</time></trkpt><trkpt lat="43.02115698032024" lon="11.418621836475504"><ele>219.0</ele><time>2026-04-11T12:23:07Z</time></trkpt><trkpt lat="43.02109727163071" lon="11.418692492216115"><ele>219.0</ele><time>2026-04-11T12:23:11Z</time></trkpt><trkpt lat="43.02111865062786" lon="11.41879556513754"><ele>219.0</ele><time>2026-04-11T12:23:15Z</time></trkpt><trkpt lat="43.021170633626404" lon="11.418867024931679"><ele>219.0</ele><time>2026-04-11T12:23:18Z</time></trkpt><trkpt lat="43.021211918035405" lon="11.418950957903942"><ele>219.0</ele><time>2026-04-11T12:23:21Z</time></trkpt><trkpt lat="43.021257447798604" lon="11.419026641518547"><ele>219.0</ele><time>2026-04-11T12:23:23.999Z</time></trkpt><trkpt lat="43.02129883604848" lon="11.419116017709827"><ele>220.33333333333334</ele><time>2026-04-11T12:23:26.999Z</time></trkpt><trkpt lat="43.021349180455324" lon="11.419195178649678"><ele>221.66666666666669</ele><time>2026-04-11T12:23:29.999Z</time></trkpt><trkpt lat="43.021398342886044" lon="11.419268875102935"><ele>223.0</ele><time>2026-04-11T12:23:32.999Z</time></trkpt><trkpt lat="43.021447882794654" lon="11.419360922031554"><ele>224.33333333333334</ele><time>2026-04-11T12:23:36.999Z</time></trkpt><trkpt lat="43.02149745628999" lon="11.419443763744493"><ele>225.66666666666669</ele><time>2026-04-11T12:23:39.999Z</time></trkpt><trkpt lat="43.02155104402493" lon="11.419526410381152"><ele>227.0</ele><time>2026-04-11T12:23:43.999Z</time></trkpt><trkpt lat="43.02158629979904" lon="11.419609737426965"><ele>227.71428571428572</ele><time>2026-04-11T12:23:46.999Z</time></trkpt><trkpt lat="43.021634737549014" lon="11.419677170149647"><ele>228.42857142857144</ele><time>2026-04-11T12:23:49.999Z</time></trkpt><trkpt lat="43.02168064495952" lon="11.41976243592094"><ele>229.14285714285717</ele><time>2026-04-11T12:23:52.999Z</time></trkpt><trkpt lat="43.02172642554353" lon="11.419832342782938"><ele>229.8571428571429</ele><time>2026-04-11T12:23:55.999Z</time></trkpt><trkpt lat="43.021765503118644" lon="11.419911610447604"><ele>230.57142857142858</ele><time>2026-04-11T12:23:58.999Z</time></trkpt><trkpt lat="43.02181387456478" lon="11.419986651168998"><ele>231.28571428571433</ele><time>2026-04-11T12:24:00.999Z</time></trkpt><trkpt lat="43.02186831763673" lon="11.420072100689126"><ele>232.00000000000003</ele><time>2026-04-11T12:24:03.999Z</time></trkpt><trkpt lat="43.02191689508745" lon="11.420164264091838"><ele>232.0</ele><time>2026-04-11T12:24:06.999Z</time></trkpt><trkpt lat="43.02196784182815" lon="11.420245177807551"><ele>232.0</ele><time>2026-04-11T12:24:09.999Z</time></trkpt><trkpt lat="43.02201870279815" lon="11.420347688431429"><ele>232.0</ele><time>2026-04-11T12:24:12.999Z</time></trkpt><trkpt lat="43.022067798801835" lon="11.420438554546191"><ele>232.0</ele><time>2026-04-11T12:24:14.999Z</time></trkpt><trkpt lat="43.02213345375699" lon="11.420528986879392"><ele>232.0</ele><time>2026-04-11T12:24:16.998Z</time></trkpt><trkpt lat="43.02219402727483" lon="11.420649946943717"><ele>231.99999999999997</ele><time>2026-04-11T12:24:18.998Z</time></trkpt><trkpt lat="43.02223874749212" lon="11.420814938655964"><ele>232.0</ele><time>2026-04-11T12:24:20.998Z</time></trkpt><trkpt lat="43.022269112981924" lon="11.42089963697998"><ele>232.0</ele><time>2026-04-11T12:24:21.998Z</time></trkpt><trkpt lat="43.02229211818882" lon="11.420984718271301"><ele>232.0</ele><time>2026-04-11T12:24:22.998Z</time></trkpt><trkpt lat="43.02230924147839" lon="11.421080812410864"><ele>231.99999999999997</ele><time>2026-04-11T12:24:23.998Z</time></trkpt><trkpt lat="43.02231250218161" lon="11.421182239108253"><ele>232.0</ele><time>2026-04-11T12:24:24.998Z</time></trkpt><trkpt lat="43.02229458906458" lon="11.421327139272998"><ele>230.0</ele><time>2026-04-11T12:24:26.998Z</time></trkpt><trkpt lat="43.02227172868823" lon="11.421427767398258"><ele>228.0</ele><time>2026-04-11T12:24:28.998Z</time></trkpt><trkpt lat="43.02223168684961" lon="11.4215426945292"><ele>226.0</ele><time>2026-04-11T12:24:30.998Z</time></trkpt><trkpt lat="43.022167331415766" lon="11.421693433379218"><ele>224.0</ele><time>2026-04-11T12:24:32.998Z</time></trkpt><trkpt lat="43.02212870253989" lon="11.421780758987214"><ele>222.0</ele><time>2026-04-11T12:24:33.998Z</time></trkpt><trkpt lat="43.02208753234591" lon="11.421873829023237"><ele>222.0</ele><time>2026-04-11T12:24:34.998Z</time></trkpt><trkpt lat="43.022044079626475" lon="11.421970510813692"><ele>222.0</ele><time>2026-04-11T12:24:35.998Z</time></trkpt><trkpt lat="43.021997823699856" lon="11.422071170821463"><ele>222.0</ele><time>2026-04-11T12:24:37Z</time></trkpt><trkpt lat="43.0219507784305" lon="11.422177281846723"><ele>222.0</ele><time>2026-04-11T12:24:38Z</time></trkpt><trkpt lat="43.021904737256776" lon="11.42228679748662"><ele>222.0</ele><time>2026-04-11T12:24:39Z</time></trkpt><trkpt lat="43.02185737360242" lon="11.422399459009457"><ele>222.0</ele><time>2026-04-11T12:24:40Z</time></trkpt><trkpt lat="43.021809940040406" lon="11.42251228681567"><ele>220.8</ele><time>2026-04-11T12:24:41Z</time></trkpt><trkpt lat="43.02178128935432" lon="11.422644630833739"><ele>219.6</ele><time>2026-04-11T12:24:42Z</time></trkpt><trkpt lat="43.02173402790986" lon="11.422762590758987"><ele>218.40000000000003</ele><time>2026-04-11T12:24:43Z</time></trkpt><trkpt lat="43.02168472957587" lon="11.422872306949694"><ele>217.20000000000002</ele><time>2026-04-11T12:24:44Z</time></trkpt><trkpt lat="43.02163860549078" lon="11.422976757577027"><ele>216.0</ele><time>2026-04-11T12:24:45Z</time></trkpt><trkpt lat="43.021592960210185" lon="11.42307951980892"><ele>215.5</ele><time>2026-04-11T12:24:46Z</time></trkpt><trkpt lat="43.021551293442826" lon="11.423180134685218"><ele>215.0</ele><time>2026-04-11T12:24:47Z</time></trkpt><trkpt lat="43.02151061855878" lon="11.423275873177163"><ele>214.5</ele><time>2026-04-11T12:24:48Z</time></trkpt><trkpt lat="43.02146929414598" lon="11.42336602416725"><ele>214.0</ele><time>2026-04-11T12:24:49Z</time></trkpt><trkpt lat="43.02142851310406" lon="11.42345350606034"><ele>213.5</ele><time>2026-04-11T12:24:50Z</time></trkpt><trkpt lat="43.0213872795189" lon="11.423538642164274"><ele>213.0</ele><time>2026-04-11T12:24:51Z</time></trkpt><trkpt lat="43.02134337853706" lon="11.423618189593887"><ele>212.99999999999997</ele><time>2026-04-11T12:24:52Z</time></trkpt><trkpt lat="43.02129780415123" lon="11.42369523719409"><ele>213.0</ele><time>2026-04-11T12:24:53Z</time></trkpt><trkpt lat="43.02125059732105" lon="11.423772276982554"><ele>213.0</ele><time>2026-04-11T12:24:54Z</time></trkpt><trkpt lat="43.02120214572181" lon="11.423842952356141"><ele>213.0</ele><time>2026-04-11T12:24:55Z</time></trkpt><trkpt lat="43.02114854426229" lon="11.423902674272478"><ele>213.0</ele><time>2026-04-11T12:24:56Z</time></trkpt><trkpt lat="43.021095481786766" lon="11.423962835979848"><ele>212.99999999999997</ele><time>2026-04-11T12:24:57Z</time></trkpt><trkpt lat="43.02104413596785" lon="11.424021210891901"><ele>213.0</ele><time>2026-04-11T12:24:58Z</time></trkpt><trkpt lat="43.0209979250121" lon="11.424080110968639"><ele>213.83333333333334</ele><time>2026-04-11T12:24:59Z</time></trkpt><trkpt lat="43.02090791626778" lon="11.42418051429774"><ele>214.66666666666669</ele><time>2026-04-11T12:25:01Z</time></trkpt><trkpt lat="43.02083086005608" lon="11.42426415642075"><ele>215.5</ele><time>2026-04-11T12:25:03Z</time></trkpt><trkpt lat="43.020764143436175" lon="11.424333474947057"><ele>216.33333333333334</ele><time>2026-04-11T12:25:05Z</time></trkpt><trkpt lat="43.02070286739278" lon="11.424394253469277"><ele>217.16666666666669</ele><time>2026-04-11T12:25:07Z</time></trkpt><trkpt lat="43.020651677787036" lon="11.424452946013306"><ele>218.0</ele><time>2026-04-11T12:25:09Z</time></trkpt><trkpt lat="43.020583960542595" lon="11.42453604852321"><ele>218.16666666666669</ele><time>2026-04-11T12:25:12Z</time></trkpt><trkpt lat="43.020521347288195" lon="11.424614351172544"><ele>218.33333333333334</ele><time>2026-04-11T12:25:15Z</time></trkpt><trkpt lat="43.020462465089444" lon="11.424691638530838"><ele>218.5</ele><time>2026-04-11T12:25:18Z</time></trkpt><trkpt lat="43.02040394020906" lon="11.424775483522982"><ele>218.66666666666669</ele><time>2026-04-11T12:25:22Z</time></trkpt><trkpt lat="43.02035757475102" lon="11.424850812156278"><ele>218.83333333333334</ele><time>2026-04-11T12:25:25Z</time></trkpt><trkpt lat="43.02031455240077" lon="11.424935191616932"><ele>219.0</ele><time>2026-04-11T12:25:28Z</time></trkpt><trkpt lat="43.020266948604906" lon="11.425015623749179"><ele>220.14285714285717</ele><time>2026-04-11T12:25:30.999Z</time></trkpt><trkpt lat="43.020230766986415" lon="11.42509952579629"><ele>221.28571428571428</ele><time>2026-04-11T12:25:33.999Z</time></trkpt><trkpt lat="43.020187179514224" lon="11.425174759298999"><ele>222.42857142857144</ele><time>2026-04-11T12:25:36.999Z</time></trkpt><trkpt lat="43.02014611319238" lon="11.425251212842477"><ele>223.57142857142858</ele><time>2026-04-11T12:25:39.999Z</time></trkpt><trkpt lat="43.02010857686208" lon="11.425329937409298"><ele>224.71428571428572</ele><time>2026-04-11T12:25:42.999Z</time></trkpt><trkpt lat="43.02007256092032" lon="11.425410006529269"><ele>225.85714285714286</ele><time>2026-04-11T12:25:45.999Z</time></trkpt><trkpt lat="43.0200347413074" lon="11.425489362664592"><ele>227.0</ele><time>2026-04-11T12:25:48.999Z</time></trkpt><trkpt lat="43.0200021587792" lon="11.425573365632655"><ele>228.85714285714286</ele><time>2026-04-11T12:25:51.999Z</time></trkpt><trkpt lat="43.01995891001339" lon="11.425654610732593"><ele>230.71428571428572</ele><time>2026-04-11T12:25:54.999Z</time></trkpt><trkpt lat="43.01991679274491" lon="11.425738714529137"><ele>232.57142857142858</ele><time>2026-04-11T12:25:57.999Z</time></trkpt><trkpt lat="43.019879521525404" lon="11.42582561070936"><ele>234.42857142857144</ele><time>2026-04-11T12:26:00.999Z</time></trkpt><trkpt lat="43.01984092370131" lon="11.425908940930537"><ele>236.28571428571428</ele><time>2026-04-11T12:26:03.999Z</time></trkpt><trkpt lat="43.019803741192284" lon="11.425994260107569"><ele>238.14285714285717</ele><time>2026-04-11T12:26:06.999Z</time></trkpt><trkpt lat="43.01976677575612" lon="11.426075350645835"><ele>240.0</ele><time>2026-04-11T12:26:09.999Z</time></trkpt><trkpt lat="43.01973026085791" lon="11.426159416377788"><ele>240.0</ele><time>2026-04-11T12:26:12.999Z</time></trkpt><trkpt lat="43.01969003219991" lon="11.426242434548033"><ele>240.0</ele><time>2026-04-11T12:26:15.999Z</time></trkpt><trkpt lat="43.01965166276226" lon="11.426323550723609"><ele>240.0</ele><time>2026-04-11T12:26:18.999Z</time></trkpt><trkpt lat="43.01961486448077" lon="11.42640599088222"><ele>240.0</ele><time>2026-04-11T12:26:21.999Z</time></trkpt><trkpt lat="43.01957883010321" lon="11.426489418942484"><ele>240.0</ele><time>2026-04-11T12:26:24.998Z</time></trkpt><trkpt lat="43.01954613670272" lon="11.42657221163451"><ele>240.0</ele><time>2026-04-11T12:26:27.998Z</time></trkpt><trkpt lat="43.01950695847426" lon="11.42665231314995"><ele>240.0</ele><time>2026-04-11T12:26:30.998Z</time></trkpt><trkpt lat="43.01947040651724" lon="11.426734400801328"><ele>240.57142857142858</ele><time>2026-04-11T12:26:33.998Z</time></trkpt><trkpt lat="43.01943476053505" lon="11.426818602043934"><ele>241.1428571428571</ele><time>2026-04-11T12:26:36.998Z</time></trkpt><trkpt lat="43.01939225235863" lon="11.42689830432942"><ele>241.7142857142857</ele><time>2026-04-11T12:26:39.998Z</time></trkpt><trkpt lat="43.01935651873733" lon="11.426982680051825"><ele>242.28571428571428</ele><time>2026-04-11T12:26:43Z</time></trkpt><trkpt lat="43.0193262738834" lon="11.42706709234416"><ele>242.85714285714283</ele><time>2026-04-11T12:26:46Z</time></trkpt><trkpt lat="43.019288456491985" lon="11.42714573078933"><ele>243.4285714285714</ele><time>2026-04-11T12:26:49Z</time></trkpt><trkpt lat="43.01924239483529" lon="11.427229420609393"><ele>243.99999999999997</ele><time>2026-04-11T12:26:52Z</time></trkpt><trkpt lat="43.019192780765" lon="11.427322531902442"><ele>244.99999999999997</ele><time>2026-04-11T12:26:55Z</time></trkpt><trkpt lat="43.019151493226815" lon="11.42742298987062"><ele>246.0</ele><time>2026-04-11T12:26:58Z</time></trkpt><trkpt lat="43.019110795092836" lon="11.427515509718534"><ele>247.0</ele><time>2026-04-11T12:27:01Z</time></trkpt><trkpt lat="43.01907328080806" lon="11.42761197904573"><ele>248.0</ele><time>2026-04-11T12:27:04Z</time></trkpt><trkpt lat="43.01903449161935" lon="11.427711863309126"><ele>248.99999999999997</ele><time>2026-04-11T12:27:07Z</time></trkpt><trkpt lat="43.019001142945854" lon="11.427806966095309"><ele>250.0</ele><time>2026-04-11T12:27:09Z</time></trkpt><trkpt lat="43.018974180969444" lon="11.42789525280328"><ele>250.33333333333331</ele><time>2026-04-11T12:27:11Z</time></trkpt><trkpt lat="43.01893750904183" lon="11.427992870207445"><ele>250.66666666666666</ele><time>2026-04-11T12:27:14Z</time></trkpt><trkpt lat="43.018899154543234" lon="11.428092639254142"><ele>251.0</ele><time>2026-04-11T12:27:17Z</time></trkpt><trkpt lat="43.01886768531398" lon="11.428202846089395"><ele>251.33333333333331</ele><time>2026-04-11T12:27:20Z</time></trkpt><trkpt lat="43.01884295862275" lon="11.42828400385178"><ele>251.66666666666666</ele><time>2026-04-11T12:27:23Z</time></trkpt><trkpt lat="43.01881325740786" lon="11.428377275836265"><ele>252.0</ele><time>2026-04-11T12:27:26Z</time></trkpt><trkpt lat="43.01878339270774" lon="11.428474124355423"><ele>252.0</ele><time>2026-04-11T12:27:29Z</time></trkpt><trkpt lat="43.01875541901363" lon="11.428579100428681"><ele>252.0</ele><time>2026-04-11T12:27:32Z</time></trkpt><trkpt lat="43.018739827106636" lon="11.42868497232657"><ele>252.0</ele><time>2026-04-11T12:27:35Z</time></trkpt><trkpt lat="43.01870530610475" lon="11.428812800721861"><ele>252.0</ele><time>2026-04-11T12:27:37Z</time></trkpt><trkpt lat="43.01866529129954" lon="11.428928560990943"><ele>252.0</ele><time>2026-04-11T12:27:38.999Z</time></trkpt><trkpt lat="43.018626060989384" lon="11.429013618216874"><ele>252.0</ele><time>2026-04-11T12:27:40.999Z</time></trkpt><trkpt lat="43.01860063387612" lon="11.429111407726019"><ele>251.66666666666666</ele><time>2026-04-11T12:29:20Z</time></trkpt><trkpt lat="43.01857069838768" lon="11.429198145908181"><ele>251.33333333333331</ele><time>2026-04-11T12:29:23Z</time></trkpt><trkpt lat="43.0185406137166" lon="11.429321625286963"><ele>251.0</ele><time>2026-04-11T12:29:26Z</time></trkpt><trkpt lat="43.018508804811134" lon="11.42941914211119"><ele>250.66666666666666</ele><time>2026-04-11T12:29:28Z</time></trkpt><trkpt lat="43.01847628058647" lon="11.429531602869575"><ele>250.33333333333331</ele><time>2026-04-11T12:29:30Z</time></trkpt><trkpt lat="43.018449130619686" lon="11.429659232681274"><ele>250.0</ele><time>2026-04-11T12:29:32Z</time></trkpt><trkpt lat="43.0184090562755" lon="11.429793065575453"><ele>249.6</ele><time>2026-04-11T12:29:34Z</time></trkpt><trkpt lat="43.01834500332951" lon="11.42991227747251"><ele>249.2</ele><time>2026-04-11T12:29:36Z</time></trkpt><trkpt lat="43.0183163445282" lon="11.43005617635748"><ele>248.8</ele><time>2026-04-11T12:29:38Z</time></trkpt><trkpt lat="43.018263064452825" lon="11.430190702834011"><ele>248.4</ele><time>2026-04-11T12:29:40Z</time></trkpt><trkpt lat="43.01821949244222" lon="11.43033875890642"><ele>248.0</ele><time>2026-04-11T12:29:42Z</time></trkpt><trkpt lat="43.018173388003795" lon="11.430495420089139"><ele>247.14285714285717</ele><time>2026-04-11T12:29:44Z</time></trkpt><trkpt lat="43.018149040793006" lon="11.430578151008495"><ele>246.2857142857143</ele><time>2026-04-11T12:29:44.999Z</time></trkpt><trkpt lat="43.01813921526386" lon="11.43066794107602"><ele>245.42857142857144</ele><time>2026-04-11T12:29:45.999Z</time></trkpt><trkpt lat="43.01811306214708" lon="11.430748312990572"><ele>244.57142857142856</ele><time>2026-04-11T12:29:46.999Z</time></trkpt><trkpt lat="43.018087206052066" lon="11.430831695690586"><ele>243.7142857142857</ele><time>2026-04-11T12:29:47.999Z</time></trkpt><trkpt lat="43.01806123250983" lon="11.430919650070972"><ele>242.85714285714283</ele><time>2026-04-11T12:29:48.999Z</time></trkpt><trkpt lat="43.01803770291864" lon="11.431009348512733"><ele>242.0</ele><time>2026-04-11T12:29:49.999Z</time></trkpt><trkpt lat="43.01801421672285" lon="11.431091205866746"><ele>242.00000000000003</ele><time>2026-04-11T12:29:50.999Z</time></trkpt><trkpt lat="43.01796879261093" lon="11.431251144109524"><ele>242.0</ele><time>2026-04-11T12:29:52.999Z</time></trkpt><trkpt lat="43.01794342292243" lon="11.431336816774873"><ele>242.0</ele><time>2026-04-11T12:29:53.999Z</time></trkpt><trkpt lat="43.01791432507992" lon="11.431422963345344"><ele>242.0</ele><time>2026-04-11T12:29:54.999Z</time></trkpt><trkpt lat="43.017885241183976" lon="11.431511350222449"><ele>242.00000000000003</ele><time>2026-04-11T12:29:55.999Z</time></trkpt><trkpt lat="43.01785757871169" lon="11.431601929224103"><ele>242.0</ele><time>2026-04-11T12:29:56.999Z</time></trkpt><trkpt lat="43.0178322152397" lon="11.431694589398585"><ele>241.57142857142856</ele><time>2026-04-11T12:29:57.999Z</time></trkpt><trkpt lat="43.01780838247956" lon="11.431787579651562"><ele>241.1428571428571</ele><time>2026-04-11T12:29:58.999Z</time></trkpt><trkpt lat="43.017783577650306" lon="11.431878574086426"><ele>240.71428571428572</ele><time>2026-04-11T12:29:59.999Z</time></trkpt><trkpt lat="43.017755400789504" lon="11.431966530552009"><ele>240.28571428571428</ele><time>2026-04-11T12:30:00.999Z</time></trkpt><trkpt lat="43.017725947216306" lon="11.432053826171597"><ele>239.85714285714286</ele><time>2026-04-11T12:30:01.999Z</time></trkpt><trkpt lat="43.017702390887564" lon="11.43214351558638"><ele>239.42857142857144</ele><time>2026-04-11T12:30:02.999Z</time></trkpt><trkpt lat="43.017679918072965" lon="11.432230313454534"><ele>239.00000000000003</ele><time>2026-04-11T12:30:03.999Z</time></trkpt><trkpt lat="43.017652885604754" lon="11.432313565148112"><ele>239.0</ele><time>2026-04-11T12:30:04.999Z</time></trkpt><trkpt lat="43.01762628852359" lon="11.432395646989526"><ele>238.99999999999997</ele><time>2026-04-11T12:30:05.999Z</time></trkpt><trkpt lat="43.01760191769984" lon="11.432477453741956"><ele>238.99999999999997</ele><time>2026-04-11T12:30:06.999Z</time></trkpt><trkpt lat="43.01756113004681" lon="11.432633199209082"><ele>239.0</ele><time>2026-04-11T12:30:08.999Z</time></trkpt><trkpt lat="43.01750296375305" lon="11.432771841217347"><ele>239.0</ele><time>2026-04-11T12:30:10.999Z</time></trkpt><trkpt lat="43.017476712489575" lon="11.432915580119566"><ele>239.66666666666669</ele><time>2026-04-11T12:30:12.999Z</time></trkpt><trkpt lat="43.01743529583569" lon="11.433045899447704"><ele>240.33333333333334</ele><time>2026-04-11T12:30:14.999Z</time></trkpt><trkpt lat="43.017399960311856" lon="11.433165537904149"><ele>241.0</ele><time>2026-04-11T12:30:16.999Z</time></trkpt><trkpt lat="43.01736694423274" lon="11.433272841875556"><ele>241.66666666666669</ele><time>2026-04-11T12:30:18.999Z</time></trkpt><trkpt lat="43.017342472265014" lon="11.433374560875615"><ele>242.33333333333334</ele><time>2026-04-11T12:30:20.999Z</time></trkpt><trkpt lat="43.01730984278076" lon="11.433464585330816"><ele>243.0</ele><time>2026-04-11T12:30:22.999Z</time></trkpt><trkpt lat="43.01728226117797" lon="11.433553136405088"><ele>243.0</ele><time>2026-04-11T12:30:24.999Z</time></trkpt><trkpt lat="43.01726332485846" lon="11.433638275045071"><ele>243.0</ele><time>2026-04-11T12:30:26.999Z</time></trkpt><trkpt lat="43.01723692146694" lon="11.433717450966133"><ele>243.0</ele><time>2026-04-11T12:30:28.999Z</time></trkpt><trkpt lat="43.01720752019993" lon="11.433829194362751"><ele>243.0</ele><time>2026-04-11T12:30:31.999Z</time></trkpt><trkpt lat="43.01717926770384" lon="11.433931278563255"><ele>243.0</ele><time>2026-04-11T12:30:34.999Z</time></trkpt><trkpt lat="43.017149191627745" lon="11.434030311741662"><ele>243.0</ele><time>2026-04-11T12:30:37.998Z</time></trkpt><trkpt lat="43.01711529806079" lon="11.434126990257461"><ele>244.0</ele><time>2026-04-11T12:30:40.998Z</time></trkpt><trkpt lat="43.01709033684367" lon="11.43422657187626"><ele>245.0</ele><time>2026-04-11T12:30:43.998Z</time></trkpt><trkpt lat="43.01705714370523" lon="11.434325231850725"><ele>246.0</ele><time>2026-04-11T12:30:46.998Z</time></trkpt><trkpt lat="43.01702425013679" lon="11.434428720442178"><ele>247.0</ele><time>2026-04-11T12:30:49.998Z</time></trkpt><trkpt lat="43.01699174334528" lon="11.434536650752314"><ele>248.0</ele><time>2026-04-11T12:30:54Z</time></trkpt><trkpt lat="43.01696759392386" lon="11.434632058782793"><ele>249.0</ele><time>2026-04-11T12:30:57Z</time></trkpt><trkpt lat="43.01693992377781" lon="11.434724161382375"><ele>249.28571428571428</ele><time>2026-04-11T12:31:00Z</time></trkpt><trkpt lat="43.01691401260596" lon="11.434818436478697"><ele>249.57142857142856</ele><time>2026-04-11T12:31:03Z</time></trkpt><trkpt lat="43.01688622168379" lon="11.434909818372319"><ele>249.85714285714283</ele><time>2026-04-11T12:31:06Z</time></trkpt><trkpt lat="43.01686067032727" lon="11.4350029837124"><ele>250.1428571428571</ele><time>2026-04-11T12:31:09Z</time></trkpt><trkpt lat="43.016836816825425" lon="11.435097169645756"><ele>250.42857142857142</ele><time>2026-04-11T12:31:12Z</time></trkpt><trkpt lat="43.01681199756919" lon="11.435187770658315"><ele>250.71428571428567</ele><time>2026-04-11T12:31:15Z</time></trkpt><trkpt lat="43.01678545090412" lon="11.435281547888232"><ele>250.99999999999997</ele><time>2026-04-11T12:31:18Z</time></trkpt><trkpt lat="43.01675872572553" lon="11.435373407188997"><ele>251.00000000000003</ele><time>2026-04-11T12:31:21Z</time></trkpt><trkpt lat="43.01672991088912" lon="11.435468386169465"><ele>251.0</ele><time>2026-04-11T12:31:24Z</time></trkpt><trkpt lat="43.01670059911213" lon="11.43556198248233"><ele>251.0</ele><time>2026-04-11T12:31:27Z</time></trkpt><trkpt lat="43.01667003742354" lon="11.435649288821248"><ele>251.0</ele><time>2026-04-11T12:31:30Z</time></trkpt><trkpt lat="43.01663913661993" lon="11.4357624781244"><ele>251.00000000000003</ele><time>2026-04-11T12:31:33Z</time></trkpt><trkpt lat="43.0166127887887" lon="11.435851340064637"><ele>251.0</ele><time>2026-04-11T12:31:36Z</time></trkpt><trkpt lat="43.01657837367879" lon="11.435955937519083"><ele>251.83333333333334</ele><time>2026-04-11T12:31:40Z</time></trkpt><trkpt lat="43.016553689033636" lon="11.436049559846408"><ele>252.66666666666669</ele><time>2026-04-11T12:31:43Z</time></trkpt><trkpt lat="43.016525714794504" lon="11.436151089367218"><ele>253.5</ele><time>2026-04-11T12:31:47Z</time></trkpt><trkpt lat="43.01648790654956" lon="11.43625269427739"><ele>254.33333333333331</ele><time>2026-04-11T12:31:51Z</time></trkpt><trkpt lat="43.01647002718733" lon="11.436348541181538"><ele>255.16666666666666</ele><time>2026-04-11T12:31:53.999Z</time></trkpt><trkpt lat="43.01643592543263" lon="11.436443381131758"><ele>256.0</ele><time>2026-04-11T12:31:57.999Z</time></trkpt><trkpt lat="43.01641434348054" lon="11.436526967326579"><ele>256.42857142857144</ele><time>2026-04-11T12:32:00.999Z</time></trkpt><trkpt lat="43.016396083393914" lon="11.436613535366627"><ele>256.85714285714283</ele><time>2026-04-11T12:32:03.999Z</time></trkpt><trkpt lat="43.0163711979158" lon="11.436696194468881"><ele>257.2857142857143</ele><time>2026-04-11T12:32:06.999Z</time></trkpt><trkpt lat="43.016344582521384" lon="11.436779226660349"><ele>257.7142857142857</ele><time>2026-04-11T12:32:09.999Z</time></trkpt><trkpt lat="43.01631874795292" lon="11.436861290082321"><ele>258.1428571428571</ele><time>2026-04-11T12:32:12.999Z</time></trkpt><trkpt lat="43.016292333744886" lon="11.43694810011254"><ele>258.57142857142856</ele><time>2026-04-11T12:32:15.999Z</time></trkpt><trkpt lat="43.01626680819557" lon="11.437040409124311"><ele>259.0</ele><time>2026-04-11T12:32:18.999Z</time></trkpt><trkpt lat="43.016241519658664" lon="11.43713006214682"><ele>259.85714285714283</ele><time>2026-04-11T12:32:21.999Z</time></trkpt><trkpt lat="43.01621470063847" lon="11.437221503825205"><ele>260.7142857142857</ele><time>2026-04-11T12:32:24.999Z</time></trkpt><trkpt lat="43.01618985957181" lon="11.437316865124258"><ele>261.57142857142856</ele><time>2026-04-11T12:32:27.999Z</time></trkpt><trkpt lat="43.016163834134574" lon="11.43739615606652"><ele>262.42857142857144</ele><time>2026-04-11T12:32:29.999Z</time></trkpt><trkpt lat="43.0161341782939" lon="11.437488574745924"><ele>263.2857142857143</ele><time>2026-04-11T12:32:32.999Z</time></trkpt><trkpt lat="43.01610783551619" lon="11.437582407465488"><ele>264.1428571428571</ele><time>2026-04-11T12:32:35.999Z</time></trkpt><trkpt lat="43.016079718007674" lon="11.437673723668224"><ele>265.0</ele><time>2026-04-11T12:32:38.999Z</time></trkpt><trkpt lat="43.016053962671656" lon="11.437763457244271"><ele>264.99999999999994</ele><time>2026-04-11T12:32:41.999Z</time></trkpt><trkpt lat="43.016027559862444" lon="11.43784849985414"><ele>265.0</ele><time>2026-04-11T12:32:44.999Z</time></trkpt><trkpt lat="43.01599762467414" lon="11.437941039334332"><ele>265.0</ele><time>2026-04-11T12:32:47.998Z</time></trkpt><trkpt lat="43.015975079893664" lon="11.4380281929064"><ele>265.0</ele><time>2026-04-11T12:32:50.998Z</time></trkpt><trkpt lat="43.01595046612078" lon="11.43810744691479"><ele>265.0</ele><time>2026-04-11T12:32:53.998Z</time></trkpt><trkpt lat="43.015916159563695" lon="11.43820798754173"><ele>264.99999999999994</ele><time>2026-04-11T12:32:56.998Z</time></trkpt><trkpt lat="43.01588603400165" lon="11.438312953810682"><ele>265.0</ele><time>2026-04-11T12:33:01Z</time></trkpt><trkpt lat="43.01586803471108" lon="11.438398824419393"><ele>265.71428571428567</ele><time>2026-04-11T12:33:04Z</time></trkpt><trkpt lat="43.01584032858465" lon="11.43848416752413"><ele>266.42857142857144</ele><time>2026-04-11T12:33:07Z</time></trkpt><trkpt lat="43.01581347867177" lon="11.438565405821588"><ele>267.1428571428571</ele><time>2026-04-11T12:33:10Z</time></trkpt><trkpt lat="43.015772436113764" lon="11.438634616079845"><ele>267.85714285714283</ele><time>2026-04-11T12:33:13Z</time></trkpt><trkpt lat="43.01572497253317" lon="11.438700187602029"><ele>268.57142857142856</ele><time>2026-04-11T12:33:16Z</time></trkpt><trkpt lat="43.015660210907654" lon="11.438729373000296"><ele>269.2857142857143</ele><time>2026-04-11T12:33:19Z</time></trkpt><trkpt lat="43.015596739976466" lon="11.438718073117384"><ele>270.0</ele><time>2026-04-11T12:33:22Z</time></trkpt><trkpt lat="43.01554854125059" lon="11.438653395709606"><ele>270.6666666666667</ele><time>2026-04-11T12:33:25Z</time></trkpt><trkpt lat="43.015503475791114" lon="11.438561364324114"><ele>271.3333333333333</ele><time>2026-04-11T12:33:28Z</time></trkpt><trkpt lat="43.015465945109774" lon="11.438488535219188"><ele>272.0</ele><time>2026-04-11T12:33:29Z</time></trkpt><trkpt lat="43.01543975902441" lon="11.438396931714562"><ele>272.66666666666663</ele><time>2026-04-11T12:33:31Z</time></trkpt><trkpt lat="43.015396627649025" lon="11.438300009652753"><ele>273.3333333333333</ele><time>2026-04-11T12:33:33Z</time></trkpt><trkpt lat="43.015338668989386" lon="11.438198244065317"><ele>274.0</ele><time>2026-04-11T12:33:35Z</time></trkpt><trkpt lat="43.01528458124825" lon="11.438094747395345"><ele>274.0</ele><time>2026-04-11T12:33:37Z</time></trkpt><trkpt lat="43.01522339808808" lon="11.43797265366443"><ele>274.0</ele><time>2026-04-11T12:33:39Z</time></trkpt><trkpt lat="43.01516343039706" lon="11.437841924409119"><ele>274.0</ele><time>2026-04-11T12:33:41Z</time></trkpt><trkpt lat="43.01511369442797" lon="11.437709839228717"><ele>274.0</ele><time>2026-04-11T12:33:43Z</time></trkpt><trkpt lat="43.01506344441449" lon="11.437569789875399"><ele>274.0</ele><time>2026-04-11T12:33:45Z</time></trkpt><trkpt lat="43.01501604595687" lon="11.437417513482481"><ele>272.0</ele><time>2026-04-11T12:33:47Z</time></trkpt><trkpt lat="43.014977219372966" lon="11.43725452646733"><ele>270.0</ele><time>2026-04-11T12:33:49Z</time></trkpt><trkpt lat="43.0149621799627" lon="11.437167133606865"><ele>268.0</ele><time>2026-04-11T12:33:50Z</time></trkpt><trkpt lat="43.01495032573158" lon="11.437078256013766"><ele>266.0</ele><time>2026-04-11T12:33:51Z</time></trkpt><trkpt lat="43.014939839186006" lon="11.436987141062463"><ele>264.0</ele><time>2026-04-11T12:33:52Z</time></trkpt><trkpt lat="43.01493193013809" lon="11.436898489458105"><ele>262.0</ele><time>2026-04-11T12:33:53Z</time></trkpt><trkpt lat="43.01492416735883" lon="11.43681172047681"><ele>261.4</ele><time>2026-04-11T12:33:54Z</time></trkpt><trkpt lat="43.01491446586845" lon="11.436644025439028"><ele>260.79999999999995</ele><time>2026-04-11T12:33:56Z</time></trkpt><trkpt lat="43.01490430228149" lon="11.436474089557302"><ele>260.2</ele><time>2026-04-11T12:33:57.999Z</time></trkpt><trkpt lat="43.014891953111345" lon="11.436306629515494"><ele>259.59999999999997</ele><time>2026-04-11T12:33:59.999Z</time></trkpt><trkpt lat="43.01488873926394" lon="11.436219454779726"><ele>259.0</ele><time>2026-04-11T12:34:00.999Z</time></trkpt><trkpt lat="43.014882763658505" lon="11.436051821636484"><ele>258.66666666666663</ele><time>2026-04-11T12:34:02.999Z</time></trkpt><trkpt lat="43.01487719330695" lon="11.435882163438073"><ele>258.3333333333333</ele><time>2026-04-11T12:34:04.999Z</time></trkpt><trkpt lat="43.01487771380975" lon="11.435793206851999"><ele>258.0</ele><time>2026-04-11T12:34:05.999Z</time></trkpt><trkpt lat="43.01486556022549" lon="11.43570585716349"><ele>257.6666666666667</ele><time>2026-04-11T12:34:06.999Z</time></trkpt><trkpt lat="43.01486323333182" lon="11.435609824922697"><ele>257.33333333333337</ele><time>2026-04-11T12:34:07.999Z</time></trkpt><trkpt lat="43.014859842792376" lon="11.435514285970417"><ele>257.0</ele><time>2026-04-11T12:34:08.999Z</time></trkpt><trkpt lat="43.01485469551732" lon="11.435427726942587"><ele>256.83333333333337</ele><time>2026-04-11T12:34:09.999Z</time></trkpt><trkpt lat="43.01482255091635" lon="11.435273546093255"><ele>256.6666666666667</ele><time>2026-04-11T12:34:11.999Z</time></trkpt><trkpt lat="43.01483033118952" lon="11.435169199555274"><ele>256.5</ele><time>2026-04-11T12:34:12.999Z</time></trkpt><trkpt lat="43.01482243397124" lon="11.435072111873286"><ele>256.3333333333333</ele><time>2026-04-11T12:34:13.999Z</time></trkpt><trkpt lat="43.014811182982996" lon="11.434965087202759"><ele>256.16666666666663</ele><time>2026-04-11T12:34:14.999Z</time></trkpt><trkpt lat="43.01480349964368" lon="11.434865884562617"><ele>256.0</ele><time>2026-04-11T12:34:15.999Z</time></trkpt><trkpt lat="43.01479062971351" lon="11.43475999762336"><ele>256.0</ele><time>2026-04-11T12:34:16.999Z</time></trkpt><trkpt lat="43.01477154638308" lon="11.434640804681457"><ele>256.0</ele><time>2026-04-11T12:34:17.999Z</time></trkpt><trkpt lat="43.01475775177561" lon="11.434530027237951"><ele>256.0</ele><time>2026-04-11T12:34:18.999Z</time></trkpt><trkpt lat="43.014729986044145" lon="11.43431507113331"><ele>256.0</ele><time>2026-04-11T12:34:20.999Z</time></trkpt><trkpt lat="43.01470803588933" lon="11.434215006228163"><ele>256.0</ele><time>2026-04-11T12:34:21.999Z</time></trkpt><trkpt lat="43.01470425720296" lon="11.43411296357278"><ele>255.8</ele><time>2026-04-11T12:34:22.999Z</time></trkpt><trkpt lat="43.0147006449784" lon="11.433936645194882"><ele>255.60000000000002</ele><time>2026-04-11T12:34:24.999Z</time></trkpt><trkpt lat="43.01470757468348" lon="11.433844505441122"><ele>255.4</ele><time>2026-04-11T12:34:25.999Z</time></trkpt><trkpt lat="43.01471360527266" lon="11.433754721535564"><ele>255.2</ele><time>2026-04-11T12:34:26.999Z</time></trkpt><trkpt lat="43.014778914236445" lon="11.433582612042416"><ele>255.0</ele><time>2026-04-11T12:34:28.999Z</time></trkpt><trkpt lat="43.014820025813044" lon="11.433494790460683"><ele>254.33333333333334</ele><time>2026-04-11T12:34:29.999Z</time></trkpt><trkpt lat="43.014856896517045" lon="11.4334059324246"><ele>253.66666666666669</ele><time>2026-04-11T12:34:30.999Z</time></trkpt><trkpt lat="43.014901913827266" lon="11.43330499767553"><ele>253.0</ele><time>2026-04-11T12:34:31.999Z</time></trkpt><trkpt lat="43.01494339293277" lon="11.433206027428817"><ele>252.33333333333334</ele><time>2026-04-11T12:34:32.999Z</time></trkpt><trkpt lat="43.014972702371146" lon="11.433110197707228"><ele>251.66666666666669</ele><time>2026-04-11T12:34:33.999Z</time></trkpt><trkpt lat="43.01500146925556" lon="11.432980259959233"><ele>251.0</ele><time>2026-04-11T12:34:34.999Z</time></trkpt><trkpt lat="43.01501809338547" lon="11.4328732725773"><ele>250.4</ele><time>2026-04-11T12:34:35.999Z</time></trkpt><trkpt lat="43.01502078066326" lon="11.43277290412125"><ele>249.8</ele><time>2026-04-11T12:34:36.999Z</time></trkpt><trkpt lat="43.01500191616652" lon="11.432566244287072"><ele>249.20000000000002</ele><time>2026-04-11T12:34:38.999Z</time></trkpt><trkpt lat="43.01498664455423" lon="11.432443309956074"><ele>248.60000000000002</ele><time>2026-04-11T12:34:39.999Z</time></trkpt><trkpt lat="43.014964440698805" lon="11.432318338394106"><ele>248.0</ele><time>2026-04-11T12:34:40.999Z</time></trkpt><trkpt lat="43.01494289198116" lon="11.432193051987316"><ele>247.4</ele><time>2026-04-11T12:34:41.999Z</time></trkpt><trkpt lat="43.014915500710806" lon="11.432068335300409"><ele>246.8</ele><time>2026-04-11T12:34:42.999Z</time></trkpt><trkpt lat="43.01489355810975" lon="11.43192601959691"><ele>246.2</ele><time>2026-04-11T12:34:43.999Z</time></trkpt><trkpt lat="43.014872060154396" lon="11.431793289769624"><ele>245.6</ele><time>2026-04-11T12:34:44.999Z</time></trkpt><trkpt lat="43.014850402963354" lon="11.431660907915207"><ele>245.0</ele><time>2026-04-11T12:34:45.999Z</time></trkpt><trkpt lat="43.014830005111016" lon="11.431524008589998"><ele>245.0</ele><time>2026-04-11T12:34:46.999Z</time></trkpt><trkpt lat="43.014807765630465" lon="11.431388065102178"><ele>245.0</ele><time>2026-04-11T12:34:47.999Z</time></trkpt><trkpt lat="43.01478579310135" lon="11.431249593339217"><ele>245.0</ele><time>2026-04-11T12:34:48.999Z</time></trkpt><trkpt lat="43.014760319189996" lon="11.431110319275497"><ele>245.0</ele><time>2026-04-11T12:34:49.999Z</time></trkpt><trkpt lat="43.014727497684326" lon="11.430975240255625"><ele>245.0</ele><time>2026-04-11T12:34:50.999Z</time></trkpt><trkpt lat="43.01468429102275" lon="11.430847570564264"><ele>244.0</ele><time>2026-04-11T12:34:51.998Z</time></trkpt><trkpt lat="43.01463016634479" lon="11.430727725285267"><ele>243.0</ele><time>2026-04-11T12:34:52.998Z</time></trkpt><trkpt lat="43.01455402771836" lon="11.430641737263901"><ele>242.0</ele><time>2026-04-11T12:34:53.998Z</time></trkpt><trkpt lat="43.014476371706934" lon="11.430571488673465"><ele>241.0</ele><time>2026-04-11T12:34:54.998Z</time></trkpt><trkpt lat="43.01439554913051" lon="11.43052654944434"><ele>240.0</ele><time>2026-04-11T12:34:55.998Z</time></trkpt><trkpt lat="43.01432357732402" lon="11.430485769880336"><ele>239.33333333333334</ele><time>2026-04-11T12:34:56.998Z</time></trkpt><trkpt lat="43.014256300070166" lon="11.430435529380915"><ele>238.66666666666669</ele><time>2026-04-11T12:34:57.998Z</time></trkpt><trkpt lat="43.01420402170289" lon="11.43036339679803"><ele>238.0</ele><time>2026-04-11T12:34:58.998Z</time></trkpt><trkpt lat="43.01412705650667" lon="11.430283076739432"><ele>237.33333333333334</ele><time>2026-04-11T12:34:59.998Z</time></trkpt><trkpt lat="43.01406949994394" lon="11.430189111043868"><ele>236.66666666666669</ele><time>2026-04-11T12:35:00.998Z</time></trkpt><trkpt lat="43.01401871834272" lon="11.430077063161757"><ele>236.0</ele><time>2026-04-11T12:35:01.998Z</time></trkpt><trkpt lat="43.013975325875755" lon="11.42994697178843"><ele>236.0</ele><time>2026-04-11T12:35:02.998Z</time></trkpt><trkpt lat="43.013938675983034" lon="11.429805255369903"><ele>236.00000000000003</ele><time>2026-04-11T12:35:03.998Z</time></trkpt><trkpt lat="43.01391291887933" lon="11.429659763881084"><ele>236.00000000000003</ele><time>2026-04-11T12:35:05Z</time></trkpt><trkpt lat="43.01388451620156" lon="11.429519859097955"><ele>236.0</ele><time>2026-04-11T12:35:06Z</time></trkpt><trkpt lat="43.01385367613077" lon="11.42939288203385"><ele>236.0</ele><time>2026-04-11T12:35:07Z</time></trkpt><trkpt lat="43.01381287250321" lon="11.429282953497275"><ele>235.00000000000003</ele><time>2026-04-11T12:35:08Z</time></trkpt><trkpt lat="43.01375742068217" lon="11.429194855537322"><ele>234.0</ele><time>2026-04-11T12:35:09Z</time></trkpt><trkpt lat="43.01369138790356" lon="11.429128280365424"><ele>233.0</ele><time>2026-04-11T12:35:10Z</time></trkpt><trkpt lat="43.01362285201817" lon="11.429072410073225"><ele>232.0</ele><time>2026-04-11T12:35:11Z</time></trkpt><trkpt lat="43.01355422626016" lon="11.429025852694805"><ele>231.00000000000003</ele><time>2026-04-11T12:35:12Z</time></trkpt><trkpt lat="43.013486268872" lon="11.428980853251476"><ele>230.0</ele><time>2026-04-11T12:35:13Z</time></trkpt><trkpt lat="43.01341726558106" lon="11.428932996273211"><ele>230.00000000000003</ele><time>2026-04-11T12:35:14Z</time></trkpt><trkpt lat="43.01334485416959" lon="11.428888588944897"><ele>230.0</ele><time>2026-04-11T12:35:15Z</time></trkpt><trkpt lat="43.013268189877394" lon="11.428854361175423"><ele>230.0</ele><time>2026-04-11T12:35:16Z</time></trkpt><trkpt lat="43.01319078853617" lon="11.428825731317465"><ele>230.0</ele><time>2026-04-11T12:35:17Z</time></trkpt><trkpt lat="43.013113990371515" lon="11.428797364137056"><ele>230.00000000000003</ele><time>2026-04-11T12:35:18Z</time></trkpt><trkpt lat="43.01304011741274" lon="11.428772265452228"><ele>230.0</ele><time>2026-04-11T12:35:19Z</time></trkpt><trkpt lat="43.0129652020178" lon="11.42874342524555"><ele>230.50000000000003</ele><time>2026-04-11T12:35:20Z</time></trkpt><trkpt lat="43.012896779153905" lon="11.428709261610898"><ele>231.0</ele><time>2026-04-11T12:35:21Z</time></trkpt><trkpt lat="43.01282378268755" lon="11.428682548798845"><ele>231.5</ele><time>2026-04-11T12:35:22Z</time></trkpt><trkpt lat="43.01275734919603" lon="11.42865471885054"><ele>232.0</ele><time>2026-04-11T12:35:23Z</time></trkpt><trkpt lat="43.01269220127815" lon="11.428634011409871"><ele>232.50000000000003</ele><time>2026-04-11T12:35:24Z</time></trkpt><trkpt lat="43.012630361125716" lon="11.42860930683939"><ele>233.0</ele><time>2026-04-11T12:35:25Z</time></trkpt><trkpt lat="43.01252137425235" lon="11.428554237921647"><ele>232.0</ele><time>2026-04-11T12:35:27Z</time></trkpt><trkpt lat="43.01242028538254" lon="11.428500429118426"><ele>231.0</ele><time>2026-04-11T12:35:29Z</time></trkpt><trkpt lat="43.01232776516101" lon="11.428436984689458"><ele>230.0</ele><time>2026-04-11T12:35:31Z</time></trkpt><trkpt lat="43.01223480324191" lon="11.428349183116104"><ele>229.0</ele><time>2026-04-11T12:35:33Z</time></trkpt><trkpt lat="43.0121367007568" lon="11.428253032621367"><ele>228.0</ele><time>2026-04-11T12:35:35Z</time></trkpt><trkpt lat="43.01203624349559" lon="11.428153699653308"><ele>228.0</ele><time>2026-04-11T12:35:37Z</time></trkpt><trkpt lat="43.01198174263709" lon="11.428107067801093"><ele>228.0</ele><time>2026-04-11T12:35:38Z</time></trkpt><trkpt lat="43.01192910486667" lon="11.428059779029908"><ele>228.0</ele><time>2026-04-11T12:35:39Z</time></trkpt><trkpt lat="43.01182800752854" lon="11.427959154344888"><ele>228.0</ele><time>2026-04-11T12:35:41Z</time></trkpt><trkpt lat="43.01173322648819" lon="11.427866736829806"><ele>228.0</ele><time>2026-04-11T12:35:43Z</time></trkpt><trkpt lat="43.0116441902191" lon="11.427774466286607"><ele>227.60000000000002</ele><time>2026-04-11T12:35:45Z</time></trkpt><trkpt lat="43.011552522010554" lon="11.42768092202576"><ele>227.20000000000002</ele><time>2026-04-11T12:35:47Z</time></trkpt><trkpt lat="43.01145768252814" lon="11.42756807029389"><ele>226.8</ele><time>2026-04-11T12:35:49Z</time></trkpt><trkpt lat="43.01137034936867" lon="11.427435021036203"><ele>226.4</ele><time>2026-04-11T12:35:51Z</time></trkpt><trkpt lat="43.01132968878193" lon="11.427366129390153"><ele>226.0</ele><time>2026-04-11T12:35:52Z</time></trkpt><trkpt lat="43.01128806776732" lon="11.427293210386674"><ele>225.99999999999997</ele><time>2026-04-11T12:35:53Z</time></trkpt><trkpt lat="43.01124660045335" lon="11.42722676773933"><ele>226.0</ele><time>2026-04-11T12:35:54Z</time></trkpt><trkpt lat="43.01121119161297" lon="11.427144650641718"><ele>226.0</ele><time>2026-04-11T12:35:55Z</time></trkpt><trkpt lat="43.01116093127735" lon="11.427078105229997"><ele>226.0</ele><time>2026-04-11T12:35:56Z</time></trkpt><trkpt lat="43.011130809073286" lon="11.426994055297405"><ele>225.99999999999997</ele><time>2026-04-11T12:35:57Z</time></trkpt><trkpt lat="43.01106743487585" lon="11.426848569433398"><ele>226.0</ele><time>2026-04-11T12:35:59Z</time></trkpt><trkpt lat="43.01100961221743" lon="11.426714573820199"><ele>226.20000000000002</ele><time>2026-04-11T12:36:01Z</time></trkpt><trkpt lat="43.010954024397805" lon="11.426596880824476"><ele>226.40000000000003</ele><time>2026-04-11T12:36:03Z</time></trkpt><trkpt lat="43.010894688359826" lon="11.426487590434242"><ele>226.6</ele><time>2026-04-11T12:36:04.999Z</time></trkpt><trkpt lat="43.01083390953479" lon="11.426364235671192"><ele>226.8</ele><time>2026-04-11T12:36:06.999Z</time></trkpt><trkpt lat="43.010765190236924" lon="11.426233838028221"><ele>227.0</ele><time>2026-04-11T12:36:08.999Z</time></trkpt><trkpt lat="43.01069019774436" lon="11.426106145255234"><ele>227.0</ele><time>2026-04-11T12:36:10.999Z</time></trkpt><trkpt lat="43.01061845578131" lon="11.425984794394381"><ele>227.0</ele><time>2026-04-11T12:36:12.999Z</time></trkpt><trkpt lat="43.01054691099412" lon="11.425874759857173"><ele>227.0</ele><time>2026-04-11T12:36:14.999Z</time></trkpt><trkpt lat="43.010486966055566" lon="11.425765275309239"><ele>227.0</ele><time>2026-04-11T12:36:16.999Z</time></trkpt><trkpt lat="43.01043988441735" lon="11.425643519666417"><ele>227.0</ele><time>2026-04-11T12:36:18.999Z</time></trkpt><trkpt lat="43.010389166962526" lon="11.425521601230402"><ele>226.50000000000003</ele><time>2026-04-11T12:36:20.999Z</time></trkpt><trkpt lat="43.01034741892611" lon="11.425370687497644"><ele>226.0</ele><time>2026-04-11T12:36:22.999Z</time></trkpt><trkpt lat="43.01033210347451" lon="11.425282786909996"><ele>225.5</ele><time>2026-04-11T12:36:23.999Z</time></trkpt><trkpt lat="43.01031731204012" lon="11.425184525964658"><ele>225.0</ele><time>2026-04-11T12:36:24.999Z</time></trkpt><trkpt lat="43.01030067622094" lon="11.425082949506018"><ele>224.50000000000003</ele><time>2026-04-11T12:36:25.999Z</time></trkpt><trkpt lat="43.01028148449734" lon="11.424988743568187"><ele>224.0</ele><time>2026-04-11T12:36:26.999Z</time></trkpt><trkpt lat="43.01024676794974" lon="11.424908465142602"><ele>224.00000000000003</ele><time>2026-04-11T12:36:27.999Z</time></trkpt><trkpt lat="43.01023645329848" lon="11.424777673644837"><ele>224.0</ele><time>2026-04-11T12:36:28.999Z</time></trkpt><trkpt lat="43.01021654667731" lon="11.4246759628886"><ele>224.0</ele><time>2026-04-11T12:36:29.999Z</time></trkpt><trkpt lat="43.01019526113132" lon="11.424569726612665"><ele>224.0</ele><time>2026-04-11T12:36:30.999Z</time></trkpt><trkpt lat="43.01015936549195" lon="11.424488959225277"><ele>224.00000000000003</ele><time>2026-04-11T12:36:31.999Z</time></trkpt><trkpt lat="43.01014495038888" lon="11.424378641421596"><ele>224.0</ele><time>2026-04-11T12:36:32.999Z</time></trkpt><trkpt lat="43.0101260590849" lon="11.424278541888638"><ele>223.50000000000003</ele><time>2026-04-11T12:36:33.999Z</time></trkpt><trkpt lat="43.01010648530286" lon="11.424169166656613"><ele>223.0</ele><time>2026-04-11T12:36:34.999Z</time></trkpt><trkpt lat="43.01009076739694" lon="11.424062933010177"><ele>222.5</ele><time>2026-04-11T12:36:35.999Z</time></trkpt><trkpt lat="43.010062934702916" lon="11.423951557498373"><ele>222.0</ele><time>2026-04-11T12:36:36.999Z</time></trkpt><trkpt lat="43.010029118233504" lon="11.423839908841664"><ele>221.50000000000003</ele><time>2026-04-11T12:36:37.999Z</time></trkpt><trkpt lat="43.01000720058674" lon="11.423721822965236"><ele>221.0</ele><time>2026-04-11T12:36:38.999Z</time></trkpt><trkpt lat="43.00998733845265" lon="11.423595437674829"><ele>219.8</ele><time>2026-04-11T12:36:39.999Z</time></trkpt><trkpt lat="43.009959422797934" lon="11.423469417344807"><ele>218.60000000000002</ele><time>2026-04-11T12:36:40.999Z</time></trkpt><trkpt lat="43.00993351060123" lon="11.42333714744453"><ele>217.4</ele><time>2026-04-11T12:36:41.999Z</time></trkpt><trkpt lat="43.00990219223523" lon="11.423213708812888"><ele>216.2</ele><time>2026-04-11T12:36:42.999Z</time></trkpt><trkpt lat="43.00988052556566" lon="11.423089552942571"><ele>215.0</ele><time>2026-04-11T12:36:43.999Z</time></trkpt><trkpt lat="43.009834922721616" lon="11.422997455270044"><ele>215.00000000000003</ele><time>2026-04-11T12:36:44.999Z</time></trkpt><trkpt lat="43.00980072225279" lon="11.42290107212456"><ele>215.0</ele><time>2026-04-11T12:36:45.999Z</time></trkpt><trkpt lat="43.00976984318845" lon="11.422808282227809"><ele>215.0</ele><time>2026-04-11T12:36:46.999Z</time></trkpt><trkpt lat="43.009740558216016" lon="11.422714220493791"><ele>215.0</ele><time>2026-04-11T12:36:47.999Z</time></trkpt><trkpt lat="43.00970801889835" lon="11.422621871903324"><ele>215.00000000000003</ele><time>2026-04-11T12:36:48.999Z</time></trkpt><trkpt lat="43.00967129476736" lon="11.422531866063368"><ele>215.0</ele><time>2026-04-11T12:36:49.999Z</time></trkpt><trkpt lat="43.009645218225586" lon="11.422435110772588"><ele>215.0</ele><time>2026-04-11T12:36:50.999Z</time></trkpt><trkpt lat="43.00961367177487" lon="11.422341459274172"><ele>215.0</ele><time>2026-04-11T12:36:51.999Z</time></trkpt><trkpt lat="43.00958054267667" lon="11.422246722510431"><ele>215.0</ele><time>2026-04-11T12:36:52.999Z</time></trkpt><trkpt lat="43.00955155133459" lon="11.422152615856051"><ele>215.0</ele><time>2026-04-11T12:36:53.999Z</time></trkpt><trkpt lat="43.00951902366921" lon="11.422061278368442"><ele>215.0</ele><time>2026-04-11T12:36:54.999Z</time></trkpt><trkpt lat="43.00949252279238" lon="11.421968409636424"><ele>215.0</ele><time>2026-04-11T12:36:55.999Z</time></trkpt><trkpt lat="43.00946297419941" lon="11.42188782841047"><ele>215.0</ele><time>2026-04-11T12:36:56.999Z</time></trkpt><trkpt lat="43.00943800190675" lon="11.421804020986038"><ele>215.8</ele><time>2026-04-11T12:36:57.999Z</time></trkpt><trkpt lat="43.00939330894336" lon="11.421653304265998"><ele>216.6</ele><time>2026-04-11T12:36:59.998Z</time></trkpt><trkpt lat="43.009343089051114" lon="11.421523807313635"><ele>217.39999999999998</ele><time>2026-04-11T12:37:01.998Z</time></trkpt><trkpt lat="43.00928416191262" lon="11.421429523731245"><ele>218.2</ele><time>2026-04-11T12:37:03.998Z</time></trkpt><trkpt lat="43.00921848019953" lon="11.421355661635726"><ele>219.0</ele><time>2026-04-11T12:37:05.998Z</time></trkpt><trkpt lat="43.009160149994294" lon="11.421291454051081"><ele>220.0</ele><time>2026-04-11T12:37:07.998Z</time></trkpt><trkpt lat="43.00910718148555" lon="11.42124434710869"><ele>221.0</ele><time>2026-04-11T12:37:09.998Z</time></trkpt><trkpt lat="43.009034232764705" lon="11.421197848180062"><ele>222.0</ele><time>2026-04-11T12:37:13Z</time></trkpt><trkpt lat="43.008962085355186" lon="11.421147958906955"><ele>223.0</ele><time>2026-04-11T12:37:17Z</time></trkpt><trkpt lat="43.008904992067755" lon="11.421110937947983"><ele>224.0</ele><time>2026-04-11T12:37:20Z</time></trkpt><trkpt lat="43.00884616879617" lon="11.421071049671161"><ele>225.0</ele><time>2026-04-11T12:37:23Z</time></trkpt><trkpt lat="43.00876960788068" lon="11.421015388594176"><ele>226.0</ele><time>2026-04-11T12:37:27Z</time></trkpt><trkpt lat="43.00869898121293" lon="11.420967768966216"><ele>225.99999999999997</ele><time>2026-04-11T12:37:30Z</time></trkpt><trkpt lat="43.008623673678976" lon="11.420919729204574"><ele>226.0</ele><time>2026-04-11T12:37:33Z</time></trkpt><trkpt lat="43.00855119639648" lon="11.420868692384477"><ele>226.0</ele><time>2026-04-11T12:37:36Z</time></trkpt><trkpt lat="43.0084844878486" lon="11.420815819098316"><ele>226.0</ele><time>2026-04-11T12:37:39Z</time></trkpt><trkpt lat="43.0084183267244" lon="11.420753972261661"><ele>225.99999999999997</ele><time>2026-04-11T12:37:42Z</time></trkpt><trkpt lat="43.00834596661047" lon="11.420695893384089"><ele>226.0</ele><time>2026-04-11T12:37:44Z</time></trkpt><trkpt lat="43.00827750815859" lon="11.420649034603018"><ele>226.99999999999997</ele><time>2026-04-11T12:37:47Z</time></trkpt><trkpt lat="43.00821250940775" lon="11.420592997634666"><ele>228.0</ele><time>2026-04-11T12:37:50Z</time></trkpt><trkpt lat="43.0081441454426" lon="11.42053634072432"><ele>229.0</ele><time>2026-04-11T12:37:53Z</time></trkpt><trkpt lat="43.0080879621856" lon="11.420469318729507"><ele>230.0</ele><time>2026-04-11T12:37:56Z</time></trkpt><trkpt lat="43.008013104303494" lon="11.420415907996656"><ele>230.99999999999997</ele><time>2026-04-11T12:37:59Z</time></trkpt><trkpt lat="43.00794422375765" lon="11.420371259130933"><ele>232.0</ele><time>2026-04-11T12:38:02Z</time></trkpt><trkpt lat="43.00787432948394" lon="11.420318985084666"><ele>232.33333333333331</ele><time>2026-04-11T12:38:05Z</time></trkpt><trkpt lat="43.00781020628541" lon="11.420268708066981"><ele>232.66666666666666</ele><time>2026-04-11T12:38:08Z</time></trkpt><trkpt lat="43.007748238760094" lon="11.420205386506984"><ele>233.0</ele><time>2026-04-11T12:38:11Z</time></trkpt><trkpt lat="43.00768088717201" lon="11.420137785113786"><ele>233.33333333333331</ele><time>2026-04-11T12:38:13.999Z</time></trkpt><trkpt lat="43.007608318416054" lon="11.420071080450159"><ele>233.66666666666666</ele><time>2026-04-11T12:38:17.999Z</time></trkpt><trkpt lat="43.007554727327715" lon="11.420020944512054"><ele>234.0</ele><time>2026-04-11T12:38:19.999Z</time></trkpt><trkpt lat="43.00749870777696" lon="11.419972092749235"><ele>233.83333333333334</ele><time>2026-04-11T12:38:22.999Z</time></trkpt><trkpt lat="43.00743418334056" lon="11.419916107534968"><ele>233.66666666666669</ele><time>2026-04-11T12:38:25.999Z</time></trkpt><trkpt lat="43.00737827896011" lon="11.419863972430065"><ele>233.5</ele><time>2026-04-11T12:38:27.999Z</time></trkpt><trkpt lat="43.00731170077542" lon="11.41980963797659"><ele>233.33333333333334</ele><time>2026-04-11T12:38:30.999Z</time></trkpt><trkpt lat="43.00724171938711" lon="11.419747247975987"><ele>233.16666666666669</ele><time>2026-04-11T12:38:32.999Z</time></trkpt><trkpt lat="43.007171155182895" lon="11.419697632030609"><ele>233.0</ele><time>2026-04-11T12:38:34.999Z</time></trkpt><trkpt lat="43.00710324323382" lon="11.419648984100698"><ele>232.60000000000002</ele><time>2026-04-11T12:38:36.999Z</time></trkpt><trkpt lat="43.00701203171171" lon="11.419564486918038"><ele>232.20000000000002</ele><time>2026-04-11T12:38:38.999Z</time></trkpt><trkpt lat="43.006944494136704" lon="11.419487100006826"><ele>231.8</ele><time>2026-04-11T12:38:40.999Z</time></trkpt><trkpt lat="43.00686590326796" lon="11.419418225422652"><ele>231.4</ele><time>2026-04-11T12:38:42.999Z</time></trkpt><trkpt lat="43.00678647701206" lon="11.419321073493757"><ele>231.0</ele><time>2026-04-11T12:38:44.999Z</time></trkpt><trkpt lat="43.00669645424206" lon="11.419217504559493"><ele>231.4</ele><time>2026-04-11T12:38:46.999Z</time></trkpt><trkpt lat="43.006615209273" lon="11.419091947710328"><ele>231.8</ele><time>2026-04-11T12:38:48.999Z</time></trkpt><trkpt lat="43.00657077322631" lon="11.419030342641816"><ele>232.20000000000002</ele><time>2026-04-11T12:38:49.999Z</time></trkpt><trkpt lat="43.00649037297987" lon="11.418899985214901"><ele>232.60000000000002</ele><time>2026-04-11T12:38:51.999Z</time></trkpt><trkpt lat="43.00641361556398" lon="11.418765027349227"><ele>233.0</ele><time>2026-04-11T12:38:53.999Z</time></trkpt><trkpt lat="43.006344846340745" lon="11.41862673182455"><ele>232.2</ele><time>2026-04-11T12:38:55.999Z</time></trkpt><trkpt lat="43.0062638920373" lon="11.41850233650038"><ele>231.4</ele><time>2026-04-11T12:38:57.999Z</time></trkpt><trkpt lat="43.00619077265577" lon="11.41834798475254"><ele>230.59999999999997</ele><time>2026-04-11T12:38:59.999Z</time></trkpt><trkpt lat="43.006153486671934" lon="11.418264307728967"><ele>229.79999999999998</ele><time>2026-04-11T12:39:00.999Z</time></trkpt><trkpt lat="43.006110253377756" lon="11.418188330738268"><ele>229.0</ele><time>2026-04-11T12:39:01.999Z</time></trkpt><trkpt lat="43.006064231931994" lon="11.41810809644258"><ele>229.0</ele><time>2026-04-11T12:39:02.999Z</time></trkpt><trkpt lat="43.00601899261696" lon="11.418028146656866"><ele>229.0</ele><time>2026-04-11T12:39:03.999Z</time></trkpt><trkpt lat="43.00597898349357" lon="11.41794239435978"><ele>229.0</ele><time>2026-04-11T12:39:04.999Z</time></trkpt><trkpt lat="43.00593829641729" lon="11.417858845316761"><ele>229.0</ele><time>2026-04-11T12:39:05.999Z</time></trkpt><trkpt lat="43.0058963728706" lon="11.417778881300308"><ele>229.0</ele><time>2026-04-11T12:39:06.998Z</time></trkpt><trkpt lat="43.00585472263188" lon="11.41769951505863"><ele>229.0</ele><time>2026-04-11T12:39:07.998Z</time></trkpt><trkpt lat="43.00581610019842" lon="11.417618870494588"><ele>229.0</ele><time>2026-04-11T12:39:08.998Z</time></trkpt><trkpt lat="43.00577844968984" lon="11.417538730092843"><ele>228.49999999999997</ele><time>2026-04-11T12:39:09.998Z</time></trkpt><trkpt lat="43.00573839432856" lon="11.417459371411262"><ele>228.0</ele><time>2026-04-11T12:39:10.998Z</time></trkpt><trkpt lat="43.00569462435541" lon="11.417372984246946"><ele>227.5</ele><time>2026-04-11T12:39:11.998Z</time></trkpt><trkpt lat="43.00565014110636" lon="11.417277300523212"><ele>227.0</ele><time>2026-04-11T12:39:12.998Z</time></trkpt><trkpt lat="43.005604634556164" lon="11.417173247249979"><ele>226.49999999999997</ele><time>2026-04-11T12:39:13.998Z</time></trkpt><trkpt lat="43.005558416842625" lon="11.417072337969282"><ele>226.0</ele><time>2026-04-11T12:39:14.998Z</time></trkpt><trkpt lat="43.00550825197782" lon="11.416974712952847"><ele>225.49999999999997</ele><time>2026-04-11T12:39:15.998Z</time></trkpt><trkpt lat="43.00545959880915" lon="11.416877593630268"><ele>225.0</ele><time>2026-04-11T12:39:17Z</time></trkpt><trkpt lat="43.005413026772366" lon="11.416791118826072"><ele>224.5</ele><time>2026-04-11T12:39:18Z</time></trkpt><trkpt lat="43.00537732994308" lon="11.416690575192739"><ele>224.0</ele><time>2026-04-11T12:39:19Z</time></trkpt><trkpt lat="43.00533517181185" lon="11.416598848022645"><ele>223.49999999999997</ele><time>2026-04-11T12:39:20Z</time></trkpt><trkpt lat="43.00529363685467" lon="11.416507066653047"><ele>223.0</ele><time>2026-04-11T12:39:21Z</time></trkpt><trkpt lat="43.005253188202005" lon="11.416420875986908"><ele>222.99999999999997</ele><time>2026-04-11T12:39:22Z</time></trkpt><trkpt lat="43.00521590158307" lon="11.416339127646355"><ele>223.0</ele><time>2026-04-11T12:39:23Z</time></trkpt><trkpt lat="43.005185242026414" lon="11.416257955551115"><ele>223.0</ele><time>2026-04-11T12:39:24Z</time></trkpt><trkpt lat="43.005123029824155" lon="11.416132692382664"><ele>223.0</ele><time>2026-04-11T12:39:26Z</time></trkpt><trkpt lat="43.0050951996297" lon="11.416009481567336"><ele>222.99999999999997</ele><time>2026-04-11T12:39:28Z</time></trkpt><trkpt lat="43.00505298722886" lon="11.415940748499292"><ele>223.0</ele><time>2026-04-11T12:39:30Z</time></trkpt><trkpt lat="43.00501024063676" lon="11.415849016826876"><ele>223.14285714285714</ele><time>2026-04-11T12:39:33Z</time></trkpt><trkpt lat="43.00498300690405" lon="11.415758731870287"><ele>223.28571428571428</ele><time>2026-04-11T12:39:36Z</time></trkpt><trkpt lat="43.00493321712033" lon="11.415665946365555"><ele>223.42857142857144</ele><time>2026-04-11T12:39:40Z</time></trkpt><trkpt lat="43.004900150172475" lon="11.415591710426245"><ele>223.57142857142856</ele><time>2026-04-11T12:39:43Z</time></trkpt><trkpt lat="43.004860019715714" lon="11.415505821522595"><ele>223.71428571428572</ele><time>2026-04-11T12:39:47Z</time></trkpt><trkpt lat="43.00482086858266" lon="11.415427026688409"><ele>223.85714285714286</ele><time>2026-04-11T12:39:50Z</time></trkpt><trkpt lat="43.00477568531713" lon="11.41534121775314"><ele>224.0</ele><time>2026-04-11T12:39:52Z</time></trkpt><trkpt lat="43.00472626007835" lon="11.415230654847683"><ele>224.85714285714286</ele><time>2026-04-11T12:39:55Z</time></trkpt><trkpt lat="43.00468693527675" lon="11.415142171030842"><ele>225.71428571428572</ele><time>2026-04-11T12:39:57Z</time></trkpt><trkpt lat="43.004644248448834" lon="11.415065587599367"><ele>226.57142857142856</ele><time>2026-04-11T12:39:59Z</time></trkpt><trkpt lat="43.004606034633866" lon="11.414990429150091"><ele>227.42857142857142</ele><time>2026-04-11T12:40:01Z</time></trkpt><trkpt lat="43.004566144718936" lon="11.414920138072867"><ele>228.28571428571428</ele><time>2026-04-11T12:40:03Z</time></trkpt><trkpt lat="43.00452532067861" lon="11.414840217802286"><ele>229.1428571428571</ele><time>2026-04-11T12:40:05Z</time></trkpt><trkpt lat="43.004482166380704" lon="11.414760885792742"><ele>229.99999999999997</ele><time>2026-04-11T12:40:07Z</time></trkpt><trkpt lat="43.00443765312901" lon="11.414676068028092"><ele>230.4285714285714</ele><time>2026-04-11T12:40:09Z</time></trkpt><trkpt lat="43.00439137667324" lon="11.414596421977661"><ele>230.85714285714283</ele><time>2026-04-11T12:40:11Z</time></trkpt><trkpt lat="43.00434619624803" lon="11.414518261035147"><ele>231.28571428571428</ele><time>2026-04-11T12:40:13Z</time></trkpt><trkpt lat="43.004305592659335" lon="11.414439182061466"><ele>231.7142857142857</ele><time>2026-04-11T12:40:15Z</time></trkpt><trkpt lat="43.00426336193635" lon="11.414370047221047"><ele>232.1428571428571</ele><time>2026-04-11T12:40:17Z</time></trkpt><trkpt lat="43.0042148588924" lon="11.4142934905302"><ele>232.57142857142858</ele><time>2026-04-11T12:40:19.999Z</time></trkpt><trkpt lat="43.00415944190438" lon="11.41420762347248"><ele>233.0</ele><time>2026-04-11T12:40:22.999Z</time></trkpt><trkpt lat="43.0041103642308" lon="11.414119020984703"><ele>233.00000000000003</ele><time>2026-04-11T12:40:25.999Z</time></trkpt><trkpt lat="43.004067450230494" lon="11.414039898776897"><ele>233.0</ele><time>2026-04-11T12:40:27.999Z</time></trkpt><trkpt lat="43.00401302574962" lon="11.413943291631107"><ele>233.0</ele><time>2026-04-11T12:40:30.999Z</time></trkpt><trkpt lat="43.0039700957963" lon="11.413872916331327"><ele>233.0</ele><time>2026-04-11T12:40:32.999Z</time></trkpt><trkpt lat="43.00392382512413" lon="11.413802409417828"><ele>233.00000000000003</ele><time>2026-04-11T12:40:34.999Z</time></trkpt><trkpt lat="43.00386590266152" lon="11.413704279490844"><ele>233.0</ele><time>2026-04-11T12:40:37.999Z</time></trkpt><trkpt lat="43.00381751521595" lon="11.413621167683607"><ele>232.83333333333334</ele><time>2026-04-11T12:40:39.999Z</time></trkpt><trkpt lat="43.00376395525776" lon="11.413526638000047"><ele>232.66666666666669</ele><time>2026-04-11T12:40:42.999Z</time></trkpt><trkpt lat="43.00370746720986" lon="11.41343053063276"><ele>232.5</ele><time>2026-04-11T12:40:45.999Z</time></trkpt><trkpt lat="43.00366862583456" lon="11.41335650381609"><ele>232.33333333333331</ele><time>2026-04-11T12:40:47.999Z</time></trkpt><trkpt lat="43.00361619342891" lon="11.41326079430534"><ele>232.16666666666666</ele><time>2026-04-11T12:40:50.999Z</time></trkpt><trkpt lat="43.0035772721309" lon="11.413187151031511"><ele>232.0</ele><time>2026-04-11T12:40:52.999Z</time></trkpt><trkpt lat="43.00353554192171" lon="11.413113267450164"><ele>232.0</ele><time>2026-04-11T12:40:54.999Z</time></trkpt><trkpt lat="43.00348814072877" lon="11.413028089311577"><ele>232.0</ele><time>2026-04-11T12:40:56.999Z</time></trkpt><trkpt lat="43.00344224755032" lon="11.412942091173111"><ele>232.0</ele><time>2026-04-11T12:40:58.999Z</time></trkpt><trkpt lat="43.00337871640727" lon="11.41280593815485"><ele>232.0</ele><time>2026-04-11T12:40:59.999Z</time></trkpt><trkpt lat="43.00330894172215" lon="11.41268460883017"><ele>232.0</ele><time>2026-04-11T12:41:01.999Z</time></trkpt><trkpt lat="43.00324110581205" lon="11.412563957944831"><ele>232.0</ele><time>2026-04-11T12:41:03.999Z</time></trkpt><trkpt lat="43.00316964602787" lon="11.412444551456902"><ele>232.0</ele><time>2026-04-11T12:41:05.999Z</time></trkpt><trkpt lat="43.00310309622094" lon="11.412326554847148"><ele>232.0</ele><time>2026-04-11T12:41:07.999Z</time></trkpt><trkpt lat="43.00304501699894" lon="11.412219043252026"><ele>232.0</ele><time>2026-04-11T12:41:09.999Z</time></trkpt><trkpt lat="43.002996628668555" lon="11.412126874120519"><ele>232.0</ele><time>2026-04-11T12:41:11.999Z</time></trkpt><trkpt lat="43.00294973222649" lon="11.412054867891836"><ele>232.99999999999997</ele><time>2026-04-11T12:41:13.998Z</time></trkpt><trkpt lat="43.00289440273722" lon="11.41196053542402"><ele>234.0</ele><time>2026-04-11T12:41:16.998Z</time></trkpt><trkpt lat="43.00282875050664" lon="11.411872498438152"><ele>235.0</ele><time>2026-04-11T12:41:19.998Z</time></trkpt><trkpt lat="43.00280009132388" lon="11.411794371437823"><ele>236.0</ele><time>2026-04-11T12:41:21.998Z</time></trkpt><trkpt lat="43.00275701690783" lon="11.411724339544854"><ele>236.99999999999997</ele><time>2026-04-11T12:41:24Z</time></trkpt><trkpt lat="43.00271686509276" lon="11.411646367837482"><ele>238.0</ele><time>2026-04-11T12:41:26Z</time></trkpt><trkpt lat="43.00268190751692" lon="11.411563708614473"><ele>238.0</ele><time>2026-04-11T12:41:28Z</time></trkpt><trkpt lat="43.0026388201836" lon="11.411492851021809"><ele>238.0</ele><time>2026-04-11T12:41:30Z</time></trkpt><trkpt lat="43.00259675225555" lon="11.411416092914536"><ele>238.0</ele><time>2026-04-11T12:41:32Z</time></trkpt><trkpt lat="43.002548737693544" lon="11.411338669378324"><ele>238.0</ele><time>2026-04-11T12:41:35Z</time></trkpt><trkpt lat="43.00250847115391" lon="11.411270413505067"><ele>238.0</ele><time>2026-04-11T12:41:37Z</time></trkpt><trkpt lat="43.002461830261204" lon="11.411206831834544"><ele>238.0</ele><time>2026-04-11T12:41:39Z</time></trkpt><trkpt lat="43.002406060386626" lon="11.41111035551281"><ele>238.0</ele><time>2026-04-11T12:41:42Z</time></trkpt><trkpt lat="43.002353395296375" lon="11.41104087950191"><ele>238.2</ele><time>2026-04-11T12:41:44Z</time></trkpt><trkpt lat="43.002259745670244" lon="11.410874137195098"><ele>238.4</ele><time>2026-04-11T12:41:46Z</time></trkpt><trkpt lat="43.00220361004622" lon="11.410806824393072"><ele>238.59999999999997</ele><time>2026-04-11T12:41:48Z</time></trkpt><trkpt lat="43.002142640392066" lon="11.410745584888495"><ele>238.79999999999998</ele><time>2026-04-11T12:41:50Z</time></trkpt><trkpt lat="43.002085124908675" lon="11.410689869560233"><ele>239.0</ele><time>2026-04-11T12:41:52Z</time></trkpt><trkpt lat="43.00201272581195" lon="11.41066123111273"><ele>239.00000000000003</ele><time>2026-04-11T12:41:54Z</time></trkpt><trkpt lat="43.00193144186638" lon="11.4106433782378"><ele>239.0</ele><time>2026-04-11T12:41:56Z</time></trkpt><trkpt lat="43.0018527566786" lon="11.4106448442299"><ele>239.0</ele><time>2026-04-11T12:41:58Z</time></trkpt><trkpt lat="43.0017798717826" lon="11.410655160790418"><ele>239.0</ele><time>2026-04-11T12:42:00Z</time></trkpt><trkpt lat="43.001692404662826" lon="11.41066575390046"><ele>239.00000000000003</ele><time>2026-04-11T12:42:02Z</time></trkpt><trkpt lat="43.00161217880335" lon="11.410675361381424"><ele>239.0</ele><time>2026-04-11T12:42:04Z</time></trkpt><trkpt lat="43.0015283272059" lon="11.41070078766129"><ele>238.83333333333334</ele><time>2026-04-11T12:42:06Z</time></trkpt><trkpt lat="43.00144576805933" lon="11.410724702764337"><ele>238.66666666666669</ele><time>2026-04-11T12:42:08Z</time></trkpt><trkpt lat="43.00136369387173" lon="11.41074443396259"><ele>238.5</ele><time>2026-04-11T12:42:10Z</time></trkpt><trkpt lat="43.0012812202741" lon="11.410757289135999"><ele>238.33333333333331</ele><time>2026-04-11T12:42:12Z</time></trkpt><trkpt lat="43.00119580135126" lon="11.410781264978736"><ele>238.16666666666666</ele><time>2026-04-11T12:42:14Z</time></trkpt><trkpt lat="43.00111909005698" lon="11.410795582406909"><ele>238.0</ele><time>2026-04-11T12:42:16Z</time></trkpt><trkpt lat="43.00103825402854" lon="11.410803445902138"><ele>237.99999999999997</ele><time>2026-04-11T12:42:18Z</time></trkpt><trkpt lat="43.000960498378475" lon="11.410820292597537"><ele>238.0</ele><time>2026-04-11T12:42:20Z</time></trkpt><trkpt lat="43.00087916318235" lon="11.410833787858593"><ele>238.0</ele><time>2026-04-11T12:42:22Z</time></trkpt><trkpt lat="43.00080258871884" lon="11.410856481196323"><ele>238.0</ele><time>2026-04-11T12:42:24Z</time></trkpt><trkpt lat="43.00072618292862" lon="11.410871987928545"><ele>237.99999999999997</ele><time>2026-04-11T12:42:25.999Z</time></trkpt><trkpt lat="43.000651218432374" lon="11.410886035445087"><ele>238.0</ele><time>2026-04-11T12:42:27.999Z</time></trkpt><trkpt lat="43.000578375887805" lon="11.410903188165966"><ele>238.57142857142856</ele><time>2026-04-11T12:42:29.999Z</time></trkpt><trkpt lat="43.00050282171683" lon="11.410920468810192"><ele>239.14285714285714</ele><time>2026-04-11T12:42:31.999Z</time></trkpt><trkpt lat="43.000423580365315" lon="11.410931437781848"><ele>239.71428571428572</ele><time>2026-04-11T12:42:33.999Z</time></trkpt><trkpt lat="43.00034978418328" lon="11.41094359167166"><ele>240.28571428571428</ele><time>2026-04-11T12:42:35.999Z</time></trkpt><trkpt lat="43.000278734630086" lon="11.410963896532579"><ele>240.85714285714283</ele><time>2026-04-11T12:42:37.999Z</time></trkpt><trkpt lat="43.00020716759759" lon="11.410981087776623"><ele>241.42857142857142</ele><time>2026-04-11T12:42:39.999Z</time></trkpt><trkpt lat="43.000134778378474" lon="11.410996995536989"><ele>242.0</ele><time>2026-04-11T12:42:41.999Z</time></trkpt><trkpt lat="43.000065823092704" lon="11.411006931624954"><ele>242.0</ele><time>2026-04-11T12:42:43.999Z</time></trkpt><trkpt lat="42.999993260322505" lon="11.411020631299268"><ele>241.99999999999997</ele><time>2026-04-11T12:42:45.999Z</time></trkpt><trkpt lat="42.999921129250524" lon="11.411039308119811"><ele>242.0</ele><time>2026-04-11T12:42:47.999Z</time></trkpt><trkpt lat="42.99985275611447" lon="11.411058125172746"><ele>242.0</ele><time>2026-04-11T12:42:49.999Z</time></trkpt><trkpt lat="42.999786815503" lon="11.411072893765125"><ele>241.99999999999997</ele><time>2026-04-11T12:42:51.999Z</time></trkpt><trkpt lat="42.99971734912021" lon="11.411088061748664"><ele>242.0</ele><time>2026-04-11T12:42:53.999Z</time></trkpt><trkpt lat="42.99965038752434" lon="11.411098629057127"><ele>242.0</ele><time>2026-04-11T12:42:55.999Z</time></trkpt><trkpt lat="42.99958622078819" lon="11.411116255947293"><ele>242.00000000000003</ele><time>2026-04-11T12:42:57.999Z</time></trkpt><trkpt lat="42.99952042024866" lon="11.41112415911301"><ele>242.0</ele><time>2026-04-11T12:42:59.999Z</time></trkpt><trkpt lat="42.999455439910946" lon="11.411134444186114"><ele>242.0</ele><time>2026-04-11T12:43:01.999Z</time></trkpt><trkpt lat="42.999389713751846" lon="11.411146408258672"><ele>242.0</ele><time>2026-04-11T12:43:03.999Z</time></trkpt><trkpt lat="42.99930893646263" lon="11.41116452446544"><ele>242.00000000000003</ele><time>2026-04-11T12:43:06.999Z</time></trkpt><trkpt lat="42.99922129357437" lon="11.411183934433007"><ele>242.0</ele><time>2026-04-11T12:43:09.999Z</time></trkpt><trkpt lat="42.999137484803036" lon="11.411203185569438"><ele>242.33333333333334</ele><time>2026-04-11T12:43:12.999Z</time></trkpt><trkpt lat="42.99905991953712" lon="11.411216552327515"><ele>242.66666666666669</ele><time>2026-04-11T12:43:15.999Z</time></trkpt><trkpt lat="42.99898201883222" lon="11.411226562767643"><ele>243.0</ele><time>2026-04-11T12:43:18.999Z</time></trkpt><trkpt lat="42.9989163092744" lon="11.411247569075304"><ele>243.33333333333331</ele><time>2026-04-11T12:43:21.998Z</time></trkpt><trkpt lat="42.99883756868556" lon="11.411261925184014"><ele>243.66666666666666</ele><time>2026-04-11T12:43:24.998Z</time></trkpt><trkpt lat="42.998756325362635" lon="11.411278758472656"><ele>244.0</ele><time>2026-04-11T12:43:26.998Z</time></trkpt><trkpt lat="42.99867592428071" lon="11.411294362514713"><ele>243.99999999999997</ele><time>2026-04-11T12:43:30Z</time></trkpt><trkpt lat="42.99858891369922" lon="11.411316242138373"><ele>244.0</ele><time>2026-04-11T12:43:33Z</time></trkpt><trkpt lat="42.99849822149302" lon="11.411332287254412"><ele>244.0</ele><time>2026-04-11T12:43:36Z</time></trkpt><trkpt lat="42.998404659467624" lon="11.411351762392163"><ele>244.0</ele><time>2026-04-11T12:43:39Z</time></trkpt><trkpt lat="42.99831054068978" lon="11.411364473974478"><ele>243.99999999999997</ele><time>2026-04-11T12:43:42Z</time></trkpt><trkpt lat="42.998246472095595" lon="11.411369787347432"><ele>244.0</ele><time>2026-04-11T12:43:44Z</time></trkpt><trkpt lat="42.998181042480105" lon="11.411382483856162"><ele>245.1428571428571</ele><time>2026-04-11T12:43:46Z</time></trkpt><trkpt lat="42.99811547611444" lon="11.411393911902497"><ele>246.28571428571428</ele><time>2026-04-11T12:43:48Z</time></trkpt><trkpt lat="42.99804422418729" lon="11.411417204135962"><ele>247.42857142857142</ele><time>2026-04-11T12:43:50Z</time></trkpt><trkpt lat="42.9979547842086" lon="11.411429453445864"><ele>248.57142857142856</ele><time>2026-04-11T12:43:53Z</time></trkpt><trkpt lat="42.997891394091646" lon="11.411441304395277"><ele>249.71428571428572</ele><time>2026-04-11T12:43:55Z</time></trkpt><trkpt lat="42.99782285200301" lon="11.411460596969542"><ele>250.85714285714286</ele><time>2026-04-11T12:43:57Z</time></trkpt><trkpt lat="42.997748910639395" lon="11.411474177015858"><ele>252.0</ele><time>2026-04-11T12:43:59Z</time></trkpt><trkpt lat="42.99767241679195" lon="11.411488839330527"><ele>252.0</ele><time>2026-04-11T12:44:01Z</time></trkpt><trkpt lat="42.99759677882798" lon="11.411507258009122"><ele>252.0</ele><time>2026-04-11T12:44:03Z</time></trkpt><trkpt lat="42.99751729685398" lon="11.411521637081673"><ele>252.0</ele><time>2026-04-11T12:44:05Z</time></trkpt><trkpt lat="42.997439773297366" lon="11.4115380382213"><ele>252.0</ele><time>2026-04-11T12:44:07Z</time></trkpt><trkpt lat="42.997359394038654" lon="11.411552064461494"><ele>252.0</ele><time>2026-04-11T12:44:09Z</time></trkpt><trkpt lat="42.997282890030746" lon="11.41156437134679"><ele>252.0</ele><time>2026-04-11T12:44:11Z</time></trkpt><trkpt lat="42.99720473411507" lon="11.411574404212113"><ele>252.0</ele><time>2026-04-11T12:44:13Z</time></trkpt><trkpt lat="42.99712926996281" lon="11.411584717915007"><ele>252.0</ele><time>2026-04-11T12:44:15Z</time></trkpt><trkpt lat="42.997052943886914" lon="11.411604881281857"><ele>252.0</ele><time>2026-04-11T12:44:17Z</time></trkpt><trkpt lat="42.99698943662372" lon="11.411606165141698"><ele>252.0</ele><time>2026-04-11T12:44:19Z</time></trkpt><trkpt lat="42.99692634415548" lon="11.411611655848061"><ele>252.0</ele><time>2026-04-11T12:44:21Z</time></trkpt><trkpt lat="42.9968624108415" lon="11.411622875402543"><ele>252.0</ele><time>2026-04-11T12:44:23Z</time></trkpt><trkpt lat="42.9967701007962" lon="11.411609688499805"><ele>252.0</ele><time>2026-04-11T12:44:26Z</time></trkpt><trkpt lat="42.996678895491776" lon="11.411609685034195"><ele>252.5</ele><time>2026-04-11T12:44:29Z</time></trkpt><trkpt lat="42.99659873749513" lon="11.411649542611318"><ele>253.0</ele><time>2026-04-11T12:44:31.999Z</time></trkpt><trkpt lat="42.99652153157128" lon="11.411677422948083"><ele>253.5</ele><time>2026-04-11T12:44:34.999Z</time></trkpt><trkpt lat="42.99642165356814" lon="11.411718473824818"><ele>254.0</ele><time>2026-04-11T12:44:37.999Z</time></trkpt><trkpt lat="42.99635897732554" lon="11.411740801328609"><ele>254.5</ele><time>2026-04-11T12:44:39.999Z</time></trkpt><trkpt lat="42.99627935229009" lon="11.411772247593227"><ele>255.0</ele><time>2026-04-11T12:44:41.999Z</time></trkpt><trkpt lat="42.99620704709831" lon="11.411812106599072"><ele>255.0</ele><time>2026-04-11T12:44:43.999Z</time></trkpt><trkpt lat="42.996086611649304" lon="11.411879346999678"><ele>255.0</ele><time>2026-04-11T12:44:45.999Z</time></trkpt><trkpt lat="42.99600818790463" lon="11.411902438384423"><ele>255.0</ele><time>2026-04-11T12:44:47.999Z</time></trkpt><trkpt lat="42.99592953091865" lon="11.411927931772379"><ele>255.0</ele><time>2026-04-11T12:44:49.999Z</time></trkpt><trkpt lat="42.995839686642285" lon="11.411953794066687"><ele>255.0</ele><time>2026-04-11T12:44:51.999Z</time></trkpt><trkpt lat="42.99575276620872" lon="11.411992323440131"><ele>254.6</ele><time>2026-04-11T12:44:53.999Z</time></trkpt><trkpt lat="42.995663516742" lon="11.41202169648922"><ele>254.2</ele><time>2026-04-11T12:44:55.999Z</time></trkpt><trkpt lat="42.99557080818912" lon="11.412053381346974"><ele>253.8</ele><time>2026-04-11T12:44:57.999Z</time></trkpt><trkpt lat="42.995474045968784" lon="11.412075476651603"><ele>253.4</ele><time>2026-04-11T12:44:59.999Z</time></trkpt><trkpt lat="42.995372892669955" lon="11.412103158467925"><ele>253.0</ele><time>2026-04-11T12:45:01.999Z</time></trkpt><trkpt lat="42.995266952312356" lon="11.412123904364705"><ele>253.0</ele><time>2026-04-11T12:45:03.999Z</time></trkpt><trkpt lat="42.99520145053846" lon="11.412111423429163"><ele>253.0</ele><time>2026-04-11T12:45:04.999Z</time></trkpt><trkpt lat="42.99508934050559" lon="11.412114809731408"><ele>253.0</ele><time>2026-04-11T12:45:06.999Z</time></trkpt><trkpt lat="42.99497578486582" lon="11.412107131796603"><ele>253.0</ele><time>2026-04-11T12:45:08.999Z</time></trkpt><trkpt lat="42.99491111677238" lon="11.41209755694451"><ele>253.0</ele><time>2026-04-11T12:45:09.999Z</time></trkpt><trkpt lat="42.994791662832824" lon="11.412080882744352"><ele>252.71428571428575</ele><time>2026-04-11T12:45:11.999Z</time></trkpt><trkpt lat="42.99472275857027" lon="11.412006712124235"><ele>252.42857142857144</ele><time>2026-04-11T12:45:12.999Z</time></trkpt><trkpt lat="42.99465853408616" lon="11.4119679530129"><ele>252.14285714285714</ele><time>2026-04-11T12:45:13.999Z</time></trkpt><trkpt lat="42.994594798635944" lon="11.411927549835722"><ele>251.85714285714286</ele><time>2026-04-11T12:45:14.999Z</time></trkpt><trkpt lat="42.994532296586414" lon="11.411879730072146"><ele>251.57142857142856</ele><time>2026-04-11T12:45:15.999Z</time></trkpt><trkpt lat="42.994471877200546" lon="11.411833722223097"><ele>251.28571428571425</ele><time>2026-04-11T12:45:16.999Z</time></trkpt><trkpt lat="42.99441520810505" lon="11.41179104824844"><ele>250.99999999999997</ele><time>2026-04-11T12:45:17.999Z</time></trkpt><trkpt lat="42.994358092622775" lon="11.411743804582118"><ele>250.99999999999997</ele><time>2026-04-11T12:45:18.999Z</time></trkpt><trkpt lat="42.994298136055896" lon="11.411695625586747"><ele>251.0</ele><time>2026-04-11T12:45:19.999Z</time></trkpt><trkpt lat="42.99423855762699" lon="11.411643359470345"><ele>250.99999999999997</ele><time>2026-04-11T12:45:20.999Z</time></trkpt><trkpt lat="42.994177283840706" lon="11.4115955400027"><ele>250.99999999999997</ele><time>2026-04-11T12:45:21.999Z</time></trkpt><trkpt lat="42.994115654310875" lon="11.411542502827912"><ele>251.0</ele><time>2026-04-11T12:45:22.999Z</time></trkpt><trkpt lat="42.99405104969388" lon="11.411492829528921"><ele>250.99999999999997</ele><time>2026-04-11T12:45:23.999Z</time></trkpt><trkpt lat="42.99398499209791" lon="11.411433977523819"><ele>250.99999999999997</ele><time>2026-04-11T12:45:24.998Z</time></trkpt><trkpt lat="42.99391742476873" lon="11.411379220696984"><ele>250.16666666666669</ele><time>2026-04-11T12:45:25.998Z</time></trkpt><trkpt lat="42.99385143749542" lon="11.41131590140882"><ele>249.33333333333334</ele><time>2026-04-11T12:45:26.998Z</time></trkpt><trkpt lat="42.99378459848758" lon="11.411254847421052"><ele>248.5</ele><time>2026-04-11T12:45:27.998Z</time></trkpt><trkpt lat="42.99371942698048" lon="11.411189848734912"><ele>247.66666666666669</ele><time>2026-04-11T12:45:28.998Z</time></trkpt><trkpt lat="42.993655670870254" lon="11.411123012246524"><ele>246.83333333333334</ele><time>2026-04-11T12:45:29.998Z</time></trkpt><trkpt lat="42.99359329986053" lon="11.411057802570422"><ele>246.0</ele><time>2026-04-11T12:45:30.998Z</time></trkpt><trkpt lat="42.99353064780385" lon="11.410988300966887"><ele>246.0</ele><time>2026-04-11T12:45:31.998Z</time></trkpt><trkpt lat="42.993468004134094" lon="11.410921390957624"><ele>246.0</ele><time>2026-04-11T12:45:32.998Z</time></trkpt><trkpt lat="42.99340876290706" lon="11.410856857528286"><ele>246.0</ele><time>2026-04-11T12:45:33.998Z</time></trkpt><trkpt lat="42.993351190467926" lon="11.410791663725563"><ele>246.0</ele><time>2026-04-11T12:45:35Z</time></trkpt><trkpt lat="42.99329147074779" lon="11.410729755037117"><ele>246.0</ele><time>2026-04-11T12:45:36Z</time></trkpt><trkpt lat="42.99323226985193" lon="11.410668411380525"><ele>246.0</ele><time>2026-04-11T12:45:37Z</time></trkpt><trkpt lat="42.993169762011725" lon="11.410614634468997"><ele>246.00000000000003</ele><time>2026-04-11T12:45:38Z</time></trkpt><trkpt lat="42.9931087315954" lon="11.410559948169935"><ele>246.0</ele><time>2026-04-11T12:45:39Z</time></trkpt><trkpt lat="42.99304591356654" lon="11.410523146203637"><ele>246.00000000000003</ele><time>2026-04-11T12:45:40Z</time></trkpt><trkpt lat="42.992981938607606" lon="11.410489446947125"><ele>246.00000000000003</ele><time>2026-04-11T12:45:41Z</time></trkpt><trkpt lat="42.992918874300685" lon="11.41046179879353"><ele>246.0</ele><time>2026-04-11T12:45:42Z</time></trkpt><trkpt lat="42.99285544997632" lon="11.410438784446928"><ele>246.00000000000003</ele><time>2026-04-11T12:45:43Z</time></trkpt><trkpt lat="42.99279203300607" lon="11.410421566930495"><ele>246.00000000000003</ele><time>2026-04-11T12:45:44Z</time></trkpt><trkpt lat="42.992667258413015" lon="11.410394701812924"><ele>245.5</ele><time>2026-04-11T12:45:46Z</time></trkpt><trkpt lat="42.99254768375347" lon="11.41037819794945"><ele>245.0</ele><time>2026-04-11T12:45:48Z</time></trkpt><trkpt lat="42.99242737339526" lon="11.410360382131728"><ele>244.5</ele><time>2026-04-11T12:45:50Z</time></trkpt><trkpt lat="42.99231208009698" lon="11.410346990019159"><ele>244.0</ele><time>2026-04-11T12:45:52Z</time></trkpt><trkpt lat="42.99220044784925" lon="11.410334614465617"><ele>244.0</ele><time>2026-04-11T12:45:54Z</time></trkpt><trkpt lat="42.99209150199022" lon="11.410324541837712"><ele>243.99999999999997</ele><time>2026-04-11T12:45:56Z</time></trkpt><trkpt lat="42.99198702024907" lon="11.41032282233271"><ele>243.99999999999997</ele><time>2026-04-11T12:45:58Z</time></trkpt><trkpt lat="42.99188410147406" lon="11.410327492021972"><ele>244.0</ele><time>2026-04-11T12:46:00Z</time></trkpt><trkpt lat="42.99178336911693" lon="11.410336779526785"><ele>244.0</ele><time>2026-04-11T12:46:02Z</time></trkpt><trkpt lat="42.99168348948181" lon="11.410344938334266"><ele>244.16666666666666</ele><time>2026-04-11T12:46:04Z</time></trkpt><trkpt lat="42.99158607500042" lon="11.410350322834256"><ele>244.33333333333331</ele><time>2026-04-11T12:46:06Z</time></trkpt><trkpt lat="42.99148409783597" lon="11.410361730901869"><ele>244.5</ele><time>2026-04-11T12:46:08Z</time></trkpt><trkpt lat="42.99137820662537" lon="11.410354085816667"><ele>244.66666666666669</ele><time>2026-04-11T12:46:10Z</time></trkpt><trkpt lat="42.99131474772746" lon="11.410349838752403"><ele>244.83333333333334</ele><time>2026-04-11T12:46:11Z</time></trkpt><trkpt lat="42.99125154865911" lon="11.410340555997427"><ele>245.0</ele><time>2026-04-11T12:46:12Z</time></trkpt><trkpt lat="42.9911276569903" lon="11.410315723404166"><ele>245.0</ele><time>2026-04-11T12:46:14Z</time></trkpt><trkpt lat="42.991057269414156" lon="11.410306664774517"><ele>245.0</ele><time>2026-04-11T12:46:15Z</time></trkpt><trkpt lat="42.99098737290838" lon="11.41029677267604"><ele>245.0</ele><time>2026-04-11T12:46:16Z</time></trkpt><trkpt lat="42.99091654740382" lon="11.41029008596685"><ele>245.0</ele><time>2026-04-11T12:46:17Z</time></trkpt><trkpt lat="42.99084532476897" lon="11.410279435562048"><ele>245.0</ele><time>2026-04-11T12:46:18Z</time></trkpt><trkpt lat="42.99077502162807" lon="11.410264574523433"><ele>245.0</ele><time>2026-04-11T12:46:19Z</time></trkpt><trkpt lat="42.990711434880986" lon="11.410261608167806"><ele>245.0</ele><time>2026-04-11T12:46:20Z</time></trkpt><trkpt lat="42.99060721306159" lon="11.410248508543335"><ele>244.8</ele><time>2026-04-11T12:46:22Z</time></trkpt><trkpt lat="42.99049384013396" lon="11.410240357924424"><ele>244.6</ele><time>2026-04-11T12:46:24Z</time></trkpt><trkpt lat="42.990381479996955" lon="11.410230427086546"><ele>244.39999999999998</ele><time>2026-04-11T12:46:26Z</time></trkpt><trkpt lat="42.99027291479081" lon="11.410227800137122"><ele>244.2</ele><time>2026-04-11T12:46:28Z</time></trkpt><trkpt lat="42.99016970982292" lon="11.410240753949708"><ele>244.0</ele><time>2026-04-11T12:46:30Z</time></trkpt><trkpt lat="42.99006807246692" lon="11.410261302147886"><ele>244.0</ele><time>2026-04-11T12:46:32Z</time></trkpt><trkpt lat="42.98997692784161" lon="11.410306483192073"><ele>243.99999999999997</ele><time>2026-04-11T12:46:34Z</time></trkpt><trkpt lat="42.9898958885993" lon="11.410347842102697"><ele>243.99999999999997</ele><time>2026-04-11T12:46:36Z</time></trkpt><trkpt lat="42.98981425152058" lon="11.410390387464291"><ele>244.0</ele><time>2026-04-11T12:46:38Z</time></trkpt><trkpt lat="42.98972538305644" lon="11.410411226158862"><ele>244.0</ele><time>2026-04-11T12:46:40Z</time></trkpt><trkpt lat="42.98961888624142" lon="11.41044013855589"><ele>243.99999999999997</ele><time>2026-04-11T12:46:41.999Z</time></trkpt><trkpt lat="42.98949126034282" lon="11.410456395619768"><ele>244.0</ele><time>2026-04-11T12:46:43.999Z</time></trkpt><trkpt lat="42.98942088345884" lon="11.410461932398814"><ele>244.0</ele><time>2026-04-11T12:46:44.999Z</time></trkpt><trkpt lat="42.989344001530235" lon="11.410467421935406"><ele>244.0</ele><time>2026-04-11T12:46:45.999Z</time></trkpt><trkpt lat="42.98926512022094" lon="11.410468696350744"><ele>243.99999999999997</ele><time>2026-04-11T12:46:46.999Z</time></trkpt><trkpt lat="42.98917598079786" lon="11.41047085787671"><ele>244.0</ele><time>2026-04-11T12:46:47.999Z</time></trkpt><trkpt lat="42.98908445946097" lon="11.410470466715822"><ele>242.79999999999998</ele><time>2026-04-11T12:46:48.999Z</time></trkpt><trkpt lat="42.98898784490309" lon="11.410466470041296"><ele>241.59999999999997</ele><time>2026-04-11T12:46:49.999Z</time></trkpt><trkpt lat="42.98888867968785" lon="11.410457413051533"><ele>240.4</ele><time>2026-04-11T12:46:50.999Z</time></trkpt><trkpt lat="42.9887875683289" lon="11.410442491595603"><ele>239.2</ele><time>2026-04-11T12:46:51.999Z</time></trkpt><trkpt lat="42.988686395700704" lon="11.410429424240705"><ele>238.0</ele><time>2026-04-11T12:46:52.999Z</time></trkpt><trkpt lat="42.988586892051444" lon="11.410411186799584"><ele>238.0</ele><time>2026-04-11T12:46:53.999Z</time></trkpt><trkpt lat="42.988486557528155" lon="11.410393772074395"><ele>238.0</ele><time>2026-04-11T12:46:54.999Z</time></trkpt><trkpt lat="42.98839059231226" lon="11.410376704659708"><ele>238.0</ele><time>2026-04-11T12:46:55.999Z</time></trkpt><trkpt lat="42.98829685877698" lon="11.410361998074862"><ele>238.0</ele><time>2026-04-11T12:46:56.999Z</time></trkpt><trkpt lat="42.98820396044789" lon="11.410344638104984"><ele>238.0</ele><time>2026-04-11T12:46:57.999Z</time></trkpt><trkpt lat="42.98811330081447" lon="11.410331045870073"><ele>237.33333333333331</ele><time>2026-04-11T12:46:58.999Z</time></trkpt><trkpt lat="42.98802557256098" lon="11.410313756198507"><ele>236.66666666666666</ele><time>2026-04-11T12:46:59.999Z</time></trkpt><trkpt lat="42.98793724153532" lon="11.410296145108392"><ele>236.0</ele><time>2026-04-11T12:47:00.999Z</time></trkpt><trkpt lat="42.9878513814949" lon="11.41027882063171"><ele>235.33333333333331</ele><time>2026-04-11T12:47:01.999Z</time></trkpt><trkpt lat="42.98776393286079" lon="11.410263377779719"><ele>234.66666666666666</ele><time>2026-04-11T12:47:02.999Z</time></trkpt><trkpt lat="42.98767774606378" lon="11.410247506325119"><ele>234.0</ele><time>2026-04-11T12:47:03.999Z</time></trkpt><trkpt lat="42.98759191228592" lon="11.410227398627395"><ele>234.33333333333334</ele><time>2026-04-11T12:47:04.999Z</time></trkpt><trkpt lat="42.98748711050533" lon="11.410219935509913"><ele>234.66666666666669</ele><time>2026-04-11T12:47:05.999Z</time></trkpt><trkpt lat="42.98741875220554" lon="11.410193785167614"><ele>235.0</ele><time>2026-04-11T12:47:06.999Z</time></trkpt><trkpt lat="42.98733196896612" lon="11.41017417796021"><ele>235.33333333333334</ele><time>2026-04-11T12:47:07.999Z</time></trkpt><trkpt lat="42.98724825200231" lon="11.410160752806114"><ele>235.66666666666669</ele><time>2026-04-11T12:47:08.999Z</time></trkpt><trkpt lat="42.98716684890521" lon="11.410141695706043"><ele>236.0</ele><time>2026-04-11T12:47:09.999Z</time></trkpt><trkpt lat="42.987084591461404" lon="11.410125669042824"><ele>236.00000000000003</ele><time>2026-04-11T12:47:10.999Z</time></trkpt><trkpt lat="42.986998445406186" lon="11.410120656266367"><ele>236.0</ele><time>2026-04-11T12:47:11.999Z</time></trkpt><trkpt lat="42.986918448679724" lon="11.410091764500232"><ele>236.0</ele><time>2026-04-11T12:47:12.999Z</time></trkpt><trkpt lat="42.986837112003265" lon="11.410068750034375"><ele>236.0</ele><time>2026-04-11T12:47:13.999Z</time></trkpt><trkpt lat="42.98675694093089" lon="11.41004835516582"><ele>236.00000000000003</ele><time>2026-04-11T12:47:14.999Z</time></trkpt><trkpt lat="42.98667682666548" lon="11.410027680385113"><ele>236.0</ele><time>2026-04-11T12:47:15.999Z</time></trkpt><trkpt lat="42.98659440864673" lon="11.410008209199113"><ele>235.33333333333334</ele><time>2026-04-11T12:47:16.999Z</time></trkpt><trkpt lat="42.98651182396187" lon="11.4099908989513"><ele>234.66666666666669</ele><time>2026-04-11T12:47:17.999Z</time></trkpt><trkpt lat="42.98643168161558" lon="11.409969314898307"><ele>234.0</ele><time>2026-04-11T12:47:18.999Z</time></trkpt><trkpt lat="42.98635303127262" lon="11.409950656137793"><ele>233.33333333333331</ele><time>2026-04-11T12:47:19.999Z</time></trkpt><trkpt lat="42.98627695800694" lon="11.409927531543895"><ele>232.66666666666666</ele><time>2026-04-11T12:47:20.999Z</time></trkpt><trkpt lat="42.986199739688075" lon="11.409905295508002"><ele>232.0</ele><time>2026-04-11T12:47:21.999Z</time></trkpt><trkpt lat="42.9861265784951" lon="11.40987933022796"><ele>232.00000000000003</ele><time>2026-04-11T12:47:22.999Z</time></trkpt><trkpt lat="42.98605427770924" lon="11.409851795715168"><ele>232.0</ele><time>2026-04-11T12:47:23.999Z</time></trkpt><trkpt lat="42.98598431160182" lon="11.409816686759832"><ele>232.00000000000003</ele><time>2026-04-11T12:47:24.999Z</time></trkpt><trkpt lat="42.985918495919194" lon="11.409775795067157"><ele>232.00000000000003</ele><time>2026-04-11T12:47:25.999Z</time></trkpt><trkpt lat="42.98585105722876" lon="11.409732076342996"><ele>232.0</ele><time>2026-04-11T12:47:26.999Z</time></trkpt><trkpt lat="42.98578496084179" lon="11.409690087009114"><ele>232.00000000000003</ele><time>2026-04-11T12:47:27.999Z</time></trkpt><trkpt lat="42.985718955991054" lon="11.40964925267634"><ele>232.00000000000003</ele><time>2026-04-11T12:47:28.999Z</time></trkpt><trkpt lat="42.98565480266592" lon="11.40961326995608"><ele>230.49999999999997</ele><time>2026-04-11T12:47:29.999Z</time></trkpt><trkpt lat="42.9855937967185" lon="11.409573211096221"><ele>229.0</ele><time>2026-04-11T12:47:30.999Z</time></trkpt><trkpt lat="42.98552740920925" lon="11.409539554102892"><ele>227.5</ele><time>2026-04-11T12:47:31.999Z</time></trkpt><trkpt lat="42.98545507128675" lon="11.409501099104512"><ele>226.0</ele><time>2026-04-11T12:47:32.999Z</time></trkpt><trkpt lat="42.985374176879404" lon="11.409469522590967"><ele>224.49999999999997</ele><time>2026-04-11T12:47:33.999Z</time></trkpt><trkpt lat="42.98528305037588" lon="11.409442242177104"><ele>223.0</ele><time>2026-04-11T12:47:34.998Z</time></trkpt><trkpt lat="42.98518666619554" lon="11.409411103723398"><ele>223.0</ele><time>2026-04-11T12:47:35.998Z</time></trkpt><trkpt lat="42.985085504905456" lon="11.40937566577238"><ele>223.0</ele><time>2026-04-11T12:47:36.998Z</time></trkpt><trkpt lat="42.98497995634199" lon="11.409338318440968"><ele>223.0</ele><time>2026-04-11T12:47:37.998Z</time></trkpt><trkpt lat="42.98487249158949" lon="11.4092959058857"><ele>223.0</ele><time>2026-04-11T12:47:38.998Z</time></trkpt><trkpt lat="42.98476151293148" lon="11.409247020011149"><ele>223.0</ele><time>2026-04-11T12:47:39.998Z</time></trkpt><trkpt lat="42.984650734649705" lon="11.409189952151007"><ele>222.5</ele><time>2026-04-11T12:47:41Z</time></trkpt><trkpt lat="42.98454149456816" lon="11.409115658020042"><ele>222.0</ele><time>2026-04-11T12:47:42Z</time></trkpt><trkpt lat="42.9844360933242" lon="11.409025348187537"><ele>221.5</ele><time>2026-04-11T12:47:43Z</time></trkpt><trkpt lat="42.98432855876436" lon="11.408941261987865"><ele>221.0</ele><time>2026-04-11T12:47:44Z</time></trkpt><trkpt lat="42.98422392964514" lon="11.408857230653641"><ele>218.0</ele><time>2026-04-11T12:47:45Z</time></trkpt><trkpt lat="42.98411843344262" lon="11.408771314751489"><ele>215.0</ele><time>2026-04-11T12:47:46Z</time></trkpt><trkpt lat="42.98401769135325" lon="11.408685507847167"><ele>212.0</ele><time>2026-04-11T12:47:47Z</time></trkpt><trkpt lat="42.98391684110688" lon="11.408604226379342"><ele>209.0</ele><time>2026-04-11T12:47:48Z</time></trkpt><trkpt lat="42.983816583239566" lon="11.40852474329563"><ele>209.0</ele><time>2026-04-11T12:47:49Z</time></trkpt><trkpt lat="42.98372050830338" lon="11.4084456600664"><ele>209.0</ele><time>2026-04-11T12:47:50Z</time></trkpt><trkpt lat="42.98362660460689" lon="11.408367163896767"><ele>209.0</ele><time>2026-04-11T12:47:51Z</time></trkpt><trkpt lat="42.98353169611771" lon="11.408290799735763"><ele>209.0</ele><time>2026-04-11T12:47:52Z</time></trkpt><trkpt lat="42.98344270833446" lon="11.408223116409976"><ele>209.0</ele><time>2026-04-11T12:47:53Z</time></trkpt><trkpt lat="42.98336873624438" lon="11.408161391538679"><ele>209.33333333333334</ele><time>2026-04-11T12:47:54Z</time></trkpt><trkpt lat="42.98329568779459" lon="11.408094046981386"><ele>209.66666666666669</ele><time>2026-04-11T12:47:55Z</time></trkpt><trkpt lat="42.98322154139882" lon="11.408030926185624"><ele>210.0</ele><time>2026-04-11T12:47:56Z</time></trkpt><trkpt lat="42.98314893854966" lon="11.407974255008314"><ele>210.33333333333331</ele><time>2026-04-11T12:47:57Z</time></trkpt><trkpt lat="42.98308293091957" lon="11.407921739580974"><ele>210.66666666666666</ele><time>2026-04-11T12:47:58Z</time></trkpt><trkpt lat="42.9830156525289" lon="11.407869440391766"><ele>211.0</ele><time>2026-04-11T12:47:59Z</time></trkpt><trkpt lat="42.98294990813349" lon="11.407813037584306"><ele>209.99999999999997</ele><time>2026-04-11T12:48:00Z</time></trkpt><trkpt lat="42.98288438168429" lon="11.407759150418"><ele>209.0</ele><time>2026-04-11T12:48:01Z</time></trkpt><trkpt lat="42.98281777489361" lon="11.40770438800009"><ele>208.0</ele><time>2026-04-11T12:48:02Z</time></trkpt><trkpt lat="42.982750368582174" lon="11.407649474920461"><ele>207.0</ele><time>2026-04-11T12:48:03Z</time></trkpt><trkpt lat="42.98268307836718" lon="11.407592329741792"><ele>205.99999999999997</ele><time>2026-04-11T12:48:04Z</time></trkpt><trkpt lat="42.982620268653946" lon="11.407540618558164"><ele>205.0</ele><time>2026-04-11T12:48:05Z</time></trkpt><trkpt lat="42.98255966342815" lon="11.407494997710744"><ele>205.2</ele><time>2026-04-11T12:48:06Z</time></trkpt><trkpt lat="42.98244836825514" lon="11.407470796477012"><ele>205.4</ele><time>2026-04-11T12:48:07.999Z</time></trkpt><trkpt lat="42.98236482150393" lon="11.407547722382457"><ele>205.60000000000002</ele><time>2026-04-11T12:48:09.999Z</time></trkpt><trkpt lat="42.982330069038184" lon="11.407686725054013"><ele>205.8</ele><time>2026-04-11T12:48:11.999Z</time></trkpt><trkpt lat="42.98228316780551" lon="11.407826221352853"><ele>206.0</ele><time>2026-04-11T12:48:13.999Z</time></trkpt><trkpt lat="42.98223348131586" lon="11.407979608762256"><ele>206.8</ele><time>2026-04-11T12:48:15.999Z</time></trkpt><trkpt lat="42.982176263547025" lon="11.408133289276485"><ele>207.60000000000002</ele><time>2026-04-11T12:48:17.999Z</time></trkpt><trkpt lat="42.98214638727908" lon="11.408212006140088"><ele>208.4</ele><time>2026-04-11T12:48:18.999Z</time></trkpt><trkpt lat="42.982090035734714" lon="11.408365061777069"><ele>209.2</ele><time>2026-04-11T12:48:20.999Z</time></trkpt><trkpt lat="42.98202800445584" lon="11.408504099443487"><ele>210.0</ele><time>2026-04-11T12:48:22.999Z</time></trkpt><trkpt lat="42.981953201080216" lon="11.408621030837704"><ele>210.0</ele><time>2026-04-11T12:48:24.999Z</time></trkpt><trkpt lat="42.981876076943934" lon="11.408712689638357"><ele>210.0</ele><time>2026-04-11T12:48:26.999Z</time></trkpt><trkpt lat="42.98180245773811" lon="11.40879536919587"><ele>210.0</ele><time>2026-04-11T12:48:28.999Z</time></trkpt><trkpt lat="42.98172489863307" lon="11.408856533013134"><ele>210.0</ele><time>2026-04-11T12:48:30.999Z</time></trkpt><trkpt lat="42.98164982650146" lon="11.408908199216073"><ele>210.0</ele><time>2026-04-11T12:48:32.999Z</time></trkpt><trkpt lat="42.981577452595346" lon="11.40894864581476"><ele>210.0</ele><time>2026-04-11T12:48:34.999Z</time></trkpt><trkpt lat="42.981509414714026" lon="11.408977558839187"><ele>210.71428571428572</ele><time>2026-04-11T12:48:36.999Z</time></trkpt><trkpt lat="42.98144021794463" lon="11.408984514851154"><ele>211.42857142857144</ele><time>2026-04-11T12:48:38.999Z</time></trkpt><trkpt lat="42.98137318680587" lon="11.408999633983495"><ele>212.14285714285714</ele><time>2026-04-11T12:48:40.999Z</time></trkpt><trkpt lat="42.981306430135675" lon="11.409006177441492"><ele>212.85714285714286</ele><time>2026-04-11T12:48:42.999Z</time></trkpt><trkpt lat="42.98124199170508" lon="11.40902187757399"><ele>213.57142857142858</ele><time>2026-04-11T12:48:44.999Z</time></trkpt><trkpt lat="42.981178032814206" lon="11.409030921788023"><ele>214.28571428571428</ele><time>2026-04-11T12:48:46.998Z</time></trkpt><trkpt lat="42.98110390516365" lon="11.409045390152102"><ele>215.0</ele><time>2026-04-11T12:48:49.998Z</time></trkpt><trkpt lat="42.981017363719396" lon="11.409062897175724"><ele>215.00000000000003</ele><time>2026-04-11T12:48:52.998Z</time></trkpt><trkpt lat="42.98091176692715" lon="11.409097346758848"><ele>215.0</ele><time>2026-04-11T12:48:56.998Z</time></trkpt><trkpt lat="42.98081670445332" lon="11.409114902890304"><ele>215.0</ele><time>2026-04-11T12:48:58.998Z</time></trkpt><trkpt lat="42.98072780106674" lon="11.409126201771912"><ele>215.0</ele><time>2026-04-11T12:49:00.998Z</time></trkpt><trkpt lat="42.98066365025071" lon="11.409145993150297"><ele>215.00000000000003</ele><time>2026-04-11T12:51:26.998Z</time></trkpt><trkpt lat="42.980597239486364" lon="11.40917215456253"><ele>215.0</ele><time>2026-04-11T12:51:30.998Z</time></trkpt><trkpt lat="42.98051223326996" lon="11.40917576904724"><ele>215.33333333333334</ele><time>2026-04-11T12:51:33.998Z</time></trkpt><trkpt lat="42.9804381916837" lon="11.409197031259335"><ele>215.66666666666669</ele><time>2026-04-11T12:51:35.998Z</time></trkpt><trkpt lat="42.980370797265756" lon="11.409222181012684"><ele>216.0</ele><time>2026-04-11T12:51:37.998Z</time></trkpt><trkpt lat="42.980308286838074" lon="11.409259881257988"><ele>216.33333333333331</ele><time>2026-04-11T12:51:39.998Z</time></trkpt><trkpt lat="42.980243593118146" lon="11.409290071767632"><ele>216.66666666666666</ele><time>2026-04-11T12:51:41.998Z</time></trkpt><trkpt lat="42.98016138245101" lon="11.409319294645588"><ele>217.0</ele><time>2026-04-11T12:51:43.998Z</time></trkpt><trkpt lat="42.98006173160577" lon="11.409336378964998"><ele>215.6</ele><time>2026-04-11T12:51:45.998Z</time></trkpt><trkpt lat="42.97995159732069" lon="11.409324069715161"><ele>214.2</ele><time>2026-04-11T12:51:47.997Z</time></trkpt><trkpt lat="42.97983569125868" lon="11.409303429954392"><ele>212.8</ele><time>2026-04-11T12:51:49.997Z</time></trkpt><trkpt lat="42.97971507035943" lon="11.409282913286331"><ele>211.4</ele><time>2026-04-11T12:51:51.997Z</time></trkpt><trkpt lat="42.97961711371701" lon="11.40925659473241"><ele>210.0</ele><time>2026-04-11T12:51:54Z</time></trkpt><trkpt lat="42.97948931739715" lon="11.40924231311382"><ele>210.0</ele><time>2026-04-11T12:51:56Z</time></trkpt><trkpt lat="42.97941549821498" lon="11.40923997131275"><ele>210.0</ele><time>2026-04-11T12:51:57Z</time></trkpt><trkpt lat="42.97933422623939" lon="11.409245718627908"><ele>210.0</ele><time>2026-04-11T12:51:58Z</time></trkpt><trkpt lat="42.97925245778309" lon="11.409261022300578"><ele>210.0</ele><time>2026-04-11T12:51:59Z</time></trkpt><trkpt lat="42.97917767855482" lon="11.409291750880184"><ele>210.0</ele><time>2026-04-11T12:52:00Z</time></trkpt><trkpt lat="42.97911000476105" lon="11.409325036220205"><ele>210.0</ele><time>2026-04-11T12:52:01Z</time></trkpt><trkpt lat="42.979044755916775" lon="11.409359177224006"><ele>208.57142857142858</ele><time>2026-04-11T12:52:02Z</time></trkpt><trkpt lat="42.97897201936477" lon="11.409391366850905"><ele>207.14285714285714</ele><time>2026-04-11T12:52:03Z</time></trkpt><trkpt lat="42.978903506666406" lon="11.409422711341307"><ele>205.71428571428572</ele><time>2026-04-11T12:52:04Z</time></trkpt><trkpt lat="42.978843121071286" lon="11.409448901155915"><ele>204.28571428571428</ele><time>2026-04-11T12:52:05Z</time></trkpt><trkpt lat="42.97877973610125" lon="11.409466354287762"><ele>202.85714285714286</ele><time>2026-04-11T12:52:06Z</time></trkpt><trkpt lat="42.97870988555583" lon="11.409469843917122"><ele>201.42857142857144</ele><time>2026-04-11T12:52:07Z</time></trkpt><trkpt lat="42.97862692327427" lon="11.409457624789965"><ele>200.0</ele><time>2026-04-11T12:52:08Z</time></trkpt><trkpt lat="42.97853670710966" lon="11.40943549707999"><ele>200.0</ele><time>2026-04-11T12:52:08.999Z</time></trkpt><trkpt lat="42.9784433488361" lon="11.40940520794608"><ele>200.0</ele><time>2026-04-11T12:52:09.999Z</time></trkpt><trkpt lat="42.978345502169915" lon="11.40936155109132"><ele>200.0</ele><time>2026-04-11T12:52:10.999Z</time></trkpt><trkpt lat="42.97824633159579" lon="11.40931372719755"><ele>200.0</ele><time>2026-04-11T12:52:11.999Z</time></trkpt><trkpt lat="42.97814376593552" lon="11.40926298137332"><ele>200.0</ele><time>2026-04-11T12:52:12.999Z</time></trkpt><trkpt lat="42.97803280772492" lon="11.409218339662742"><ele>198.2</ele><time>2026-04-11T12:52:13.999Z</time></trkpt><trkpt lat="42.97792426689816" lon="11.40915962587156"><ele>196.4</ele><time>2026-04-11T12:52:14.999Z</time></trkpt><trkpt lat="42.97782207022477" lon="11.409108909021432"><ele>194.60000000000002</ele><time>2026-04-11T12:52:15.999Z</time></trkpt><trkpt lat="42.977724285114796" lon="11.409062639334358"><ele>192.8</ele><time>2026-04-11T12:52:16.999Z</time></trkpt><trkpt lat="42.97762046757981" lon="11.409007518198424"><ele>191.0</ele><time>2026-04-11T12:52:17.999Z</time></trkpt><trkpt lat="42.977506173841554" lon="11.408951746829237"><ele>189.60000000000002</ele><time>2026-04-11T12:52:18.999Z</time></trkpt><trkpt lat="42.97739197713768" lon="11.408894939609521"><ele>188.2</ele><time>2026-04-11T12:52:19.999Z</time></trkpt><trkpt lat="42.977298572504395" lon="11.408837572573006"><ele>186.8</ele><time>2026-04-11T12:52:20.999Z</time></trkpt><trkpt lat="42.977224306315115" lon="11.408786521961535"><ele>185.39999999999998</ele><time>2026-04-11T12:52:21.999Z</time></trkpt><trkpt lat="42.97714853125433" lon="11.408735908642631"><ele>184.0</ele><time>2026-04-11T12:52:22.999Z</time></trkpt><trkpt lat="42.977076283495464" lon="11.408678165716683"><ele>182.83333333333334</ele><time>2026-04-11T12:52:23.999Z</time></trkpt><trkpt lat="42.97700645502822" lon="11.408624735236758"><ele>181.66666666666669</ele><time>2026-04-11T12:52:24.999Z</time></trkpt><trkpt lat="42.976920344640625" lon="11.408585653695871"><ele>180.5</ele><time>2026-04-11T12:52:25.999Z</time></trkpt><trkpt lat="42.97683132569084" lon="11.40855378574307"><ele>179.33333333333334</ele><time>2026-04-11T12:52:26.999Z</time></trkpt><trkpt lat="42.97674660736778" lon="11.408515900743101"><ele>178.16666666666666</ele><time>2026-04-11T12:52:27.999Z</time></trkpt><trkpt lat="42.97666424467378" lon="11.408496007674023"><ele>177.0</ele><time>2026-04-11T12:52:28.999Z</time></trkpt><trkpt lat="42.97659723666488" lon="11.408495694211167"><ele>176.6</ele><time>2026-04-11T12:52:29.999Z</time></trkpt><trkpt lat="42.976533849743625" lon="11.40851319138354"><ele>176.2</ele><time>2026-04-11T12:52:30.999Z</time></trkpt><trkpt lat="42.97643536247844" lon="11.408612508408224"><ele>175.8</ele><time>2026-04-11T12:52:32.999Z</time></trkpt><trkpt lat="42.9763835175191" lon="11.40866335164471"><ele>175.4</ele><time>2026-04-11T12:52:33.999Z</time></trkpt><trkpt lat="42.97633333794739" lon="11.408821899312935"><ele>175.0</ele><time>2026-04-11T12:52:35.999Z</time></trkpt><trkpt lat="42.97632378215538" lon="11.408980321554198"><ele>175.0</ele><time>2026-04-11T12:52:37.999Z</time></trkpt><trkpt lat="42.976315844624494" lon="11.409128210034252"><ele>175.0</ele><time>2026-04-11T12:52:39.999Z</time></trkpt><trkpt lat="42.976288748007505" lon="11.409270184517826"><ele>175.0</ele><time>2026-04-11T12:52:41.999Z</time></trkpt><trkpt lat="42.97625127998401" lon="11.409417105625469"><ele>175.0</ele><time>2026-04-11T12:52:43.999Z</time></trkpt><trkpt lat="42.97619056029974" lon="11.409550650290274"><ele>175.0</ele><time>2026-04-11T12:52:45.999Z</time></trkpt><trkpt lat="42.97613063079524" lon="11.409691529484533"><ele>175.66666666666669</ele><time>2026-04-11T12:52:47.999Z</time></trkpt><trkpt lat="42.976090122882766" lon="11.40976095493753"><ele>176.33333333333334</ele><time>2026-04-11T12:52:48.999Z</time></trkpt><trkpt lat="42.976038482800135" lon="11.409824458242527"><ele>177.0</ele><time>2026-04-11T12:52:49.999Z</time></trkpt><trkpt lat="42.97597719069848" lon="11.409884219171918"><ele>177.66666666666666</ele><time>2026-04-11T12:52:50.999Z</time></trkpt><trkpt lat="42.97590235899115" lon="11.409929348717553"><ele>178.33333333333331</ele><time>2026-04-11T12:52:51.999Z</time></trkpt><trkpt lat="42.97581741087638" lon="11.409966621613476"><ele>179.0</ele><time>2026-04-11T12:52:52.999Z</time></trkpt><trkpt lat="42.97572915042356" lon="11.41000989789516"><ele>176.5</ele><time>2026-04-11T12:52:53.999Z</time></trkpt><trkpt lat="42.97564556710933" lon="11.410051572052902"><ele>174.0</ele><time>2026-04-11T12:52:54.999Z</time></trkpt><trkpt lat="42.97557009569082" lon="11.410097994590956"><ele>171.5</ele><time>2026-04-11T12:52:55.999Z</time></trkpt><trkpt lat="42.97548445973369" lon="11.410147300535707"><ele>169.0</ele><time>2026-04-11T12:52:56.999Z</time></trkpt><trkpt lat="42.97540023891347" lon="11.410194609624863"><ele>166.5</ele><time>2026-04-11T12:52:57.999Z</time></trkpt><trkpt lat="42.975334506339856" lon="11.410267195828933"><ele>164.0</ele><time>2026-04-11T12:52:58.999Z</time></trkpt><trkpt lat="42.97527753070513" lon="11.41035670579414"><ele>164.0</ele><time>2026-04-11T12:52:59.999Z</time></trkpt><trkpt lat="42.975216063262806" lon="11.410453825465638"><ele>164.0</ele><time>2026-04-11T12:53:00.999Z</time></trkpt><trkpt lat="42.9751787304013" lon="11.410580949336946"><ele>164.0</ele><time>2026-04-11T12:53:01.999Z</time></trkpt><trkpt lat="42.97516297056979" lon="11.410723640185957"><ele>164.0</ele><time>2026-04-11T12:53:02.999Z</time></trkpt><trkpt lat="42.97512608165217" lon="11.410857851713358"><ele>164.0</ele><time>2026-04-11T12:53:03.998Z</time></trkpt><trkpt lat="42.97506947380615" lon="11.410980439177543"><ele>162.39999999999998</ele><time>2026-04-11T12:53:04.998Z</time></trkpt><trkpt lat="42.974996557905726" lon="11.41109296444982"><ele>160.79999999999998</ele><time>2026-04-11T12:53:05.998Z</time></trkpt><trkpt lat="42.9749178293746" lon="11.411197120467687"><ele>159.2</ele><time>2026-04-11T12:53:06.998Z</time></trkpt><trkpt lat="42.974835654334704" lon="11.411293614255307"><ele>157.6</ele><time>2026-04-11T12:53:07.998Z</time></trkpt><trkpt lat="42.97475965737764" lon="11.411397563924055"><ele>156.0</ele><time>2026-04-11T12:53:08.998Z</time></trkpt><trkpt lat="42.974682990824675" lon="11.411502656812008"><ele>156.0</ele><time>2026-04-11T12:53:09.998Z</time></trkpt><trkpt lat="42.97460082592778" lon="11.411604501080543"><ele>156.0</ele><time>2026-04-11T12:53:10.998Z</time></trkpt><trkpt lat="42.97450606215734" lon="11.411691364556177"><ele>156.0</ele><time>2026-04-11T12:53:11.998Z</time></trkpt><trkpt lat="42.97441970149499" lon="11.411795824265498"><ele>156.0</ele><time>2026-04-11T12:53:12.998Z</time></trkpt><trkpt lat="42.9743415093432" lon="11.411917637237773"><ele>156.0</ele><time>2026-04-11T12:53:13.998Z</time></trkpt><trkpt lat="42.97425218766674" lon="11.412025950079496"><ele>156.0</ele><time>2026-04-11T12:53:14.998Z</time></trkpt><trkpt lat="42.97416255158176" lon="11.4121366240455"><ele>156.0</ele><time>2026-04-11T12:53:15.998Z</time></trkpt><trkpt lat="42.97407156694517" lon="11.412245939072788"><ele>156.0</ele><time>2026-04-11T12:53:16.998Z</time></trkpt><trkpt lat="42.973977422608414" lon="11.412359164061755"><ele>153.5</ele><time>2026-04-11T12:53:17.998Z</time></trkpt><trkpt lat="42.97388351034927" lon="11.412471700430544"><ele>151.0</ele><time>2026-04-11T12:53:18.998Z</time></trkpt><trkpt lat="42.97378992923983" lon="11.412584483629944"><ele>148.5</ele><time>2026-04-11T12:53:19.998Z</time></trkpt><trkpt lat="42.97369674918975" lon="11.412703779010483"><ele>146.0</ele><time>2026-04-11T12:53:20.998Z</time></trkpt><trkpt lat="42.97359915319156" lon="11.412823043290526"><ele>146.0</ele><time>2026-04-11T12:53:21.998Z</time></trkpt><trkpt lat="42.973500767972254" lon="11.412945437480941"><ele>146.0</ele><time>2026-04-11T12:53:22.998Z</time></trkpt><trkpt lat="42.973400774835" lon="11.413068963541322"><ele>146.0</ele><time>2026-04-11T12:53:23.998Z</time></trkpt><trkpt lat="42.97330017897" lon="11.413195539293802"><ele>146.0</ele><time>2026-04-11T12:53:24.998Z</time></trkpt><trkpt lat="42.97318820561191" lon="11.413307224243296"><ele>143.75</ele><time>2026-04-11T12:53:25.998Z</time></trkpt><trkpt lat="42.97309236842682" lon="11.413427939211328"><ele>141.5</ele><time>2026-04-11T12:53:26.998Z</time></trkpt><trkpt lat="42.973009439833596" lon="11.413564128535642"><ele>139.25</ele><time>2026-04-11T12:53:27.998Z</time></trkpt><trkpt lat="42.972912018618494" lon="11.413690137145887"><ele>137.0</ele><time>2026-04-11T12:53:28.998Z</time></trkpt><trkpt lat="42.97281299921245" lon="11.41381787118211"><ele>135.4</ele><time>2026-04-11T12:53:29.998Z</time></trkpt><trkpt lat="42.972715527674936" lon="11.413931504489097"><ele>133.79999999999998</ele><time>2026-04-11T12:53:30.998Z</time></trkpt><trkpt lat="42.97263537469344" lon="11.414041286019065"><ele>132.2</ele><time>2026-04-11T12:53:31.998Z</time></trkpt><trkpt lat="42.97256157303173" lon="11.41413303754088"><ele>130.6</ele><time>2026-04-11T12:53:32.998Z</time></trkpt><trkpt lat="42.97249078395178" lon="11.414223241827798"><ele>129.0</ele><time>2026-04-11T12:53:33.998Z</time></trkpt><trkpt lat="42.97242196203972" lon="11.414320400434033"><ele>129.0</ele><time>2026-04-11T12:53:34.998Z</time></trkpt><trkpt lat="42.97234646481207" lon="11.41441667120654"><ele>129.0</ele><time>2026-04-11T12:53:35.998Z</time></trkpt><trkpt lat="42.97227104541367" lon="11.414519981658449"><ele>129.0</ele><time>2026-04-11T12:53:36.998Z</time></trkpt><trkpt lat="42.972187315180996" lon="11.41462273450081"><ele>129.0</ele><time>2026-04-11T12:53:37.998Z</time></trkpt><trkpt lat="42.97209029034326" lon="11.414717840160849"><ele>129.0</ele><time>2026-04-11T12:53:38.998Z</time></trkpt><trkpt lat="42.971984816079605" lon="11.414807438278407"><ele>127.25</ele><time>2026-04-11T12:53:39.998Z</time></trkpt><trkpt lat="42.97187517196071" lon="11.414894245695987"><ele>125.5</ele><time>2026-04-11T12:53:40.998Z</time></trkpt><trkpt lat="42.97176145620054" lon="11.414972710787875"><ele>123.75</ele><time>2026-04-11T12:53:41.998Z</time></trkpt><trkpt lat="42.97164765884986" lon="11.415048624338244"><ele>122.0</ele><time>2026-04-11T12:53:42.998Z</time></trkpt><trkpt lat="42.971532830145414" lon="11.415118941109977"><ele>121.75</ele><time>2026-04-11T12:53:43.998Z</time></trkpt><trkpt lat="42.97141773114648" lon="11.415183733198708"><ele>121.5</ele><time>2026-04-11T12:53:44.998Z</time></trkpt><trkpt lat="42.97130348902422" lon="11.415253538721341"><ele>121.25</ele><time>2026-04-11T12:53:45.998Z</time></trkpt><trkpt lat="42.97118970545829" lon="11.415319372664106"><ele>121.0</ele><time>2026-04-11T12:53:46.998Z</time></trkpt><trkpt lat="42.971077800602664" lon="11.415384450392478"><ele>121.0</ele><time>2026-04-11T12:53:47.998Z</time></trkpt><trkpt lat="42.97096953853367" lon="11.415452771833346"><ele>121.0</ele><time>2026-04-11T12:53:48.998Z</time></trkpt><trkpt lat="42.97085992446952" lon="11.41551903497977"><ele>121.0</ele><time>2026-04-11T12:53:49.998Z</time></trkpt><trkpt lat="42.97074830214589" lon="11.415577032235179"><ele>121.0</ele><time>2026-04-11T12:53:50.998Z</time></trkpt><trkpt lat="42.97064174151362" lon="11.415640469503469"><ele>119.8</ele><time>2026-04-11T12:53:51.998Z</time></trkpt><trkpt lat="42.97053527194203" lon="11.415704669633403"><ele>118.6</ele><time>2026-04-11T12:53:52.998Z</time></trkpt><trkpt lat="42.970431063058385" lon="11.415765008288574"><ele>117.4</ele><time>2026-04-11T12:53:53.998Z</time></trkpt><trkpt lat="42.97032932195726" lon="11.415825444573956"><ele>116.2</ele><time>2026-04-11T12:53:54.998Z</time></trkpt><trkpt lat="42.97023016146548" lon="11.415883717673383"><ele>115.0</ele><time>2026-04-11T12:53:55.998Z</time></trkpt><trkpt lat="42.970129020171726" lon="11.415941120812759"><ele>115.0</ele><time>2026-04-11T12:53:56.998Z</time></trkpt><trkpt lat="42.97003051084468" lon="11.416000406004471"><ele>115.0</ele><time>2026-04-11T12:53:58Z</time></trkpt><trkpt lat="42.969933371741774" lon="11.416057140857944"><ele>115.0</ele><time>2026-04-11T12:53:59Z</time></trkpt><trkpt lat="42.969836031160085" lon="11.416105929733508"><ele>115.0</ele><time>2026-04-11T12:54:00Z</time></trkpt><trkpt lat="42.969740845325" lon="11.416159709306484"><ele>115.0</ele><time>2026-04-11T12:54:01Z</time></trkpt><trkpt lat="42.969648357655004" lon="11.416211425709866"><ele>114.6</ele><time>2026-04-11T12:54:02Z</time></trkpt><trkpt lat="42.96955587306929" lon="11.416258622838605"><ele>114.2</ele><time>2026-04-11T12:54:03Z</time></trkpt><trkpt lat="42.96946473953323" lon="11.416303580461392"><ele>113.80000000000001</ele><time>2026-04-11T12:54:04Z</time></trkpt><trkpt lat="42.96937657855151" lon="11.416350627470544"><ele>113.4</ele><time>2026-04-11T12:54:05Z</time></trkpt><trkpt lat="42.96929517077616" lon="11.416400538562591"><ele>113.0</ele><time>2026-04-11T12:54:06Z</time></trkpt><trkpt lat="42.96921960955577" lon="11.416451065150163"><ele>112.60000000000001</ele><time>2026-04-11T12:54:07Z</time></trkpt><trkpt lat="42.969142654041256" lon="11.416466877480456"><ele>112.20000000000002</ele><time>2026-04-11T12:54:08Z</time></trkpt><trkpt lat="42.969078843056025" lon="11.416494674176013"><ele>111.8</ele><time>2026-04-11T12:54:09Z</time></trkpt><trkpt lat="42.96895120625245" lon="11.416525980234287"><ele>111.4</ele><time>2026-04-11T12:54:11Z</time></trkpt><trkpt lat="42.968884859648526" lon="11.416559745360162"><ele>111.0</ele><time>2026-04-11T12:54:12Z</time></trkpt><trkpt lat="42.96888283220052" lon="11.416743596168411"><ele>111.0</ele><time>2026-04-11T12:54:13Z</time></trkpt><trkpt lat="42.968798315761376" lon="11.416859774512796"><ele>111.0</ele><time>2026-04-11T12:54:15Z</time></trkpt><trkpt lat="42.96874343824019" lon="11.417003840854932"><ele>111.0</ele><time>2026-04-11T12:54:17Z</time></trkpt><trkpt lat="42.96874775253444" lon="11.417170787223341"><ele>111.0</ele><time>2026-04-11T12:54:18.999Z</time></trkpt><trkpt lat="42.96878168277552" lon="11.417320210821135"><ele>111.28571428571428</ele><time>2026-04-11T12:54:20.999Z</time></trkpt><trkpt lat="42.96881537115518" lon="11.417435736007901"><ele>111.57142857142858</ele><time>2026-04-11T12:54:22.999Z</time></trkpt><trkpt lat="42.968840913383175" lon="11.417540312927441"><ele>111.85714285714286</ele><time>2026-04-11T12:54:25.999Z</time></trkpt><trkpt lat="42.96887103610886" lon="11.417618671256314"><ele>112.14285714285714</ele><time>2026-04-11T12:54:29.999Z</time></trkpt><trkpt lat="42.968887523162316" lon="11.417703790498594"><ele>112.42857142857142</ele><time>2026-04-11T12:54:33.999Z</time></trkpt><trkpt lat="42.968912764830456" lon="11.417784466057242"><ele>112.71428571428572</ele><time>2026-04-11T12:54:37.999Z</time></trkpt><trkpt lat="42.96892680125754" lon="11.417885271725131"><ele>113.0</ele><time>2026-04-11T12:54:42.999Z</time></trkpt><trkpt lat="42.96894807972576" lon="11.417969528390364"><ele>115.0</ele><time>2026-04-11T12:54:46.999Z</time></trkpt><trkpt lat="42.9689480243638" lon="11.418064833029293"><ele>117.0</ele><time>2026-04-11T12:54:51.999Z</time></trkpt><trkpt lat="42.96892887913301" lon="11.418168740298984"><ele>119.0</ele><time>2026-04-11T12:54:56.999Z</time></trkpt><trkpt lat="42.96889112324949" lon="11.418247662217494"><ele>121.0</ele><time>2026-04-11T12:55:00.999Z</time></trkpt><trkpt lat="42.96883987208302" lon="11.418323228524796"><ele>123.0</ele><time>2026-04-11T12:55:04.999Z</time></trkpt><trkpt lat="42.968775647987705" lon="11.41838763102788"><ele>125.0</ele><time>2026-04-11T12:55:08.999Z</time></trkpt><trkpt lat="42.96872707565373" lon="11.418443932689689"><ele>127.0</ele><time>2026-04-11T12:55:11.998Z</time></trkpt><trkpt lat="42.968683439820005" lon="11.418506614071372"><ele>127.00000000000001</ele><time>2026-04-11T12:55:14.998Z</time></trkpt><trkpt lat="42.968609720672795" lon="11.418574107961186"><ele>127.0</ele><time>2026-04-11T12:55:18.998Z</time></trkpt><trkpt lat="42.968553342484334" lon="11.41863350204984"><ele>127.0</ele><time>2026-04-11T12:55:21.998Z</time></trkpt><trkpt lat="42.96849967367933" lon="11.418716866200707"><ele>127.0</ele><time>2026-04-11T12:55:25.998Z</time></trkpt><trkpt lat="42.96846377715299" lon="11.418794853007045"><ele>127.00000000000001</ele><time>2026-04-11T12:55:29.998Z</time></trkpt><trkpt lat="42.968417862585945" lon="11.418902459961691"><ele>127.0</ele><time>2026-04-11T12:55:33.998Z</time></trkpt><trkpt lat="42.96838886793473" lon="11.419003688579314"><ele>128.0</ele><time>2026-04-11T12:55:37.998Z</time></trkpt><trkpt lat="42.96837763350867" lon="11.419097363371753"><ele>129.0</ele><time>2026-04-11T12:55:40.998Z</time></trkpt><trkpt lat="42.968369420760105" lon="11.4191967005178"><ele>130.0</ele><time>2026-04-11T12:55:43.998Z</time></trkpt><trkpt lat="42.96836165246018" lon="11.419301305208771"><ele>131.0</ele><time>2026-04-11T12:55:45.998Z</time></trkpt><trkpt lat="42.96834533262897" lon="11.419399050821063"><ele>132.0</ele><time>2026-04-11T12:55:48.998Z</time></trkpt><trkpt lat="42.96833020443038" lon="11.419498462001823"><ele>133.0</ele><time>2026-04-11T12:55:51.998Z</time></trkpt><trkpt lat="42.96831391822214" lon="11.419595756661911"><ele>134.0</ele><time>2026-04-11T12:55:54.998Z</time></trkpt><trkpt lat="42.96830309750801" lon="11.419691554899199"><ele>134.0</ele><time>2026-04-11T12:55:57.998Z</time></trkpt><trkpt lat="42.968308842588854" lon="11.419799144535085"><ele>134.0</ele><time>2026-04-11T12:56:01.998Z</time></trkpt><trkpt lat="42.96831660033301" lon="11.419902132647966"><ele>134.0</ele><time>2026-04-11T12:56:05Z</time></trkpt><trkpt lat="42.96833339670958" lon="11.420011823885094"><ele>134.0</ele><time>2026-04-11T12:56:07Z</time></trkpt><trkpt lat="42.968361504338084" lon="11.420162000318266"><ele>134.0</ele><time>2026-04-11T12:56:09Z</time></trkpt><trkpt lat="42.96838101543055" lon="11.420252362039811"><ele>134.0</ele><time>2026-04-11T12:56:10Z</time></trkpt><trkpt lat="42.9683747499247" lon="11.420362239198745"><ele>134.66666666666666</ele><time>2026-04-11T12:56:11Z</time></trkpt><trkpt lat="42.968399511928645" lon="11.42046599580665"><ele>135.33333333333331</ele><time>2026-04-11T12:56:12Z</time></trkpt><trkpt lat="42.96842537760362" lon="11.420576326410547"><ele>136.0</ele><time>2026-04-11T12:56:13Z</time></trkpt><trkpt lat="42.96845224787849" lon="11.420694402022818"><ele>136.66666666666666</ele><time>2026-04-11T12:56:14Z</time></trkpt><trkpt lat="42.96847899096007" lon="11.420811918783292"><ele>137.33333333333334</ele><time>2026-04-11T12:56:15Z</time></trkpt><trkpt lat="42.968505230937325" lon="11.420927224776996"><ele>138.0</ele><time>2026-04-11T12:56:16Z</time></trkpt><trkpt lat="42.96853054716697" lon="11.421039398595031"><ele>138.0</ele><time>2026-04-11T12:56:17Z</time></trkpt><trkpt lat="42.96855425550096" lon="11.421145829682565"><ele>138.0</ele><time>2026-04-11T12:56:18Z</time></trkpt><trkpt lat="42.968577649617096" lon="11.421250850200334"><ele>138.0</ele><time>2026-04-11T12:56:19Z</time></trkpt><trkpt lat="42.96860660975328" lon="11.421380857572727"><ele>138.0</ele><time>2026-04-11T12:56:21Z</time></trkpt><trkpt lat="42.9686643413494" lon="11.421470905424087"><ele>138.0</ele><time>2026-04-11T12:56:34.999Z</time></trkpt><trkpt lat="42.96867541069567" lon="11.421574166601285"><ele>138.0</ele><time>2026-04-11T12:56:37.999Z</time></trkpt><trkpt lat="42.96869099227982" lon="11.42170887218872"><ele>138.4</ele><time>2026-04-11T12:56:40.999Z</time></trkpt><trkpt lat="42.968713815664145" lon="11.421819725085848"><ele>138.8</ele><time>2026-04-11T12:56:42.999Z</time></trkpt><trkpt lat="42.96874572528902" lon="11.421936199229254"><ele>139.2</ele><time>2026-04-11T12:56:44.999Z</time></trkpt><trkpt lat="42.968771521469876" lon="11.422062191070108"><ele>139.6</ele><time>2026-04-11T12:56:46.999Z</time></trkpt><trkpt lat="42.96880669059281" lon="11.422191580746883"><ele>140.0</ele><time>2026-04-11T12:56:48.999Z</time></trkpt><trkpt lat="42.96883121401452" lon="11.422322285670893"><ele>140.0</ele><time>2026-04-11T12:56:50.999Z</time></trkpt><trkpt lat="42.9688413202844" lon="11.422454970403018"><ele>140.0</ele><time>2026-04-11T12:56:52.999Z</time></trkpt><trkpt lat="42.96884838273189" lon="11.42257939940448"><ele>140.0</ele><time>2026-04-11T12:56:54.999Z</time></trkpt><trkpt lat="42.968845791631196" lon="11.422692504188694"><ele>140.0</ele><time>2026-04-11T12:56:56.999Z</time></trkpt><trkpt lat="42.968836533549045" lon="11.422803516604295"><ele>140.0</ele><time>2026-04-11T12:56:58.999Z</time></trkpt><trkpt lat="42.96882923285139" lon="11.422910956388062"><ele>140.0</ele><time>2026-04-11T12:57:00.999Z</time></trkpt><trkpt lat="42.96882168709649" lon="11.423017358567686"><ele>140.33333333333331</ele><time>2026-04-11T12:57:02.999Z</time></trkpt><trkpt lat="42.968811511558535" lon="11.423118747117183"><ele>140.66666666666666</ele><time>2026-04-11T12:57:04.999Z</time></trkpt><trkpt lat="42.96879570744099" lon="11.423211528601023"><ele>141.0</ele><time>2026-04-11T12:57:06.999Z</time></trkpt><trkpt lat="42.96878476371206" lon="11.4233162343828"><ele>141.33333333333334</ele><time>2026-04-11T12:57:08.999Z</time></trkpt><trkpt lat="42.96877017328975" lon="11.423415073720909"><ele>141.66666666666669</ele><time>2026-04-11T12:57:10.999Z</time></trkpt><trkpt lat="42.96876236421841" lon="11.423525511994493"><ele>142.0</ele><time>2026-04-11T12:57:12.999Z</time></trkpt><trkpt lat="42.96874776341489" lon="11.423640765775364"><ele>142.0</ele><time>2026-04-11T12:57:14.999Z</time></trkpt><trkpt lat="42.96873263274979" lon="11.423756797534882"><ele>142.0</ele><time>2026-04-11T12:57:16.998Z</time></trkpt><trkpt lat="42.96871255896064" lon="11.42387238099807"><ele>142.0</ele><time>2026-04-11T12:57:18.998Z</time></trkpt><trkpt lat="42.9686813546179" lon="11.42399386112572"><ele>142.0</ele><time>2026-04-11T12:57:20.998Z</time></trkpt><trkpt lat="42.96865937860858" lon="11.42411942279736"><ele>142.0</ele><time>2026-04-11T12:57:22.998Z</time></trkpt><trkpt lat="42.96862091700065" lon="11.424230217525777"><ele>142.0</ele><time>2026-04-11T12:57:24.998Z</time></trkpt><trkpt lat="42.968587199298995" lon="11.424339048058728"><ele>142.0</ele><time>2026-04-11T12:57:26.998Z</time></trkpt><trkpt lat="42.968548751030305" lon="11.424448187450615"><ele>142.0</ele><time>2026-04-11T12:57:28.998Z</time></trkpt><trkpt lat="42.96850765625687" lon="11.424553377740594"><ele>142.0</ele><time>2026-04-11T12:57:30.998Z</time></trkpt><trkpt lat="42.96847180091475" lon="11.424669816849859"><ele>142.0</ele><time>2026-04-11T12:57:32.998Z</time></trkpt><trkpt lat="42.96842949430374" lon="11.424792811947565"><ele>139.4</ele><time>2026-04-11T12:57:34.998Z</time></trkpt><trkpt lat="42.96835462710356" lon="11.424903040546976"><ele>136.79999999999998</ele><time>2026-04-11T12:57:36.998Z</time></trkpt><trkpt lat="42.96831524157517" lon="11.425062566880698"><ele>134.2</ele><time>2026-04-11T12:57:38.998Z</time></trkpt><trkpt lat="42.9682860688177" lon="11.425143318577879"><ele>131.6</ele><time>2026-04-11T12:57:39.998Z</time></trkpt><trkpt lat="42.96823247034863" lon="11.425301569292987"><ele>129.0</ele><time>2026-04-11T12:57:41.998Z</time></trkpt><trkpt lat="42.96820432171969" lon="11.425380731606282"><ele>129.0</ele><time>2026-04-11T12:57:42.998Z</time></trkpt><trkpt lat="42.96817240459428" lon="11.425463589594546"><ele>129.0</ele><time>2026-04-11T12:57:43.998Z</time></trkpt><trkpt lat="42.96813828740942" lon="11.42554647678922"><ele>129.0</ele><time>2026-04-11T12:57:44.998Z</time></trkpt><trkpt lat="42.968108415356525" lon="11.425637094072979"><ele>129.0</ele><time>2026-04-11T12:57:45.998Z</time></trkpt><trkpt lat="42.968078651245236" lon="11.425735389968349"><ele>129.0</ele><time>2026-04-11T12:57:46.998Z</time></trkpt><trkpt lat="42.96804657148917" lon="11.42583487891023"><ele>129.0</ele><time>2026-04-11T12:57:47.998Z</time></trkpt><trkpt lat="42.96800167103565" lon="11.425983553358797"><ele>128.66666666666666</ele><time>2026-04-11T12:57:49.998Z</time></trkpt><trkpt lat="42.967980817823474" lon="11.426064964380213"><ele>128.33333333333334</ele><time>2026-04-11T12:57:50.998Z</time></trkpt><trkpt lat="42.967951628595145" lon="11.426153781070001"><ele>128.0</ele><time>2026-04-11T12:57:51.998Z</time></trkpt><trkpt lat="42.967916400607386" lon="11.42624454069771"><ele>127.66666666666667</ele><time>2026-04-11T12:57:52.998Z</time></trkpt><trkpt lat="42.96787365829305" lon="11.426339024074815"><ele>127.33333333333334</ele><time>2026-04-11T12:57:53.998Z</time></trkpt><trkpt lat="42.967824397143474" lon="11.426428532842374"><ele>127.0</ele><time>2026-04-11T12:57:54.998Z</time></trkpt><trkpt lat="42.967768830829655" lon="11.426510507258458"><ele>128.33333333333334</ele><time>2026-04-11T12:57:55.998Z</time></trkpt><trkpt lat="42.967709844259595" lon="11.426590112646776"><ele>129.66666666666669</ele><time>2026-04-11T12:57:56.998Z</time></trkpt><trkpt lat="42.967649456725646" lon="11.426665669808411"><ele>131.0</ele><time>2026-04-11T12:57:57.998Z</time></trkpt><trkpt lat="42.967598470629966" lon="11.426726221611453"><ele>132.33333333333334</ele><time>2026-04-11T12:57:58.998Z</time></trkpt><trkpt lat="42.967529716426895" lon="11.426829207297141"><ele>133.66666666666666</ele><time>2026-04-11T12:58:00.998Z</time></trkpt><trkpt lat="42.96747965298118" lon="11.426889235964696"><ele>135.0</ele><time>2026-04-11T12:58:02.998Z</time></trkpt><trkpt lat="42.96742905349069" lon="11.426958564980508"><ele>135.83333333333334</ele><time>2026-04-11T12:58:44.999Z</time></trkpt><trkpt lat="42.96748787196291" lon="11.427040109118984"><ele>136.66666666666666</ele><time>2026-04-11T12:58:47.999Z</time></trkpt><trkpt lat="42.967505655601485" lon="11.427124210039976"><ele>137.5</ele><time>2026-04-11T12:58:50.999Z</time></trkpt><trkpt lat="42.96753816674201" lon="11.427222528978922"><ele>138.33333333333331</ele><time>2026-04-11T12:58:54.999Z</time></trkpt><trkpt lat="42.96755938236201" lon="11.427317037153157"><ele>139.16666666666666</ele><time>2026-04-11T12:58:58.999Z</time></trkpt><trkpt lat="42.96759332882056" lon="11.427412962603732"><ele>140.0</ele><time>2026-04-11T12:59:03.999Z</time></trkpt><trkpt lat="42.96761376214396" lon="11.427526246143048"><ele>140.0</ele><time>2026-04-11T12:59:07.999Z</time></trkpt><trkpt lat="42.967625700662566" lon="11.427631397795171"><ele>140.0</ele><time>2026-04-11T12:59:10.999Z</time></trkpt><trkpt lat="42.967647098589204" lon="11.427743011851554"><ele>140.0</ele><time>2026-04-11T12:59:13.999Z</time></trkpt><trkpt lat="42.967663079699236" lon="11.427834599065488"><ele>140.0</ele><time>2026-04-11T12:59:15.999Z</time></trkpt><trkpt lat="42.967674544352946" lon="11.427928153335445"><ele>140.0</ele><time>2026-04-11T12:59:17.999Z</time></trkpt><trkpt lat="42.96769769980186" lon="11.428047427080692"><ele>140.0</ele><time>2026-04-11T12:59:20.999Z</time></trkpt><trkpt lat="42.967712701570484" lon="11.428161673291683"><ele>140.66666666666666</ele><time>2026-04-11T12:59:22.998Z</time></trkpt><trkpt lat="42.967732446582716" lon="11.42828780793141"><ele>141.33333333333331</ele><time>2026-04-11T12:59:24.998Z</time></trkpt><trkpt lat="42.96773814718826" lon="11.42839018746193"><ele>142.0</ele><time>2026-04-11T12:59:26.998Z</time></trkpt><trkpt lat="42.96775000643861" lon="11.428489343219718"><ele>142.66666666666666</ele><time>2026-04-11T12:59:28.998Z</time></trkpt><trkpt lat="42.9677584044453" lon="11.42858765021255"><ele>143.33333333333334</ele><time>2026-04-11T12:59:30.998Z</time></trkpt><trkpt lat="42.967773380219256" lon="11.428674631407343"><ele>144.0</ele><time>2026-04-11T12:59:32.998Z</time></trkpt><trkpt lat="42.967794128831045" lon="11.428789633186248"><ele>144.0</ele><time>2026-04-11T12:59:35.998Z</time></trkpt><trkpt lat="42.96780619744692" lon="11.42888233952006"><ele>144.0</ele><time>2026-04-11T12:59:38.998Z</time></trkpt><trkpt lat="42.967834098018145" lon="11.428771237945128"><ele>144.0</ele><time>2026-04-11T12:59:54.998Z</time></trkpt><trkpt lat="42.967810810126366" lon="11.428664961526112"><ele>144.0</ele><time>2026-04-11T12:59:56.998Z</time></trkpt><trkpt lat="42.967790561871226" lon="11.428559608955617"><ele>144.0</ele><time>2026-04-11T12:59:58.998Z</time></trkpt><trkpt lat="42.967770212050425" lon="11.428428814897806"><ele>144.0</ele><time>2026-04-11T13:00:00.998Z</time></trkpt><trkpt lat="42.967753214860885" lon="11.428269572889413"><ele>144.00000000000003</ele><time>2026-04-11T13:00:02.998Z</time></trkpt><trkpt lat="42.96774382275288" lon="11.428181818809408"><ele>144.0</ele><time>2026-04-11T13:00:03.998Z</time></trkpt><trkpt lat="42.96772907581686" lon="11.428088429889973"><ele>144.0</ele><time>2026-04-11T13:00:04.998Z</time></trkpt><trkpt lat="42.96771717487872" lon="11.427990532134146"><ele>144.0</ele><time>2026-04-11T13:00:05.998Z</time></trkpt><trkpt lat="42.96770367046082" lon="11.427888899858758"><ele>144.0</ele><time>2026-04-11T13:00:06.998Z</time></trkpt><trkpt lat="42.967687476918016" lon="11.427785695968382"><ele>144.00000000000003</ele><time>2026-04-11T13:00:07.998Z</time></trkpt><trkpt lat="42.96766876409309" lon="11.427684970258138"><ele>144.0</ele><time>2026-04-11T13:00:08.998Z</time></trkpt><trkpt lat="42.96765000388812" lon="11.427585674158687"><ele>143.33333333333334</ele><time>2026-04-11T13:00:09.998Z</time></trkpt><trkpt lat="42.96763166565525" lon="11.42748294737152"><ele>142.66666666666666</ele><time>2026-04-11T13:00:10.998Z</time></trkpt><trkpt lat="42.96761601362829" lon="11.427390483864784"><ele>142.0</ele><time>2026-04-11T13:00:11.998Z</time></trkpt><trkpt lat="42.967594778976384" lon="11.427269871319735"><ele>141.33333333333331</ele><time>2026-04-11T13:00:13.998Z</time></trkpt><trkpt lat="42.96757575288299" lon="11.427187299685855"><ele>140.66666666666666</ele><time>2026-04-11T13:00:17Z</time></trkpt><trkpt lat="42.967531506677716" lon="11.427059203059416"><ele>140.0</ele><time>2026-04-11T13:00:20Z</time></trkpt><trkpt lat="42.96747849352319" lon="11.42696149630185"><ele>136.6</ele><time>2026-04-11T13:00:22Z</time></trkpt><trkpt lat="42.9674062945237" lon="11.426997775344303"><ele>133.2</ele><time>2026-04-11T13:00:24Z</time></trkpt><trkpt lat="42.9673541054589" lon="11.427090165079637"><ele>129.8</ele><time>2026-04-11T13:00:26Z</time></trkpt><trkpt lat="42.967287524388205" lon="11.427180566066243"><ele>126.4</ele><time>2026-04-11T13:00:28Z</time></trkpt><trkpt lat="42.96721617382192" lon="11.427297179349733"><ele>123.0</ele><time>2026-04-11T13:00:30Z</time></trkpt><trkpt lat="42.96713929038634" lon="11.427388762040595"><ele>123.0</ele><time>2026-04-11T13:00:32Z</time></trkpt><trkpt lat="42.967082050842855" lon="11.427511355332266"><ele>123.0</ele><time>2026-04-11T13:00:34Z</time></trkpt><trkpt lat="42.967009953649395" lon="11.427634156358428"><ele>123.0</ele><time>2026-04-11T13:00:35.999Z</time></trkpt><trkpt lat="42.966934463159" lon="11.42774275983498"><ele>123.0</ele><time>2026-04-11T13:00:37.999Z</time></trkpt><trkpt lat="42.96685894359227" lon="11.427871191973283"><ele>123.0</ele><time>2026-04-11T13:00:39.999Z</time></trkpt><trkpt lat="42.96681553742997" lon="11.42794466884336"><ele>123.0</ele><time>2026-04-11T13:00:40.999Z</time></trkpt><trkpt lat="42.9667694660682" lon="11.428021294439326"><ele>123.0</ele><time>2026-04-11T13:00:41.999Z</time></trkpt><trkpt lat="42.966732890484366" lon="11.428112160039484"><ele>123.0</ele><time>2026-04-11T13:00:42.999Z</time></trkpt><trkpt lat="42.96665808264625" lon="11.428224939822895"><ele>123.0</ele><time>2026-04-11T13:00:44.999Z</time></trkpt><trkpt lat="42.96658343231302" lon="11.428283518442312"><ele>123.0</ele><time>2026-04-11T13:00:46.999Z</time></trkpt><trkpt lat="42.96652815300706" lon="11.428348323273907"><ele>121.66666666666667</ele><time>2026-04-11T13:00:48.999Z</time></trkpt><trkpt lat="42.966537578910554" lon="11.428449729311753"><ele>120.33333333333334</ele><time>2026-04-11T13:00:49.999Z</time></trkpt><trkpt lat="42.96649644577351" lon="11.42856552316192"><ele>119.0</ele><time>2026-04-11T13:00:51.999Z</time></trkpt><trkpt lat="42.96645086480578" lon="11.428671109101721"><ele>117.66666666666667</ele><time>2026-04-11T13:00:53.999Z</time></trkpt><trkpt lat="42.9664356179024" lon="11.42878894397228"><ele>116.33333333333334</ele><time>2026-04-11T13:00:55.999Z</time></trkpt><trkpt lat="42.966424473211994" lon="11.4288817125066"><ele>115.0</ele><time>2026-04-11T13:00:57.999Z</time></trkpt><trkpt lat="42.9664259910985" lon="11.4289821829305"><ele>115.00000000000001</ele><time>2026-04-11T13:00:59.999Z</time></trkpt><trkpt lat="42.96641741256849" lon="11.429073922756427"><ele>115.0</ele><time>2026-04-11T13:01:01.999Z</time></trkpt><trkpt lat="42.96639773140533" lon="11.429161050977957"><ele>115.0</ele><time>2026-04-11T13:01:03.999Z</time></trkpt><trkpt lat="42.96638655790134" lon="11.429286587523503"><ele>115.0</ele><time>2026-04-11T13:01:06.999Z</time></trkpt><trkpt lat="42.96637436018775" lon="11.429411553719264"><ele>115.00000000000001</ele><time>2026-04-11T13:01:09.999Z</time></trkpt><trkpt lat="42.96636908868887" lon="11.429508118884167"><ele>115.0</ele><time>2026-04-11T13:01:12.999Z</time></trkpt><trkpt lat="42.966360877118674" lon="11.429677792988434"><ele>114.85714285714283</ele><time>2026-04-11T13:01:15.999Z</time></trkpt><trkpt lat="42.966370097673334" lon="11.429781366715558"><ele>114.71428571428571</ele><time>2026-04-11T13:01:17.999Z</time></trkpt><trkpt lat="42.966378187812936" lon="11.429882215361866"><ele>114.57142857142856</ele><time>2026-04-11T13:01:19.999Z</time></trkpt><trkpt lat="42.96638667164565" lon="11.42998967193839"><ele>114.42857142857142</ele><time>2026-04-11T13:01:21.999Z</time></trkpt><trkpt lat="42.966398985463314" lon="11.430085894565092"><ele>114.28571428571428</ele><time>2026-04-11T13:01:23.999Z</time></trkpt><trkpt lat="42.966405984941176" lon="11.430185267613432"><ele>114.14285714285714</ele><time>2026-04-11T13:01:25.999Z</time></trkpt><trkpt lat="42.966422673505896" lon="11.430283115897566"><ele>114.0</ele><time>2026-04-11T13:01:27.999Z</time></trkpt><trkpt lat="42.966435502468734" lon="11.430385809216109"><ele>114.0</ele><time>2026-04-11T13:01:29.998Z</time></trkpt><trkpt lat="42.966456207234295" lon="11.43048273266646"><ele>114.0</ele><time>2026-04-11T13:01:31.998Z</time></trkpt><trkpt lat="42.96646815477202" lon="11.430570374846209"><ele>114.0</ele><time>2026-04-11T13:01:33.998Z</time></trkpt><trkpt lat="42.96648096223203" lon="11.43068255711356"><ele>114.0</ele><time>2026-04-11T13:01:35.998Z</time></trkpt><trkpt lat="42.96650169819917" lon="11.430807081561936"><ele>114.0</ele><time>2026-04-11T13:01:37.998Z</time></trkpt><trkpt lat="42.966523376683355" lon="11.430945600800976"><ele>114.0</ele><time>2026-04-11T13:01:39.998Z</time></trkpt><trkpt lat="42.96654471127888" lon="11.431090887928914"><ele>114.0</ele><time>2026-04-11T13:01:41.998Z</time></trkpt><trkpt lat="42.96658109287726" lon="11.43125074850417"><ele>114.0</ele><time>2026-04-11T13:01:43.998Z</time></trkpt><trkpt lat="42.96655249896722" lon="11.4313506105321"><ele>114.0</ele><time>2026-04-11T13:01:44.998Z</time></trkpt><trkpt lat="42.96656696883806" lon="11.43144093440679"><ele>114.0</ele><time>2026-04-11T13:01:45.998Z</time></trkpt><trkpt lat="42.96657825100423" lon="11.431532015943583"><ele>114.0</ele><time>2026-04-11T13:01:46.998Z</time></trkpt><trkpt lat="42.96662025928441" lon="11.43162077720966"><ele>114.0</ele><time>2026-04-11T13:01:47.998Z</time></trkpt><trkpt lat="42.96661966139183" lon="11.431717154318035"><ele>113.71428571428571</ele><time>2026-04-11T13:01:48.998Z</time></trkpt><trkpt lat="42.96661205878408" lon="11.431819550389942"><ele>113.42857142857142</ele><time>2026-04-11T13:01:49.998Z</time></trkpt><trkpt lat="42.96660150452114" lon="11.431918944979856"><ele>113.14285714285714</ele><time>2026-04-11T13:01:50.998Z</time></trkpt><trkpt lat="42.96659087455059" lon="11.43201703274636"><ele>112.85714285714286</ele><time>2026-04-11T13:01:51.998Z</time></trkpt><trkpt lat="42.9665789066211" lon="11.432116342486063"><ele>112.57142857142857</ele><time>2026-04-11T13:01:52.998Z</time></trkpt><trkpt lat="42.96656772577536" lon="11.432217097767671"><ele>112.28571428571428</ele><time>2026-04-11T13:01:53.998Z</time></trkpt><trkpt lat="42.966558472502236" lon="11.432311732978421"><ele>112.0</ele><time>2026-04-11T13:01:54.998Z</time></trkpt><trkpt lat="42.966548007006644" lon="11.4324074796457"><ele>112.00000000000001</ele><time>2026-04-11T13:01:55.998Z</time></trkpt><trkpt lat="42.9665406553641" lon="11.432499094332371"><ele>112.0</ele><time>2026-04-11T13:01:56.998Z</time></trkpt><trkpt lat="42.96653083448697" lon="11.43259032023552"><ele>112.0</ele><time>2026-04-11T13:01:57.998Z</time></trkpt><trkpt lat="42.96652220940874" lon="11.432676673303716"><ele>112.0</ele><time>2026-04-11T13:01:58.998Z</time></trkpt><trkpt lat="42.966501674203855" lon="11.43283318001276"><ele>112.00000000000001</ele><time>2026-04-11T13:02:00.998Z</time></trkpt><trkpt lat="42.9664937623883" lon="11.432935791258819"><ele>112.0</ele><time>2026-04-11T13:02:01.998Z</time></trkpt><trkpt lat="42.96647629719934" lon="11.433069148026688"><ele>112.19999999999999</ele><time>2026-04-11T13:02:03.998Z</time></trkpt><trkpt lat="42.966458621914484" lon="11.433212085788151"><ele>112.39999999999999</ele><time>2026-04-11T13:02:05.998Z</time></trkpt><trkpt lat="42.96645083076582" lon="11.433346202719807"><ele>112.60000000000001</ele><time>2026-04-11T13:02:07.998Z</time></trkpt><trkpt lat="42.96643275968731" lon="11.433464586781096"><ele>112.80000000000001</ele><time>2026-04-11T13:02:09.998Z</time></trkpt><trkpt lat="42.966424888886735" lon="11.43358103125986"><ele>113.0</ele><time>2026-04-11T13:02:11.998Z</time></trkpt><trkpt lat="42.96641566286081" lon="11.433692401020142"><ele>112.99999999999999</ele><time>2026-04-11T13:02:13.998Z</time></trkpt><trkpt lat="42.966403657940766" lon="11.433803197512333"><ele>113.0</ele><time>2026-04-11T13:02:15.998Z</time></trkpt><trkpt lat="42.966393116302235" lon="11.433906116509082"><ele>113.0</ele><time>2026-04-11T13:02:17.998Z</time></trkpt><trkpt lat="42.96639564241549" lon="11.434014304926237"><ele>113.0</ele><time>2026-04-11T13:02:20Z</time></trkpt><trkpt lat="42.966398234875015" lon="11.434115769654442"><ele>112.99999999999999</ele><time>2026-04-11T13:02:22Z</time></trkpt><trkpt lat="42.9664127765045" lon="11.434215586481459"><ele>113.0</ele><time>2026-04-11T13:02:24Z</time></trkpt><trkpt lat="42.966426108826184" lon="11.434311091639382"><ele>113.49999999999999</ele><time>2026-04-11T13:02:26Z</time></trkpt><trkpt lat="42.96644485440001" lon="11.434406660419253"><ele>114.0</ele><time>2026-04-11T13:02:28Z</time></trkpt><trkpt lat="42.96647095021574" lon="11.43449080125154"><ele>114.5</ele><time>2026-04-11T13:02:30Z</time></trkpt><trkpt lat="42.96651185621769" lon="11.434571392085832"><ele>115.0</ele><time>2026-04-11T13:02:32Z</time></trkpt><trkpt lat="42.9665604468743" lon="11.434656681257787"><ele>115.49999999999999</ele><time>2026-04-11T13:02:34Z</time></trkpt><trkpt lat="42.966624768516624" lon="11.434738945633066"><ele>116.0</ele><time>2026-04-11T13:02:36Z</time></trkpt><trkpt lat="42.96670130689936" lon="11.434815678650768"><ele>118.0</ele><time>2026-04-11T13:02:38Z</time></trkpt><trkpt lat="42.96678406161648" lon="11.434904249292417"><ele>120.0</ele><time>2026-04-11T13:02:40Z</time></trkpt><trkpt lat="42.966873897331894" lon="11.434997760209338"><ele>122.0</ele><time>2026-04-11T13:02:41.999Z</time></trkpt><trkpt lat="42.96695348192514" lon="11.435115898690398"><ele>124.0</ele><time>2026-04-11T13:02:43.999Z</time></trkpt><trkpt lat="42.967010318061746" lon="11.435258653023645"><ele>124.0</ele><time>2026-04-11T13:02:45.999Z</time></trkpt><trkpt lat="42.96705631274814" lon="11.435398143007724"><ele>124.0</ele><time>2026-04-11T13:02:47.999Z</time></trkpt><trkpt lat="42.96711043686853" lon="11.435548346535759"><ele>124.0</ele><time>2026-04-11T13:02:49.999Z</time></trkpt><trkpt lat="42.96717397549784" lon="11.435680347472827"><ele>124.0</ele><time>2026-04-11T13:02:51.999Z</time></trkpt><trkpt lat="42.96725089975321" lon="11.435809366174421"><ele>123.33333333333334</ele><time>2026-04-11T13:02:53.999Z</time></trkpt><trkpt lat="42.96733890408006" lon="11.435930706481393"><ele>122.66666666666667</ele><time>2026-04-11T13:02:55.999Z</time></trkpt><trkpt lat="42.96738365100049" lon="11.43599802221082"><ele>122.0</ele><time>2026-04-11T13:02:56.999Z</time></trkpt><trkpt lat="42.96741505617836" lon="11.436078618402467"><ele>121.33333333333334</ele><time>2026-04-11T13:02:57.999Z</time></trkpt><trkpt lat="42.96743265114585" lon="11.436169178754351"><ele>120.66666666666667</ele><time>2026-04-11T13:02:58.999Z</time></trkpt><trkpt lat="42.96744488980215" lon="11.436258805601728"><ele>120.0</ele><time>2026-04-11T13:02:59.999Z</time></trkpt><trkpt lat="42.967458240037224" lon="11.436426990377585"><ele>119.6</ele><time>2026-04-11T13:03:01.999Z</time></trkpt><trkpt lat="42.967468416465806" lon="11.436517945536565"><ele>119.2</ele><time>2026-04-11T13:03:02.999Z</time></trkpt><trkpt lat="42.96748875625602" lon="11.436684155416065"><ele>118.80000000000001</ele><time>2026-04-11T13:03:04.999Z</time></trkpt><trkpt lat="42.96751890487012" lon="11.436843910576767"><ele>118.4</ele><time>2026-04-11T13:03:06.999Z</time></trkpt><trkpt lat="42.96755417155961" lon="11.43700500063844"><ele>118.0</ele><time>2026-04-11T13:03:08.999Z</time></trkpt><trkpt lat="42.96758630866009" lon="11.437174136249464"><ele>118.00000000000001</ele><time>2026-04-11T13:03:10.999Z</time></trkpt><trkpt lat="42.967593369938356" lon="11.43726254480516"><ele>118.0</ele><time>2026-04-11T13:03:11.999Z</time></trkpt><trkpt lat="42.96755732761281" lon="11.437350665244974"><ele>118.0</ele><time>2026-04-11T13:03:12.999Z</time></trkpt><trkpt lat="42.96753752069456" lon="11.437523831830395"><ele>118.0</ele><time>2026-04-11T13:03:14.999Z</time></trkpt><trkpt lat="42.967527237635295" lon="11.437610493335127"><ele>118.00000000000001</ele><time>2026-04-11T13:03:15.999Z</time></trkpt><trkpt lat="42.96751691404086" lon="11.437697494469674"><ele>118.0</ele><time>2026-04-11T13:03:16.999Z</time></trkpt><trkpt lat="42.96750700140091" lon="11.437785133106372"><ele>118.00000000000001</ele><time>2026-04-11T13:03:17.999Z</time></trkpt><trkpt lat="42.9674891482602" lon="11.437955608834718"><ele>118.0</ele><time>2026-04-11T13:03:19.999Z</time></trkpt><trkpt lat="42.967483410716795" lon="11.438041450743782"><ele>118.0</ele><time>2026-04-11T13:03:20.999Z</time></trkpt><trkpt lat="42.96749556690611" lon="11.438209245264517"><ele>118.0</ele><time>2026-04-11T13:03:22.999Z</time></trkpt><trkpt lat="42.96749294387928" lon="11.438295374291794"><ele>118.00000000000001</ele><time>2026-04-11T13:03:23.999Z</time></trkpt><trkpt lat="42.96749542579096" lon="11.438382726969044"><ele>118.0</ele><time>2026-04-11T13:03:24.999Z</time></trkpt><trkpt lat="42.967497433660355" lon="11.438473158690742"><ele>118.0</ele><time>2026-04-11T13:03:25.999Z</time></trkpt><trkpt lat="42.967499310334276" lon="11.438563204421879"><ele>118.0</ele><time>2026-04-11T13:03:26.999Z</time></trkpt><trkpt lat="42.96750145390589" lon="11.438654333574224"><ele>118.0</ele><time>2026-04-11T13:03:27.999Z</time></trkpt><trkpt lat="42.96750739237142" lon="11.438748124500258"><ele>118.0</ele><time>2026-04-11T13:03:28.999Z</time></trkpt><trkpt lat="42.96751067995081" lon="11.438838549065245"><ele>118.0</ele><time>2026-04-11T13:03:29.999Z</time></trkpt><trkpt lat="42.967513055565426" lon="11.438927449202586"><ele>118.0</ele><time>2026-04-11T13:03:30.999Z</time></trkpt><trkpt lat="42.96751250344364" lon="11.439017837669793"><ele>118.0</ele><time>2026-04-11T13:03:31.999Z</time></trkpt><trkpt lat="42.967511687283576" lon="11.439107881333829"><ele>118.0</ele><time>2026-04-11T13:03:32.999Z</time></trkpt><trkpt lat="42.96751691597836" lon="11.439197489503727"><ele>118.0</ele><time>2026-04-11T13:03:33.998Z</time></trkpt><trkpt lat="42.967515029528805" lon="11.439286532113613"><ele>118.0</ele><time>2026-04-11T13:03:34.998Z</time></trkpt><trkpt lat="42.967507681177956" lon="11.439381933646931"><ele>118.0</ele><time>2026-04-11T13:03:35.998Z</time></trkpt><trkpt lat="42.96750082214214" lon="11.43947519660773"><ele>118.0</ele><time>2026-04-11T13:03:36.998Z</time></trkpt><trkpt lat="42.96748996213151" lon="11.439566454871878"><ele>118.0</ele><time>2026-04-11T13:03:37.998Z</time></trkpt><trkpt lat="42.967485275848176" lon="11.439664171417395"><ele>118.0</ele><time>2026-04-11T13:03:38.998Z</time></trkpt><trkpt lat="42.967473106106866" lon="11.4397586349579"><ele>118.0</ele><time>2026-04-11T13:03:39.998Z</time></trkpt><trkpt lat="42.96746261205292" lon="11.439846113915237"><ele>118.00000000000001</ele><time>2026-04-11T13:03:40.998Z</time></trkpt><trkpt lat="42.9674515015727" lon="11.439935647607413"><ele>118.00000000000001</ele><time>2026-04-11T13:03:41.998Z</time></trkpt><trkpt lat="42.96743309823572" lon="11.44010656229762"><ele>118.0</ele><time>2026-04-11T13:03:43.998Z</time></trkpt><trkpt lat="42.96742675611746" lon="11.440256497807411"><ele>118.0</ele><time>2026-04-11T13:03:45.998Z</time></trkpt><trkpt lat="42.96742157188626" lon="11.44040072692245"><ele>117.80000000000001</ele><time>2026-04-11T13:03:47.998Z</time></trkpt><trkpt lat="42.967424795347696" lon="11.440535670177297"><ele>117.60000000000001</ele><time>2026-04-11T13:03:49.998Z</time></trkpt><trkpt lat="42.96744167879527" lon="11.440664967709658"><ele>117.39999999999999</ele><time>2026-04-11T13:03:51.998Z</time></trkpt><trkpt lat="42.96745919833265" lon="11.44078974062654"><ele>117.19999999999999</ele><time>2026-04-11T13:03:53.998Z</time></trkpt><trkpt lat="42.96747559671691" lon="11.440921264688555"><ele>117.0</ele><time>2026-04-11T13:03:55.998Z</time></trkpt><trkpt lat="42.967484147986816" lon="11.44106033153753"><ele>117.0</ele><time>2026-04-11T13:03:57.998Z</time></trkpt><trkpt lat="42.967426865440444" lon="11.441200365731797"><ele>116.99999999999999</ele><time>2026-04-11T13:03:59.998Z</time></trkpt><trkpt lat="42.96737448060701" lon="11.441349759042996"><ele>116.99999999999999</ele><time>2026-04-11T13:04:01.998Z</time></trkpt><trkpt lat="42.96733869690012" lon="11.441437354991786"><ele>117.0</ele><time>2026-04-11T13:04:02.998Z</time></trkpt><trkpt lat="42.9673013992111" lon="11.441528657101172"><ele>117.0</ele><time>2026-04-11T13:04:03.998Z</time></trkpt><trkpt lat="42.967264781075265" lon="11.441623162362617"><ele>117.66666666666667</ele><time>2026-04-11T13:04:04.998Z</time></trkpt><trkpt lat="42.96723317577385" lon="11.44172925157771"><ele>118.33333333333334</ele><time>2026-04-11T13:04:05.998Z</time></trkpt><trkpt lat="42.96720538691052" lon="11.441833303149897"><ele>119.0</ele><time>2026-04-11T13:04:06.998Z</time></trkpt><trkpt lat="42.9671888166921" lon="11.44194767005885"><ele>119.66666666666667</ele><time>2026-04-11T13:04:07.998Z</time></trkpt><trkpt lat="42.967172619907984" lon="11.442055533877365"><ele>120.33333333333334</ele><time>2026-04-11T13:04:08.998Z</time></trkpt><trkpt lat="42.96715915235959" lon="11.442159722631851"><ele>121.0</ele><time>2026-04-11T13:04:09.998Z</time></trkpt><trkpt lat="42.967147170257626" lon="11.442260754429157"><ele>121.83333333333334</ele><time>2026-04-11T13:04:10.998Z</time></trkpt><trkpt lat="42.96713672228332" lon="11.442352852378798"><ele>122.66666666666667</ele><time>2026-04-11T13:04:11.998Z</time></trkpt><trkpt lat="42.96712644262923" lon="11.442443466449182"><ele>123.5</ele><time>2026-04-11T13:04:12.998Z</time></trkpt><trkpt lat="42.9671164696732" lon="11.442531377109148"><ele>124.33333333333334</ele><time>2026-04-11T13:04:13.998Z</time></trkpt><trkpt lat="42.96710658481499" lon="11.442618511303069"><ele>125.16666666666667</ele><time>2026-04-11T13:04:14.998Z</time></trkpt><trkpt lat="42.9670878295478" lon="11.44278383732652"><ele>126.0</ele><time>2026-04-11T13:04:16.998Z</time></trkpt><trkpt lat="42.967070154271454" lon="11.442940156212538"><ele>126.4</ele><time>2026-04-11T13:04:18.998Z</time></trkpt><trkpt lat="42.96705517481001" lon="11.44309162644183"><ele>126.8</ele><time>2026-04-11T13:04:20.998Z</time></trkpt><trkpt lat="42.96704261373723" lon="11.443239475306733"><ele>127.20000000000002</ele><time>2026-04-11T13:04:22.998Z</time></trkpt><trkpt lat="42.96702824567268" lon="11.443383251542906"><ele>127.60000000000001</ele><time>2026-04-11T13:04:24.998Z</time></trkpt><trkpt lat="42.96701223628688" lon="11.443523691548004"><ele>128.0</ele><time>2026-04-11T13:04:27Z</time></trkpt><trkpt lat="42.96699588736177" lon="11.443663889192818"><ele>126.99999999999999</ele><time>2026-04-11T13:04:29Z</time></trkpt><trkpt lat="42.967012228846905" lon="11.443802468161515"><ele>126.0</ele><time>2026-04-11T13:04:31Z</time></trkpt><trkpt lat="42.967000832533984" lon="11.4439161496802"><ele>125.0</ele><time>2026-04-11T13:04:33Z</time></trkpt><trkpt lat="42.96699155864629" lon="11.444008863399654"><ele>124.0</ele><time>2026-04-11T13:04:35Z</time></trkpt><trkpt lat="42.96698213782053" lon="11.444108243304344"><ele>122.99999999999999</ele><time>2026-04-11T13:04:38Z</time></trkpt><trkpt lat="42.966965879191534" lon="11.444197984931082"><ele>122.0</ele><time>2026-04-11T13:04:41Z</time></trkpt><trkpt lat="42.96695031492548" lon="11.444317106602979"><ele>122.0</ele><time>2026-04-11T13:04:43.999Z</time></trkpt><trkpt lat="42.96693583804202" lon="11.444425254695611"><ele>121.99999999999999</ele><time>2026-04-11T13:04:45.999Z</time></trkpt><trkpt lat="42.96692629142329" lon="11.444548533202115"><ele>121.99999999999999</ele><time>2026-04-11T13:04:47.999Z</time></trkpt><trkpt lat="42.96693398882067" lon="11.444683729224446"><ele>122.0</ele><time>2026-04-11T13:04:49.999Z</time></trkpt><trkpt lat="42.96698127876343" lon="11.444805615152285"><ele>122.0</ele><time>2026-04-11T13:04:51.999Z</time></trkpt><trkpt lat="42.96704400053047" lon="11.444898729725416"><ele>122.49999999999999</ele><time>2026-04-11T13:04:53.999Z</time></trkpt><trkpt lat="42.96709638261469" lon="11.44496386763249"><ele>123.0</ele><time>2026-04-11T13:04:55.999Z</time></trkpt><trkpt lat="42.967157721295074" lon="11.445005405968686"><ele>123.5</ele><time>2026-04-11T13:04:57.999Z</time></trkpt><trkpt lat="42.967246134549846" lon="11.44502599716265"><ele>124.0</ele><time>2026-04-11T13:05:00.999Z</time></trkpt><trkpt lat="42.96733062422102" lon="11.445020160152307"><ele>124.49999999999999</ele><time>2026-04-11T13:05:03.999Z</time></trkpt><trkpt lat="42.96740980499541" lon="11.445017868476608"><ele>125.0</ele><time>2026-04-11T13:05:06.999Z</time></trkpt><trkpt lat="42.96749330738501" lon="11.444994062823117"><ele>125.0</ele><time>2026-04-11T13:05:09.999Z</time></trkpt><trkpt lat="42.96756943612905" lon="11.444966371493818"><ele>125.0</ele><time>2026-04-11T13:05:12.999Z</time></trkpt><trkpt lat="42.967630916742856" lon="11.444941055980346"><ele>125.0</ele><time>2026-04-11T13:05:15.999Z</time></trkpt><trkpt lat="42.96770210380032" lon="11.444932100209764"><ele>125.0</ele><time>2026-04-11T13:05:18.999Z</time></trkpt><trkpt lat="42.967767080290514" lon="11.444957872488093"><ele>125.0</ele><time>2026-04-11T13:05:21.999Z</time></trkpt><trkpt lat="42.967837161299755" lon="11.445007205382861"><ele>125.0</ele><time>2026-04-11T13:05:24.999Z</time></trkpt><trkpt lat="42.96788377694725" lon="11.445075672298092"><ele>125.0</ele><time>2026-04-11T13:05:27.999Z</time></trkpt><trkpt lat="42.967915248915716" lon="11.445173647456096"><ele>124.99999999999999</ele><time>2026-04-11T13:05:31.999Z</time></trkpt><trkpt lat="42.96793935911253" lon="11.445255080264257"><ele>125.0</ele><time>2026-04-11T13:05:34.999Z</time></trkpt><trkpt lat="42.967985835587164" lon="11.445349662189548"><ele>125.0</ele><time>2026-04-11T13:05:38.998Z</time></trkpt><trkpt lat="42.96803776214143" lon="11.445429463468768"><ele>125.0</ele><time>2026-04-11T13:05:42.998Z</time></trkpt><trkpt lat="42.96811116174392" lon="11.445488369147958"><ele>124.99999999999999</ele><time>2026-04-11T13:05:46.998Z</time></trkpt><trkpt lat="42.96817897649565" lon="11.445529947529645"><ele>125.0</ele><time>2026-04-11T13:05:50.998Z</time></trkpt><trkpt lat="42.968249827278576" lon="11.445528452930963"><ele>125.85714285714286</ele><time>2026-04-11T13:05:53.998Z</time></trkpt><trkpt lat="42.96831602012469" lon="11.445516397369124"><ele>126.71428571428572</ele><time>2026-04-11T13:05:57.998Z</time></trkpt><trkpt lat="42.968394578410276" lon="11.445501739208366"><ele>127.57142857142858</ele><time>2026-04-11T13:06:00.998Z</time></trkpt><trkpt lat="42.96846250144721" lon="11.44549262947138"><ele>128.42857142857144</ele><time>2026-04-11T13:06:04.998Z</time></trkpt><trkpt lat="42.96852876385467" lon="11.44549271113792"><ele>129.2857142857143</ele><time>2026-04-11T13:06:07.998Z</time></trkpt><trkpt lat="42.968587227585495" lon="11.445529471916966"><ele>130.14285714285714</ele><time>2026-04-11T13:06:10.998Z</time></trkpt><trkpt lat="42.968641771883696" lon="11.44558395075539"><ele>131.0</ele><time>2026-04-11T13:06:14.998Z</time></trkpt><trkpt lat="42.968675205345775" lon="11.445682256935406"><ele>131.0</ele><time>2026-04-11T13:06:18.998Z</time></trkpt><trkpt lat="42.968721751291866" lon="11.445781217502763"><ele>131.0</ele><time>2026-04-11T13:06:22.998Z</time></trkpt><trkpt lat="42.96877311500037" lon="11.445877333435261"><ele>131.0</ele><time>2026-04-11T13:06:26.998Z</time></trkpt><trkpt lat="42.96880525479879" lon="11.445963933940307"><ele>131.0</ele><time>2026-04-11T13:06:30.998Z</time></trkpt><trkpt lat="42.96883396466669" lon="11.446068156743431"><ele>131.0</ele><time>2026-04-11T13:06:34.999Z</time></trkpt><trkpt lat="42.968857719589174" lon="11.446156331735688"><ele>131.0</ele><time>2026-04-11T13:06:38.999Z</time></trkpt><trkpt lat="42.96886314111686" lon="11.446263713890676"><ele>131.85714285714286</ele><time>2026-04-11T13:06:42.999Z</time></trkpt><trkpt lat="42.968890471903016" lon="11.44636774203483"><ele>132.71428571428572</ele><time>2026-04-11T13:06:46.999Z</time></trkpt><trkpt lat="42.96891877963449" lon="11.446446064639275"><ele>133.57142857142858</ele><time>2026-04-11T13:06:49.999Z</time></trkpt><trkpt lat="42.96896147484147" lon="11.446520732913188"><ele>134.42857142857144</ele><time>2026-04-11T13:06:53.999Z</time></trkpt><trkpt lat="42.96901694807641" lon="11.446578429402479"><ele>135.28571428571428</ele><time>2026-04-11T13:06:57.999Z</time></trkpt><trkpt lat="42.96907531073167" lon="11.44662561913962"><ele>136.14285714285717</ele><time>2026-04-11T13:07:01.999Z</time></trkpt><trkpt lat="42.96914680756066" lon="11.446657368489484"><ele>137.0</ele><time>2026-04-11T13:07:05.999Z</time></trkpt><trkpt lat="42.969203149394986" lon="11.446699709301761"><ele>137.0</ele><time>2026-04-11T13:07:08.999Z</time></trkpt><trkpt lat="42.969275405388515" lon="11.446763717506927"><ele>137.0</ele><time>2026-04-11T13:07:12.999Z</time></trkpt><trkpt lat="42.9693324299716" lon="11.446807031565704"><ele>137.0</ele><time>2026-04-11T13:07:15.999Z</time></trkpt><trkpt lat="42.96939063196761" lon="11.446861778008929"><ele>137.0</ele><time>2026-04-11T13:07:18.999Z</time></trkpt><trkpt lat="42.96945388590871" lon="11.446932654949856"><ele>137.0</ele><time>2026-04-11T13:07:21.999Z</time></trkpt><trkpt lat="42.96949533366282" lon="11.447041790698988"><ele>137.0</ele><time>2026-04-11T13:07:24.999Z</time></trkpt><trkpt lat="42.96951539914926" lon="11.44716311715872"><ele>139.33333333333331</ele><time>2026-04-11T13:07:27.999Z</time></trkpt><trkpt lat="42.96950866209264" lon="11.447280971632603"><ele>141.66666666666666</ele><time>2026-04-11T13:07:30.999Z</time></trkpt><trkpt lat="42.96950690083288" lon="11.4473724499743"><ele>144.0</ele><time>2026-04-11T13:07:33.999Z</time></trkpt><trkpt lat="42.969518658193216" lon="11.44746623707093"><ele>146.33333333333334</ele><time>2026-04-11T13:07:34.999Z</time></trkpt><trkpt lat="42.96952998641742" lon="11.44759219520929"><ele>148.66666666666669</ele><time>2026-04-11T13:07:36.999Z</time></trkpt><trkpt lat="42.969562933936366" lon="11.447728459837034"><ele>151.0</ele><time>2026-04-11T13:07:38.999Z</time></trkpt><trkpt lat="42.969615174920165" lon="11.447840425945598"><ele>151.00000000000003</ele><time>2026-04-11T13:07:40.999Z</time></trkpt><trkpt lat="42.96965882686935" lon="11.447931197839953"><ele>151.0</ele><time>2026-04-11T13:07:42.998Z</time></trkpt><trkpt lat="42.969703995070496" lon="11.448004285752386"><ele>151.0</ele><time>2026-04-11T13:07:44.998Z</time></trkpt><trkpt lat="42.96975210170907" lon="11.448066808755446"><ele>151.0</ele><time>2026-04-11T13:07:46.998Z</time></trkpt><trkpt lat="42.96980834123494" lon="11.448121862870785"><ele>151.0</ele><time>2026-04-11T13:07:49.998Z</time></trkpt><trkpt lat="42.96985650067367" lon="11.44817844178176"><ele>151.00000000000003</ele><time>2026-04-11T13:07:52.998Z</time></trkpt><trkpt lat="42.969915192829404" lon="11.44822356886718"><ele>151.0</ele><time>2026-04-11T13:07:55.998Z</time></trkpt><trkpt lat="42.96997550433443" lon="11.448260111586803"><ele>152.2857142857143</ele><time>2026-04-11T13:07:59.998Z</time></trkpt><trkpt lat="42.97003127262954" lon="11.448305753588068"><ele>153.57142857142858</ele><time>2026-04-11T13:08:02.998Z</time></trkpt><trkpt lat="42.97008660812538" lon="11.448347545850618"><ele>154.85714285714286</ele><time>2026-04-11T13:08:05.998Z</time></trkpt><trkpt lat="42.97016040672116" lon="11.448404492644567"><ele>156.14285714285717</ele><time>2026-04-11T13:08:09.998Z</time></trkpt><trkpt lat="42.97022297149535" lon="11.44844226293814"><ele>157.42857142857144</ele><time>2026-04-11T13:08:12.998Z</time></trkpt><trkpt lat="42.97028617323485" lon="11.4484878028009"><ele>158.71428571428572</ele><time>2026-04-11T13:08:16.998Z</time></trkpt><trkpt lat="42.97034142563714" lon="11.448533770712347"><ele>160.0</ele><time>2026-04-11T13:08:19.998Z</time></trkpt><trkpt lat="42.97039854840252" lon="11.448581418547446"><ele>160.0</ele><time>2026-04-11T13:08:22.998Z</time></trkpt><trkpt lat="42.97045711752774" lon="11.448629059627"><ele>160.0</ele><time>2026-04-11T13:08:25.998Z</time></trkpt><trkpt lat="42.9705178591958" lon="11.448675427370258"><ele>160.0</ele><time>2026-04-11T13:08:28.998Z</time></trkpt><trkpt lat="42.97057703597555" lon="11.448721491433828"><ele>160.0</ele><time>2026-04-11T13:08:31.998Z</time></trkpt><trkpt lat="42.970640627583826" lon="11.44878441634722"><ele>160.0</ele><time>2026-04-11T13:08:35.998Z</time></trkpt><trkpt lat="42.970716105229265" lon="11.448846772271924"><ele>160.0</ele><time>2026-04-11T13:08:39.999Z</time></trkpt><trkpt lat="42.970782079321445" lon="11.448914139740905"><ele>159.83333333333334</ele><time>2026-04-11T13:08:43.999Z</time></trkpt><trkpt lat="42.97084171048932" lon="11.448973078330658"><ele>159.66666666666669</ele><time>2026-04-11T13:08:46.999Z</time></trkpt><trkpt lat="42.97090369025395" lon="11.449029223770486"><ele>159.5</ele><time>2026-04-11T13:08:51Z</time></trkpt><trkpt lat="42.97096159763719" lon="11.44908454964481"><ele>159.33333333333334</ele><time>2026-04-11T13:08:53.999Z</time></trkpt><trkpt lat="42.97102204087414" lon="11.449152579425046"><ele>159.16666666666666</ele><time>2026-04-11T13:08:57.999Z</time></trkpt><trkpt lat="42.97108999397211" lon="11.449218794548983"><ele>159.0</ele><time>2026-04-11T13:09:01.999Z</time></trkpt><trkpt lat="42.97115275214765" lon="11.449278135265908"><ele>160.0</ele><time>2026-04-11T13:09:05.999Z</time></trkpt><trkpt lat="42.97122180370172" lon="11.449318343413998"><ele>161.0</ele><time>2026-04-11T13:09:08.999Z</time></trkpt><trkpt lat="42.97128157317487" lon="11.449359590386356"><ele>162.0</ele><time>2026-04-11T13:09:11.999Z</time></trkpt><trkpt lat="42.97137616807859" lon="11.44941220219768"><ele>163.0</ele><time>2026-04-11T13:09:15.999Z</time></trkpt><trkpt lat="42.97143427008411" lon="11.449451418688307"><ele>164.0</ele><time>2026-04-11T13:09:18.999Z</time></trkpt><trkpt lat="42.97149411779144" lon="11.449487503544677"><ele>165.0</ele><time>2026-04-11T13:09:21.999Z</time></trkpt><trkpt lat="42.97155394158668" lon="11.449526068344774"><ele>166.0</ele><time>2026-04-11T13:09:24.999Z</time></trkpt><trkpt lat="42.97161269199176" lon="11.449567201546005"><ele>166.0</ele><time>2026-04-11T13:09:27.999Z</time></trkpt><trkpt lat="42.9716868155535" lon="11.449622201969559"><ele>166.0</ele><time>2026-04-11T13:09:31.999Z</time></trkpt><trkpt lat="42.9717595878473" lon="11.449676836967154"><ele>166.0</ele><time>2026-04-11T13:09:35.999Z</time></trkpt><trkpt lat="42.97181707367393" lon="11.449712976511245"><ele>166.0</ele><time>2026-04-11T13:09:38.999Z</time></trkpt><trkpt lat="42.97188973908891" lon="11.449769996019239"><ele>166.0</ele><time>2026-04-11T13:09:42.999Z</time></trkpt><trkpt lat="42.97196784077092" lon="11.449804500469266"><ele>166.0</ele><time>2026-04-11T13:09:46.999Z</time></trkpt><trkpt lat="42.97203948699504" lon="11.449868956385991"><ele>167.0</ele><time>2026-04-11T13:09:50.999Z</time></trkpt><trkpt lat="42.9720975860516" lon="11.44991148761472"><ele>168.0</ele><time>2026-04-11T13:09:53.999Z</time></trkpt><trkpt lat="42.972172041009394" lon="11.449966034760008"><ele>169.0</ele><time>2026-04-11T13:09:57.998Z</time></trkpt><trkpt lat="42.97222819766146" lon="11.450013899228734"><ele>170.0</ele><time>2026-04-11T13:10:00.998Z</time></trkpt><trkpt lat="42.97228629395301" lon="11.450062796903463"><ele>171.0</ele><time>2026-04-11T13:10:03.998Z</time></trkpt><trkpt lat="42.97236054175013" lon="11.45010318036748"><ele>172.0</ele><time>2026-04-11T13:10:07.998Z</time></trkpt><trkpt lat="42.97243136072159" lon="11.450144406649313"><ele>173.0</ele><time>2026-04-11T13:10:11.998Z</time></trkpt><trkpt lat="42.97249172815808" lon="11.450182150209704"><ele>174.57142857142856</ele><time>2026-04-11T13:10:14.998Z</time></trkpt><trkpt lat="42.97255588011578" lon="11.450197604281446"><ele>176.14285714285717</ele><time>2026-04-11T13:10:17.998Z</time></trkpt><trkpt lat="42.97262495220945" lon="11.450207306935958"><ele>177.71428571428572</ele><time>2026-04-11T13:10:20.998Z</time></trkpt><trkpt lat="42.972694207276" lon="11.45021211183757"><ele>179.28571428571428</ele><time>2026-04-11T13:10:23.998Z</time></trkpt><trkpt lat="42.972764961641" lon="11.450204907159787"><ele>180.85714285714283</ele><time>2026-04-11T13:10:26.998Z</time></trkpt><trkpt lat="42.972844408437474" lon="11.450189077548792"><ele>182.42857142857144</ele><time>2026-04-11T13:10:29.998Z</time></trkpt><trkpt lat="42.97292061172686" lon="11.45019600745474"><ele>184.0</ele><time>2026-04-11T13:10:33.998Z</time></trkpt><trkpt lat="42.97301158460834" lon="11.450230929827704"><ele>184.0</ele><time>2026-04-11T13:10:37.998Z</time></trkpt><trkpt lat="42.97306964247887" lon="11.450290192973231"><ele>184.0</ele><time>2026-04-11T13:10:41.998Z</time></trkpt><trkpt lat="42.97310958372367" lon="11.450390443917469"><ele>184.0</ele><time>2026-04-11T13:10:46Z</time></trkpt><trkpt lat="42.97311324614272" lon="11.450487668872002"><ele>184.0</ele><time>2026-04-11T13:10:50Z</time></trkpt><trkpt lat="42.973106910146186" lon="11.450582696563941"><ele>184.0</ele><time>2026-04-11T13:10:54Z</time></trkpt><trkpt lat="42.9731034641253" lon="11.450696903381852"><ele>184.0</ele><time>2026-04-11T13:10:58Z</time></trkpt><trkpt lat="42.97310806208508" lon="11.450796369758274"><ele>184.42857142857144</ele><time>2026-04-11T13:11:02Z</time></trkpt><trkpt lat="42.973108094830174" lon="11.450890508292552"><ele>184.85714285714283</ele><time>2026-04-11T13:11:05Z</time></trkpt><trkpt lat="42.973108620165014" lon="11.450992781870466"><ele>185.28571428571428</ele><time>2026-04-11T13:11:08.999Z</time></trkpt><trkpt lat="42.97311599231433" lon="11.451084102693118"><ele>185.71428571428572</ele><time>2026-04-11T13:11:11.999Z</time></trkpt><trkpt lat="42.97314081098998" lon="11.45118584391746"><ele>186.14285714285717</ele><time>2026-04-11T13:11:14.999Z</time></trkpt><trkpt lat="42.97317782353491" lon="11.451266318433172"><ele>186.57142857142856</ele><time>2026-04-11T13:11:17.999Z</time></trkpt><trkpt lat="42.97322435501882" lon="11.451333515196332"><ele>187.0</ele><time>2026-04-11T13:11:20.999Z</time></trkpt><trkpt lat="42.97328863629323" lon="11.451371773400055"><ele>187.0</ele><time>2026-04-11T13:11:23.999Z</time></trkpt><trkpt lat="42.973355489309185" lon="11.451377025034711"><ele>187.0</ele><time>2026-04-11T13:11:26.999Z</time></trkpt><trkpt lat="42.973420050767814" lon="11.451358314109228"><ele>187.0</ele><time>2026-04-11T13:11:29.999Z</time></trkpt><trkpt lat="42.97347298808165" lon="11.451308606309864"><ele>187.0</ele><time>2026-04-11T13:11:32.999Z</time></trkpt><trkpt lat="42.973520667520724" lon="11.451246663436695"><ele>187.0</ele><time>2026-04-11T13:11:35.999Z</time></trkpt><trkpt lat="42.97355757067534" lon="11.451160282398448"><ele>187.0</ele><time>2026-04-11T13:11:38.999Z</time></trkpt><trkpt lat="42.973578614334286" lon="11.451076656356687"><ele>187.0</ele><time>2026-04-11T13:11:41.999Z</time></trkpt><trkpt lat="42.97360036475432" lon="11.450986656818628"><ele>188.28571428571428</ele><time>2026-04-11T13:11:44.999Z</time></trkpt><trkpt lat="42.97361765401713" lon="11.450901405096129"><ele>189.57142857142858</ele><time>2026-04-11T13:11:47.999Z</time></trkpt><trkpt lat="42.97365343774576" lon="11.450817987340791"><ele>190.85714285714286</ele><time>2026-04-11T13:11:50.999Z</time></trkpt><trkpt lat="42.973698523505384" lon="11.4507178565021"><ele>192.14285714285714</ele><time>2026-04-11T13:11:53.999Z</time></trkpt><trkpt lat="42.973740940791494" lon="11.450636170077535"><ele>193.42857142857144</ele><time>2026-04-11T13:11:56.999Z</time></trkpt><trkpt lat="42.97379318940825" lon="11.450568462420291"><ele>194.71428571428572</ele><time>2026-04-11T13:11:59.999Z</time></trkpt><trkpt lat="42.97385041258744" lon="11.450508105222154"><ele>196.0</ele><time>2026-04-11T13:12:02.999Z</time></trkpt><trkpt lat="42.973905186092836" lon="11.450451492009014"><ele>196.0</ele><time>2026-04-11T13:12:05.999Z</time></trkpt><trkpt lat="42.9739608679482" lon="11.450405427071718"><ele>196.0</ele><time>2026-04-11T13:12:08.998Z</time></trkpt><trkpt lat="42.97402233719201" lon="11.450370648682908"><ele>196.0</ele><time>2026-04-11T13:12:11.998Z</time></trkpt><trkpt lat="42.9740856873718" lon="11.450363552065399"><ele>196.0</ele><time>2026-04-11T13:12:14.998Z</time></trkpt><trkpt lat="42.974161932137434" lon="11.450375295951833"><ele>196.0</ele><time>2026-04-11T13:12:18.998Z</time></trkpt><trkpt lat="42.974223051067696" lon="11.450416407330513"><ele>196.0</ele><time>2026-04-11T13:12:22.998Z</time></trkpt><trkpt lat="42.9742708868976" lon="11.450479199148399"><ele>196.0</ele><time>2026-04-11T13:12:25.998Z</time></trkpt><trkpt lat="42.974321478529525" lon="11.450535206087613"><ele>197.71428571428572</ele><time>2026-04-11T13:12:28.998Z</time></trkpt><trkpt lat="42.97438492079083" lon="11.450574425810165"><ele>199.42857142857144</ele><time>2026-04-11T13:12:32.998Z</time></trkpt><trkpt lat="42.974469696058655" lon="11.4505868951223"><ele>201.14285714285714</ele><time>2026-04-11T13:12:36.998Z</time></trkpt><trkpt lat="42.97453764923258" lon="11.450587601895279"><ele>202.85714285714286</ele><time>2026-04-11T13:12:39.998Z</time></trkpt><trkpt lat="42.974612218208755" lon="11.450593885844903"><ele>204.57142857142858</ele><time>2026-04-11T13:12:42.998Z</time></trkpt><trkpt lat="42.97467974599831" lon="11.45059672862142"><ele>206.28571428571428</ele><time>2026-04-11T13:12:45.998Z</time></trkpt><trkpt lat="42.97475725216952" lon="11.450597808380238"><ele>208.0</ele><time>2026-04-11T13:12:48.998Z</time></trkpt><trkpt lat="42.97483539853455" lon="11.450599614248004"><ele>207.99999999999997</ele><time>2026-04-11T13:12:52Z</time></trkpt><trkpt lat="42.974915594378125" lon="11.450604437322927"><ele>208.0</ele><time>2026-04-11T13:12:55Z</time></trkpt><trkpt lat="42.97501442170302" lon="11.450623171518423"><ele>208.0</ele><time>2026-04-11T13:12:57Z</time></trkpt><trkpt lat="42.97509766678812" lon="11.450657754771166"><ele>208.0</ele><time>2026-04-11T13:13:00Z</time></trkpt><trkpt lat="42.97515979469487" lon="11.450689148511259"><ele>207.99999999999997</ele><time>2026-04-11T13:13:02Z</time></trkpt><trkpt lat="42.97524226374506" lon="11.450729556804012"><ele>208.0</ele><time>2026-04-11T13:13:05Z</time></trkpt><trkpt lat="42.975315448949175" lon="11.450759854082545"><ele>208.16666666666666</ele><time>2026-04-11T13:13:08Z</time></trkpt><trkpt lat="42.97539748689211" lon="11.450791242474708"><ele>208.33333333333331</ele><time>2026-04-11T13:13:11Z</time></trkpt><trkpt lat="42.97548372456749" lon="11.450818438349556"><ele>208.5</ele><time>2026-04-11T13:13:14Z</time></trkpt><trkpt lat="42.97555011770297" lon="11.450844788580257"><ele>208.66666666666669</ele><time>2026-04-11T13:13:17Z</time></trkpt><trkpt lat="42.97562808746478" lon="11.450878571349811"><ele>208.83333333333334</ele><time>2026-04-11T13:13:19.999Z</time></trkpt><trkpt lat="42.97570420221683" lon="11.450901161150094"><ele>209.0</ele><time>2026-04-11T13:13:22.999Z</time></trkpt><trkpt lat="42.97576997159633" lon="11.450930869276563"><ele>209.0</ele><time>2026-04-11T13:13:24.999Z</time></trkpt><trkpt lat="42.97583365875504" lon="11.45096433215751"><ele>209.0</ele><time>2026-04-11T13:13:27.999Z</time></trkpt><trkpt lat="42.975924995160455" lon="11.45100697313392"><ele>209.0</ele><time>2026-04-11T13:13:29.999Z</time></trkpt><trkpt lat="42.975994168959" lon="11.451024629950828"><ele>209.0</ele><time>2026-04-11T13:13:32.999Z</time></trkpt><trkpt lat="42.976052012128875" lon="11.451066195693466"><ele>209.0</ele><time>2026-04-11T13:13:35.999Z</time></trkpt><trkpt lat="42.976123033629364" lon="11.451075179207661"><ele>209.0</ele><time>2026-04-11T13:13:38.999Z</time></trkpt><trkpt lat="42.97619479712973" lon="11.451108598658271"><ele>209.0</ele><time>2026-04-11T13:13:41.999Z</time></trkpt><trkpt lat="42.97626374307437" lon="11.451147011719625"><ele>209.50000000000003</ele><time>2026-04-11T13:13:44.999Z</time></trkpt><trkpt lat="42.97634008628756" lon="11.45116380731785"><ele>210.0</ele><time>2026-04-11T13:13:47.999Z</time></trkpt><trkpt lat="42.976410494927066" lon="11.451204182202883"><ele>210.5</ele><time>2026-04-11T13:13:50.999Z</time></trkpt><trkpt lat="42.97648109441932" lon="11.451254383823239"><ele>211.0</ele><time>2026-04-11T13:13:53.999Z</time></trkpt><trkpt lat="42.97657057803912" lon="11.451287233762017"><ele>211.50000000000003</ele><time>2026-04-11T13:13:56.999Z</time></trkpt><trkpt lat="42.976660029342455" lon="11.451336757930807"><ele>212.0</ele><time>2026-04-11T13:13:59.999Z</time></trkpt><trkpt lat="42.97672257814818" lon="11.451363203828798"><ele>212.66666666666669</ele><time>2026-04-11T13:14:01.999Z</time></trkpt><trkpt lat="42.97678544672562" lon="11.451398448977777"><ele>213.33333333333334</ele><time>2026-04-11T13:14:03.999Z</time></trkpt><trkpt lat="42.97684990729218" lon="11.4514290745457"><ele>214.0</ele><time>2026-04-11T13:14:05.999Z</time></trkpt><trkpt lat="42.97691172145103" lon="11.451464655794565"><ele>214.66666666666669</ele><time>2026-04-11T13:14:08.999Z</time></trkpt><trkpt lat="42.97699753141285" lon="11.451514408084822"><ele>215.33333333333334</ele><time>2026-04-11T13:14:11.999Z</time></trkpt><trkpt lat="42.97709160723893" lon="11.451570287141235"><ele>216.0</ele><time>2026-04-11T13:14:13.999Z</time></trkpt><trkpt lat="42.97717396877284" lon="11.451616939764417"><ele>216.0</ele><time>2026-04-11T13:14:16.999Z</time></trkpt><trkpt lat="42.977232057895506" lon="11.451650724830722"><ele>216.0</ele><time>2026-04-11T13:14:18.998Z</time></trkpt><trkpt lat="42.97731346638446" lon="11.451711085236887"><ele>216.0</ele><time>2026-04-11T13:14:21.998Z</time></trkpt><trkpt lat="42.97740046066965" lon="11.451757988439974"><ele>216.0</ele><time>2026-04-11T13:14:24.998Z</time></trkpt><trkpt lat="42.97745929510488" lon="11.451795152889265"><ele>216.0</ele><time>2026-04-11T13:14:26.998Z</time></trkpt><trkpt lat="42.97751943439483" lon="11.451830649250484"><ele>216.0</ele><time>2026-04-11T13:14:28.998Z</time></trkpt><trkpt lat="42.977577685033985" lon="11.451865565720702"><ele>216.0</ele><time>2026-04-11T13:14:30.998Z</time></trkpt><trkpt lat="42.97766607026623" lon="11.4519037060811"><ele>216.4</ele><time>2026-04-11T13:14:33.998Z</time></trkpt><trkpt lat="42.97774181581204" lon="11.451969296816298"><ele>216.8</ele><time>2026-04-11T13:14:36.998Z</time></trkpt><trkpt lat="42.97782897269335" lon="11.452010626330058"><ele>217.20000000000002</ele><time>2026-04-11T13:14:39.998Z</time></trkpt><trkpt lat="42.9779101612784" lon="11.452061660134241"><ele>217.60000000000002</ele><time>2026-04-11T13:14:42.998Z</time></trkpt><trkpt lat="42.97799329542559" lon="11.452111352098203"><ele>218.0</ele><time>2026-04-11T13:14:45.998Z</time></trkpt><trkpt lat="42.97807387821718" lon="11.452164967083812"><ele>218.00000000000003</ele><time>2026-04-11T13:14:48.998Z</time></trkpt><trkpt lat="42.97815479316373" lon="11.452221328021432"><ele>218.0</ele><time>2026-04-11T13:14:51.998Z</time></trkpt><trkpt lat="42.97824058843146" lon="11.452262313457593"><ele>218.0</ele><time>2026-04-11T13:14:54.998Z</time></trkpt><trkpt lat="42.97832414077447" lon="11.452312624323232"><ele>218.0</ele><time>2026-04-11T13:14:58Z</time></trkpt><trkpt lat="42.978407344847945" lon="11.452361819256303"><ele>218.00000000000003</ele><time>2026-04-11T13:15:01Z</time></trkpt><trkpt lat="42.978469569604485" lon="11.452392871310218"><ele>218.0</ele><time>2026-04-11T13:15:03Z</time></trkpt><trkpt lat="42.97852968894467" lon="11.452435070862828"><ele>218.28571428571428</ele><time>2026-04-11T13:15:05Z</time></trkpt><trkpt lat="42.97858953991047" lon="11.452472210683997"><ele>218.57142857142858</ele><time>2026-04-11T13:15:07Z</time></trkpt><trkpt lat="42.97864837563657" lon="11.452507711385518"><ele>218.85714285714283</ele><time>2026-04-11T13:15:09Z</time></trkpt><trkpt lat="42.978706392481556" lon="11.452542258628268"><ele>219.14285714285714</ele><time>2026-04-11T13:15:11Z</time></trkpt><trkpt lat="42.97876775601173" lon="11.45257757303606"><ele>219.42857142857142</ele><time>2026-04-11T13:15:13Z</time></trkpt><trkpt lat="42.97882445473913" lon="11.452623965264536"><ele>219.7142857142857</ele><time>2026-04-11T13:15:15Z</time></trkpt><trkpt lat="42.978881421651444" lon="11.452669602318469"><ele>220.0</ele><time>2026-04-11T13:15:17Z</time></trkpt><trkpt lat="42.97894449042244" lon="11.452718576311606"><ele>219.99999999999997</ele><time>2026-04-11T13:15:19Z</time></trkpt><trkpt lat="42.97900300213625" lon="11.452770853848744"><ele>220.0</ele><time>2026-04-11T13:15:21Z</time></trkpt><trkpt lat="42.97906324314907" lon="11.45283376437722"><ele>220.0</ele><time>2026-04-11T13:15:22.999Z</time></trkpt><trkpt lat="42.979122155213176" lon="11.45289351852199"><ele>220.0</ele><time>2026-04-11T13:15:24.999Z</time></trkpt><trkpt lat="42.97918522883333" lon="11.45295526712346"><ele>219.99999999999997</ele><time>2026-04-11T13:15:26.999Z</time></trkpt><trkpt lat="42.97924965150774" lon="11.453026537363895"><ele>220.0</ele><time>2026-04-11T13:15:28.999Z</time></trkpt><trkpt lat="42.97931564086345" lon="11.453097060071503"><ele>219.33333333333331</ele><time>2026-04-11T13:15:30.999Z</time></trkpt><trkpt lat="42.97937954009501" lon="11.45317350303459"><ele>218.66666666666666</ele><time>2026-04-11T13:15:32.999Z</time></trkpt><trkpt lat="42.979435594579094" lon="11.453247561237484"><ele>218.0</ele><time>2026-04-11T13:15:34.999Z</time></trkpt><trkpt lat="42.9794859496013" lon="11.453317487972187"><ele>217.33333333333331</ele><time>2026-04-11T13:15:36.999Z</time></trkpt><trkpt lat="42.979526947453266" lon="11.453398750265743"><ele>216.66666666666666</ele><time>2026-04-11T13:15:38.999Z</time></trkpt><trkpt lat="42.97957103198274" lon="11.453477552651423"><ele>216.0</ele><time>2026-04-11T13:15:40.999Z</time></trkpt><trkpt lat="42.97961141334696" lon="11.453557499973789"><ele>216.0</ele><time>2026-04-11T13:15:42.999Z</time></trkpt><trkpt lat="42.97964998057008" lon="11.453643116773085"><ele>216.0</ele><time>2026-04-11T13:15:44.999Z</time></trkpt><trkpt lat="42.97969600288281" lon="11.453729594667696"><ele>216.0</ele><time>2026-04-11T13:15:46.999Z</time></trkpt><trkpt lat="42.979748923669135" lon="11.453816596232011"><ele>216.0</ele><time>2026-04-11T13:15:48.999Z</time></trkpt><trkpt lat="42.979802701288015" lon="11.453910637272495"><ele>216.0</ele><time>2026-04-11T13:15:50.999Z</time></trkpt><trkpt lat="42.97985655529661" lon="11.454016629146032"><ele>216.0</ele><time>2026-04-11T13:15:52.999Z</time></trkpt><trkpt lat="42.9799120249131" lon="11.454127953353883"><ele>216.20000000000002</ele><time>2026-04-11T13:15:54.999Z</time></trkpt><trkpt lat="42.97996015991389" lon="11.45424119375744"><ele>216.40000000000003</ele><time>2026-04-11T13:15:56.999Z</time></trkpt><trkpt lat="42.980009553821986" lon="11.454353024131395"><ele>216.6</ele><time>2026-04-11T13:15:58.999Z</time></trkpt><trkpt lat="42.98006186179959" lon="11.454462431730445"><ele>216.8</ele><time>2026-04-11T13:16:00.999Z</time></trkpt><trkpt lat="42.980103322026565" lon="11.454574658820874"><ele>217.0</ele><time>2026-04-11T13:16:02.999Z</time></trkpt><trkpt lat="42.98014516953525" lon="11.454695931983654"><ele>216.39999999999998</ele><time>2026-04-11T13:16:04.999Z</time></trkpt><trkpt lat="42.980194192307664" lon="11.454820076970421"><ele>215.79999999999998</ele><time>2026-04-11T13:16:06.999Z</time></trkpt><trkpt lat="42.98025283985808" lon="11.45495280450232"><ele>215.2</ele><time>2026-04-11T13:16:08.999Z</time></trkpt><trkpt lat="42.980314859553594" lon="11.455078565915139"><ele>214.6</ele><time>2026-04-11T13:16:10.999Z</time></trkpt><trkpt lat="42.98037780501911" lon="11.455194839476679"><ele>214.0</ele><time>2026-04-11T13:16:12.999Z</time></trkpt><trkpt lat="42.980436728748174" lon="11.455308021154371"><ele>213.99999999999997</ele><time>2026-04-11T13:16:14.999Z</time></trkpt><trkpt lat="42.98049687670516" lon="11.455402677591904"><ele>214.0</ele><time>2026-04-11T13:16:16.999Z</time></trkpt><trkpt lat="42.98055440323728" lon="11.455489716544212"><ele>214.0</ele><time>2026-04-11T13:16:18.999Z</time></trkpt><trkpt lat="42.980611138802736" lon="11.455576409209934"><ele>214.0</ele><time>2026-04-11T13:16:20.998Z</time></trkpt><trkpt lat="42.98066057630703" lon="11.455659861775775"><ele>213.99999999999997</ele><time>2026-04-11T13:16:22.998Z</time></trkpt><trkpt lat="42.980707113341154" lon="11.455737840046407"><ele>214.0</ele><time>2026-04-11T13:16:24.998Z</time></trkpt><trkpt lat="42.98074810811687" lon="11.45581249387888"><ele>213.57142857142858</ele><time>2026-04-11T13:16:26.998Z</time></trkpt><trkpt lat="42.98079288543289" lon="11.455885167101407"><ele>213.14285714285714</ele><time>2026-04-11T13:16:28.998Z</time></trkpt><trkpt lat="42.980838630128645" lon="11.455957019061458"><ele>212.71428571428572</ele><time>2026-04-11T13:16:30.998Z</time></trkpt><trkpt lat="42.9808869128722" lon="11.456024962489227"><ele>212.28571428571428</ele><time>2026-04-11T13:16:32.998Z</time></trkpt><trkpt lat="42.98093717049971" lon="11.456090554433906"><ele>211.85714285714286</ele><time>2026-04-11T13:16:34.998Z</time></trkpt><trkpt lat="42.98098552958518" lon="11.456157374097582"><ele>211.42857142857144</ele><time>2026-04-11T13:16:36.998Z</time></trkpt><trkpt lat="42.98103764250501" lon="11.45621322072293"><ele>211.0</ele><time>2026-04-11T13:16:38.998Z</time></trkpt><trkpt lat="42.981085894145146" lon="11.45627294368602"><ele>212.14285714285714</ele><time>2026-04-11T13:16:40.998Z</time></trkpt><trkpt lat="42.98113798724129" lon="11.456330538299257"><ele>213.28571428571428</ele><time>2026-04-11T13:16:42.998Z</time></trkpt><trkpt lat="42.981189653238" lon="11.456394275123102"><ele>214.42857142857144</ele><time>2026-04-11T13:16:44.998Z</time></trkpt><trkpt lat="42.981239351318074" lon="11.45646339452866"><ele>215.57142857142856</ele><time>2026-04-11T13:16:46.998Z</time></trkpt><trkpt lat="42.981291910453365" lon="11.456526272228015"><ele>216.7142857142857</ele><time>2026-04-11T13:16:48.998Z</time></trkpt><trkpt lat="42.98134026806672" lon="11.456586408390761"><ele>217.85714285714286</ele><time>2026-04-11T13:16:50.998Z</time></trkpt><trkpt lat="42.98138680141175" lon="11.456651275152865"><ele>219.0</ele><time>2026-04-11T13:16:52.998Z</time></trkpt><trkpt lat="42.98142988912035" lon="11.456715689801621"><ele>219.0</ele><time>2026-04-11T13:16:54.998Z</time></trkpt><trkpt lat="42.98147724062668" lon="11.456773211673346"><ele>219.0</ele><time>2026-04-11T13:16:56.998Z</time></trkpt><trkpt lat="42.9815253071613" lon="11.45683270093384"><ele>219.0</ele><time>2026-04-11T13:16:58.998Z</time></trkpt><trkpt lat="42.98156934843557" lon="11.456896662209138"><ele>219.0</ele><time>2026-04-11T13:17:00.998Z</time></trkpt><trkpt lat="42.98161595869971" lon="11.456957949370906"><ele>219.0</ele><time>2026-04-11T13:17:03Z</time></trkpt><trkpt lat="42.981666104513955" lon="11.457018323939348"><ele>219.0</ele><time>2026-04-11T13:17:05Z</time></trkpt><trkpt lat="42.981713172474414" lon="11.457081589210443"><ele>219.0</ele><time>2026-04-11T13:17:07Z</time></trkpt><trkpt lat="42.981772351389004" lon="11.457175843681423"><ele>220.0</ele><time>2026-04-11T13:17:10Z</time></trkpt><trkpt lat="42.98183290611529" lon="11.457257325105415"><ele>221.0</ele><time>2026-04-11T13:17:13Z</time></trkpt><trkpt lat="42.98189572480664" lon="11.457338182946279"><ele>222.0</ele><time>2026-04-11T13:17:16Z</time></trkpt><trkpt lat="42.98195315966794" lon="11.457415264309857"><ele>223.0</ele><time>2026-04-11T13:17:19Z</time></trkpt><trkpt lat="42.98201910942546" lon="11.457480125015698"><ele>224.0</ele><time>2026-04-11T13:17:22Z</time></trkpt><trkpt lat="42.98208268397831" lon="11.457551513963798"><ele>225.0</ele><time>2026-04-11T13:17:25Z</time></trkpt><trkpt lat="42.98215027862125" lon="11.457616099278777"><ele>225.0</ele><time>2026-04-11T13:17:27.999Z</time></trkpt><trkpt lat="42.98223165876294" lon="11.457667638516375"><ele>225.0</ele><time>2026-04-11T13:17:30.999Z</time></trkpt><trkpt lat="42.98229409241032" lon="11.457701803544529"><ele>225.0</ele><time>2026-04-11T13:17:32.999Z</time></trkpt><trkpt lat="42.98235693370894" lon="11.457732710256144"><ele>225.0</ele><time>2026-04-11T13:17:34.999Z</time></trkpt><trkpt lat="42.98244659296596" lon="11.457758409672897"><ele>225.0</ele><time>2026-04-11T13:17:37.999Z</time></trkpt><trkpt lat="42.98253614715968" lon="11.457790723539457"><ele>225.0</ele><time>2026-04-11T13:17:40.999Z</time></trkpt><trkpt lat="42.982596852167" lon="11.45781994124159"><ele>225.33333333333334</ele><time>2026-04-11T13:17:42.999Z</time></trkpt><trkpt lat="42.982684722773236" lon="11.457857081157933"><ele>225.66666666666669</ele><time>2026-04-11T13:17:45.999Z</time></trkpt><trkpt lat="42.982761943707445" lon="11.457888167946873"><ele>226.0</ele><time>2026-04-11T13:17:48.999Z</time></trkpt><trkpt lat="42.982840740267136" lon="11.457918647910112"><ele>226.33333333333334</ele><time>2026-04-11T13:17:51.999Z</time></trkpt><trkpt lat="42.98291685563583" lon="11.457926032280719"><ele>226.66666666666669</ele><time>2026-04-11T13:17:54.999Z</time></trkpt><trkpt lat="42.98299240938871" lon="11.457934044599694"><ele>227.0</ele><time>2026-04-11T13:17:57.999Z</time></trkpt><trkpt lat="42.983069182354306" lon="11.457947544499024"><ele>227.0</ele><time>2026-04-11T13:18:00.999Z</time></trkpt><trkpt lat="42.9831498882138" lon="11.457948803462473"><ele>227.00000000000003</ele><time>2026-04-11T13:18:03.999Z</time></trkpt><trkpt lat="42.98322892115023" lon="11.457962119901909"><ele>227.0</ele><time>2026-04-11T13:18:06.999Z</time></trkpt><trkpt lat="42.98329424031276" lon="11.457972133092454"><ele>227.0</ele><time>2026-04-11T13:18:09.999Z</time></trkpt><trkpt lat="42.983357982327895" lon="11.457986633316878"><ele>227.00000000000003</ele><time>2026-04-11T13:18:13.999Z</time></trkpt><trkpt lat="42.98342331890394" lon="11.45800057993107"><ele>227.0</ele><time>2026-04-11T13:18:16.999Z</time></trkpt><trkpt lat="42.98349381524067" lon="11.45801245789853"><ele>227.0</ele><time>2026-04-11T13:18:19.999Z</time></trkpt><trkpt lat="42.98356745499111" lon="11.458025414493438"><ele>229.2857142857143</ele><time>2026-04-11T13:18:23.999Z</time></trkpt><trkpt lat="42.9836456652712" lon="11.458048099714292"><ele>231.5714285714286</ele><time>2026-04-11T13:18:26.999Z</time></trkpt><trkpt lat="42.983717264457546" lon="11.458058097830191"><ele>233.85714285714286</ele><time>2026-04-11T13:18:30.998Z</time></trkpt><trkpt lat="42.983804480811905" lon="11.458075675279488"><ele>236.14285714285717</ele><time>2026-04-11T13:18:34.998Z</time></trkpt><trkpt lat="42.98386764909059" lon="11.458102374863067"><ele>238.42857142857144</ele><time>2026-04-11T13:18:38.998Z</time></trkpt><trkpt lat="42.98393751981578" lon="11.458104696162977"><ele>240.71428571428572</ele><time>2026-04-11T13:18:42.998Z</time></trkpt><trkpt lat="42.984004688744136" lon="11.458116391605587"><ele>243.0</ele><time>2026-04-11T13:18:45.998Z</time></trkpt><trkpt lat="42.98407455045787" lon="11.458129362546114"><ele>243.0</ele><time>2026-04-11T13:18:49.998Z</time></trkpt><trkpt lat="42.98413817980714" lon="11.458142434506213"><ele>243.0</ele><time>2026-04-11T13:18:53.998Z</time></trkpt><trkpt lat="42.98420664923055" lon="11.458160003443622"><ele>243.0</ele><time>2026-04-11T13:18:57.998Z</time></trkpt><trkpt lat="42.9842749173087" lon="11.45817871404136"><ele>243.0</ele><time>2026-04-11T13:19:01.998Z</time></trkpt><trkpt lat="42.984346213413765" lon="11.458193038615198"><ele>243.0</ele><time>2026-04-11T13:19:05.998Z</time></trkpt><trkpt lat="42.98442179447703" lon="11.458213015231332"><ele>243.0</ele><time>2026-04-11T13:19:11Z</time></trkpt><trkpt lat="42.98448780810473" lon="11.458229460751918"><ele>243.0</ele><time>2026-04-11T13:19:15Z</time></trkpt><trkpt lat="42.98455430245328" lon="11.458247616039904"><ele>244.28571428571428</ele><time>2026-04-11T13:19:19Z</time></trkpt><trkpt lat="42.984618492559875" lon="11.458264476728187"><ele>245.57142857142858</ele><time>2026-04-11T13:19:23Z</time></trkpt><trkpt lat="42.98469252353302" lon="11.458279608392267"><ele>246.85714285714286</ele><time>2026-04-11T13:19:27Z</time></trkpt><trkpt lat="42.98476715017525" lon="11.458306710251556"><ele>248.14285714285714</ele><time>2026-04-11T13:19:30.999Z</time></trkpt><trkpt lat="42.984837188188045" lon="11.458320735088156"><ele>249.42857142857144</ele><time>2026-04-11T13:19:34.999Z</time></trkpt><trkpt lat="42.98490262022301" lon="11.458328872951764"><ele>250.71428571428572</ele><time>2026-04-11T13:19:38.999Z</time></trkpt><trkpt lat="42.984964125486265" lon="11.458352170471185"><ele>252.0</ele><time>2026-04-11T13:19:42.999Z</time></trkpt><trkpt lat="42.985028260595875" lon="11.458356258589907"><ele>253.85714285714286</ele><time>2026-04-11T13:19:46.999Z</time></trkpt><trkpt lat="42.98509282155946" lon="11.458359887978425"><ele>255.71428571428572</ele><time>2026-04-11T13:19:50.999Z</time></trkpt><trkpt lat="42.98516040030948" lon="11.458369581816704"><ele>257.57142857142856</ele><time>2026-04-11T13:19:54.999Z</time></trkpt><trkpt lat="42.98522437913548" lon="11.458381008946017"><ele>259.42857142857144</ele><time>2026-04-11T13:19:58.999Z</time></trkpt><trkpt lat="42.98528807220169" lon="11.458387885009838"><ele>261.2857142857143</ele><time>2026-04-11T13:20:02.999Z</time></trkpt><trkpt lat="42.98536384869303" lon="11.45840944448042"><ele>263.1428571428571</ele><time>2026-04-11T13:20:07.999Z</time></trkpt><trkpt lat="42.98543974032223" lon="11.458415220867913"><ele>265.0</ele><time>2026-04-11T13:20:12.999Z</time></trkpt><trkpt lat="42.985514574463764" lon="11.458421440660313"><ele>264.99999999999994</ele><time>2026-04-11T13:20:17.999Z</time></trkpt><trkpt lat="42.98558585253371" lon="11.458405543664604"><ele>265.0</ele><time>2026-04-11T13:20:22.999Z</time></trkpt><trkpt lat="42.98565682725181" lon="11.45837800487192"><ele>265.0</ele><time>2026-04-11T13:20:27.999Z</time></trkpt><trkpt lat="42.98572660630319" lon="11.458349362725146"><ele>265.0</ele><time>2026-04-11T13:20:32.999Z</time></trkpt><trkpt lat="42.98578774141672" lon="11.458319210181726"><ele>265.0</ele><time>2026-04-11T13:20:36.998Z</time></trkpt><trkpt lat="42.98586149140741" lon="11.458299376267126"><ele>264.99999999999994</ele><time>2026-04-11T13:20:41.998Z</time></trkpt><trkpt lat="42.98593241467188" lon="11.458284466039622"><ele>265.0</ele><time>2026-04-11T13:20:46.998Z</time></trkpt><trkpt lat="42.985999908571216" lon="11.458273183888268"><ele>267.1428571428571</ele><time>2026-04-11T13:20:51.998Z</time></trkpt><trkpt lat="42.986069816959265" lon="11.458258917732445"><ele>269.2857142857143</ele><time>2026-04-11T13:20:56.998Z</time></trkpt><trkpt lat="42.986132701874034" lon="11.4582529898218"><ele>271.42857142857144</ele><time>2026-04-11T13:21:01.998Z</time></trkpt><trkpt lat="42.98620138201289" lon="11.45824448230582"><ele>273.57142857142856</ele><time>2026-04-11T13:21:06.998Z</time></trkpt><trkpt lat="42.986272258934115" lon="11.458234182221098"><ele>275.7142857142857</ele><time>2026-04-11T13:21:11.998Z</time></trkpt><trkpt lat="42.986344742014275" lon="11.45823377229434"><ele>277.85714285714283</ele><time>2026-04-11T13:21:17Z</time></trkpt><trkpt lat="42.986420331937865" lon="11.45823621041253"><ele>280.0</ele><time>2026-04-11T13:21:22Z</time></trkpt><trkpt lat="42.9864834122369" lon="11.45823753315574"><ele>280.0</ele><time>2026-04-11T13:21:26Z</time></trkpt><trkpt lat="42.986563351948604" lon="11.458237076626954"><ele>280.0</ele><time>2026-04-11T13:21:31Z</time></trkpt><trkpt lat="42.98662732654443" lon="11.458238100573311"><ele>280.0</ele><time>2026-04-11T13:21:34.999Z</time></trkpt><trkpt lat="42.986694286249055" lon="11.458241916310905"><ele>280.0</ele><time>2026-04-11T13:21:38.999Z</time></trkpt><trkpt lat="42.9867607569911" lon="11.45824303680254"><ele>280.0</ele><time>2026-04-11T13:21:42.999Z</time></trkpt><trkpt lat="42.98683630782287" lon="11.458246652552917"><ele>280.0</ele><time>2026-04-11T13:21:47.999Z</time></trkpt><trkpt lat="42.98691037748687" lon="11.458245931742374"><ele>280.0</ele><time>2026-04-11T13:21:52.999Z</time></trkpt><trkpt lat="42.9869768623526" lon="11.458246686921832"><ele>280.2857142857143</ele><time>2026-04-11T13:21:57.999Z</time></trkpt><trkpt lat="42.987040926672094" lon="11.45823734975594"><ele>280.57142857142856</ele><time>2026-04-11T13:22:02.999Z</time></trkpt><trkpt lat="42.98710776485523" lon="11.458261316478815"><ele>280.8571428571429</ele><time>2026-04-11T13:22:06.999Z</time></trkpt><trkpt lat="42.98717628307083" lon="11.458281563896506"><ele>281.1428571428571</ele><time>2026-04-11T13:22:10.999Z</time></trkpt><trkpt lat="42.987251098647455" lon="11.458314713303787"><ele>281.42857142857144</ele><time>2026-04-11T13:22:15.999Z</time></trkpt><trkpt lat="42.987305011217835" lon="11.458361282417552"><ele>281.7142857142857</ele><time>2026-04-11T13:22:19.999Z</time></trkpt><trkpt lat="42.98736228421691" lon="11.45841047701408"><ele>282.0</ele><time>2026-04-11T13:22:23.999Z</time></trkpt><trkpt lat="42.987411231251194" lon="11.458480613073645"><ele>282.0</ele><time>2026-04-11T13:22:27.999Z</time></trkpt><trkpt lat="42.98745340626165" lon="11.458551147463625"><ele>282.0</ele><time>2026-04-11T13:22:31.999Z</time></trkpt><trkpt lat="42.9874803972208" lon="11.458631075494667"><ele>282.0</ele><time>2026-04-11T13:22:35.999Z</time></trkpt><trkpt lat="42.98750902135871" lon="11.458709332824428"><ele>282.0</ele><time>2026-04-11T13:22:39.999Z</time></trkpt><trkpt lat="42.98755174970986" lon="11.458774075225978"><ele>282.0</ele><time>2026-04-11T13:22:43.998Z</time></trkpt><trkpt lat="42.987605444151974" lon="11.458819174081173"><ele>282.0</ele><time>2026-04-11T13:22:47.998Z</time></trkpt><trkpt lat="42.98766723561687" lon="11.45883608654349"><ele>282.0</ele><time>2026-04-11T13:22:51.998Z</time></trkpt><trkpt lat="42.987740568846604" lon="11.45885556866653"><ele>285.57142857142856</ele><time>2026-04-11T13:22:56.998Z</time></trkpt><trkpt lat="42.98781066219522" lon="11.458868785957831"><ele>289.1428571428571</ele><time>2026-04-11T13:23:01.998Z</time></trkpt><trkpt lat="42.987877373856335" lon="11.458869607207983"><ele>292.71428571428567</ele><time>2026-04-11T13:23:06.998Z</time></trkpt><trkpt lat="42.98794494293184" lon="11.458872781319391"><ele>296.2857142857143</ele><time>2026-04-11T13:23:11.998Z</time></trkpt><trkpt lat="42.98801230468712" lon="11.458899366567984"><ele>299.85714285714283</ele><time>2026-04-11T13:23:15.998Z</time></trkpt><trkpt lat="42.98807569550855" lon="11.458946231587655"><ele>303.4285714285714</ele><time>2026-04-11T13:23:20Z</time></trkpt><trkpt lat="42.98810354510144" lon="11.45902914269804"><ele>307.0</ele><time>2026-04-11T13:23:25Z</time></trkpt><trkpt lat="42.988042959098316" lon="11.459091946384392"><ele>306.99999999999994</ele><time>2026-04-11T13:23:30Z</time></trkpt><trkpt lat="42.987977050895296" lon="11.459092050696798"><ele>307.0</ele><time>2026-04-11T13:23:33Z</time></trkpt><trkpt lat="42.98790721932468" lon="11.459088843642043"><ele>307.0</ele><time>2026-04-11T13:23:37Z</time></trkpt><trkpt lat="42.98784489707655" lon="11.459109961643176"><ele>307.0</ele><time>2026-04-11T13:23:40Z</time></trkpt><trkpt lat="42.987769542856796" lon="11.459144826721683"><ele>307.0</ele><time>2026-04-11T13:23:43.999Z</time></trkpt><trkpt lat="42.987694449518536" lon="11.459202889946445"><ele>306.99999999999994</ele><time>2026-04-11T13:23:47.999Z</time></trkpt><trkpt lat="42.98763124417843" lon="11.459253029730625"><ele>307.0</ele><time>2026-04-11T13:23:50.999Z</time></trkpt><trkpt lat="42.987564184520124" lon="11.459297235670537"><ele>306.57142857142856</ele><time>2026-04-11T13:23:54.999Z</time></trkpt><trkpt lat="42.98749315313198" lon="11.459358605652232"><ele>306.1428571428571</ele><time>2026-04-11T13:23:58.999Z</time></trkpt><trkpt lat="42.9874110290848" lon="11.459434653682594"><ele>305.71428571428567</ele><time>2026-04-11T13:24:02.999Z</time></trkpt><trkpt lat="42.987358649569806" lon="11.45949231558417"><ele>305.2857142857143</ele><time>2026-04-11T13:24:05.999Z</time></trkpt><trkpt lat="42.98731451476457" lon="11.459556601793265"><ele>304.8571428571429</ele><time>2026-04-11T13:24:08.999Z</time></trkpt><trkpt lat="42.98727020190373" lon="11.459622074253435"><ele>304.4285714285714</ele><time>2026-04-11T13:24:11.999Z</time></trkpt><trkpt lat="42.987228511419545" lon="11.45968674936225"><ele>304.0</ele><time>2026-04-11T13:24:14.999Z</time></trkpt><trkpt lat="42.98718409363493" lon="11.459748143852803"><ele>305.7142857142857</ele><time>2026-04-11T13:24:17.999Z</time></trkpt><trkpt lat="42.987140578382125" lon="11.4598296421473"><ele>307.42857142857144</ele><time>2026-04-11T13:24:21.999Z</time></trkpt><trkpt lat="42.98711276658961" lon="11.459907962137436"><ele>309.14285714285717</ele><time>2026-04-11T13:24:25.999Z</time></trkpt><trkpt lat="42.98708439626812" lon="11.45999572377762"><ele>310.8571428571429</ele><time>2026-04-11T13:24:29.999Z</time></trkpt><trkpt lat="42.987068395106704" lon="11.460089308082566"><ele>312.57142857142856</ele><time>2026-04-11T13:24:33.999Z</time></trkpt><trkpt lat="42.98705361279055" lon="11.46018912907655"><ele>314.28571428571433</ele><time>2026-04-11T13:24:37.999Z</time></trkpt><trkpt lat="42.98704962226933" lon="11.460287499866304"><ele>316.0</ele><time>2026-04-11T13:24:41.999Z</time></trkpt><trkpt lat="42.987050969803114" lon="11.460379816472628"><ele>316.00000000000006</ele><time>2026-04-11T13:24:45.999Z</time></trkpt><trkpt lat="42.987117121318576" lon="11.460388254107164"><ele>316.0</ele><time>2026-04-11T13:24:50.999Z</time></trkpt><trkpt lat="42.98716235687822" lon="11.460315442364706"><ele>316.0</ele><time>2026-04-11T13:24:54.998Z</time></trkpt><trkpt lat="42.98721193514299" lon="11.460241444865225"><ele>316.0</ele><time>2026-04-11T13:24:58.998Z</time></trkpt><trkpt lat="42.987271406962" lon="11.460194743008145"><ele>316.0</ele><time>2026-04-11T13:25:02.998Z</time></trkpt><trkpt lat="42.98731517392823" lon="11.460130278863469"><ele>316.00000000000006</ele><time>2026-04-11T13:25:07.998Z</time></trkpt><trkpt lat="42.98737865426631" lon="11.46008818402281"><ele>316.0</ele><time>2026-04-11T13:25:51Z</time></trkpt><trkpt lat="42.987445744756165" lon="11.460080138004281"><ele>316.00000000000006</ele><time>2026-04-11T13:25:55.999Z</time></trkpt><trkpt lat="42.98750362568697" lon="11.460046123753544"><ele>316.0</ele><time>2026-04-11T13:25:58.999Z</time></trkpt><trkpt lat="42.987571686768455" lon="11.460015873382885"><ele>316.0</ele><time>2026-04-11T13:26:02.999Z</time></trkpt><trkpt lat="42.9876455882127" lon="11.460019454587377"><ele>316.0</ele><time>2026-04-11T13:26:06.999Z</time></trkpt><trkpt lat="42.98771784606983" lon="11.460021758254117"><ele>316.0</ele><time>2026-04-11T13:26:10.999Z</time></trkpt><trkpt lat="42.98778860488506" lon="11.460046465573274"><ele>316.00000000000006</ele><time>2026-04-11T13:26:14.999Z</time></trkpt><trkpt lat="42.98785757493466" lon="11.46006788273048"><ele>316.0</ele><time>2026-04-11T13:26:18.999Z</time></trkpt><trkpt lat="42.98792307868842" lon="11.460098628599965"><ele>317.3333333333333</ele><time>2026-04-11T13:26:22.999Z</time></trkpt><trkpt lat="42.987997681276084" lon="11.46012601392427"><ele>318.66666666666663</ele><time>2026-04-11T13:26:26.999Z</time></trkpt><trkpt lat="42.988071924815316" lon="11.46014921735836"><ele>320.0</ele><time>2026-04-11T13:26:30.999Z</time></trkpt><trkpt lat="42.988152192039095" lon="11.460183334702503"><ele>321.3333333333333</ele><time>2026-04-11T13:26:34.999Z</time></trkpt><trkpt lat="42.98821667096966" lon="11.46021405695224"><ele>322.6666666666667</ele><time>2026-04-11T13:26:38.999Z</time></trkpt><trkpt lat="42.988298216019174" lon="11.460226786774673"><ele>324.0</ele><time>2026-04-11T13:26:42.999Z</time></trkpt><trkpt lat="42.988362720453" lon="11.460248442721458"><ele>324.7142857142857</ele><time>2026-04-11T13:26:46.999Z</time></trkpt><trkpt lat="42.988433922004795" lon="11.460277552507536"><ele>325.42857142857144</ele><time>2026-04-11T13:26:49.999Z</time></trkpt><trkpt lat="42.98851519784221" lon="11.460311642838262"><ele>326.1428571428571</ele><time>2026-04-11T13:26:53.999Z</time></trkpt><trkpt lat="42.988577160742466" lon="11.460338910379722"><ele>326.8571428571429</ele><time>2026-04-11T13:26:56.999Z</time></trkpt><trkpt lat="42.98863821134825" lon="11.460381169474493"><ele>327.57142857142856</ele><time>2026-04-11T13:26:59.999Z</time></trkpt><trkpt lat="42.98870441731135" lon="11.46042676385973"><ele>328.2857142857143</ele><time>2026-04-11T13:27:02.998Z</time></trkpt><trkpt lat="42.988764295956585" lon="11.460477471609929"><ele>329.0</ele><time>2026-04-11T13:27:05.998Z</time></trkpt><trkpt lat="42.9888264236494" lon="11.460534170780436"><ele>330.0</ele><time>2026-04-11T13:27:08.998Z</time></trkpt><trkpt lat="42.98888643487752" lon="11.460592091285422"><ele>331.0</ele><time>2026-04-11T13:27:11.998Z</time></trkpt><trkpt lat="42.98894156769066" lon="11.46064734712203"><ele>332.0</ele><time>2026-04-11T13:27:14.998Z</time></trkpt><trkpt lat="42.98899705486545" lon="11.460705568869582"><ele>333.0</ele><time>2026-04-11T13:27:17.998Z</time></trkpt><trkpt lat="42.989048056070764" lon="11.46076825193253"><ele>334.0</ele><time>2026-04-11T13:27:20.998Z</time></trkpt><trkpt lat="42.989101752228876" lon="11.460832312570258"><ele>335.0</ele><time>2026-04-11T13:27:23.998Z</time></trkpt><trkpt lat="42.989164994563076" lon="11.460891164621152"><ele>336.0</ele><time>2026-04-11T13:27:26.998Z</time></trkpt><trkpt lat="42.989235581710176" lon="11.460936256804288"><ele>336.7142857142857</ele><time>2026-04-11T13:27:29.998Z</time></trkpt><trkpt lat="42.989312744218516" lon="11.460964591072234"><ele>337.42857142857144</ele><time>2026-04-11T13:27:33Z</time></trkpt><trkpt lat="42.98939250015785" lon="11.460974986758865"><ele>338.1428571428571</ele><time>2026-04-11T13:27:36Z</time></trkpt><trkpt lat="42.98946653995222" lon="11.460968466811424"><ele>338.8571428571429</ele><time>2026-04-11T13:27:39Z</time></trkpt><trkpt lat="42.98953750485477" lon="11.46096611968447"><ele>339.57142857142856</ele><time>2026-04-11T13:27:42Z</time></trkpt><trkpt lat="42.98960767546206" lon="11.460962830250963"><ele>340.2857142857143</ele><time>2026-04-11T13:27:45Z</time></trkpt><trkpt lat="42.989672941678776" lon="11.460965686910988"><ele>341.0</ele><time>2026-04-11T13:27:48Z</time></trkpt><trkpt lat="42.98975527862082" lon="11.46096649817564"><ele>341.0</ele><time>2026-04-11T13:27:52Z</time></trkpt><trkpt lat="42.98983115789995" lon="11.460964117805595"><ele>341.0</ele><time>2026-04-11T13:27:56Z</time></trkpt><trkpt lat="42.98990221426556" lon="11.460963919870945"><ele>341.0</ele><time>2026-04-11T13:28:00Z</time></trkpt><trkpt lat="42.98996744267836" lon="11.460964364716485"><ele>341.0</ele><time>2026-04-11T13:28:04Z</time></trkpt><trkpt lat="42.99003586003057" lon="11.460965044733685"><ele>341.0</ele><time>2026-04-11T13:28:07.999Z</time></trkpt><trkpt lat="42.990115130552105" lon="11.460975527939663"><ele>341.0</ele><time>2026-04-11T13:28:12.999Z</time></trkpt><trkpt lat="42.990180058098254" lon="11.460986495667003"><ele>341.0</ele><time>2026-04-11T13:28:16.999Z</time></trkpt><trkpt lat="42.99024254989592" lon="11.461010675434865"><ele>342.1428571428571</ele><time>2026-04-11T13:28:20.999Z</time></trkpt><trkpt lat="42.99030638736787" lon="11.461040330278427"><ele>343.2857142857143</ele><time>2026-04-11T13:28:24.999Z</time></trkpt><trkpt lat="42.99036235402445" lon="11.461094247949408"><ele>344.42857142857144</ele><time>2026-04-11T13:28:28.999Z</time></trkpt><trkpt lat="42.990417796630865" lon="11.461163765297085"><ele>345.57142857142856</ele><time>2026-04-11T13:28:32.999Z</time></trkpt><trkpt lat="42.99047306733344" lon="11.461224750327666"><ele>346.7142857142857</ele><time>2026-04-11T13:28:36.999Z</time></trkpt><trkpt lat="42.99053483897244" lon="11.461277025125954"><ele>347.85714285714283</ele><time>2026-04-11T13:28:40.999Z</time></trkpt><trkpt lat="42.990592542247036" lon="11.461334476989348"><ele>349.0</ele><time>2026-04-11T13:28:44.999Z</time></trkpt><trkpt lat="42.990656340695786" lon="11.46136934392879"><ele>348.99999999999994</ele><time>2026-04-11T13:28:48.999Z</time></trkpt><trkpt lat="42.99071779304353" lon="11.461389470850152"><ele>349.0</ele><time>2026-04-11T13:28:52.999Z</time></trkpt><trkpt lat="42.990791852686094" lon="11.461384217286804"><ele>349.0</ele><time>2026-04-11T13:28:56.999Z</time></trkpt><trkpt lat="42.9908665467726" lon="11.461341654693896"><ele>349.0</ele><time>2026-04-11T13:29:01.999Z</time></trkpt><trkpt lat="42.990919591708575" lon="11.461282243431747"><ele>349.0</ele><time>2026-04-11T13:29:05.999Z</time></trkpt><trkpt lat="42.99096152275895" lon="11.461204085223411"><ele>348.99999999999994</ele><time>2026-04-11T13:29:09.999Z</time></trkpt><trkpt lat="42.99098002059291" lon="11.461121126747923"><ele>349.0</ele><time>2026-04-11T13:29:13.999Z</time></trkpt><trkpt lat="42.99098389571836" lon="11.461030294169978"><ele>352.1428571428571</ele><time>2026-04-11T13:29:17.999Z</time></trkpt><trkpt lat="42.990997412048806" lon="11.460938258991895"><ele>355.2857142857143</ele><time>2026-04-11T13:29:21.998Z</time></trkpt><trkpt lat="42.99103664262813" lon="11.46085624093277"><ele>358.42857142857144</ele><time>2026-04-11T13:29:25.998Z</time></trkpt><trkpt lat="42.991105658127616" lon="11.460793348713612"><ele>361.57142857142856</ele><time>2026-04-11T13:29:29.998Z</time></trkpt><trkpt lat="42.99117752708413" lon="11.460756811860948"><ele>364.7142857142857</ele><time>2026-04-11T13:29:34.998Z</time></trkpt><trkpt lat="42.99123933560622" lon="11.46072769818822"><ele>367.85714285714283</ele><time>2026-04-11T13:29:39Z</time></trkpt><trkpt lat="42.99130870705279" lon="11.460709034827762"><ele>371.0</ele><time>2026-04-11T13:29:44Z</time></trkpt><trkpt lat="42.99137666943638" lon="11.460686718295236"><ele>371.0</ele><time>2026-04-11T13:29:49Z</time></trkpt><trkpt lat="42.99144538384151" lon="11.460712657636055"><ele>371.0</ele><time>2026-04-11T13:29:54Z</time></trkpt><trkpt lat="42.99151326789324" lon="11.460734756052092"><ele>371.0</ele><time>2026-04-11T13:29:59Z</time></trkpt><trkpt lat="42.99157786616424" lon="11.460761203712284"><ele>371.0</ele><time>2026-04-11T13:30:04Z</time></trkpt><trkpt lat="42.99165209168736" lon="11.46076397683751"><ele>371.0</ele><time>2026-04-11T13:30:09Z</time></trkpt><trkpt lat="42.99171943936092" lon="11.460727300486004"><ele>371.0</ele><time>2026-04-11T13:30:14Z</time></trkpt><trkpt lat="42.991765751930664" lon="11.460666486324122"><ele>371.0</ele><time>2026-04-11T13:30:17.999Z</time></trkpt><trkpt lat="42.991792402507144" lon="11.460579306832502"><ele>375.1666666666667</ele><time>2026-04-11T13:30:21.999Z</time></trkpt><trkpt lat="42.9917847789999" lon="11.460456814038052"><ele>379.33333333333337</ele><time>2026-04-11T13:30:26.999Z</time></trkpt><trkpt lat="42.99179228486871" lon="11.460367639852334"><ele>383.5</ele><time>2026-04-11T13:30:30.999Z</time></trkpt><trkpt lat="42.99180096378878" lon="11.4602815845671"><ele>387.6666666666667</ele><time>2026-04-11T13:30:33.999Z</time></trkpt><trkpt lat="42.99182802144404" lon="11.460179318855749"><ele>391.8333333333333</ele><time>2026-04-11T13:30:37.999Z</time></trkpt><trkpt lat="42.991857111379886" lon="11.460090421820277"><ele>396.0</ele><time>2026-04-11T13:30:41.999Z</time></trkpt><trkpt lat="42.99189668390531" lon="11.459989410343919"><ele>396.0</ele><time>2026-04-11T13:30:45.999Z</time></trkpt><trkpt lat="42.99193382292929" lon="11.45989530222823"><ele>396.0</ele><time>2026-04-11T13:30:49.999Z</time></trkpt><trkpt lat="42.991968145016365" lon="11.459820405964686"><ele>396.0</ele><time>2026-04-11T13:30:52.999Z</time></trkpt><trkpt lat="42.992006317196534" lon="11.459743238606418"><ele>396.0</ele><time>2026-04-11T13:30:55.999Z</time></trkpt><trkpt lat="42.99205259087075" lon="11.459681147202126"><ele>396.0</ele><time>2026-04-11T13:30:58.999Z</time></trkpt><trkpt lat="42.99211827058713" lon="11.459616509368468"><ele>396.0</ele><time>2026-04-11T13:31:02.999Z</time></trkpt><trkpt lat="42.99218731213652" lon="11.459555456398054"><ele>396.0</ele><time>2026-04-11T13:31:06.999Z</time></trkpt><trkpt lat="42.992253373464834" lon="11.45949517636468"><ele>396.42857142857144</ele><time>2026-04-11T13:31:10.999Z</time></trkpt><trkpt lat="42.99231405502748" lon="11.45945090936163"><ele>396.85714285714283</ele><time>2026-04-11T13:31:14.999Z</time></trkpt><trkpt lat="42.99237438366516" lon="11.459410373406863"><ele>397.2857142857143</ele><time>2026-04-11T13:31:17.999Z</time></trkpt><trkpt lat="42.99243651103596" lon="11.459376207204713"><ele>397.7142857142857</ele><time>2026-04-11T13:31:21.999Z</time></trkpt><trkpt lat="42.992503360647255" lon="11.459336653577747"><ele>398.1428571428571</ele><time>2026-04-11T13:31:25.999Z</time></trkpt><trkpt lat="42.99257457382944" lon="11.459294592139475"><ele>398.57142857142856</ele><time>2026-04-11T13:31:29.998Z</time></trkpt><trkpt lat="42.99264284480414" lon="11.459267786036563"><ele>399.0</ele><time>2026-04-11T13:31:33.998Z</time></trkpt><trkpt lat="42.992706703220996" lon="11.459251005711755"><ele>399.0</ele><time>2026-04-11T13:31:36.998Z</time></trkpt><trkpt lat="42.992775423213295" lon="11.4592382050585"><ele>399.0</ele><time>2026-04-11T13:31:40.998Z</time></trkpt><trkpt lat="42.99283721191385" lon="11.459174003345945"><ele>399.0</ele><time>2026-04-11T13:31:45Z</time></trkpt><trkpt lat="42.99291095025782" lon="11.45913737890355"><ele>399.0</ele><time>2026-04-11T13:31:49Z</time></trkpt><trkpt lat="42.992989864666995" lon="11.45910184494636"><ele>399.0</ele><time>2026-04-11T13:31:53Z</time></trkpt><trkpt lat="42.99306701037757" lon="11.459071451030525"><ele>399.0</ele><time>2026-04-11T13:31:57Z</time></trkpt><trkpt lat="42.993147169948315" lon="11.459048539659447"><ele>399.0</ele><time>2026-04-11T13:32:01Z</time></trkpt><trkpt lat="42.993222153470306" lon="11.459032083526562"><ele>399.0</ele><time>2026-04-11T13:32:04Z</time></trkpt><trkpt lat="42.99329861193211" lon="11.45901129824249"><ele>399.0</ele><time>2026-04-11T13:32:08Z</time></trkpt><trkpt lat="42.99336436133694" lon="11.45898844766915"><ele>399.0</ele><time>2026-04-11T13:32:11Z</time></trkpt><trkpt lat="42.99343121434387" lon="11.458964368733577"><ele>399.0</ele><time>2026-04-11T13:32:14Z</time></trkpt><trkpt lat="42.993523584459965" lon="11.45892208134822"><ele>399.0</ele><time>2026-04-11T13:32:18Z</time></trkpt><trkpt lat="42.99360882114062" lon="11.458883472020846"><ele>400.6666666666667</ele><time>2026-04-11T13:32:21Z</time></trkpt><trkpt lat="42.99368373920306" lon="11.458843216920993"><ele>402.33333333333337</ele><time>2026-04-11T13:32:23.999Z</time></trkpt><trkpt lat="42.99375558151268" lon="11.458831864517535"><ele>404.0</ele><time>2026-04-11T13:32:27.999Z</time></trkpt><trkpt lat="42.99382021499296" lon="11.458801259279696"><ele>405.6666666666667</ele><time>2026-04-11T13:32:34.999Z</time></trkpt><trkpt lat="42.99388561868834" lon="11.458762135420574"><ele>407.33333333333337</ele><time>2026-04-11T13:32:38.999Z</time></trkpt><trkpt lat="42.993961556714865" lon="11.458723771360818"><ele>409.0</ele><time>2026-04-11T13:32:42.999Z</time></trkpt><trkpt lat="42.994037845790565" lon="11.458698181289783"><ele>405.33333333333337</ele><time>2026-04-11T13:32:45.999Z</time></trkpt><trkpt lat="42.994118424239915" lon="11.45866481305306"><ele>401.6666666666667</ele><time>2026-04-11T13:32:48.999Z</time></trkpt><trkpt lat="42.99420904758153" lon="11.45862000985386"><ele>398.0</ele><time>2026-04-11T13:32:51.999Z</time></trkpt><trkpt lat="42.99428048505127" lon="11.458578155924823"><ele>394.33333333333337</ele><time>2026-04-11T13:32:53.999Z</time></trkpt><trkpt lat="42.99435174081037" lon="11.458531061588948"><ele>390.6666666666667</ele><time>2026-04-11T13:32:55.999Z</time></trkpt><trkpt lat="42.994422210717026" lon="11.458489652809368"><ele>387.0</ele><time>2026-04-11T13:32:57.999Z</time></trkpt><trkpt lat="42.99448999788344" lon="11.45845395851678"><ele>387.0</ele><time>2026-04-11T13:32:59.999Z</time></trkpt><trkpt lat="42.99457299810589" lon="11.45842800110417"><ele>387.0</ele><time>2026-04-11T13:33:01.999Z</time></trkpt><trkpt lat="42.994653208593014" lon="11.458430246750616"><ele>387.0</ele><time>2026-04-11T13:33:03.999Z</time></trkpt><trkpt lat="42.99473732850278" lon="11.458442873888345"><ele>387.0</ele><time>2026-04-11T13:33:05.999Z</time></trkpt><trkpt lat="42.99481749393982" lon="11.45846605048561"><ele>387.0</ele><time>2026-04-11T13:33:07.999Z</time></trkpt><trkpt lat="42.99488342400199" lon="11.458496320136787"><ele>387.0</ele><time>2026-04-11T13:33:09.999Z</time></trkpt><trkpt lat="42.994961963387304" lon="11.458544235212196"><ele>386.8333333333333</ele><time>2026-04-11T13:33:12.999Z</time></trkpt><trkpt lat="42.9950267865678" lon="11.458592738759492"><ele>386.66666666666663</ele><time>2026-04-11T13:33:15.999Z</time></trkpt><trkpt lat="42.99511781380335" lon="11.458656970578756"><ele>386.5</ele><time>2026-04-11T13:33:30.999Z</time></trkpt><trkpt lat="42.99515953187497" lon="11.458730348873889"><ele>386.3333333333333</ele><time>2026-04-11T13:34:08Z</time></trkpt><trkpt lat="42.99519781094547" lon="11.458808829674412"><ele>386.16666666666663</ele><time>2026-04-11T13:34:50.999Z</time></trkpt><trkpt lat="42.99524074069194" lon="11.458890561802768"><ele>386.0</ele><time>2026-04-11T13:34:56.999Z</time></trkpt><trkpt lat="42.995278828812516" lon="11.458967864494252"><ele>386.8571428571429</ele><time>2026-04-11T13:35:01.999Z</time></trkpt><trkpt lat="42.99531951770822" lon="11.459047293978314"><ele>387.7142857142857</ele><time>2026-04-11T13:35:06.999Z</time></trkpt><trkpt lat="42.99534853653455" lon="11.459134361122311"><ele>388.57142857142856</ele><time>2026-04-11T13:35:11.999Z</time></trkpt><trkpt lat="42.99537933312498" lon="11.459211630735593"><ele>389.42857142857144</ele><time>2026-04-11T13:35:16.999Z</time></trkpt><trkpt lat="42.99541150596727" lon="11.459308178177968"><ele>390.2857142857143</ele><time>2026-04-11T13:35:21.999Z</time></trkpt><trkpt lat="42.995440115608936" lon="11.459406253391128"><ele>391.14285714285717</ele><time>2026-04-11T13:35:26.999Z</time></trkpt><trkpt lat="42.99547114077917" lon="11.459501461691044"><ele>392.0</ele><time>2026-04-11T13:35:31.999Z</time></trkpt><trkpt lat="42.99550658083971" lon="11.459597921888276"><ele>394.14285714285717</ele><time>2026-04-11T13:35:36.999Z</time></trkpt><trkpt lat="42.9955393815862" lon="11.459688099995327"><ele>396.2857142857143</ele><time>2026-04-11T13:35:41.999Z</time></trkpt><trkpt lat="42.99557165262476" lon="11.459788756040176"><ele>398.42857142857144</ele><time>2026-04-11T13:35:47.998Z</time></trkpt><trkpt lat="42.995601620151476" lon="11.459878343921872"><ele>400.57142857142856</ele><time>2026-04-11T13:35:52.998Z</time></trkpt><trkpt lat="42.995629270124866" lon="11.459962215510672"><ele>402.7142857142857</ele><time>2026-04-11T13:35:58Z</time></trkpt><trkpt lat="42.99565796559915" lon="11.460056052820518"><ele>404.8571428571429</ele><time>2026-04-11T13:36:03Z</time></trkpt><trkpt lat="42.99567485619337" lon="11.460140977168063"><ele>407.0</ele><time>2026-04-11T13:36:07Z</time></trkpt><trkpt lat="42.99568894349482" lon="11.460243221363513"><ele>407.00000000000006</ele><time>2026-04-11T13:36:11Z</time></trkpt><trkpt lat="42.99570388290461" lon="11.460349468184354"><ele>407.0</ele><time>2026-04-11T13:36:16Z</time></trkpt><trkpt lat="42.99571182550616" lon="11.46043572614371"><ele>407.0</ele><time>2026-04-11T13:36:20Z</time></trkpt><trkpt lat="42.99573626486339" lon="11.46051773191987"><ele>407.0</ele><time>2026-04-11T13:36:25Z</time></trkpt><trkpt lat="42.995786787478465" lon="11.4605852860478"><ele>407.0</ele><time>2026-04-11T13:36:31Z</time></trkpt><trkpt lat="42.99584336386118" lon="11.460652574689322"><ele>407.00000000000006</ele><time>2026-04-11T13:36:34Z</time></trkpt><trkpt lat="42.995898015712015" lon="11.460704822798066"><ele>407.0</ele><time>2026-04-11T13:36:37Z</time></trkpt><trkpt lat="42.995929385205415" lon="11.460784263088895"><ele>408.28571428571433</ele><time>2026-04-11T13:36:40Z</time></trkpt><trkpt lat="42.995975135072946" lon="11.460848404917822"><ele>409.57142857142856</ele><time>2026-04-11T13:36:43Z</time></trkpt><trkpt lat="42.99601175721081" lon="11.460918594308938"><ele>410.8571428571429</ele><time>2026-04-11T13:36:45.999Z</time></trkpt><trkpt lat="42.99606275586345" lon="11.460996153107455"><ele>412.14285714285717</ele><time>2026-04-11T13:36:49.999Z</time></trkpt><trkpt lat="42.9961180688111" lon="11.460951610291838"><ele>413.42857142857144</ele><time>2026-04-11T13:38:46Z</time></trkpt><trkpt lat="42.99606508775202" lon="11.461005106220508"><ele>414.7142857142857</ele><time>2026-04-11T13:40:57.999Z</time></trkpt><trkpt lat="42.99600923838142" lon="11.46096221236623"><ele>416.0</ele><time>2026-04-11T13:41:10.999Z</time></trkpt><trkpt lat="42.99596010065738" lon="11.46089087356114"><ele>415.99999999999994</ele><time>2026-04-11T13:41:13.999Z</time></trkpt><trkpt lat="42.99590704372052" lon="11.460781586363234"><ele>416.0</ele><time>2026-04-11T13:41:16.999Z</time></trkpt><trkpt lat="42.99587273329363" lon="11.460695995780029"><ele>416.0</ele><time>2026-04-11T13:41:19.999Z</time></trkpt><trkpt lat="42.99584281359449" lon="11.460601179930357"><ele>416.0</ele><time>2026-04-11T13:41:23.999Z</time></trkpt><trkpt lat="42.99591195105749" lon="11.460528130121942"><ele>415.99999999999994</ele><time>2026-04-11T13:41:26.999Z</time></trkpt><trkpt lat="42.99598217437029" lon="11.460504424708912"><ele>416.0</ele><time>2026-04-11T13:41:28.999Z</time></trkpt><trkpt lat="42.996055648215055" lon="11.460465162214234"><ele>415.20000000000005</ele><time>2026-04-11T13:41:31.999Z</time></trkpt><trkpt lat="42.996142465226555" lon="11.460419337479166"><ele>414.40000000000003</ele><time>2026-04-11T13:41:34.999Z</time></trkpt><trkpt lat="42.99622308420045" lon="11.460369048441404"><ele>413.6</ele><time>2026-04-11T13:41:36.999Z</time></trkpt><trkpt lat="42.996302897602376" lon="11.460295006454773"><ele>412.8</ele><time>2026-04-11T13:41:38.999Z</time></trkpt><trkpt lat="42.99636333186833" lon="11.460187383301964"><ele>412.0</ele><time>2026-04-11T13:41:40.999Z</time></trkpt><trkpt lat="42.9964081744739" lon="11.460075888880258"><ele>412.00000000000006</ele><time>2026-04-11T13:41:42.999Z</time></trkpt><trkpt lat="42.996459482691165" lon="11.459977066324502"><ele>412.0</ele><time>2026-04-11T13:41:44.999Z</time></trkpt><trkpt lat="42.99649804535682" lon="11.459885048029983"><ele>412.0</ele><time>2026-04-11T13:41:46.999Z</time></trkpt><trkpt lat="42.9965475140553" lon="11.459789616764546"><ele>412.0</ele><time>2026-04-11T13:41:49.999Z</time></trkpt><trkpt lat="42.996598531979984" lon="11.459703111220207"><ele>412.00000000000006</ele><time>2026-04-11T13:41:52.999Z</time></trkpt><trkpt lat="42.99666101778768" lon="11.459624816111193"><ele>412.0</ele><time>2026-04-11T13:41:55.999Z</time></trkpt><trkpt lat="42.99670595959649" lon="11.459544966666309"><ele>413.1666666666667</ele><time>2026-04-11T13:41:58.999Z</time></trkpt><trkpt lat="42.99675191713554" lon="11.459462218187813"><ele>414.33333333333337</ele><time>2026-04-11T13:42:01.999Z</time></trkpt><trkpt lat="42.99680537070393" lon="11.45936818798497"><ele>415.5</ele><time>2026-04-11T13:42:04.999Z</time></trkpt><trkpt lat="42.99685385172835" lon="11.459264779936655"><ele>416.66666666666663</ele><time>2026-04-11T13:42:07.999Z</time></trkpt><trkpt lat="42.99687811648977" lon="11.459180614339699"><ele>417.8333333333333</ele><time>2026-04-11T13:42:09.999Z</time></trkpt><trkpt lat="42.99690800314507" lon="11.459091425863456"><ele>419.0</ele><time>2026-04-11T13:42:11.999Z</time></trkpt><trkpt lat="42.996934895818235" lon="11.458992870758406"><ele>418.99999999999994</ele><time>2026-04-11T13:42:14Z</time></trkpt><trkpt lat="42.996958228234405" lon="11.458888113255941"><ele>419.0</ele><time>2026-04-11T13:42:16Z</time></trkpt><trkpt lat="42.997005068578474" lon="11.458790781592171"><ele>419.0</ele><time>2026-04-11T13:42:18Z</time></trkpt><trkpt lat="42.9970739622359" lon="11.458728258545815"><ele>419.0</ele><time>2026-04-11T13:42:20Z</time></trkpt><trkpt lat="42.9971393729333" lon="11.458722567857427"><ele>418.99999999999994</ele><time>2026-04-11T13:42:22Z</time></trkpt><trkpt lat="42.99722143367764" lon="11.458728713656631"><ele>419.0</ele><time>2026-04-11T13:42:25Z</time></trkpt><trkpt lat="42.9972965565511" lon="11.458730831833947"><ele>419.1428571428571</ele><time>2026-04-11T13:42:28Z</time></trkpt><trkpt lat="42.997369446050186" lon="11.458711572124678"><ele>419.2857142857143</ele><time>2026-04-11T13:42:31Z</time></trkpt><trkpt lat="42.99744056355809" lon="11.458684836926148"><ele>419.42857142857144</ele><time>2026-04-11T13:42:34Z</time></trkpt><trkpt lat="42.9975075882622" lon="11.458647220567281"><ele>419.57142857142856</ele><time>2026-04-11T13:42:37Z</time></trkpt><trkpt lat="42.99756910550092" lon="11.458596168951393"><ele>419.7142857142857</ele><time>2026-04-11T13:42:40Z</time></trkpt><trkpt lat="42.99763643475544" lon="11.458566728288071"><ele>419.85714285714283</ele><time>2026-04-11T13:42:43Z</time></trkpt><trkpt lat="42.99769904503886" lon="11.458527878429818"><ele>420.0</ele><time>2026-04-11T13:42:46Z</time></trkpt><trkpt lat="42.99777140577216" lon="11.458482100700579"><ele>420.0</ele><time>2026-04-11T13:42:50Z</time></trkpt><trkpt lat="42.99783578423009" lon="11.458446582948573"><ele>420.0</ele><time>2026-04-11T13:42:53Z</time></trkpt><trkpt lat="42.99789147947115" lon="11.458405743499817"><ele>420.0</ele><time>2026-04-11T13:42:56Z</time></trkpt><trkpt lat="42.997961991048996" lon="11.458368216944221"><ele>420.0</ele><time>2026-04-11T13:42:59Z</time></trkpt><trkpt lat="42.99803818174571" lon="11.458330249583003"><ele>420.0</ele><time>2026-04-11T13:43:02Z</time></trkpt><trkpt lat="42.99811416546948" lon="11.45828528030603"><ele>420.0</ele><time>2026-04-11T13:43:05Z</time></trkpt><trkpt lat="42.99819486612711" lon="11.458234781051178"><ele>420.0</ele><time>2026-04-11T13:43:08Z</time></trkpt><trkpt lat="42.99828792028598" lon="11.458172566952365"><ele>420.0</ele><time>2026-04-11T13:43:11Z</time></trkpt><trkpt lat="42.9983524903002" lon="11.458130688754258"><ele>420.0</ele><time>2026-04-11T13:43:14Z</time></trkpt><trkpt lat="42.99842537680863" lon="11.458087438584926"><ele>420.0</ele><time>2026-04-11T13:43:17Z</time></trkpt><trkpt lat="42.99850865712668" lon="11.458051675950365"><ele>420.0</ele><time>2026-04-11T13:43:19.999Z</time></trkpt><trkpt lat="42.99858613882154" lon="11.458022879352143"><ele>420.0</ele><time>2026-04-11T13:43:22.999Z</time></trkpt><trkpt lat="42.99867006818857" lon="11.458001223378222"><ele>420.1666666666667</ele><time>2026-04-11T13:43:25.999Z</time></trkpt><trkpt lat="42.99875731389563" lon="11.457970552939758"><ele>420.33333333333337</ele><time>2026-04-11T13:43:30.999Z</time></trkpt><trkpt lat="42.99886498311931" lon="11.45794527035696"><ele>420.5</ele><time>2026-04-11T13:43:33.999Z</time></trkpt><trkpt lat="42.99894735272094" lon="11.457916243129672"><ele>420.6666666666667</ele><time>2026-04-11T13:43:36.999Z</time></trkpt><trkpt lat="42.99902052847914" lon="11.457909031303142"><ele>420.83333333333337</ele><time>2026-04-11T13:43:38.999Z</time></trkpt><trkpt lat="42.99909398787523" lon="11.457892480826867"><ele>421.0</ele><time>2026-04-11T13:43:40.999Z</time></trkpt><trkpt lat="42.99916214587742" lon="11.457871502264757"><ele>421.00000000000006</ele><time>2026-04-11T13:43:42.999Z</time></trkpt><trkpt lat="42.99926307227319" lon="11.457857177653768"><ele>421.0</ele><time>2026-04-11T13:43:44.999Z</time></trkpt><trkpt lat="42.999349097713285" lon="11.457857326750661"><ele>421.0</ele><time>2026-04-11T13:43:46.999Z</time></trkpt><trkpt lat="42.99943728372003" lon="11.457840848736186"><ele>421.0</ele><time>2026-04-11T13:43:48.999Z</time></trkpt><trkpt lat="42.99950992013814" lon="11.457837643828222"><ele>421.00000000000006</ele><time>2026-04-11T13:43:50.999Z</time></trkpt><trkpt lat="42.999578001848136" lon="11.45781702081631"><ele>421.0</ele><time>2026-04-11T13:43:52.999Z</time></trkpt><trkpt lat="42.99965131072809" lon="11.457811479007958"><ele>421.00000000000006</ele><time>2026-04-11T13:43:54.999Z</time></trkpt><trkpt lat="42.99972860923124" lon="11.45780782523934"><ele>421.0</ele><time>2026-04-11T13:43:56.999Z</time></trkpt><trkpt lat="42.99981807979394" lon="11.457814775034207"><ele>421.0</ele><time>2026-04-11T13:44:00.999Z</time></trkpt><trkpt lat="42.99989859099994" lon="11.457815191516442"><ele>421.0</ele><time>2026-04-11T13:44:02.999Z</time></trkpt><trkpt lat="42.99997971413443" lon="11.457811592646266"><ele>421.00000000000006</ele><time>2026-04-11T13:44:04.999Z</time></trkpt><trkpt lat="43.000062239716534" lon="11.45781948386729"><ele>421.0</ele><time>2026-04-11T13:44:06.999Z</time></trkpt><trkpt lat="43.000156795915544" lon="11.457822892972615"><ele>421.0</ele><time>2026-04-11T13:44:08.999Z</time></trkpt><trkpt lat="43.000259664274516" lon="11.45782193630165"><ele>421.0</ele><time>2026-04-11T13:44:10.999Z</time></trkpt><trkpt lat="43.00037170909564" lon="11.457820701323291"><ele>421.0</ele><time>2026-04-11T13:44:12.999Z</time></trkpt><trkpt lat="43.00049202516219" lon="11.457829109998068"><ele>421.0</ele><time>2026-04-11T13:44:14.999Z</time></trkpt><trkpt lat="43.00061331537879" lon="11.45785567019446"><ele>421.00000000000006</ele><time>2026-04-11T13:44:16.999Z</time></trkpt><trkpt lat="43.00073593790071" lon="11.45790765145364"><ele>421.0</ele><time>2026-04-11T13:44:19Z</time></trkpt><trkpt lat="43.00079801853955" lon="11.45794059435001"><ele>421.0</ele><time>2026-04-11T13:44:20Z</time></trkpt><trkpt lat="43.00085798669431" lon="11.457977547551184"><ele>421.0</ele><time>2026-04-11T13:44:21Z</time></trkpt><trkpt lat="43.000916844275295" lon="11.45801759065799"><ele>421.00000000000006</ele><time>2026-04-11T13:44:22Z</time></trkpt><trkpt lat="43.00097708383785" lon="11.458061245477763"><ele>421.0</ele><time>2026-04-11T13:44:23Z</time></trkpt><trkpt lat="43.00103169016" lon="11.45810520684419"><ele>422.8</ele><time>2026-04-11T13:44:24Z</time></trkpt><trkpt lat="43.00108696703461" lon="11.458147672045863"><ele>424.6</ele><time>2026-04-11T13:44:25Z</time></trkpt><trkpt lat="43.001196119923264" lon="11.45823507744016"><ele>426.4</ele><time>2026-04-11T13:44:27Z</time></trkpt><trkpt lat="43.00125000981272" lon="11.458282593719998"><ele>428.2</ele><time>2026-04-11T13:44:28Z</time></trkpt><trkpt lat="43.001358564992124" lon="11.45837381534143"><ele>430.0</ele><time>2026-04-11T13:44:30Z</time></trkpt><trkpt lat="43.001463015097336" lon="11.458461161942036"><ele>430.0</ele><time>2026-04-11T13:44:32Z</time></trkpt><trkpt lat="43.00156838468687" lon="11.458545617802692"><ele>430.0</ele><time>2026-04-11T13:44:34Z</time></trkpt><trkpt lat="43.00166976465589" lon="11.458638668321134"><ele>430.0</ele><time>2026-04-11T13:44:36Z</time></trkpt><trkpt lat="43.001723569030915" lon="11.458684158533979"><ele>430.0</ele><time>2026-04-11T13:44:37Z</time></trkpt><trkpt lat="43.001827268024876" lon="11.458776375884659"><ele>430.0</ele><time>2026-04-11T13:44:39Z</time></trkpt><trkpt lat="43.001879099033744" lon="11.458825359249156"><ele>431.00000000000006</ele><time>2026-04-11T13:44:40Z</time></trkpt><trkpt lat="43.00198298163554" lon="11.458927859977418"><ele>432.0</ele><time>2026-04-11T13:44:42Z</time></trkpt><trkpt lat="43.002035500942426" lon="11.45898019704405"><ele>433.0</ele><time>2026-04-11T13:44:43Z</time></trkpt><trkpt lat="43.00208581602923" lon="11.45903865275812"><ele>434.0</ele><time>2026-04-11T13:44:44Z</time></trkpt><trkpt lat="43.002136996330954" lon="11.459097182131616"><ele>435.00000000000006</ele><time>2026-04-11T13:44:45Z</time></trkpt><trkpt lat="43.00218765614648" lon="11.459160667131972"><ele>436.0</ele><time>2026-04-11T13:44:46Z</time></trkpt><trkpt lat="43.002239785737515" lon="11.459222724932243"><ele>436.0</ele><time>2026-04-11T13:44:47Z</time></trkpt><trkpt lat="43.002289160728196" lon="11.459285074946786"><ele>436.0</ele><time>2026-04-11T13:44:48Z</time></trkpt><trkpt lat="43.00233773395481" lon="11.459353619555596"><ele>436.0</ele><time>2026-04-11T13:44:49Z</time></trkpt><trkpt lat="43.00238109042366" lon="11.459427938316017"><ele>436.0</ele><time>2026-04-11T13:44:50Z</time></trkpt><trkpt lat="43.002426327522265" lon="11.459502737554216"><ele>436.0</ele><time>2026-04-11T13:44:51Z</time></trkpt><trkpt lat="43.002471049242786" lon="11.45957958815369"><ele>436.0</ele><time>2026-04-11T13:44:52Z</time></trkpt><trkpt lat="43.002519274932986" lon="11.45965492195165"><ele>436.0</ele><time>2026-04-11T13:44:53Z</time></trkpt><trkpt lat="43.00256446416022" lon="11.459735538274405"><ele>434.1666666666667</ele><time>2026-04-11T13:44:54Z</time></trkpt><trkpt lat="43.0026089287422" lon="11.459817753150704"><ele>432.33333333333337</ele><time>2026-04-11T13:44:55Z</time></trkpt><trkpt lat="43.002651069412536" lon="11.459901728759954"><ele>430.5</ele><time>2026-04-11T13:44:56Z</time></trkpt><trkpt lat="43.00269400680236" lon="11.459987985434868"><ele>428.66666666666663</ele><time>2026-04-11T13:44:57Z</time></trkpt><trkpt lat="43.00273733223177" lon="11.460079360520792"><ele>426.8333333333333</ele><time>2026-04-11T13:44:58Z</time></trkpt><trkpt lat="43.00277472256988" lon="11.460174995684175"><ele>425.0</ele><time>2026-04-11T13:44:59Z</time></trkpt><trkpt lat="43.00281495992815" lon="11.460270998078958"><ele>425.0</ele><time>2026-04-11T13:45:00Z</time></trkpt><trkpt lat="43.00284448843548" lon="11.460359179237512"><ele>425.0</ele><time>2026-04-11T13:45:01Z</time></trkpt><trkpt lat="43.002871171784676" lon="11.460449044257995"><ele>425.0</ele><time>2026-04-11T13:45:02Z</time></trkpt><trkpt lat="43.00289940514282" lon="11.460538957757784"><ele>425.0</ele><time>2026-04-11T13:45:03Z</time></trkpt><trkpt lat="43.002916531852485" lon="11.460632641586274"><ele>425.0</ele><time>2026-04-11T13:45:04Z</time></trkpt><trkpt lat="43.00294128172284" lon="11.460724764219087"><ele>425.0</ele><time>2026-04-11T13:45:05Z</time></trkpt><trkpt lat="43.00296095184278" lon="11.460818459260873"><ele>425.0</ele><time>2026-04-11T13:45:06Z</time></trkpt><trkpt lat="43.002976795454664" lon="11.460913902286126"><ele>425.42857142857144</ele><time>2026-04-11T13:45:07Z</time></trkpt><trkpt lat="43.00298932133227" lon="11.461011621749373"><ele>425.85714285714283</ele><time>2026-04-11T13:45:08Z</time></trkpt><trkpt lat="43.00299823332056" lon="11.461103810050403"><ele>426.28571428571433</ele><time>2026-04-11T13:45:09Z</time></trkpt><trkpt lat="43.00300374383713" lon="11.461197973560674"><ele>426.7142857142857</ele><time>2026-04-11T13:45:10Z</time></trkpt><trkpt lat="43.00300674255418" lon="11.461288705426877"><ele>427.14285714285717</ele><time>2026-04-11T13:45:11Z</time></trkpt><trkpt lat="43.00301079995308" lon="11.461385093194082"><ele>427.5714285714286</ele><time>2026-04-11T13:45:12Z</time></trkpt><trkpt lat="43.003013288065155" lon="11.461479690096155"><ele>428.0</ele><time>2026-04-11T13:45:13Z</time></trkpt><trkpt lat="43.003015748948826" lon="11.461566235077182"><ele>428.00000000000006</ele><time>2026-04-11T13:45:14Z</time></trkpt><trkpt lat="43.00301582803664" lon="11.461659813660217"><ele>428.0</ele><time>2026-04-11T13:45:15Z</time></trkpt><trkpt lat="43.00301763017197" lon="11.461750866802323"><ele>428.0</ele><time>2026-04-11T13:45:16Z</time></trkpt><trkpt lat="43.00301775581934" lon="11.461840483844579"><ele>428.0</ele><time>2026-04-11T13:45:17Z</time></trkpt><trkpt lat="43.00302028669667" lon="11.461926779396114"><ele>428.0</ele><time>2026-04-11T13:45:18Z</time></trkpt><trkpt lat="43.00302446795853" lon="11.4620131137844"><ele>428.00000000000006</ele><time>2026-04-11T13:45:19Z</time></trkpt><trkpt lat="43.00303325989838" lon="11.462175258567585"><ele>428.0</ele><time>2026-04-11T13:45:21Z</time></trkpt><trkpt lat="43.00305905847398" lon="11.46232789663327"><ele>427.79999999999995</ele><time>2026-04-11T13:45:23Z</time></trkpt><trkpt lat="43.003105720281944" lon="11.462460776775252"><ele>427.59999999999997</ele><time>2026-04-11T13:45:25Z</time></trkpt><trkpt lat="43.003152784690435" lon="11.462576965079705"><ele>427.40000000000003</ele><time>2026-04-11T13:45:27Z</time></trkpt><trkpt lat="43.00320147955346" lon="11.462684361912386"><ele>427.20000000000005</ele><time>2026-04-11T13:45:29Z</time></trkpt><trkpt lat="43.003257638312235" lon="11.46277550162692"><ele>427.0</ele><time>2026-04-11T13:45:30.999Z</time></trkpt><trkpt lat="43.0033180440517" lon="11.462857206324754"><ele>425.42857142857144</ele><time>2026-04-11T13:45:32.999Z</time></trkpt><trkpt lat="43.00338065141241" lon="11.462921889678055"><ele>423.8571428571429</ele><time>2026-04-11T13:45:34.999Z</time></trkpt><trkpt lat="43.003447336823974" lon="11.462969008641629"><ele>422.2857142857143</ele><time>2026-04-11T13:45:36.999Z</time></trkpt><trkpt lat="43.00351322891986" lon="11.463011226386179"><ele>420.7142857142857</ele><time>2026-04-11T13:45:38.999Z</time></trkpt><trkpt lat="43.00357750114478" lon="11.463047626433392"><ele>419.14285714285717</ele><time>2026-04-11T13:45:40.999Z</time></trkpt><trkpt lat="43.00363134946555" lon="11.463095029746029"><ele>417.57142857142856</ele><time>2026-04-11T13:45:42.999Z</time></trkpt><trkpt lat="43.00366260979205" lon="11.463188599331444"><ele>416.0</ele><time>2026-04-11T13:45:45.999Z</time></trkpt><trkpt lat="43.003681465987746" lon="11.463289081650407"><ele>415.99999999999994</ele><time>2026-04-11T13:45:48.999Z</time></trkpt><trkpt lat="43.003721905223195" lon="11.463362545827755"><ele>416.0</ele><time>2026-04-11T13:45:50.999Z</time></trkpt><trkpt lat="43.00378792928931" lon="11.463440960315715"><ele>416.0</ele><time>2026-04-11T13:45:52.999Z</time></trkpt><trkpt lat="43.00386436486796" lon="11.463507611954883"><ele>416.0</ele><time>2026-04-11T13:45:54.999Z</time></trkpt><trkpt lat="43.00393885038372" lon="11.463570995517646"><ele>415.99999999999994</ele><time>2026-04-11T13:45:56.999Z</time></trkpt><trkpt lat="43.00400306866745" lon="11.463644442888286"><ele>416.0</ele><time>2026-04-11T13:45:58.999Z</time></trkpt><trkpt lat="43.0040626684501" lon="11.4637166883789"><ele>415.99999999999994</ele><time>2026-04-11T13:46:00.999Z</time></trkpt><trkpt lat="43.00412551757614" lon="11.46377210337793"><ele>416.0</ele><time>2026-04-11T13:46:02.999Z</time></trkpt><trkpt lat="43.00418786759828" lon="11.46381167541108"><ele>416.0</ele><time>2026-04-11T13:46:04.999Z</time></trkpt><trkpt lat="43.00424590633147" lon="11.463852395121998"><ele>416.0</ele><time>2026-04-11T13:46:06.999Z</time></trkpt><trkpt lat="43.004309709753294" lon="11.463883014728767"><ele>415.99999999999994</ele><time>2026-04-11T13:46:08.999Z</time></trkpt><trkpt lat="43.00439696914374" lon="11.4639258685367"><ele>416.0</ele><time>2026-04-11T13:46:11.999Z</time></trkpt><trkpt lat="43.00448194835983" lon="11.463966288884778"><ele>415.8</ele><time>2026-04-11T13:46:14.999Z</time></trkpt><trkpt lat="43.00456473218401" lon="11.464009423498421"><ele>415.6</ele><time>2026-04-11T13:46:17.999Z</time></trkpt><trkpt lat="43.00463935493477" lon="11.464071381411234"><ele>415.4</ele><time>2026-04-11T13:46:20.999Z</time></trkpt><trkpt lat="43.004701365253" lon="11.46416089460097"><ele>415.2</ele><time>2026-04-11T13:46:23.999Z</time></trkpt><trkpt lat="43.00475311549975" lon="11.464266006075542"><ele>415.0</ele><time>2026-04-11T13:46:27Z</time></trkpt><trkpt lat="43.00478960167148" lon="11.464381795045991"><ele>415.00000000000006</ele><time>2026-04-11T13:46:30Z</time></trkpt><trkpt lat="43.00481499338482" lon="11.46450724335246"><ele>415.0</ele><time>2026-04-11T13:46:33Z</time></trkpt><trkpt lat="43.00482898982001" lon="11.464599329066841"><ele>415.0</ele><time>2026-04-11T13:46:35Z</time></trkpt><trkpt lat="43.004836765677126" lon="11.464694010625319"><ele>415.0</ele><time>2026-04-11T13:46:37Z</time></trkpt><trkpt lat="43.004841334673515" lon="11.464791348355376"><ele>415.00000000000006</ele><time>2026-04-11T13:46:39Z</time></trkpt><trkpt lat="43.004842561300535" lon="11.464905445632896"><ele>415.0</ele><time>2026-04-11T13:46:41Z</time></trkpt><trkpt lat="43.00483503663553" lon="11.46502645266483"><ele>414.0</ele><time>2026-04-11T13:46:43Z</time></trkpt><trkpt lat="43.00480691670409" lon="11.46514904699269"><ele>413.0</ele><time>2026-04-11T13:46:45Z</time></trkpt><trkpt lat="43.00476944033077" lon="11.465275691630417"><ele>412.0</ele><time>2026-04-11T13:46:47Z</time></trkpt><trkpt lat="43.00472394313257" lon="11.465401088867928"><ele>411.0</ele><time>2026-04-11T13:46:49Z</time></trkpt><trkpt lat="43.00468908411131" lon="11.46553773577889"><ele>410.0</ele><time>2026-04-11T13:46:51Z</time></trkpt><trkpt lat="43.004671005935194" lon="11.465686480821434"><ele>409.75</ele><time>2026-04-11T13:46:53Z</time></trkpt><trkpt lat="43.00466117327649" lon="11.46583561968822"><ele>409.5</ele><time>2026-04-11T13:46:55Z</time></trkpt><trkpt lat="43.00465912214791" lon="11.466004897621833"><ele>409.25</ele><time>2026-04-11T13:46:57Z</time></trkpt><trkpt lat="43.00465384687431" lon="11.466168977999057"><ele>409.0</ele><time>2026-04-11T13:46:59Z</time></trkpt><trkpt lat="43.004654222700246" lon="11.46632408189041"><ele>408.2</ele><time>2026-04-11T13:47:01Z</time></trkpt><trkpt lat="43.004658338812625" lon="11.466464964241949"><ele>407.4</ele><time>2026-04-11T13:47:03Z</time></trkpt><trkpt lat="43.00466463112392" lon="11.466604057126261"><ele>406.6</ele><time>2026-04-11T13:47:05Z</time></trkpt><trkpt lat="43.00466951989624" lon="11.466768394416961"><ele>405.8</ele><time>2026-04-11T13:47:07Z</time></trkpt><trkpt lat="43.00467287645882" lon="11.466926809925802"><ele>405.0</ele><time>2026-04-11T13:47:09Z</time></trkpt><trkpt lat="43.004683200071106" lon="11.46707217761045"><ele>404.0</ele><time>2026-04-11T13:47:11Z</time></trkpt><trkpt lat="43.00469881833446" lon="11.467210362688759"><ele>403.0</ele><time>2026-04-11T13:47:13Z</time></trkpt><trkpt lat="43.00472449549845" lon="11.467341143795045"><ele>402.0</ele><time>2026-04-11T13:47:15Z</time></trkpt><trkpt lat="43.004751971178564" lon="11.467474523657875"><ele>401.0</ele><time>2026-04-11T13:47:17Z</time></trkpt><trkpt lat="43.00477781222671" lon="11.467611393911847"><ele>400.0</ele><time>2026-04-11T13:47:19Z</time></trkpt><trkpt lat="43.00479458771883" lon="11.467748283305458"><ele>400.0</ele><time>2026-04-11T13:47:21Z</time></trkpt><trkpt lat="43.00478938333664" lon="11.467903873469691"><ele>400.0</ele><time>2026-04-11T13:47:23Z</time></trkpt><trkpt lat="43.00476532892867" lon="11.46805206981731"><ele>400.0</ele><time>2026-04-11T13:47:25Z</time></trkpt><trkpt lat="43.00472203231719" lon="11.46818242262374"><ele>400.0</ele><time>2026-04-11T13:47:27Z</time></trkpt><trkpt lat="43.004653362614945" lon="11.46827068763335"><ele>400.0</ele><time>2026-04-11T13:47:29Z</time></trkpt><trkpt lat="43.0045559986428" lon="11.468311156970197"><ele>400.25</ele><time>2026-04-11T13:47:31Z</time></trkpt><trkpt lat="43.004440857597416" lon="11.468314520910083"><ele>400.5</ele><time>2026-04-11T13:47:33Z</time></trkpt><trkpt lat="43.004329248647444" lon="11.46833405174582"><ele>400.75</ele><time>2026-04-11T13:47:35Z</time></trkpt><trkpt lat="43.00421077174555" lon="11.468337501888266"><ele>401.0</ele><time>2026-04-11T13:47:37Z</time></trkpt><trkpt lat="43.00410332602793" lon="11.468343350821167"><ele>399.16666666666663</ele><time>2026-04-11T13:47:38.999Z</time></trkpt><trkpt lat="43.00398027902472" lon="11.468400210880151"><ele>397.3333333333333</ele><time>2026-04-11T13:47:40.999Z</time></trkpt><trkpt lat="43.00392139924015" lon="11.468457109860678"><ele>395.5</ele><time>2026-04-11T13:47:41.999Z</time></trkpt><trkpt lat="43.00386599211631" lon="11.468532907773927"><ele>393.66666666666663</ele><time>2026-04-11T13:47:42.999Z</time></trkpt><trkpt lat="43.00381485124026" lon="11.46860946077266"><ele>391.8333333333333</ele><time>2026-04-11T13:47:43.999Z</time></trkpt><trkpt lat="43.00377582184192" lon="11.468698294970123"><ele>390.0</ele><time>2026-04-11T13:47:44.999Z</time></trkpt><trkpt lat="43.0037479926052" lon="11.468788836273845"><ele>389.8</ele><time>2026-04-11T13:47:45.999Z</time></trkpt><trkpt lat="43.00372811533274" lon="11.46887800641231"><ele>389.6</ele><time>2026-04-11T13:47:46.999Z</time></trkpt><trkpt lat="43.00370610664649" lon="11.469041264931642"><ele>389.4</ele><time>2026-04-11T13:47:48.999Z</time></trkpt><trkpt lat="43.00369381128646" lon="11.469197966917337"><ele>389.2</ele><time>2026-04-11T13:47:50.999Z</time></trkpt><trkpt lat="43.00368719061392" lon="11.469344876846868"><ele>389.0</ele><time>2026-04-11T13:47:52.999Z</time></trkpt><trkpt lat="43.00368584016654" lon="11.46947985206587"><ele>389.2</ele><time>2026-04-11T13:47:54.999Z</time></trkpt><trkpt lat="43.0036752967864" lon="11.469617857538193"><ele>389.4</ele><time>2026-04-11T13:47:56.999Z</time></trkpt><trkpt lat="43.003672487615695" lon="11.46975256007631"><ele>389.6</ele><time>2026-04-11T13:47:58.999Z</time></trkpt><trkpt lat="43.003662231985" lon="11.469881214079674"><ele>389.8</ele><time>2026-04-11T13:48:00.999Z</time></trkpt><trkpt lat="43.003642540066565" lon="11.47001255767194"><ele>390.0</ele><time>2026-04-11T13:48:02.999Z</time></trkpt><trkpt lat="43.0036086134496" lon="11.470146799613214"><ele>390.0</ele><time>2026-04-11T13:48:04.999Z</time></trkpt><trkpt lat="43.00356239004401" lon="11.47029707093896"><ele>390.0</ele><time>2026-04-11T13:48:06.999Z</time></trkpt><trkpt lat="43.00352208531253" lon="11.470445685348116"><ele>390.0</ele><time>2026-04-11T13:48:08.999Z</time></trkpt><trkpt lat="43.0034760206959" lon="11.470596593386258"><ele>390.0</ele><time>2026-04-11T13:48:10.999Z</time></trkpt><trkpt lat="43.00345900655815" lon="11.470682170550297"><ele>390.0</ele><time>2026-04-11T13:48:11.999Z</time></trkpt><trkpt lat="43.003421165178466" lon="11.470836777051362"><ele>390.4</ele><time>2026-04-11T13:48:13.999Z</time></trkpt><trkpt lat="43.00338409748182" lon="11.470989633316941"><ele>390.8</ele><time>2026-04-11T13:48:15.999Z</time></trkpt><trkpt lat="43.00335638339707" lon="11.471147975160454"><ele>391.20000000000005</ele><time>2026-04-11T13:48:17.999Z</time></trkpt><trkpt lat="43.00333382687866" lon="11.471292751344436"><ele>391.6</ele><time>2026-04-11T13:48:19.999Z</time></trkpt><trkpt lat="43.00331201583991" lon="11.47142397786416"><ele>392.0</ele><time>2026-04-11T13:48:21.999Z</time></trkpt><trkpt lat="43.00330301923258" lon="11.471558068493954"><ele>390.49999999999994</ele><time>2026-04-11T13:48:23.999Z</time></trkpt><trkpt lat="43.003291835809534" lon="11.471672832619044"><ele>389.0</ele><time>2026-04-11T13:48:25.999Z</time></trkpt><trkpt lat="43.00327361823566" lon="11.47178465420185"><ele>387.5</ele><time>2026-04-11T13:48:27.999Z</time></trkpt><trkpt lat="43.003246180814806" lon="11.471886048635499"><ele>386.0</ele><time>2026-04-11T13:48:29.999Z</time></trkpt><trkpt lat="43.003219673934595" lon="11.471976314091794"><ele>384.5</ele><time>2026-04-11T13:48:32.001Z</time></trkpt><trkpt lat="43.00319015486615" lon="11.472076656062594"><ele>383.0</ele><time>2026-04-11T13:48:34.001Z</time></trkpt><trkpt lat="43.00316556324322" lon="11.472186378762174"><ele>383.0</ele><time>2026-04-11T13:48:36.001Z</time></trkpt><trkpt lat="43.00315518437913" lon="11.472311855279926"><ele>383.0</ele><time>2026-04-11T13:48:38.001Z</time></trkpt><trkpt lat="43.00315722332089" lon="11.472443884057812"><ele>383.0</ele><time>2026-04-11T13:48:40.001Z</time></trkpt><trkpt lat="43.00316942287045" lon="11.472582541237568"><ele>383.0</ele><time>2026-04-11T13:48:42Z</time></trkpt><trkpt lat="43.003169524181025" lon="11.472724982459322"><ele>383.0</ele><time>2026-04-11T13:48:44Z</time></trkpt><trkpt lat="43.0031592231851" lon="11.472869237338093"><ele>383.25</ele><time>2026-04-11T13:48:46Z</time></trkpt><trkpt lat="43.00314354308357" lon="11.473018506632938"><ele>383.5</ele><time>2026-04-11T13:48:48Z</time></trkpt><trkpt lat="43.003130103858815" lon="11.473179866887195"><ele>383.75</ele><time>2026-04-11T13:48:50Z</time></trkpt><trkpt lat="43.003118012692234" lon="11.473342551029386"><ele>384.0</ele><time>2026-04-11T13:48:52Z</time></trkpt><trkpt lat="43.003115618826996" lon="11.473491951159819"><ele>384.0</ele><time>2026-04-11T13:48:54Z</time></trkpt><trkpt lat="43.003126810320346" lon="11.473632728590756"><ele>384.0</ele><time>2026-04-11T13:48:56Z</time></trkpt><trkpt lat="43.003160100523104" lon="11.473776081789682"><ele>384.0</ele><time>2026-04-11T13:48:58Z</time></trkpt><trkpt lat="43.003221826496144" lon="11.473909887905702"><ele>384.0</ele><time>2026-04-11T13:49:00Z</time></trkpt><trkpt lat="43.00330399429169" lon="11.474034456239746"><ele>385.0</ele><time>2026-04-11T13:49:02Z</time></trkpt><trkpt lat="43.00335440867762" lon="11.47408917820726"><ele>386.0</ele><time>2026-04-11T13:49:03Z</time></trkpt><trkpt lat="43.00341143670226" lon="11.474134438490426"><ele>387.0</ele><time>2026-04-11T13:49:04Z</time></trkpt><trkpt lat="43.003517228231885" lon="11.47420497697603"><ele>388.0</ele><time>2026-04-11T13:49:06Z</time></trkpt><trkpt lat="43.003626730687195" lon="11.47427147021647"><ele>389.0</ele><time>2026-04-11T13:49:08Z</time></trkpt><trkpt lat="43.00367314527197" lon="11.474396184761455"><ele>388.99999999999994</ele><time>2026-04-11T13:49:10Z</time></trkpt><trkpt lat="43.00364685862682" lon="11.47449812323406"><ele>389.0</ele><time>2026-04-11T13:49:12Z</time></trkpt><trkpt lat="43.003598531162076" lon="11.474591828836573"><ele>389.0</ele><time>2026-04-11T13:49:14Z</time></trkpt><trkpt lat="43.00353200789143" lon="11.474661453855962"><ele>389.0</ele><time>2026-04-11T13:49:16Z</time></trkpt><trkpt lat="43.00346614065412" lon="11.474708587865855"><ele>388.99999999999994</ele><time>2026-04-11T13:49:18Z</time></trkpt><trkpt lat="43.00339715601188" lon="11.474745924507994"><ele>389.0</ele><time>2026-04-11T13:49:20Z</time></trkpt><trkpt lat="43.00332021793213" lon="11.474778442964494"><ele>387.49999999999994</ele><time>2026-04-11T13:49:22Z</time></trkpt><trkpt lat="43.00323859241627" lon="11.474808595997102"><ele>386.0</ele><time>2026-04-11T13:49:24Z</time></trkpt><trkpt lat="43.00318004457338" lon="11.47489739894478"><ele>384.5</ele><time>2026-04-11T13:49:26Z</time></trkpt><trkpt lat="43.00310888275713" lon="11.474931968999774"><ele>383.0</ele><time>2026-04-11T13:49:28Z</time></trkpt><trkpt lat="43.00303359743966" lon="11.474973188430528"><ele>381.5</ele><time>2026-04-11T13:49:30Z</time></trkpt><trkpt lat="43.00294863053572" lon="11.475031108665904"><ele>380.0</ele><time>2026-04-11T13:49:32Z</time></trkpt><trkpt lat="43.0028484385396" lon="11.475102051809067"><ele>380.0</ele><time>2026-04-11T13:49:34Z</time></trkpt><trkpt lat="43.00275812824507" lon="11.47516278046035"><ele>380.0</ele><time>2026-04-11T13:49:36Z</time></trkpt><trkpt lat="43.00267177003748" lon="11.475217673823039"><ele>380.0</ele><time>2026-04-11T13:49:38Z</time></trkpt><trkpt lat="43.00258208618456" lon="11.475286510755986"><ele>380.0</ele><time>2026-04-11T13:49:40Z</time></trkpt><trkpt lat="43.002490321049194" lon="11.475349663090139"><ele>380.0</ele><time>2026-04-11T13:49:42Z</time></trkpt><trkpt lat="43.00239333160811" lon="11.47542034689421"><ele>379.4</ele><time>2026-04-11T13:49:44Z</time></trkpt><trkpt lat="43.00228927435817" lon="11.47549824248803"><ele>378.8</ele><time>2026-04-11T13:49:45.999Z</time></trkpt><trkpt lat="43.00218138571027" lon="11.475580374483563"><ele>378.20000000000005</ele><time>2026-04-11T13:49:47.999Z</time></trkpt><trkpt lat="43.002126075536836" lon="11.475622671889894"><ele>377.6</ele><time>2026-04-11T13:49:48.999Z</time></trkpt><trkpt lat="43.00201721664803" lon="11.475705597281348"><ele>377.0</ele><time>2026-04-11T13:49:50.999Z</time></trkpt><trkpt lat="43.00195757881484" lon="11.475748277869064"><ele>376.99999999999994</ele><time>2026-04-11T13:49:51.999Z</time></trkpt><trkpt lat="43.00190133391693" lon="11.475789729904275"><ele>377.0</ele><time>2026-04-11T13:49:52.999Z</time></trkpt><trkpt lat="43.001842399303875" lon="11.475832423150658"><ele>377.0</ele><time>2026-04-11T13:49:53.999Z</time></trkpt><trkpt lat="43.00178529332904" lon="11.475875649057842"><ele>377.0</ele><time>2026-04-11T13:49:54.999Z</time></trkpt><trkpt lat="43.0017253911991" lon="11.475922294591781"><ele>377.0</ele><time>2026-04-11T13:49:55.999Z</time></trkpt><trkpt lat="43.00166922625106" lon="11.47596395585225"><ele>376.99999999999994</ele><time>2026-04-11T13:49:56.999Z</time></trkpt><trkpt lat="43.00161325151633" lon="11.476007556640294"><ele>377.0</ele><time>2026-04-11T13:49:57.999Z</time></trkpt><trkpt lat="43.00155701003443" lon="11.476050271217725"><ele>376.40000000000003</ele><time>2026-04-11T13:49:58.999Z</time></trkpt><trkpt lat="43.00144928964629" lon="11.476135007164212"><ele>375.8</ele><time>2026-04-11T13:50:00.999Z</time></trkpt><trkpt lat="43.00135104447595" lon="11.476217273997522"><ele>375.2</ele><time>2026-04-11T13:50:02.999Z</time></trkpt><trkpt lat="43.001263601105954" lon="11.476289144295858"><ele>374.6</ele><time>2026-04-11T13:50:04.999Z</time></trkpt><trkpt lat="43.001185604211834" lon="11.476347763606617"><ele>374.0</ele><time>2026-04-11T13:50:06.999Z</time></trkpt><trkpt lat="43.001107344946284" lon="11.476416164080153"><ele>374.2</ele><time>2026-04-11T13:50:08.999Z</time></trkpt><trkpt lat="43.00102845268127" lon="11.476461408619656"><ele>374.4</ele><time>2026-04-11T13:50:10.999Z</time></trkpt><trkpt lat="43.00092722632624" lon="11.476448299029355"><ele>374.6</ele><time>2026-04-11T13:50:12.999Z</time></trkpt><trkpt lat="43.00083945859198" lon="11.47637788672449"><ele>374.8</ele><time>2026-04-11T13:50:14.999Z</time></trkpt><trkpt lat="43.00075896457115" lon="11.47627856591425"><ele>375.0</ele><time>2026-04-11T13:50:16.999Z</time></trkpt><trkpt lat="43.000695121034994" lon="11.476154489392917"><ele>375.0</ele><time>2026-04-11T13:50:18.999Z</time></trkpt><trkpt lat="43.000629945483816" lon="11.476025866885912"><ele>375.0</ele><time>2026-04-11T13:50:20.999Z</time></trkpt><trkpt lat="43.000567761141795" lon="11.475885503337876"><ele>375.0</ele><time>2026-04-11T13:50:22.999Z</time></trkpt><trkpt lat="43.00053634044776" lon="11.475810639703722"><ele>375.0</ele><time>2026-04-11T13:50:23.999Z</time></trkpt><trkpt lat="43.00049862990082" lon="11.475734905534681"><ele>375.0</ele><time>2026-04-11T13:50:24.999Z</time></trkpt><trkpt lat="43.00046415987508" lon="11.475660533276933"><ele>375.0</ele><time>2026-04-11T13:50:25.999Z</time></trkpt><trkpt lat="43.00042347155329" lon="11.475581124090823"><ele>375.0</ele><time>2026-04-11T13:50:26.999Z</time></trkpt><trkpt lat="43.000385941640374" lon="11.4755046448674"><ele>375.0</ele><time>2026-04-11T13:50:27.999Z</time></trkpt><trkpt lat="43.00034876838303" lon="11.475430335249818"><ele>375.0</ele><time>2026-04-11T13:50:28.999Z</time></trkpt><trkpt lat="43.000308921604606" lon="11.47535545383109"><ele>375.0</ele><time>2026-04-11T13:50:29.999Z</time></trkpt><trkpt lat="43.000270690796" lon="11.47528481647664"><ele>375.0</ele><time>2026-04-11T13:50:30.999Z</time></trkpt><trkpt lat="43.000190529644684" lon="11.475154343797922"><ele>375.0</ele><time>2026-04-11T13:50:32.999Z</time></trkpt><trkpt lat="43.000116305910616" lon="11.475025379564272"><ele>374.3333333333333</ele><time>2026-04-11T13:50:34.999Z</time></trkpt><trkpt lat="43.000035405994325" lon="11.474893029006655"><ele>373.6666666666667</ele><time>2026-04-11T13:50:37Z</time></trkpt><trkpt lat="42.9999929068745" lon="11.474829207748925"><ele>373.0</ele><time>2026-04-11T13:50:38.001Z</time></trkpt><trkpt lat="42.99994659005451" lon="11.47476441586232"><ele>372.33333333333337</ele><time>2026-04-11T13:50:39Z</time></trkpt><trkpt lat="42.99990056197066" lon="11.474698612864522"><ele>371.6666666666667</ele><time>2026-04-11T13:50:40Z</time></trkpt><trkpt lat="42.99985674670968" lon="11.474631074033448"><ele>371.0</ele><time>2026-04-11T13:50:41Z</time></trkpt><trkpt lat="42.99981240739655" lon="11.474560020411097"><ele>370.2857142857143</ele><time>2026-04-11T13:50:42Z</time></trkpt><trkpt lat="42.9997663096323" lon="11.474491273972406"><ele>369.57142857142856</ele><time>2026-04-11T13:50:43Z</time></trkpt><trkpt lat="42.99972411643822" lon="11.474418856433003"><ele>368.8571428571429</ele><time>2026-04-11T13:50:44Z</time></trkpt><trkpt lat="42.99968180629433" lon="11.474351273607184"><ele>368.1428571428571</ele><time>2026-04-11T13:50:45Z</time></trkpt><trkpt lat="42.99963571161159" lon="11.474279058203644"><ele>367.42857142857144</ele><time>2026-04-11T13:50:46Z</time></trkpt><trkpt lat="42.99959210440775" lon="11.474211076761584"><ele>366.7142857142857</ele><time>2026-04-11T13:50:47Z</time></trkpt><trkpt lat="42.99954969309102" lon="11.474147035177232"><ele>366.0</ele><time>2026-04-11T13:50:48Z</time></trkpt><trkpt lat="42.99950406573998" lon="11.474085674053915"><ele>366.0</ele><time>2026-04-11T13:50:49Z</time></trkpt><trkpt lat="42.99942651137364" lon="11.473981670270335"><ele>366.0</ele><time>2026-04-11T13:50:51Z</time></trkpt><trkpt lat="42.99935343475092" lon="11.47385742331073"><ele>366.0</ele><time>2026-04-11T13:50:53Z</time></trkpt><trkpt lat="42.999293541304674" lon="11.473818552347366"><ele>366.0</ele><time>2026-04-11T13:50:54Z</time></trkpt><trkpt lat="42.9992328070399" lon="11.473789394214142"><ele>366.0</ele><time>2026-04-11T13:50:55Z</time></trkpt><trkpt lat="42.99911737127595" lon="11.473755012082513"><ele>365.4</ele><time>2026-04-11T13:50:57Z</time></trkpt><trkpt lat="42.99900945844406" lon="11.473727771948676"><ele>364.8</ele><time>2026-04-11T13:50:59Z</time></trkpt><trkpt lat="42.99890250215247" lon="11.473701804490542"><ele>364.2</ele><time>2026-04-11T13:51:01Z</time></trkpt><trkpt lat="42.99880282788447" lon="11.473677828681259"><ele>363.59999999999997</ele><time>2026-04-11T13:51:03Z</time></trkpt><trkpt lat="42.9987115454306" lon="11.473655871451278"><ele>363.0</ele><time>2026-04-11T13:51:05Z</time></trkpt><trkpt lat="42.998624618551005" lon="11.473634426084834"><ele>363.0</ele><time>2026-04-11T13:51:07Z</time></trkpt><trkpt lat="42.9985398542429" lon="11.473613636577985"><ele>363.0</ele><time>2026-04-11T13:51:09Z</time></trkpt><trkpt lat="42.998453718825886" lon="11.47359251260646"><ele>363.0</ele><time>2026-04-11T13:51:11Z</time></trkpt><trkpt lat="42.99835681575283" lon="11.473568745914346"><ele>363.0</ele><time>2026-04-11T13:51:13Z</time></trkpt><trkpt lat="42.99825234662693" lon="11.473543190886883"><ele>363.0</ele><time>2026-04-11T13:51:15Z</time></trkpt><trkpt lat="42.99813969116061" lon="11.473515844923586"><ele>363.25</ele><time>2026-04-11T13:51:17Z</time></trkpt><trkpt lat="42.99802183206765" lon="11.473481288914662"><ele>363.5</ele><time>2026-04-11T13:51:19Z</time></trkpt><trkpt lat="42.997908514074716" lon="11.473433063581101"><ele>363.75</ele><time>2026-04-11T13:51:21Z</time></trkpt><trkpt lat="42.9978020200269" lon="11.473371630481733"><ele>364.0</ele><time>2026-04-11T13:51:23Z</time></trkpt><trkpt lat="42.997706787144" lon="11.4733100646243"><ele>364.0</ele><time>2026-04-11T13:51:25Z</time></trkpt><trkpt lat="42.99762258954964" lon="11.473256615008022"><ele>364.0</ele><time>2026-04-11T13:51:27Z</time></trkpt><trkpt lat="42.99755095190791" lon="11.473211956754213"><ele>364.0</ele><time>2026-04-11T13:51:29Z</time></trkpt><trkpt lat="42.99748882040421" lon="11.473173224578625"><ele>364.0</ele><time>2026-04-11T13:51:31Z</time></trkpt><trkpt lat="42.997394468464314" lon="11.473155786126757"><ele>364.0</ele><time>2026-04-11T13:51:34Z</time></trkpt><trkpt lat="42.9973205449811" lon="11.473109141458512"><ele>364.0</ele><time>2026-04-11T13:51:37Z</time></trkpt><trkpt lat="42.99725479672148" lon="11.473068799395207"><ele>364.42857142857144</ele><time>2026-04-11T13:51:40Z</time></trkpt><trkpt lat="42.99719283927862" lon="11.473040445858897"><ele>364.8571428571429</ele><time>2026-04-11T13:51:43Z</time></trkpt><trkpt lat="42.997131716761324" lon="11.473017172229794"><ele>365.2857142857143</ele><time>2026-04-11T13:51:45.999Z</time></trkpt><trkpt lat="42.99706702754441" lon="11.47300420061042"><ele>365.7142857142857</ele><time>2026-04-11T13:51:48.999Z</time></trkpt><trkpt lat="42.99699145558225" lon="11.473020730781471"><ele>366.14285714285717</ele><time>2026-04-11T13:51:52.999Z</time></trkpt><trkpt lat="42.99693738781292" lon="11.47308350698298"><ele>366.57142857142856</ele><time>2026-04-11T13:51:56.999Z</time></trkpt><trkpt lat="42.99689284711382" lon="11.47315122026151"><ele>367.0</ele><time>2026-04-11T13:51:59.999Z</time></trkpt><trkpt lat="42.996833038992534" lon="11.473226792580421"><ele>367.0</ele><time>2026-04-11T13:52:03.999Z</time></trkpt><trkpt lat="42.996784881182386" lon="11.473291419922734"><ele>367.0</ele><time>2026-04-11T13:52:06.999Z</time></trkpt><trkpt lat="42.99673331443065" lon="11.473356732332924"><ele>367.0</ele><time>2026-04-11T13:52:09.999Z</time></trkpt><trkpt lat="42.99667620512287" lon="11.473431378234304"><ele>367.0</ele><time>2026-04-11T13:52:13.999Z</time></trkpt><trkpt lat="42.996620872904124" lon="11.473509890858145"><ele>367.0</ele><time>2026-04-11T13:52:16.999Z</time></trkpt><trkpt lat="42.99657303983701" lon="11.47357745369436"><ele>367.0</ele><time>2026-04-11T13:52:20.999Z</time></trkpt><trkpt lat="42.99651399622862" lon="11.473668409746134"><ele>367.8333333333333</ele><time>2026-04-11T13:52:23.999Z</time></trkpt><trkpt lat="42.99646256720809" lon="11.473752352840556"><ele>368.66666666666663</ele><time>2026-04-11T13:52:27.999Z</time></trkpt><trkpt lat="42.9964145950265" lon="11.473823557312306"><ele>369.5</ele><time>2026-04-11T13:52:30.999Z</time></trkpt><trkpt lat="42.99637177778207" lon="11.47390069628152"><ele>370.3333333333333</ele><time>2026-04-11T13:52:33.999Z</time></trkpt><trkpt lat="42.99631957946598" lon="11.473974423932626"><ele>371.1666666666667</ele><time>2026-04-11T13:52:36.999Z</time></trkpt><trkpt lat="42.99626404644642" lon="11.474055978825607"><ele>372.0</ele><time>2026-04-11T13:52:39.999Z</time></trkpt><trkpt lat="42.99620720356636" lon="11.474142929714658"><ele>372.1666666666667</ele><time>2026-04-11T13:52:43Z</time></trkpt><trkpt lat="42.99614675810153" lon="11.474225312193722"><ele>372.3333333333333</ele><time>2026-04-11T13:52:46Z</time></trkpt><trkpt lat="42.99608630668773" lon="11.474308329041756"><ele>372.5</ele><time>2026-04-11T13:52:49Z</time></trkpt><trkpt lat="42.996027711907026" lon="11.474390999936347"><ele>372.66666666666663</ele><time>2026-04-11T13:52:52Z</time></trkpt><trkpt lat="42.99596184782769" lon="11.474464693323014"><ele>372.8333333333333</ele><time>2026-04-11T13:52:55Z</time></trkpt><trkpt lat="42.99588695208698" lon="11.47454315102087"><ele>373.0</ele><time>2026-04-11T13:52:58Z</time></trkpt><trkpt lat="42.99583357813664" lon="11.47459575025966"><ele>373.7142857142857</ele><time>2026-04-11T13:53:00Z</time></trkpt><trkpt lat="42.99575951231449" lon="11.474667202777441"><ele>374.42857142857144</ele><time>2026-04-11T13:53:03Z</time></trkpt><trkpt lat="42.995703097635065" lon="11.474709274429905"><ele>375.1428571428571</ele><time>2026-04-11T13:53:05Z</time></trkpt><trkpt lat="42.99564793544858" lon="11.47475804146662"><ele>375.8571428571429</ele><time>2026-04-11T13:53:07Z</time></trkpt><trkpt lat="42.995593360956384" lon="11.474810036950016"><ele>376.57142857142856</ele><time>2026-04-11T13:53:09Z</time></trkpt><trkpt lat="42.995531727682675" lon="11.474843203534206"><ele>377.2857142857143</ele><time>2026-04-11T13:53:11Z</time></trkpt><trkpt lat="42.99545191242115" lon="11.474883583844848"><ele>378.0</ele><time>2026-04-11T13:53:14Z</time></trkpt><trkpt lat="42.99536301798656" lon="11.474895089899334"><ele>378.0</ele><time>2026-04-11T13:53:17Z</time></trkpt><trkpt lat="42.99528460730856" lon="11.474886792467032"><ele>378.0</ele><time>2026-04-11T13:53:19Z</time></trkpt><trkpt lat="42.99519247955637" lon="11.474871865591364"><ele>378.0</ele><time>2026-04-11T13:53:21Z</time></trkpt><trkpt lat="42.99508260581156" lon="11.47484831212673"><ele>378.0</ele><time>2026-04-11T13:53:23Z</time></trkpt><trkpt lat="42.99497408014523" lon="11.474827976845992"><ele>378.0</ele><time>2026-04-11T13:53:25Z</time></trkpt><trkpt lat="42.99487298294876" lon="11.474810160788694"><ele>377.6666666666667</ele><time>2026-04-11T13:53:27Z</time></trkpt><trkpt lat="42.99477076104241" lon="11.474791897483188"><ele>377.3333333333333</ele><time>2026-04-11T13:53:29Z</time></trkpt><trkpt lat="42.994674785180344" lon="11.474771075863181"><ele>377.0</ele><time>2026-04-11T13:53:31Z</time></trkpt><trkpt lat="42.994589784743326" lon="11.47476195049457"><ele>376.66666666666663</ele><time>2026-04-11T13:53:33Z</time></trkpt><trkpt lat="42.994504371988924" lon="11.474768250817323"><ele>376.3333333333333</ele><time>2026-04-11T13:53:35Z</time></trkpt><trkpt lat="42.99443154556197" lon="11.474801563587441"><ele>376.0</ele><time>2026-04-11T13:53:37Z</time></trkpt><trkpt lat="42.99436741970126" lon="11.4748501794758"><ele>376.0</ele><time>2026-04-11T13:53:39Z</time></trkpt><trkpt lat="42.99430418805089" lon="11.474907846083324"><ele>376.0</ele><time>2026-04-11T13:53:41Z</time></trkpt><trkpt lat="42.99424028301823" lon="11.4749725566323"><ele>376.0</ele><time>2026-04-11T13:53:43Z</time></trkpt><trkpt lat="42.99415975227434" lon="11.475033826185053"><ele>376.0</ele><time>2026-04-11T13:53:45Z</time></trkpt><trkpt lat="42.994072181014225" lon="11.475092096896525"><ele>376.0</ele><time>2026-04-11T13:53:47Z</time></trkpt><trkpt lat="42.99399957287451" lon="11.475141974349865"><ele>376.0</ele><time>2026-04-11T13:53:49Z</time></trkpt><trkpt lat="42.99391988573846" lon="11.475193095316222"><ele>375.5</ele><time>2026-04-11T13:53:50.999Z</time></trkpt><trkpt lat="42.99384826267076" lon="11.475257179564439"><ele>375.0</ele><time>2026-04-11T13:53:52.999Z</time></trkpt><trkpt lat="42.99377919781474" lon="11.4753302474117"><ele>374.5</ele><time>2026-04-11T13:53:54.999Z</time></trkpt><trkpt lat="42.99370957905909" lon="11.475412415129242"><ele>374.0</ele><time>2026-04-11T13:53:56.999Z</time></trkpt><trkpt lat="42.99365017055483" lon="11.475495322990815"><ele>373.5</ele><time>2026-04-11T13:53:58.999Z</time></trkpt><trkpt lat="42.993602360949716" lon="11.475583798275345"><ele>373.0</ele><time>2026-04-11T13:54:00.999Z</time></trkpt><trkpt lat="42.993564929019435" lon="11.47568607795491"><ele>373.0</ele><time>2026-04-11T13:54:02.999Z</time></trkpt><trkpt lat="42.993523474901856" lon="11.475800238890317"><ele>373.0</ele><time>2026-04-11T13:54:04.999Z</time></trkpt><trkpt lat="42.99349006046824" lon="11.475918266496695"><ele>373.0</ele><time>2026-04-11T13:54:06.999Z</time></trkpt><trkpt lat="42.9934609103741" lon="11.476041626329195"><ele>373.0</ele><time>2026-04-11T13:54:08.999Z</time></trkpt><trkpt lat="42.993418035767114" lon="11.476160240458473"><ele>373.0</ele><time>2026-04-11T13:54:10.999Z</time></trkpt><trkpt lat="42.99338353687933" lon="11.47627647008737"><ele>373.59999999999997</ele><time>2026-04-11T13:54:12.999Z</time></trkpt><trkpt lat="42.99334649050794" lon="11.476399624448923"><ele>374.2</ele><time>2026-04-11T13:54:14.999Z</time></trkpt><trkpt lat="42.993305661525085" lon="11.476511871800895"><ele>374.8</ele><time>2026-04-11T13:54:16.999Z</time></trkpt><trkpt lat="42.99325670440896" lon="11.476630012472613"><ele>375.4</ele><time>2026-04-11T13:54:18.999Z</time></trkpt><trkpt lat="42.993217178474254" lon="11.476752094067058"><ele>376.0</ele><time>2026-04-11T13:54:20.999Z</time></trkpt><trkpt lat="42.99316988651413" lon="11.47688956922034"><ele>372.20000000000005</ele><time>2026-04-11T13:54:22.999Z</time></trkpt><trkpt lat="42.99313255816583" lon="11.477009736740404"><ele>368.40000000000003</ele><time>2026-04-11T13:54:24.999Z</time></trkpt><trkpt lat="42.99311161832249" lon="11.47715555655589"><ele>364.6</ele><time>2026-04-11T13:54:26.999Z</time></trkpt><trkpt lat="42.993114892362144" lon="11.477300420259029"><ele>360.8</ele><time>2026-04-11T13:54:28.999Z</time></trkpt><trkpt lat="42.993127129635184" lon="11.477449915382472"><ele>357.0</ele><time>2026-04-11T13:54:30.999Z</time></trkpt><trkpt lat="42.993142270640014" lon="11.477574903111769"><ele>355.6</ele><time>2026-04-11T13:54:32.999Z</time></trkpt><trkpt lat="42.99317217741021" lon="11.477696072093353"><ele>354.20000000000005</ele><time>2026-04-11T13:54:34.999Z</time></trkpt><trkpt lat="42.99321614840623" lon="11.477804430025113"><ele>352.8</ele><time>2026-04-11T13:54:36.999Z</time></trkpt><trkpt lat="42.99328678029185" lon="11.47791811539382"><ele>351.4</ele><time>2026-04-11T13:54:38.999Z</time></trkpt><trkpt lat="42.99336594639241" lon="11.477999946013384"><ele>350.0</ele><time>2026-04-11T13:54:40.999Z</time></trkpt><trkpt lat="42.993458295025924" lon="11.478063060507282"><ele>349.25</ele><time>2026-04-11T13:54:42.999Z</time></trkpt><trkpt lat="42.99356695791034" lon="11.478129536396796"><ele>348.5</ele><time>2026-04-11T13:54:44.999Z</time></trkpt><trkpt lat="42.99368246316357" lon="11.47820410674967"><ele>347.75</ele><time>2026-04-11T13:54:46.999Z</time></trkpt><trkpt lat="42.99379263164381" lon="11.47828828188917"><ele>347.0</ele><time>2026-04-11T13:54:49Z</time></trkpt><trkpt lat="42.993897635492566" lon="11.478353746801236"><ele>347.0</ele><time>2026-04-11T13:54:51Z</time></trkpt><trkpt lat="42.99400658270158" lon="11.478385833231721"><ele>347.0</ele><time>2026-04-11T13:54:53Z</time></trkpt><trkpt lat="42.99412856892022" lon="11.478398243140223"><ele>347.0</ele><time>2026-04-11T13:54:55Z</time></trkpt><trkpt lat="42.99423602983776" lon="11.478411786093364"><ele>347.0</ele><time>2026-04-11T13:54:57Z</time></trkpt><trkpt lat="42.994318837308334" lon="11.47848868425588"><ele>347.0</ele><time>2026-04-11T13:54:59Z</time></trkpt><trkpt lat="42.99434665931289" lon="11.478629922789871"><ele>345.6666666666667</ele><time>2026-04-11T13:55:01Z</time></trkpt><trkpt lat="42.99430075841265" lon="11.478773135118356"><ele>344.33333333333337</ele><time>2026-04-11T13:55:03Z</time></trkpt><trkpt lat="42.99425846485357" lon="11.478838169899044"><ele>343.0</ele><time>2026-04-11T13:55:04Z</time></trkpt><trkpt lat="42.99420936989059" lon="11.478899799737874"><ele>341.6666666666667</ele><time>2026-04-11T13:55:05Z</time></trkpt><trkpt lat="42.994163923313096" lon="11.47897265058157"><ele>340.3333333333333</ele><time>2026-04-11T13:55:06Z</time></trkpt><trkpt lat="42.9941161905909" lon="11.479047241489706"><ele>339.0</ele><time>2026-04-11T13:55:07Z</time></trkpt><trkpt lat="42.9940713418579" lon="11.479120150815474"><ele>339.0</ele><time>2026-04-11T13:55:08Z</time></trkpt><trkpt lat="42.9940003410727" lon="11.479241075055581"><ele>339.0</ele><time>2026-04-11T13:55:10Z</time></trkpt><trkpt lat="42.993931098096986" lon="11.4793521815059"><ele>339.0</ele><time>2026-04-11T13:55:12Z</time></trkpt><trkpt lat="42.9938749670589" lon="11.479463327031732"><ele>339.0</ele><time>2026-04-11T13:55:14Z</time></trkpt><trkpt lat="42.99382177170378" lon="11.479571010266774"><ele>339.0</ele><time>2026-04-11T13:55:16Z</time></trkpt><trkpt lat="42.99377072858721" lon="11.479679357286985"><ele>339.6</ele><time>2026-04-11T13:55:18Z</time></trkpt><trkpt lat="42.99373448576423" lon="11.479794956471887"><ele>340.2</ele><time>2026-04-11T13:55:20Z</time></trkpt><trkpt lat="42.99372112898252" lon="11.47994667725129"><ele>340.8</ele><time>2026-04-11T13:55:22Z</time></trkpt><trkpt lat="42.99372600671448" lon="11.480098360818792"><ele>341.40000000000003</ele><time>2026-04-11T13:55:24Z</time></trkpt><trkpt lat="42.99374494716655" lon="11.48023655084768"><ele>342.0</ele><time>2026-04-11T13:55:26Z</time></trkpt><trkpt lat="42.99377098416181" lon="11.480388805105619"><ele>340.6666666666667</ele><time>2026-04-11T13:55:28Z</time></trkpt><trkpt lat="42.993783251074035" lon="11.480475250722945"><ele>339.3333333333333</ele><time>2026-04-11T13:55:29Z</time></trkpt><trkpt lat="42.99379772761621" lon="11.480562553240299"><ele>338.0</ele><time>2026-04-11T13:55:30Z</time></trkpt><trkpt lat="42.99382592097513" lon="11.480726061560484"><ele>336.66666666666663</ele><time>2026-04-11T13:55:32Z</time></trkpt><trkpt lat="42.993841729969525" lon="11.480809414576601"><ele>335.3333333333333</ele><time>2026-04-11T13:55:33Z</time></trkpt><trkpt lat="42.99385540950824" lon="11.480895429933412"><ele>334.0</ele><time>2026-04-11T13:55:34Z</time></trkpt><trkpt lat="42.993879321874985" lon="11.481064283955638"><ele>334.0</ele><time>2026-04-11T13:55:36Z</time></trkpt><trkpt lat="42.99389028476313" lon="11.481229823484549"><ele>334.0</ele><time>2026-04-11T13:55:38Z</time></trkpt><trkpt lat="42.99388552209617" lon="11.48139293736018"><ele>334.0</ele><time>2026-04-11T13:55:40Z</time></trkpt><trkpt lat="42.99387231741431" lon="11.48148123837648"><ele>334.0</ele><time>2026-04-11T13:55:41Z</time></trkpt><trkpt lat="42.99383778692982" lon="11.481651645546462"><ele>334.0</ele><time>2026-04-11T13:55:43Z</time></trkpt><trkpt lat="42.993799191143786" lon="11.481812566360647"><ele>331.16666666666663</ele><time>2026-04-11T13:55:45Z</time></trkpt><trkpt lat="42.99377945563786" lon="11.481896586462964"><ele>328.3333333333333</ele><time>2026-04-11T13:55:46Z</time></trkpt><trkpt lat="42.9937511297623" lon="11.482052815183705"><ele>325.5</ele><time>2026-04-11T13:55:48Z</time></trkpt><trkpt lat="42.99373321777828" lon="11.482140264213463"><ele>322.6666666666667</ele><time>2026-04-11T13:55:49Z</time></trkpt><trkpt lat="42.99372991890331" lon="11.482305932413073"><ele>319.83333333333337</ele><time>2026-04-11T13:55:51Z</time></trkpt><trkpt lat="42.99374551380018" lon="11.482390066621322"><ele>317.0</ele><time>2026-04-11T13:55:52Z</time></trkpt><trkpt lat="42.99376339008495" lon="11.482473080670319"><ele>315.6</ele><time>2026-04-11T13:55:53Z</time></trkpt><trkpt lat="42.99374897219568" lon="11.482582189404038"><ele>314.2</ele><time>2026-04-11T13:55:54Z</time></trkpt><trkpt lat="42.99378050054101" lon="11.482656894918097"><ele>312.8</ele><time>2026-04-11T13:55:55Z</time></trkpt><trkpt lat="42.99384179270146" lon="11.482804934972268"><ele>311.4</ele><time>2026-04-11T13:55:57Z</time></trkpt><trkpt lat="42.99390287376722" lon="11.482947838915244"><ele>310.0</ele><time>2026-04-11T13:55:58.999Z</time></trkpt><trkpt lat="42.99395951783656" lon="11.483087581027103"><ele>310.0</ele><time>2026-04-11T13:56:00.999Z</time></trkpt><trkpt lat="42.993987986892094" lon="11.483164361752864"><ele>310.0</ele><time>2026-04-11T13:56:01.999Z</time></trkpt><trkpt lat="42.99404228674354" lon="11.483310807967584"><ele>310.0</ele><time>2026-04-11T13:56:03.999Z</time></trkpt><trkpt lat="42.99409443591958" lon="11.483451453771341"><ele>310.0</ele><time>2026-04-11T13:56:05.999Z</time></trkpt><trkpt lat="42.99414702158285" lon="11.483583308597828"><ele>310.0</ele><time>2026-04-11T13:56:07.999Z</time></trkpt><trkpt lat="42.994198995343744" lon="11.483696206134127"><ele>308.0</ele><time>2026-04-11T13:56:09.999Z</time></trkpt><trkpt lat="42.99427339317645" lon="11.483811473269476"><ele>306.0</ele><time>2026-04-11T13:56:11.999Z</time></trkpt><trkpt lat="42.994352714647235" lon="11.483910859617241"><ele>304.0</ele><time>2026-04-11T13:56:13.999Z</time></trkpt><trkpt lat="42.9944449165865" lon="11.484010476980858"><ele>302.0</ele><time>2026-04-11T13:56:15.999Z</time></trkpt><trkpt lat="42.994549312269136" lon="11.484093655416473"><ele>302.0</ele><time>2026-04-11T13:56:17.999Z</time></trkpt><trkpt lat="42.99466263510576" lon="11.48415439525997"><ele>302.0</ele><time>2026-04-11T13:56:19.999Z</time></trkpt><trkpt lat="42.99473049330144" lon="11.484181514719596"><ele>302.0</ele><time>2026-04-11T13:56:20.999Z</time></trkpt><trkpt lat="42.99479457256918" lon="11.48420683332606"><ele>302.0</ele><time>2026-04-11T13:56:21.999Z</time></trkpt><trkpt lat="42.994854781561195" lon="11.484232962024809"><ele>302.0</ele><time>2026-04-11T13:56:22.999Z</time></trkpt><trkpt lat="42.99496913947394" lon="11.484288702091536"><ele>302.0</ele><time>2026-04-11T13:56:24.999Z</time></trkpt><trkpt lat="42.99507426884957" lon="11.484366275335095"><ele>303.4</ele><time>2026-04-11T13:56:26.999Z</time></trkpt><trkpt lat="42.99516535818984" lon="11.484469094142115"><ele>304.79999999999995</ele><time>2026-04-11T13:56:28.999Z</time></trkpt><trkpt lat="42.99522184457512" lon="11.484537374190026"><ele>306.2</ele><time>2026-04-11T13:56:29.999Z</time></trkpt><trkpt lat="42.99526905881956" lon="11.484598374567211"><ele>307.59999999999997</ele><time>2026-04-11T13:56:30.999Z</time></trkpt><trkpt lat="42.99534758902333" lon="11.484718889926228"><ele>309.0</ele><time>2026-04-11T13:56:32.999Z</time></trkpt><trkpt lat="42.995406584277106" lon="11.484862799523015"><ele>309.0</ele><time>2026-04-11T13:56:34.999Z</time></trkpt><trkpt lat="42.99542526340804" lon="11.484947573631946"><ele>309.0</ele><time>2026-04-11T13:56:35.999Z</time></trkpt><trkpt lat="42.99543411122684" lon="11.485119113630313"><ele>309.0</ele><time>2026-04-11T13:56:37.999Z</time></trkpt><trkpt lat="42.995438694386706" lon="11.485208419497479"><ele>309.0</ele><time>2026-04-11T13:56:38.999Z</time></trkpt><trkpt lat="42.99542226190523" lon="11.485353094074197"><ele>309.0</ele><time>2026-04-11T13:56:40.999Z</time></trkpt><trkpt lat="42.99536585134108" lon="11.4854432037669"><ele>309.00000000000006</ele><time>2026-04-11T13:56:42.999Z</time></trkpt><trkpt lat="42.99530501896015" lon="11.485485482479977"><ele>309.0</ele><time>2026-04-11T13:56:45.999Z</time></trkpt><trkpt lat="42.995237126530306" lon="11.485489074412474"><ele>309.0</ele><time>2026-04-11T13:56:49.999Z</time></trkpt><trkpt lat="42.99517756889642" lon="11.485453558080843"><ele>309.0</ele><time>2026-04-11T13:56:52.999Z</time></trkpt><trkpt lat="42.99510264812169" lon="11.485407510481256"><ele>309.0</ele><time>2026-04-11T13:56:57Z</time></trkpt><trkpt lat="42.99503903289237" lon="11.485386457252094"><ele>309.00000000000006</ele><time>2026-04-11T13:57:00Z</time></trkpt><trkpt lat="42.994972169527315" lon="11.48539516436299"><ele>309.0</ele><time>2026-04-11T13:57:03Z</time></trkpt><trkpt lat="42.99488565775565" lon="11.485401915745243"><ele>307.8333333333333</ele><time>2026-04-11T13:57:07Z</time></trkpt><trkpt lat="42.99481402436014" lon="11.485425795159895"><ele>306.6666666666667</ele><time>2026-04-11T13:57:10Z</time></trkpt><trkpt lat="42.9947370858719" lon="11.485462388272127"><ele>305.5</ele><time>2026-04-11T13:57:13Z</time></trkpt><trkpt lat="42.99466048951368" lon="11.485513380222969"><ele>304.33333333333337</ele><time>2026-04-11T13:57:16Z</time></trkpt><trkpt lat="42.9945841435052" lon="11.485558083472196"><ele>303.1666666666667</ele><time>2026-04-11T13:57:19Z</time></trkpt><trkpt lat="42.994512214068905" lon="11.48560768751755"><ele>302.0</ele><time>2026-04-11T13:57:22Z</time></trkpt><trkpt lat="42.994437744809325" lon="11.485645414058565"><ele>302.00000000000006</ele><time>2026-04-11T13:57:25Z</time></trkpt><trkpt lat="42.994378932710546" lon="11.485691301699523"><ele>302.0</ele><time>2026-04-11T13:57:28Z</time></trkpt><trkpt lat="42.99430467832801" lon="11.485725271300213"><ele>302.0</ele><time>2026-04-11T13:57:31Z</time></trkpt><trkpt lat="42.99424049991959" lon="11.48577015398197"><ele>302.0</ele><time>2026-04-11T13:57:34Z</time></trkpt><trkpt lat="42.99417360640317" lon="11.485792706857293"><ele>302.0</ele><time>2026-04-11T13:57:37Z</time></trkpt><trkpt lat="42.99409743589463" lon="11.48578094021918"><ele>302.00000000000006</ele><time>2026-04-11T13:57:40Z</time></trkpt><trkpt lat="42.99401704316957" lon="11.485791843409078"><ele>302.0</ele><time>2026-04-11T13:57:43Z</time></trkpt><trkpt lat="42.99393467400678" lon="11.485787018448146"><ele>302.42857142857144</ele><time>2026-04-11T13:57:46Z</time></trkpt><trkpt lat="42.993871406755304" lon="11.485782195589996"><ele>302.8571428571429</ele><time>2026-04-11T13:57:48Z</time></trkpt><trkpt lat="42.99378088496617" lon="11.485789179357113"><ele>303.28571428571433</ele><time>2026-04-11T13:57:51Z</time></trkpt><trkpt lat="42.993704885933575" lon="11.485791029910475"><ele>303.7142857142857</ele><time>2026-04-11T13:57:53Z</time></trkpt><trkpt lat="42.99362751447863" lon="11.485785000370443"><ele>304.1428571428571</ele><time>2026-04-11T13:57:55Z</time></trkpt><trkpt lat="42.993556155771344" lon="11.485783927329054"><ele>304.5714285714286</ele><time>2026-04-11T13:57:57Z</time></trkpt><trkpt lat="42.993486483894685" lon="11.485781812248593"><ele>305.0</ele><time>2026-04-11T13:57:59Z</time></trkpt><trkpt lat="42.99340784435998" lon="11.485778246227946"><ele>304.33333333333337</ele><time>2026-04-11T13:58:01Z</time></trkpt><trkpt lat="42.99333054201709" lon="11.485782624264182"><ele>303.6666666666667</ele><time>2026-04-11T13:58:02.999Z</time></trkpt><trkpt lat="42.9932508475707" lon="11.485780557119307"><ele>303.0</ele><time>2026-04-11T13:58:04.999Z</time></trkpt><trkpt lat="42.99316663834111" lon="11.485782914926382"><ele>302.3333333333333</ele><time>2026-04-11T13:58:06.999Z</time></trkpt><trkpt lat="42.9930810302995" lon="11.485804522668248"><ele>301.66666666666663</ele><time>2026-04-11T13:58:08.999Z</time></trkpt><trkpt lat="42.99299083155125" lon="11.485850360971874"><ele>301.0</ele><time>2026-04-11T13:58:10.999Z</time></trkpt><trkpt lat="42.99289723149979" lon="11.485919833188339"><ele>301.0</ele><time>2026-04-11T13:58:12.999Z</time></trkpt><trkpt lat="42.992810962175255" lon="11.486014324885131"><ele>301.0</ele><time>2026-04-11T13:58:14.999Z</time></trkpt><trkpt lat="42.99272923007216" lon="11.486121804165338"><ele>301.0</ele><time>2026-04-11T13:58:16.999Z</time></trkpt><trkpt lat="42.99264841930273" lon="11.486234125219282"><ele>301.0</ele><time>2026-04-11T13:58:18.999Z</time></trkpt><trkpt lat="42.99257196468492" lon="11.486349212670229"><ele>299.40000000000003</ele><time>2026-04-11T13:58:20.999Z</time></trkpt><trkpt lat="42.992495594886265" lon="11.486462125809975"><ele>297.8</ele><time>2026-04-11T13:58:22.999Z</time></trkpt><trkpt lat="42.99242224124763" lon="11.486568547898896"><ele>296.20000000000005</ele><time>2026-04-11T13:58:24.999Z</time></trkpt><trkpt lat="42.99234866944218" lon="11.486673963284098"><ele>294.6</ele><time>2026-04-11T13:58:26.999Z</time></trkpt><trkpt lat="42.99228280998341" lon="11.486775708760003"><ele>293.0</ele><time>2026-04-11T13:58:28.999Z</time></trkpt><trkpt lat="42.9922227286637" lon="11.48687752959129"><ele>293.0</ele><time>2026-04-11T13:58:30.999Z</time></trkpt><trkpt lat="42.992171089402916" lon="11.486979446677191"><ele>293.0</ele><time>2026-04-11T13:58:32.999Z</time></trkpt><trkpt lat="42.992136741948016" lon="11.487077041356509"><ele>293.0</ele><time>2026-04-11T13:58:34.999Z</time></trkpt><trkpt lat="42.992120086891966" lon="11.487180564402076"><ele>293.0</ele><time>2026-04-11T13:58:36.999Z</time></trkpt><trkpt lat="42.99211902203725" lon="11.487274133705613"><ele>293.0</ele><time>2026-04-11T13:58:38.999Z</time></trkpt><trkpt lat="42.99210881075062" lon="11.487385336192474"><ele>293.0</ele><time>2026-04-11T13:58:41.999Z</time></trkpt><trkpt lat="42.99209336184032" lon="11.487493637093936"><ele>294.83333333333337</ele><time>2026-04-11T13:58:44.999Z</time></trkpt><trkpt lat="42.99208246212224" lon="11.487592763727463"><ele>296.6666666666667</ele><time>2026-04-11T13:58:47.999Z</time></trkpt><trkpt lat="42.99206606028387" lon="11.487695350968329"><ele>298.5</ele><time>2026-04-11T13:58:50.999Z</time></trkpt><trkpt lat="42.992048245719005" lon="11.487799788596185"><ele>300.3333333333333</ele><time>2026-04-11T13:58:53.999Z</time></trkpt><trkpt lat="42.9920361981963" lon="11.487903440577632"><ele>302.16666666666663</ele><time>2026-04-11T13:58:56.999Z</time></trkpt><trkpt lat="42.99201940236301" lon="11.488004230610315"><ele>304.0</ele><time>2026-04-11T13:58:59.999Z</time></trkpt><trkpt lat="42.99200787771233" lon="11.488116427838484"><ele>304.7142857142857</ele><time>2026-04-11T13:59:03Z</time></trkpt><trkpt lat="42.9919918248451" lon="11.48823963713039"><ele>305.42857142857144</ele><time>2026-04-11T13:59:06Z</time></trkpt><trkpt lat="42.99197970205132" lon="11.488329428751596"><ele>306.14285714285717</ele><time>2026-04-11T13:59:08Z</time></trkpt><trkpt lat="42.99196981283394" lon="11.488429345729235"><ele>306.8571428571429</ele><time>2026-04-11T13:59:10Z</time></trkpt><trkpt lat="42.99196464580523" lon="11.488526702081359"><ele>307.57142857142856</ele><time>2026-04-11T13:59:12Z</time></trkpt><trkpt lat="42.991955919814295" lon="11.488615242503714"><ele>308.28571428571433</ele><time>2026-04-11T13:59:14Z</time></trkpt><trkpt lat="42.99195351062184" lon="11.488702928745939"><ele>309.0</ele><time>2026-04-11T13:59:16Z</time></trkpt><trkpt lat="42.991945417241496" lon="11.48880027648597"><ele>309.3333333333333</ele><time>2026-04-11T13:59:18Z</time></trkpt><trkpt lat="42.991936897632094" lon="11.488916592862168"><ele>309.6666666666667</ele><time>2026-04-11T13:59:20Z</time></trkpt><trkpt lat="42.9919329665363" lon="11.489039053303088"><ele>310.0</ele><time>2026-04-11T13:59:22Z</time></trkpt><trkpt lat="42.99192207832718" lon="11.489160254862638"><ele>310.33333333333337</ele><time>2026-04-11T13:59:24Z</time></trkpt><trkpt lat="42.991906566546746" lon="11.489278291995518"><ele>310.6666666666667</ele><time>2026-04-11T13:59:26Z</time></trkpt><trkpt lat="42.99189027218448" lon="11.489389488071842"><ele>311.0</ele><time>2026-04-11T13:59:28Z</time></trkpt><trkpt lat="42.99186882431287" lon="11.489499610902008"><ele>311.1666666666667</ele><time>2026-04-11T13:59:30Z</time></trkpt><trkpt lat="42.991847589664054" lon="11.489611009879585"><ele>311.33333333333337</ele><time>2026-04-11T13:59:32Z</time></trkpt><trkpt lat="42.991829421437984" lon="11.489723806571302"><ele>311.5</ele><time>2026-04-11T13:59:34Z</time></trkpt><trkpt lat="42.991808069466515" lon="11.489836484534928"><ele>311.6666666666667</ele><time>2026-04-11T13:59:36Z</time></trkpt><trkpt lat="42.99178925047456" lon="11.489947434839396"><ele>311.8333333333333</ele><time>2026-04-11T13:59:38Z</time></trkpt><trkpt lat="42.99176528547776" lon="11.49005333133013"><ele>312.0</ele><time>2026-04-11T13:59:40Z</time></trkpt><trkpt lat="42.9917494758825" lon="11.490157256148098"><ele>312.0</ele><time>2026-04-11T13:59:42Z</time></trkpt><trkpt lat="42.99173268728519" lon="11.490262114562341"><ele>312.0</ele><time>2026-04-11T13:59:44Z</time></trkpt><trkpt lat="42.99171682415721" lon="11.490376751673749"><ele>312.0</ele><time>2026-04-11T13:59:46Z</time></trkpt><trkpt lat="42.99169384125885" lon="11.490509461398895"><ele>312.0</ele><time>2026-04-11T13:59:48Z</time></trkpt><trkpt lat="42.9916632073273" lon="11.490654939878107"><ele>312.0</ele><time>2026-04-11T13:59:50Z</time></trkpt><trkpt lat="42.99164065259932" lon="11.49080906444902"><ele>309.0</ele><time>2026-04-11T13:59:52Z</time></trkpt><trkpt lat="42.99162039424349" lon="11.490934832515789"><ele>306.0</ele><time>2026-04-11T13:59:54Z</time></trkpt><trkpt lat="42.99159826657505" lon="11.491065939705953"><ele>303.0</ele><time>2026-04-11T13:59:56Z</time></trkpt><trkpt lat="42.99157006032934" lon="11.491214827424452"><ele>300.0</ele><time>2026-04-11T13:59:58Z</time></trkpt><trkpt lat="42.99155471406983" lon="11.491299458228813"><ele>297.0</ele><time>2026-04-11T13:59:59Z</time></trkpt><trkpt lat="42.99154006749679" lon="11.491385211226147"><ele>294.0</ele><time>2026-04-11T14:00:00Z</time></trkpt><trkpt lat="42.99151012791258" lon="11.491551265107924"><ele>293.8333333333333</ele><time>2026-04-11T14:00:02Z</time></trkpt><trkpt lat="42.99149258405556" lon="11.491639875671215"><ele>293.6666666666667</ele><time>2026-04-11T14:00:03Z</time></trkpt><trkpt lat="42.991478269941716" lon="11.491724501805122"><ele>293.5</ele><time>2026-04-11T14:00:04Z</time></trkpt><trkpt lat="42.99146197879669" lon="11.491813262404888"><ele>293.33333333333337</ele><time>2026-04-11T14:00:05Z</time></trkpt><trkpt lat="42.991449108105705" lon="11.491901187921703"><ele>293.1666666666667</ele><time>2026-04-11T14:00:06Z</time></trkpt><trkpt lat="42.991433785158534" lon="11.491987168658428"><ele>293.0</ele><time>2026-04-11T14:00:07Z</time></trkpt><trkpt lat="42.99140747677032" lon="11.492158539078646"><ele>293.0</ele><time>2026-04-11T14:00:08.999Z</time></trkpt><trkpt lat="42.99139425402154" lon="11.492242911858934"><ele>293.0</ele><time>2026-04-11T14:00:09.999Z</time></trkpt><trkpt lat="42.991368475383595" lon="11.49240468929973"><ele>293.0</ele><time>2026-04-11T14:00:11.999Z</time></trkpt><trkpt lat="42.9913432471425" lon="11.492541601572752"><ele>293.0</ele><time>2026-04-11T14:00:13.999Z</time></trkpt><trkpt lat="42.991275563329" lon="11.492582557577183"><ele>293.0</ele><time>2026-04-11T14:00:14.999Z</time></trkpt><trkpt lat="42.99130922631088" lon="11.492718702622437"><ele>293.0</ele><time>2026-04-11T14:00:16.999Z</time></trkpt><trkpt lat="42.99128885375777" lon="11.492831863146323"><ele>293.0</ele><time>2026-04-11T14:00:18.999Z</time></trkpt><trkpt lat="42.99126344240643" lon="11.49295234078508"><ele>293.0</ele><time>2026-04-11T14:00:20.999Z</time></trkpt><trkpt lat="42.99123727916139" lon="11.493080498748109"><ele>293.0</ele><time>2026-04-11T14:00:22.999Z</time></trkpt><trkpt lat="42.99120983910762" lon="11.493220998108454"><ele>293.0</ele><time>2026-04-11T14:00:24.999Z</time></trkpt><trkpt lat="42.99117697962561" lon="11.493377734622912"><ele>292.8</ele><time>2026-04-11T14:00:26.999Z</time></trkpt><trkpt lat="42.991143009888596" lon="11.493536667891114"><ele>292.6</ele><time>2026-04-11T14:00:28.999Z</time></trkpt><trkpt lat="42.99110914437396" lon="11.493698180328876"><ele>292.4</ele><time>2026-04-11T14:00:30.999Z</time></trkpt><trkpt lat="42.99109223682595" lon="11.49378354285418"><ele>292.2</ele><time>2026-04-11T14:00:31.999Z</time></trkpt><trkpt lat="42.99105385346045" lon="11.493950634997736"><ele>292.0</ele><time>2026-04-11T14:00:33.999Z</time></trkpt><trkpt lat="42.99103745155986" lon="11.494036324227942"><ele>292.2857142857143</ele><time>2026-04-11T14:00:34.999Z</time></trkpt><trkpt lat="42.99101982890584" lon="11.49412572966855"><ele>292.57142857142856</ele><time>2026-04-11T14:00:35.999Z</time></trkpt><trkpt lat="42.99100167558266" lon="11.494211498616194"><ele>292.8571428571429</ele><time>2026-04-11T14:00:36.999Z</time></trkpt><trkpt lat="42.99098013261649" lon="11.494302844585166"><ele>293.1428571428571</ele><time>2026-04-11T14:00:37.999Z</time></trkpt><trkpt lat="42.99096236397289" lon="11.494392592414219"><ele>293.42857142857144</ele><time>2026-04-11T14:00:38.999Z</time></trkpt><trkpt lat="42.990940618445286" lon="11.494488919916607"><ele>293.7142857142857</ele><time>2026-04-11T14:00:39.999Z</time></trkpt><trkpt lat="42.99092203504978" lon="11.49458941270346"><ele>294.0</ele><time>2026-04-11T14:00:40.999Z</time></trkpt><trkpt lat="42.99090092793758" lon="11.494689827813112"><ele>294.3333333333333</ele><time>2026-04-11T14:00:41.999Z</time></trkpt><trkpt lat="42.99087680940666" lon="11.494789021795864"><ele>294.6666666666667</ele><time>2026-04-11T14:00:42.999Z</time></trkpt><trkpt lat="42.99085157606491" lon="11.494886220551368"><ele>295.0</ele><time>2026-04-11T14:00:43.999Z</time></trkpt><trkpt lat="42.990828412400305" lon="11.494979695960293"><ele>295.33333333333337</ele><time>2026-04-11T14:00:44.999Z</time></trkpt><trkpt lat="42.99080620872055" lon="11.495065989837705"><ele>295.6666666666667</ele><time>2026-04-11T14:00:45.999Z</time></trkpt><trkpt lat="42.99078489822353" lon="11.495149385613141"><ele>296.0</ele><time>2026-04-11T14:00:46.999Z</time></trkpt><trkpt lat="42.99074601729481" lon="11.49529645976804"><ele>293.40000000000003</ele><time>2026-04-11T14:00:48.999Z</time></trkpt><trkpt lat="42.99070889500462" lon="11.495444135606188"><ele>290.8</ele><time>2026-04-11T14:00:50.999Z</time></trkpt><trkpt lat="42.99067157670636" lon="11.495588192229373"><ele>288.20000000000005</ele><time>2026-04-11T14:00:52.999Z</time></trkpt><trkpt lat="42.990643740517086" lon="11.495724370744785"><ele>285.6</ele><time>2026-04-11T14:00:54.999Z</time></trkpt><trkpt lat="42.99061063661538" lon="11.495849304147363"><ele>283.0</ele><time>2026-04-11T14:00:56.999Z</time></trkpt><trkpt lat="42.99057130347572" lon="11.495962359703046"><ele>283.0</ele><time>2026-04-11T14:00:58.999Z</time></trkpt><trkpt lat="42.99054420323895" lon="11.49606604877484"><ele>283.0</ele><time>2026-04-11T14:01:00.999Z</time></trkpt><trkpt lat="42.99050786101715" lon="11.496163234985433"><ele>283.0</ele><time>2026-04-11T14:01:02.999Z</time></trkpt><trkpt lat="42.99047689613753" lon="11.496262101878685"><ele>283.0</ele><time>2026-04-11T14:01:04.999Z</time></trkpt><trkpt lat="42.99044364405686" lon="11.496360188414476"><ele>283.0</ele><time>2026-04-11T14:01:07Z</time></trkpt><trkpt lat="42.990408288044954" lon="11.496454751362721"><ele>283.0</ele><time>2026-04-11T14:01:09Z</time></trkpt><trkpt lat="42.99038101444899" lon="11.49654548846658"><ele>284.5</ele><time>2026-04-11T14:01:11Z</time></trkpt><trkpt lat="42.99035716448379" lon="11.496630788137812"><ele>286.0</ele><time>2026-04-11T14:01:13Z</time></trkpt><trkpt lat="42.99031831648886" lon="11.496743146166923"><ele>287.5</ele><time>2026-04-11T14:01:16Z</time></trkpt><trkpt lat="42.99028176341965" lon="11.496852101750514"><ele>289.0</ele><time>2026-04-11T14:01:19Z</time></trkpt><trkpt lat="42.9902475056436" lon="11.496960192872619"><ele>290.5</ele><time>2026-04-11T14:01:22Z</time></trkpt><trkpt lat="42.99021540928618" lon="11.497072306245084"><ele>292.0</ele><time>2026-04-11T14:01:25Z</time></trkpt><trkpt lat="42.99018473084393" lon="11.497184237325712"><ele>293.0</ele><time>2026-04-11T14:01:28Z</time></trkpt><trkpt lat="42.99015936864896" lon="11.497292211723993"><ele>294.0</ele><time>2026-04-11T14:01:31Z</time></trkpt><trkpt lat="42.990133273270665" lon="11.49739222568069"><ele>295.0</ele><time>2026-04-11T14:01:34Z</time></trkpt><trkpt lat="42.99011682698921" lon="11.497503242768083"><ele>296.0</ele><time>2026-04-11T14:01:37Z</time></trkpt><trkpt lat="42.99010410882047" lon="11.49761517525132"><ele>297.0</ele><time>2026-04-11T14:01:40Z</time></trkpt><trkpt lat="42.990088392589094" lon="11.497743185682685"><ele>298.0</ele><time>2026-04-11T14:01:43Z</time></trkpt><trkpt lat="42.99008183028784" lon="11.497842628909758"><ele>297.66666666666663</ele><time>2026-04-11T14:01:45Z</time></trkpt><trkpt lat="42.99007391437407" lon="11.497940714355519"><ele>297.3333333333333</ele><time>2026-04-11T14:01:47Z</time></trkpt><trkpt lat="42.99006833783705" lon="11.498049605801027"><ele>297.0</ele><time>2026-04-11T14:01:49Z</time></trkpt><trkpt lat="42.99006000121054" lon="11.498169216240152"><ele>296.6666666666667</ele><time>2026-04-11T14:01:51Z</time></trkpt><trkpt lat="42.990050464660534" lon="11.498271878979715"><ele>296.33333333333337</ele><time>2026-04-11T14:01:53Z</time></trkpt><trkpt lat="42.990050856525095" lon="11.498378388515947"><ele>296.0</ele><time>2026-04-11T14:01:55Z</time></trkpt><trkpt lat="42.99006223314404" lon="11.498487410146947"><ele>296.0</ele><time>2026-04-11T14:01:57Z</time></trkpt><trkpt lat="42.99008522654902" lon="11.498601020931035"><ele>296.0</ele><time>2026-04-11T14:01:59Z</time></trkpt><trkpt lat="42.99013109335386" lon="11.498717623903104"><ele>296.0</ele><time>2026-04-11T14:02:01Z</time></trkpt><trkpt lat="42.99019861617467" lon="11.498833384148211"><ele>296.0</ele><time>2026-04-11T14:02:03Z</time></trkpt><trkpt lat="42.99027748690813" lon="11.498946634322136"><ele>296.0</ele><time>2026-04-11T14:02:05Z</time></trkpt><trkpt lat="42.99034888079184" lon="11.499054045649352"><ele>293.75</ele><time>2026-04-11T14:02:07Z</time></trkpt><trkpt lat="42.990420201491425" lon="11.499164479768517"><ele>291.5</ele><time>2026-04-11T14:02:09Z</time></trkpt><trkpt lat="42.9904911984181" lon="11.499278185948675"><ele>289.25</ele><time>2026-04-11T14:02:11Z</time></trkpt><trkpt lat="42.99057144424598" lon="11.499394902441878"><ele>287.0</ele><time>2026-04-11T14:02:12.999Z</time></trkpt><trkpt lat="42.99065199290487" lon="11.499516022348555"><ele>286.6666666666667</ele><time>2026-04-11T14:02:14.999Z</time></trkpt><trkpt lat="42.990698419625495" lon="11.499586094406235"><ele>286.33333333333337</ele><time>2026-04-11T14:02:15.999Z</time></trkpt><trkpt lat="42.99074768575825" lon="11.49966064660548"><ele>286.0</ele><time>2026-04-11T14:02:16.999Z</time></trkpt><trkpt lat="42.990797985715695" lon="11.499734493225496"><ele>285.6666666666667</ele><time>2026-04-11T14:02:17.999Z</time></trkpt><trkpt lat="42.9908520773019" lon="11.4998137472922"><ele>285.3333333333333</ele><time>2026-04-11T14:02:18.999Z</time></trkpt><trkpt lat="42.99090767476146" lon="11.499896934784426"><ele>285.0</ele><time>2026-04-11T14:02:19.999Z</time></trkpt><trkpt lat="42.99096240671893" lon="11.499977947802593"><ele>285.0</ele><time>2026-04-11T14:02:20.999Z</time></trkpt><trkpt lat="42.99101396077887" lon="11.500054572408006"><ele>285.0</ele><time>2026-04-11T14:02:21.999Z</time></trkpt><trkpt lat="42.99106266233103" lon="11.500129449147414"><ele>285.0</ele><time>2026-04-11T14:02:22.999Z</time></trkpt><trkpt lat="42.99110696223525" lon="11.50019867801382"><ele>285.0</ele><time>2026-04-11T14:02:23.999Z</time></trkpt><trkpt lat="42.99114911903178" lon="11.500272807274563"><ele>285.0</ele><time>2026-04-11T14:02:24.999Z</time></trkpt><trkpt lat="42.99118869095979" lon="11.500341828557156"><ele>285.0</ele><time>2026-04-11T14:02:25.999Z</time></trkpt><trkpt lat="42.991233367040884" lon="11.500411472771798"><ele>285.0</ele><time>2026-04-11T14:02:26.999Z</time></trkpt><trkpt lat="42.991277530758786" lon="11.500473965400321"><ele>282.8333333333333</ele><time>2026-04-11T14:02:27.999Z</time></trkpt><trkpt lat="42.99135840563339" lon="11.500596857866785"><ele>280.6666666666667</ele><time>2026-04-11T14:02:29.999Z</time></trkpt><trkpt lat="42.99140533335969" lon="11.500661780487208"><ele>278.5</ele><time>2026-04-11T14:02:30.999Z</time></trkpt><trkpt lat="42.99145536155162" lon="11.500715387686768"><ele>276.33333333333337</ele><time>2026-04-11T14:02:31.999Z</time></trkpt><trkpt lat="42.9915094044699" lon="11.500765651722894"><ele>274.1666666666667</ele><time>2026-04-11T14:02:32.999Z</time></trkpt><trkpt lat="42.99156444810534" lon="11.500810368683473"><ele>272.0</ele><time>2026-04-11T14:02:33.999Z</time></trkpt><trkpt lat="42.991668886141234" lon="11.500889096942434"><ele>274.8</ele><time>2026-04-11T14:02:35.999Z</time></trkpt><trkpt lat="42.99177341850726" lon="11.500951774749321"><ele>277.6</ele><time>2026-04-11T14:02:37.999Z</time></trkpt><trkpt lat="42.99188715835806" lon="11.501011969248403"><ele>280.40000000000003</ele><time>2026-04-11T14:02:39.999Z</time></trkpt><trkpt lat="42.991945948026675" lon="11.50105272537669"><ele>283.2</ele><time>2026-04-11T14:02:40.999Z</time></trkpt><trkpt lat="42.992034322063446" lon="11.501162743541885"><ele>286.0</ele><time>2026-04-11T14:02:42.999Z</time></trkpt><trkpt lat="42.99206848882645" lon="11.501319569106634"><ele>286.40000000000003</ele><time>2026-04-11T14:02:44.999Z</time></trkpt><trkpt lat="42.99204271943013" lon="11.501467305288065"><ele>286.8</ele><time>2026-04-11T14:02:46.999Z</time></trkpt><trkpt lat="42.991998895878936" lon="11.501602365275295"><ele>287.20000000000005</ele><time>2026-04-11T14:02:48.999Z</time></trkpt><trkpt lat="42.99195379447783" lon="11.501739698090788"><ele>287.6</ele><time>2026-04-11T14:02:50.999Z</time></trkpt><trkpt lat="42.99190567226976" lon="11.501879888885425"><ele>288.0</ele><time>2026-04-11T14:02:52.999Z</time></trkpt><trkpt lat="42.99185686361948" lon="11.502022079193312"><ele>290.8</ele><time>2026-04-11T14:02:54.999Z</time></trkpt><trkpt lat="42.9918074266225" lon="11.502166099964983"><ele>293.6</ele><time>2026-04-11T14:02:56.999Z</time></trkpt><trkpt lat="42.99175997417198" lon="11.502304208342414"><ele>296.4</ele><time>2026-04-11T14:02:58.999Z</time></trkpt><trkpt lat="42.99171549116756" lon="11.502433620903279"><ele>299.2</ele><time>2026-04-11T14:03:00.999Z</time></trkpt><trkpt lat="42.99167365742101" lon="11.502555326176513"><ele>302.0</ele><time>2026-04-11T14:03:02.999Z</time></trkpt><trkpt lat="42.99163441918591" lon="11.502669480694088"><ele>297.8</ele><time>2026-04-11T14:03:04.999Z</time></trkpt><trkpt lat="42.99159579594495" lon="11.502779661919808"><ele>293.6</ele><time>2026-04-11T14:03:06.999Z</time></trkpt><trkpt lat="42.99155442320329" lon="11.502898794574255"><ele>289.40000000000003</ele><time>2026-04-11T14:03:08.999Z</time></trkpt><trkpt lat="42.99151576856084" lon="11.503014901285999"><ele>285.2</ele><time>2026-04-11T14:03:10.999Z</time></trkpt><trkpt lat="42.99148014281774" lon="11.503121910295976"><ele>281.0</ele><time>2026-04-11T14:03:13Z</time></trkpt><trkpt lat="42.991441613498864" lon="11.503237640622432"><ele>281.0</ele><time>2026-04-11T14:03:15Z</time></trkpt><trkpt lat="42.991402124991026" lon="11.503349158632746"><ele>281.0</ele><time>2026-04-11T14:03:17Z</time></trkpt><trkpt lat="42.991352881517756" lon="11.503465720736841"><ele>281.0</ele><time>2026-04-11T14:03:19Z</time></trkpt><trkpt lat="42.991299918867334" lon="11.50357330872677"><ele>281.0</ele><time>2026-04-11T14:03:21Z</time></trkpt><trkpt lat="42.99124447519177" lon="11.503679412894861"><ele>281.0</ele><time>2026-04-11T14:03:23Z</time></trkpt><trkpt lat="42.99118423518191" lon="11.503792645277377"><ele>283.40000000000003</ele><time>2026-04-11T14:03:25Z</time></trkpt><trkpt lat="42.99112499501681" lon="11.503907428023279"><ele>285.8</ele><time>2026-04-11T14:03:27Z</time></trkpt><trkpt lat="42.991066900746894" lon="11.504026578324213"><ele>288.20000000000005</ele><time>2026-04-11T14:03:29Z</time></trkpt><trkpt lat="42.99100969607631" lon="11.504151698058712"><ele>290.6</ele><time>2026-04-11T14:03:31Z</time></trkpt><trkpt lat="42.99095464285559" lon="11.504288347253539"><ele>293.0</ele><time>2026-04-11T14:03:33Z</time></trkpt><trkpt lat="42.99090519228575" lon="11.504420981938123"><ele>294.8</ele><time>2026-04-11T14:03:35Z</time></trkpt><trkpt lat="42.99089444736201" lon="11.504595096945291"><ele>296.6</ele><time>2026-04-11T14:03:37Z</time></trkpt><trkpt lat="42.99083638221033" lon="11.504749754581727"><ele>298.4</ele><time>2026-04-11T14:03:39Z</time></trkpt><trkpt lat="42.990806816892395" lon="11.504828333245994"><ele>300.2</ele><time>2026-04-11T14:03:40Z</time></trkpt><trkpt lat="42.99077602714769" lon="11.504904178368115"><ele>302.0</ele><time>2026-04-11T14:03:41Z</time></trkpt><trkpt lat="42.990715930592394" lon="11.505051189931851"><ele>298.4</ele><time>2026-04-11T14:03:43Z</time></trkpt><trkpt lat="42.99065987292581" lon="11.505187792498013"><ele>294.79999999999995</ele><time>2026-04-11T14:03:45Z</time></trkpt><trkpt lat="42.99061476762707" lon="11.505307236060528"><ele>291.2</ele><time>2026-04-11T14:03:47Z</time></trkpt><trkpt lat="42.99057033877057" lon="11.50541230778588"><ele>287.59999999999997</ele><time>2026-04-11T14:03:49Z</time></trkpt><trkpt lat="42.990537675644056" lon="11.50551339059063"><ele>284.0</ele><time>2026-04-11T14:03:51Z</time></trkpt><trkpt lat="42.99049773294138" lon="11.50560920493753"><ele>284.0</ele><time>2026-04-11T14:03:53Z</time></trkpt><trkpt lat="42.99045887753578" lon="11.505693525668528"><ele>284.0</ele><time>2026-04-11T14:03:55Z</time></trkpt><trkpt lat="42.99041689892942" lon="11.505771768968252"><ele>284.0</ele><time>2026-04-11T14:03:57Z</time></trkpt><trkpt lat="42.990374610304144" lon="11.505841037289656"><ele>284.0</ele><time>2026-04-11T14:03:59Z</time></trkpt><trkpt lat="42.99032969445353" lon="11.505910340774287"><ele>284.0</ele><time>2026-04-11T14:04:01Z</time></trkpt><trkpt lat="42.99028891446293" lon="11.505978910999543"><ele>284.0</ele><time>2026-04-11T14:04:03Z</time></trkpt><trkpt lat="42.99024538579667" lon="11.506068633528583"><ele>284.0</ele><time>2026-04-11T14:04:05Z</time></trkpt><trkpt lat="42.990198343242355" lon="11.506163620143937"><ele>285.4</ele><time>2026-04-11T14:04:07Z</time></trkpt><trkpt lat="42.99016530279741" lon="11.506283829480111"><ele>286.79999999999995</ele><time>2026-04-11T14:04:09Z</time></trkpt><trkpt lat="42.99015806355479" lon="11.506416784576954"><ele>288.20000000000005</ele><time>2026-04-11T14:04:11Z</time></trkpt><trkpt lat="42.99014715985863" lon="11.506554543782418"><ele>289.6</ele><time>2026-04-11T14:04:13Z</time></trkpt><trkpt lat="42.990133964280844" lon="11.506708400002967"><ele>291.0</ele><time>2026-04-11T14:04:15Z</time></trkpt><trkpt lat="42.990124554528585" lon="11.506866110730464"><ele>291.0</ele><time>2026-04-11T14:04:16.999Z</time></trkpt><trkpt lat="42.99009751885942" lon="11.507013541467504"><ele>291.0</ele><time>2026-04-11T14:04:18.999Z</time></trkpt><trkpt lat="42.990050406207686" lon="11.507139400842425"><ele>291.0</ele><time>2026-04-11T14:04:20.999Z</time></trkpt><trkpt lat="42.989984039461596" lon="11.507210558751902"><ele>291.0</ele><time>2026-04-11T14:04:22.999Z</time></trkpt><trkpt lat="42.98992845545361" lon="11.507261639631043"><ele>291.0</ele><time>2026-04-11T14:04:24.999Z</time></trkpt><trkpt lat="42.989867249842696" lon="11.507333596669556"><ele>291.0</ele><time>2026-04-11T14:04:27.999Z</time></trkpt><trkpt lat="42.98979776688868" lon="11.507406175230152"><ele>289.5</ele><time>2026-04-11T14:04:30.999Z</time></trkpt><trkpt lat="42.989743781486546" lon="11.50749713886046"><ele>288.0</ele><time>2026-04-11T14:04:33.999Z</time></trkpt><trkpt lat="42.989695026220524" lon="11.507598807878129"><ele>286.5</ele><time>2026-04-11T14:04:36.999Z</time></trkpt><trkpt lat="42.989654430800606" lon="11.507713928533544"><ele>285.0</ele><time>2026-04-11T14:04:39.999Z</time></trkpt><trkpt lat="42.98962242963757" lon="11.50782567960636"><ele>283.5</ele><time>2026-04-11T14:04:42.999Z</time></trkpt><trkpt lat="42.989583904389114" lon="11.507939817855503"><ele>282.0</ele><time>2026-04-11T14:04:45.999Z</time></trkpt><trkpt lat="42.98956099613497" lon="11.508066400245125"><ele>282.0</ele><time>2026-04-11T14:04:48.999Z</time></trkpt><trkpt lat="42.989547790884004" lon="11.50815202134003"><ele>282.0</ele><time>2026-04-11T14:04:50.999Z</time></trkpt><trkpt lat="42.98953796805499" lon="11.508242133327753"><ele>282.0</ele><time>2026-04-11T14:04:52.999Z</time></trkpt><trkpt lat="42.98952946191898" lon="11.508332461605212"><ele>282.0</ele><time>2026-04-11T14:04:54.999Z</time></trkpt><trkpt lat="42.98952784030763" lon="11.508423414670707"><ele>282.0</ele><time>2026-04-11T14:04:56.999Z</time></trkpt><trkpt lat="42.98952369435722" lon="11.508515647727835"><ele>282.0</ele><time>2026-04-11T14:04:58.999Z</time></trkpt><trkpt lat="42.989518328346286" lon="11.508605637819183"><ele>282.0</ele><time>2026-04-11T14:05:00.999Z</time></trkpt><trkpt lat="42.9895090988353" lon="11.508698219345577"><ele>283.8571428571429</ele><time>2026-04-11T14:05:02.999Z</time></trkpt><trkpt lat="42.98950208821195" lon="11.508786585968394"><ele>285.7142857142857</ele><time>2026-04-11T14:05:04.999Z</time></trkpt><trkpt lat="42.98949596994439" lon="11.508872485911661"><ele>287.57142857142856</ele><time>2026-04-11T14:05:06.999Z</time></trkpt><trkpt lat="42.9894838918962" lon="11.508957929556578"><ele>289.42857142857144</ele><time>2026-04-11T14:05:08.999Z</time></trkpt><trkpt lat="42.98947493194359" lon="11.509074996078628"><ele>291.2857142857143</ele><time>2026-04-11T14:05:11.999Z</time></trkpt><trkpt lat="42.989468455998775" lon="11.509171192173831"><ele>293.14285714285717</ele><time>2026-04-11T14:05:14.999Z</time></trkpt><trkpt lat="42.98945946462045" lon="11.509263309600005"><ele>295.0</ele><time>2026-04-11T14:05:18Z</time></trkpt><trkpt lat="42.98945121016422" lon="11.509355543036136"><ele>295.00000000000006</ele><time>2026-04-11T14:05:21Z</time></trkpt><trkpt lat="42.989445315623676" lon="11.509465383145026"><ele>295.0</ele><time>2026-04-11T14:05:25Z</time></trkpt><trkpt lat="42.989440333540664" lon="11.509573641474603"><ele>295.0</ele><time>2026-04-11T14:05:29Z</time></trkpt><trkpt lat="42.98943185201856" lon="11.509674096191127"><ele>295.0</ele><time>2026-04-11T14:05:33Z</time></trkpt><trkpt lat="42.9894246226397" lon="11.50976090795341"><ele>295.0</ele><time>2026-04-11T14:05:36Z</time></trkpt><trkpt lat="42.98942867706289" lon="11.509876846989588"><ele>295.00000000000006</ele><time>2026-04-11T14:05:40Z</time></trkpt><trkpt lat="42.98942665524591" lon="11.509963158515738"><ele>295.0</ele><time>2026-04-11T14:05:43Z</time></trkpt><trkpt lat="42.989432041198384" lon="11.510072517375287"><ele>294.8333333333333</ele><time>2026-04-11T14:05:47Z</time></trkpt><trkpt lat="42.98945189309448" lon="11.510176995123812"><ele>294.66666666666663</ele><time>2026-04-11T14:05:51Z</time></trkpt><trkpt lat="42.989466271748974" lon="11.51028482579549"><ele>294.5</ele><time>2026-04-11T14:05:55Z</time></trkpt><trkpt lat="42.98947689134867" lon="11.510391988836709"><ele>294.3333333333333</ele><time>2026-04-11T14:05:59Z</time></trkpt><trkpt lat="42.989494299192934" lon="11.510500232535446"><ele>294.1666666666667</ele><time>2026-04-11T14:06:03Z</time></trkpt><trkpt lat="42.98951563111844" lon="11.51060451387062"><ele>294.0</ele><time>2026-04-11T14:06:07Z</time></trkpt><trkpt lat="42.989538540246514" lon="11.510707669028193"><ele>294.0</ele><time>2026-04-11T14:06:11Z</time></trkpt><trkpt lat="42.98955624388947" lon="11.510793646853402"><ele>294.0</ele><time>2026-04-11T14:06:14Z</time></trkpt><trkpt lat="42.98956943414995" lon="11.510882528033434"><ele>294.0</ele><time>2026-04-11T14:06:17Z</time></trkpt><trkpt lat="42.989587287496036" lon="11.510971975359896"><ele>294.0</ele><time>2026-04-11T14:06:20Z</time></trkpt><trkpt lat="42.989596326737605" lon="11.511073637567451"><ele>294.0</ele><time>2026-04-11T14:06:24Z</time></trkpt><trkpt lat="42.98960413961652" lon="11.511160256521599"><ele>294.0</ele><time>2026-04-11T14:06:26.999Z</time></trkpt><trkpt lat="42.98962690880489" lon="11.511272336687032"><ele>294.0</ele><time>2026-04-11T14:06:30.999Z</time></trkpt><trkpt lat="42.98964065508869" lon="11.511365487115665"><ele>292.6666666666667</ele><time>2026-04-11T14:06:33.999Z</time></trkpt><trkpt lat="42.98966246186451" lon="11.511478712829271"><ele>291.3333333333333</ele><time>2026-04-11T14:06:36.999Z</time></trkpt><trkpt lat="42.98970063040964" lon="11.511575816500583"><ele>290.0</ele><time>2026-04-11T14:06:39.999Z</time></trkpt><trkpt lat="42.98976699310498" lon="11.511672480210933"><ele>288.66666666666663</ele><time>2026-04-11T14:06:42.999Z</time></trkpt><trkpt lat="42.989829749327896" lon="11.511706074169703"><ele>287.3333333333333</ele><time>2026-04-11T14:06:44.999Z</time></trkpt><trkpt lat="42.98992394275743" lon="11.511725416488455"><ele>286.0</ele><time>2026-04-11T14:06:46.999Z</time></trkpt><trkpt lat="42.990043893239914" lon="11.511765406969253"><ele>285.99999999999994</ele><time>2026-04-11T14:06:48.999Z</time></trkpt><trkpt lat="42.99010974050138" lon="11.511780683647396"><ele>286.0</ele><time>2026-04-11T14:06:49.999Z</time></trkpt><trkpt lat="42.99017505597333" lon="11.51179385035773"><ele>286.0</ele><time>2026-04-11T14:06:50.999Z</time></trkpt><trkpt lat="42.99024362979148" lon="11.511809107476376"><ele>286.0</ele><time>2026-04-11T14:06:51.999Z</time></trkpt><trkpt lat="42.99030474142021" lon="11.51183368075159"><ele>286.0</ele><time>2026-04-11T14:06:52.999Z</time></trkpt><trkpt lat="42.990414247766594" lon="11.511858289370174"><ele>285.99999999999994</ele><time>2026-04-11T14:06:54.999Z</time></trkpt><trkpt lat="42.990479965821194" lon="11.511888603925891"><ele>286.0</ele><time>2026-04-11T14:06:55.999Z</time></trkpt><trkpt lat="42.990569046461545" lon="11.511897320388693"><ele>286.0</ele><time>2026-04-11T14:06:57.999Z</time></trkpt><trkpt lat="42.99067300287062" lon="11.51192860771208"><ele>286.0</ele><time>2026-04-11T14:06:59.999Z</time></trkpt><trkpt lat="42.99077731962755" lon="11.51195528355039"><ele>286.0</ele><time>2026-04-11T14:07:01.999Z</time></trkpt><trkpt lat="42.990889749754665" lon="11.511984260039174"><ele>286.0</ele><time>2026-04-11T14:07:03.999Z</time></trkpt><trkpt lat="42.99100728756812" lon="11.512028987270435"><ele>286.0</ele><time>2026-04-11T14:07:05.999Z</time></trkpt><trkpt lat="42.99107198723747" lon="11.512049752689935"><ele>284.0</ele><time>2026-04-11T14:07:06.999Z</time></trkpt><trkpt lat="42.9912018593876" lon="11.512086023233412"><ele>282.0</ele><time>2026-04-11T14:07:08.999Z</time></trkpt><trkpt lat="42.99126798848373" lon="11.512110581017689"><ele>280.0</ele><time>2026-04-11T14:07:09.999Z</time></trkpt><trkpt lat="42.99133233765367" lon="11.512159755041981"><ele>278.0</ele><time>2026-04-11T14:07:10.999Z</time></trkpt><trkpt lat="42.991404376731815" lon="11.512180075635785"><ele>276.0</ele><time>2026-04-11T14:07:11.999Z</time></trkpt><trkpt lat="42.99146966423589" lon="11.512199193939402"><ele>274.0</ele><time>2026-04-11T14:07:12.999Z</time></trkpt><trkpt lat="42.9915347277953" lon="11.512218246758975"><ele>274.0</ele><time>2026-04-11T14:07:13.999Z</time></trkpt><trkpt lat="42.99160216535764" lon="11.512238584703946"><ele>274.0</ele><time>2026-04-11T14:07:14.999Z</time></trkpt><trkpt lat="42.991665558261715" lon="11.512260475449546"><ele>274.0</ele><time>2026-04-11T14:07:15.999Z</time></trkpt><trkpt lat="42.991726899876134" lon="11.51228763862684"><ele>274.0</ele><time>2026-04-11T14:07:16.999Z</time></trkpt><trkpt lat="42.9917861317703" lon="11.512322469084335"><ele>274.0</ele><time>2026-04-11T14:07:17.999Z</time></trkpt><trkpt lat="42.99188034016034" lon="11.512415324406405"><ele>274.0</ele><time>2026-04-11T14:07:19.999Z</time></trkpt><trkpt lat="42.99193731721788" lon="11.512542715014797"><ele>275.2</ele><time>2026-04-11T14:07:21.999Z</time></trkpt><trkpt lat="42.99197951987394" lon="11.51268041856347"><ele>276.4</ele><time>2026-04-11T14:07:24Z</time></trkpt><trkpt lat="42.99202061144362" lon="11.512810114244678"><ele>277.6</ele><time>2026-04-11T14:07:26Z</time></trkpt><trkpt lat="42.99206730659447" lon="11.5129198997077"><ele>278.8</ele><time>2026-04-11T14:07:28Z</time></trkpt><trkpt lat="42.99212993075583" lon="11.513005314548998"><ele>280.0</ele><time>2026-04-11T14:07:30Z</time></trkpt><trkpt lat="42.99219443679414" lon="11.513052845322514"><ele>279.85714285714283</ele><time>2026-04-11T14:07:32Z</time></trkpt><trkpt lat="42.99227118703516" lon="11.513089867408437"><ele>279.7142857142857</ele><time>2026-04-11T14:07:35Z</time></trkpt><trkpt lat="42.992337793432064" lon="11.513121174518572"><ele>279.57142857142856</ele><time>2026-04-11T14:07:38Z</time></trkpt><trkpt lat="42.99241068942952" lon="11.513117705881196"><ele>279.42857142857144</ele><time>2026-04-11T14:07:41Z</time></trkpt><trkpt lat="42.992474270397" lon="11.5131324080606"><ele>279.2857142857143</ele><time>2026-04-11T14:07:44Z</time></trkpt><trkpt lat="42.992538964635116" lon="11.513144711531838"><ele>279.1428571428571</ele><time>2026-04-11T14:07:47Z</time></trkpt><trkpt lat="42.99260091219503" lon="11.51317316487657"><ele>279.0</ele><time>2026-04-11T14:07:50Z</time></trkpt><trkpt lat="42.99267812097234" lon="11.513206592365774"><ele>279.0</ele><time>2026-04-11T14:07:54Z</time></trkpt><trkpt lat="42.99275459404337" lon="11.513244609330865"><ele>279.0</ele><time>2026-04-11T14:07:58Z</time></trkpt><trkpt lat="42.992828225078334" lon="11.513283515152933"><ele>279.0</ele><time>2026-04-11T14:08:02Z</time></trkpt><trkpt lat="42.99289866354705" lon="11.513324194036397"><ele>279.0</ele><time>2026-04-11T14:08:06Z</time></trkpt><trkpt lat="42.99297615316648" lon="11.513368281417334"><ele>279.0</ele><time>2026-04-11T14:08:10Z</time></trkpt><trkpt lat="42.993032310772314" lon="11.513408145367485"><ele>279.0</ele><time>2026-04-11T14:08:13Z</time></trkpt><trkpt lat="42.99308826221766" lon="11.513460275884716"><ele>278.99999999999994</ele><time>2026-04-11T14:08:17Z</time></trkpt><trkpt lat="42.993166457416926" lon="11.513528300075036"><ele>279.0</ele><time>2026-04-11T14:08:21Z</time></trkpt><trkpt lat="42.99322617790939" lon="11.5135891636617"><ele>279.0</ele><time>2026-04-11T14:08:25Z</time></trkpt><trkpt lat="42.99328196327043" lon="11.513641100493238"><ele>279.0</ele><time>2026-04-11T14:08:28Z</time></trkpt><trkpt lat="42.99333904169767" lon="11.513692372051235"><ele>279.0</ele><time>2026-04-11T14:08:30.999Z</time></trkpt><trkpt lat="42.99339187599323" lon="11.51374043543662"><ele>278.99999999999994</ele><time>2026-04-11T14:08:33.999Z</time></trkpt><trkpt lat="42.993453633155184" lon="11.51379412582534"><ele>279.0</ele><time>2026-04-11T14:08:36.999Z</time></trkpt><trkpt lat="42.993515444830244" lon="11.513843733057364"><ele>282.57142857142856</ele><time>2026-04-11T14:08:40.999Z</time></trkpt><trkpt lat="42.993583961609076" lon="11.51390098241329"><ele>286.1428571428571</ele><time>2026-04-11T14:08:44.999Z</time></trkpt><trkpt lat="42.9936474163423" lon="11.513946839026676"><ele>289.71428571428567</ele><time>2026-04-11T14:08:48.999Z</time></trkpt><trkpt lat="42.993714983904894" lon="11.51399288143795"><ele>293.2857142857143</ele><time>2026-04-11T14:08:52.999Z</time></trkpt><trkpt lat="42.99377808106523" lon="11.514030393380116"><ele>296.8571428571429</ele><time>2026-04-11T14:08:56.999Z</time></trkpt><trkpt lat="42.993840188829964" lon="11.514047847343399"><ele>300.4285714285714</ele><time>2026-04-11T14:09:00.999Z</time></trkpt><trkpt lat="42.993925639838636" lon="11.514060652480504"><ele>304.0</ele><time>2026-04-11T14:09:04.999Z</time></trkpt><trkpt lat="42.993998519872896" lon="11.514046519177743"><ele>304.0</ele><time>2026-04-11T14:09:08.999Z</time></trkpt><trkpt lat="42.99406672473416" lon="11.51401522466752"><ele>304.0</ele><time>2026-04-11T14:09:11.999Z</time></trkpt><trkpt lat="42.99414088196995" lon="11.513979742666512"><ele>304.0</ele><time>2026-04-11T14:09:15.999Z</time></trkpt><trkpt lat="42.99420172616907" lon="11.51392984669042"><ele>304.0</ele><time>2026-04-11T14:09:19.999Z</time></trkpt><trkpt lat="42.994275150084775" lon="11.513893505346758"><ele>304.0</ele><time>2026-04-11T14:09:23.999Z</time></trkpt><trkpt lat="42.9943336642657" lon="11.513853715659154"><ele>304.0</ele><time>2026-04-11T14:09:27.999Z</time></trkpt><trkpt lat="42.99439699114322" lon="11.513809971896304"><ele>304.0</ele><time>2026-04-11T14:09:32Z</time></trkpt><trkpt lat="42.994458963459614" lon="11.513771277846908"><ele>303.2857142857143</ele><time>2026-04-11T14:09:36Z</time></trkpt><trkpt lat="42.99452465993225" lon="11.513724074891556"><ele>302.5714285714286</ele><time>2026-04-11T14:09:40Z</time></trkpt><trkpt lat="42.994594365647984" lon="11.513685654682483"><ele>301.8571428571429</ele><time>2026-04-11T14:09:44Z</time></trkpt><trkpt lat="42.99466170485454" lon="11.5136499668663"><ele>301.1428571428571</ele><time>2026-04-11T14:09:48Z</time></trkpt><trkpt lat="42.994725540128464" lon="11.513605663875426"><ele>300.42857142857144</ele><time>2026-04-11T14:09:52Z</time></trkpt><trkpt lat="42.99478637620461" lon="11.513569366445886"><ele>299.7142857142857</ele><time>2026-04-11T14:09:55Z</time></trkpt><trkpt lat="42.994865927119655" lon="11.513522554542785"><ele>299.0</ele><time>2026-04-11T14:10:00Z</time></trkpt><trkpt lat="42.99492821832411" lon="11.513483085191488"><ele>299.0</ele><time>2026-04-11T14:10:04Z</time></trkpt><trkpt lat="42.99499431959672" lon="11.513439459939931"><ele>299.0</ele><time>2026-04-11T14:10:08Z</time></trkpt><trkpt lat="42.995059733115596" lon="11.513407623071187"><ele>299.0</ele><time>2026-04-11T14:10:12Z</time></trkpt><trkpt lat="42.99512778142449" lon="11.513372970952773"><ele>299.0</ele><time>2026-04-11T14:10:16Z</time></trkpt><trkpt lat="42.9951955484245" lon="11.513338649915548"><ele>299.0</ele><time>2026-04-11T14:10:20Z</time></trkpt><trkpt lat="42.995265346883926" lon="11.51330837706487"><ele>299.0</ele><time>2026-04-11T14:10:24Z</time></trkpt><trkpt lat="42.99533725847519" lon="11.513286948651396"><ele>299.0</ele><time>2026-04-11T14:10:28Z</time></trkpt><trkpt lat="42.995416398774566" lon="11.51328577952853"><ele>300.1428571428571</ele><time>2026-04-11T14:10:32Z</time></trkpt><trkpt lat="42.995487133929984" lon="11.513293896378281"><ele>301.2857142857143</ele><time>2026-04-11T14:10:35.999Z</time></trkpt><trkpt lat="42.99556422326432" lon="11.513306339350157"><ele>302.42857142857144</ele><time>2026-04-11T14:10:39.999Z</time></trkpt><trkpt lat="42.99563347463037" lon="11.513318349421603"><ele>303.57142857142856</ele><time>2026-04-11T14:10:43.999Z</time></trkpt><trkpt lat="42.99571152016517" lon="11.513325304106264"><ele>304.7142857142857</ele><time>2026-04-11T14:10:47.999Z</time></trkpt><trkpt lat="42.99577700317696" lon="11.513339143227435"><ele>305.85714285714283</ele><time>2026-04-11T14:10:51.999Z</time></trkpt><trkpt lat="42.9958535142637" lon="11.513351227451645"><ele>307.0</ele><time>2026-04-11T14:10:55.999Z</time></trkpt><trkpt lat="42.99591940795032" lon="11.513381228384622"><ele>307.16666666666663</ele><time>2026-04-11T14:10:59.999Z</time></trkpt><trkpt lat="42.99599481816991" lon="11.513409728914455"><ele>307.3333333333333</ele><time>2026-04-11T14:11:03.999Z</time></trkpt><trkpt lat="42.99606906178194" lon="11.513439940221463"><ele>307.5</ele><time>2026-04-11T14:11:07.999Z</time></trkpt><trkpt lat="42.996150966550545" lon="11.513472749285556"><ele>307.6666666666667</ele><time>2026-04-11T14:11:11.999Z</time></trkpt><trkpt lat="42.99622415357839" lon="11.513505637079028"><ele>307.83333333333337</ele><time>2026-04-11T14:11:15.999Z</time></trkpt><trkpt lat="42.99631124845182" lon="11.513537288050948"><ele>308.0</ele><time>2026-04-11T14:11:19.999Z</time></trkpt><trkpt lat="42.99637314925368" lon="11.513557450606404"><ele>308.0</ele><time>2026-04-11T14:11:22.999Z</time></trkpt><trkpt lat="42.996452768482676" lon="11.513578594900492"><ele>308.0</ele><time>2026-04-11T14:11:26.999Z</time></trkpt><trkpt lat="42.99651694875623" lon="11.513603351414735"><ele>308.0</ele><time>2026-04-11T14:11:28.999Z</time></trkpt><trkpt lat="42.996579744189404" lon="11.51361337010114"><ele>308.0</ele><time>2026-04-11T14:11:31.999Z</time></trkpt><trkpt lat="42.99664804542719" lon="11.513631923371527"><ele>308.0</ele><time>2026-04-11T14:11:34.998Z</time></trkpt><trkpt lat="42.99671547746903" lon="11.513649983434615"><ele>308.0</ele><time>2026-04-11T14:11:38Z</time></trkpt><trkpt lat="42.99679201565978" lon="11.513699164000954"><ele>308.0</ele><time>2026-04-11T14:11:41Z</time></trkpt><trkpt lat="42.99686410698736" lon="11.51376573906417"><ele>307.5</ele><time>2026-04-11T14:11:44Z</time></trkpt><trkpt lat="42.99692069356487" lon="11.513868405590642"><ele>307.0</ele><time>2026-04-11T14:11:48Z</time></trkpt><trkpt lat="42.99698018573915" lon="11.513950121861741"><ele>306.5</ele><time>2026-04-11T14:11:51Z</time></trkpt><trkpt lat="42.99701143553437" lon="11.514058488882544"><ele>306.0</ele><time>2026-04-11T14:11:55Z</time></trkpt><trkpt lat="42.997039882395484" lon="11.514154143098562"><ele>305.5</ele><time>2026-04-11T14:11:58Z</time></trkpt><trkpt lat="42.997070716346954" lon="11.514256673187473"><ele>305.0</ele><time>2026-04-11T14:12:01Z</time></trkpt><trkpt lat="42.99710006298439" lon="11.514356995018801"><ele>305.0</ele><time>2026-04-11T14:12:04Z</time></trkpt><trkpt lat="42.99712874963527" lon="11.51443806956888"><ele>305.0</ele><time>2026-04-11T14:12:06Z</time></trkpt><trkpt lat="42.99716614761068" lon="11.514539360384173"><ele>305.0</ele><time>2026-04-11T14:12:08Z</time></trkpt><trkpt lat="42.99720743243319" lon="11.51465248204689"><ele>305.0</ele><time>2026-04-11T14:12:11Z</time></trkpt><trkpt lat="42.99722182156609" lon="11.514741857385133"><ele>305.0</ele><time>2026-04-11T14:12:13Z</time></trkpt><trkpt lat="42.997253343736595" lon="11.514823348500613"><ele>305.0</ele><time>2026-04-11T14:12:15Z</time></trkpt><trkpt lat="42.997282853964194" lon="11.514900585524867"><ele>305.0</ele><time>2026-04-11T14:12:17Z</time></trkpt><trkpt lat="42.99731240062093" lon="11.515026363987468"><ele>306.0</ele><time>2026-04-11T14:12:20Z</time></trkpt><trkpt lat="42.99734585560885" lon="11.515144932141334"><ele>307.0</ele><time>2026-04-11T14:12:23Z</time></trkpt><trkpt lat="42.9973540616108" lon="11.51523430001379"><ele>308.0</ele><time>2026-04-11T14:12:25Z</time></trkpt><trkpt lat="42.99736025727867" lon="11.515330412396594"><ele>309.0</ele><time>2026-04-11T14:12:27Z</time></trkpt><trkpt lat="42.99735658441649" lon="11.515459700219145"><ele>310.0</ele><time>2026-04-11T14:12:30Z</time></trkpt><trkpt lat="42.99735330946291" lon="11.515546525919593"><ele>311.0</ele><time>2026-04-11T14:12:32Z</time></trkpt><trkpt lat="42.997340169545076" lon="11.515671865013356"><ele>311.2857142857143</ele><time>2026-04-11T14:12:35Z</time></trkpt><trkpt lat="42.997327396551604" lon="11.51579703899883"><ele>311.5714285714286</ele><time>2026-04-11T14:12:38Z</time></trkpt><trkpt lat="42.99731715831028" lon="11.515886241403129"><ele>311.8571428571429</ele><time>2026-04-11T14:12:40Z</time></trkpt><trkpt lat="42.9973054992922" lon="11.515976297145407"><ele>312.1428571428571</ele><time>2026-04-11T14:12:42Z</time></trkpt><trkpt lat="42.9972954804933" lon="11.516069988820595"><ele>312.42857142857144</ele><time>2026-04-11T14:12:43.999Z</time></trkpt><trkpt lat="42.997280330912524" lon="11.516165186082299"><ele>312.7142857142857</ele><time>2026-04-11T14:12:45.999Z</time></trkpt><trkpt lat="42.99727237146105" lon="11.516254490774292"><ele>313.0</ele><time>2026-04-11T14:12:47.999Z</time></trkpt><trkpt lat="42.997265143792056" lon="11.516341908589794"><ele>313.0</ele><time>2026-04-11T14:12:49.999Z</time></trkpt><trkpt lat="42.99725189945628" lon="11.516426717139572"><ele>313.0</ele><time>2026-04-11T14:12:51.999Z</time></trkpt><trkpt lat="42.997236167492005" lon="11.516511112656797"><ele>313.0</ele><time>2026-04-11T14:12:53.999Z</time></trkpt><trkpt lat="42.99720931480491" lon="11.516636844303875"><ele>313.0</ele><time>2026-04-11T14:12:56.999Z</time></trkpt><trkpt lat="42.99718209848523" lon="11.516754692525026"><ele>313.0</ele><time>2026-04-11T14:12:59.999Z</time></trkpt><trkpt lat="42.99714119661552" lon="11.516864239770122"><ele>313.0</ele><time>2026-04-11T14:13:02.999Z</time></trkpt><trkpt lat="42.99710283575063" lon="11.516966981817239"><ele>313.0</ele><time>2026-04-11T14:13:05.999Z</time></trkpt><trkpt lat="42.99705200198975" lon="11.517066730720819"><ele>313.0</ele><time>2026-04-11T14:13:08.999Z</time></trkpt><trkpt lat="42.997005747393644" lon="11.51716157222428"><ele>313.0</ele><time>2026-04-11T14:13:11.999Z</time></trkpt><trkpt lat="42.99695665157689" lon="11.517248230910315"><ele>313.0</ele><time>2026-04-11T14:13:14.999Z</time></trkpt><trkpt lat="42.996908334474995" lon="11.517333540248968"><ele>313.0</ele><time>2026-04-11T14:13:17.999Z</time></trkpt><trkpt lat="42.99685472800506" lon="11.5174147740439"><ele>313.0</ele><time>2026-04-11T14:13:20.999Z</time></trkpt><trkpt lat="42.99679119679361" lon="11.51749228728399"><ele>312.7142857142857</ele><time>2026-04-11T14:13:24.999Z</time></trkpt><trkpt lat="42.99673667243967" lon="11.517555539010008"><ele>312.42857142857144</ele><time>2026-04-11T14:13:27.999Z</time></trkpt><trkpt lat="42.99668221697846" lon="11.517624510800994"><ele>312.1428571428571</ele><time>2026-04-11T14:13:30.999Z</time></trkpt><trkpt lat="42.996622922112216" lon="11.517685269417326"><ele>311.8571428571429</ele><time>2026-04-11T14:13:33.999Z</time></trkpt><trkpt lat="42.996560036277984" lon="11.517743896143118"><ele>311.5714285714286</ele><time>2026-04-11T14:13:36.999Z</time></trkpt><trkpt lat="42.99649373148127" lon="11.517794214195204"><ele>311.2857142857143</ele><time>2026-04-11T14:13:39.999Z</time></trkpt><trkpt lat="42.99642411239255" lon="11.517839898553815"><ele>311.0</ele><time>2026-04-11T14:13:43Z</time></trkpt><trkpt lat="42.99635624904194" lon="11.517882660916072"><ele>312.57142857142856</ele><time>2026-04-11T14:13:46Z</time></trkpt><trkpt lat="42.996294878473364" lon="11.51792940480282"><ele>314.14285714285717</ele><time>2026-04-11T14:13:49Z</time></trkpt><trkpt lat="42.99623247877498" lon="11.517971191472325"><ele>315.7142857142857</ele><time>2026-04-11T14:13:52Z</time></trkpt><trkpt lat="42.99617111922909" lon="11.518003527831173"><ele>317.2857142857143</ele><time>2026-04-11T14:13:55Z</time></trkpt><trkpt lat="42.996115498536575" lon="11.51804963875816"><ele>318.8571428571429</ele><time>2026-04-11T14:13:58Z</time></trkpt><trkpt lat="42.996061962914126" lon="11.518095930420852"><ele>320.42857142857144</ele><time>2026-04-11T14:14:01Z</time></trkpt><trkpt lat="42.99600307742402" lon="11.51816730067477"><ele>322.0</ele><time>2026-04-11T14:14:05Z</time></trkpt><trkpt lat="42.9959466164845" lon="11.518231011835933"><ele>322.0</ele><time>2026-04-11T14:14:08Z</time></trkpt><trkpt lat="42.99589228935596" lon="11.518292469524093"><ele>322.0</ele><time>2026-04-11T14:14:12Z</time></trkpt><trkpt lat="42.995844996271565" lon="11.518354740276505"><ele>322.0</ele><time>2026-04-11T14:14:15Z</time></trkpt><trkpt lat="42.99579001471851" lon="11.518416867376201"><ele>322.0</ele><time>2026-04-11T14:14:18Z</time></trkpt><trkpt lat="42.99573934976069" lon="11.518494679853259"><ele>322.0</ele><time>2026-04-11T14:14:22Z</time></trkpt><trkpt lat="42.99569556829152" lon="11.518562087160108"><ele>322.0</ele><time>2026-04-11T14:14:25Z</time></trkpt><trkpt lat="42.99563818770655" lon="11.518630847791894"><ele>322.0</ele><time>2026-04-11T14:14:28Z</time></trkpt><trkpt lat="42.99559092830945" lon="11.518699829880104"><ele>324.0</ele><time>2026-04-11T14:14:32Z</time></trkpt><trkpt lat="42.99554350871258" lon="11.518760747100574"><ele>326.0</ele><time>2026-04-11T14:14:35Z</time></trkpt><trkpt lat="42.995496853709184" lon="11.518831549464602"><ele>328.0</ele><time>2026-04-11T14:14:39Z</time></trkpt><trkpt lat="42.99544225538882" lon="11.518913162505774"><ele>330.0</ele><time>2026-04-11T14:14:43Z</time></trkpt><trkpt lat="42.995379624641764" lon="11.518959158396655"><ele>332.0</ele><time>2026-04-11T14:14:46.999Z</time></trkpt><trkpt lat="42.99531166847032" lon="11.519032637241358"><ele>334.0</ele><time>2026-04-11T14:14:50.999Z</time></trkpt><trkpt lat="42.995236604485235" lon="11.519075127344882"><ele>334.0</ele><time>2026-04-11T14:14:54.999Z</time></trkpt><trkpt lat="42.99516749696968" lon="11.519133677870382"><ele>334.0</ele><time>2026-04-11T14:14:58.999Z</time></trkpt><trkpt lat="42.995123951632344" lon="11.519205386990327"><ele>334.0</ele><time>2026-04-11T14:15:01.999Z</time></trkpt><trkpt lat="42.99508227445209" lon="11.519290930758121"><ele>334.0</ele><time>2026-04-11T14:15:04.999Z</time></trkpt><trkpt lat="42.995029469897815" lon="11.51936045348694"><ele>334.0</ele><time>2026-04-11T14:15:07.999Z</time></trkpt><trkpt lat="42.994990033561095" lon="11.519429699506125"><ele>334.0</ele><time>2026-04-11T14:15:10.999Z</time></trkpt><trkpt lat="42.9949370289618" lon="11.519479069971734"><ele>334.0</ele><time>2026-04-11T14:15:13.999Z</time></trkpt><trkpt lat="42.994907501381505" lon="11.5195648435626"><ele>334.7142857142857</ele><time>2026-04-11T14:15:18.999Z</time></trkpt><trkpt lat="42.99488688149452" lon="11.519649892185186"><ele>335.42857142857144</ele><time>2026-04-11T14:15:23.999Z</time></trkpt><trkpt lat="42.99488480558228" lon="11.51974245034299"><ele>336.1428571428571</ele><time>2026-04-11T14:15:29.999Z</time></trkpt><trkpt lat="42.99493661831171" lon="11.519798993276915"><ele>336.8571428571429</ele><time>2026-04-11T14:15:32.999Z</time></trkpt><trkpt lat="42.995004994698355" lon="11.519813738759648"><ele>337.5714285714286</ele><time>2026-04-11T14:15:34.999Z</time></trkpt><trkpt lat="42.99508245969351" lon="11.519845681388517"><ele>338.2857142857143</ele><time>2026-04-11T14:15:36.999Z</time></trkpt><trkpt lat="42.995161943628446" lon="11.519905372114872"><ele>339.0</ele><time>2026-04-11T14:15:38.999Z</time></trkpt><trkpt lat="42.995246569942616" lon="11.519949151439597"><ele>339.0</ele><time>2026-04-11T14:15:40.999Z</time></trkpt><trkpt lat="42.99533928277092" lon="11.520000628905754"><ele>339.0</ele><time>2026-04-11T14:15:42.999Z</time></trkpt><trkpt lat="42.99543252047962" lon="11.520064603449518"><ele>339.0</ele><time>2026-04-11T14:15:44.998Z</time></trkpt><trkpt lat="42.99550906591708" lon="11.520119858619605"><ele>339.0</ele><time>2026-04-11T14:15:46.998Z</time></trkpt><trkpt lat="42.99559140993575" lon="11.520178333157345"><ele>339.0</ele><time>2026-04-11T14:15:49Z</time></trkpt><trkpt lat="42.99567515821826" lon="11.520232731111728"><ele>339.0</ele><time>2026-04-11T14:15:51Z</time></trkpt><trkpt lat="42.995766052130826" lon="11.520294540768889"><ele>339.0</ele><time>2026-04-11T14:15:53Z</time></trkpt><trkpt lat="42.99586598722927" lon="11.520379751411076"><ele>339.0</ele><time>2026-04-11T14:15:55Z</time></trkpt><trkpt lat="42.995914009000295" lon="11.520435818797255"><ele>339.0</ele><time>2026-04-11T14:15:56Z</time></trkpt><trkpt lat="42.99598570261693" lon="11.520558619312347"><ele>339.0</ele><time>2026-04-11T14:15:58Z</time></trkpt><trkpt lat="42.99605630207451" lon="11.52069980049987"><ele>339.0</ele><time>2026-04-11T14:16:00Z</time></trkpt><trkpt lat="42.99609303868094" lon="11.520774168124813"><ele>339.0</ele><time>2026-04-11T14:16:01Z</time></trkpt><trkpt lat="42.996133806483385" lon="11.520853910612328"><ele>339.0</ele><time>2026-04-11T14:16:02Z</time></trkpt><trkpt lat="42.996173275854254" lon="11.520934454315366"><ele>339.0</ele><time>2026-04-11T14:16:03Z</time></trkpt><trkpt lat="42.9962218742683" lon="11.521015937967446"><ele>339.0</ele><time>2026-04-11T14:16:04Z</time></trkpt><trkpt lat="42.99626955626082" lon="11.52109970959217"><ele>339.0</ele><time>2026-04-11T14:16:05Z</time></trkpt><trkpt lat="42.99632365177205" lon="11.521182783121446"><ele>339.0</ele><time>2026-04-11T14:16:06Z</time></trkpt><trkpt lat="42.99637590490607" lon="11.52127154248639"><ele>339.0</ele><time>2026-04-11T14:16:07Z</time></trkpt><trkpt lat="42.996434596453604" lon="11.521357607828966"><ele>339.0</ele><time>2026-04-11T14:16:08Z</time></trkpt><trkpt lat="42.99650058581997" lon="11.521435541578066"><ele>339.0</ele><time>2026-04-11T14:16:09Z</time></trkpt><trkpt lat="42.996569159152834" lon="11.521498737247802"><ele>339.0</ele><time>2026-04-11T14:16:10Z</time></trkpt><trkpt lat="42.996631087769224" lon="11.521541216351274"><ele>339.0</ele><time>2026-04-11T14:16:11Z</time></trkpt><trkpt lat="42.99668789856774" lon="11.521589304409215"><ele>339.0</ele><time>2026-04-11T14:16:12Z</time></trkpt><trkpt lat="42.996745628737386" lon="11.521658218592815"><ele>337.5</ele><time>2026-04-11T14:16:13Z</time></trkpt><trkpt lat="42.996805268341895" lon="11.521729764670232"><ele>336.0</ele><time>2026-04-11T14:16:14Z</time></trkpt><trkpt lat="42.996874623375696" lon="11.52179575271846"><ele>334.5</ele><time>2026-04-11T14:16:15Z</time></trkpt><trkpt lat="42.996947939315696" lon="11.521866421449438"><ele>333.0</ele><time>2026-04-11T14:16:16Z</time></trkpt><trkpt lat="42.99702177643534" lon="11.521943688546218"><ele>331.5</ele><time>2026-04-11T14:16:17Z</time></trkpt><trkpt lat="42.997099560503905" lon="11.52202480700428"><ele>330.0</ele><time>2026-04-11T14:16:18Z</time></trkpt><trkpt lat="42.99718134091456" lon="11.522110349301801"><ele>330.0</ele><time>2026-04-11T14:16:19Z</time></trkpt><trkpt lat="42.99726749411236" lon="11.52219044895414"><ele>330.0</ele><time>2026-04-11T14:16:20Z</time></trkpt><trkpt lat="42.99734907287184" lon="11.522279726230924"><ele>330.0</ele><time>2026-04-11T14:16:21Z</time></trkpt><trkpt lat="42.997433481318176" lon="11.52237504182746"><ele>330.0</ele><time>2026-04-11T14:16:22Z</time></trkpt><trkpt lat="42.99752207223139" lon="11.52247133281923"><ele>330.0</ele><time>2026-04-11T14:16:23Z</time></trkpt><trkpt lat="42.997608406487295" lon="11.522567176293405"><ele>328.25</ele><time>2026-04-11T14:16:24Z</time></trkpt><trkpt lat="42.99770066113149" lon="11.52265528808103"><ele>326.5</ele><time>2026-04-11T14:16:25Z</time></trkpt><trkpt lat="42.99779100081609" lon="11.52274633245394"><ele>324.75</ele><time>2026-04-11T14:16:26Z</time></trkpt><trkpt lat="42.99788164587169" lon="11.522842082899226"><ele>323.0</ele><time>2026-04-11T14:16:27Z</time></trkpt><trkpt lat="42.99797411324081" lon="11.522938057389537"><ele>323.0</ele><time>2026-04-11T14:16:28Z</time></trkpt><trkpt lat="42.99806730836056" lon="11.523031995075073"><ele>323.0</ele><time>2026-04-11T14:16:29Z</time></trkpt><trkpt lat="42.99816246925543" lon="11.523118643532046"><ele>323.0</ele><time>2026-04-11T14:16:30Z</time></trkpt><trkpt lat="42.99827098961219" lon="11.523182204855255"><ele>323.0</ele><time>2026-04-11T14:16:31Z</time></trkpt><trkpt lat="42.99837989791079" lon="11.523233325075573"><ele>321.25</ele><time>2026-04-11T14:16:32Z</time></trkpt><trkpt lat="42.998493305290346" lon="11.523276456877374"><ele>319.5</ele><time>2026-04-11T14:16:33Z</time></trkpt><trkpt lat="42.99860467297925" lon="11.523321781834172"><ele>317.75</ele><time>2026-04-11T14:16:34Z</time></trkpt><trkpt lat="42.99871525411323" lon="11.523362264006328"><ele>316.0</ele><time>2026-04-11T14:16:35Z</time></trkpt><trkpt lat="42.9988267391874" lon="11.523408633841957"><ele>316.0</ele><time>2026-04-11T14:16:36Z</time></trkpt><trkpt lat="42.99893857315694" lon="11.523458242975998"><ele>316.0</ele><time>2026-04-11T14:16:37Z</time></trkpt><trkpt lat="42.99904561063039" lon="11.52351501353942"><ele>316.0</ele><time>2026-04-11T14:16:38Z</time></trkpt><trkpt lat="42.99915044648929" lon="11.52358287660271"><ele>316.0</ele><time>2026-04-11T14:16:39Z</time></trkpt><trkpt lat="42.99925052820584" lon="11.523655397502598"><ele>316.25</ele><time>2026-04-11T14:16:40Z</time></trkpt><trkpt lat="42.9993517920737" lon="11.523732891763055"><ele>316.5</ele><time>2026-04-11T14:16:41Z</time></trkpt><trkpt lat="42.99944950560202" lon="11.523806280890499"><ele>316.75</ele><time>2026-04-11T14:16:42Z</time></trkpt><trkpt lat="42.9995499836344" lon="11.523881899155763"><ele>317.0</ele><time>2026-04-11T14:16:43Z</time></trkpt><trkpt lat="42.99965201500215" lon="11.52394950316439"><ele>317.0</ele><time>2026-04-11T14:16:44Z</time></trkpt><trkpt lat="42.999751642438035" lon="11.524024917448553"><ele>317.0</ele><time>2026-04-11T14:16:45Z</time></trkpt><trkpt lat="42.999848734828284" lon="11.524096091999201"><ele>317.0</ele><time>2026-04-11T14:16:46Z</time></trkpt><trkpt lat="42.99995100833971" lon="11.524151345744723"><ele>317.0</ele><time>2026-04-11T14:16:47Z</time></trkpt><trkpt lat="43.00005245554845" lon="11.524195487857796"><ele>317.0</ele><time>2026-04-11T14:16:48Z</time></trkpt><trkpt lat="43.00015327642843" lon="11.524233163127446"><ele>317.0</ele><time>2026-04-11T14:16:49Z</time></trkpt><trkpt lat="43.00025036788111" lon="11.524269398100518"><ele>317.0</ele><time>2026-04-11T14:16:50Z</time></trkpt><trkpt lat="43.00034403195829" lon="11.524304401410587"><ele>317.0</ele><time>2026-04-11T14:16:51Z</time></trkpt><trkpt lat="43.00043342040215" lon="11.524342361840917"><ele>317.0</ele><time>2026-04-11T14:16:51.999Z</time></trkpt><trkpt lat="43.00052342089573" lon="11.524383970015984"><ele>317.0</ele><time>2026-04-11T14:16:52.999Z</time></trkpt><trkpt lat="43.000613511436676" lon="11.524419685894133"><ele>317.0</ele><time>2026-04-11T14:16:53.999Z</time></trkpt><trkpt lat="43.00070299843008" lon="11.52445265639197"><ele>317.0</ele><time>2026-04-11T14:16:54.999Z</time></trkpt><trkpt lat="43.00078807146915" lon="11.524489732124593"><ele>317.0</ele><time>2026-04-11T14:16:55.999Z</time></trkpt><trkpt lat="43.00087236986853" lon="11.524525432810172"><ele>317.0</ele><time>2026-04-11T14:16:56.999Z</time></trkpt><trkpt lat="43.00095505791213" lon="11.52455175167199"><ele>317.0</ele><time>2026-04-11T14:16:57.999Z</time></trkpt><trkpt lat="43.001037790492724" lon="11.524588335219653"><ele>317.0</ele><time>2026-04-11T14:16:58.999Z</time></trkpt><trkpt lat="43.001117929824886" lon="11.52462032528891"><ele>317.6666666666667</ele><time>2026-04-11T14:16:59.999Z</time></trkpt><trkpt lat="43.00119956132856" lon="11.52464916704869"><ele>318.33333333333337</ele><time>2026-04-11T14:17:00.999Z</time></trkpt><trkpt lat="43.00127702815217" lon="11.524681345355031"><ele>319.0</ele><time>2026-04-11T14:17:01.999Z</time></trkpt><trkpt lat="43.00135334691014" lon="11.524717417552761"><ele>319.6666666666667</ele><time>2026-04-11T14:17:02.999Z</time></trkpt><trkpt lat="43.001429021055806" lon="11.524752982457647"><ele>320.3333333333333</ele><time>2026-04-11T14:17:03.999Z</time></trkpt><trkpt lat="43.00150526919939" lon="11.524783172251515"><ele>321.0</ele><time>2026-04-11T14:17:04.999Z</time></trkpt><trkpt lat="43.001578287727035" lon="11.524813839985775"><ele>320.99999999999994</ele><time>2026-04-11T14:17:05.999Z</time></trkpt><trkpt lat="43.00165061169497" lon="11.52484730910003"><ele>321.0</ele><time>2026-04-11T14:17:06.999Z</time></trkpt><trkpt lat="43.001723058123275" lon="11.52487586581791"><ele>321.0</ele><time>2026-04-11T14:17:07.999Z</time></trkpt><trkpt lat="43.00179422667348" lon="11.524902783986018"><ele>321.0</ele><time>2026-04-11T14:17:08.999Z</time></trkpt><trkpt lat="43.001864964264705" lon="11.524930420868651"><ele>321.0</ele><time>2026-04-11T14:17:09.999Z</time></trkpt><trkpt lat="43.00193431250331" lon="11.52495505609515"><ele>320.99999999999994</ele><time>2026-04-11T14:17:10.999Z</time></trkpt><trkpt lat="43.00200444694588" lon="11.524978169801583"><ele>321.0</ele><time>2026-04-11T14:17:11.999Z</time></trkpt><trkpt lat="43.00207512392582" lon="11.525004996904615"><ele>320.99999999999994</ele><time>2026-04-11T14:17:12.999Z</time></trkpt><trkpt lat="43.0021452414572" lon="11.525031429055586"><ele>321.0</ele><time>2026-04-11T14:17:13.999Z</time></trkpt><trkpt lat="43.002215567280416" lon="11.52505795913166"><ele>321.0</ele><time>2026-04-11T14:17:14.999Z</time></trkpt><trkpt lat="43.00228485250561" lon="11.525083380696724"><ele>321.0</ele><time>2026-04-11T14:17:15.999Z</time></trkpt><trkpt lat="43.00235620853524" lon="11.525101884330502"><ele>321.0</ele><time>2026-04-11T14:17:16.999Z</time></trkpt><trkpt lat="43.00242695164726" lon="11.525122541460275"><ele>320.99999999999994</ele><time>2026-04-11T14:17:17.999Z</time></trkpt><trkpt lat="43.00249864005427" lon="11.525144164162219"><ele>321.0</ele><time>2026-04-11T14:17:18.999Z</time></trkpt><trkpt lat="43.00256968661127" lon="11.52516692251035"><ele>320.99999999999994</ele><time>2026-04-11T14:17:19.999Z</time></trkpt><trkpt lat="43.00264197171881" lon="11.525184274610526"><ele>321.0</ele><time>2026-04-11T14:17:20.999Z</time></trkpt><trkpt lat="43.00271111689056" lon="11.525202484423465"><ele>321.0</ele><time>2026-04-11T14:17:21.999Z</time></trkpt><trkpt lat="43.00278098553918" lon="11.525225908368846"><ele>321.0</ele><time>2026-04-11T14:17:22.999Z</time></trkpt><trkpt lat="43.00285047415445" lon="11.525248090554854"><ele>321.0</ele><time>2026-04-11T14:17:23.999Z</time></trkpt><trkpt lat="43.00292035940912" lon="11.525269592477635"><ele>320.99999999999994</ele><time>2026-04-11T14:17:24.999Z</time></trkpt><trkpt lat="43.00299055846333" lon="11.525288667333786"><ele>321.0</ele><time>2026-04-11T14:17:25.999Z</time></trkpt><trkpt lat="43.00305943532045" lon="11.52530990188144"><ele>320.99999999999994</ele><time>2026-04-11T14:17:26.999Z</time></trkpt><trkpt lat="43.00313087401282" lon="11.525332484069008"><ele>321.0</ele><time>2026-04-11T14:17:27.999Z</time></trkpt><trkpt lat="43.00320178004373" lon="11.525353718834344"><ele>321.0</ele><time>2026-04-11T14:17:28.999Z</time></trkpt><trkpt lat="43.00326920447394" lon="11.525371880559831"><ele>321.0</ele><time>2026-04-11T14:17:29.999Z</time></trkpt><trkpt lat="43.00333789206533" lon="11.52539195073097"><ele>321.0</ele><time>2026-04-11T14:17:30.999Z</time></trkpt><trkpt lat="43.003405883987014" lon="11.525411543857008"><ele>320.99999999999994</ele><time>2026-04-11T14:17:31.999Z</time></trkpt><trkpt lat="43.003473117784445" lon="11.525431085034942"><ele>321.0</ele><time>2026-04-11T14:17:32.999Z</time></trkpt><trkpt lat="43.003541505938536" lon="11.525450928710082"><ele>321.2857142857143</ele><time>2026-04-11T14:17:33.999Z</time></trkpt><trkpt lat="43.003609138120126" lon="11.525470006525769"><ele>321.57142857142856</ele><time>2026-04-11T14:17:34.999Z</time></trkpt><trkpt lat="43.003676916367766" lon="11.525484809494829"><ele>321.8571428571429</ele><time>2026-04-11T14:17:35.999Z</time></trkpt><trkpt lat="43.00374286544002" lon="11.52550190539416"><ele>322.1428571428571</ele><time>2026-04-11T14:17:36.999Z</time></trkpt><trkpt lat="43.00380714210382" lon="11.52552370028972"><ele>322.42857142857144</ele><time>2026-04-11T14:17:37.999Z</time></trkpt><trkpt lat="43.00387362217913" lon="11.525549527990755"><ele>322.7142857142857</ele><time>2026-04-11T14:17:38.999Z</time></trkpt><trkpt lat="43.00393753918131" lon="11.525570218545177"><ele>323.0</ele><time>2026-04-11T14:17:39.999Z</time></trkpt><trkpt lat="43.00400119870933" lon="11.525584697169982"><ele>323.0</ele><time>2026-04-11T14:17:40.999Z</time></trkpt><trkpt lat="43.00411896068432" lon="11.525612863083952"><ele>323.0</ele><time>2026-04-11T14:17:42.999Z</time></trkpt><trkpt lat="43.00423368542354" lon="11.52565544464375"><ele>323.0</ele><time>2026-04-11T14:17:44.999Z</time></trkpt><trkpt lat="43.00434419102067" lon="11.525682020349775"><ele>323.0</ele><time>2026-04-11T14:17:46.999Z</time></trkpt><trkpt lat="43.00445515052248" lon="11.525709181414365"><ele>323.2</ele><time>2026-04-11T14:17:48.999Z</time></trkpt><trkpt lat="43.004560204792135" lon="11.52574023672949"><ele>323.4</ele><time>2026-04-11T14:17:50.999Z</time></trkpt><trkpt lat="43.004664061722764" lon="11.52577030626502"><ele>323.59999999999997</ele><time>2026-04-11T14:17:52.998Z</time></trkpt><trkpt lat="43.00476613436978" lon="11.52580344261461"><ele>323.79999999999995</ele><time>2026-04-11T14:17:55Z</time></trkpt><trkpt lat="43.004865523981245" lon="11.525836633584765"><ele>324.0</ele><time>2026-04-11T14:17:57Z</time></trkpt><trkpt lat="43.004963142762065" lon="11.525861942874013"><ele>324.2</ele><time>2026-04-11T14:17:59Z</time></trkpt><trkpt lat="43.005060397542316" lon="11.52589644871209"><ele>324.4</ele><time>2026-04-11T14:18:01Z</time></trkpt><trkpt lat="43.005159470202656" lon="11.525923100535666"><ele>324.6</ele><time>2026-04-11T14:18:03Z</time></trkpt><trkpt lat="43.005252727013634" lon="11.525948258053285"><ele>324.8</ele><time>2026-04-11T14:18:05Z</time></trkpt><trkpt lat="43.00534172076494" lon="11.525975661236883"><ele>325.0</ele><time>2026-04-11T14:18:07Z</time></trkpt><trkpt lat="43.00543293000391" lon="11.526001975558723"><ele>325.0</ele><time>2026-04-11T14:18:09Z</time></trkpt><trkpt lat="43.00552159906516" lon="11.526022736342687"><ele>325.0</ele><time>2026-04-11T14:18:11Z</time></trkpt><trkpt lat="43.00561020208763" lon="11.526046786997235"><ele>325.0</ele><time>2026-04-11T14:18:13Z</time></trkpt><trkpt lat="43.00569935496973" lon="11.526072987443271"><ele>325.0</ele><time>2026-04-11T14:18:15Z</time></trkpt><trkpt lat="43.0057913130235" lon="11.526099153555402"><ele>325.0</ele><time>2026-04-11T14:18:17Z</time></trkpt><trkpt lat="43.00588273062061" lon="11.52612278979638"><ele>325.2</ele><time>2026-04-11T14:18:19Z</time></trkpt><trkpt lat="43.00596884401248" lon="11.52614870657278"><ele>325.4</ele><time>2026-04-11T14:18:21Z</time></trkpt><trkpt lat="43.006058316579214" lon="11.52617480259696"><ele>325.6</ele><time>2026-04-11T14:18:23Z</time></trkpt><trkpt lat="43.00615397573134" lon="11.526199276348674"><ele>325.8</ele><time>2026-04-11T14:18:25Z</time></trkpt><trkpt lat="43.006250393857584" lon="11.526226494636976"><ele>326.0</ele><time>2026-04-11T14:18:27Z</time></trkpt><trkpt lat="43.00634563641785" lon="11.526249489461023"><ele>326.20000000000005</ele><time>2026-04-11T14:18:29Z</time></trkpt><trkpt lat="43.00644021556915" lon="11.526277588818711"><ele>326.40000000000003</ele><time>2026-04-11T14:18:31Z</time></trkpt><trkpt lat="43.0065318137983" lon="11.526305886384456"><ele>326.6</ele><time>2026-04-11T14:18:33Z</time></trkpt><trkpt lat="43.00662319278764" lon="11.526325246595428"><ele>326.8</ele><time>2026-04-11T14:18:35Z</time></trkpt><trkpt lat="43.006715270103676" lon="11.526354828849371"><ele>327.0</ele><time>2026-04-11T14:18:37Z</time></trkpt><trkpt lat="43.00680790497467" lon="11.526380246319338"><ele>327.3333333333333</ele><time>2026-04-11T14:18:39Z</time></trkpt><trkpt lat="43.006898540983364" lon="11.526402964264616"><ele>327.6666666666667</ele><time>2026-04-11T14:18:41Z</time></trkpt><trkpt lat="43.00698703397976" lon="11.526421804607768"><ele>328.0</ele><time>2026-04-11T14:18:43Z</time></trkpt><trkpt lat="43.00707235001122" lon="11.526443724546688"><ele>328.33333333333337</ele><time>2026-04-11T14:18:45Z</time></trkpt><trkpt lat="43.00715843756049" lon="11.526459308061057"><ele>328.6666666666667</ele><time>2026-04-11T14:18:47Z</time></trkpt><trkpt lat="43.00724388042852" lon="11.526475201442931"><ele>329.0</ele><time>2026-04-11T14:18:49Z</time></trkpt><trkpt lat="43.007327702162335" lon="11.526482436189372"><ele>329.0</ele><time>2026-04-11T14:18:51Z</time></trkpt><trkpt lat="43.00741421852655" lon="11.526496822336943"><ele>329.0</ele><time>2026-04-11T14:18:53Z</time></trkpt><trkpt lat="43.0074985506589" lon="11.526508127720861"><ele>329.0</ele><time>2026-04-11T14:18:55Z</time></trkpt><trkpt lat="43.007584193151146" lon="11.526518536388034"><ele>329.0</ele><time>2026-04-11T14:18:56.999Z</time></trkpt><trkpt lat="43.00767154749154" lon="11.526524611349261"><ele>329.0</ele><time>2026-04-11T14:18:58.999Z</time></trkpt><trkpt lat="43.00775714424661" lon="11.526539631226317"><ele>329.0</ele><time>2026-04-11T14:19:00.999Z</time></trkpt><trkpt lat="43.00784010289294" lon="11.526549241301089"><ele>329.0</ele><time>2026-04-11T14:19:02.999Z</time></trkpt><trkpt lat="43.007924048180215" lon="11.526555547680593"><ele>329.0</ele><time>2026-04-11T14:19:04.999Z</time></trkpt><trkpt lat="43.0080103324484" lon="11.526568546785958"><ele>329.0</ele><time>2026-04-11T14:19:06.999Z</time></trkpt><trkpt lat="43.00809611792066" lon="11.52657912484983"><ele>329.0</ele><time>2026-04-11T14:19:08.999Z</time></trkpt><trkpt lat="43.00818580967348" lon="11.526593553172763"><ele>329.0</ele><time>2026-04-11T14:19:10.999Z</time></trkpt><trkpt lat="43.00827304236036" lon="11.526602321337837"><ele>329.0</ele><time>2026-04-11T14:19:12.999Z</time></trkpt><trkpt lat="43.008356835515755" lon="11.526613091972727"><ele>329.33333333333337</ele><time>2026-04-11T14:19:14.999Z</time></trkpt><trkpt lat="43.00844272355262" lon="11.526625628409757"><ele>329.6666666666667</ele><time>2026-04-11T14:19:16.999Z</time></trkpt><trkpt lat="43.00852803091868" lon="11.526635044940917"><ele>330.0</ele><time>2026-04-11T14:19:18.999Z</time></trkpt><trkpt lat="43.00861320989339" lon="11.526644692580808"><ele>330.3333333333333</ele><time>2026-04-11T14:19:20.999Z</time></trkpt><trkpt lat="43.00869999824893" lon="11.526658063126062"><ele>330.66666666666663</ele><time>2026-04-11T14:19:22.999Z</time></trkpt><trkpt lat="43.00878710396421" lon="11.526672496040447"><ele>331.0</ele><time>2026-04-11T14:19:24.999Z</time></trkpt><trkpt lat="43.008875573503616" lon="11.526686303078916"><ele>331.0</ele><time>2026-04-11T14:19:26.999Z</time></trkpt><trkpt lat="43.008965885970625" lon="11.526695179414437"><ele>331.0</ele><time>2026-04-11T14:19:28.999Z</time></trkpt><trkpt lat="43.00905457264604" lon="11.526703830741065"><ele>331.0</ele><time>2026-04-11T14:19:30.999Z</time></trkpt><trkpt lat="43.00914574439947" lon="11.526718705512621"><ele>331.0</ele><time>2026-04-11T14:19:32.999Z</time></trkpt><trkpt lat="43.0092367141186" lon="11.526731885485447"><ele>331.0</ele><time>2026-04-11T14:19:34.999Z</time></trkpt><trkpt lat="43.009327145066706" lon="11.526743387966784"><ele>331.20000000000005</ele><time>2026-04-11T14:19:36.999Z</time></trkpt><trkpt lat="43.009416137047026" lon="11.526755169092253"><ele>331.40000000000003</ele><time>2026-04-11T14:19:38.999Z</time></trkpt><trkpt lat="43.00950913285315" lon="11.52676447761443"><ele>331.6</ele><time>2026-04-11T14:19:40.999Z</time></trkpt><trkpt lat="43.009602440637764" lon="11.526773271442083"><ele>331.8</ele><time>2026-04-11T14:19:42.999Z</time></trkpt><trkpt lat="43.00969189804794" lon="11.526788470292711"><ele>332.0</ele><time>2026-04-11T14:19:44.999Z</time></trkpt><trkpt lat="43.009782627366505" lon="11.52679448639841"><ele>332.0</ele><time>2026-04-11T14:19:46.999Z</time></trkpt><trkpt lat="43.00987571364007" lon="11.526808495639134"><ele>332.0</ele><time>2026-04-11T14:19:48.999Z</time></trkpt><trkpt lat="43.009967159099325" lon="11.526817874251375"><ele>332.0</ele><time>2026-04-11T14:19:50.999Z</time></trkpt><trkpt lat="43.01005991274197" lon="11.526835121152923"><ele>332.0</ele><time>2026-04-11T14:19:52.999Z</time></trkpt><trkpt lat="43.01015096109913" lon="11.52684960468888"><ele>332.0</ele><time>2026-04-11T14:19:54.999Z</time></trkpt><trkpt lat="43.010238696356026" lon="11.526860428599212"><ele>332.33333333333337</ele><time>2026-04-11T14:19:56.999Z</time></trkpt><trkpt lat="43.01032301677081" lon="11.526867266010889"><ele>332.6666666666667</ele><time>2026-04-11T14:19:58.998Z</time></trkpt><trkpt lat="43.0104020498183" lon="11.526880578257092"><ele>333.0</ele><time>2026-04-11T14:20:01Z</time></trkpt><trkpt lat="43.010482702611434" lon="11.526888312350835"><ele>333.3333333333333</ele><time>2026-04-11T14:20:03Z</time></trkpt><trkpt lat="43.010562005533174" lon="11.526897496214664"><ele>333.66666666666663</ele><time>2026-04-11T14:20:05Z</time></trkpt><trkpt lat="43.01064168414482" lon="11.526904432006937"><ele>334.0</ele><time>2026-04-11T14:20:07Z</time></trkpt><trkpt lat="43.01072004111506" lon="11.52691823581599"><ele>334.0</ele><time>2026-04-11T14:20:09Z</time></trkpt><trkpt lat="43.01080179020235" lon="11.526928599339117"><ele>334.0</ele><time>2026-04-11T14:20:11Z</time></trkpt><trkpt lat="43.0108803976078" lon="11.526940350537858"><ele>334.0</ele><time>2026-04-11T14:20:13Z</time></trkpt><trkpt lat="43.01095892638235" lon="11.526951158875372"><ele>334.0</ele><time>2026-04-11T14:20:15Z</time></trkpt><trkpt lat="43.01103667115259" lon="11.526961763362108"><ele>334.0</ele><time>2026-04-11T14:20:17Z</time></trkpt><trkpt lat="43.01111429984237" lon="11.526969112132628"><ele>334.0</ele><time>2026-04-11T14:20:19Z</time></trkpt><trkpt lat="43.01118927722915" lon="11.526982392888332"><ele>334.66666666666663</ele><time>2026-04-11T14:20:21Z</time></trkpt><trkpt lat="43.011266493616624" lon="11.52699121831998"><ele>335.3333333333333</ele><time>2026-04-11T14:20:23Z</time></trkpt><trkpt lat="43.01134390930069" lon="11.526998391618196"><ele>336.0</ele><time>2026-04-11T14:20:25Z</time></trkpt><trkpt lat="43.011409915995564" lon="11.526993789117881"><ele>336.6666666666667</ele><time>2026-04-11T14:20:28Z</time></trkpt><trkpt lat="43.011536438303885" lon="11.526988407170583"><ele>337.33333333333337</ele><time>2026-04-11T14:20:32Z</time></trkpt><trkpt lat="43.011614813898454" lon="11.526994640239538"><ele>338.0</ele><time>2026-04-11T14:20:34Z</time></trkpt><trkpt lat="43.01173106567834" lon="11.526997838663764"><ele>339.0</ele><time>2026-04-11T14:20:37Z</time></trkpt><trkpt lat="43.011893476979736" lon="11.52699737191374"><ele>340.0</ele><time>2026-04-11T14:20:41Z</time></trkpt><trkpt lat="43.0119751619927" lon="11.526990813921927"><ele>341.0</ele><time>2026-04-11T14:20:43Z</time></trkpt><trkpt lat="43.012053992887715" lon="11.5269837353243"><ele>342.0</ele><time>2026-04-11T14:20:45Z</time></trkpt><trkpt lat="43.01213989015363" lon="11.52697387211192"><ele>343.0</ele><time>2026-04-11T14:20:47Z</time></trkpt><trkpt lat="43.01221164453428" lon="11.526953862580951"><ele>343.0</ele><time>2026-04-11T14:20:49Z</time></trkpt><trkpt lat="43.012288796319595" lon="11.526928615702332"><ele>343.0</ele><time>2026-04-11T14:20:51Z</time></trkpt><trkpt lat="43.012353389782525" lon="11.526910091789716"><ele>343.0</ele><time>2026-04-11T14:20:53Z</time></trkpt><trkpt lat="43.012445411520176" lon="11.52688501681562"><ele>343.0</ele><time>2026-04-11T14:20:55Z</time></trkpt><trkpt lat="43.01252712027991" lon="11.526862576653707"><ele>343.0</ele><time>2026-04-11T14:20:57Z</time></trkpt><trkpt lat="43.012615710783905" lon="11.526836184957025"><ele>343.0</ele><time>2026-04-11T14:20:59Z</time></trkpt><trkpt lat="43.01270356555269" lon="11.526819523887617"><ele>343.59999999999997</ele><time>2026-04-11T14:21:01Z</time></trkpt><trkpt lat="43.01279454205002" lon="11.52679183950881"><ele>344.2</ele><time>2026-04-11T14:21:03Z</time></trkpt><trkpt lat="43.01288718925858" lon="11.526766147269155"><ele>344.8</ele><time>2026-04-11T14:21:05Z</time></trkpt><trkpt lat="43.01298375142999" lon="11.526754868005455"><ele>345.4</ele><time>2026-04-11T14:21:06.999Z</time></trkpt><trkpt lat="43.01308352497626" lon="11.52674198668679"><ele>346.0</ele><time>2026-04-11T14:21:08.999Z</time></trkpt><trkpt lat="43.01318256965961" lon="11.526733155191293"><ele>346.0</ele><time>2026-04-11T14:21:10.999Z</time></trkpt><trkpt lat="43.013280734611655" lon="11.526732556584674"><ele>346.0</ele><time>2026-04-11T14:21:12.999Z</time></trkpt><trkpt lat="43.01341397088273" lon="11.526745413302327"><ele>346.0</ele><time>2026-04-11T14:21:14.999Z</time></trkpt><trkpt lat="43.01350431898213" lon="11.526737320171112"><ele>346.0</ele><time>2026-04-11T14:21:16.999Z</time></trkpt><trkpt lat="43.013601837728444" lon="11.526723858221933"><ele>346.0</ele><time>2026-04-11T14:21:18.999Z</time></trkpt><trkpt lat="43.01369796270165" lon="11.5267202796979"><ele>346.0</ele><time>2026-04-11T14:21:20.999Z</time></trkpt><trkpt lat="43.013791234088316" lon="11.52672681573595"><ele>346.0</ele><time>2026-04-11T14:21:22.999Z</time></trkpt><trkpt lat="43.01387884720653" lon="11.526721581881455"><ele>346.0</ele><time>2026-04-11T14:21:24.999Z</time></trkpt><trkpt lat="43.01396308879601" lon="11.52670256414032"><ele>346.0</ele><time>2026-04-11T14:21:26.999Z</time></trkpt><trkpt lat="43.01404518368607" lon="11.52666253685584"><ele>346.0</ele><time>2026-04-11T14:21:28.999Z</time></trkpt><trkpt lat="43.01412506868957" lon="11.52660818139404"><ele>346.0</ele><time>2026-04-11T14:21:30.999Z</time></trkpt><trkpt lat="43.01419857821177" lon="11.526539366614099"><ele>346.20000000000005</ele><time>2026-04-11T14:21:32.999Z</time></trkpt><trkpt lat="43.01426194421699" lon="11.526452921958835"><ele>346.40000000000003</ele><time>2026-04-11T14:21:34.999Z</time></trkpt><trkpt lat="43.01432656023591" lon="11.526357669060772"><ele>346.6</ele><time>2026-04-11T14:21:36.999Z</time></trkpt><trkpt lat="43.01438329298567" lon="11.526254711331621"><ele>346.8</ele><time>2026-04-11T14:21:38.999Z</time></trkpt><trkpt lat="43.01443779065042" lon="11.526155062759644"><ele>347.0</ele><time>2026-04-11T14:21:40.999Z</time></trkpt><trkpt lat="43.01449381726059" lon="11.526057753218597"><ele>349.33333333333337</ele><time>2026-04-11T14:21:42.999Z</time></trkpt><trkpt lat="43.01454672015611" lon="11.525963024157825"><ele>351.6666666666667</ele><time>2026-04-11T14:21:44.999Z</time></trkpt><trkpt lat="43.014601427778025" lon="11.525874602879181"><ele>354.0</ele><time>2026-04-11T14:21:46.999Z</time></trkpt><trkpt lat="43.01465968320443" lon="11.52579802358626"><ele>356.3333333333333</ele><time>2026-04-11T14:21:48.999Z</time></trkpt><trkpt lat="43.01472162789502" lon="11.525728730972654"><ele>358.66666666666663</ele><time>2026-04-11T14:21:50.999Z</time></trkpt><trkpt lat="43.01477650464969" lon="11.525662972859207"><ele>361.0</ele><time>2026-04-11T14:21:52.999Z</time></trkpt><trkpt lat="43.01482968494598" lon="11.525605640230127"><ele>361.0</ele><time>2026-04-11T14:21:54.999Z</time></trkpt><trkpt lat="43.01488458447739" lon="11.525554403213158"><ele>361.0</ele><time>2026-04-11T14:21:56.999Z</time></trkpt><trkpt lat="43.01493804447902" lon="11.525503316773182"><ele>361.0</ele><time>2026-04-11T14:21:58.999Z</time></trkpt><trkpt lat="43.01500850124685" lon="11.525428358184662"><ele>361.0</ele><time>2026-04-11T14:22:01.999Z</time></trkpt><trkpt lat="43.01507014854366" lon="11.525348587814827"><ele>361.0</ele><time>2026-04-11T14:22:06Z</time></trkpt><trkpt lat="43.01512755969106" lon="11.525293952874367"><ele>361.0</ele><time>2026-04-11T14:22:09Z</time></trkpt><trkpt lat="43.01519462896574" lon="11.525253776861554"><ele>361.0</ele><time>2026-04-11T14:22:12Z</time></trkpt><trkpt lat="43.0152608242395" lon="11.525204093644593"><ele>361.0</ele><time>2026-04-11T14:22:15Z</time></trkpt><trkpt lat="43.01532270396705" lon="11.525160275515077"><ele>361.0</ele><time>2026-04-11T14:22:18Z</time></trkpt><trkpt lat="43.015387496837256" lon="11.525118918288197"><ele>361.0</ele><time>2026-04-11T14:22:21Z</time></trkpt><trkpt lat="43.01546125613233" lon="11.52506732138072"><ele>361.0</ele><time>2026-04-11T14:22:25Z</time></trkpt><trkpt lat="43.01552731256513" lon="11.525029531849645"><ele>361.0</ele><time>2026-04-11T14:22:28Z</time></trkpt><trkpt lat="43.015598352117365" lon="11.524983960714518"><ele>361.0</ele><time>2026-04-11T14:22:31Z</time></trkpt><trkpt lat="43.0156713902553" lon="11.52493040819006"><ele>361.0</ele><time>2026-04-11T14:22:34Z</time></trkpt><trkpt lat="43.015683839687355" lon="11.524825938638552"><ele>361.0</ele><time>2026-04-11T14:22:38Z</time></trkpt><trkpt lat="43.0159453288072" lon="11.524671983402927"><ele>361.0</ele><time>2026-04-11T14:22:40Z</time></trkpt><trkpt lat="43.01599581410317" lon="11.524564267837828"><ele>362.6</ele><time>2026-04-11T14:22:42Z</time></trkpt><trkpt lat="43.01605062969127" lon="11.524444868086201"><ele>364.20000000000005</ele><time>2026-04-11T14:22:44Z</time></trkpt><trkpt lat="43.01610878741288" lon="11.524319767416884"><ele>365.79999999999995</ele><time>2026-04-11T14:22:46Z</time></trkpt><trkpt lat="43.016163428768586" lon="11.524191012128398"><ele>367.4</ele><time>2026-04-11T14:22:48Z</time></trkpt><trkpt lat="43.01621486735845" lon="11.524065075004863"><ele>369.0</ele><time>2026-04-11T14:22:50Z</time></trkpt><trkpt lat="43.01626804691878" lon="11.523942515857748"><ele>369.0</ele><time>2026-04-11T14:22:52Z</time></trkpt><trkpt lat="43.01632038507908" lon="11.523820409148131"><ele>369.0</ele><time>2026-04-11T14:22:54Z</time></trkpt><trkpt lat="43.01637436559103" lon="11.523708280360248"><ele>369.0</ele><time>2026-04-11T14:22:56Z</time></trkpt><trkpt lat="43.016420502797075" lon="11.523607568362463"><ele>369.0</ele><time>2026-04-11T14:22:58Z</time></trkpt><trkpt lat="43.0164720975892" lon="11.523505623121759"><ele>369.0</ele><time>2026-04-11T14:23:00Z</time></trkpt><trkpt lat="43.016531932961676" lon="11.523429374015262"><ele>367.8333333333333</ele><time>2026-04-11T14:23:02Z</time></trkpt><trkpt lat="43.01658330089538" lon="11.523357980336911"><ele>366.6666666666667</ele><time>2026-04-11T14:23:04Z</time></trkpt><trkpt lat="43.016640517081214" lon="11.523246606245854"><ele>365.5</ele><time>2026-04-11T14:23:07Z</time></trkpt><trkpt lat="43.016701379855135" lon="11.52315633146366"><ele>364.33333333333337</ele><time>2026-04-11T14:23:10Z</time></trkpt><trkpt lat="43.016760482263884" lon="11.523072210422328"><ele>363.1666666666667</ele><time>2026-04-11T14:23:12.999Z</time></trkpt><trkpt lat="43.016824743999344" lon="11.522993598266336"><ele>362.0</ele><time>2026-04-11T14:23:15.999Z</time></trkpt><trkpt lat="43.01687266534006" lon="11.52291865162002"><ele>363.6666666666667</ele><time>2026-04-11T14:23:18.999Z</time></trkpt><trkpt lat="43.01694471165497" lon="11.522845406434115"><ele>365.33333333333337</ele><time>2026-04-11T14:23:21.998Z</time></trkpt><trkpt lat="43.017000252757754" lon="11.522793757663429"><ele>367.0</ele><time>2026-04-11T14:23:23.998Z</time></trkpt><trkpt lat="43.01706392504175" lon="11.522755490720451"><ele>368.6666666666667</ele><time>2026-04-11T14:23:25.998Z</time></trkpt><trkpt lat="43.01713189402825" lon="11.522698898638678"><ele>370.3333333333333</ele><time>2026-04-11T14:23:27.998Z</time></trkpt><trkpt lat="43.017203418960484" lon="11.522659828674302"><ele>372.0</ele><time>2026-04-11T14:23:28.998Z</time></trkpt><trkpt lat="43.01727261881846" lon="11.522613223076759"><ele>372.00000000000006</ele><time>2026-04-11T14:23:30.998Z</time></trkpt><trkpt lat="43.017341229100346" lon="11.522566904039936"><ele>372.0</ele><time>2026-04-11T14:23:32.998Z</time></trkpt><trkpt lat="43.01740553723363" lon="11.522520161403383"><ele>372.0</ele><time>2026-04-11T14:23:34.998Z</time></trkpt><trkpt lat="43.01746222835405" lon="11.522474562350228"><ele>372.0</ele><time>2026-04-11T14:23:36.998Z</time></trkpt><trkpt lat="43.01753250655213" lon="11.522414209876684"><ele>372.0</ele><time>2026-04-11T14:23:39.998Z</time></trkpt><trkpt lat="43.01759087904503" lon="11.52235515774297"><ele>372.00000000000006</ele><time>2026-04-11T14:23:42.998Z</time></trkpt><trkpt lat="43.017655506060684" lon="11.52230349633703"><ele>372.0</ele><time>2026-04-11T14:23:46.998Z</time></trkpt><trkpt lat="43.01771113595848" lon="11.522249265317814"><ele>371.0</ele><time>2026-04-11T14:23:49.998Z</time></trkpt><trkpt lat="43.01776870981864" lon="11.522189750466703"><ele>370.0</ele><time>2026-04-11T14:23:52.998Z</time></trkpt><trkpt lat="43.01782190874254" lon="11.52211020954688"><ele>369.0</ele><time>2026-04-11T14:23:55.998Z</time></trkpt><trkpt lat="43.01787600451471" lon="11.522053104835496"><ele>368.0</ele><time>2026-04-11T14:23:58.998Z</time></trkpt><trkpt lat="43.017932976001084" lon="11.52197277812661"><ele>367.0</ele><time>2026-04-11T14:24:01.998Z</time></trkpt><trkpt lat="43.01798117362293" lon="11.521897754096738"><ele>366.0</ele><time>2026-04-11T14:24:04.998Z</time></trkpt><trkpt lat="43.018038827474165" lon="11.521810696588185"><ele>367.2857142857143</ele><time>2026-04-11T14:24:07.998Z</time></trkpt><trkpt lat="43.01808114385927" lon="11.521740413922823"><ele>368.57142857142856</ele><time>2026-04-11T14:24:10.998Z</time></trkpt><trkpt lat="43.01813330236044" lon="11.521683924117855"><ele>369.8571428571429</ele><time>2026-04-11T14:24:13.999Z</time></trkpt><trkpt lat="43.01820400867271" lon="11.521629199188435"><ele>371.1428571428571</ele><time>2026-04-11T14:24:17.999Z</time></trkpt><trkpt lat="43.01825853134136" lon="11.521579328334864"><ele>372.4285714285714</ele><time>2026-04-11T14:24:20.999Z</time></trkpt><trkpt lat="43.01831472110509" lon="11.5215258609336"><ele>373.7142857142857</ele><time>2026-04-11T14:24:23.999Z</time></trkpt><trkpt lat="43.01838869488784" lon="11.521470401472405"><ele>375.0</ele><time>2026-04-11T14:24:27.999Z</time></trkpt><trkpt lat="43.018460439146466" lon="11.521431841736081"><ele>375.0</ele><time>2026-04-11T14:24:30.999Z</time></trkpt><trkpt lat="43.01852033690526" lon="11.521395727106771"><ele>375.0</ele><time>2026-04-11T14:24:32.999Z</time></trkpt><trkpt lat="43.01858957197362" lon="11.521354351784243"><ele>375.0</ele><time>2026-04-11T14:24:35.999Z</time></trkpt><trkpt lat="43.018668569399026" lon="11.521307363120862"><ele>375.0</ele><time>2026-04-11T14:24:39.999Z</time></trkpt><trkpt lat="43.01873917811714" lon="11.521258856296638"><ele>375.0</ele><time>2026-04-11T14:24:42.999Z</time></trkpt><trkpt lat="43.01885157479049" lon="11.521194621001712"><ele>375.0</ele><time>2026-04-11T14:24:45.999Z</time></trkpt><trkpt lat="43.0189340045646" lon="11.521143574574413"><ele>376.14285714285717</ele><time>2026-04-11T14:24:48.999Z</time></trkpt><trkpt lat="43.01900188884843" lon="11.521102451119159"><ele>377.2857142857143</ele><time>2026-04-11T14:24:50.999Z</time></trkpt><trkpt lat="43.01906984130114" lon="11.521063510830626"><ele>378.42857142857144</ele><time>2026-04-11T14:24:52.999Z</time></trkpt><trkpt lat="43.01913693852095" lon="11.521028902392661"><ele>379.57142857142856</ele><time>2026-04-11T14:24:54.999Z</time></trkpt><trkpt lat="43.01919794063617" lon="11.520992262967146"><ele>380.71428571428567</ele><time>2026-04-11T14:24:56.999Z</time></trkpt><trkpt lat="43.019260121887925" lon="11.52096082699112"><ele>381.85714285714283</ele><time>2026-04-11T14:24:58.999Z</time></trkpt><trkpt lat="43.019321209102145" lon="11.520922715902152"><ele>383.0</ele><time>2026-04-11T14:25:00.999Z</time></trkpt><trkpt lat="43.01938293487083" lon="11.520879538432945"><ele>383.0</ele><time>2026-04-11T14:25:02.999Z</time></trkpt><trkpt lat="43.019447335559484" lon="11.520842780324205"><ele>383.0</ele><time>2026-04-11T14:25:04.999Z</time></trkpt><trkpt lat="43.0195138510359" lon="11.520811728187281"><ele>383.0</ele><time>2026-04-11T14:25:06.999Z</time></trkpt><trkpt lat="43.0195774360855" lon="11.520771799468253"><ele>383.0</ele><time>2026-04-11T14:25:08.999Z</time></trkpt><trkpt lat="43.01964063015403" lon="11.520734115931896"><ele>383.0</ele><time>2026-04-11T14:25:10.999Z</time></trkpt><trkpt lat="43.01969823987181" lon="11.520692229991065"><ele>383.0</ele><time>2026-04-11T14:25:12.999Z</time></trkpt><trkpt lat="43.01978615647309" lon="11.520645085560231"><ele>383.0</ele><time>2026-04-11T14:25:15.999Z</time></trkpt><trkpt lat="43.019849154904136" lon="11.52061448906907"><ele>383.0</ele><time>2026-04-11T14:25:17.999Z</time></trkpt><trkpt lat="43.01991211991292" lon="11.520579749498683"><ele>383.0</ele><time>2026-04-11T14:25:19.999Z</time></trkpt><trkpt lat="43.01997336135954" lon="11.520546352049093"><ele>383.0</ele><time>2026-04-11T14:25:21.999Z</time></trkpt><trkpt lat="43.02003723435399" lon="11.520513220109725"><ele>383.0</ele><time>2026-04-11T14:25:23.999Z</time></trkpt><trkpt lat="43.020100068485675" lon="11.520470041521744"><ele>383.0</ele><time>2026-04-11T14:25:25.999Z</time></trkpt><trkpt lat="43.02015861675857" lon="11.520425688426934"><ele>383.0</ele><time>2026-04-11T14:25:27.999Z</time></trkpt><trkpt lat="43.020230984414304" lon="11.52034482043644"><ele>383.0</ele><time>2026-04-11T14:25:30.998Z</time></trkpt><trkpt lat="43.020276363710906" lon="11.520282606574968"><ele>383.7142857142857</ele><time>2026-04-11T14:25:32.998Z</time></trkpt><trkpt lat="43.02031450700714" lon="11.520211641426313"><ele>384.42857142857144</ele><time>2026-04-11T14:25:34.998Z</time></trkpt><trkpt lat="43.02035665707574" lon="11.520139933382843"><ele>385.1428571428571</ele><time>2026-04-11T14:25:36.998Z</time></trkpt><trkpt lat="43.020395890922934" lon="11.520068446067945"><ele>385.8571428571429</ele><time>2026-04-11T14:25:38.998Z</time></trkpt><trkpt lat="43.02044539625586" lon="11.519994602527538"><ele>386.5714285714286</ele><time>2026-04-11T14:25:40.998Z</time></trkpt><trkpt lat="43.0204763484634" lon="11.519909559769628"><ele>387.2857142857143</ele><time>2026-04-11T14:25:42.998Z</time></trkpt><trkpt lat="43.020524092431444" lon="11.519825466599983"><ele>388.0</ele><time>2026-04-11T14:25:44.998Z</time></trkpt><trkpt lat="43.020575240394855" lon="11.519734229847899"><ele>388.0</ele><time>2026-04-11T14:25:46.998Z</time></trkpt><trkpt lat="43.020624315346325" lon="11.519630829980247"><ele>388.0</ele><time>2026-04-11T14:25:48.998Z</time></trkpt><trkpt lat="43.02067098205306" lon="11.519522594715413"><ele>388.0</ele><time>2026-04-11T14:25:50.998Z</time></trkpt><trkpt lat="43.02072184674454" lon="11.519413887772568"><ele>388.0</ele><time>2026-04-11T14:25:52.998Z</time></trkpt><trkpt lat="43.02078090472467" lon="11.519305353708962"><ele>388.0</ele><time>2026-04-11T14:25:54.998Z</time></trkpt><trkpt lat="43.02083635434581" lon="11.519185737607664"><ele>387.79999999999995</ele><time>2026-04-11T14:25:56.998Z</time></trkpt><trkpt lat="43.020893580320596" lon="11.519068892975284"><ele>387.6</ele><time>2026-04-11T14:25:58.998Z</time></trkpt><trkpt lat="43.02094859572044" lon="11.518948801067566"><ele>387.4</ele><time>2026-04-11T14:26:00.998Z</time></trkpt><trkpt lat="43.021005195503776" lon="11.51883492178835"><ele>387.20000000000005</ele><time>2026-04-11T14:26:02.998Z</time></trkpt><trkpt lat="43.02105528008772" lon="11.518719251643715"><ele>387.0</ele><time>2026-04-11T14:26:04.998Z</time></trkpt><trkpt lat="43.021118140817926" lon="11.518617206162661"><ele>387.0</ele><time>2026-04-11T14:26:06.998Z</time></trkpt><trkpt lat="43.02117044128882" lon="11.518510063126197"><ele>387.0</ele><time>2026-04-11T14:26:08.998Z</time></trkpt><trkpt lat="43.02121924137782" lon="11.518402587503173"><ele>387.0</ele><time>2026-04-11T14:26:10.998Z</time></trkpt><trkpt lat="43.02126903353104" lon="11.518283707569719"><ele>387.0</ele><time>2026-04-11T14:26:12.998Z</time></trkpt><trkpt lat="43.02132704114479" lon="11.518161354459025"><ele>387.0</ele><time>2026-04-11T14:26:14.998Z</time></trkpt><trkpt lat="43.02138360425228" lon="11.518030742166877"><ele>387.6666666666667</ele><time>2026-04-11T14:26:16.998Z</time></trkpt><trkpt lat="43.02145974709421" lon="11.517899079388291"><ele>388.33333333333337</ele><time>2026-04-11T14:26:18.999Z</time></trkpt><trkpt lat="43.02150790350784" lon="11.517840372092833"><ele>389.0</ele><time>2026-04-11T14:26:19.999Z</time></trkpt><trkpt lat="43.02156090473573" lon="11.517783567424129"><ele>389.6666666666667</ele><time>2026-04-11T14:26:20.999Z</time></trkpt><trkpt lat="43.02161739247834" lon="11.517732853945654"><ele>390.33333333333337</ele><time>2026-04-11T14:26:21.999Z</time></trkpt><trkpt lat="43.021677902129504" lon="11.517681911440754"><ele>391.0</ele><time>2026-04-11T14:26:22.999Z</time></trkpt><trkpt lat="43.02174120657126" lon="11.51762846301212"><ele>388.6666666666667</ele><time>2026-04-11T14:26:23.999Z</time></trkpt><trkpt lat="43.02180371351078" lon="11.517572352217849"><ele>386.33333333333337</ele><time>2026-04-11T14:26:24.999Z</time></trkpt><trkpt lat="43.02186809272057" lon="11.517515702562141"><ele>384.0</ele><time>2026-04-11T14:26:25.999Z</time></trkpt><trkpt lat="43.02193602973478" lon="11.517458642505112"><ele>381.6666666666667</ele><time>2026-04-11T14:26:27Z</time></trkpt><trkpt lat="43.022002200826556" lon="11.517403042254188"><ele>379.33333333333337</ele><time>2026-04-11T14:26:27.999Z</time></trkpt><trkpt lat="43.022073189848676" lon="11.517345417584753"><ele>377.0</ele><time>2026-04-11T14:26:28.999Z</time></trkpt><trkpt lat="43.02214247969215" lon="11.517292281995097"><ele>377.0</ele><time>2026-04-11T14:26:29.999Z</time></trkpt><trkpt lat="43.02220553137815" lon="11.517232594580529"><ele>377.0</ele><time>2026-04-11T14:26:30.999Z</time></trkpt><trkpt lat="43.02226724066316" lon="11.517175724138474"><ele>377.0</ele><time>2026-04-11T14:26:31.999Z</time></trkpt><trkpt lat="43.02232287124342" lon="11.517117429535425"><ele>377.0</ele><time>2026-04-11T14:26:32.999Z</time></trkpt><trkpt lat="43.02241150659686" lon="11.51701173589511"><ele>377.0</ele><time>2026-04-11T14:26:34.999Z</time></trkpt><trkpt lat="43.0224562981454" lon="11.516903187441079"><ele>377.0</ele><time>2026-04-11T14:26:36.999Z</time></trkpt><trkpt lat="43.022486586640404" lon="11.516817237107443"><ele>377.1428571428571</ele><time>2026-04-11T14:26:38.999Z</time></trkpt><trkpt lat="43.02249741289752" lon="11.516704462155747"><ele>377.2857142857143</ele><time>2026-04-11T14:26:41.999Z</time></trkpt><trkpt lat="43.02250199910459" lon="11.516606816079962"><ele>377.42857142857144</ele><time>2026-04-11T14:26:44.999Z</time></trkpt><trkpt lat="43.02249836549943" lon="11.516509088018982"><ele>377.57142857142856</ele><time>2026-04-11T14:26:47.999Z</time></trkpt><trkpt lat="43.02250115553472" lon="11.51641863145028"><ele>377.7142857142857</ele><time>2026-04-11T14:26:50.999Z</time></trkpt><trkpt lat="43.0225016084044" lon="11.516331136585803"><ele>377.85714285714283</ele><time>2026-04-11T14:26:53.999Z</time></trkpt><trkpt lat="43.02250344238356" lon="11.516237545824348"><ele>378.0</ele><time>2026-04-11T14:26:56.999Z</time></trkpt><trkpt lat="43.0225026921817" lon="11.516150689202814"><ele>378.85714285714283</ele><time>2026-04-11T14:26:59.999Z</time></trkpt><trkpt lat="43.02250190115431" lon="11.516057723870126"><ele>379.7142857142857</ele><time>2026-04-11T14:27:02.999Z</time></trkpt><trkpt lat="43.022500060122574" lon="11.515950315751367"><ele>380.57142857142856</ele><time>2026-04-11T14:27:06.999Z</time></trkpt><trkpt lat="43.02249634599758" lon="11.515862326958977"><ele>381.42857142857144</ele><time>2026-04-11T14:27:09.999Z</time></trkpt><trkpt lat="43.02249427560556" lon="11.51576988574707"><ele>382.2857142857143</ele><time>2026-04-11T14:27:12.999Z</time></trkpt><trkpt lat="43.022498884807455" lon="11.515683759799197"><ele>383.1428571428571</ele><time>2026-04-11T14:27:15.999Z</time></trkpt><trkpt lat="43.022491817841484" lon="11.51559770658879"><ele>384.0</ele><time>2026-04-11T14:27:18.999Z</time></trkpt><trkpt lat="43.02250133162499" lon="11.515485621301867"><ele>384.6666666666667</ele><time>2026-04-11T14:27:22.999Z</time></trkpt><trkpt lat="43.02250800231403" lon="11.515372664401065"><ele>385.33333333333337</ele><time>2026-04-11T14:27:26.999Z</time></trkpt><trkpt lat="43.022513156349405" lon="11.515260694430522"><ele>386.0</ele><time>2026-04-11T14:27:30.999Z</time></trkpt><trkpt lat="43.02252771469849" lon="11.515144153234733"><ele>386.6666666666667</ele><time>2026-04-11T14:27:34.998Z</time></trkpt><trkpt lat="43.02254984210765" lon="11.515039904723407"><ele>387.33333333333337</ele><time>2026-04-11T14:27:38.998Z</time></trkpt><trkpt lat="43.02257288175933" lon="11.514952774237633"><ele>388.0</ele><time>2026-04-11T14:27:41.998Z</time></trkpt><trkpt lat="43.02259784026933" lon="11.51487009569413"><ele>388.0</ele><time>2026-04-11T14:27:44.998Z</time></trkpt><trkpt lat="43.02262945038193" lon="11.514784769405418"><ele>388.0</ele><time>2026-04-11T14:27:48.998Z</time></trkpt><trkpt lat="43.022650249433234" lon="11.514683553765774"><ele>388.0</ele><time>2026-04-11T14:27:52.998Z</time></trkpt><trkpt lat="43.02268756324965" lon="11.514602967611124"><ele>388.0</ele><time>2026-04-11T14:27:56.998Z</time></trkpt><trkpt lat="43.02273208890599" lon="11.514525244762297"><ele>388.0</ele><time>2026-04-11T14:28:00.998Z</time></trkpt><trkpt lat="43.02276705021567" lon="11.51444350459711"><ele>388.0</ele><time>2026-04-11T14:28:03.998Z</time></trkpt><trkpt lat="43.022801948604" lon="11.514344269170413"><ele>388.0</ele><time>2026-04-11T14:28:08.998Z</time></trkpt><trkpt lat="43.02285168872364" lon="11.51425317749341"><ele>388.7142857142857</ele><time>2026-04-11T14:28:13.998Z</time></trkpt><trkpt lat="43.02287223249864" lon="11.514164768140102"><ele>389.42857142857144</ele><time>2026-04-11T14:28:17.998Z</time></trkpt><trkpt lat="43.02291300418964" lon="11.514078785622216"><ele>390.14285714285717</ele><time>2026-04-11T14:28:21.998Z</time></trkpt><trkpt lat="43.02295569208911" lon="11.514007909698375"><ele>390.8571428571429</ele><time>2026-04-11T14:28:25.999Z</time></trkpt><trkpt lat="43.023012510223246" lon="11.513937023146921"><ele>391.57142857142856</ele><time>2026-04-11T14:28:29.999Z</time></trkpt><trkpt lat="43.02307819778072" lon="11.513875277186965"><ele>392.28571428571433</ele><time>2026-04-11T14:28:33.999Z</time></trkpt><trkpt lat="43.02313990241381" lon="11.513827207824278"><ele>393.0</ele><time>2026-04-11T14:28:36.999Z</time></trkpt><trkpt lat="43.02320437132956" lon="11.513779968457397"><ele>393.8571428571429</ele><time>2026-04-11T14:28:40.999Z</time></trkpt><trkpt lat="43.02326188402388" lon="11.513737362611705"><ele>394.7142857142857</ele><time>2026-04-11T14:28:43.999Z</time></trkpt><trkpt lat="43.023328014905125" lon="11.513698358734805"><ele>395.57142857142856</ele><time>2026-04-11T14:28:46.999Z</time></trkpt><trkpt lat="43.02339431568117" lon="11.51366308395692"><ele>396.42857142857144</ele><time>2026-04-11T14:28:50.999Z</time></trkpt><trkpt lat="43.023449515177035" lon="11.513620191375608"><ele>397.2857142857143</ele><time>2026-04-11T14:28:53.999Z</time></trkpt><trkpt lat="43.023527690966205" lon="11.513573552132335"><ele>398.14285714285717</ele><time>2026-04-11T14:28:57.999Z</time></trkpt><trkpt lat="43.02360219846363" lon="11.513523472039143"><ele>399.0</ele><time>2026-04-11T14:29:01.999Z</time></trkpt><trkpt lat="43.02365930264045" lon="11.513478225938035"><ele>399.0</ele><time>2026-04-11T14:29:04.999Z</time></trkpt><trkpt lat="43.02372454958763" lon="11.513425273331837"><ele>399.0</ele><time>2026-04-11T14:29:07.999Z</time></trkpt><trkpt lat="43.02379563776674" lon="11.513383575881175"><ele>399.0</ele><time>2026-04-11T14:29:11.999Z</time></trkpt><trkpt lat="43.02385553578268" lon="11.513348711688296"><ele>399.0</ele><time>2026-04-11T14:29:14.999Z</time></trkpt><trkpt lat="43.02391494966767" lon="11.513312840075043"><ele>399.0</ele><time>2026-04-11T14:29:17.999Z</time></trkpt><trkpt lat="43.023974732464985" lon="11.513276303885124"><ele>399.0</ele><time>2026-04-11T14:29:20.999Z</time></trkpt><trkpt lat="43.02403484783089" lon="11.513235957885737"><ele>399.0</ele><time>2026-04-11T14:29:23.999Z</time></trkpt><trkpt lat="43.02409835767241" lon="11.513194867289227"><ele>400.2857142857143</ele><time>2026-04-11T14:29:26.999Z</time></trkpt><trkpt lat="43.02416811719239" lon="11.513147862998018"><ele>401.57142857142856</ele><time>2026-04-11T14:29:29.999Z</time></trkpt><trkpt lat="43.02422990455302" lon="11.513106296846528"><ele>402.8571428571429</ele><time>2026-04-11T14:29:32.999Z</time></trkpt><trkpt lat="43.02429465157983" lon="11.51306093297083"><ele>404.1428571428571</ele><time>2026-04-11T14:29:35.999Z</time></trkpt><trkpt lat="43.024356698551905" lon="11.513021676311395"><ele>405.42857142857144</ele><time>2026-04-11T14:29:38.999Z</time></trkpt><trkpt lat="43.024421164911836" lon="11.512969853158753"><ele>406.7142857142857</ele><time>2026-04-11T14:29:41.999Z</time></trkpt><trkpt lat="43.02449181526269" lon="11.512922492801334"><ele>408.0</ele><time>2026-04-11T14:29:43.999Z</time></trkpt><trkpt lat="43.02455541794741" lon="11.512886376607213"><ele>408.0</ele><time>2026-04-11T14:29:46.998Z</time></trkpt><trkpt lat="43.02461972311536" lon="11.512835509321567"><ele>408.0</ele><time>2026-04-11T14:29:49.998Z</time></trkpt><trkpt lat="43.02469220655915" lon="11.512790377459844"><ele>408.0</ele><time>2026-04-11T14:29:52.998Z</time></trkpt><trkpt lat="43.02476839399829" lon="11.512747150542825"><ele>408.0</ele><time>2026-04-11T14:29:55.998Z</time></trkpt><trkpt lat="43.0248437830982" lon="11.51270452562789"><ele>408.0</ele><time>2026-04-11T14:29:58.998Z</time></trkpt><trkpt lat="43.02491862497083" lon="11.512657335565669"><ele>408.0</ele><time>2026-04-11T14:30:01.998Z</time></trkpt><trkpt lat="43.024988660092184" lon="11.512602008106077"><ele>409.1666666666667</ele><time>2026-04-11T14:30:04.998Z</time></trkpt><trkpt lat="43.02505656963411" lon="11.512549670667159"><ele>410.33333333333337</ele><time>2026-04-11T14:30:07.998Z</time></trkpt><trkpt lat="43.025130400573964" lon="11.5124916097453"><ele>411.5</ele><time>2026-04-11T14:30:10.998Z</time></trkpt><trkpt lat="43.02518665511669" lon="11.51243157984907"><ele>412.6666666666667</ele><time>2026-04-11T14:30:13.998Z</time></trkpt><trkpt lat="43.02524641755962" lon="11.512364370422665"><ele>413.83333333333337</ele><time>2026-04-11T14:30:16.998Z</time></trkpt><trkpt lat="43.02530913923868" lon="11.512304057231095"><ele>415.0</ele><time>2026-04-11T14:30:19.998Z</time></trkpt><trkpt lat="43.02537011335345" lon="11.512241394181363"><ele>415.00000000000006</ele><time>2026-04-11T14:30:22.998Z</time></trkpt><trkpt lat="43.02542633567329" lon="11.512170328997545"><ele>415.0</ele><time>2026-04-11T14:30:24.998Z</time></trkpt><trkpt lat="43.025480918991136" lon="11.512105670489538"><ele>415.0</ele><time>2026-04-11T14:30:27.998Z</time></trkpt><trkpt lat="43.02553923587222" lon="11.512040186954406"><ele>415.0</ele><time>2026-04-11T14:30:31Z</time></trkpt><trkpt lat="43.02559740716292" lon="11.511971765691714"><ele>415.00000000000006</ele><time>2026-04-11T14:30:34Z</time></trkpt><trkpt lat="43.02565301149297" lon="11.51190194352805"><ele>415.0</ele><time>2026-04-11T14:30:37Z</time></trkpt><trkpt lat="43.02571434811891" lon="11.51183858269504"><ele>415.00000000000006</ele><time>2026-04-11T14:30:40Z</time></trkpt><trkpt lat="43.025784327499075" lon="11.51177230987478"><ele>415.0</ele><time>2026-04-11T14:30:43Z</time></trkpt><trkpt lat="43.025854337238606" lon="11.511725416684449"><ele>415.0</ele><time>2026-04-11T14:30:46Z</time></trkpt><trkpt lat="43.02592655017644" lon="11.511691789692607"><ele>415.0</ele><time>2026-04-11T14:30:48.999Z</time></trkpt><trkpt lat="43.025997635423984" lon="11.511666106699963"><ele>415.00000000000006</ele><time>2026-04-11T14:30:51.999Z</time></trkpt><trkpt lat="43.02607214116629" lon="11.511649069402441"><ele>415.0</ele><time>2026-04-11T14:30:54.999Z</time></trkpt><trkpt lat="43.02614588412131" lon="11.511623068559054"><ele>415.50000000000006</ele><time>2026-04-11T14:30:57.999Z</time></trkpt><trkpt lat="43.026218970731634" lon="11.511602729323384"><ele>416.0</ele><time>2026-04-11T14:31:00.999Z</time></trkpt><trkpt lat="43.02629062459122" lon="11.511587960148265"><ele>416.5</ele><time>2026-04-11T14:31:03.999Z</time></trkpt><trkpt lat="43.02636528168198" lon="11.511569410008118"><ele>417.0</ele><time>2026-04-11T14:31:06.999Z</time></trkpt><trkpt lat="43.0264430269708" lon="11.511556267383797"><ele>417.50000000000006</ele><time>2026-04-11T14:31:09.999Z</time></trkpt><trkpt lat="43.026518690003094" lon="11.5115319800734"><ele>418.0</ele><time>2026-04-11T14:31:12.999Z</time></trkpt><trkpt lat="43.02659018815567" lon="11.511514993113565"><ele>418.50000000000006</ele><time>2026-04-11T14:31:15.999Z</time></trkpt><trkpt lat="43.02666759747847" lon="11.511502593995184"><ele>419.0</ele><time>2026-04-11T14:31:18.999Z</time></trkpt><trkpt lat="43.026742514469206" lon="11.511472759364553"><ele>419.5</ele><time>2026-04-11T14:31:21.999Z</time></trkpt><trkpt lat="43.026816747353166" lon="11.51142863848393"><ele>420.0</ele><time>2026-04-11T14:31:24.999Z</time></trkpt><trkpt lat="43.02688523492561" lon="11.511358138088722"><ele>420.50000000000006</ele><time>2026-04-11T14:31:27.999Z</time></trkpt><trkpt lat="43.026934719544194" lon="11.511262766048608"><ele>421.0</ele><time>2026-04-11T14:31:30.999Z</time></trkpt><trkpt lat="43.026975308347374" lon="11.51115976572608"><ele>421.00000000000006</ele><time>2026-04-11T14:31:33.999Z</time></trkpt><trkpt lat="43.02699959344039" lon="11.511051226446057"><ele>421.0</ele><time>2026-04-11T14:31:36.999Z</time></trkpt><trkpt lat="43.02703696150655" lon="11.51095197143857"><ele>421.0</ele><time>2026-04-11T14:31:39.999Z</time></trkpt><trkpt lat="43.027087393166454" lon="11.510858590261101"><ele>421.0</ele><time>2026-04-11T14:31:42.999Z</time></trkpt><trkpt lat="43.02714182178936" lon="11.510768705774348"><ele>421.00000000000006</ele><time>2026-04-11T14:31:45.999Z</time></trkpt><trkpt lat="43.02719983826586" lon="11.510680330976001"><ele>421.0</ele><time>2026-04-11T14:31:48.999Z</time></trkpt><trkpt lat="43.02727197347104" lon="11.510617024704068"><ele>421.00000000000006</ele><time>2026-04-11T14:31:51.999Z</time></trkpt><trkpt lat="43.02734315648517" lon="11.510547545067537"><ele>421.0</ele><time>2026-04-11T14:31:54.998Z</time></trkpt><trkpt lat="43.0274168400155" lon="11.510482434719203"><ele>421.0</ele><time>2026-04-11T14:31:57.998Z</time></trkpt><trkpt lat="43.027490595652964" lon="11.510420382890487"><ele>421.0</ele><time>2026-04-11T14:32:00.998Z</time></trkpt><trkpt lat="43.02755854414056" lon="11.510354016381914"><ele>421.00000000000006</ele><time>2026-04-11T14:32:03.998Z</time></trkpt><trkpt lat="43.02761612492134" lon="11.510291362724884"><ele>421.0</ele><time>2026-04-11T14:32:06.998Z</time></trkpt><trkpt lat="43.02768294128611" lon="11.510234669276397"><ele>422.50000000000006</ele><time>2026-04-11T14:32:09.998Z</time></trkpt><trkpt lat="43.027740859964844" lon="11.51015187307976"><ele>424.0</ele><time>2026-04-11T14:32:12.998Z</time></trkpt><trkpt lat="43.027806562043054" lon="11.510078016110173"><ele>425.5</ele><time>2026-04-11T14:32:15.998Z</time></trkpt><trkpt lat="43.02786902805081" lon="11.509999533451492"><ele>427.0</ele><time>2026-04-11T14:32:18.998Z</time></trkpt><trkpt lat="43.02792524384134" lon="11.50991636021922"><ele>428.50000000000006</ele><time>2026-04-11T14:32:21.998Z</time></trkpt><trkpt lat="43.027973162147404" lon="11.509824252183183"><ele>430.0</ele><time>2026-04-11T14:32:24.998Z</time></trkpt><trkpt lat="43.02802558621546" lon="11.50974034791736"><ele>430.00000000000006</ele><time>2026-04-11T14:32:27.998Z</time></trkpt><trkpt lat="43.028067546980466" lon="11.509665752208507"><ele>430.0</ele><time>2026-04-11T14:32:31.998Z</time></trkpt><trkpt lat="43.0281227162914" lon="11.5095844381906"><ele>430.0</ele><time>2026-04-11T14:32:36Z</time></trkpt><trkpt lat="43.028169585997" lon="11.509494346199833"><ele>430.0</ele><time>2026-04-11T14:32:39Z</time></trkpt><trkpt lat="43.02823176097971" lon="11.50941049942772"><ele>430.00000000000006</ele><time>2026-04-11T14:32:42Z</time></trkpt><trkpt lat="43.02830463805618" lon="11.509353002408536"><ele>430.0</ele><time>2026-04-11T14:32:45Z</time></trkpt><trkpt lat="43.02836302733274" lon="11.509296293861246"><ele>431.33333333333337</ele><time>2026-04-11T14:32:48Z</time></trkpt><trkpt lat="43.028423933658324" lon="11.509243115149658"><ele>432.6666666666667</ele><time>2026-04-11T14:32:51Z</time></trkpt><trkpt lat="43.028489490255446" lon="11.509182782912996"><ele>434.0</ele><time>2026-04-11T14:32:54Z</time></trkpt><trkpt lat="43.02855247793801" lon="11.50913164635582"><ele>435.33333333333337</ele><time>2026-04-11T14:32:56Z</time></trkpt><trkpt lat="43.02861869507372" lon="11.509077996084045"><ele>436.6666666666667</ele><time>2026-04-11T14:32:58.999Z</time></trkpt><trkpt lat="43.028683999656785" lon="11.509025069333783"><ele>438.0</ele><time>2026-04-11T14:33:01.999Z</time></trkpt><trkpt lat="43.02874938491807" lon="11.508982980582568"><ele>438.0</ele><time>2026-04-11T14:33:03.999Z</time></trkpt><trkpt lat="43.02881527991282" lon="11.508944962914109"><ele>438.0</ele><time>2026-04-11T14:33:06.999Z</time></trkpt><trkpt lat="43.028883653524694" lon="11.508898502990744"><ele>438.0</ele><time>2026-04-11T14:33:09.999Z</time></trkpt><trkpt lat="43.02895031010271" lon="11.508839381315104"><ele>438.0</ele><time>2026-04-11T14:33:12.999Z</time></trkpt><trkpt lat="43.02902517383518" lon="11.508785434081618"><ele>438.0</ele><time>2026-04-11T14:33:15.999Z</time></trkpt><trkpt lat="43.02909889399351" lon="11.508729502762758"><ele>438.0</ele><time>2026-04-11T14:33:18.999Z</time></trkpt><trkpt lat="43.0291760484434" lon="11.508669873497766"><ele>438.0</ele><time>2026-04-11T14:33:21.999Z</time></trkpt><trkpt lat="43.029252665072384" lon="11.508606648180391"><ele>437.99999999999994</ele><time>2026-04-11T14:33:24.999Z</time></trkpt><trkpt lat="43.02932696218084" lon="11.508537481167"><ele>437.99999999999994</ele><time>2026-04-11T14:33:27.999Z</time></trkpt><trkpt lat="43.029409717752706" lon="11.508486658087925"><ele>438.0</ele><time>2026-04-11T14:33:30.999Z</time></trkpt><trkpt lat="43.02948775365372" lon="11.50842297162509"><ele>438.0</ele><time>2026-04-11T14:33:33.999Z</time></trkpt><trkpt lat="43.02956304578119" lon="11.50835825772308"><ele>438.0</ele><time>2026-04-11T14:33:36.999Z</time></trkpt><trkpt lat="43.02964116809285" lon="11.508297663336448"><ele>438.0</ele><time>2026-04-11T14:33:39.999Z</time></trkpt><trkpt lat="43.029719751203125" lon="11.508234105100414"><ele>438.0</ele><time>2026-04-11T14:33:42.999Z</time></trkpt><trkpt lat="43.0298020178755" lon="11.508175417108243"><ele>438.0</ele><time>2026-04-11T14:33:45.999Z</time></trkpt><trkpt lat="43.029858217938376" lon="11.508131584300882"><ele>438.0</ele><time>2026-04-11T14:33:47.999Z</time></trkpt><trkpt lat="43.02993886859303" lon="11.508068182375958"><ele>438.0</ele><time>2026-04-11T14:33:50.999Z</time></trkpt><trkpt lat="43.030017413575536" lon="11.508000039786642"><ele>438.2857142857143</ele><time>2026-04-11T14:33:53.999Z</time></trkpt><trkpt lat="43.03007215432028" lon="11.507956910764639"><ele>438.57142857142856</ele><time>2026-04-11T14:33:55.999Z</time></trkpt><trkpt lat="43.030131803202465" lon="11.507913071470622"><ele>438.85714285714283</ele><time>2026-04-11T14:33:57.999Z</time></trkpt><trkpt lat="43.030192588848536" lon="11.50786735240939"><ele>439.1428571428571</ele><time>2026-04-11T14:33:59.999Z</time></trkpt><trkpt lat="43.030257488334115" lon="11.507819143296263"><ele>439.42857142857144</ele><time>2026-04-11T14:34:01.998Z</time></trkpt><trkpt lat="43.03032034627951" lon="11.507769860939748"><ele>439.71428571428567</ele><time>2026-04-11T14:34:03.998Z</time></trkpt><trkpt lat="43.03038545448075" lon="11.50771926797715"><ele>440.0</ele><time>2026-04-11T14:34:05.998Z</time></trkpt><trkpt lat="43.03045097223163" lon="11.507669397201772"><ele>439.99999999999994</ele><time>2026-04-11T14:34:07.998Z</time></trkpt><trkpt lat="43.030516068018414" lon="11.50762276476823"><ele>440.0</ele><time>2026-04-11T14:34:09.998Z</time></trkpt><trkpt lat="43.030582014571046" lon="11.507586181948845"><ele>440.0</ele><time>2026-04-11T14:34:11.998Z</time></trkpt><trkpt lat="43.03065551908904" lon="11.507545571673752"><ele>440.0</ele><time>2026-04-11T14:34:14.998Z</time></trkpt><trkpt lat="43.03073059113213" lon="11.507521409517443"><ele>439.99999999999994</ele><time>2026-04-11T14:34:17.998Z</time></trkpt><trkpt lat="43.03079385399758" lon="11.507515906944521"><ele>440.0</ele><time>2026-04-11T14:34:20.998Z</time></trkpt><trkpt lat="43.031012743590004" lon="11.50752419673"><ele>442.0</ele><time>2026-04-11T14:34:30.998Z</time></trkpt><trkpt lat="43.03110700089503" lon="11.507527091616224"><ele>444.0</ele><time>2026-04-11T14:34:34.998Z</time></trkpt><trkpt lat="43.03123694238454" lon="11.507542186846"><ele>446.0</ele><time>2026-04-11T14:34:39.998Z</time></trkpt><trkpt lat="43.0313116960283" lon="11.507565838262025"><ele>448.0</ele><time>2026-04-11T14:34:43Z</time></trkpt><trkpt lat="43.03146531248593" lon="11.507586657015256"><ele>448.0</ele><time>2026-04-11T14:34:49Z</time></trkpt><trkpt lat="43.03155131952141" lon="11.507602513943697"><ele>447.99999999999994</ele><time>2026-04-11T14:34:52Z</time></trkpt><trkpt lat="43.031636275004495" lon="11.507622245602127"><ele>447.99999999999994</ele><time>2026-04-11T14:34:55Z</time></trkpt><trkpt lat="43.03171655932562" lon="11.507628719136093"><ele>448.0</ele><time>2026-04-11T14:34:58Z</time></trkpt><trkpt lat="43.03188163648423" lon="11.507639836989439"><ele>448.0</ele><time>2026-04-11T14:35:04Z</time></trkpt><trkpt lat="43.031956467208616" lon="11.507641821078161"><ele>448.6666666666667</ele><time>2026-04-11T14:35:07Z</time></trkpt><trkpt lat="43.032035424006764" lon="11.507643457124072"><ele>449.33333333333337</ele><time>2026-04-11T14:35:09.999Z</time></trkpt><trkpt lat="43.0321117092364" lon="11.507633129578727"><ele>450.0</ele><time>2026-04-11T14:35:12.999Z</time></trkpt><trkpt lat="43.032195028636764" lon="11.507638423184822"><ele>450.66666666666663</ele><time>2026-04-11T14:35:15.999Z</time></trkpt><trkpt lat="43.03228831407614" lon="11.507645887835665"><ele>451.3333333333333</ele><time>2026-04-11T14:35:18.999Z</time></trkpt><trkpt lat="43.03238422650139" lon="11.50764764682176"><ele>452.0</ele><time>2026-04-11T14:35:21.999Z</time></trkpt><trkpt lat="43.032449405589176" lon="11.5076478570447"><ele>452.66666666666663</ele><time>2026-04-11T14:35:23.999Z</time></trkpt><trkpt lat="43.032542690613305" lon="11.5076362695895"><ele>453.3333333333333</ele><time>2026-04-11T14:35:26.999Z</time></trkpt><trkpt lat="43.032632973925466" lon="11.5076019230407"><ele>454.0</ele><time>2026-04-11T14:35:29.999Z</time></trkpt><trkpt lat="43.03271807302215" lon="11.50754881911823"><ele>454.66666666666663</ele><time>2026-04-11T14:35:32.999Z</time></trkpt><trkpt lat="43.032768868173946" lon="11.50749582552762"><ele>455.3333333333333</ele><time>2026-04-11T14:35:34.999Z</time></trkpt><trkpt lat="43.032821859845825" lon="11.507440147543127"><ele>456.0</ele><time>2026-04-11T14:35:36.999Z</time></trkpt><trkpt lat="43.03287085654064" lon="11.507362560785818"><ele>456.0</ele><time>2026-04-11T14:35:39.999Z</time></trkpt><trkpt lat="43.03293285323425" lon="11.507291567533159"><ele>456.0</ele><time>2026-04-11T14:35:44.999Z</time></trkpt><trkpt lat="43.03298342529026" lon="11.507217811963251"><ele>456.0</ele><time>2026-04-11T14:35:47.999Z</time></trkpt><trkpt lat="43.0330389773495" lon="11.507145716872271"><ele>456.0</ele><time>2026-04-11T14:35:50.999Z</time></trkpt><trkpt lat="43.03309096210887" lon="11.507068634529952"><ele>456.0</ele><time>2026-04-11T14:35:53.999Z</time></trkpt><trkpt lat="43.03313812602627" lon="11.506990636113436"><ele>456.0</ele><time>2026-04-11T14:35:56.999Z</time></trkpt><trkpt lat="43.03318187513729" lon="11.506917050196233"><ele>454.71428571428567</ele><time>2026-04-11T14:35:59.999Z</time></trkpt><trkpt lat="43.03321099492804" lon="11.506824269338983"><ele>453.4285714285714</ele><time>2026-04-11T14:36:03.999Z</time></trkpt><trkpt lat="43.03327541159559" lon="11.50678086803764"><ele>452.1428571428571</ele><time>2026-04-11T14:36:06.999Z</time></trkpt><trkpt lat="43.03331199597748" lon="11.506709804749603"><ele>450.85714285714283</ele><time>2026-04-11T14:36:09.999Z</time></trkpt><trkpt lat="43.033364404505186" lon="11.506623410573555"><ele>449.57142857142856</ele><time>2026-04-11T14:36:12.998Z</time></trkpt><trkpt lat="43.03340570843312" lon="11.50654101411165"><ele>448.2857142857142</ele><time>2026-04-11T14:36:15.998Z</time></trkpt><trkpt lat="43.033462542277135" lon="11.506467172350709"><ele>447.0</ele><time>2026-04-11T14:36:18.998Z</time></trkpt><trkpt lat="43.03351289738452" lon="11.506386658187541"><ele>448.6666666666667</ele><time>2026-04-11T14:36:21.998Z</time></trkpt><trkpt lat="43.033566731592174" lon="11.506314031844832"><ele>450.33333333333337</ele><time>2026-04-11T14:36:24.998Z</time></trkpt><trkpt lat="43.03361127588137" lon="11.506224212776731"><ele>452.0</ele><time>2026-04-11T14:36:27.998Z</time></trkpt><trkpt lat="43.03366896495425" lon="11.506144968563879"><ele>453.6666666666667</ele><time>2026-04-11T14:36:30.998Z</time></trkpt><trkpt lat="43.03371896016744" lon="11.506049577132535"><ele>455.33333333333337</ele><time>2026-04-11T14:36:33.998Z</time></trkpt><trkpt lat="43.03378305551112" lon="11.505957812316458"><ele>457.0</ele><time>2026-04-11T14:36:36.998Z</time></trkpt><trkpt lat="43.03384507177095" lon="11.505867449534666"><ele>457.00000000000006</ele><time>2026-04-11T14:36:39.998Z</time></trkpt><trkpt lat="43.03390783449756" lon="11.50576937661409"><ele>457.0</ele><time>2026-04-11T14:36:42.998Z</time></trkpt><trkpt lat="43.03396613965396" lon="11.505671988006023"><ele>457.0</ele><time>2026-04-11T14:36:45.998Z</time></trkpt><trkpt lat="43.034004717643214" lon="11.505602447879928"><ele>457.0</ele><time>2026-04-11T14:36:48Z</time></trkpt><trkpt lat="43.0340653952994" lon="11.505515719530491"><ele>457.00000000000006</ele><time>2026-04-11T14:36:51Z</time></trkpt><trkpt lat="43.03412208159518" lon="11.505423388743456"><ele>457.0</ele><time>2026-04-11T14:36:54Z</time></trkpt><trkpt lat="43.034185127775196" lon="11.50533412054656"><ele>458.00000000000006</ele><time>2026-04-11T14:36:57Z</time></trkpt><trkpt lat="43.03423555090604" lon="11.505275982619962"><ele>459.0</ele><time>2026-04-11T14:36:59Z</time></trkpt><trkpt lat="43.03429275011239" lon="11.50521549999424"><ele>460.00000000000006</ele><time>2026-04-11T14:37:01Z</time></trkpt><trkpt lat="43.03435127266232" lon="11.505157729356373"><ele>461.00000000000006</ele><time>2026-04-11T14:37:03Z</time></trkpt><trkpt lat="43.03440236167391" lon="11.505101361650082"><ele>462.0</ele><time>2026-04-11T14:37:05Z</time></trkpt><trkpt lat="43.034456834520704" lon="11.505047536235795"><ele>463.00000000000006</ele><time>2026-04-11T14:37:07Z</time></trkpt><trkpt lat="43.034512456226985" lon="11.504993714232125"><ele>464.00000000000006</ele><time>2026-04-11T14:37:09Z</time></trkpt><trkpt lat="43.03456996969526" lon="11.504939170867763"><ele>464.00000000000006</ele><time>2026-04-11T14:37:11Z</time></trkpt><trkpt lat="43.03462244599265" lon="11.504877038617638"><ele>464.0</ele><time>2026-04-11T14:37:13Z</time></trkpt><trkpt lat="43.03468199530144" lon="11.504825101029988"><ele>464.00000000000006</ele><time>2026-04-11T14:37:14.999Z</time></trkpt><trkpt lat="43.03474019958476" lon="11.504767663713809"><ele>464.00000000000006</ele><time>2026-04-11T14:37:16.999Z</time></trkpt><trkpt lat="43.03479767571558" lon="11.504709070152055"><ele>464.0</ele><time>2026-04-11T14:37:18.999Z</time></trkpt><trkpt lat="43.03485139367825" lon="11.504641626787713"><ele>464.00000000000006</ele><time>2026-04-11T14:37:20.999Z</time></trkpt><trkpt lat="43.034912144040916" lon="11.504586172782469"><ele>464.00000000000006</ele><time>2026-04-11T14:37:22.999Z</time></trkpt><trkpt lat="43.03497269678405" lon="11.504523631959971"><ele>464.16666666666663</ele><time>2026-04-11T14:37:24.999Z</time></trkpt><trkpt lat="43.03503556881193" lon="11.504460305064265"><ele>464.3333333333333</ele><time>2026-04-11T14:37:26.999Z</time></trkpt><trkpt lat="43.03510226006853" lon="11.504388894569614"><ele>464.5</ele><time>2026-04-11T14:37:28.999Z</time></trkpt><trkpt lat="43.035170897952746" lon="11.50432136238282"><ele>464.66666666666663</ele><time>2026-04-11T14:37:30.999Z</time></trkpt><trkpt lat="43.03523903433451" lon="11.504249983977466"><ele>464.8333333333333</ele><time>2026-04-11T14:37:32.999Z</time></trkpt><trkpt lat="43.0353005088302" lon="11.50417714983238"><ele>465.0</ele><time>2026-04-11T14:37:34.999Z</time></trkpt><trkpt lat="43.0353689926531" lon="11.504115474033135"><ele>465.0</ele><time>2026-04-11T14:37:36.999Z</time></trkpt><trkpt lat="43.035436253869605" lon="11.504051068503744"><ele>465.0</ele><time>2026-04-11T14:37:38.999Z</time></trkpt><trkpt lat="43.035495124656975" lon="11.503986905004004"><ele>465.0</ele><time>2026-04-11T14:37:40.999Z</time></trkpt><trkpt lat="43.03555809918406" lon="11.503923801464595"><ele>465.0</ele><time>2026-04-11T14:37:42.999Z</time></trkpt><trkpt lat="43.035624841735306" lon="11.50386189432932"><ele>465.0</ele><time>2026-04-11T14:37:44.999Z</time></trkpt><trkpt lat="43.03569282847087" lon="11.503803835087833"><ele>465.0</ele><time>2026-04-11T14:37:46.999Z</time></trkpt><trkpt lat="43.035761542572665" lon="11.503762206063318"><ele>464.3333333333333</ele><time>2026-04-11T14:37:48.999Z</time></trkpt><trkpt lat="43.03583440202934" lon="11.503736089407825"><ele>463.66666666666663</ele><time>2026-04-11T14:37:50.999Z</time></trkpt><trkpt lat="43.03590881693398" lon="11.50371628870324"><ele>463.0</ele><time>2026-04-11T14:37:52.999Z</time></trkpt><trkpt lat="43.03598745331835" lon="11.503716412361426"><ele>462.3333333333333</ele><time>2026-04-11T14:37:54.999Z</time></trkpt><trkpt lat="43.03606190025715" lon="11.503732890941018"><ele>461.66666666666663</ele><time>2026-04-11T14:37:56.999Z</time></trkpt><trkpt lat="43.036137324987756" lon="11.503745761278278"><ele>461.0</ele><time>2026-04-11T14:37:58.999Z</time></trkpt><trkpt lat="43.03621400686675" lon="11.503770467481042"><ele>463.14285714285717</ele><time>2026-04-11T14:38:00.999Z</time></trkpt><trkpt lat="43.036286759436734" lon="11.503795624370783"><ele>465.28571428571433</ele><time>2026-04-11T14:38:02.999Z</time></trkpt><trkpt lat="43.036356598810364" lon="11.503819974114052"><ele>467.42857142857144</ele><time>2026-04-11T14:38:04.999Z</time></trkpt><trkpt lat="43.036429574592184" lon="11.503844614353785"><ele>469.57142857142856</ele><time>2026-04-11T14:38:06.999Z</time></trkpt><trkpt lat="43.03650134515733" lon="11.503865292025795"><ele>471.7142857142857</ele><time>2026-04-11T14:38:08.999Z</time></trkpt><trkpt lat="43.036570878906964" lon="11.503884179635934"><ele>473.8571428571429</ele><time>2026-04-11T14:38:10.999Z</time></trkpt><trkpt lat="43.03664053072273" lon="11.503910419827859"><ele>476.0</ele><time>2026-04-11T14:38:12.999Z</time></trkpt><trkpt lat="43.036711811669996" lon="11.503926370072843"><ele>476.57142857142856</ele><time>2026-04-11T14:38:14.999Z</time></trkpt><trkpt lat="43.03678363973933" lon="11.503941330991628"><ele>477.1428571428571</ele><time>2026-04-11T14:38:16.998Z</time></trkpt><trkpt lat="43.036853665233664" lon="11.50395318515267"><ele>477.7142857142857</ele><time>2026-04-11T14:38:18.998Z</time></trkpt><trkpt lat="43.03692528782892" lon="11.503958403636553"><ele>478.2857142857143</ele><time>2026-04-11T14:38:20.998Z</time></trkpt><trkpt lat="43.03700165458955" lon="11.503957117367081"><ele>478.85714285714283</ele><time>2026-04-11T14:38:22.998Z</time></trkpt><trkpt lat="43.037075617805314" lon="11.503942053164849"><ele>479.42857142857144</ele><time>2026-04-11T14:38:24.998Z</time></trkpt><trkpt lat="43.03714775977463" lon="11.50391015980209"><ele>480.0</ele><time>2026-04-11T14:38:26.998Z</time></trkpt><trkpt lat="43.037212990858464" lon="11.50387166609129"><ele>480.0</ele><time>2026-04-11T14:38:28.998Z</time></trkpt><trkpt lat="43.03727620482402" lon="11.503832617787245"><ele>480.0</ele><time>2026-04-11T14:38:30.998Z</time></trkpt><trkpt lat="43.03734303997972" lon="11.503790087393481"><ele>480.0</ele><time>2026-04-11T14:38:32.998Z</time></trkpt><trkpt lat="43.037409646332705" lon="11.503738668519041"><ele>480.0</ele><time>2026-04-11T14:38:34.998Z</time></trkpt><trkpt lat="43.03747472458562" lon="11.503690976433061"><ele>480.0</ele><time>2026-04-11T14:38:36.998Z</time></trkpt><trkpt lat="43.037539519520045" lon="11.503641079860687"><ele>480.0</ele><time>2026-04-11T14:38:38.998Z</time></trkpt><trkpt lat="43.03760530697721" lon="11.503597806789285"><ele>480.0</ele><time>2026-04-11T14:38:40.998Z</time></trkpt><trkpt lat="43.037666094368745" lon="11.50354626136101"><ele>479.0</ele><time>2026-04-11T14:38:42.998Z</time></trkpt><trkpt lat="43.03772878864679" lon="11.503500133584827"><ele>478.0</ele><time>2026-04-11T14:38:44.998Z</time></trkpt><trkpt lat="43.03779175108058" lon="11.503454708293264"><ele>477.0</ele><time>2026-04-11T14:38:46.998Z</time></trkpt><trkpt lat="43.03785371199029" lon="11.503405612291672"><ele>476.0</ele><time>2026-04-11T14:38:48.998Z</time></trkpt><trkpt lat="43.03791723418571" lon="11.503352817044115"><ele>475.0</ele><time>2026-04-11T14:38:50.998Z</time></trkpt><trkpt lat="43.03798300781919" lon="11.503306910323216"><ele>474.0</ele><time>2026-04-11T14:38:52.998Z</time></trkpt><trkpt lat="43.03805008423509" lon="11.503253526984597"><ele>473.0</ele><time>2026-04-11T14:38:55Z</time></trkpt><trkpt lat="43.038116009177706" lon="11.503202386044219"><ele>472.99999999999994</ele><time>2026-04-11T14:38:57Z</time></trkpt><trkpt lat="43.038182720671955" lon="11.503148698594293"><ele>473.0</ele><time>2026-04-11T14:38:59Z</time></trkpt><trkpt lat="43.03824894128903" lon="11.503094875189285"><ele>473.0</ele><time>2026-04-11T14:39:01Z</time></trkpt><trkpt lat="43.03831711563148" lon="11.503041952204132"><ele>473.0</ele><time>2026-04-11T14:39:03Z</time></trkpt><trkpt lat="43.03838774513735" lon="11.502987724371803"><ele>472.99999999999994</ele><time>2026-04-11T14:39:05Z</time></trkpt><trkpt lat="43.038457378501704" lon="11.50293549590335"><ele>473.0</ele><time>2026-04-11T14:39:07Z</time></trkpt><trkpt lat="43.038526056051005" lon="11.502884690017588"><ele>473.8333333333333</ele><time>2026-04-11T14:39:09Z</time></trkpt><trkpt lat="43.038598051533114" lon="11.502834817801414"><ele>474.66666666666663</ele><time>2026-04-11T14:39:11Z</time></trkpt><trkpt lat="43.03866741443525" lon="11.502779126047832"><ele>475.5</ele><time>2026-04-11T14:39:13Z</time></trkpt><trkpt lat="43.03874260689722" lon="11.502732131741318"><ele>476.33333333333337</ele><time>2026-04-11T14:39:15Z</time></trkpt><trkpt lat="43.03881442713096" lon="11.502681755356608"><ele>477.1666666666667</ele><time>2026-04-11T14:39:17Z</time></trkpt><trkpt lat="43.03888624375998" lon="11.502628000060163"><ele>478.0</ele><time>2026-04-11T14:39:19Z</time></trkpt><trkpt lat="43.03895294959316" lon="11.502574825298803"><ele>478.00000000000006</ele><time>2026-04-11T14:39:21Z</time></trkpt><trkpt lat="43.03901513486664" lon="11.50251974662884"><ele>478.0</ele><time>2026-04-11T14:39:22.999Z</time></trkpt><trkpt lat="43.03907484228946" lon="11.50246272218118"><ele>478.00000000000006</ele><time>2026-04-11T14:39:24.999Z</time></trkpt><trkpt lat="43.03913286995385" lon="11.502404778467476"><ele>478.00000000000006</ele><time>2026-04-11T14:39:26.999Z</time></trkpt><trkpt lat="43.03919050716677" lon="11.502339773644403"><ele>478.0</ele><time>2026-04-11T14:39:28.999Z</time></trkpt><trkpt lat="43.03924931413176" lon="11.502274439461477"><ele>478.00000000000006</ele><time>2026-04-11T14:39:30.999Z</time></trkpt><trkpt lat="43.039305515113675" lon="11.50220103503124"><ele>478.00000000000006</ele><time>2026-04-11T14:39:32.999Z</time></trkpt><trkpt lat="43.03935515767689" lon="11.50212765113079"><ele>478.33333333333337</ele><time>2026-04-11T14:39:34.999Z</time></trkpt><trkpt lat="43.03940706419732" lon="11.502053950213776"><ele>478.6666666666667</ele><time>2026-04-11T14:39:36.999Z</time></trkpt><trkpt lat="43.03944975752375" lon="11.501972715596265"><ele>479.0</ele><time>2026-04-11T14:39:38.999Z</time></trkpt><trkpt lat="43.03949379524266" lon="11.501889642868527"><ele>479.33333333333337</ele><time>2026-04-11T14:39:40.999Z</time></trkpt><trkpt lat="43.039541456658014" lon="11.50180823588525"><ele>479.6666666666667</ele><time>2026-04-11T14:39:42.999Z</time></trkpt><trkpt lat="43.039586413549024" lon="11.501720860100763"><ele>480.0</ele><time>2026-04-11T14:39:44.999Z</time></trkpt><trkpt lat="43.03963488640558" lon="11.50163426912917"><ele>480.0</ele><time>2026-04-11T14:39:46.999Z</time></trkpt><trkpt lat="43.039681766880534" lon="11.501548022003753"><ele>480.0</ele><time>2026-04-11T14:39:48.999Z</time></trkpt><trkpt lat="43.03972792291243" lon="11.501462982275642"><ele>480.0</ele><time>2026-04-11T14:39:50.999Z</time></trkpt><trkpt lat="43.03977482477517" lon="11.501377652567413"><ele>480.0</ele><time>2026-04-11T14:39:52.999Z</time></trkpt><trkpt lat="43.03982092978664" lon="11.501293608688826"><ele>480.0</ele><time>2026-04-11T14:39:54.999Z</time></trkpt><trkpt lat="43.03987074278772" lon="11.501211296467243"><ele>480.0</ele><time>2026-04-11T14:39:56.999Z</time></trkpt><trkpt lat="43.03991686517548" lon="11.501126279000893"><ele>480.0</ele><time>2026-04-11T14:39:58.999Z</time></trkpt><trkpt lat="43.03996433159186" lon="11.501039249733415"><ele>480.0</ele><time>2026-04-11T14:40:00.999Z</time></trkpt><trkpt lat="43.040011509094896" lon="11.50095137655331"><ele>480.0</ele><time>2026-04-11T14:40:02.999Z</time></trkpt><trkpt lat="43.04005412939071" lon="11.500864685088228"><ele>480.0</ele><time>2026-04-11T14:40:04.999Z</time></trkpt><trkpt lat="43.04010093331458" lon="11.500779068536193"><ele>480.0</ele><time>2026-04-11T14:40:06.999Z</time></trkpt><trkpt lat="43.04014408283967" lon="11.500697356763698"><ele>480.0</ele><time>2026-04-11T14:40:08.999Z</time></trkpt><trkpt lat="43.04018755868169" lon="11.500610212533545"><ele>480.1666666666667</ele><time>2026-04-11T14:40:10.999Z</time></trkpt><trkpt lat="43.040244319061024" lon="11.500523045019508"><ele>480.33333333333337</ele><time>2026-04-11T14:40:12.999Z</time></trkpt><trkpt lat="43.040298869060855" lon="11.500431119432736"><ele>480.5</ele><time>2026-04-11T14:40:14.999Z</time></trkpt><trkpt lat="43.04034922022884" lon="11.500339120381874"><ele>480.6666666666667</ele><time>2026-04-11T14:40:16.999Z</time></trkpt><trkpt lat="43.04040030438165" lon="11.5002499601554"><ele>480.83333333333337</ele><time>2026-04-11T14:40:18.999Z</time></trkpt><trkpt lat="43.04045004542343" lon="11.500160198547922"><ele>481.0</ele><time>2026-04-11T14:40:20.999Z</time></trkpt><trkpt lat="43.04049687873168" lon="11.500067906020753"><ele>480.6666666666667</ele><time>2026-04-11T14:40:22.999Z</time></trkpt><trkpt lat="43.04054412129077" lon="11.49997969092198"><ele>480.33333333333337</ele><time>2026-04-11T14:40:24.998Z</time></trkpt><trkpt lat="43.04059442711911" lon="11.499893398470235"><ele>480.0</ele><time>2026-04-11T14:40:26.998Z</time></trkpt><trkpt lat="43.04064520871006" lon="11.499805676684742"><ele>479.66666666666663</ele><time>2026-04-11T14:40:28.998Z</time></trkpt><trkpt lat="43.04069525034084" lon="11.499721205462139"><ele>479.3333333333333</ele><time>2026-04-11T14:40:30.998Z</time></trkpt><trkpt lat="43.040741192465326" lon="11.499633168479182"><ele>479.0</ele><time>2026-04-11T14:40:32.998Z</time></trkpt><trkpt lat="43.04078962550184" lon="11.499546555288704"><ele>479.8333333333333</ele><time>2026-04-11T14:40:34.998Z</time></trkpt><trkpt lat="43.04083626420938" lon="11.499458410968701"><ele>480.66666666666663</ele><time>2026-04-11T14:40:36.998Z</time></trkpt><trkpt lat="43.04087863386166" lon="11.49937129151683"><ele>481.5</ele><time>2026-04-11T14:40:38.998Z</time></trkpt><trkpt lat="43.04092103330974" lon="11.499286595947842"><ele>482.33333333333337</ele><time>2026-04-11T14:40:40.998Z</time></trkpt><trkpt lat="43.04096651832862" lon="11.499200858893438"><ele>483.1666666666667</ele><time>2026-04-11T14:40:42.998Z</time></trkpt><trkpt lat="43.041012642815424" lon="11.499111448237107"><ele>484.0</ele><time>2026-04-11T14:40:44.998Z</time></trkpt><trkpt lat="43.04106234766923" lon="11.499024970642298"><ele>484.00000000000006</ele><time>2026-04-11T14:40:46.998Z</time></trkpt><trkpt lat="43.04111515665066" lon="11.498940727670682"><ele>484.0</ele><time>2026-04-11T14:40:48.998Z</time></trkpt><trkpt lat="43.04115853459178" lon="11.498848672517724"><ele>484.0</ele><time>2026-04-11T14:40:50.998Z</time></trkpt><trkpt lat="43.0412071864341" lon="11.498762305092109"><ele>484.0</ele><time>2026-04-11T14:40:52.998Z</time></trkpt><trkpt lat="43.04125200036124" lon="11.49868431530989"><ele>484.00000000000006</ele><time>2026-04-11T14:40:54.998Z</time></trkpt><trkpt lat="43.041299649330355" lon="11.498594651768787"><ele>484.0</ele><time>2026-04-11T14:40:56.998Z</time></trkpt><trkpt lat="43.041346171051046" lon="11.498503507253039"><ele>484.00000000000006</ele><time>2026-04-11T14:40:58.998Z</time></trkpt><trkpt lat="43.04139435959524" lon="11.498418543506956"><ele>484.0</ele><time>2026-04-11T14:41:01Z</time></trkpt><trkpt lat="43.04144006750868" lon="11.498337299883934"><ele>484.0</ele><time>2026-04-11T14:41:03Z</time></trkpt><trkpt lat="43.041487315892276" lon="11.498255933208075"><ele>484.0</ele><time>2026-04-11T14:41:05Z</time></trkpt><trkpt lat="43.04153394042456" lon="11.498172712384708"><ele>484.00000000000006</ele><time>2026-04-11T14:41:07Z</time></trkpt><trkpt lat="43.041577389467335" lon="11.498090570861065"><ele>484.0</ele><time>2026-04-11T14:41:09Z</time></trkpt><trkpt lat="43.041619976089045" lon="11.498003774661818"><ele>484.6666666666667</ele><time>2026-04-11T14:41:11Z</time></trkpt><trkpt lat="43.04166694337446" lon="11.497919741647413"><ele>485.33333333333337</ele><time>2026-04-11T14:41:13Z</time></trkpt><trkpt lat="43.04171550396713" lon="11.497834601813361"><ele>486.0</ele><time>2026-04-11T14:41:15Z</time></trkpt><trkpt lat="43.04176228251985" lon="11.49774697910645"><ele>486.66666666666663</ele><time>2026-04-11T14:41:17Z</time></trkpt><trkpt lat="43.041810200762896" lon="11.497666800840152"><ele>487.3333333333333</ele><time>2026-04-11T14:41:19Z</time></trkpt><trkpt lat="43.04186050855146" lon="11.497579083425641"><ele>488.0</ele><time>2026-04-11T14:41:21Z</time></trkpt><trkpt lat="43.04191474431677" lon="11.497499160436432"><ele>488.16666666666663</ele><time>2026-04-11T14:41:23Z</time></trkpt><trkpt lat="43.04197312062199" lon="11.497421387331483"><ele>488.3333333333333</ele><time>2026-04-11T14:41:25Z</time></trkpt><trkpt lat="43.042034118735884" lon="11.49735198070586"><ele>488.5</ele><time>2026-04-11T14:41:27Z</time></trkpt><trkpt lat="43.04209169528799" lon="11.497277046543534"><ele>488.66666666666663</ele><time>2026-04-11T14:41:28.999Z</time></trkpt><trkpt lat="43.042151250152074" lon="11.497211113368978"><ele>488.8333333333333</ele><time>2026-04-11T14:41:30.999Z</time></trkpt><trkpt lat="43.0422075777597" lon="11.497153020767334"><ele>489.0</ele><time>2026-04-11T14:41:32.999Z</time></trkpt><trkpt lat="43.042264374221254" lon="11.497100223598876"><ele>489.5714285714286</ele><time>2026-04-11T14:41:34.999Z</time></trkpt><trkpt lat="43.042324766910205" lon="11.497055727179195"><ele>490.1428571428572</ele><time>2026-04-11T14:41:36.999Z</time></trkpt><trkpt lat="43.042388681724404" lon="11.497011033446926"><ele>490.7142857142857</ele><time>2026-04-11T14:41:38.999Z</time></trkpt><trkpt lat="43.042449508951975" lon="11.496970936949813"><ele>491.28571428571433</ele><time>2026-04-11T14:41:40.999Z</time></trkpt><trkpt lat="43.04251146939398" lon="11.496925056520798"><ele>491.8571428571429</ele><time>2026-04-11T14:41:42.999Z</time></trkpt><trkpt lat="43.04257342747367" lon="11.496884161854767"><ele>492.42857142857144</ele><time>2026-04-11T14:41:44.999Z</time></trkpt><trkpt lat="43.04264348207771" lon="11.4968472797225"><ele>493.0</ele><time>2026-04-11T14:41:47.999Z</time></trkpt><trkpt lat="43.04270461699427" lon="11.496816554419057"><ele>493.6666666666667</ele><time>2026-04-11T14:41:49.999Z</time></trkpt><trkpt lat="43.042760017748456" lon="11.49674530330521"><ele>494.33333333333337</ele><time>2026-04-11T14:41:51.999Z</time></trkpt><trkpt lat="43.042831765768184" lon="11.496721820967542"><ele>495.0</ele><time>2026-04-11T14:41:53.999Z</time></trkpt><trkpt lat="43.04291466418349" lon="11.496719143092127"><ele>495.66666666666663</ele><time>2026-04-11T14:41:54.999Z</time></trkpt><trkpt lat="43.0429918028291" lon="11.496680836034798"><ele>496.3333333333333</ele><time>2026-04-11T14:41:56.999Z</time></trkpt><trkpt lat="43.04307258148843" lon="11.496649884627557"><ele>497.0</ele><time>2026-04-11T14:41:58.999Z</time></trkpt><trkpt lat="43.04315288209043" lon="11.496617820377294"><ele>496.99999999999994</ele><time>2026-04-11T14:42:00.999Z</time></trkpt><trkpt lat="43.0432369510879" lon="11.496596799536704"><ele>497.0</ele><time>2026-04-11T14:42:02.999Z</time></trkpt><trkpt lat="43.04332460213394" lon="11.496572049796075"><ele>497.0</ele><time>2026-04-11T14:42:04.999Z</time></trkpt><trkpt lat="43.04341661776599" lon="11.49655372194669"><ele>497.0</ele><time>2026-04-11T14:42:06.999Z</time></trkpt><trkpt lat="43.04350610209275" lon="11.496537764335459"><ele>496.99999999999994</ele><time>2026-04-11T14:42:08.999Z</time></trkpt><trkpt lat="43.04359087548833" lon="11.496515709088996"><ele>497.0</ele><time>2026-04-11T14:42:10.999Z</time></trkpt><trkpt lat="43.0436799929474" lon="11.496503148573035"><ele>497.0</ele><time>2026-04-11T14:42:12.999Z</time></trkpt><trkpt lat="43.04378245598032" lon="11.496471451428866"><ele>497.00000000000006</ele><time>2026-04-11T14:42:14.999Z</time></trkpt><trkpt lat="43.04387245830137" lon="11.496465152678558"><ele>497.00000000000006</ele><time>2026-04-11T14:42:16.999Z</time></trkpt><trkpt lat="43.04396228120306" lon="11.496444698836978"><ele>497.0</ele><time>2026-04-11T14:42:18.999Z</time></trkpt><trkpt lat="43.04405483622502" lon="11.496435231808093"><ele>497.0</ele><time>2026-04-11T14:42:20.999Z</time></trkpt><trkpt lat="43.04414365920356" lon="11.496424075327903"><ele>496.99999999999994</ele><time>2026-04-11T14:42:22.999Z</time></trkpt><trkpt lat="43.044234795237124" lon="11.496409975047861"><ele>497.0</ele><time>2026-04-11T14:42:24.999Z</time></trkpt><trkpt lat="43.044318073298065" lon="11.49639735012283"><ele>497.0</ele><time>2026-04-11T14:42:26.999Z</time></trkpt><trkpt lat="43.04440757174278" lon="11.496392283109316"><ele>497.0</ele><time>2026-04-11T14:42:28.999Z</time></trkpt><trkpt lat="43.04448705921535" lon="11.496372980798844"><ele>496.99999999999994</ele><time>2026-04-11T14:42:30.998Z</time></trkpt><trkpt lat="43.044563994281056" lon="11.496372375807494"><ele>497.0</ele><time>2026-04-11T14:42:32.998Z</time></trkpt><trkpt lat="43.04463931216897" lon="11.496355531494144"><ele>496.99999999999994</ele><time>2026-04-11T14:42:34.998Z</time></trkpt><trkpt lat="43.04471603484083" lon="11.496345131409038"><ele>497.0</ele><time>2026-04-11T14:42:36.998Z</time></trkpt><trkpt lat="43.044789665634504" lon="11.4963285727524"><ele>497.0</ele><time>2026-04-11T14:42:38.998Z</time></trkpt><trkpt lat="43.04490498982944" lon="11.496315333745361"><ele>497.0</ele><time>2026-04-11T14:42:41.998Z</time></trkpt><trkpt lat="43.04498191928888" lon="11.4963011627446"><ele>496.99999999999994</ele><time>2026-04-11T14:42:43.998Z</time></trkpt><trkpt lat="43.04505610157268" lon="11.496287738668432"><ele>497.0</ele><time>2026-04-11T14:42:45.998Z</time></trkpt><trkpt lat="43.045130866943424" lon="11.496279562667267"><ele>497.1428571428571</ele><time>2026-04-11T14:42:47.998Z</time></trkpt><trkpt lat="43.045201182133596" lon="11.496265846214811"><ele>497.2857142857143</ele><time>2026-04-11T14:42:49.998Z</time></trkpt><trkpt lat="43.04527378598916" lon="11.496256909635317"><ele>497.42857142857144</ele><time>2026-04-11T14:42:51.998Z</time></trkpt><trkpt lat="43.04534361263137" lon="11.496252585471153"><ele>497.57142857142856</ele><time>2026-04-11T14:42:53.998Z</time></trkpt><trkpt lat="43.045415009647435" lon="11.49625093213168"><ele>497.71428571428567</ele><time>2026-04-11T14:42:55.998Z</time></trkpt><trkpt lat="43.0454853459056" lon="11.496241048995516"><ele>497.85714285714283</ele><time>2026-04-11T14:42:57.998Z</time></trkpt><trkpt lat="43.045558264029054" lon="11.496224036461802"><ele>498.0</ele><time>2026-04-11T14:42:59.998Z</time></trkpt><trkpt lat="43.045629015220264" lon="11.496213227784322"><ele>499.79999999999995</ele><time>2026-04-11T14:43:01.998Z</time></trkpt><trkpt lat="43.04570232402952" lon="11.49619918063736"><ele>501.59999999999997</ele><time>2026-04-11T14:43:03.998Z</time></trkpt><trkpt lat="43.04577587687504" lon="11.496184705738305"><ele>503.40000000000003</ele><time>2026-04-11T14:43:06Z</time></trkpt><trkpt lat="43.045851622720384" lon="11.496179864092056"><ele>505.20000000000005</ele><time>2026-04-11T14:43:08Z</time></trkpt><trkpt lat="43.04592746021571" lon="11.496162681854752"><ele>507.0</ele><time>2026-04-11T14:43:10Z</time></trkpt><trkpt lat="43.0460965509057" lon="11.49619260814108"><ele>507.8</ele><time>2026-04-11T14:43:14Z</time></trkpt><trkpt lat="43.04617533626186" lon="11.496173165344327"><ele>508.6</ele><time>2026-04-11T14:43:16Z</time></trkpt><trkpt lat="43.04626143258319" lon="11.496156378316712"><ele>509.40000000000003</ele><time>2026-04-11T14:43:18Z</time></trkpt><trkpt lat="43.046396978791336" lon="11.496153043032155"><ele>510.20000000000005</ele><time>2026-04-11T14:43:21Z</time></trkpt><trkpt lat="43.046486971257295" lon="11.496139163726738"><ele>511.0</ele><time>2026-04-11T14:43:23Z</time></trkpt><trkpt lat="43.046576946826455" lon="11.496123761371765"><ele>511.6666666666667</ele><time>2026-04-11T14:43:25Z</time></trkpt><trkpt lat="43.04666938459954" lon="11.496109002356938"><ele>512.3333333333334</ele><time>2026-04-11T14:43:27Z</time></trkpt><trkpt lat="43.046757712045" lon="11.496098902923583"><ele>513.0</ele><time>2026-04-11T14:43:29Z</time></trkpt><trkpt lat="43.04684294912615" lon="11.496074571662632"><ele>513.6666666666666</ele><time>2026-04-11T14:43:31Z</time></trkpt><trkpt lat="43.04690684789247" lon="11.495967363972737"><ele>514.3333333333333</ele><time>2026-04-11T14:43:33Z</time></trkpt><trkpt lat="43.04697793874712" lon="11.495930154959098"><ele>515.0</ele><time>2026-04-11T14:43:34.999Z</time></trkpt><trkpt lat="43.047051731121684" lon="11.49587478032079"><ele>515.0</ele><time>2026-04-11T14:43:36.999Z</time></trkpt><trkpt lat="43.04712058450457" lon="11.495807474293034"><ele>515.0</ele><time>2026-04-11T14:43:38.999Z</time></trkpt><trkpt lat="43.047173578338665" lon="11.495730184526039"><ele>515.0</ele><time>2026-04-11T14:43:40.999Z</time></trkpt><trkpt lat="43.04721555475133" lon="11.495644943492358"><ele>515.0</ele><time>2026-04-11T14:43:42.999Z</time></trkpt><trkpt lat="43.04725764666437" lon="11.495551866606268"><ele>515.0</ele><time>2026-04-11T14:43:45.999Z</time></trkpt><trkpt lat="43.04732377356313" lon="11.49550164820844"><ele>515.0</ele><time>2026-04-11T14:43:47.999Z</time></trkpt><trkpt lat="43.04736326863863" lon="11.495393919406006"><ele>515.8</ele><time>2026-04-11T14:43:49.999Z</time></trkpt><trkpt lat="43.04740005681948" lon="11.495278976206855"><ele>516.6</ele><time>2026-04-11T14:43:51.999Z</time></trkpt><trkpt lat="43.04743996218784" lon="11.49516531136503"><ele>517.4</ele><time>2026-04-11T14:43:53.999Z</time></trkpt><trkpt lat="43.04748507806448" lon="11.49505924226435"><ele>518.2</ele><time>2026-04-11T14:43:55.999Z</time></trkpt><trkpt lat="43.04752398562944" lon="11.494944541315455"><ele>519.0</ele><time>2026-04-11T14:43:57.999Z</time></trkpt><trkpt lat="43.04756641126147" lon="11.494829937922447"><ele>519.0</ele><time>2026-04-11T14:43:59.999Z</time></trkpt><trkpt lat="43.04762121288861" lon="11.494716951596505"><ele>519.0</ele><time>2026-04-11T14:44:01.999Z</time></trkpt><trkpt lat="43.047675396789494" lon="11.494598323713054"><ele>519.0</ele><time>2026-04-11T14:44:03.999Z</time></trkpt><trkpt lat="43.047717766696536" lon="11.494468125890721"><ele>519.0</ele><time>2026-04-11T14:44:05.999Z</time></trkpt><trkpt lat="43.04779561249445" lon="11.494357064132055"><ele>519.0</ele><time>2026-04-11T14:44:06.999Z</time></trkpt><trkpt lat="43.04784532962706" lon="11.494228557446197"><ele>521.4</ele><time>2026-04-11T14:44:08.999Z</time></trkpt><trkpt lat="43.04786761354554" lon="11.49410248540959"><ele>523.8</ele><time>2026-04-11T14:44:10.999Z</time></trkpt><trkpt lat="43.0479138178073" lon="11.49397212932609"><ele>526.2</ele><time>2026-04-11T14:44:12.999Z</time></trkpt><trkpt lat="43.047973308120866" lon="11.493841862556746"><ele>528.6</ele><time>2026-04-11T14:44:14.999Z</time></trkpt><trkpt lat="43.04802038559446" lon="11.493717345097716"><ele>531.0</ele><time>2026-04-11T14:44:16.999Z</time></trkpt><trkpt lat="43.0480872573177" lon="11.49359565982422"><ele>531.0</ele><time>2026-04-11T14:44:18.999Z</time></trkpt><trkpt lat="43.04818683559373" lon="11.493518346910125"><ele>531.0</ele><time>2026-04-11T14:44:20.999Z</time></trkpt><trkpt lat="43.048300810665786" lon="11.493527785361598"><ele>531.0</ele><time>2026-04-11T14:44:22.999Z</time></trkpt><trkpt lat="43.04835424319669" lon="11.49357907287267"><ele>531.0</ele><time>2026-04-11T14:44:23.999Z</time></trkpt><trkpt lat="43.04841061434077" lon="11.493726993808153"><ele>531.0</ele><time>2026-04-11T14:44:25.999Z</time></trkpt><trkpt lat="43.048399005247234" lon="11.493894890034651"><ele>531.0</ele><time>2026-04-11T14:44:27.999Z</time></trkpt><trkpt lat="43.04838445307413" lon="11.493985957518557"><ele>531.0</ele><time>2026-04-11T14:44:28.999Z</time></trkpt><trkpt lat="43.04833517885825" lon="11.494145593025065"><ele>531.0</ele><time>2026-04-11T14:44:30.999Z</time></trkpt><trkpt lat="43.04831415948218" lon="11.49423434033109"><ele>531.0</ele><time>2026-04-11T14:44:31.999Z</time></trkpt><trkpt lat="43.04829497986718" lon="11.4943256268156"><ele>531.0</ele><time>2026-04-11T14:44:32.999Z</time></trkpt><trkpt lat="43.04828466029617" lon="11.494419093102735"><ele>531.0</ele><time>2026-04-11T14:44:33.999Z</time></trkpt><trkpt lat="43.04828170682399" lon="11.494511180509434"><ele>529.2</ele><time>2026-04-11T14:44:34.999Z</time></trkpt><trkpt lat="43.048284229202046" lon="11.494607368906495"><ele>527.4000000000001</ele><time>2026-04-11T14:44:35.999Z</time></trkpt><trkpt lat="43.04829591985025" lon="11.49469735231952"><ele>525.6</ele><time>2026-04-11T14:44:36.998Z</time></trkpt><trkpt lat="43.04830475657379" lon="11.494786981434123"><ele>523.8000000000001</ele><time>2026-04-11T14:44:37.998Z</time></trkpt><trkpt lat="43.048354480417764" lon="11.49494419735604"><ele>522.0</ele><time>2026-04-11T14:44:39.998Z</time></trkpt><trkpt lat="43.04843411188913" lon="11.495073109184675"><ele>522.0</ele><time>2026-04-11T14:44:41.998Z</time></trkpt><trkpt lat="43.04848628864774" lon="11.49512894591566"><ele>522.0</ele><time>2026-04-11T14:44:42.998Z</time></trkpt><trkpt lat="43.04853408459223" lon="11.495187811703865"><ele>522.0</ele><time>2026-04-11T14:44:43.998Z</time></trkpt><trkpt lat="43.048578721929616" lon="11.495251936747138"><ele>522.0</ele><time>2026-04-11T14:44:44.998Z</time></trkpt><trkpt lat="43.048624497266374" lon="11.495320536700614"><ele>522.0</ele><time>2026-04-11T14:44:45.998Z</time></trkpt><trkpt lat="43.04867017391102" lon="11.495389728250963"><ele>522.0</ele><time>2026-04-11T14:44:46.998Z</time></trkpt><trkpt lat="43.048703387468564" lon="11.495464571061472"><ele>522.0</ele><time>2026-04-11T14:44:47.998Z</time></trkpt><trkpt lat="43.048733051401676" lon="11.495542438504895"><ele>520.0</ele><time>2026-04-11T14:44:48.998Z</time></trkpt><trkpt lat="43.048789181295426" lon="11.495680860422382"><ele>518.0</ele><time>2026-04-11T14:44:50.998Z</time></trkpt><trkpt lat="43.04884369535821" lon="11.495816709197273"><ele>516.0</ele><time>2026-04-11T14:44:52.998Z</time></trkpt><trkpt lat="43.04890967814348" lon="11.495938023151956"><ele>514.0</ele><time>2026-04-11T14:44:54.998Z</time></trkpt><trkpt lat="43.048994392950895" lon="11.496043183514397"><ele>514.0</ele><time>2026-04-11T14:44:56.998Z</time></trkpt><trkpt lat="43.0490910323042" lon="11.496132003390063"><ele>514.0</ele><time>2026-04-11T14:44:58.998Z</time></trkpt><trkpt lat="43.04919103169141" lon="11.4962144964286"><ele>514.0</ele><time>2026-04-11T14:45:00.998Z</time></trkpt><trkpt lat="43.049290356401194" lon="11.496293104943494"><ele>514.0</ele><time>2026-04-11T14:45:02.998Z</time></trkpt><trkpt lat="43.04938736242509" lon="11.496362237301236"><ele>515.2</ele><time>2026-04-11T14:45:04.998Z</time></trkpt><trkpt lat="43.049473824681876" lon="11.496439960522634"><ele>516.4</ele><time>2026-04-11T14:45:06.998Z</time></trkpt><trkpt lat="43.04956250325138" lon="11.496508620243095"><ele>517.6</ele><time>2026-04-11T14:45:08.998Z</time></trkpt><trkpt lat="43.04965584614404" lon="11.496578263081075"><ele>518.8</ele><time>2026-04-11T14:45:11Z</time></trkpt><trkpt lat="43.049743135932665" lon="11.49665622820448"><ele>520.0</ele><time>2026-04-11T14:45:13Z</time></trkpt><trkpt lat="43.04983506710071" lon="11.496725427242648"><ele>520.0</ele><time>2026-04-11T14:45:15Z</time></trkpt><trkpt lat="43.04992821294706" lon="11.496795547757994"><ele>520.0</ele><time>2026-04-11T14:45:17Z</time></trkpt><trkpt lat="43.050016772715885" lon="11.496871888697575"><ele>520.0</ele><time>2026-04-11T14:45:19Z</time></trkpt><trkpt lat="43.05010672885923" lon="11.49693677112025"><ele>520.0</ele><time>2026-04-11T14:45:21Z</time></trkpt><trkpt lat="43.050193011086705" lon="11.496985634080332"><ele>520.0</ele><time>2026-04-11T14:45:23Z</time></trkpt><trkpt lat="43.050289315055004" lon="11.497017668895575"><ele>523.0</ele><time>2026-04-11T14:45:25Z</time></trkpt><trkpt lat="43.05039272453927" lon="11.497014531927483"><ele>526.0</ele><time>2026-04-11T14:45:27Z</time></trkpt><trkpt lat="43.05050504465797" lon="11.496985063025955"><ele>529.0</ele><time>2026-04-11T14:45:29Z</time></trkpt><trkpt lat="43.05060288391223" lon="11.496909425511415"><ele>532.0</ele><time>2026-04-11T14:45:31Z</time></trkpt><trkpt lat="43.0506793755806" lon="11.49679485961648"><ele>535.0</ele><time>2026-04-11T14:45:33Z</time></trkpt><trkpt lat="43.05074633427754" lon="11.496674767430644"><ele>534.4</ele><time>2026-04-11T14:45:35Z</time></trkpt><trkpt lat="43.05080224215477" lon="11.496551775206308"><ele>533.8</ele><time>2026-04-11T14:45:37Z</time></trkpt><trkpt lat="43.05084792551847" lon="11.496427489925315"><ele>533.2</ele><time>2026-04-11T14:45:38.999Z</time></trkpt><trkpt lat="43.050883326073276" lon="11.496311266452585"><ele>532.6</ele><time>2026-04-11T14:45:40.999Z</time></trkpt><trkpt lat="43.050919524008876" lon="11.496213712740898"><ele>532.0</ele><time>2026-04-11T14:45:42.999Z</time></trkpt><trkpt lat="43.05095251090386" lon="11.496114979675898"><ele>533.6666666666667</ele><time>2026-04-11T14:45:44.999Z</time></trkpt><trkpt lat="43.05097981097825" lon="11.496014996254367"><ele>535.3333333333334</ele><time>2026-04-11T14:45:46.999Z</time></trkpt><trkpt lat="43.0509979158155" lon="11.495910830753155"><ele>537.0</ele><time>2026-04-11T14:45:48.999Z</time></trkpt><trkpt lat="43.05101528619955" lon="11.495811770996358"><ele>538.6666666666666</ele><time>2026-04-11T14:45:50.999Z</time></trkpt><trkpt lat="43.05103105759809" lon="11.495714684815663"><ele>540.3333333333333</ele><time>2026-04-11T14:45:52.999Z</time></trkpt><trkpt lat="43.051044865578895" lon="11.495617367554699"><ele>542.0</ele><time>2026-04-11T14:45:54.999Z</time></trkpt><trkpt lat="43.05105107088958" lon="11.495512877772814"><ele>542.8333333333333</ele><time>2026-04-11T14:45:56.999Z</time></trkpt><trkpt lat="43.05105748725643" lon="11.495409242511176"><ele>543.6666666666666</ele><time>2026-04-11T14:45:58.999Z</time></trkpt><trkpt lat="43.05106225615678" lon="11.4953026799959"><ele>544.5</ele><time>2026-04-11T14:46:00.999Z</time></trkpt><trkpt lat="43.05106521164803" lon="11.495193486256369"><ele>545.3333333333334</ele><time>2026-04-11T14:46:02.999Z</time></trkpt><trkpt lat="43.051070309713005" lon="11.495081968624255"><ele>546.1666666666667</ele><time>2026-04-11T14:46:04.999Z</time></trkpt><trkpt lat="43.05107220864495" lon="11.494970729894455"><ele>547.0</ele><time>2026-04-11T14:46:06.999Z</time></trkpt><trkpt lat="43.05107805437431" lon="11.49486201544968"><ele>547.0</ele><time>2026-04-11T14:46:08.999Z</time></trkpt><trkpt lat="43.05108287459504" lon="11.494752933675601"><ele>547.0</ele><time>2026-04-11T14:46:10.999Z</time></trkpt><trkpt lat="43.05109930932389" lon="11.494648684335182"><ele>547.0</ele><time>2026-04-11T14:46:12.999Z</time></trkpt><trkpt lat="43.05111334979991" lon="11.494539380788934"><ele>547.0</ele><time>2026-04-11T14:46:14.999Z</time></trkpt><trkpt lat="43.05113037408805" lon="11.494424899883288"><ele>547.0</ele><time>2026-04-11T14:46:16.999Z</time></trkpt><trkpt lat="43.05115139715499" lon="11.494315387822143"><ele>547.0</ele><time>2026-04-11T14:46:18.999Z</time></trkpt><trkpt lat="43.051163561265675" lon="11.494201631467726"><ele>548.8333333333334</ele><time>2026-04-11T14:46:20.999Z</time></trkpt><trkpt lat="43.05118527086965" lon="11.494093810683191"><ele>550.6666666666667</ele><time>2026-04-11T14:46:22.999Z</time></trkpt><trkpt lat="43.051205245229944" lon="11.493985250873402"><ele>552.5</ele><time>2026-04-11T14:46:24.999Z</time></trkpt><trkpt lat="43.05122645694231" lon="11.49387637812477"><ele>554.3333333333334</ele><time>2026-04-11T14:46:26.999Z</time></trkpt><trkpt lat="43.051249942324986" lon="11.493770810281974"><ele>556.1666666666666</ele><time>2026-04-11T14:46:28.999Z</time></trkpt><trkpt lat="43.05126867685927" lon="11.493666304556278"><ele>558.0</ele><time>2026-04-11T14:46:30.999Z</time></trkpt><trkpt lat="43.051287419210986" lon="11.493559739550504"><ele>558.6666666666666</ele><time>2026-04-11T14:46:32.999Z</time></trkpt><trkpt lat="43.051304429560496" lon="11.493460335503375"><ele>559.3333333333334</ele><time>2026-04-11T14:46:34.999Z</time></trkpt><trkpt lat="43.05132390865177" lon="11.493345278632868"><ele>560.0</ele><time>2026-04-11T14:46:37.999Z</time></trkpt><trkpt lat="43.05134576814914" lon="11.493230496048831"><ele>560.6666666666667</ele><time>2026-04-11T14:46:40.998Z</time></trkpt><trkpt lat="43.05135285021992" lon="11.493101626961947"><ele>561.3333333333334</ele><time>2026-04-11T14:46:43.998Z</time></trkpt><trkpt lat="43.051350049376325" lon="11.493013136010257"><ele>562.0</ele><time>2026-04-11T14:46:45.998Z</time></trkpt><trkpt lat="43.051347331080684" lon="11.49291053063331"><ele>563.0</ele><time>2026-04-11T14:46:48.998Z</time></trkpt><trkpt lat="43.05134186400313" lon="11.492804040176216"><ele>564.0</ele><time>2026-04-11T14:46:51.998Z</time></trkpt><trkpt lat="43.051327812069694" lon="11.49269868981483"><ele>565.0</ele><time>2026-04-11T14:46:55.998Z</time></trkpt><trkpt lat="43.05132623169342" lon="11.492579442190653"><ele>566.0</ele><time>2026-04-11T14:46:58.998Z</time></trkpt><trkpt lat="43.05132467191979" lon="11.492490560425388"><ele>567.0</ele><time>2026-04-11T14:47:00.998Z</time></trkpt><trkpt lat="43.05132469223267" lon="11.492380806564737"><ele>568.0</ele><time>2026-04-11T14:47:03.998Z</time></trkpt><trkpt lat="43.05132785259605" lon="11.492271075651352"><ele>568.0</ele><time>2026-04-11T14:47:06.998Z</time></trkpt><trkpt lat="43.05132033896271" lon="11.492155415479598"><ele>568.0</ele><time>2026-04-11T14:47:09.998Z</time></trkpt><trkpt lat="43.05132552717805" lon="11.492034120643888"><ele>568.0</ele><time>2026-04-11T14:47:12.998Z</time></trkpt><trkpt lat="43.0513345921982" lon="11.491926426139468"><ele>568.0</ele><time>2026-04-11T14:47:15.998Z</time></trkpt><trkpt lat="43.05133789066819" lon="11.491837632981428"><ele>568.0</ele><time>2026-04-11T14:47:19Z</time></trkpt><trkpt lat="43.05135990832449" lon="11.491733580212252"><ele>568.0</ele><time>2026-04-11T14:47:23Z</time></trkpt><trkpt lat="43.0514149517446" lon="11.491662501394373"><ele>568.3333333333334</ele><time>2026-04-11T14:47:27Z</time></trkpt><trkpt lat="43.05148361936156" lon="11.491615752925824"><ele>568.6666666666667</ele><time>2026-04-11T14:47:31Z</time></trkpt><trkpt lat="43.05156011357485" lon="11.491634873613286"><ele>569.0</ele><time>2026-04-11T14:47:34Z</time></trkpt><trkpt lat="43.051630833361415" lon="11.491696557855395"><ele>569.3333333333334</ele><time>2026-04-11T14:47:37Z</time></trkpt><trkpt lat="43.05168426665504" lon="11.491796215190323"><ele>569.6666666666666</ele><time>2026-04-11T14:47:40Z</time></trkpt><trkpt lat="43.05171071321041" lon="11.491875949354009"><ele>570.0</ele><time>2026-04-11T14:47:42Z</time></trkpt><trkpt lat="43.05173924210803" lon="11.49195530461853"><ele>568.1428571428571</ele><time>2026-04-11T14:47:44Z</time></trkpt><trkpt lat="43.0517714958673" lon="11.492033359655109"><ele>566.2857142857143</ele><time>2026-04-11T14:47:46Z</time></trkpt><trkpt lat="43.0518074538667" lon="11.492107795603378"><ele>564.4285714285714</ele><time>2026-04-11T14:47:47.999Z</time></trkpt><trkpt lat="43.051852426190315" lon="11.492173386078816"><ele>562.5714285714286</ele><time>2026-04-11T14:47:49.999Z</time></trkpt><trkpt lat="43.05189776801924" lon="11.492239933084864"><ele>560.7142857142857</ele><time>2026-04-11T14:47:51.999Z</time></trkpt><trkpt lat="43.05194327204201" lon="11.492306236326728"><ele>558.8571428571429</ele><time>2026-04-11T14:47:53.999Z</time></trkpt><trkpt lat="43.051996277658205" lon="11.492360836291642"><ele>557.0</ele><time>2026-04-11T14:47:55.999Z</time></trkpt><trkpt lat="43.05205252928612" lon="11.49240710399201"><ele>555.4285714285714</ele><time>2026-04-11T14:47:57.999Z</time></trkpt><trkpt lat="43.05212117414698" lon="11.492434305698417"><ele>553.8571428571429</ele><time>2026-04-11T14:47:59.999Z</time></trkpt><trkpt lat="43.052188114979906" lon="11.492463864042078"><ele>552.2857142857142</ele><time>2026-04-11T14:48:01.999Z</time></trkpt><trkpt lat="43.052253209175234" lon="11.492434600620129"><ele>550.7142857142858</ele><time>2026-04-11T14:48:03.999Z</time></trkpt><trkpt lat="43.052305562253096" lon="11.492368902822573"><ele>549.1428571428571</ele><time>2026-04-11T14:48:05.999Z</time></trkpt><trkpt lat="43.05235459266622" lon="11.492297346153327"><ele>547.5714285714286</ele><time>2026-04-11T14:48:07.999Z</time></trkpt><trkpt lat="43.05238800910063" lon="11.492212681662172"><ele>546.0</ele><time>2026-04-11T14:48:09.999Z</time></trkpt><trkpt lat="43.05241491414371" lon="11.492120287919859"><ele>547.8333333333334</ele><time>2026-04-11T14:48:11.999Z</time></trkpt><trkpt lat="43.0524435938256" lon="11.492029830969262"><ele>549.6666666666666</ele><time>2026-04-11T14:48:13.999Z</time></trkpt><trkpt lat="43.052481609447085" lon="11.49194212422453"><ele>551.5</ele><time>2026-04-11T14:48:15.999Z</time></trkpt><trkpt lat="43.05250645019148" lon="11.491859179601363"><ele>553.3333333333333</ele><time>2026-04-11T14:48:17.999Z</time></trkpt><trkpt lat="43.05255577144243" lon="11.491802100585812"><ele>555.1666666666666</ele><time>2026-04-11T14:48:19.999Z</time></trkpt><trkpt lat="43.05263006903409" lon="11.49172544937236"><ele>557.0</ele><time>2026-04-11T14:48:22.999Z</time></trkpt><trkpt lat="43.052707651419844" lon="11.491680840072508"><ele>557.0</ele><time>2026-04-11T14:48:25.999Z</time></trkpt><trkpt lat="43.05278933848281" lon="11.491658729288206"><ele>557.0</ele><time>2026-04-11T14:48:28.999Z</time></trkpt><trkpt lat="43.05285149946473" lon="11.491674638621166"><ele>557.0</ele><time>2026-04-11T14:48:30.999Z</time></trkpt><trkpt lat="43.052916656680885" lon="11.491684753939781"><ele>557.0</ele><time>2026-04-11T14:48:32.999Z</time></trkpt><trkpt lat="43.05298264278907" lon="11.491715336263837"><ele>557.0</ele><time>2026-04-11T14:48:34.999Z</time></trkpt><trkpt lat="43.05305237073497" lon="11.491749466025194"><ele>557.0</ele><time>2026-04-11T14:48:36.999Z</time></trkpt><trkpt lat="43.053120533950555" lon="11.491789343308179"><ele>557.0</ele><time>2026-04-11T14:48:38.999Z</time></trkpt><trkpt lat="43.05318994255969" lon="11.491826356575931"><ele>557.0</ele><time>2026-04-11T14:48:40.999Z</time></trkpt><trkpt lat="43.053261960416556" lon="11.491860336983287"><ele>557.0</ele><time>2026-04-11T14:48:42.999Z</time></trkpt><trkpt lat="43.05333652647217" lon="11.491889417318335"><ele>557.0</ele><time>2026-04-11T14:48:44.999Z</time></trkpt><trkpt lat="43.053408693610244" lon="11.49190865345208"><ele>557.0</ele><time>2026-04-11T14:48:46.999Z</time></trkpt><trkpt lat="43.05347787957365" lon="11.491914406705085"><ele>557.0</ele><time>2026-04-11T14:48:48.999Z</time></trkpt><trkpt lat="43.0535428420452" lon="11.491921251093155"><ele>557.0</ele><time>2026-04-11T14:48:50.998Z</time></trkpt><trkpt lat="43.05362561845445" lon="11.491894475971554"><ele>557.0</ele><time>2026-04-11T14:48:53.998Z</time></trkpt><trkpt lat="43.05368300828022" lon="11.49184469544164"><ele>558.0</ele><time>2026-04-11T14:48:56.998Z</time></trkpt><trkpt lat="43.0537269174715" lon="11.491781547162423"><ele>559.0</ele><time>2026-04-11T14:48:59.998Z</time></trkpt><trkpt lat="43.05375571856337" lon="11.49170352467816"><ele>560.0</ele><time>2026-04-11T14:49:03.998Z</time></trkpt><trkpt lat="43.053754355726966" lon="11.491595630576072"><ele>561.0</ele><time>2026-04-11T14:49:07.998Z</time></trkpt><trkpt lat="43.05376651429969" lon="11.491490560870174"><ele>562.0</ele><time>2026-04-11T14:49:10.998Z</time></trkpt><trkpt lat="43.053776228176524" lon="11.491371925835947"><ele>563.0</ele><time>2026-04-11T14:49:13.998Z</time></trkpt><trkpt lat="43.05377964415471" lon="11.49125670601949"><ele>563.0</ele><time>2026-04-11T14:49:16.998Z</time></trkpt><trkpt lat="43.05378063883424" lon="11.491150308149335"><ele>563.0</ele><time>2026-04-11T14:49:19.998Z</time></trkpt><trkpt lat="43.05376947645876" lon="11.491058393484145"><ele>563.0</ele><time>2026-04-11T14:49:21.998Z</time></trkpt><trkpt lat="43.05377611168394" lon="11.490950325961666"><ele>563.0</ele><time>2026-04-11T14:49:25Z</time></trkpt><trkpt lat="43.05378094081388" lon="11.490843061173576"><ele>563.0</ele><time>2026-04-11T14:49:28Z</time></trkpt><trkpt lat="43.0537892502929" lon="11.490725233832826"><ele>563.0</ele><time>2026-04-11T14:49:31Z</time></trkpt><trkpt lat="43.0537847067673" lon="11.490606633394084"><ele>563.0</ele><time>2026-04-11T14:49:34Z</time></trkpt><trkpt lat="43.053790234415025" lon="11.49048092467291"><ele>563.0</ele><time>2026-04-11T14:49:37Z</time></trkpt><trkpt lat="43.05379268935534" lon="11.490354283811596"><ele>563.0</ele><time>2026-04-11T14:49:40Z</time></trkpt><trkpt lat="43.053797090124526" lon="11.490230403344432"><ele>563.0</ele><time>2026-04-11T14:49:43Z</time></trkpt><trkpt lat="43.05379906011605" lon="11.490104192790838"><ele>563.0</ele><time>2026-04-11T14:49:46Z</time></trkpt><trkpt lat="43.05380382649114" lon="11.489978398530258"><ele>563.3333333333333</ele><time>2026-04-11T14:49:49Z</time></trkpt><trkpt lat="43.05380853911473" lon="11.489852123228802"><ele>563.6666666666666</ele><time>2026-04-11T14:49:52Z</time></trkpt><trkpt lat="43.053806408805464" lon="11.489729830418737"><ele>564.0</ele><time>2026-04-11T14:49:55Z</time></trkpt><trkpt lat="43.0538012425547" lon="11.489615491246381"><ele>564.3333333333334</ele><time>2026-04-11T14:49:57.999Z</time></trkpt><trkpt lat="43.053803711287706" lon="11.489517621643246"><ele>564.6666666666667</ele><time>2026-04-11T14:50:00.999Z</time></trkpt><trkpt lat="43.05382265757282" lon="11.489409907264687"><ele>565.0</ele><time>2026-04-11T14:50:04.999Z</time></trkpt><trkpt lat="43.05385304648811" lon="11.489317988336389"><ele>565.6666666666667</ele><time>2026-04-11T14:50:07.999Z</time></trkpt><trkpt lat="43.053917842570485" lon="11.489244912576403"><ele>566.3333333333334</ele><time>2026-04-11T14:50:10.999Z</time></trkpt><trkpt lat="43.05399223081716" lon="11.489184785435757"><ele>567.0</ele><time>2026-04-11T14:50:13.999Z</time></trkpt><trkpt lat="43.05406936376309" lon="11.489140079808095"><ele>567.6666666666666</ele><time>2026-04-11T14:50:16.999Z</time></trkpt><trkpt lat="43.05414830893732" lon="11.489121632878819"><ele>568.3333333333333</ele><time>2026-04-11T14:50:19.999Z</time></trkpt><trkpt lat="43.05423555026597" lon="11.489110043015438"><ele>569.0</ele><time>2026-04-11T14:50:22.999Z</time></trkpt><trkpt lat="43.05432637515621" lon="11.489098636498083"><ele>566.6666666666666</ele><time>2026-04-11T14:50:25.999Z</time></trkpt><trkpt lat="43.05441403818026" lon="11.48909334987287"><ele>564.3333333333333</ele><time>2026-04-11T14:50:28.999Z</time></trkpt><trkpt lat="43.05450457151662" lon="11.48908219768344"><ele>562.0</ele><time>2026-04-11T14:50:31.999Z</time></trkpt><trkpt lat="43.05458968065603" lon="11.489072187952926"><ele>559.6666666666666</ele><time>2026-04-11T14:50:34.999Z</time></trkpt><trkpt lat="43.054671202516275" lon="11.489057054987569"><ele>557.3333333333334</ele><time>2026-04-11T14:50:37.999Z</time></trkpt><trkpt lat="43.054740819048476" lon="11.489052608289631"><ele>555.0</ele><time>2026-04-11T14:50:40.999Z</time></trkpt><trkpt lat="43.054809159101495" lon="11.489051959235761"><ele>555.0</ele><time>2026-04-11T14:50:43.999Z</time></trkpt><trkpt lat="43.0548807869717" lon="11.489042881696086"><ele>555.0</ele><time>2026-04-11T14:50:46.999Z</time></trkpt><trkpt lat="43.054956594127006" lon="11.489035313282841"><ele>555.0</ele><time>2026-04-11T14:50:49.999Z</time></trkpt><trkpt lat="43.055042065397025" lon="11.489018957159065"><ele>555.0</ele><time>2026-04-11T14:50:52.999Z</time></trkpt><trkpt lat="43.05510721298132" lon="11.489007086782028"><ele>555.0</ele><time>2026-04-11T14:50:54.999Z</time></trkpt><trkpt lat="43.05517589022452" lon="11.488996092866524"><ele>555.0</ele><time>2026-04-11T14:50:56.999Z</time></trkpt><trkpt lat="43.05519035171041" lon="11.488881899599216"><ele>554.7142857142858</ele><time>2026-04-11T14:50:59.998Z</time></trkpt><trkpt lat="43.05512790106667" lon="11.488856224872444"><ele>554.4285714285714</ele><time>2026-04-11T14:51:01.998Z</time></trkpt><trkpt lat="43.05506361332977" lon="11.488827551108832"><ele>554.1428571428571</ele><time>2026-04-11T14:51:04.998Z</time></trkpt><trkpt lat="43.05500504317959" lon="11.488767345341602"><ele>553.8571428571429</ele><time>2026-04-11T14:51:08.998Z</time></trkpt><trkpt lat="43.05494349559739" lon="11.488740399865295"><ele>553.5714285714286</ele><time>2026-04-11T14:51:12.998Z</time></trkpt><trkpt lat="43.0548830559919" lon="11.488691630167752"><ele>553.2857142857143</ele><time>2026-04-11T14:51:17.998Z</time></trkpt><trkpt lat="43.05491995521992" lon="11.488616422956778"><ele>553.0</ele><time>2026-04-11T14:51:58Z</time></trkpt><trkpt lat="43.05490101885688" lon="11.488531251808135"><ele>553.0</ele><time>2026-04-11T14:52:05.999Z</time></trkpt><trkpt lat="43.054899648979074" lon="11.488617530511817"><ele>553.0</ele><time>2026-04-11T14:53:37Z</time></trkpt><trkpt lat="43.05494737734431" lon="11.48867644986356"><ele>553.0</ele><time>2026-04-11T14:53:45Z</time></trkpt><trkpt lat="43.05500970461389" lon="11.488695542410374"><ele>553.0</ele><time>2026-04-11T14:53:55Z</time></trkpt><trkpt lat="43.05506863342355" lon="11.488732047967751"><ele>553.0</ele><time>2026-04-11T14:55:52Z</time></trkpt><trkpt lat="43.05504177068353" lon="11.488841297177382"><ele>553.0</ele><time>2026-04-11T14:58:38.999Z</time></trkpt><trkpt lat="43.054976074112005" lon="11.488821675331964"><ele>553.0</ele><time>2026-04-11T15:11:46.999Z</time></trkpt><trkpt lat="43.05492416581107" lon="11.48889183463053"><ele>553.0</ele><time>2026-04-11T15:12:57Z</time></trkpt><trkpt lat="43.05489829918118" lon="11.488992107601899"><ele>553.0</ele><time>2026-04-11T15:13:19.999Z</time></trkpt><trkpt lat="43.05492714506312" lon="11.489071565961261"><ele>553.0</ele><time>2026-04-11T15:13:21.999Z</time></trkpt><trkpt lat="43.054979621374294" lon="11.489129249071354"><ele>553.0</ele><time>2026-04-11T15:13:23.999Z</time></trkpt><trkpt lat="43.05503895708057" lon="11.48920398279459"><ele>553.0</ele><time>2026-04-11T15:13:27.999Z</time></trkpt><trkpt lat="43.05506915773005" lon="11.48928715186176"><ele>553.0</ele><time>2026-04-11T15:13:30.999Z</time></trkpt><trkpt lat="43.05500026586542" lon="11.48935019917193"><ele>553.0</ele><time>2026-04-11T15:13:33.999Z</time></trkpt><trkpt lat="43.05491625765777" lon="11.489347185449148"><ele>553.3333333333334</ele><time>2026-04-11T15:13:35.999Z</time></trkpt><trkpt lat="43.054805936584046" lon="11.489350770831795"><ele>553.6666666666667</ele><time>2026-04-11T15:13:37.999Z</time></trkpt><trkpt lat="43.054740314981366" lon="11.489355612859871"><ele>554.0</ele><time>2026-04-11T15:13:38.999Z</time></trkpt><trkpt lat="43.05467208293155" lon="11.489359192423768"><ele>554.3333333333334</ele><time>2026-04-11T15:13:39.999Z</time></trkpt><trkpt lat="43.054604397280414" lon="11.489362879330548"><ele>554.6666666666666</ele><time>2026-04-11T15:13:40.999Z</time></trkpt><trkpt lat="43.0545396402544" lon="11.489364811854157"><ele>555.0</ele><time>2026-04-11T15:13:41.999Z</time></trkpt><trkpt lat="43.054466845027676" lon="11.489366676609855"><ele>555.0</ele><time>2026-04-11T15:13:42.999Z</time></trkpt><trkpt lat="43.05439293401094" lon="11.489381234409546"><ele>555.0</ele><time>2026-04-11T15:13:43.999Z</time></trkpt><trkpt lat="43.05432591029618" lon="11.489404766880638"><ele>555.0</ele><time>2026-04-11T15:13:44.999Z</time></trkpt><trkpt lat="43.05425781851073" lon="11.489448295713379"><ele>555.0</ele><time>2026-04-11T15:13:45.999Z</time></trkpt><trkpt lat="43.05415752917505" lon="11.489453464456934"><ele>555.0</ele><time>2026-04-11T15:13:46.999Z</time></trkpt><trkpt lat="43.05411687790272" lon="11.489574952897225"><ele>555.0</ele><time>2026-04-11T15:13:47.999Z</time></trkpt><trkpt lat="43.05409959131211" lon="11.489695473400706"><ele>553.2</ele><time>2026-04-11T15:13:48.999Z</time></trkpt><trkpt lat="43.05410904879102" lon="11.489814882712105"><ele>551.4</ele><time>2026-04-11T15:13:49.999Z</time></trkpt><trkpt lat="43.054153160190864" lon="11.48992762109869"><ele>549.6</ele><time>2026-04-11T15:13:50.999Z</time></trkpt><trkpt lat="43.05418103794425" lon="11.490048626498895"><ele>547.8</ele><time>2026-04-11T15:13:51.999Z</time></trkpt><trkpt lat="43.05425838267391" lon="11.490143262430186"><ele>546.0</ele><time>2026-04-11T15:13:52.999Z</time></trkpt><trkpt lat="43.05434285460197" lon="11.490224781502322"><ele>546.0</ele><time>2026-04-11T15:13:53.999Z</time></trkpt><trkpt lat="43.05444227598458" lon="11.490282096753583"><ele>546.0</ele><time>2026-04-11T15:13:54.999Z</time></trkpt><trkpt lat="43.05452620966526" lon="11.490365924136348"><ele>546.0</ele><time>2026-04-11T15:13:55.999Z</time></trkpt><trkpt lat="43.054609488099004" lon="11.49046562977728"><ele>546.0</ele><time>2026-04-11T15:13:56.999Z</time></trkpt><trkpt lat="43.054686763802806" lon="11.49057088454191"><ele>546.0</ele><time>2026-04-11T15:13:57.999Z</time></trkpt><trkpt lat="43.054767417607025" lon="11.490683498734423"><ele>544.4</ele><time>2026-04-11T15:13:58.999Z</time></trkpt><trkpt lat="43.05484063495352" lon="11.490780641572307"><ele>542.8</ele><time>2026-04-11T15:13:59.999Z</time></trkpt><trkpt lat="43.054904129186895" lon="11.490867783396698"><ele>541.1999999999999</ele><time>2026-04-11T15:14:00.998Z</time></trkpt><trkpt lat="43.05496402345967" lon="11.490959235440702"><ele>539.6</ele><time>2026-04-11T15:14:01.998Z</time></trkpt><trkpt lat="43.055017884013424" lon="11.491056970909522"><ele>538.0</ele><time>2026-04-11T15:14:02.998Z</time></trkpt><trkpt lat="43.05506872168192" lon="11.491165715486376"><ele>534.5</ele><time>2026-04-11T15:14:03.998Z</time></trkpt><trkpt lat="43.05511739028529" lon="11.491289867638056"><ele>531.0</ele><time>2026-04-11T15:14:04.998Z</time></trkpt><trkpt lat="43.05516982985577" lon="11.491398060146478"><ele>527.5</ele><time>2026-04-11T15:14:05.998Z</time></trkpt><trkpt lat="43.05521406967835" lon="11.491493905289339"><ele>524.0</ele><time>2026-04-11T15:14:06.998Z</time></trkpt><trkpt lat="43.05524678294045" lon="11.491580336430639"><ele>520.5</ele><time>2026-04-11T15:14:07.998Z</time></trkpt><trkpt lat="43.055288199220506" lon="11.491663263916813"><ele>517.0</ele><time>2026-04-11T15:14:08.998Z</time></trkpt><trkpt lat="43.05532757376961" lon="11.491734353011816"><ele>517.0</ele><time>2026-04-11T15:14:09.998Z</time></trkpt><trkpt lat="43.05539246060396" lon="11.491823838367937"><ele>517.0</ele><time>2026-04-11T15:14:11.998Z</time></trkpt><trkpt lat="43.055454096740874" lon="11.491922451050696"><ele>517.0</ele><time>2026-04-11T15:14:14.998Z</time></trkpt><trkpt lat="43.05541209066326" lon="11.492019726677388"><ele>517.0</ele><time>2026-04-11T15:14:18.998Z</time></trkpt><trkpt lat="43.05537680611153" lon="11.491895811641688"><ele>517.0</ele><time>2026-04-11T15:14:20.998Z</time></trkpt><trkpt lat="43.05530480998277" lon="11.491847951568351"><ele>517.0</ele><time>2026-04-11T15:14:22.998Z</time></trkpt><trkpt lat="43.05523590851057" lon="11.491759656749675"><ele>517.0</ele><time>2026-04-11T15:14:24.998Z</time></trkpt><trkpt lat="43.055159143394654" lon="11.491661453593549"><ele>517.0</ele><time>2026-04-11T15:14:26.998Z</time></trkpt><trkpt lat="43.055111827643195" lon="11.491513103648934"><ele>517.0</ele><time>2026-04-11T15:14:28.998Z</time></trkpt><trkpt lat="43.055029412680845" lon="11.491393673820212"><ele>517.0</ele><time>2026-04-11T15:14:30.998Z</time></trkpt><trkpt lat="43.05494514563656" lon="11.49125845869607"><ele>520.5</ele><time>2026-04-11T15:14:33Z</time></trkpt><trkpt lat="43.054900832347734" lon="11.49119101450936"><ele>524.0</ele><time>2026-04-11T15:14:34Z</time></trkpt><trkpt lat="43.0548512868886" lon="11.49112104004044"><ele>527.5</ele><time>2026-04-11T15:14:35Z</time></trkpt><trkpt lat="43.05479979020845" lon="11.491055014763818"><ele>531.0</ele><time>2026-04-11T15:14:36Z</time></trkpt><trkpt lat="43.054741968010205" lon="11.490992648867929"><ele>534.5</ele><time>2026-04-11T15:14:37Z</time></trkpt><trkpt lat="43.05465293965384" lon="11.490937057883817"><ele>538.0</ele><time>2026-04-11T15:14:38Z</time></trkpt><trkpt lat="43.054557423036954" lon="11.490929387546654"><ele>538.0</ele><time>2026-04-11T15:14:39Z</time></trkpt><trkpt lat="43.05445772362801" lon="11.490984453412915"><ele>538.0</ele><time>2026-04-11T15:14:40Z</time></trkpt><trkpt lat="43.05438738084904" lon="11.491063111959571"><ele>538.0</ele><time>2026-04-11T15:14:41Z</time></trkpt><trkpt lat="43.05433548745049" lon="11.491177390619981"><ele>538.0</ele><time>2026-04-11T15:14:42Z</time></trkpt><trkpt lat="43.05432564799602" lon="11.49132386632648"><ele>538.0</ele><time>2026-04-11T15:14:43Z</time></trkpt><trkpt lat="43.05435788966566" lon="11.491451544423734"><ele>537.6666666666667</ele><time>2026-04-11T15:14:44Z</time></trkpt><trkpt lat="43.05436402186064" lon="11.491567000733346"><ele>537.3333333333334</ele><time>2026-04-11T15:14:45Z</time></trkpt><trkpt lat="43.05438094419793" lon="11.491682154485956"><ele>537.0</ele><time>2026-04-11T15:14:46Z</time></trkpt><trkpt lat="43.05439719711758" lon="11.49179606221435"><ele>536.6666666666666</ele><time>2026-04-11T15:14:47Z</time></trkpt><trkpt lat="43.05441705598979" lon="11.49191509833164"><ele>536.3333333333333</ele><time>2026-04-11T15:14:48Z</time></trkpt><trkpt lat="43.05443024433785" lon="11.49203358978104"><ele>536.0</ele><time>2026-04-11T15:14:49Z</time></trkpt><trkpt lat="43.05444055986188" lon="11.492160201905621"><ele>533.6</ele><time>2026-04-11T15:14:50Z</time></trkpt><trkpt lat="43.05444840254407" lon="11.492291096032426"><ele>531.2</ele><time>2026-04-11T15:14:51Z</time></trkpt><trkpt lat="43.05443379198119" lon="11.49242856737278"><ele>528.8</ele><time>2026-04-11T15:14:52Z</time></trkpt><trkpt lat="43.054432454741004" lon="11.492564831420438"><ele>526.4</ele><time>2026-04-11T15:14:53Z</time></trkpt><trkpt lat="43.05441633523105" lon="11.492698651196568"><ele>524.0</ele><time>2026-04-11T15:14:54Z</time></trkpt><trkpt lat="43.054395442838306" lon="11.492832822397148"><ele>520.4</ele><time>2026-04-11T15:14:55Z</time></trkpt><trkpt lat="43.05436534163188" lon="11.492956761126944"><ele>516.8</ele><time>2026-04-11T15:14:56Z</time></trkpt><trkpt lat="43.05432433798128" lon="11.493060283431069"><ele>513.2</ele><time>2026-04-11T15:14:57Z</time></trkpt><trkpt lat="43.054275358040144" lon="11.493169807170071"><ele>509.6</ele><time>2026-04-11T15:14:58Z</time></trkpt><trkpt lat="43.05421707873502" lon="11.493270009259566"><ele>506.0</ele><time>2026-04-11T15:14:59Z</time></trkpt><trkpt lat="43.05415001841291" lon="11.493369715453415"><ele>506.4</ele><time>2026-04-11T15:15:00Z</time></trkpt><trkpt lat="43.054075600872565" lon="11.49345416739827"><ele>506.8</ele><time>2026-04-11T15:15:01Z</time></trkpt><trkpt lat="43.05399138913426" lon="11.493521382319656"><ele>507.19999999999993</ele><time>2026-04-11T15:15:02Z</time></trkpt><trkpt lat="43.05389860748621" lon="11.493597893342855"><ele>507.59999999999997</ele><time>2026-04-11T15:15:03Z</time></trkpt><trkpt lat="43.053806290658066" lon="11.493692293978109"><ele>508.0</ele><time>2026-04-11T15:15:04Z</time></trkpt><trkpt lat="43.053720801812226" lon="11.493793025047545"><ele>508.0</ele><time>2026-04-11T15:15:05Z</time></trkpt><trkpt lat="43.05364144122646" lon="11.493915818754019"><ele>508.0</ele><time>2026-04-11T15:15:06Z</time></trkpt><trkpt lat="43.05357527313879" lon="11.494046265552361"><ele>508.0</ele><time>2026-04-11T15:15:07Z</time></trkpt><trkpt lat="43.05352287230904" lon="11.494186961602676"><ele>508.0</ele><time>2026-04-11T15:15:08Z</time></trkpt><trkpt lat="43.05348737792647" lon="11.49433087988449"><ele>508.0</ele><time>2026-04-11T15:15:09Z</time></trkpt><trkpt lat="43.053481299620586" lon="11.494495648439486"><ele>508.0</ele><time>2026-04-11T15:15:10Z</time></trkpt><trkpt lat="43.05348609018084" lon="11.494653673570118"><ele>508.0</ele><time>2026-04-11T15:15:11Z</time></trkpt><trkpt lat="43.05349075366996" lon="11.494799956304941"><ele>508.0</ele><time>2026-04-11T15:15:12Z</time></trkpt><trkpt lat="43.05349811426959" lon="11.494949869285902"><ele>507.4</ele><time>2026-04-11T15:15:13Z</time></trkpt><trkpt lat="43.05353551184682" lon="11.495091098936436"><ele>506.79999999999995</ele><time>2026-04-11T15:15:14Z</time></trkpt><trkpt lat="43.05354437134216" lon="11.49524024686454"><ele>506.2</ele><time>2026-04-11T15:15:15Z</time></trkpt><trkpt lat="43.05355284787369" lon="11.495386047913858"><ele>505.6</ele><time>2026-04-11T15:15:16Z</time></trkpt><trkpt lat="43.05356069253939" lon="11.495535116418662"><ele>505.0</ele><time>2026-04-11T15:15:17Z</time></trkpt><trkpt lat="43.05353903132208" lon="11.49568328363683"><ele>504.8</ele><time>2026-04-11T15:15:18Z</time></trkpt><trkpt lat="43.053535057529004" lon="11.495827486310166"><ele>504.6</ele><time>2026-04-11T15:15:18.999Z</time></trkpt><trkpt lat="43.05352619672393" lon="11.495972945677687"><ele>504.4</ele><time>2026-04-11T15:15:19.999Z</time></trkpt><trkpt lat="43.0535122751584" lon="11.49611876175711"><ele>504.2</ele><time>2026-04-11T15:15:20.999Z</time></trkpt><trkpt lat="43.05349591615389" lon="11.496264374141635"><ele>504.0</ele><time>2026-04-11T15:15:21.999Z</time></trkpt><trkpt lat="43.053479521210285" lon="11.496410980159835"><ele>503.0</ele><time>2026-04-11T15:15:22.999Z</time></trkpt><trkpt lat="43.053463803359485" lon="11.496554994841926"><ele>502.0</ele><time>2026-04-11T15:15:23.999Z</time></trkpt><trkpt lat="43.053448189217235" lon="11.49669417874305"><ele>501.0</ele><time>2026-04-11T15:15:24.999Z</time></trkpt><trkpt lat="43.05343068184163" lon="11.49682854988358"><ele>500.0</ele><time>2026-04-11T15:15:25.999Z</time></trkpt><trkpt lat="43.053409818029515" lon="11.496963922007879"><ele>499.0</ele><time>2026-04-11T15:15:26.999Z</time></trkpt><trkpt lat="43.05338540565668" lon="11.497093259302739"><ele>498.4</ele><time>2026-04-11T15:15:27.999Z</time></trkpt><trkpt lat="43.053351663499605" lon="11.497214259605892"><ele>497.79999999999995</ele><time>2026-04-11T15:15:28.999Z</time></trkpt><trkpt lat="43.05331477088793" lon="11.497336860872423"><ele>497.20000000000005</ele><time>2026-04-11T15:15:29.999Z</time></trkpt><trkpt lat="43.0532736285346" lon="11.497452560441294"><ele>496.6</ele><time>2026-04-11T15:15:30.999Z</time></trkpt><trkpt lat="43.05323060519289" lon="11.497567562216378"><ele>496.0</ele><time>2026-04-11T15:15:31.999Z</time></trkpt><trkpt lat="43.05318407478968" lon="11.497679323864293"><ele>496.8</ele><time>2026-04-11T15:15:32.999Z</time></trkpt><trkpt lat="43.053134797392815" lon="11.497788406059216"><ele>497.6</ele><time>2026-04-11T15:15:33.999Z</time></trkpt><trkpt lat="43.05308503275307" lon="11.497896049555147"><ele>498.4</ele><time>2026-04-11T15:15:34.999Z</time></trkpt><trkpt lat="43.05303448624842" lon="11.49800513226937"><ele>499.2</ele><time>2026-04-11T15:15:35.999Z</time></trkpt><trkpt lat="43.05298563734718" lon="11.49811389179125"><ele>500.0</ele><time>2026-04-11T15:15:36.999Z</time></trkpt><trkpt lat="43.05293953037277" lon="11.498216546551925"><ele>500.0</ele><time>2026-04-11T15:15:37.999Z</time></trkpt><trkpt lat="43.052891511232446" lon="11.498325147605303"><ele>500.0</ele><time>2026-04-11T15:15:38.999Z</time></trkpt><trkpt lat="43.052843072954786" lon="11.498435628295832"><ele>500.0</ele><time>2026-04-11T15:15:39.999Z</time></trkpt><trkpt lat="43.05279393369997" lon="11.49855071880079"><ele>500.0</ele><time>2026-04-11T15:15:40.999Z</time></trkpt><trkpt lat="43.05274568069193" lon="11.498666456506529"><ele>500.0</ele><time>2026-04-11T15:15:41.999Z</time></trkpt><trkpt lat="43.05269778819091" lon="11.498783409212951"><ele>498.6</ele><time>2026-04-11T15:15:42.999Z</time></trkpt><trkpt lat="43.05264953033937" lon="11.4989017791475"><ele>497.2</ele><time>2026-04-11T15:15:43.999Z</time></trkpt><trkpt lat="43.0526008644521" lon="11.499021149946632"><ele>495.79999999999995</ele><time>2026-04-11T15:15:44.999Z</time></trkpt><trkpt lat="43.05255260249645" lon="11.499139529954983"><ele>494.4</ele><time>2026-04-11T15:15:45.999Z</time></trkpt><trkpt lat="43.052503888747395" lon="11.499259018142556"><ele>493.0</ele><time>2026-04-11T15:15:46.999Z</time></trkpt><trkpt lat="43.05245492614425" lon="11.499379116737943"><ele>493.0</ele><time>2026-04-11T15:15:47.999Z</time></trkpt><trkpt lat="43.05240558307055" lon="11.499500148587513"><ele>492.99999999999994</ele><time>2026-04-11T15:15:48.999Z</time></trkpt><trkpt lat="43.052354923130814" lon="11.499622214723502"><ele>492.99999999999994</ele><time>2026-04-11T15:15:49.999Z</time></trkpt><trkpt lat="43.052304045336875" lon="11.499748024798977"><ele>493.0</ele><time>2026-04-11T15:15:50.999Z</time></trkpt><trkpt lat="43.0522536855794" lon="11.499872553847318"><ele>493.0</ele><time>2026-04-11T15:15:51.999Z</time></trkpt><trkpt lat="43.05220262946847" lon="11.499997093450892"><ele>490.2</ele><time>2026-04-11T15:15:52.999Z</time></trkpt><trkpt lat="43.052151449627836" lon="11.500120492075569"><ele>487.4</ele><time>2026-04-11T15:15:53.999Z</time></trkpt><trkpt lat="43.05210243929497" lon="11.50023865965123"><ele>484.59999999999997</ele><time>2026-04-11T15:15:54.999Z</time></trkpt><trkpt lat="43.05205331379594" lon="11.50036244389885"><ele>481.79999999999995</ele><time>2026-04-11T15:15:55.999Z</time></trkpt><trkpt lat="43.05200841658535" lon="11.500480757057025"><ele>479.0</ele><time>2026-04-11T15:15:56.999Z</time></trkpt><trkpt lat="43.05202710562791" lon="11.500647565226537"><ele>478.0</ele><time>2026-04-11T15:15:57.999Z</time></trkpt><trkpt lat="43.051996531255384" lon="11.500777455514156"><ele>477.0</ele><time>2026-04-11T15:15:58.999Z</time></trkpt><trkpt lat="43.051975777494114" lon="11.500911727208422"><ele>476.0</ele><time>2026-04-11T15:15:59.999Z</time></trkpt><trkpt lat="43.0519650651287" lon="11.501049190034884"><ele>475.0</ele><time>2026-04-11T15:16:00.999Z</time></trkpt><trkpt lat="43.051916913450945" lon="11.50119003875909"><ele>474.0</ele><time>2026-04-11T15:16:01.999Z</time></trkpt><trkpt lat="43.05191805423647" lon="11.501332351928564"><ele>473.0</ele><time>2026-04-11T15:16:02.999Z</time></trkpt><trkpt lat="43.05192264404184" lon="11.501478562943976"><ele>472.0</ele><time>2026-04-11T15:16:03.999Z</time></trkpt><trkpt lat="43.051929705773475" lon="11.501623245098404"><ele>471.0</ele><time>2026-04-11T15:16:04.999Z</time></trkpt><trkpt lat="43.05193368554966" lon="11.50176726516675"><ele>470.0</ele><time>2026-04-11T15:16:05.999Z</time></trkpt><trkpt lat="43.051928755442866" lon="11.501899311863344"><ele>469.0</ele><time>2026-04-11T15:16:06.999Z</time></trkpt><trkpt lat="43.0519160553451" lon="11.502036501367613"><ele>468.4</ele><time>2026-04-11T15:16:07.998Z</time></trkpt><trkpt lat="43.05189541577279" lon="11.502170728013972"><ele>467.79999999999995</ele><time>2026-04-11T15:16:08.998Z</time></trkpt><trkpt lat="43.05186508050388" lon="11.502296247130621"><ele>467.20000000000005</ele><time>2026-04-11T15:16:09.998Z</time></trkpt><trkpt lat="43.0518286855826" lon="11.502419218668289"><ele>466.6</ele><time>2026-04-11T15:16:10.998Z</time></trkpt><trkpt lat="43.051793234511706" lon="11.502550211922289"><ele>466.0</ele><time>2026-04-11T15:16:11.998Z</time></trkpt><trkpt lat="43.05176058184427" lon="11.502682455188749"><ele>466.0</ele><time>2026-04-11T15:16:12.998Z</time></trkpt><trkpt lat="43.051733818326724" lon="11.502822970529811"><ele>466.0</ele><time>2026-04-11T15:16:13.998Z</time></trkpt><trkpt lat="43.051726430989376" lon="11.502963039760678"><ele>466.0</ele><time>2026-04-11T15:16:14.998Z</time></trkpt><trkpt lat="43.05173036686114" lon="11.503103519771882"><ele>466.0</ele><time>2026-04-11T15:16:15.998Z</time></trkpt><trkpt lat="43.051754558041424" lon="11.503246387302374"><ele>466.0</ele><time>2026-04-11T15:16:16.998Z</time></trkpt><trkpt lat="43.051796273562935" lon="11.503381857704191"><ele>465.6</ele><time>2026-04-11T15:16:17.998Z</time></trkpt><trkpt lat="43.05185091383371" lon="11.50351095005302"><ele>465.20000000000005</ele><time>2026-04-11T15:16:18.998Z</time></trkpt><trkpt lat="43.05190287106068" lon="11.503628282706654"><ele>464.79999999999995</ele><time>2026-04-11T15:16:19.998Z</time></trkpt><trkpt lat="43.0519649353299" lon="11.5037290729321"><ele>464.4</ele><time>2026-04-11T15:16:20.998Z</time></trkpt><trkpt lat="43.05199891247449" lon="11.50384757559556"><ele>464.0</ele><time>2026-04-11T15:16:21.998Z</time></trkpt><trkpt lat="43.0520434126981" lon="11.503954798097118"><ele>462.66666666666663</ele><time>2026-04-11T15:16:22.998Z</time></trkpt><trkpt lat="43.052089162984025" lon="11.5040651598804"><ele>461.3333333333333</ele><time>2026-04-11T15:16:23.998Z</time></trkpt><trkpt lat="43.05213580854791" lon="11.50417768626929"><ele>460.0</ele><time>2026-04-11T15:16:24.998Z</time></trkpt><trkpt lat="43.05217723730844" lon="11.504284222849593"><ele>458.66666666666663</ele><time>2026-04-11T15:16:25.998Z</time></trkpt><trkpt lat="43.05221290895382" lon="11.5043880996679"><ele>457.3333333333333</ele><time>2026-04-11T15:16:26.998Z</time></trkpt><trkpt lat="43.05224277094558" lon="11.504477685664623"><ele>456.0</ele><time>2026-04-11T15:16:27.998Z</time></trkpt><trkpt lat="43.05228706518475" lon="11.504616608849213"><ele>454.6666666666667</ele><time>2026-04-11T15:16:29.998Z</time></trkpt><trkpt lat="43.05230096513157" lon="11.50477648327687"><ele>453.33333333333337</ele><time>2026-04-11T15:16:31.998Z</time></trkpt><trkpt lat="43.05229142785133" lon="11.504902126462017"><ele>452.0</ele><time>2026-04-11T15:16:33.998Z</time></trkpt><trkpt lat="43.052270351437244" lon="11.504984279715924"><ele>450.6666666666667</ele><time>2026-04-11T15:16:34.998Z</time></trkpt><trkpt lat="43.052287125315196" lon="11.505071330262776"><ele>449.33333333333337</ele><time>2026-04-11T15:16:35.998Z</time></trkpt><trkpt lat="43.05235497175026" lon="11.505131072314885"><ele>448.0</ele><time>2026-04-11T15:16:36.998Z</time></trkpt><trkpt lat="43.05245492106941" lon="11.50504005581072"><ele>450.0</ele><time>2026-04-11T15:16:39Z</time></trkpt><trkpt lat="43.05250686212014" lon="11.504956965784098"><ele>451.99999999999994</ele><time>2026-04-11T15:16:41Z</time></trkpt><trkpt lat="43.05259576345635" lon="11.504980185087655"><ele>453.99999999999994</ele><time>2026-04-11T15:16:42Z</time></trkpt><trkpt lat="43.05267863488337" lon="11.505064522894877"><ele>456.0</ele><time>2026-04-11T15:16:43Z</time></trkpt><trkpt lat="43.05279372459545" lon="11.505105243467002"><ele>458.0</ele><time>2026-04-11T15:16:45Z</time></trkpt><trkpt lat="43.05285569415983" lon="11.505137570994595"><ele>457.99999999999994</ele><time>2026-04-11T15:16:46Z</time></trkpt><trkpt lat="43.05292122897219" lon="11.505176926548115"><ele>458.0</ele><time>2026-04-11T15:16:47Z</time></trkpt><trkpt lat="43.052988907043066" lon="11.50522102820173"><ele>458.0</ele><time>2026-04-11T15:16:48Z</time></trkpt><trkpt lat="43.05305893133307" lon="11.505274240782946"><ele>458.0</ele><time>2026-04-11T15:16:49Z</time></trkpt><trkpt lat="43.05311421831738" lon="11.505366422514468"><ele>457.99999999999994</ele><time>2026-04-11T15:16:50Z</time></trkpt><trkpt lat="43.053166969866034" lon="11.505458174531698"><ele>458.0</ele><time>2026-04-11T15:16:51Z</time></trkpt><trkpt lat="43.053208584672035" lon="11.505568369744624"><ele>457.59999999999997</ele><time>2026-04-11T15:16:52Z</time></trkpt><trkpt lat="43.05324662122806" lon="11.505692894037969"><ele>457.19999999999993</ele><time>2026-04-11T15:16:53Z</time></trkpt><trkpt lat="43.053255639536594" lon="11.505820459578167"><ele>456.8</ele><time>2026-04-11T15:16:54Z</time></trkpt><trkpt lat="43.05324714183658" lon="11.505960103776228"><ele>456.4</ele><time>2026-04-11T15:16:55Z</time></trkpt><trkpt lat="43.053231322004144" lon="11.50611518072658"><ele>456.0</ele><time>2026-04-11T15:16:56Z</time></trkpt><trkpt lat="43.053210712568024" lon="11.506276137793991"><ele>455.25</ele><time>2026-04-11T15:16:57Z</time></trkpt><trkpt lat="43.05318942797484" lon="11.506444389744116"><ele>454.5</ele><time>2026-04-11T15:16:58Z</time></trkpt><trkpt lat="43.053169720425736" lon="11.506613832660138"><ele>453.75</ele><time>2026-04-11T15:16:59Z</time></trkpt><trkpt lat="43.05314936590405" lon="11.506788459084106"><ele>453.0</ele><time>2026-04-11T15:17:00Z</time></trkpt><trkpt lat="43.053128778858316" lon="11.50696508015391"><ele>451.0</ele><time>2026-04-11T15:17:01Z</time></trkpt><trkpt lat="43.0531066987245" lon="11.507146248306205"><ele>449.0</ele><time>2026-04-11T15:17:02Z</time></trkpt><trkpt lat="43.05308432656317" lon="11.507332076070062"><ele>447.0</ele><time>2026-04-11T15:17:03Z</time></trkpt><trkpt lat="43.053062483434495" lon="11.507514688902393"><ele>445.0</ele><time>2026-04-11T15:17:04Z</time></trkpt><trkpt lat="43.053042914669064" lon="11.507688942526606"><ele>445.0</ele><time>2026-04-11T15:17:05Z</time></trkpt><trkpt lat="43.053022641075486" lon="11.507869472401088"><ele>445.0</ele><time>2026-04-11T15:17:06Z</time></trkpt><trkpt lat="43.053001813399376" lon="11.50805332862009"><ele>445.0</ele><time>2026-04-11T15:17:07Z</time></trkpt><trkpt lat="43.052979008825815" lon="11.508243330174286"><ele>445.0</ele><time>2026-04-11T15:17:08Z</time></trkpt><trkpt lat="43.05296723311968" lon="11.508433833335994"><ele>442.75</ele><time>2026-04-11T15:17:09Z</time></trkpt><trkpt lat="43.05296956839766" lon="11.508630465346725"><ele>440.5</ele><time>2026-04-11T15:17:10Z</time></trkpt><trkpt lat="43.052985520620304" lon="11.50883192430105"><ele>438.25</ele><time>2026-04-11T15:17:11Z</time></trkpt><trkpt lat="43.053021477778316" lon="11.50904120309858"><ele>436.0</ele><time>2026-04-11T15:17:12Z</time></trkpt><trkpt lat="43.05305906733959" lon="11.509218766026914"><ele>434.0</ele><time>2026-04-11T15:17:13Z</time></trkpt><trkpt lat="43.05309460960809" lon="11.509384913500568"><ele>432.0</ele><time>2026-04-11T15:17:14Z</time></trkpt><trkpt lat="43.05313200991505" lon="11.509560857783683"><ele>430.0</ele><time>2026-04-11T15:17:15Z</time></trkpt><trkpt lat="43.05317595753419" lon="11.509739573297404"><ele>428.0</ele><time>2026-04-11T15:17:16Z</time></trkpt><trkpt lat="43.05323241202599" lon="11.50991085837219"><ele>427.25</ele><time>2026-04-11T15:17:17Z</time></trkpt><trkpt lat="43.053312368131124" lon="11.510075543852905"><ele>426.5</ele><time>2026-04-11T15:17:18Z</time></trkpt><trkpt lat="43.053410557501216" lon="11.510216935426238"><ele>425.75</ele><time>2026-04-11T15:17:19Z</time></trkpt><trkpt lat="43.053524123006234" lon="11.51033875030848"><ele>425.0</ele><time>2026-04-11T15:17:20Z</time></trkpt><trkpt lat="43.053643397734724" lon="11.51044930618841"><ele>423.25</ele><time>2026-04-11T15:17:21Z</time></trkpt><trkpt lat="43.05377360630114" lon="11.510527077049622"><ele>421.5</ele><time>2026-04-11T15:17:22Z</time></trkpt><trkpt lat="43.053897652323144" lon="11.510597943507339"><ele>419.75</ele><time>2026-04-11T15:17:23Z</time></trkpt><trkpt lat="43.05403264377387" lon="11.510644981775183"><ele>418.0</ele><time>2026-04-11T15:17:23.999Z</time></trkpt><trkpt lat="43.054164616784995" lon="11.51066366943912"><ele>417.5</ele><time>2026-04-11T15:17:24.999Z</time></trkpt><trkpt lat="43.05429694789254" lon="11.510649346779402"><ele>417.0</ele><time>2026-04-11T15:17:25.999Z</time></trkpt><trkpt lat="43.05442869328102" lon="11.510604369832235"><ele>416.5</ele><time>2026-04-11T15:17:26.999Z</time></trkpt><trkpt lat="43.05455747248597" lon="11.510533641659629"><ele>416.0</ele><time>2026-04-11T15:17:27.999Z</time></trkpt><trkpt lat="43.054676468834465" lon="11.51043105061695"><ele>414.25</ele><time>2026-04-11T15:17:28.999Z</time></trkpt><trkpt lat="43.054782229916896" lon="11.510306583918132"><ele>412.5</ele><time>2026-04-11T15:17:29.999Z</time></trkpt><trkpt lat="43.05488422689676" lon="11.510173988863393"><ele>410.75</ele><time>2026-04-11T15:17:30.999Z</time></trkpt><trkpt lat="43.054962219748155" lon="11.51001350279146"><ele>409.0</ele><time>2026-04-11T15:17:31.999Z</time></trkpt><trkpt lat="43.0550512253118" lon="11.509865786813737"><ele>409.0</ele><time>2026-04-11T15:17:32.999Z</time></trkpt><trkpt lat="43.055096664274636" lon="11.509684133369"><ele>409.0</ele><time>2026-04-11T15:17:33.999Z</time></trkpt><trkpt lat="43.05515453186157" lon="11.509509914104676"><ele>409.0</ele><time>2026-04-11T15:17:34.999Z</time></trkpt><trkpt lat="43.05521285352684" lon="11.509336702210403"><ele>409.0</ele><time>2026-04-11T15:17:35.999Z</time></trkpt><trkpt lat="43.05528481088687" lon="11.50917376489498"><ele>410.25</ele><time>2026-04-11T15:17:36.999Z</time></trkpt><trkpt lat="43.05537473972196" lon="11.509023554474416"><ele>411.5</ele><time>2026-04-11T15:17:37.999Z</time></trkpt><trkpt lat="43.05547065995288" lon="11.508886218391433"><ele>412.75</ele><time>2026-04-11T15:17:38.999Z</time></trkpt><trkpt lat="43.05558344889567" lon="11.508772701818506"><ele>414.0</ele><time>2026-04-11T15:17:39.999Z</time></trkpt><trkpt lat="43.05568528632912" lon="11.508646778588"><ele>414.2</ele><time>2026-04-11T15:17:40.999Z</time></trkpt><trkpt lat="43.0557728616187" lon="11.508531777512047"><ele>414.4</ele><time>2026-04-11T15:17:41.999Z</time></trkpt><trkpt lat="43.055839639024626" lon="11.508413391669357"><ele>414.6</ele><time>2026-04-11T15:17:42.999Z</time></trkpt><trkpt lat="43.05590148786279" lon="11.508304265545611"><ele>414.8</ele><time>2026-04-11T15:17:43.999Z</time></trkpt><trkpt lat="43.055950422483704" lon="11.508179358165124"><ele>415.0</ele><time>2026-04-11T15:17:44.999Z</time></trkpt><trkpt lat="43.05598001672958" lon="11.508042971158059"><ele>411.2</ele><time>2026-04-11T15:17:45.999Z</time></trkpt><trkpt lat="43.05599556013686" lon="11.507897747657383"><ele>407.4</ele><time>2026-04-11T15:17:46.999Z</time></trkpt><trkpt lat="43.056002327707574" lon="11.50774853053077"><ele>403.6</ele><time>2026-04-11T15:17:47.999Z</time></trkpt><trkpt lat="43.0560029805894" lon="11.507602525950217"><ele>399.8</ele><time>2026-04-11T15:17:48.999Z</time></trkpt><trkpt lat="43.05599701420483" lon="11.507463886796607"><ele>396.0</ele><time>2026-04-11T15:17:49.999Z</time></trkpt><trkpt lat="43.055984811513696" lon="11.50733596525816"><ele>396.0</ele><time>2026-04-11T15:17:50.999Z</time></trkpt><trkpt lat="43.05596601179869" lon="11.507208573124798"><ele>396.0</ele><time>2026-04-11T15:17:51.999Z</time></trkpt><trkpt lat="43.05594084167588" lon="11.507078873214937"><ele>396.0</ele><time>2026-04-11T15:17:52.999Z</time></trkpt><trkpt lat="43.05588523438281" lon="11.506964789445153"><ele>396.0</ele><time>2026-04-11T15:17:53.999Z</time></trkpt><trkpt lat="43.05581785672546" lon="11.506862718450265"><ele>396.0</ele><time>2026-04-11T15:17:54.999Z</time></trkpt><trkpt lat="43.05574968606966" lon="11.506759451852117"><ele>397.20000000000005</ele><time>2026-04-11T15:17:55.999Z</time></trkpt><trkpt lat="43.05568823351266" lon="11.506641357058422"><ele>398.40000000000003</ele><time>2026-04-11T15:17:56.999Z</time></trkpt><trkpt lat="43.055635391996866" lon="11.506515113129225"><ele>399.6</ele><time>2026-04-11T15:17:57.999Z</time></trkpt><trkpt lat="43.05557321490246" lon="11.506386405077468"><ele>400.8</ele><time>2026-04-11T15:17:58.999Z</time></trkpt><trkpt lat="43.05554221999551" lon="11.506231988239639"><ele>402.0</ele><time>2026-04-11T15:17:59.999Z</time></trkpt><trkpt lat="43.055575952332724" lon="11.506069186505925"><ele>402.5</ele><time>2026-04-11T15:18:00.999Z</time></trkpt><trkpt lat="43.05558835157715" lon="11.50591561075812"><ele>403.0</ele><time>2026-04-11T15:18:01.999Z</time></trkpt><trkpt lat="43.05562435515156" lon="11.505765726019366"><ele>403.5</ele><time>2026-04-11T15:18:02.999Z</time></trkpt><trkpt lat="43.05567130899731" lon="11.505621782378165"><ele>404.0</ele><time>2026-04-11T15:18:03.999Z</time></trkpt><trkpt lat="43.05572373083744" lon="11.50547743958339"><ele>403.5</ele><time>2026-04-11T15:18:04.999Z</time></trkpt><trkpt lat="43.055770614618886" lon="11.505328508228173"><ele>403.0</ele><time>2026-04-11T15:18:05.999Z</time></trkpt><trkpt lat="43.055817282875154" lon="11.505176506294628"><ele>402.5</ele><time>2026-04-11T15:18:06.999Z</time></trkpt><trkpt lat="43.05586932036878" lon="11.505028606164974"><ele>402.0</ele><time>2026-04-11T15:18:07.999Z</time></trkpt><trkpt lat="43.05593510739" lon="11.504888749017224"><ele>399.0</ele><time>2026-04-11T15:18:08.999Z</time></trkpt><trkpt lat="43.05600503123032" lon="11.504753882505588"><ele>396.0</ele><time>2026-04-11T15:18:09.999Z</time></trkpt><trkpt lat="43.056077407136" lon="11.504620783224002"><ele>393.0</ele><time>2026-04-11T15:18:10.999Z</time></trkpt><trkpt lat="43.05614989664622" lon="11.504486080747336"><ele>390.0</ele><time>2026-04-11T15:18:11.999Z</time></trkpt><trkpt lat="43.056223283636335" lon="11.504352541931818"><ele>390.0</ele><time>2026-04-11T15:18:12.999Z</time></trkpt><trkpt lat="43.05629959451183" lon="11.50421896298017"><ele>390.0</ele><time>2026-04-11T15:18:13.998Z</time></trkpt><trkpt lat="43.05638483904503" lon="11.504097597727153"><ele>390.0</ele><time>2026-04-11T15:18:14.998Z</time></trkpt><trkpt lat="43.056490832270136" lon="11.504003260789155"><ele>390.0</ele><time>2026-04-11T15:18:15.998Z</time></trkpt><trkpt lat="43.056601859906024" lon="11.503923239374496"><ele>388.5</ele><time>2026-04-11T15:18:16.998Z</time></trkpt><trkpt lat="43.05672012184299" lon="11.503851888464833"><ele>387.0</ele><time>2026-04-11T15:18:17.998Z</time></trkpt><trkpt lat="43.05683962914183" lon="11.503777582034186"><ele>385.5</ele><time>2026-04-11T15:18:18.998Z</time></trkpt><trkpt lat="43.0569577262933" lon="11.503699096165397"><ele>384.0</ele><time>2026-04-11T15:18:19.998Z</time></trkpt><trkpt lat="43.057078215610154" lon="11.503621789435954"><ele>384.0</ele><time>2026-04-11T15:18:20.998Z</time></trkpt><trkpt lat="43.05720560019467" lon="11.503559185692678"><ele>384.0</ele><time>2026-04-11T15:18:21.998Z</time></trkpt><trkpt lat="43.05733669203055" lon="11.503510537628728"><ele>384.0</ele><time>2026-04-11T15:18:22.998Z</time></trkpt><trkpt lat="43.05746346821157" lon="11.503475165307039"><ele>384.0</ele><time>2026-04-11T15:18:23.998Z</time></trkpt><trkpt lat="43.0575628828942" lon="11.50343795401704"><ele>381.6</ele><time>2026-04-11T15:18:24.998Z</time></trkpt><trkpt lat="43.05765111967542" lon="11.503399589693688"><ele>379.2</ele><time>2026-04-11T15:18:25.998Z</time></trkpt><trkpt lat="43.057724657424615" lon="11.503307227990508"><ele>376.8</ele><time>2026-04-11T15:18:26.998Z</time></trkpt><trkpt lat="43.05777756202402" lon="11.503196633041938"><ele>374.40000000000003</ele><time>2026-04-11T15:18:27.998Z</time></trkpt><trkpt lat="43.05781010398596" lon="11.503075002049972"><ele>372.0</ele><time>2026-04-11T15:18:28.998Z</time></trkpt><trkpt lat="43.05782785804438" lon="11.50294338211762"><ele>372.6</ele><time>2026-04-11T15:18:29.998Z</time></trkpt><trkpt lat="43.057832908641274" lon="11.502803819965546"><ele>373.20000000000005</ele><time>2026-04-11T15:18:30.998Z</time></trkpt><trkpt lat="43.05782645109981" lon="11.502657866728237"><ele>373.8</ele><time>2026-04-11T15:18:31.998Z</time></trkpt><trkpt lat="43.05783657999426" lon="11.502497746301103"><ele>374.4</ele><time>2026-04-11T15:18:32.998Z</time></trkpt><trkpt lat="43.057867303382224" lon="11.502356823781314"><ele>375.0</ele><time>2026-04-11T15:18:33.998Z</time></trkpt><trkpt lat="43.05793570319676" lon="11.502234893247804"><ele>375.0</ele><time>2026-04-11T15:18:34.998Z</time></trkpt><trkpt lat="43.05803517874557" lon="11.502172154519656"><ele>375.0</ele><time>2026-04-11T15:18:35.998Z</time></trkpt><trkpt lat="43.058120659751715" lon="11.502106095147873"><ele>375.0</ele><time>2026-04-11T15:18:36.998Z</time></trkpt><trkpt lat="43.058214742254805" lon="11.502064256172913"><ele>375.0</ele><time>2026-04-11T15:18:37.998Z</time></trkpt><trkpt lat="43.058309046301964" lon="11.502039218047392"><ele>375.0</ele><time>2026-04-11T15:18:38.998Z</time></trkpt><trkpt lat="43.05840542559249" lon="11.502023873209446"><ele>373.2</ele><time>2026-04-11T15:18:39.998Z</time></trkpt><trkpt lat="43.058491299073836" lon="11.502075749392457"><ele>371.4</ele><time>2026-04-11T15:18:40.998Z</time></trkpt><trkpt lat="43.058550432075904" lon="11.502151118831701"><ele>369.6</ele><time>2026-04-11T15:18:41.998Z</time></trkpt><trkpt lat="43.0586257011984" lon="11.502229403488935"><ele>367.8</ele><time>2026-04-11T15:18:42.998Z</time></trkpt><trkpt lat="43.05869857333306" lon="11.502312583225926"><ele>366.0</ele><time>2026-04-11T15:18:44Z</time></trkpt><trkpt lat="43.058775671920046" lon="11.502404997363998"><ele>365.20000000000005</ele><time>2026-04-11T15:18:45Z</time></trkpt><trkpt lat="43.05885829722905" lon="11.502503027083408"><ele>364.40000000000003</ele><time>2026-04-11T15:18:46Z</time></trkpt><trkpt lat="43.05893935244444" lon="11.502596896035962"><ele>363.6</ele><time>2026-04-11T15:18:47Z</time></trkpt><trkpt lat="43.05902286728542" lon="11.502695761388742"><ele>362.8</ele><time>2026-04-11T15:18:48Z</time></trkpt><trkpt lat="43.059115779435665" lon="11.502799816355976"><ele>362.0</ele><time>2026-04-11T15:18:49Z</time></trkpt><trkpt lat="43.059220685068055" lon="11.502894406174635"><ele>357.0</ele><time>2026-04-11T15:18:50Z</time></trkpt><trkpt lat="43.05933262803889" lon="11.502968226299448"><ele>352.0</ele><time>2026-04-11T15:18:51Z</time></trkpt><trkpt lat="43.05945939415215" lon="11.503010025881418"><ele>347.0</ele><time>2026-04-11T15:18:52Z</time></trkpt><trkpt lat="43.05958431124844" lon="11.503038856624427"><ele>342.0</ele><time>2026-04-11T15:18:53Z</time></trkpt><trkpt lat="43.05971040610229" lon="11.503055930198014"><ele>342.0</ele><time>2026-04-11T15:18:54Z</time></trkpt><trkpt lat="43.05983525414417" lon="11.503068900730844"><ele>342.0</ele><time>2026-04-11T15:18:55Z</time></trkpt><trkpt lat="43.05996131787344" lon="11.503078142645753"><ele>342.0</ele><time>2026-04-11T15:18:56Z</time></trkpt><trkpt lat="43.06008455777912" lon="11.503051333991682"><ele>342.0</ele><time>2026-04-11T15:18:57Z</time></trkpt><trkpt lat="43.06019860966104" lon="11.503038243297217"><ele>341.0</ele><time>2026-04-11T15:18:58Z</time></trkpt><trkpt lat="43.060313427131106" lon="11.502997706360423"><ele>340.0</ele><time>2026-04-11T15:18:59Z</time></trkpt><trkpt lat="43.060423597011976" lon="11.502933135756171"><ele>339.0</ele><time>2026-04-11T15:19:00Z</time></trkpt><trkpt lat="43.060526626463854" lon="11.502845588844384"><ele>338.0</ele><time>2026-04-11T15:19:01Z</time></trkpt><trkpt lat="43.06061694711339" lon="11.50273555913053"><ele>339.0</ele><time>2026-04-11T15:19:02Z</time></trkpt><trkpt lat="43.060678490575555" lon="11.502588981884166"><ele>340.0</ele><time>2026-04-11T15:19:03Z</time></trkpt><trkpt lat="43.060744192461335" lon="11.502449458797663"><ele>341.0</ele><time>2026-04-11T15:19:04Z</time></trkpt><trkpt lat="43.06083273710672" lon="11.502330105774421"><ele>342.0</ele><time>2026-04-11T15:19:05Z</time></trkpt><trkpt lat="43.06093282582365" lon="11.502237473800538"><ele>342.0</ele><time>2026-04-11T15:19:06Z</time></trkpt><trkpt lat="43.06103226467948" lon="11.502153433478295"><ele>342.0</ele><time>2026-04-11T15:19:07Z</time></trkpt><trkpt lat="43.061146902117294" lon="11.502100683043016"><ele>342.0</ele><time>2026-04-11T15:19:08Z</time></trkpt><trkpt lat="43.06126778331271" lon="11.502079215651772"><ele>342.0</ele><time>2026-04-11T15:19:09Z</time></trkpt><trkpt lat="43.06138651771796" lon="11.502066227254826"><ele>342.0</ele><time>2026-04-11T15:19:10Z</time></trkpt><trkpt lat="43.06150486382406" lon="11.502037060205183"><ele>342.0</ele><time>2026-04-11T15:19:11Z</time></trkpt><trkpt lat="43.06161820180173" lon="11.501989597041531"><ele>342.0</ele><time>2026-04-11T15:19:12Z</time></trkpt><trkpt lat="43.06173083636506" lon="11.501923699162232"><ele>342.0</ele><time>2026-04-11T15:19:13Z</time></trkpt><trkpt lat="43.06183975793935" lon="11.501844278814504"><ele>342.0</ele><time>2026-04-11T15:19:14Z</time></trkpt><trkpt lat="43.061946231465456" lon="11.501756216612502"><ele>342.0</ele><time>2026-04-11T15:19:15Z</time></trkpt><trkpt lat="43.06205038790632" lon="11.501657946039222"><ele>342.0</ele><time>2026-04-11T15:19:16Z</time></trkpt><trkpt lat="43.062153310743724" lon="11.501555894448543"><ele>342.0</ele><time>2026-04-11T15:19:17Z</time></trkpt><trkpt lat="43.062258712158716" lon="11.501460382971597"><ele>342.0</ele><time>2026-04-11T15:19:18Z</time></trkpt><trkpt lat="43.06236300865954" lon="11.501368835338132"><ele>342.0</ele><time>2026-04-11T15:19:19Z</time></trkpt><trkpt lat="43.062465013883426" lon="11.501275487772254"><ele>342.0</ele><time>2026-04-11T15:19:20Z</time></trkpt><trkpt lat="43.062564527941745" lon="11.501186086760297"><ele>342.0</ele><time>2026-04-11T15:19:21Z</time></trkpt><trkpt lat="43.06266485692958" lon="11.501101893779644"><ele>340.75</ele><time>2026-04-11T15:19:22Z</time></trkpt><trkpt lat="43.06277446268186" lon="11.501036234745476"><ele>339.5</ele><time>2026-04-11T15:19:23Z</time></trkpt><trkpt lat="43.0628881936347" lon="11.500991729105063"><ele>338.25</ele><time>2026-04-11T15:19:24Z</time></trkpt><trkpt lat="43.06300307664431" lon="11.501000847634009"><ele>337.0</ele><time>2026-04-11T15:19:25Z</time></trkpt><trkpt lat="43.063115963415484" lon="11.501037566554006"><ele>337.0</ele><time>2026-04-11T15:19:26Z</time></trkpt><trkpt lat="43.063229115021876" lon="11.501082861422477"><ele>337.0</ele><time>2026-04-11T15:19:27Z</time></trkpt><trkpt lat="43.06334032349844" lon="11.501134981011232"><ele>337.0</ele><time>2026-04-11T15:19:28Z</time></trkpt><trkpt lat="43.0634499999976" lon="11.501192429293194"><ele>337.0</ele><time>2026-04-11T15:19:28.999Z</time></trkpt><trkpt lat="43.06356153254578" lon="11.501252164417991"><ele>335.5</ele><time>2026-04-11T15:19:29.999Z</time></trkpt><trkpt lat="43.06369134013758" lon="11.501241968915313"><ele>334.0</ele><time>2026-04-11T15:19:30.999Z</time></trkpt><trkpt lat="43.06380324564507" lon="11.501295594686853"><ele>332.5</ele><time>2026-04-11T15:19:31.999Z</time></trkpt><trkpt lat="43.06391429774471" lon="11.501350066454352"><ele>331.0</ele><time>2026-04-11T15:19:32.999Z</time></trkpt><trkpt lat="43.06402532444472" lon="11.501408506608666"><ele>328.75</ele><time>2026-04-11T15:19:33.999Z</time></trkpt><trkpt lat="43.064137272917904" lon="11.501472696449483"><ele>326.5</ele><time>2026-04-11T15:19:34.999Z</time></trkpt><trkpt lat="43.06425152189885" lon="11.501535529711557"><ele>324.25</ele><time>2026-04-11T15:19:35.999Z</time></trkpt><trkpt lat="43.06436900247501" lon="11.50159306077943"><ele>322.0</ele><time>2026-04-11T15:19:36.999Z</time></trkpt><trkpt lat="43.06449110308481" lon="11.501651059835202"><ele>322.0</ele><time>2026-04-11T15:19:37.999Z</time></trkpt><trkpt lat="43.06461406609179" lon="11.501704308053949"><ele>322.0</ele><time>2026-04-11T15:19:38.999Z</time></trkpt><trkpt lat="43.06473426305124" lon="11.501729909567223"><ele>322.0</ele><time>2026-04-11T15:19:39.999Z</time></trkpt><trkpt lat="43.06485918824199" lon="11.501731428516214"><ele>322.0</ele><time>2026-04-11T15:19:40.999Z</time></trkpt><trkpt lat="43.06497498959306" lon="11.501709113645811"><ele>321.0</ele><time>2026-04-11T15:19:41.999Z</time></trkpt><trkpt lat="43.065084961917286" lon="11.50166032231788"><ele>320.0</ele><time>2026-04-11T15:19:42.999Z</time></trkpt><trkpt lat="43.06519109944841" lon="11.501593114524328"><ele>319.0</ele><time>2026-04-11T15:19:43.999Z</time></trkpt><trkpt lat="43.06529233449029" lon="11.501505423989512"><ele>318.0</ele><time>2026-04-11T15:19:44.999Z</time></trkpt><trkpt lat="43.06537665802746" lon="11.50138080232418"><ele>318.75</ele><time>2026-04-11T15:19:45.999Z</time></trkpt><trkpt lat="43.06542552249526" lon="11.501225464013812"><ele>319.5</ele><time>2026-04-11T15:19:46.999Z</time></trkpt><trkpt lat="43.06549226887253" lon="11.501085837432127"><ele>320.25</ele><time>2026-04-11T15:19:47.999Z</time></trkpt><trkpt lat="43.06556138885378" lon="11.500943699888932"><ele>321.0</ele><time>2026-04-11T15:19:48.999Z</time></trkpt><trkpt lat="43.0656295268773" lon="11.500802057167455"><ele>321.0</ele><time>2026-04-11T15:19:49.999Z</time></trkpt><trkpt lat="43.06569788694359" lon="11.500658720076508"><ele>321.0</ele><time>2026-04-11T15:19:50.999Z</time></trkpt><trkpt lat="43.0657685275743" lon="11.5005188380149"><ele>321.0</ele><time>2026-04-11T15:19:51.999Z</time></trkpt><trkpt lat="43.06584961848168" lon="11.500395488280548"><ele>321.0</ele><time>2026-04-11T15:19:52.999Z</time></trkpt><trkpt lat="43.06596208765943" lon="11.500316241838943"><ele>319.25</ele><time>2026-04-11T15:19:53.999Z</time></trkpt><trkpt lat="43.06606338620574" lon="11.500224042286007"><ele>317.5</ele><time>2026-04-11T15:19:54.999Z</time></trkpt><trkpt lat="43.066175182410305" lon="11.500154820736336"><ele>315.75</ele><time>2026-04-11T15:19:55.999Z</time></trkpt><trkpt lat="43.06629233381675" lon="11.500106386113394"><ele>314.0</ele><time>2026-04-11T15:19:56.999Z</time></trkpt><trkpt lat="43.06641085999186" lon="11.500067099689895"><ele>314.0</ele><time>2026-04-11T15:19:57.999Z</time></trkpt><trkpt lat="43.06652958180387" lon="11.500030527674651"><ele>314.0</ele><time>2026-04-11T15:19:58.999Z</time></trkpt><trkpt lat="43.06664710462539" lon="11.499990379491736"><ele>314.0</ele><time>2026-04-11T15:19:59.999Z</time></trkpt><trkpt lat="43.06676164233381" lon="11.499947949099536"><ele>314.0</ele><time>2026-04-11T15:20:00.999Z</time></trkpt><trkpt lat="43.06687667379867" lon="11.499898209028261"><ele>312.0</ele><time>2026-04-11T15:20:01.999Z</time></trkpt><trkpt lat="43.06698971884864" lon="11.499835019929527"><ele>310.0</ele><time>2026-04-11T15:20:02.999Z</time></trkpt><trkpt lat="43.067100701703126" lon="11.499763922482714"><ele>308.0</ele><time>2026-04-11T15:20:03.999Z</time></trkpt><trkpt lat="43.067208626292015" lon="11.499688412811267"><ele>306.0</ele><time>2026-04-11T15:20:04.999Z</time></trkpt><trkpt lat="43.06731677586403" lon="11.49961127685581"><ele>305.5</ele><time>2026-04-11T15:20:05.999Z</time></trkpt><trkpt lat="43.067426422523944" lon="11.499533531498054"><ele>305.0</ele><time>2026-04-11T15:20:06.999Z</time></trkpt><trkpt lat="43.067536113026186" lon="11.499455816203534"><ele>304.5</ele><time>2026-04-11T15:20:07.999Z</time></trkpt><trkpt lat="43.06764953199645" lon="11.499383086318504"><ele>304.0</ele><time>2026-04-11T15:20:08.999Z</time></trkpt><trkpt lat="43.06776307004872" lon="11.499313793006214"><ele>304.0</ele><time>2026-04-11T15:20:09.999Z</time></trkpt><trkpt lat="43.06787944886683" lon="11.499254343384713"><ele>304.0</ele><time>2026-04-11T15:20:10.999Z</time></trkpt><trkpt lat="43.06800059720705" lon="11.499209184747196"><ele>304.0</ele><time>2026-04-11T15:20:11.999Z</time></trkpt><trkpt lat="43.06812448432331" lon="11.499171255571419"><ele>304.0</ele><time>2026-04-11T15:20:12.999Z</time></trkpt><trkpt lat="43.06824959007426" lon="11.499134292867906"><ele>301.5</ele><time>2026-04-11T15:20:13.999Z</time></trkpt><trkpt lat="43.06837550126159" lon="11.499096559678494"><ele>299.0</ele><time>2026-04-11T15:20:14.999Z</time></trkpt><trkpt lat="43.068502572901174" lon="11.499057424812856"><ele>296.5</ele><time>2026-04-11T15:20:15.999Z</time></trkpt><trkpt lat="43.068629444423024" lon="11.499019419829553"><ele>294.0</ele><time>2026-04-11T15:20:16.999Z</time></trkpt><trkpt lat="43.06875701140537" lon="11.4989819710973"><ele>294.0</ele><time>2026-04-11T15:20:17.998Z</time></trkpt><trkpt lat="43.06888415452854" lon="11.498945741805992"><ele>294.0</ele><time>2026-04-11T15:20:18.998Z</time></trkpt><trkpt lat="43.06901335237878" lon="11.498902963371064"><ele>294.0</ele><time>2026-04-11T15:20:19.998Z</time></trkpt><trkpt lat="43.069141798315286" lon="11.498862352707826"><ele>294.0</ele><time>2026-04-11T15:20:20.998Z</time></trkpt><trkpt lat="43.06927176647548" lon="11.498823366702752"><ele>292.75</ele><time>2026-04-11T15:20:21.998Z</time></trkpt><trkpt lat="43.069403293786465" lon="11.498784020863537"><ele>291.5</ele><time>2026-04-11T15:20:22.998Z</time></trkpt><trkpt lat="43.06953354886666" lon="11.49874465534478"><ele>290.25</ele><time>2026-04-11T15:20:23.998Z</time></trkpt><trkpt lat="43.069662394280115" lon="11.49870510197037"><ele>289.0</ele><time>2026-04-11T15:20:24.998Z</time></trkpt><trkpt lat="43.06978930839633" lon="11.498665476945863"><ele>289.0</ele><time>2026-04-11T15:20:25.998Z</time></trkpt><trkpt lat="43.06991437308352" lon="11.49862790357759"><ele>289.0</ele><time>2026-04-11T15:20:26.998Z</time></trkpt><trkpt lat="43.070036731778664" lon="11.498583499996021"><ele>289.0</ele><time>2026-04-11T15:20:27.998Z</time></trkpt><trkpt lat="43.070154291568194" lon="11.498528894201675"><ele>289.0</ele><time>2026-04-11T15:20:28.998Z</time></trkpt><trkpt lat="43.070267769170286" lon="11.498467499151428"><ele>288.0</ele><time>2026-04-11T15:20:29.998Z</time></trkpt><trkpt lat="43.07038016793991" lon="11.498403942247812"><ele>287.0</ele><time>2026-04-11T15:20:30.998Z</time></trkpt><trkpt lat="43.0704903116948" lon="11.498334909039286"><ele>286.0</ele><time>2026-04-11T15:20:31.998Z</time></trkpt><trkpt lat="43.07059794810347" lon="11.498260334728132"><ele>285.0</ele><time>2026-04-11T15:20:32.998Z</time></trkpt><trkpt lat="43.07070231400749" lon="11.49818112421848"><ele>284.5</ele><time>2026-04-11T15:20:33.998Z</time></trkpt><trkpt lat="43.07080661239313" lon="11.498103465239357"><ele>284.0</ele><time>2026-04-11T15:20:34.998Z</time></trkpt><trkpt lat="43.07090679309243" lon="11.498025441623257"><ele>283.5</ele><time>2026-04-11T15:20:35.998Z</time></trkpt><trkpt lat="43.071007214634875" lon="11.497949593183296"><ele>283.0</ele><time>2026-04-11T15:20:36.998Z</time></trkpt><trkpt lat="43.071104277182194" lon="11.497875211563505"><ele>281.8</ele><time>2026-04-11T15:20:37.998Z</time></trkpt><trkpt lat="43.07119886283289" lon="11.497807765825117"><ele>280.6</ele><time>2026-04-11T15:20:38.998Z</time></trkpt><trkpt lat="43.07129387849266" lon="11.497734547204946"><ele>279.4</ele><time>2026-04-11T15:20:39.998Z</time></trkpt><trkpt lat="43.07138856603116" lon="11.497660137019498"><ele>278.2</ele><time>2026-04-11T15:20:40.998Z</time></trkpt><trkpt lat="43.071483113674915" lon="11.497586922171914"><ele>277.0</ele><time>2026-04-11T15:20:41.998Z</time></trkpt><trkpt lat="43.071579158559835" lon="11.497512818312597"><ele>277.6</ele><time>2026-04-11T15:20:42.998Z</time></trkpt><trkpt lat="43.07167624890941" lon="11.497440686754924"><ele>278.2</ele><time>2026-04-11T15:20:43.998Z</time></trkpt><trkpt lat="43.07177282949407" lon="11.49736771238335"><ele>278.8</ele><time>2026-04-11T15:20:44.998Z</time></trkpt><trkpt lat="43.0718670459549" lon="11.497292822856267"><ele>279.4</ele><time>2026-04-11T15:20:45.998Z</time></trkpt><trkpt lat="43.07196172607003" lon="11.497218532829173"><ele>280.0</ele><time>2026-04-11T15:20:46.998Z</time></trkpt><trkpt lat="43.072056877349276" lon="11.49714641477145"><ele>279.2</ele><time>2026-04-11T15:20:47.998Z</time></trkpt><trkpt lat="43.07215393458825" lon="11.497073992448117"><ele>278.4</ele><time>2026-04-11T15:20:49Z</time></trkpt><trkpt lat="43.07224857558223" lon="11.496998956586681"><ele>277.6</ele><time>2026-04-11T15:20:50Z</time></trkpt><trkpt lat="43.07234465700999" lon="11.49692419862173"><ele>276.8</ele><time>2026-04-11T15:20:51Z</time></trkpt><trkpt lat="43.07244215641646" lon="11.496851742558352"><ele>276.0</ele><time>2026-04-11T15:20:52Z</time></trkpt><trkpt lat="43.07253998028789" lon="11.496778963184816"><ele>276.0</ele><time>2026-04-11T15:20:53Z</time></trkpt><trkpt lat="43.072640094473776" lon="11.49670527494463"><ele>276.0</ele><time>2026-04-11T15:20:54Z</time></trkpt><trkpt lat="43.07274196946245" lon="11.496635342693077"><ele>276.0</ele><time>2026-04-11T15:20:55Z</time></trkpt><trkpt lat="43.07284889218195" lon="11.49657392992601"><ele>276.0</ele><time>2026-04-11T15:20:56Z</time></trkpt><trkpt lat="43.07295791371149" lon="11.496517387909403"><ele>276.0</ele><time>2026-04-11T15:20:57Z</time></trkpt><trkpt lat="43.07306913842476" lon="11.496464690648365"><ele>276.0</ele><time>2026-04-11T15:20:58Z</time></trkpt><trkpt lat="43.07318183595807" lon="11.496411305796979"><ele>276.0</ele><time>2026-04-11T15:20:59Z</time></trkpt><trkpt lat="43.07329661893481" lon="11.496360798123161"><ele>276.0</ele><time>2026-04-11T15:21:00Z</time></trkpt><trkpt lat="43.07341429149457" lon="11.496311480232377"><ele>275.25</ele><time>2026-04-11T15:21:01Z</time></trkpt><trkpt lat="43.0735317330095" lon="11.496260844684427"><ele>274.5</ele><time>2026-04-11T15:21:02Z</time></trkpt><trkpt lat="43.073653033635395" lon="11.496206744850967"><ele>273.75</ele><time>2026-04-11T15:21:03Z</time></trkpt><trkpt lat="43.07377231276528" lon="11.496148439636716"><ele>273.0</ele><time>2026-04-11T15:21:04Z</time></trkpt><trkpt lat="43.07389112850792" lon="11.496082939927366"><ele>271.0</ele><time>2026-04-11T15:21:05Z</time></trkpt><trkpt lat="43.07400812010873" lon="11.496012089870725"><ele>269.0</ele><time>2026-04-11T15:21:06Z</time></trkpt><trkpt lat="43.07412351811099" lon="11.495935202065388"><ele>267.0</ele><time>2026-04-11T15:21:07Z</time></trkpt><trkpt lat="43.07423453284084" lon="11.495848173044052"><ele>265.0</ele><time>2026-04-11T15:21:08Z</time></trkpt><trkpt lat="43.07434550070607" lon="11.49575808890447"><ele>264.75</ele><time>2026-04-11T15:21:09Z</time></trkpt><trkpt lat="43.07445551696323" lon="11.495670652929872"><ele>264.5</ele><time>2026-04-11T15:21:10Z</time></trkpt><trkpt lat="43.07456345760461" lon="11.495578056037733"><ele>264.25</ele><time>2026-04-11T15:21:11Z</time></trkpt><trkpt lat="43.07467109782128" lon="11.49548535249551"><ele>264.0</ele><time>2026-04-11T15:21:12Z</time></trkpt><trkpt lat="43.07477670521591" lon="11.49539464792325"><ele>263.0</ele><time>2026-04-11T15:21:13Z</time></trkpt><trkpt lat="43.074881903216244" lon="11.495304918843173"><ele>262.0</ele><time>2026-04-11T15:21:14Z</time></trkpt><trkpt lat="43.07498627583434" lon="11.49521414734253"><ele>261.0</ele><time>2026-04-11T15:21:15Z</time></trkpt><trkpt lat="43.075093213916965" lon="11.495124070512372"><ele>260.0</ele><time>2026-04-11T15:21:16Z</time></trkpt><trkpt lat="43.07519867851134" lon="11.495035473974397"><ele>259.5</ele><time>2026-04-11T15:21:17Z</time></trkpt><trkpt lat="43.0753049601906" lon="11.494947704220012"><ele>259.0</ele><time>2026-04-11T15:21:18Z</time></trkpt><trkpt lat="43.075408074053264" lon="11.494855760298613"><ele>258.5</ele><time>2026-04-11T15:21:19Z</time></trkpt><trkpt lat="43.0755124789089" lon="11.494765329376033"><ele>258.0</ele><time>2026-04-11T15:21:20Z</time></trkpt><trkpt lat="43.07561579104646" lon="11.494673835470369"><ele>257.25</ele><time>2026-04-11T15:21:21Z</time></trkpt><trkpt lat="43.075719430981096" lon="11.49458066552705"><ele>256.5</ele><time>2026-04-11T15:21:22Z</time></trkpt><trkpt lat="43.075818099040546" lon="11.4944848087323"><ele>255.75</ele><time>2026-04-11T15:21:23Z</time></trkpt><trkpt lat="43.07591518109596" lon="11.494384467830857"><ele>255.0</ele><time>2026-04-11T15:21:24Z</time></trkpt><trkpt lat="43.076011338558615" lon="11.494284366727463"><ele>254.5</ele><time>2026-04-11T15:21:25Z</time></trkpt><trkpt lat="43.07610778443274" lon="11.494185277328304"><ele>254.0</ele><time>2026-04-11T15:21:26Z</time></trkpt><trkpt lat="43.07620627090562" lon="11.494085588871341"><ele>253.5</ele><time>2026-04-11T15:21:27Z</time></trkpt><trkpt lat="43.07630165417896" lon="11.493987593277966"><ele>253.0</ele><time>2026-04-11T15:21:28Z</time></trkpt><trkpt lat="43.07639508141257" lon="11.493889567963874"><ele>253.0</ele><time>2026-04-11T15:21:29Z</time></trkpt><trkpt lat="43.07649049579842" lon="11.493791585355067"><ele>253.0</ele><time>2026-04-11T15:21:30Z</time></trkpt><trkpt lat="43.07658432556937" lon="11.493692609196524"><ele>253.0</ele><time>2026-04-11T15:21:31Z</time></trkpt><trkpt lat="43.07667571305977" lon="11.493596422431752"><ele>253.0</ele><time>2026-04-11T15:21:32Z</time></trkpt><trkpt lat="43.07676681092796" lon="11.493501482103817"><ele>252.60000000000002</ele><time>2026-04-11T15:21:33Z</time></trkpt><trkpt lat="43.07685865413503" lon="11.49340944160734"><ele>252.20000000000002</ele><time>2026-04-11T15:21:34Z</time></trkpt><trkpt lat="43.07694943014763" lon="11.493322001140758"><ele>251.8</ele><time>2026-04-11T15:21:35Z</time></trkpt><trkpt lat="43.07704519491457" lon="11.493240204827913"><ele>251.4</ele><time>2026-04-11T15:21:35.999Z</time></trkpt><trkpt lat="43.07714195912837" lon="11.493165099745609"><ele>251.0</ele><time>2026-04-11T15:21:36.999Z</time></trkpt><trkpt lat="43.077241339372925" lon="11.493096522244672"><ele>251.0</ele><time>2026-04-11T15:21:37.999Z</time></trkpt><trkpt lat="43.077341083371" lon="11.493037940068659"><ele>251.00000000000003</ele><time>2026-04-11T15:21:38.999Z</time></trkpt><trkpt lat="43.077440655747296" lon="11.492981059188779"><ele>251.00000000000003</ele><time>2026-04-11T15:21:39.999Z</time></trkpt><trkpt lat="43.077537202745646" lon="11.49292241348243"><ele>251.0</ele><time>2026-04-11T15:21:40.999Z</time></trkpt><trkpt lat="43.077634682118386" lon="11.492866404741346"><ele>251.0</ele><time>2026-04-11T15:21:41.999Z</time></trkpt><trkpt lat="43.07772655118527" lon="11.49280822430562"><ele>250.8</ele><time>2026-04-11T15:21:42.999Z</time></trkpt><trkpt lat="43.07781604324712" lon="11.492748888564316"><ele>250.60000000000002</ele><time>2026-04-11T15:21:43.999Z</time></trkpt><trkpt lat="43.07790187103519" lon="11.492682416656455"><ele>250.4</ele><time>2026-04-11T15:21:44.999Z</time></trkpt><trkpt lat="43.07798262257367" lon="11.492611714318434"><ele>250.2</ele><time>2026-04-11T15:21:45.999Z</time></trkpt><trkpt lat="43.07805505810182" lon="11.492521561174495"><ele>250.0</ele><time>2026-04-11T15:21:46.999Z</time></trkpt><trkpt lat="43.07811202402933" lon="11.49241267915049"><ele>250.0</ele><time>2026-04-11T15:21:47.999Z</time></trkpt><trkpt lat="43.078157635830586" lon="11.492302172999631"><ele>250.0</ele><time>2026-04-11T15:21:48.999Z</time></trkpt><trkpt lat="43.07819209619327" lon="11.492186226551011"><ele>250.0</ele><time>2026-04-11T15:21:49.999Z</time></trkpt><trkpt lat="43.07821938969272" lon="11.492064546266658"><ele>250.0</ele><time>2026-04-11T15:21:50.999Z</time></trkpt><trkpt lat="43.07823604598496" lon="11.491936985015474"><ele>250.0</ele><time>2026-04-11T15:21:51.999Z</time></trkpt><trkpt lat="43.07825004997047" lon="11.49181018567731"><ele>249.8</ele><time>2026-04-11T15:21:52.999Z</time></trkpt><trkpt lat="43.0782635894504" lon="11.491683101380042"><ele>249.6</ele><time>2026-04-11T15:21:53.999Z</time></trkpt><trkpt lat="43.078280520938335" lon="11.491563686186627"><ele>249.39999999999998</ele><time>2026-04-11T15:21:54.999Z</time></trkpt><trkpt lat="43.07823093961961" lon="11.491436912797086"><ele>249.2</ele><time>2026-04-11T15:21:55.999Z</time></trkpt><trkpt lat="43.078245411756626" lon="11.491321605616806"><ele>249.0</ele><time>2026-04-11T15:21:56.999Z</time></trkpt><trkpt lat="43.078262117158665" lon="11.49120218057277"><ele>247.16666666666666</ele><time>2026-04-11T15:21:57.999Z</time></trkpt><trkpt lat="43.07828457931326" lon="11.491082006184614"><ele>245.33333333333331</ele><time>2026-04-11T15:21:58.999Z</time></trkpt><trkpt lat="43.07831725420163" lon="11.490959854287219"><ele>243.5</ele><time>2026-04-11T15:21:59.999Z</time></trkpt><trkpt lat="43.07835022607454" lon="11.490852164252628"><ele>241.66666666666666</ele><time>2026-04-11T15:22:00.999Z</time></trkpt><trkpt lat="43.07839120232211" lon="11.49074966288513"><ele>239.83333333333331</ele><time>2026-04-11T15:22:01.999Z</time></trkpt><trkpt lat="43.078431591580326" lon="11.490644663409887"><ele>238.0</ele><time>2026-04-11T15:22:02.999Z</time></trkpt><trkpt lat="43.07846944641916" lon="11.490546252957154"><ele>237.99999999999997</ele><time>2026-04-11T15:22:03.999Z</time></trkpt><trkpt lat="43.07850535710519" lon="11.490449741621294"><ele>238.0</ele><time>2026-04-11T15:22:04.999Z</time></trkpt><trkpt lat="43.078536457582956" lon="11.490351190601935"><ele>238.0</ele><time>2026-04-11T15:22:05.999Z</time></trkpt><trkpt lat="43.0785607522082" lon="11.490244453069536"><ele>238.0</ele><time>2026-04-11T15:22:06.999Z</time></trkpt><trkpt lat="43.07857403049532" lon="11.49014380194274"><ele>237.99999999999997</ele><time>2026-04-11T15:22:07.999Z</time></trkpt><trkpt lat="43.07858295678001" lon="11.49003451804765"><ele>238.0</ele><time>2026-04-11T15:22:08.999Z</time></trkpt><trkpt lat="43.07858298175386" lon="11.489927827944337"><ele>238.33333333333331</ele><time>2026-04-11T15:22:09.999Z</time></trkpt><trkpt lat="43.078570168307664" lon="11.489831263923525"><ele>238.66666666666666</ele><time>2026-04-11T15:22:10.999Z</time></trkpt><trkpt lat="43.078550542907706" lon="11.489729933614235"><ele>239.0</ele><time>2026-04-11T15:22:11.999Z</time></trkpt><trkpt lat="43.07852345703115" lon="11.489625477779882"><ele>239.33333333333331</ele><time>2026-04-11T15:22:12.999Z</time></trkpt><trkpt lat="43.07849431844394" lon="11.489516919242195"><ele>239.66666666666666</ele><time>2026-04-11T15:22:13.999Z</time></trkpt><trkpt lat="43.078464581878954" lon="11.489406132172187"><ele>240.0</ele><time>2026-04-11T15:22:14.999Z</time></trkpt><trkpt lat="43.07843562308897" lon="11.48928458382785"><ele>239.6</ele><time>2026-04-11T15:22:15.999Z</time></trkpt><trkpt lat="43.078414968019715" lon="11.489154507054154"><ele>239.2</ele><time>2026-04-11T15:22:16.999Z</time></trkpt><trkpt lat="43.07841212893388" lon="11.489013458454917"><ele>238.8</ele><time>2026-04-11T15:22:17.999Z</time></trkpt><trkpt lat="43.07843363754193" lon="11.48888014505102"><ele>238.4</ele><time>2026-04-11T15:22:18.999Z</time></trkpt><trkpt lat="43.07847085743657" lon="11.488759777591488"><ele>238.0</ele><time>2026-04-11T15:22:19.999Z</time></trkpt><trkpt lat="43.078533454177524" lon="11.488654825579799"><ele>238.0</ele><time>2026-04-11T15:22:20.999Z</time></trkpt><trkpt lat="43.078607448428876" lon="11.488577073503818"><ele>238.0</ele><time>2026-04-11T15:22:21.999Z</time></trkpt><trkpt lat="43.07868871873715" lon="11.48851776047971"><ele>238.0</ele><time>2026-04-11T15:22:22.999Z</time></trkpt><trkpt lat="43.07876867022838" lon="11.488451931571113"><ele>238.0</ele><time>2026-04-11T15:22:23.999Z</time></trkpt><trkpt lat="43.0788590724672" lon="11.488402196261767"><ele>238.0</ele><time>2026-04-11T15:22:24.998Z</time></trkpt><trkpt lat="43.07895077583816" lon="11.48835148909956"><ele>238.0</ele><time>2026-04-11T15:22:25.998Z</time></trkpt><trkpt lat="43.0790411628146" lon="11.488291395910363"><ele>238.0</ele><time>2026-04-11T15:22:26.998Z</time></trkpt><trkpt lat="43.0791323648285" lon="11.488224465520661"><ele>238.0</ele><time>2026-04-11T15:22:27.998Z</time></trkpt><trkpt lat="43.07922452700042" lon="11.48815938339483"><ele>238.0</ele><time>2026-04-11T15:22:28.998Z</time></trkpt><trkpt lat="43.079318762333756" lon="11.48809795786744"><ele>238.0</ele><time>2026-04-11T15:22:29.998Z</time></trkpt><trkpt lat="43.079406977115354" lon="11.488029554592332"><ele>238.0</ele><time>2026-04-11T15:22:30.998Z</time></trkpt><trkpt lat="43.07949484587449" lon="11.48795350061775"><ele>238.0</ele><time>2026-04-11T15:22:31.998Z</time></trkpt><trkpt lat="43.07958635966133" lon="11.48787993466105"><ele>238.0</ele><time>2026-04-11T15:22:32.998Z</time></trkpt><trkpt lat="43.07967515705097" lon="11.487810653899567"><ele>238.0</ele><time>2026-04-11T15:22:33.998Z</time></trkpt><trkpt lat="43.079759553025106" lon="11.487742716432063"><ele>238.0</ele><time>2026-04-11T15:22:34.998Z</time></trkpt><trkpt lat="43.079841680462145" lon="11.487669005490496"><ele>238.0</ele><time>2026-04-11T15:22:35.998Z</time></trkpt><trkpt lat="43.079907462178525" lon="11.48756455701626"><ele>238.0</ele><time>2026-04-11T15:22:36.998Z</time></trkpt><trkpt lat="43.079973757850105" lon="11.48745982544049"><ele>238.0</ele><time>2026-04-11T15:22:37.998Z</time></trkpt><trkpt lat="43.080029777561506" lon="11.487345744262658"><ele>238.0</ele><time>2026-04-11T15:22:38.998Z</time></trkpt><trkpt lat="43.08008146238332" lon="11.487226457916703"><ele>238.0</ele><time>2026-04-11T15:22:39.998Z</time></trkpt><trkpt lat="43.08012952525722" lon="11.48710390969453"><ele>236.4</ele><time>2026-04-11T15:22:40.998Z</time></trkpt><trkpt lat="43.08017981458973" lon="11.4869791538631"><ele>234.8</ele><time>2026-04-11T15:22:41.998Z</time></trkpt><trkpt lat="43.08023303249117" lon="11.486851141981136"><ele>233.2</ele><time>2026-04-11T15:22:42.998Z</time></trkpt><trkpt lat="43.08029477780329" lon="11.486725865099176"><ele>231.6</ele><time>2026-04-11T15:22:43.998Z</time></trkpt><trkpt lat="43.08036771897108" lon="11.486604524529335"><ele>230.0</ele><time>2026-04-11T15:22:44.998Z</time></trkpt><trkpt lat="43.080446878646725" lon="11.486492037895122"><ele>230.0</ele><time>2026-04-11T15:22:45.998Z</time></trkpt><trkpt lat="43.08054266775999" lon="11.486401754810732"><ele>230.0</ele><time>2026-04-11T15:22:46.998Z</time></trkpt><trkpt lat="43.08062544591465" lon="11.486295455121539"><ele>230.0</ele><time>2026-04-11T15:22:47.998Z</time></trkpt><trkpt lat="43.08070822157449" lon="11.486194728098512"><ele>230.0</ele><time>2026-04-11T15:22:48.998Z</time></trkpt><trkpt lat="43.0807928690828" lon="11.486091560478306"><ele>227.0</ele><time>2026-04-11T15:22:49.998Z</time></trkpt><trkpt lat="43.08086137001325" lon="11.485968284106207"><ele>224.0</ele><time>2026-04-11T15:22:50.998Z</time></trkpt><trkpt lat="43.080925892814555" lon="11.48585300981095"><ele>221.0</ele><time>2026-04-11T15:22:51.998Z</time></trkpt><trkpt lat="43.080983951398046" lon="11.485727998137765"><ele>218.0</ele><time>2026-04-11T15:22:52.998Z</time></trkpt><trkpt lat="43.08102915607539" lon="11.485594482250834"><ele>215.0</ele><time>2026-04-11T15:22:53.998Z</time></trkpt><trkpt lat="43.08106490075802" lon="11.485454632583627"><ele>215.4</ele><time>2026-04-11T15:22:55Z</time></trkpt><trkpt lat="43.08109247404553" lon="11.485312703160309"><ele>215.8</ele><time>2026-04-11T15:22:56Z</time></trkpt><trkpt lat="43.081113499206616" lon="11.485169392235807"><ele>216.2</ele><time>2026-04-11T15:22:57Z</time></trkpt><trkpt lat="43.08113050787378" lon="11.485025607632094"><ele>216.6</ele><time>2026-04-11T15:22:58Z</time></trkpt><trkpt lat="43.08114376638235" lon="11.484884913277938"><ele>217.0</ele><time>2026-04-11T15:22:59Z</time></trkpt><trkpt lat="43.08115994957651" lon="11.48475130344337"><ele>217.0</ele><time>2026-04-11T15:23:00Z</time></trkpt><trkpt lat="43.08118360177797" lon="11.484620395403313"><ele>217.0</ele><time>2026-04-11T15:23:01Z</time></trkpt><trkpt lat="43.08123514456408" lon="11.484493101536735"><ele>217.0</ele><time>2026-04-11T15:23:02Z</time></trkpt><trkpt lat="43.081319269209644" lon="11.484396811606814"><ele>217.0</ele><time>2026-04-11T15:23:03Z</time></trkpt><trkpt lat="43.08140335329055" lon="11.48432723301435"><ele>217.0</ele><time>2026-04-11T15:23:04Z</time></trkpt><trkpt lat="43.08149511333565" lon="11.484275853481444"><ele>217.2</ele><time>2026-04-11T15:23:05Z</time></trkpt><trkpt lat="43.08158871207919" lon="11.484283626125128"><ele>217.39999999999998</ele><time>2026-04-11T15:23:06Z</time></trkpt><trkpt lat="43.08167797569922" lon="11.484309968251885"><ele>217.60000000000002</ele><time>2026-04-11T15:23:07Z</time></trkpt><trkpt lat="43.08176700243735" lon="11.484350591158194"><ele>217.8</ele><time>2026-04-11T15:23:08Z</time></trkpt><trkpt lat="43.08185987661304" lon="11.484395390759197"><ele>218.0</ele><time>2026-04-11T15:23:09Z</time></trkpt><trkpt lat="43.08195489025978" lon="11.484440691112082"><ele>216.60000000000002</ele><time>2026-04-11T15:23:10Z</time></trkpt><trkpt lat="43.08205241735847" lon="11.484487189841763"><ele>215.20000000000002</ele><time>2026-04-11T15:23:11Z</time></trkpt><trkpt lat="43.08215696442333" lon="11.484533885343161"><ele>213.8</ele><time>2026-04-11T15:23:12Z</time></trkpt><trkpt lat="43.08226089300105" lon="11.484576995765224"><ele>212.4</ele><time>2026-04-11T15:23:13Z</time></trkpt><trkpt lat="43.082374449114724" lon="11.484612686060615"><ele>211.0</ele><time>2026-04-11T15:23:14Z</time></trkpt><trkpt lat="43.08249074538325" lon="11.484634095243917"><ele>209.5</ele><time>2026-04-11T15:23:15Z</time></trkpt><trkpt lat="43.08261234666956" lon="11.484631602322274"><ele>208.0</ele><time>2026-04-11T15:23:16Z</time></trkpt><trkpt lat="43.082731786962576" lon="11.48459589244213"><ele>206.5</ele><time>2026-04-11T15:23:17Z</time></trkpt><trkpt lat="43.08285381416901" lon="11.484577038110379"><ele>205.0</ele><time>2026-04-11T15:23:18Z</time></trkpt><trkpt lat="43.08297742275701" lon="11.484532167279243"><ele>205.0</ele><time>2026-04-11T15:23:19Z</time></trkpt><trkpt lat="43.0831007779291" lon="11.48447542426876"><ele>205.0</ele><time>2026-04-11T15:23:20Z</time></trkpt><trkpt lat="43.083222682218164" lon="11.484412384816872"><ele>205.0</ele><time>2026-04-11T15:23:21Z</time></trkpt><trkpt lat="43.08334637074679" lon="11.484348255944234"><ele>205.0</ele><time>2026-04-11T15:23:22Z</time></trkpt><trkpt lat="43.08347285559441" lon="11.484290071869943"><ele>202.25</ele><time>2026-04-11T15:23:23Z</time></trkpt><trkpt lat="43.08360232964032" lon="11.484234678203286"><ele>199.5</ele><time>2026-04-11T15:23:24Z</time></trkpt><trkpt lat="43.08373445653" lon="11.484183484144657"><ele>196.75</ele><time>2026-04-11T15:23:25Z</time></trkpt><trkpt lat="43.08387212608029" lon="11.484140633948389"><ele>194.0</ele><time>2026-04-11T15:23:26Z</time></trkpt><trkpt lat="43.08401287260776" lon="11.484112811759262"><ele>192.0</ele><time>2026-04-11T15:23:27Z</time></trkpt><trkpt lat="43.08415683859341" lon="11.484100457187676"><ele>190.0</ele><time>2026-04-11T15:23:28Z</time></trkpt><trkpt lat="43.08430515980036" lon="11.484095193605828"><ele>188.0</ele><time>2026-04-11T15:23:29Z</time></trkpt><trkpt lat="43.084453505521026" lon="11.484085882718944"><ele>186.0</ele><time>2026-04-11T15:23:30Z</time></trkpt><trkpt lat="43.084604175794944" lon="11.484070093577628"><ele>186.0</ele><time>2026-04-11T15:23:31Z</time></trkpt><trkpt lat="43.084756979517145" lon="11.484054355958298"><ele>186.0</ele><time>2026-04-11T15:23:32Z</time></trkpt><trkpt lat="43.08491240316252" lon="11.48404038179648"><ele>186.0</ele><time>2026-04-11T15:23:33Z</time></trkpt><trkpt lat="43.08506792277825" lon="11.484025682667523"><ele>183.33333333333334</ele><time>2026-04-11T15:23:34Z</time></trkpt><trkpt lat="43.08522560125547" lon="11.48401022710326"><ele>180.66666666666669</ele><time>2026-04-11T15:23:35Z</time></trkpt><trkpt lat="43.08538456270838" lon="11.483995761085602"><ele>178.0</ele><time>2026-04-11T15:23:36Z</time></trkpt><trkpt lat="43.08554499671567" lon="11.483984830038706"><ele>178.0</ele><time>2026-04-11T15:23:37Z</time></trkpt><trkpt lat="43.0857046782574" lon="11.483970581738859"><ele>178.0</ele><time>2026-04-11T15:23:38Z</time></trkpt><trkpt lat="43.085863685028535" lon="11.483953149807135"><ele>178.0</ele><time>2026-04-11T15:23:39Z</time></trkpt><trkpt lat="43.08602356476313" lon="11.483936755080228"><ele>175.0</ele><time>2026-04-11T15:23:40Z</time></trkpt><trkpt lat="43.08618105011514" lon="11.48392295376177"><ele>172.0</ele><time>2026-04-11T15:23:41Z</time></trkpt><trkpt lat="43.08633786863246" lon="11.48394019962728"><ele>169.0</ele><time>2026-04-11T15:23:42Z</time></trkpt><trkpt lat="43.08648833207454" lon="11.483959299742903"><ele>168.0</ele><time>2026-04-11T15:23:43Z</time></trkpt><trkpt lat="43.08663343283293" lon="11.484003860273562"><ele>167.0</ele><time>2026-04-11T15:23:43.999Z</time></trkpt><trkpt lat="43.086768182920366" lon="11.484075718994548"><ele>166.0</ele><time>2026-04-11T15:23:44.999Z</time></trkpt><trkpt lat="43.08689476199669" lon="11.484167192933413"><ele>165.0</ele><time>2026-04-11T15:23:45.999Z</time></trkpt><trkpt lat="43.087003953196266" lon="11.484275267470865"><ele>165.0</ele><time>2026-04-11T15:23:46.999Z</time></trkpt><trkpt lat="43.0870999737412" lon="11.484405378426912"><ele>165.0</ele><time>2026-04-11T15:23:47.999Z</time></trkpt><trkpt lat="43.08719234448752" lon="11.484551134916842"><ele>165.0</ele><time>2026-04-11T15:23:48.999Z</time></trkpt><trkpt lat="43.08728551834603" lon="11.484704117800801"><ele>165.0</ele><time>2026-04-11T15:23:49.999Z</time></trkpt><trkpt lat="43.087376603433356" lon="11.484853671269375"><ele>164.5</ele><time>2026-04-11T15:23:50.999Z</time></trkpt><trkpt lat="43.08746686844754" lon="11.485001878321269"><ele>164.0</ele><time>2026-04-11T15:23:51.999Z</time></trkpt><trkpt lat="43.08755586855846" lon="11.48514800820138"><ele>163.5</ele><time>2026-04-11T15:23:52.999Z</time></trkpt><trkpt lat="43.08764303586944" lon="11.485291128916314"><ele>163.0</ele><time>2026-04-11T15:23:53.999Z</time></trkpt><trkpt lat="43.08772958599387" lon="11.485434280194019"><ele>161.75</ele><time>2026-04-11T15:23:54.999Z</time></trkpt><trkpt lat="43.08781314265654" lon="11.485572514565956"><ele>160.5</ele><time>2026-04-11T15:23:55.999Z</time></trkpt><trkpt lat="43.08789689440944" lon="11.485711071494586"><ele>159.25</ele><time>2026-04-11T15:23:56.999Z</time></trkpt><trkpt lat="43.08797953054576" lon="11.48584721832917"><ele>158.0</ele><time>2026-04-11T15:23:57.999Z</time></trkpt><trkpt lat="43.0880602946545" lon="11.48597994814058"><ele>158.0</ele><time>2026-04-11T15:23:58.999Z</time></trkpt><trkpt lat="43.08814090116037" lon="11.486111590301105"><ele>158.0</ele><time>2026-04-11T15:23:59.999Z</time></trkpt><trkpt lat="43.088220053501225" lon="11.486236205547973"><ele>158.0</ele><time>2026-04-11T15:24:00.999Z</time></trkpt><trkpt lat="43.08830316786943" lon="11.486360592388081"><ele>158.0</ele><time>2026-04-11T15:24:01.999Z</time></trkpt><trkpt lat="43.08839761593364" lon="11.486476699911655"><ele>158.0</ele><time>2026-04-11T15:24:02.999Z</time></trkpt><trkpt lat="43.088505921909" lon="11.486578163976601"><ele>158.0</ele><time>2026-04-11T15:24:03.999Z</time></trkpt><trkpt lat="43.08861705147527" lon="11.486656334376637"><ele>158.0</ele><time>2026-04-11T15:24:04.999Z</time></trkpt><trkpt lat="43.08873522831471" lon="11.486718034800065"><ele>158.0</ele><time>2026-04-11T15:24:05.999Z</time></trkpt><trkpt lat="43.08885705182495" lon="11.48675285867816"><ele>158.0</ele><time>2026-04-11T15:24:06.999Z</time></trkpt><trkpt lat="43.08897415614897" lon="11.486771610632887"><ele>158.0</ele><time>2026-04-11T15:24:07.999Z</time></trkpt><trkpt lat="43.089093947736494" lon="11.486778834631847"><ele>158.0</ele><time>2026-04-11T15:24:08.999Z</time></trkpt><trkpt lat="43.089210249969916" lon="11.486746938769146"><ele>158.0</ele><time>2026-04-11T15:24:09.999Z</time></trkpt><trkpt lat="43.08932268036028" lon="11.48673768561431"><ele>158.0</ele><time>2026-04-11T15:24:10.999Z</time></trkpt><trkpt lat="43.0894353859421" lon="11.486722543973094"><ele>158.0</ele><time>2026-04-11T15:24:11.999Z</time></trkpt><trkpt lat="43.089546573543075" lon="11.486704861204952"><ele>158.0</ele><time>2026-04-11T15:24:12.999Z</time></trkpt><trkpt lat="43.08965542181381" lon="11.486685069429482"><ele>158.0</ele><time>2026-04-11T15:24:13.999Z</time></trkpt><trkpt lat="43.08976354773591" lon="11.486668108003274"><ele>158.0</ele><time>2026-04-11T15:24:14.999Z</time></trkpt><trkpt lat="43.089870368524046" lon="11.486653472635908"><ele>158.0</ele><time>2026-04-11T15:24:15.999Z</time></trkpt><trkpt lat="43.08997613608547" lon="11.486641044258874"><ele>158.0</ele><time>2026-04-11T15:24:16.999Z</time></trkpt><trkpt lat="43.09008040182082" lon="11.486627697668316"><ele>158.0</ele><time>2026-04-11T15:24:17.999Z</time></trkpt><trkpt lat="43.09018441716066" lon="11.486615475420685"><ele>158.0</ele><time>2026-04-11T15:24:18.999Z</time></trkpt><trkpt lat="43.09028751096775" lon="11.486601306732775"><ele>158.0</ele><time>2026-04-11T15:24:19.999Z</time></trkpt><trkpt lat="43.09039012938013" lon="11.48658645949274"><ele>158.0</ele><time>2026-04-11T15:24:20.999Z</time></trkpt><trkpt lat="43.09049065535718" lon="11.48656986572713"><ele>158.0</ele><time>2026-04-11T15:24:21.999Z</time></trkpt><trkpt lat="43.090591783548284" lon="11.486554662005299"><ele>158.0</ele><time>2026-04-11T15:24:22.999Z</time></trkpt><trkpt lat="43.090692911092425" lon="11.486542173046914"><ele>158.0</ele><time>2026-04-11T15:24:23.999Z</time></trkpt><trkpt lat="43.09079336970718" lon="11.486529173532558"><ele>158.0</ele><time>2026-04-11T15:24:24.999Z</time></trkpt><trkpt lat="43.09089443530608" lon="11.486514187996704"><ele>157.8</ele><time>2026-04-11T15:24:25.999Z</time></trkpt><trkpt lat="43.09099565229559" lon="11.486496989177914"><ele>157.60000000000002</ele><time>2026-04-11T15:24:26.999Z</time></trkpt><trkpt lat="43.09109703858419" lon="11.486477522210157"><ele>157.39999999999998</ele><time>2026-04-11T15:24:27.999Z</time></trkpt><trkpt lat="43.09119734964555" lon="11.486458020243557"><ele>157.2</ele><time>2026-04-11T15:24:28.999Z</time></trkpt><trkpt lat="43.09129678826622" lon="11.486445034379534"><ele>157.0</ele><time>2026-04-11T15:24:29.999Z</time></trkpt><trkpt lat="43.09139716897779" lon="11.486432661383732"><ele>157.0</ele><time>2026-04-11T15:24:30.999Z</time></trkpt><trkpt lat="43.09149733642405" lon="11.48642343811539"><ele>157.0</ele><time>2026-04-11T15:24:31.999Z</time></trkpt><trkpt lat="43.09159641294795" lon="11.48641535343515"><ele>157.0</ele><time>2026-04-11T15:24:32.998Z</time></trkpt><trkpt lat="43.09169405241524" lon="11.486405664654432"><ele>157.0</ele><time>2026-04-11T15:24:33.998Z</time></trkpt><trkpt lat="43.09179251209812" lon="11.48639647985287"><ele>157.0</ele><time>2026-04-11T15:24:34.998Z</time></trkpt><trkpt lat="43.09188904191607" lon="11.486383122050375"><ele>156.4</ele><time>2026-04-11T15:24:35.998Z</time></trkpt><trkpt lat="43.09198975908174" lon="11.48637362443274"><ele>155.79999999999998</ele><time>2026-04-11T15:24:36.998Z</time></trkpt><trkpt lat="43.09208990969124" lon="11.486358797644682"><ele>155.2</ele><time>2026-04-11T15:24:37.998Z</time></trkpt><trkpt lat="43.09218873585546" lon="11.486343589760041"><ele>154.6</ele><time>2026-04-11T15:24:38.998Z</time></trkpt><trkpt lat="43.09228923147783" lon="11.486328163277609"><ele>154.0</ele><time>2026-04-11T15:24:39.998Z</time></trkpt><trkpt lat="43.09238894168026" lon="11.486316368899223"><ele>154.2</ele><time>2026-04-11T15:24:40.998Z</time></trkpt><trkpt lat="43.092490680333654" lon="11.486305443986355"><ele>154.4</ele><time>2026-04-11T15:24:41.998Z</time></trkpt><trkpt lat="43.092589720270546" lon="11.48629375986782"><ele>154.6</ele><time>2026-04-11T15:24:42.998Z</time></trkpt><trkpt lat="43.09268866033068" lon="11.486277876455372"><ele>154.8</ele><time>2026-04-11T15:24:43.998Z</time></trkpt><trkpt lat="43.09278887942019" lon="11.486264412798205"><ele>155.0</ele><time>2026-04-11T15:24:44.998Z</time></trkpt><trkpt lat="43.09288665479651" lon="11.486250016563659"><ele>155.0</ele><time>2026-04-11T15:24:45.998Z</time></trkpt><trkpt lat="43.092984536916795" lon="11.486234357044745"><ele>155.0</ele><time>2026-04-11T15:24:46.998Z</time></trkpt><trkpt lat="43.093080576367484" lon="11.486219652237711"><ele>155.0</ele><time>2026-04-11T15:24:47.998Z</time></trkpt><trkpt lat="43.09317694785292" lon="11.486206611257826"><ele>155.0</ele><time>2026-04-11T15:24:48.998Z</time></trkpt><trkpt lat="43.093273008140805" lon="11.486193913629513"><ele>155.0</ele><time>2026-04-11T15:24:49.998Z</time></trkpt><trkpt lat="43.09336969891786" lon="11.48618283887483"><ele>155.4</ele><time>2026-04-11T15:24:50.998Z</time></trkpt><trkpt lat="43.09346677209716" lon="11.486171155700816"><ele>155.8</ele><time>2026-04-11T15:24:51.998Z</time></trkpt><trkpt lat="43.0935643442957" lon="11.486160524335002"><ele>156.2</ele><time>2026-04-11T15:24:52.998Z</time></trkpt><trkpt lat="43.09366050957418" lon="11.486145918473692"><ele>156.6</ele><time>2026-04-11T15:24:53.998Z</time></trkpt><trkpt lat="43.09375679496017" lon="11.486130587472447"><ele>157.0</ele><time>2026-04-11T15:24:54.998Z</time></trkpt><trkpt lat="43.09385207163753" lon="11.486110881709422"><ele>157.0</ele><time>2026-04-11T15:24:55.998Z</time></trkpt><trkpt lat="43.09394482332658" lon="11.48609791010629"><ele>157.0</ele><time>2026-04-11T15:24:56.998Z</time></trkpt><trkpt lat="43.09403874433056" lon="11.486088438547773"><ele>157.0</ele><time>2026-04-11T15:24:57.998Z</time></trkpt><trkpt lat="43.0941327929143" lon="11.486076730819814"><ele>157.0</ele><time>2026-04-11T15:24:58.998Z</time></trkpt><trkpt lat="43.09422577030411" lon="11.486058768486593"><ele>157.0</ele><time>2026-04-11T15:24:59.998Z</time></trkpt><trkpt lat="43.09432002311394" lon="11.486037538328453"><ele>156.79999999999998</ele><time>2026-04-11T15:25:01Z</time></trkpt><trkpt lat="43.094414060694156" lon="11.486005917305622"><ele>156.6</ele><time>2026-04-11T15:25:02Z</time></trkpt><trkpt lat="43.09450480667111" lon="11.485970189069294"><ele>156.39999999999998</ele><time>2026-04-11T15:25:03Z</time></trkpt><trkpt lat="43.09459700815904" lon="11.4859299646242"><ele>156.2</ele><time>2026-04-11T15:25:04Z</time></trkpt><trkpt lat="43.09468782896816" lon="11.485889119870205"><ele>156.0</ele><time>2026-04-11T15:25:05Z</time></trkpt><trkpt lat="43.094779321947584" lon="11.485850203596556"><ele>156.0</ele><time>2026-04-11T15:25:06Z</time></trkpt><trkpt lat="43.09487236844252" lon="11.48581016681557"><ele>156.0</ele><time>2026-04-11T15:25:07Z</time></trkpt><trkpt lat="43.09496346110891" lon="11.485767892841865"><ele>156.0</ele><time>2026-04-11T15:25:08Z</time></trkpt><trkpt lat="43.095056231389826" lon="11.48572631823115"><ele>156.0</ele><time>2026-04-11T15:25:09Z</time></trkpt><trkpt lat="43.095148294468245" lon="11.485688250557654"><ele>156.0</ele><time>2026-04-11T15:25:10Z</time></trkpt><trkpt lat="43.095241004856156" lon="11.485647453626404"><ele>155.0</ele><time>2026-04-11T15:25:11Z</time></trkpt><trkpt lat="43.09533287941884" lon="11.485610563823277"><ele>154.0</ele><time>2026-04-11T15:25:12Z</time></trkpt><trkpt lat="43.09542342004684" lon="11.485571234618268"><ele>153.0</ele><time>2026-04-11T15:25:13Z</time></trkpt><trkpt lat="43.09551435543711" lon="11.485535870551653"><ele>152.0</ele><time>2026-04-11T15:25:14Z</time></trkpt><trkpt lat="43.095604873418246" lon="11.485503616041257"><ele>151.0</ele><time>2026-04-11T15:25:15Z</time></trkpt><trkpt lat="43.09569577032887" lon="11.485473664643203"><ele>151.16666666666669</ele><time>2026-04-11T15:25:16Z</time></trkpt><trkpt lat="43.09578483023351" lon="11.485445442164977"><ele>151.33333333333334</ele><time>2026-04-11T15:25:17Z</time></trkpt><trkpt lat="43.09587264271078" lon="11.485418591128223"><ele>151.5</ele><time>2026-04-11T15:25:18Z</time></trkpt><trkpt lat="43.09595633941042" lon="11.48539076905583"><ele>151.66666666666666</ele><time>2026-04-11T15:25:19Z</time></trkpt><trkpt lat="43.09603674445469" lon="11.485352410616132"><ele>151.83333333333331</ele><time>2026-04-11T15:25:20Z</time></trkpt><trkpt lat="43.0961121557666" lon="11.485303211486166"><ele>152.0</ele><time>2026-04-11T15:25:21Z</time></trkpt><trkpt lat="43.096189124526795" lon="11.485256183508291"><ele>152.16666666666666</ele><time>2026-04-11T15:25:22Z</time></trkpt><trkpt lat="43.09626296272168" lon="11.485210904909477"><ele>152.33333333333331</ele><time>2026-04-11T15:25:23Z</time></trkpt><trkpt lat="43.09633392221283" lon="11.485161743923593"><ele>152.5</ele><time>2026-04-11T15:25:24Z</time></trkpt><trkpt lat="43.09640186976464" lon="11.48511054349594"><ele>152.66666666666666</ele><time>2026-04-11T15:25:25Z</time></trkpt><trkpt lat="43.09646642860252" lon="11.485057392338542"><ele>152.83333333333334</ele><time>2026-04-11T15:25:26Z</time></trkpt><trkpt lat="43.096531160964204" lon="11.485005080311295"><ele>153.0</ele><time>2026-04-11T15:25:27Z</time></trkpt><trkpt lat="43.096593938093356" lon="11.48495027834199"><ele>152.71428571428572</ele><time>2026-04-11T15:25:28Z</time></trkpt><trkpt lat="43.096656161422565" lon="11.484895157389243"><ele>152.42857142857144</ele><time>2026-04-11T15:25:29Z</time></trkpt><trkpt lat="43.09671675916987" lon="11.484841094469603"><ele>152.14285714285717</ele><time>2026-04-11T15:25:30Z</time></trkpt><trkpt lat="43.0967760874743" lon="11.484787394018463"><ele>151.85714285714286</ele><time>2026-04-11T15:25:31Z</time></trkpt><trkpt lat="43.09683729759373" lon="11.484734517116388"><ele>151.57142857142858</ele><time>2026-04-11T15:25:32Z</time></trkpt><trkpt lat="43.096898021884854" lon="11.484681877105409"><ele>151.2857142857143</ele><time>2026-04-11T15:25:33Z</time></trkpt><trkpt lat="43.096959376890666" lon="11.484629259886466"><ele>151.0</ele><time>2026-04-11T15:25:34Z</time></trkpt><trkpt lat="43.09701839418549" lon="11.48457610194934"><ele>151.00000000000003</ele><time>2026-04-11T15:25:35Z</time></trkpt><trkpt lat="43.09707893810154" lon="11.484524836099341"><ele>151.0</ele><time>2026-04-11T15:25:36Z</time></trkpt><trkpt lat="43.09714117729222" lon="11.484474202231135"><ele>151.0</ele><time>2026-04-11T15:25:37Z</time></trkpt><trkpt lat="43.09719620288195" lon="11.4844225749397"><ele>151.0</ele><time>2026-04-11T15:25:38Z</time></trkpt><trkpt lat="43.09725380315537" lon="11.484367368082356"><ele>151.0</ele><time>2026-04-11T15:25:39Z</time></trkpt><trkpt lat="43.09731187383437" lon="11.484314134206066"><ele>151.00000000000003</ele><time>2026-04-11T15:25:40Z</time></trkpt><trkpt lat="43.097372774516366" lon="11.484263473268811"><ele>151.0</ele><time>2026-04-11T15:25:41Z</time></trkpt><trkpt lat="43.097432700651886" lon="11.48421264576647"><ele>151.00000000000003</ele><time>2026-04-11T15:25:42Z</time></trkpt><trkpt lat="43.09749252664043" lon="11.484162498132344"><ele>151.0</ele><time>2026-04-11T15:25:43Z</time></trkpt><trkpt lat="43.097552760260825" lon="11.484111962552193"><ele>151.0</ele><time>2026-04-11T15:25:44Z</time></trkpt><trkpt lat="43.09761214430622" lon="11.484063533902894"><ele>151.0</ele><time>2026-04-11T15:25:45Z</time></trkpt><trkpt lat="43.09767306493225" lon="11.484016804299829"><ele>151.0</ele><time>2026-04-11T15:25:46Z</time></trkpt><trkpt lat="43.09773410596204" lon="11.483972452573806"><ele>151.00000000000003</ele><time>2026-04-11T15:25:47Z</time></trkpt><trkpt lat="43.097795649728454" lon="11.483931677666337"><ele>151.0</ele><time>2026-04-11T15:25:48Z</time></trkpt><trkpt lat="43.097857397845935" lon="11.48388970287067"><ele>151.00000000000003</ele><time>2026-04-11T15:25:49Z</time></trkpt><trkpt lat="43.0979215936112" lon="11.483850177842427"><ele>151.0</ele><time>2026-04-11T15:25:50Z</time></trkpt><trkpt lat="43.0979866520949" lon="11.483813801542126"><ele>151.0</ele><time>2026-04-11T15:25:51Z</time></trkpt><trkpt lat="43.098050982608875" lon="11.48377879511539"><ele>151.0</ele><time>2026-04-11T15:25:51.999Z</time></trkpt><trkpt lat="43.09811751418608" lon="11.48374993159976"><ele>151.0</ele><time>2026-04-11T15:25:52.999Z</time></trkpt><trkpt lat="43.098184409610866" lon="11.483722731986262"><ele>151.00000000000003</ele><time>2026-04-11T15:25:53.999Z</time></trkpt><trkpt lat="43.098250978700776" lon="11.483690040860822"><ele>151.0</ele><time>2026-04-11T15:25:54.999Z</time></trkpt><trkpt lat="43.09831759596242" lon="11.4836557274349"><ele>150.57142857142858</ele><time>2026-04-11T15:25:55.999Z</time></trkpt><trkpt lat="43.09838578157154" lon="11.483624956920616"><ele>150.14285714285714</ele><time>2026-04-11T15:25:56.999Z</time></trkpt><trkpt lat="43.09845391251821" lon="11.483596159684263"><ele>149.71428571428572</ele><time>2026-04-11T15:25:57.999Z</time></trkpt><trkpt lat="43.09851990853082" lon="11.483559349445033"><ele>149.28571428571428</ele><time>2026-04-11T15:25:58.999Z</time></trkpt><trkpt lat="43.098588480193236" lon="11.48352615428597"><ele>148.85714285714286</ele><time>2026-04-11T15:25:59.999Z</time></trkpt><trkpt lat="43.09865759549135" lon="11.483495734964439"><ele>148.42857142857144</ele><time>2026-04-11T15:26:00.999Z</time></trkpt><trkpt lat="43.09872911367659" lon="11.483468351511473"><ele>148.0</ele><time>2026-04-11T15:26:01.999Z</time></trkpt><trkpt lat="43.098800721129486" lon="11.483441749783196"><ele>148.0</ele><time>2026-04-11T15:26:02.999Z</time></trkpt><trkpt lat="43.098874502430874" lon="11.483418288167156"><ele>148.0</ele><time>2026-04-11T15:26:03.999Z</time></trkpt><trkpt lat="43.09894959193605" lon="11.48339416892176"><ele>148.0</ele><time>2026-04-11T15:26:04.999Z</time></trkpt><trkpt lat="43.09902977257627" lon="11.483377816486215"><ele>148.0</ele><time>2026-04-11T15:26:05.999Z</time></trkpt><trkpt lat="43.09911002189047" lon="11.483365873589873"><ele>148.0</ele><time>2026-04-11T15:26:06.999Z</time></trkpt><trkpt lat="43.09919130133872" lon="11.483355767701912"><ele>148.0</ele><time>2026-04-11T15:26:07.999Z</time></trkpt><trkpt lat="43.099272696626464" lon="11.483347701273706"><ele>147.66666666666669</ele><time>2026-04-11T15:26:08.999Z</time></trkpt><trkpt lat="43.09935180774275" lon="11.483345791738156"><ele>147.33333333333334</ele><time>2026-04-11T15:26:09.999Z</time></trkpt><trkpt lat="43.09942939408592" lon="11.483344068576006"><ele>147.0</ele><time>2026-04-11T15:26:10.999Z</time></trkpt><trkpt lat="43.099507057682175" lon="11.483343145232498"><ele>146.66666666666666</ele><time>2026-04-11T15:26:11.999Z</time></trkpt><trkpt lat="43.09958485591887" lon="11.483343274106863"><ele>146.33333333333331</ele><time>2026-04-11T15:26:12.999Z</time></trkpt><trkpt lat="43.099664357045896" lon="11.483339437232248"><ele>146.0</ele><time>2026-04-11T15:26:13.999Z</time></trkpt><trkpt lat="43.099742920046026" lon="11.483335846941634"><ele>146.0</ele><time>2026-04-11T15:26:14.999Z</time></trkpt><trkpt lat="43.09982011022187" lon="11.483327649992308"><ele>146.0</ele><time>2026-04-11T15:26:15.999Z</time></trkpt><trkpt lat="43.09989604285542" lon="11.483309601967091"><ele>146.0</ele><time>2026-04-11T15:26:16.999Z</time></trkpt><trkpt lat="43.09996887497692" lon="11.483279490031943"><ele>146.0</ele><time>2026-04-11T15:26:17.999Z</time></trkpt><trkpt lat="43.100038425387865" lon="11.483237770748197"><ele>146.0</ele><time>2026-04-11T15:26:18.999Z</time></trkpt><trkpt lat="43.10010383657311" lon="11.48318248917672"><ele>146.0</ele><time>2026-04-11T15:26:19.999Z</time></trkpt><trkpt lat="43.10016474890621" lon="11.483121997670748"><ele>145.85714285714286</ele><time>2026-04-11T15:26:20.999Z</time></trkpt><trkpt lat="43.10022240227481" lon="11.483058531513723"><ele>145.71428571428572</ele><time>2026-04-11T15:26:21.999Z</time></trkpt><trkpt lat="43.10027738813539" lon="11.482991732473856"><ele>145.57142857142858</ele><time>2026-04-11T15:26:22.999Z</time></trkpt><trkpt lat="43.10033075935772" lon="11.482924566321794"><ele>145.42857142857144</ele><time>2026-04-11T15:26:23.999Z</time></trkpt><trkpt lat="43.1003821675452" lon="11.482854379718876"><ele>145.2857142857143</ele><time>2026-04-11T15:26:24.999Z</time></trkpt><trkpt lat="43.10043475393541" lon="11.48278566491666"><ele>145.14285714285714</ele><time>2026-04-11T15:26:25.999Z</time></trkpt><trkpt lat="43.10048664057171" lon="11.482717956976764"><ele>145.0</ele><time>2026-04-11T15:26:26.999Z</time></trkpt><trkpt lat="43.100537941347774" lon="11.482649782396622"><ele>145.0</ele><time>2026-04-11T15:26:27.999Z</time></trkpt><trkpt lat="43.100588123283586" lon="11.482581976123813"><ele>145.0</ele><time>2026-04-11T15:26:28.999Z</time></trkpt><trkpt lat="43.1006368036588" lon="11.482514029038368"><ele>145.0</ele><time>2026-04-11T15:26:29.999Z</time></trkpt><trkpt lat="43.100687981657835" lon="11.482449390966991"><ele>145.0</ele><time>2026-04-11T15:26:30.999Z</time></trkpt><trkpt lat="43.10073875311262" lon="11.482383298236956"><ele>145.0</ele><time>2026-04-11T15:26:31.999Z</time></trkpt><trkpt lat="43.100788043624675" lon="11.482320338716631"><ele>145.0</ele><time>2026-04-11T15:26:32.999Z</time></trkpt><trkpt lat="43.100835054072846" lon="11.482256178604034"><ele>145.0</ele><time>2026-04-11T15:26:33.999Z</time></trkpt><trkpt lat="43.100883457075525" lon="11.482193145034081"><ele>144.71428571428572</ele><time>2026-04-11T15:26:34.999Z</time></trkpt><trkpt lat="43.100931903550716" lon="11.482129166473452"><ele>144.42857142857144</ele><time>2026-04-11T15:26:35.999Z</time></trkpt><trkpt lat="43.100979859058725" lon="11.482064878155404"><ele>144.14285714285714</ele><time>2026-04-11T15:26:36.999Z</time></trkpt><trkpt lat="43.10102723309509" lon="11.481999836048342"><ele>143.85714285714286</ele><time>2026-04-11T15:26:37.999Z</time></trkpt><trkpt lat="43.10107657824105" lon="11.481938189222822"><ele>143.57142857142856</ele><time>2026-04-11T15:26:38.999Z</time></trkpt><trkpt lat="43.1011226592609" lon="11.481872147866609"><ele>143.28571428571428</ele><time>2026-04-11T15:26:39.999Z</time></trkpt><trkpt lat="43.101169455813874" lon="11.481806200802883"><ele>143.0</ele><time>2026-04-11T15:26:40.998Z</time></trkpt><trkpt lat="43.101215645462474" lon="11.481739080623282"><ele>143.0</ele><time>2026-04-11T15:26:41.998Z</time></trkpt><trkpt lat="43.10126272878807" lon="11.481673004058647"><ele>143.0</ele><time>2026-04-11T15:26:42.998Z</time></trkpt><trkpt lat="43.101312786249245" lon="11.481612512241544"><ele>143.0</ele><time>2026-04-11T15:26:43.998Z</time></trkpt><trkpt lat="43.101362578025075" lon="11.48155408943433"><ele>143.0</ele><time>2026-04-11T15:26:44.998Z</time></trkpt><trkpt lat="43.10144509995283" lon="11.48143628064462"><ele>143.0</ele><time>2026-04-11T15:26:46.998Z</time></trkpt><trkpt lat="43.10152144434657" lon="11.481327038716294"><ele>143.0</ele><time>2026-04-11T15:26:48.998Z</time></trkpt><trkpt lat="43.10159856182684" lon="11.481220027013268"><ele>143.20000000000002</ele><time>2026-04-11T15:26:50.998Z</time></trkpt><trkpt lat="43.10167452497255" lon="11.481117226712733"><ele>143.4</ele><time>2026-04-11T15:26:52.998Z</time></trkpt><trkpt lat="43.10174657460069" lon="11.481013137065876"><ele>143.60000000000002</ele><time>2026-04-11T15:26:54.998Z</time></trkpt><trkpt lat="43.10182235742456" lon="11.48091132352588"><ele>143.8</ele><time>2026-04-11T15:26:56.998Z</time></trkpt><trkpt lat="43.101898783852675" lon="11.480812528223536"><ele>144.0</ele><time>2026-04-11T15:26:58.998Z</time></trkpt><trkpt lat="43.10198178077434" lon="11.480725244827072"><ele>144.0</ele><time>2026-04-11T15:27:00.998Z</time></trkpt><trkpt lat="43.10206710934719" lon="11.48063848684291"><ele>144.0</ele><time>2026-04-11T15:27:02.998Z</time></trkpt><trkpt lat="43.102157567872396" lon="11.480556040655092"><ele>144.0</ele><time>2026-04-11T15:27:04.998Z</time></trkpt><trkpt lat="43.102248431637385" lon="11.480477801357715"><ele>144.0</ele><time>2026-04-11T15:27:07Z</time></trkpt><trkpt lat="43.1023405852803" lon="11.480403427423493"><ele>144.0</ele><time>2026-04-11T15:27:09Z</time></trkpt><trkpt lat="43.10243163641598" lon="11.480324962068616"><ele>144.2</ele><time>2026-04-11T15:27:11Z</time></trkpt><trkpt lat="43.102520446685396" lon="11.480244541630743"><ele>144.4</ele><time>2026-04-11T15:27:13Z</time></trkpt><trkpt lat="43.10261367549274" lon="11.480173947984428"><ele>144.6</ele><time>2026-04-11T15:27:15Z</time></trkpt><trkpt lat="43.10270723844135" lon="11.480100661205057"><ele>144.8</ele><time>2026-04-11T15:27:17Z</time></trkpt><trkpt lat="43.102797644988854" lon="11.480024485171601"><ele>145.0</ele><time>2026-04-11T15:27:19Z</time></trkpt><trkpt lat="43.10288860804985" lon="11.4799534321749"><ele>145.0</ele><time>2026-04-11T15:27:21Z</time></trkpt><trkpt lat="43.10297863430243" lon="11.479883404131108"><ele>145.0</ele><time>2026-04-11T15:27:23Z</time></trkpt><trkpt lat="43.10306482490859" lon="11.479808358083371"><ele>145.0</ele><time>2026-04-11T15:27:25Z</time></trkpt><trkpt lat="43.10315191800491" lon="11.479736904626234"><ele>145.0</ele><time>2026-04-11T15:27:27Z</time></trkpt><trkpt lat="43.10323791328038" lon="11.479671817621808"><ele>145.0</ele><time>2026-04-11T15:27:29Z</time></trkpt><trkpt lat="43.10332287834535" lon="11.47961112084646"><ele>146.6</ele><time>2026-04-11T15:27:31Z</time></trkpt><trkpt lat="43.10341417024119" lon="11.479555999316368"><ele>148.2</ele><time>2026-04-11T15:27:33Z</time></trkpt><trkpt lat="43.10350898297167" lon="11.479508405484093"><ele>149.8</ele><time>2026-04-11T15:27:35Z</time></trkpt><trkpt lat="43.10360802683458" lon="11.479469073147456"><ele>151.4</ele><time>2026-04-11T15:27:37Z</time></trkpt><trkpt lat="43.10371137567769" lon="11.479435313116657"><ele>153.0</ele><time>2026-04-11T15:27:39Z</time></trkpt><trkpt lat="43.103818340837776" lon="11.479412875170835"><ele>153.0</ele><time>2026-04-11T15:27:41Z</time></trkpt><trkpt lat="43.103930198872916" lon="11.479398303485716"><ele>153.0</ele><time>2026-04-11T15:27:43Z</time></trkpt><trkpt lat="43.104050034531916" lon="11.479395313152782"><ele>153.0</ele><time>2026-04-11T15:27:45Z</time></trkpt><trkpt lat="43.10417292911623" lon="11.479395577930903"><ele>153.0</ele><time>2026-04-11T15:27:47Z</time></trkpt><trkpt lat="43.10429904947129" lon="11.479392506729246"><ele>153.0</ele><time>2026-04-11T15:27:49Z</time></trkpt><trkpt lat="43.10436332494408" lon="11.479389496122371"><ele>153.0</ele><time>2026-04-11T15:27:50Z</time></trkpt><trkpt lat="43.10442683551343" lon="11.479386816277206"><ele>153.0</ele><time>2026-04-11T15:27:51Z</time></trkpt><trkpt lat="43.10449117272204" lon="11.479383815559688"><ele>153.0</ele><time>2026-04-11T15:27:52Z</time></trkpt><trkpt lat="43.104612941518305" lon="11.479372615757155"><ele>153.0</ele><time>2026-04-11T15:27:54Z</time></trkpt><trkpt lat="43.104677997436205" lon="11.47937167497487"><ele>153.0</ele><time>2026-04-11T15:27:55Z</time></trkpt><trkpt lat="43.10474540237568" lon="11.479371554274993"><ele>153.0</ele><time>2026-04-11T15:27:56Z</time></trkpt><trkpt lat="43.104816960936404" lon="11.479372930332634"><ele>153.0</ele><time>2026-04-11T15:27:57Z</time></trkpt><trkpt lat="43.10488916075327" lon="11.479373304122916"><ele>153.0</ele><time>2026-04-11T15:27:58Z</time></trkpt><trkpt lat="43.10496472792173" lon="11.47937041364162"><ele>153.0</ele><time>2026-04-11T15:27:59Z</time></trkpt><trkpt lat="43.10504118003791" lon="11.47937050263197"><ele>153.0</ele><time>2026-04-11T15:27:59.999Z</time></trkpt><trkpt lat="43.10511979699601" lon="11.479368967605716"><ele>153.0</ele><time>2026-04-11T15:28:00.999Z</time></trkpt><trkpt lat="43.10519819574854" lon="11.47936346929072"><ele>153.0</ele><time>2026-04-11T15:28:01.999Z</time></trkpt><trkpt lat="43.10527908241195" lon="11.479358674072024"><ele>152.0</ele><time>2026-04-11T15:28:02.999Z</time></trkpt><trkpt lat="43.105359867525586" lon="11.47935602346237"><ele>151.0</ele><time>2026-04-11T15:28:03.999Z</time></trkpt><trkpt lat="43.10544444248811" lon="11.479352945983651"><ele>150.0</ele><time>2026-04-11T15:28:04.999Z</time></trkpt><trkpt lat="43.105529489748065" lon="11.479350537922848"><ele>149.0</ele><time>2026-04-11T15:28:05.999Z</time></trkpt><trkpt lat="43.10561812177348" lon="11.479348054230824"><ele>148.0</ele><time>2026-04-11T15:28:06.999Z</time></trkpt><trkpt lat="43.10570985953384" lon="11.479345229039163"><ele>147.0</ele><time>2026-04-11T15:28:07.999Z</time></trkpt><trkpt lat="43.10580300041864" lon="11.479339645596488"><ele>145.79999999999998</ele><time>2026-04-11T15:28:08.999Z</time></trkpt><trkpt lat="43.10589910767822" lon="11.479337676892973"><ele>144.6</ele><time>2026-04-11T15:28:09.999Z</time></trkpt><trkpt lat="43.10599601306502" lon="11.47933497968586"><ele>143.39999999999998</ele><time>2026-04-11T15:28:10.999Z</time></trkpt><trkpt lat="43.106094215260164" lon="11.479330944829174"><ele>142.2</ele><time>2026-04-11T15:28:11.999Z</time></trkpt><trkpt lat="43.10619469548971" lon="11.479325292310628"><ele>141.0</ele><time>2026-04-11T15:28:12.999Z</time></trkpt><trkpt lat="43.106294910264054" lon="11.479323830480174"><ele>141.0</ele><time>2026-04-11T15:28:13.999Z</time></trkpt><trkpt lat="43.1063956602597" lon="11.479320108827686"><ele>141.0</ele><time>2026-04-11T15:28:14.999Z</time></trkpt><trkpt lat="43.10649668824304" lon="11.4793157588651"><ele>141.0</ele><time>2026-04-11T15:28:15.999Z</time></trkpt><trkpt lat="43.1065963863924" lon="11.479312202055347"><ele>141.0</ele><time>2026-04-11T15:28:16.999Z</time></trkpt><trkpt lat="43.10669570687586" lon="11.479310573320161"><ele>141.0</ele><time>2026-04-11T15:28:17.999Z</time></trkpt><trkpt lat="43.10679407961454" lon="11.479306440186582"><ele>140.2</ele><time>2026-04-11T15:28:18.999Z</time></trkpt><trkpt lat="43.106889897861215" lon="11.479299369499676"><ele>139.39999999999998</ele><time>2026-04-11T15:28:19.999Z</time></trkpt><trkpt lat="43.10698488043289" lon="11.479298099715948"><ele>138.6</ele><time>2026-04-11T15:28:20.999Z</time></trkpt><trkpt lat="43.107077541539034" lon="11.479294601402326"><ele>137.79999999999998</ele><time>2026-04-11T15:28:21.999Z</time></trkpt><trkpt lat="43.10716924473447" lon="11.479288376285137"><ele>137.0</ele><time>2026-04-11T15:28:22.999Z</time></trkpt><trkpt lat="43.10725949627501" lon="11.479284005136769"><ele>137.0</ele><time>2026-04-11T15:28:23.999Z</time></trkpt><trkpt lat="43.10734840297308" lon="11.479279330778423"><ele>137.0</ele><time>2026-04-11T15:28:24.999Z</time></trkpt><trkpt lat="43.107434772619285" lon="11.479273984790693"><ele>137.0</ele><time>2026-04-11T15:28:25.999Z</time></trkpt><trkpt lat="43.10752248633181" lon="11.479270577133885"><ele>137.0</ele><time>2026-04-11T15:28:26.999Z</time></trkpt><trkpt lat="43.107607658420804" lon="11.479267102803274"><ele>137.0</ele><time>2026-04-11T15:28:27.999Z</time></trkpt><trkpt lat="43.10769384671363" lon="11.479261994567523"><ele>137.0</ele><time>2026-04-11T15:28:28.999Z</time></trkpt><trkpt lat="43.10777542378232" lon="11.479260788588075"><ele>137.16666666666666</ele><time>2026-04-11T15:28:29.999Z</time></trkpt><trkpt lat="43.107857287359856" lon="11.479260027180546"><ele>137.33333333333331</ele><time>2026-04-11T15:28:30.999Z</time></trkpt><trkpt lat="43.107936656651816" lon="11.479258971208276"><ele>137.5</ele><time>2026-04-11T15:28:31.999Z</time></trkpt><trkpt lat="43.108013234884446" lon="11.479260314439479"><ele>137.66666666666666</ele><time>2026-04-11T15:28:32.999Z</time></trkpt><trkpt lat="43.10808746448424" lon="11.479258612064543"><ele>137.83333333333334</ele><time>2026-04-11T15:28:33.999Z</time></trkpt><trkpt lat="43.108161213665824" lon="11.479258206475503"><ele>138.0</ele><time>2026-04-11T15:28:34.999Z</time></trkpt><trkpt lat="43.108231747987155" lon="11.479260584220516"><ele>138.5</ele><time>2026-04-11T15:28:35.999Z</time></trkpt><trkpt lat="43.108302041219076" lon="11.479263656012623"><ele>139.0</ele><time>2026-04-11T15:28:36.999Z</time></trkpt><trkpt lat="43.10836804923166" lon="11.479265664816095"><ele>139.5</ele><time>2026-04-11T15:28:37.999Z</time></trkpt><trkpt lat="43.10843383307735" lon="11.479269421491958"><ele>140.0</ele><time>2026-04-11T15:28:38.999Z</time></trkpt><trkpt lat="43.10849735209849" lon="11.47927425861549"><ele>140.5</ele><time>2026-04-11T15:28:39.999Z</time></trkpt><trkpt lat="43.10861381761512" lon="11.47928114495105"><ele>141.0</ele><time>2026-04-11T15:28:41.999Z</time></trkpt><trkpt lat="43.10872140985758" lon="11.479285855963061"><ele>141.0</ele><time>2026-04-11T15:28:43.999Z</time></trkpt><trkpt lat="43.10882372575543" lon="11.479296864857192"><ele>141.0</ele><time>2026-04-11T15:28:45.999Z</time></trkpt><trkpt lat="43.108920618497415" lon="11.479305894336102"><ele>141.0</ele><time>2026-04-11T15:28:47.999Z</time></trkpt><trkpt lat="43.10901352891227" lon="11.479305132175591"><ele>141.0</ele><time>2026-04-11T15:28:49.998Z</time></trkpt><trkpt lat="43.10910172470185" lon="11.479311369361351"><ele>141.0</ele><time>2026-04-11T15:28:51.998Z</time></trkpt><trkpt lat="43.109189722758856" lon="11.479320229387683"><ele>141.83333333333334</ele><time>2026-04-11T15:28:53.998Z</time></trkpt><trkpt lat="43.10927329711411" lon="11.479336663549386"><ele>142.66666666666666</ele><time>2026-04-11T15:28:55.998Z</time></trkpt><trkpt lat="43.109356376282165" lon="11.479340620700496"><ele>143.5</ele><time>2026-04-11T15:28:57.998Z</time></trkpt><trkpt lat="43.1094399587894" lon="11.479349163672312"><ele>144.33333333333331</ele><time>2026-04-11T15:28:59.998Z</time></trkpt><trkpt lat="43.10952156530941" lon="11.47935503991329"><ele>145.16666666666666</ele><time>2026-04-11T15:29:01.998Z</time></trkpt><trkpt lat="43.10960276259824" lon="11.479357304008753"><ele>146.0</ele><time>2026-04-11T15:29:03.998Z</time></trkpt><trkpt lat="43.10968453227746" lon="11.47936304713458"><ele>146.0</ele><time>2026-04-11T15:29:05.998Z</time></trkpt><trkpt lat="43.109766384363" lon="11.479375076700702"><ele>146.0</ele><time>2026-04-11T15:29:07.998Z</time></trkpt><trkpt lat="43.109848733650644" lon="11.479380318714746"><ele>146.0</ele><time>2026-04-11T15:29:09.998Z</time></trkpt><trkpt lat="43.109931508938956" lon="11.479382140477988"><ele>146.0</ele><time>2026-04-11T15:29:11.998Z</time></trkpt><trkpt lat="43.110015834783816" lon="11.479385835404772"><ele>146.0</ele><time>2026-04-11T15:29:14Z</time></trkpt><trkpt lat="43.11010025304019" lon="11.47938873397933"><ele>146.0</ele><time>2026-04-11T15:29:16Z</time></trkpt><trkpt lat="43.11018609548961" lon="11.479396061215883"><ele>146.5</ele><time>2026-04-11T15:29:18Z</time></trkpt><trkpt lat="43.110271270337776" lon="11.479396865961771"><ele>147.0</ele><time>2026-04-11T15:29:20Z</time></trkpt><trkpt lat="43.110354924490316" lon="11.47940396873303"><ele>147.5</ele><time>2026-04-11T15:29:22Z</time></trkpt><trkpt lat="43.11043928763249" lon="11.479417117439558"><ele>148.0</ele><time>2026-04-11T15:29:24Z</time></trkpt><trkpt lat="43.11052456306963" lon="11.47942258471427"><ele>148.5</ele><time>2026-04-11T15:29:26Z</time></trkpt><trkpt lat="43.11061012820747" lon="11.479427873881617"><ele>149.0</ele><time>2026-04-11T15:29:28Z</time></trkpt><trkpt lat="43.11069424339085" lon="11.479435575866226"><ele>149.5</ele><time>2026-04-11T15:29:30Z</time></trkpt><trkpt lat="43.11077905025087" lon="11.479441297151833"><ele>150.0</ele><time>2026-04-11T15:29:32Z</time></trkpt><trkpt lat="43.11086359303531" lon="11.479448738962294"><ele>150.5</ele><time>2026-04-11T15:29:34Z</time></trkpt><trkpt lat="43.11094674057332" lon="11.479455815252527"><ele>151.0</ele><time>2026-04-11T15:29:36Z</time></trkpt><trkpt lat="43.11103106813829" lon="11.479463735346526"><ele>151.5</ele><time>2026-04-11T15:29:38Z</time></trkpt><trkpt lat="43.11111885772077" lon="11.479472131957234"><ele>152.0</ele><time>2026-04-11T15:29:40Z</time></trkpt><trkpt lat="43.111208669163" lon="11.479479507897224"><ele>152.0</ele><time>2026-04-11T15:29:42Z</time></trkpt><trkpt lat="43.11129634407188" lon="11.479492804915566"><ele>152.0</ele><time>2026-04-11T15:29:44Z</time></trkpt><trkpt lat="43.11138312978752" lon="11.47950917044042"><ele>152.0</ele><time>2026-04-11T15:29:46Z</time></trkpt><trkpt lat="43.111471221377435" lon="11.479534743884608"><ele>152.0</ele><time>2026-04-11T15:29:48Z</time></trkpt><trkpt lat="43.11155995452804" lon="11.479567601328963"><ele>152.0</ele><time>2026-04-11T15:29:50Z</time></trkpt><trkpt lat="43.11164718540189" lon="11.479598815688307"><ele>152.0</ele><time>2026-04-11T15:29:52Z</time></trkpt><trkpt lat="43.111735113733566" lon="11.479625254701059"><ele>152.33333333333331</ele><time>2026-04-11T15:29:54Z</time></trkpt><trkpt lat="43.11182185092696" lon="11.479654833208498"><ele>152.66666666666666</ele><time>2026-04-11T15:29:56Z</time></trkpt><trkpt lat="43.11190697455629" lon="11.479685254925453"><ele>153.0</ele><time>2026-04-11T15:29:58Z</time></trkpt><trkpt lat="43.1119903025818" lon="11.479720242849506"><ele>153.33333333333334</ele><time>2026-04-11T15:30:00Z</time></trkpt><trkpt lat="43.11207717724813" lon="11.479753572869804"><ele>153.66666666666669</ele><time>2026-04-11T15:30:02Z</time></trkpt><trkpt lat="43.112165951219254" lon="11.47978785571218"><ele>154.0</ele><time>2026-04-11T15:30:04Z</time></trkpt><trkpt lat="43.11225361858901" lon="11.47982285509887"><ele>154.0</ele><time>2026-04-11T15:30:06Z</time></trkpt><trkpt lat="43.112341897906546" lon="11.479853666334149"><ele>154.0</ele><time>2026-04-11T15:30:07.999Z</time></trkpt><trkpt lat="43.11242792976616" lon="11.479886382133008"><ele>154.0</ele><time>2026-04-11T15:30:09.999Z</time></trkpt><trkpt lat="43.112513807849886" lon="11.479912274905038"><ele>154.0</ele><time>2026-04-11T15:30:11.999Z</time></trkpt><trkpt lat="43.11259776040721" lon="11.479946254075125"><ele>154.0</ele><time>2026-04-11T15:30:13.999Z</time></trkpt><trkpt lat="43.112681105864596" lon="11.47998363359585"><ele>154.0</ele><time>2026-04-11T15:30:15.999Z</time></trkpt><trkpt lat="43.112767089958496" lon="11.480010032137406"><ele>154.16666666666669</ele><time>2026-04-11T15:30:17.999Z</time></trkpt><trkpt lat="43.112854350103916" lon="11.480036786895516"><ele>154.33333333333334</ele><time>2026-04-11T15:30:19.999Z</time></trkpt><trkpt lat="43.11293830191498" lon="11.480071615336092"><ele>154.5</ele><time>2026-04-11T15:30:21.999Z</time></trkpt><trkpt lat="43.113024434215916" lon="11.480098241703717"><ele>154.66666666666666</ele><time>2026-04-11T15:30:23.999Z</time></trkpt><trkpt lat="43.113112356011165" lon="11.480125142683791"><ele>154.83333333333331</ele><time>2026-04-11T15:30:25.999Z</time></trkpt><trkpt lat="43.11320157639459" lon="11.480146772690007"><ele>155.0</ele><time>2026-04-11T15:30:27.999Z</time></trkpt><trkpt lat="43.11329088105468" lon="11.480161443132353"><ele>155.83333333333331</ele><time>2026-04-11T15:30:29.999Z</time></trkpt><trkpt lat="43.11337833645897" lon="11.480184144479942"><ele>156.66666666666666</ele><time>2026-04-11T15:30:31.999Z</time></trkpt><trkpt lat="43.1134642425814" lon="11.480201882104739"><ele>157.5</ele><time>2026-04-11T15:30:33.999Z</time></trkpt><trkpt lat="43.113551764920814" lon="11.480218551612705"><ele>158.33333333333334</ele><time>2026-04-11T15:30:35.999Z</time></trkpt><trkpt lat="43.11363961119306" lon="11.480232959320839"><ele>159.16666666666669</ele><time>2026-04-11T15:30:37.999Z</time></trkpt><trkpt lat="43.11372722058588" lon="11.480244568195271"><ele>160.0</ele><time>2026-04-11T15:30:39.999Z</time></trkpt><trkpt lat="43.11381421582243" lon="11.480255745091045"><ele>160.0</ele><time>2026-04-11T15:30:41.999Z</time></trkpt><trkpt lat="43.11390025428616" lon="11.480274409202636"><ele>160.0</ele><time>2026-04-11T15:30:43.999Z</time></trkpt><trkpt lat="43.113992206973364" lon="11.480282765232216"><ele>160.0</ele><time>2026-04-11T15:30:45.999Z</time></trkpt><trkpt lat="43.114086313150295" lon="11.480294800861271"><ele>160.0</ele><time>2026-04-11T15:30:47.999Z</time></trkpt><trkpt lat="43.114177290419356" lon="11.48030595647966"><ele>160.0</ele><time>2026-04-11T15:30:49.999Z</time></trkpt><trkpt lat="43.11427093187216" lon="11.480323464018621"><ele>161.0</ele><time>2026-04-11T15:30:51.999Z</time></trkpt><trkpt lat="43.1143660480866" lon="11.480346027211933"><ele>162.0</ele><time>2026-04-11T15:30:53.999Z</time></trkpt><trkpt lat="43.11446378759347" lon="11.48036817310118"><ele>163.0</ele><time>2026-04-11T15:30:55.998Z</time></trkpt><trkpt lat="43.11456321017532" lon="11.480386432066178"><ele>164.0</ele><time>2026-04-11T15:30:57.998Z</time></trkpt><trkpt lat="43.11466489438449" lon="11.480405346640628"><ele>165.0</ele><time>2026-04-11T15:30:59.998Z</time></trkpt><trkpt lat="43.11477180710459" lon="11.480427471575569"><ele>165.0</ele><time>2026-04-11T15:31:01.998Z</time></trkpt><trkpt lat="43.114880487371096" lon="11.48044946275933"><ele>165.0</ele><time>2026-04-11T15:31:03.998Z</time></trkpt><trkpt lat="43.11499395013853" lon="11.480468957955699"><ele>165.0</ele><time>2026-04-11T15:31:05.998Z</time></trkpt><trkpt lat="43.11511160562209" lon="11.480495313124381"><ele>165.0</ele><time>2026-04-11T15:31:07.998Z</time></trkpt><trkpt lat="43.11517379602335" lon="11.480512324587501"><ele>165.0</ele><time>2026-04-11T15:31:08.998Z</time></trkpt><trkpt lat="43.11523757433448" lon="11.480527397506288"><ele>165.00000000000003</ele><time>2026-04-11T15:31:09.998Z</time></trkpt><trkpt lat="43.115299227771196" lon="11.480544834541686"><ele>165.0</ele><time>2026-04-11T15:31:10.998Z</time></trkpt><trkpt lat="43.11536336778145" lon="11.480562715005947"><ele>165.0</ele><time>2026-04-11T15:31:11.998Z</time></trkpt><trkpt lat="43.115426144304635" lon="11.480586827289477"><ele>165.0</ele><time>2026-04-11T15:31:12.998Z</time></trkpt><trkpt lat="43.115491436770455" lon="11.480614101941221"><ele>165.0</ele><time>2026-04-11T15:31:13.998Z</time></trkpt><trkpt lat="43.11555579121966" lon="11.480643234841953"><ele>165.00000000000003</ele><time>2026-04-11T15:31:14.998Z</time></trkpt><trkpt lat="43.115625380482236" lon="11.480668037433741"><ele>165.0</ele><time>2026-04-11T15:31:15.998Z</time></trkpt><trkpt lat="43.115694411189295" lon="11.480690604500444"><ele>164.5</ele><time>2026-04-11T15:31:16.998Z</time></trkpt><trkpt lat="43.115765202338935" lon="11.480716551319203"><ele>164.0</ele><time>2026-04-11T15:31:17.998Z</time></trkpt><trkpt lat="43.115838843605914" lon="11.480751623552646"><ele>163.5</ele><time>2026-04-11T15:31:19Z</time></trkpt><trkpt lat="43.115912737178256" lon="11.480782953281636"><ele>163.0</ele><time>2026-04-11T15:31:20Z</time></trkpt><trkpt lat="43.115989383933176" lon="11.480816838692826"><ele>162.5</ele><time>2026-04-11T15:31:21Z</time></trkpt><trkpt lat="43.11606960454958" lon="11.480854187922386"><ele>162.0</ele><time>2026-04-11T15:31:22Z</time></trkpt><trkpt lat="43.116152326145915" lon="11.480886706549407"><ele>162.0</ele><time>2026-04-11T15:31:23Z</time></trkpt><trkpt lat="43.116235648219586" lon="11.480927270767625"><ele>162.0</ele><time>2026-04-11T15:31:24Z</time></trkpt><trkpt lat="43.116318391337465" lon="11.480970859624218"><ele>162.0</ele><time>2026-04-11T15:31:25Z</time></trkpt><trkpt lat="43.116406486256444" lon="11.481014899369928"><ele>162.0</ele><time>2026-04-11T15:31:26Z</time></trkpt><trkpt lat="43.11650033736263" lon="11.481054336846123"><ele>162.0</ele><time>2026-04-11T15:31:27Z</time></trkpt><trkpt lat="43.11659661361974" lon="11.481093993990863"><ele>161.6</ele><time>2026-04-11T15:31:28Z</time></trkpt><trkpt lat="43.11669472614753" lon="11.481143364421197"><ele>161.2</ele><time>2026-04-11T15:31:29Z</time></trkpt><trkpt lat="43.11679477936655" lon="11.481192908181688"><ele>160.8</ele><time>2026-04-11T15:31:30Z</time></trkpt><trkpt lat="43.11689958738886" lon="11.48123870244513"><ele>160.4</ele><time>2026-04-11T15:31:31Z</time></trkpt><trkpt lat="43.11700745254151" lon="11.481281991890574"><ele>160.0</ele><time>2026-04-11T15:31:32Z</time></trkpt><trkpt lat="43.117116999856506" lon="11.481328880956195"><ele>159.25</ele><time>2026-04-11T15:31:33Z</time></trkpt><trkpt lat="43.117231387674714" lon="11.481376353650319"><ele>158.5</ele><time>2026-04-11T15:31:34Z</time></trkpt><trkpt lat="43.117343505756246" lon="11.481429368317379"><ele>157.75</ele><time>2026-04-11T15:31:35Z</time></trkpt><trkpt lat="43.11745785967967" lon="11.481482986710677"><ele>157.0</ele><time>2026-04-11T15:31:36Z</time></trkpt><trkpt lat="43.11757539841094" lon="11.481535824391885"><ele>154.25</ele><time>2026-04-11T15:31:37Z</time></trkpt><trkpt lat="43.117692298691566" lon="11.481587730078651"><ele>151.5</ele><time>2026-04-11T15:31:38Z</time></trkpt><trkpt lat="43.11781212092641" lon="11.481638447439433"><ele>148.75</ele><time>2026-04-11T15:31:39Z</time></trkpt><trkpt lat="43.117929181093636" lon="11.481687837849426"><ele>146.0</ele><time>2026-04-11T15:31:40Z</time></trkpt><trkpt lat="43.11804711807152" lon="11.481740480675734"><ele>146.0</ele><time>2026-04-11T15:31:41Z</time></trkpt><trkpt lat="43.118167388850416" lon="11.481790329600948"><ele>146.0</ele><time>2026-04-11T15:31:42Z</time></trkpt><trkpt lat="43.118281816629114" lon="11.48186207062697"><ele>146.0</ele><time>2026-04-11T15:31:43Z</time></trkpt><trkpt lat="43.11840578563692" lon="11.48189912678022"><ele>146.0</ele><time>2026-04-11T15:31:44Z</time></trkpt><trkpt lat="43.1185185375611" lon="11.481972627552219"><ele>145.0</ele><time>2026-04-11T15:31:45Z</time></trkpt><trkpt lat="43.11860931528955" lon="11.482081258368783"><ele>144.0</ele><time>2026-04-11T15:31:46Z</time></trkpt><trkpt lat="43.11869430627919" lon="11.482190908962817"><ele>143.0</ele><time>2026-04-11T15:31:47Z</time></trkpt><trkpt lat="43.1187655608036" lon="11.482316612680645"><ele>142.0</ele><time>2026-04-11T15:31:48Z</time></trkpt><trkpt lat="43.11882098663592" lon="11.482451301880651"><ele>141.83333333333334</ele><time>2026-04-11T15:31:49Z</time></trkpt><trkpt lat="43.11885397442035" lon="11.482592330492354"><ele>141.66666666666669</ele><time>2026-04-11T15:31:50Z</time></trkpt><trkpt lat="43.11887226873084" lon="11.482710717784768"><ele>141.5</ele><time>2026-04-11T15:31:51Z</time></trkpt><trkpt lat="43.11888164604195" lon="11.482807879686636"><ele>141.33333333333334</ele><time>2026-04-11T15:31:52Z</time></trkpt><trkpt lat="43.11890456703562" lon="11.482895385811014"><ele>141.16666666666666</ele><time>2026-04-11T15:31:53Z</time></trkpt><trkpt lat="43.11888726054504" lon="11.483046575559472"><ele>141.0</ele><time>2026-04-11T15:31:55Z</time></trkpt><trkpt lat="43.11886682591052" lon="11.483184320088851"><ele>141.16666666666666</ele><time>2026-04-11T15:31:57Z</time></trkpt><trkpt lat="43.118855945855984" lon="11.483309137607517"><ele>141.33333333333334</ele><time>2026-04-11T15:31:59Z</time></trkpt><trkpt lat="43.118832455089084" lon="11.483400364936626"><ele>141.5</ele><time>2026-04-11T15:32:01Z</time></trkpt><trkpt lat="43.11889148442219" lon="11.483472740285817"><ele>141.66666666666669</ele><time>2026-04-11T15:32:03Z</time></trkpt><trkpt lat="43.118936613018235" lon="11.483572482693269"><ele>141.83333333333334</ele><time>2026-04-11T15:32:07Z</time></trkpt><trkpt lat="43.11899866463676" lon="11.48362160198173"><ele>142.0</ele><time>2026-04-11T15:32:09Z</time></trkpt><trkpt lat="43.119096555499496" lon="11.48360582767439"><ele>142.0</ele><time>2026-04-11T15:32:11Z</time></trkpt><trkpt lat="43.119204364264235" lon="11.483583542425048"><ele>142.0</ele><time>2026-04-11T15:32:12.999Z</time></trkpt><trkpt lat="43.119321856302086" lon="11.483558724671854"><ele>142.0</ele><time>2026-04-11T15:32:14.999Z</time></trkpt><trkpt lat="43.119440507161926" lon="11.483531970948787"><ele>142.0</ele><time>2026-04-11T15:32:16.999Z</time></trkpt><trkpt lat="43.119503523340384" lon="11.483519313109241"><ele>142.0</ele><time>2026-04-11T15:32:17.999Z</time></trkpt><trkpt lat="43.11956732160063" lon="11.483506141887505"><ele>142.0</ele><time>2026-04-11T15:32:18.999Z</time></trkpt><trkpt lat="43.119634170605764" lon="11.483493085595656"><ele>142.0</ele><time>2026-04-11T15:32:19.999Z</time></trkpt><trkpt lat="43.11970083470604" lon="11.483482563164795"><ele>142.0</ele><time>2026-04-11T15:32:20.999Z</time></trkpt><trkpt lat="43.119767946253454" lon="11.483467773888727"><ele>142.0</ele><time>2026-04-11T15:32:21.999Z</time></trkpt><trkpt lat="43.11983422972605" lon="11.483451573307695"><ele>142.0</ele><time>2026-04-11T15:32:22.999Z</time></trkpt><trkpt lat="43.1199014360007" lon="11.483438135601807"><ele>142.0</ele><time>2026-04-11T15:32:23.999Z</time></trkpt><trkpt lat="43.11996873089465" lon="11.483425146601268"><ele>142.0</ele><time>2026-04-11T15:32:24.999Z</time></trkpt><trkpt lat="43.120036277130296" lon="11.483414360227643"><ele>142.0</ele><time>2026-04-11T15:32:25.999Z</time></trkpt><trkpt lat="43.120103108783844" lon="11.483406485436278"><ele>142.0</ele><time>2026-04-11T15:32:26.999Z</time></trkpt><trkpt lat="43.12017081528118" lon="11.483402666685336"><ele>142.0</ele><time>2026-04-11T15:32:27.999Z</time></trkpt><trkpt lat="43.12023619436349" lon="11.48339193283939"><ele>142.0</ele><time>2026-04-11T15:32:28.999Z</time></trkpt><trkpt lat="43.120301203297764" lon="11.483381653303306"><ele>142.0</ele><time>2026-04-11T15:32:29.999Z</time></trkpt><trkpt lat="43.12036515068796" lon="11.483374292513387"><ele>142.0</ele><time>2026-04-11T15:32:30.999Z</time></trkpt><trkpt lat="43.12042865766597" lon="11.483367576678727"><ele>142.0</ele><time>2026-04-11T15:32:31.999Z</time></trkpt><trkpt lat="43.120492653826616" lon="11.483360930059728"><ele>142.0</ele><time>2026-04-11T15:32:32.999Z</time></trkpt><trkpt lat="43.12061812278461" lon="11.48335007122952"><ele>142.0</ele><time>2026-04-11T15:32:34.999Z</time></trkpt><trkpt lat="43.12074415003117" lon="11.483343685254566"><ele>142.0</ele><time>2026-04-11T15:32:36.999Z</time></trkpt><trkpt lat="43.120871144601246" lon="11.483335715935198"><ele>142.0</ele><time>2026-04-11T15:32:38.999Z</time></trkpt><trkpt lat="43.120935127482014" lon="11.483326225351169"><ele>142.0</ele><time>2026-04-11T15:32:39.999Z</time></trkpt><trkpt lat="43.120999639155315" lon="11.483321330255396"><ele>142.14285714285714</ele><time>2026-04-11T15:32:40.999Z</time></trkpt><trkpt lat="43.12106620481419" lon="11.483319664816324"><ele>142.28571428571428</ele><time>2026-04-11T15:32:41.999Z</time></trkpt><trkpt lat="43.12113217185559" lon="11.483315697537574"><ele>142.42857142857142</ele><time>2026-04-11T15:32:42.999Z</time></trkpt><trkpt lat="43.12119862608088" lon="11.483308190612624"><ele>142.57142857142856</ele><time>2026-04-11T15:32:43.999Z</time></trkpt><trkpt lat="43.12126490645839" lon="11.483301503632795"><ele>142.71428571428572</ele><time>2026-04-11T15:32:44.999Z</time></trkpt><trkpt lat="43.12133192154302" lon="11.483296750141088"><ele>142.85714285714283</ele><time>2026-04-11T15:32:45.999Z</time></trkpt><trkpt lat="43.12139933379982" lon="11.483289664057796"><ele>143.0</ele><time>2026-04-11T15:32:46.999Z</time></trkpt><trkpt lat="43.12146716432" lon="11.483284497024746"><ele>142.99999999999997</ele><time>2026-04-11T15:32:47.999Z</time></trkpt><trkpt lat="43.12153586698447" lon="11.48327934213321"><ele>143.0</ele><time>2026-04-11T15:32:48.999Z</time></trkpt><trkpt lat="43.121603395058585" lon="11.483273383663212"><ele>143.0</ele><time>2026-04-11T15:32:49.999Z</time></trkpt><trkpt lat="43.12167186279333" lon="11.483265929846485"><ele>143.0</ele><time>2026-04-11T15:32:50.999Z</time></trkpt><trkpt lat="43.1217393275828" lon="11.483255005418432"><ele>143.0</ele><time>2026-04-11T15:32:51.999Z</time></trkpt><trkpt lat="43.12180608490583" lon="11.483241738931524"><ele>142.99999999999997</ele><time>2026-04-11T15:32:52.999Z</time></trkpt><trkpt lat="43.121873983815355" lon="11.483234705986943"><ele>143.0</ele><time>2026-04-11T15:32:53.999Z</time></trkpt><trkpt lat="43.12194320689163" lon="11.483234075887875"><ele>143.14285714285714</ele><time>2026-04-11T15:32:54.999Z</time></trkpt><trkpt lat="43.122011057452745" lon="11.4832308843441"><ele>143.28571428571428</ele><time>2026-04-11T15:32:55.999Z</time></trkpt><trkpt lat="43.12207756417572" lon="11.483221153907047"><ele>143.42857142857144</ele><time>2026-04-11T15:32:56.999Z</time></trkpt><trkpt lat="43.12214403082377" lon="11.483206680711547"><ele>143.57142857142856</ele><time>2026-04-11T15:32:57.999Z</time></trkpt><trkpt lat="43.122211023581016" lon="11.483198778572435"><ele>143.71428571428572</ele><time>2026-04-11T15:32:58.999Z</time></trkpt><trkpt lat="43.12227745418237" lon="11.483201587771532"><ele>143.85714285714286</ele><time>2026-04-11T15:32:59.999Z</time></trkpt><trkpt lat="43.122345359140745" lon="11.483205543230477"><ele>144.0</ele><time>2026-04-11T15:33:00.999Z</time></trkpt><trkpt lat="43.122413120832455" lon="11.483201312621567"><ele>144.42857142857144</ele><time>2026-04-11T15:33:01.998Z</time></trkpt><trkpt lat="43.12248247108428" lon="11.483194741473811"><ele>144.85714285714286</ele><time>2026-04-11T15:33:02.998Z</time></trkpt><trkpt lat="43.12254985349917" lon="11.483185532270944"><ele>145.28571428571428</ele><time>2026-04-11T15:33:03.998Z</time></trkpt><trkpt lat="43.12261857489435" lon="11.483176929993439"><ele>145.71428571428572</ele><time>2026-04-11T15:33:04.998Z</time></trkpt><trkpt lat="43.12268981435078" lon="11.483173042679029"><ele>146.14285714285714</ele><time>2026-04-11T15:33:05.998Z</time></trkpt><trkpt lat="43.12276312195351" lon="11.483167349825797"><ele>146.57142857142858</ele><time>2026-04-11T15:33:06.998Z</time></trkpt><trkpt lat="43.12283596045858" lon="11.483157313971004"><ele>147.0</ele><time>2026-04-11T15:33:07.998Z</time></trkpt><trkpt lat="43.12290993988785" lon="11.483147485838932"><ele>147.0</ele><time>2026-04-11T15:33:08.998Z</time></trkpt><trkpt lat="43.12298369530724" lon="11.48313743735256"><ele>147.0</ele><time>2026-04-11T15:33:09.998Z</time></trkpt><trkpt lat="43.12305867864511" lon="11.483132829776526"><ele>147.0</ele><time>2026-04-11T15:33:10.998Z</time></trkpt><trkpt lat="43.12313396312927" lon="11.483131254634817"><ele>147.0</ele><time>2026-04-11T15:33:11.998Z</time></trkpt><trkpt lat="43.12320740854913" lon="11.48312700559906"><ele>147.0</ele><time>2026-04-11T15:33:12.998Z</time></trkpt><trkpt lat="43.12328071062667" lon="11.483115556874164"><ele>147.0</ele><time>2026-04-11T15:33:13.998Z</time></trkpt><trkpt lat="43.123353208341015" lon="11.48310691388532"><ele>147.0</ele><time>2026-04-11T15:33:14.998Z</time></trkpt><trkpt lat="43.12342780693246" lon="11.48310280676717"><ele>146.66666666666666</ele><time>2026-04-11T15:33:15.998Z</time></trkpt><trkpt lat="43.123503503078986" lon="11.483100355189809"><ele>146.33333333333334</ele><time>2026-04-11T15:33:16.998Z</time></trkpt><trkpt lat="43.12357816156015" lon="11.483092927094784"><ele>146.0</ele><time>2026-04-11T15:33:17.998Z</time></trkpt><trkpt lat="43.12365361416261" lon="11.483085110778477"><ele>145.66666666666669</ele><time>2026-04-11T15:33:18.998Z</time></trkpt><trkpt lat="43.1237297985658" lon="11.483078713655615"><ele>145.33333333333334</ele><time>2026-04-11T15:33:19.998Z</time></trkpt><trkpt lat="43.123805115774125" lon="11.483073480002972"><ele>145.0</ele><time>2026-04-11T15:33:20.998Z</time></trkpt><trkpt lat="43.123881147086855" lon="11.483066239459522"><ele>145.0</ele><time>2026-04-11T15:33:21.998Z</time></trkpt><trkpt lat="43.123956943332" lon="11.483059160569404"><ele>145.0</ele><time>2026-04-11T15:33:22.998Z</time></trkpt><trkpt lat="43.12403395497275" lon="11.483052441597158"><ele>145.0</ele><time>2026-04-11T15:33:24Z</time></trkpt><trkpt lat="43.12411012648006" lon="11.483046573114422"><ele>145.0</ele><time>2026-04-11T15:33:25Z</time></trkpt><trkpt lat="43.12418596791741" lon="11.483040842501298"><ele>145.0</ele><time>2026-04-11T15:33:26Z</time></trkpt><trkpt lat="43.124262692757085" lon="11.483034204658905"><ele>145.0</ele><time>2026-04-11T15:33:27Z</time></trkpt><trkpt lat="43.124338478491474" lon="11.483028061790272"><ele>144.66666666666669</ele><time>2026-04-11T15:33:28Z</time></trkpt><trkpt lat="43.124414778755494" lon="11.483019970969567"><ele>144.33333333333334</ele><time>2026-04-11T15:33:29Z</time></trkpt><trkpt lat="43.12449164935271" lon="11.48301062406916"><ele>144.0</ele><time>2026-04-11T15:33:30Z</time></trkpt><trkpt lat="43.124569391459254" lon="11.483003265515297"><ele>143.66666666666666</ele><time>2026-04-11T15:33:31Z</time></trkpt><trkpt lat="43.124648965790136" lon="11.482997733756944"><ele>143.33333333333331</ele><time>2026-04-11T15:33:32Z</time></trkpt><trkpt lat="43.12472614048852" lon="11.482991195853458"><ele>143.0</ele><time>2026-04-11T15:33:33Z</time></trkpt><trkpt lat="43.12480471468386" lon="11.482983915355907"><ele>143.0</ele><time>2026-04-11T15:33:34Z</time></trkpt><trkpt lat="43.12488269719428" lon="11.48297830804715"><ele>143.0</ele><time>2026-04-11T15:33:35Z</time></trkpt><trkpt lat="43.12496124664234" lon="11.482969887230942"><ele>143.0</ele><time>2026-04-11T15:33:36Z</time></trkpt><trkpt lat="43.125039412898374" lon="11.482964648633772"><ele>143.0</ele><time>2026-04-11T15:33:37Z</time></trkpt><trkpt lat="43.12511940863248" lon="11.482955527206865"><ele>143.0</ele><time>2026-04-11T15:33:38Z</time></trkpt><trkpt lat="43.12519598003163" lon="11.482950870620153"><ele>143.0</ele><time>2026-04-11T15:33:39Z</time></trkpt><trkpt lat="43.12527307605775" lon="11.482940553116125"><ele>143.0</ele><time>2026-04-11T15:33:40Z</time></trkpt><trkpt lat="43.12535220164335" lon="11.482931141086846"><ele>143.0</ele><time>2026-04-11T15:33:41Z</time></trkpt><trkpt lat="43.12542985428862" lon="11.482927444216557"><ele>143.0</ele><time>2026-04-11T15:33:42Z</time></trkpt><trkpt lat="43.12550946376323" lon="11.482923574570005"><ele>143.0</ele><time>2026-04-11T15:33:43Z</time></trkpt><trkpt lat="43.12558844220809" lon="11.482920680582346"><ele>143.0</ele><time>2026-04-11T15:33:44Z</time></trkpt><trkpt lat="43.12566767757069" lon="11.48291631660725"><ele>143.0</ele><time>2026-04-11T15:33:45Z</time></trkpt><trkpt lat="43.12574498534014" lon="11.482905932311322"><ele>142.83333333333331</ele><time>2026-04-11T15:33:46Z</time></trkpt><trkpt lat="43.12582237750504" lon="11.48289269454035"><ele>142.66666666666666</ele><time>2026-04-11T15:33:47Z</time></trkpt><trkpt lat="43.125900183082216" lon="11.482884782636978"><ele>142.5</ele><time>2026-04-11T15:33:48Z</time></trkpt><trkpt lat="43.12597824424109" lon="11.482879970687435"><ele>142.33333333333334</ele><time>2026-04-11T15:33:49Z</time></trkpt><trkpt lat="43.1260582261326" lon="11.482875893023616"><ele>142.16666666666669</ele><time>2026-04-11T15:33:50Z</time></trkpt><trkpt lat="43.12613793212789" lon="11.482868963261788"><ele>142.0</ele><time>2026-04-11T15:33:51Z</time></trkpt><trkpt lat="43.1262176600232" lon="11.482861538246153"><ele>142.0</ele><time>2026-04-11T15:33:52Z</time></trkpt><trkpt lat="43.12629812956912" lon="11.482854379331256"><ele>142.0</ele><time>2026-04-11T15:33:53Z</time></trkpt><trkpt lat="43.12637996944555" lon="11.482847023843693"><ele>142.0</ele><time>2026-04-11T15:33:54Z</time></trkpt><trkpt lat="43.12646081497299" lon="11.482839920529507"><ele>142.0</ele><time>2026-04-11T15:33:55Z</time></trkpt><trkpt lat="43.12654229901734" lon="11.48283304330107"><ele>142.0</ele><time>2026-04-11T15:33:56Z</time></trkpt><trkpt lat="43.126623581020056" lon="11.482824391743689"><ele>142.0</ele><time>2026-04-11T15:33:57Z</time></trkpt><trkpt lat="43.12670536611771" lon="11.482818005054025"><ele>142.33333333333334</ele><time>2026-04-11T15:33:58Z</time></trkpt><trkpt lat="43.126787149197156" lon="11.482811530338731"><ele>142.66666666666669</ele><time>2026-04-11T15:33:59Z</time></trkpt><trkpt lat="43.126869659698194" lon="11.48280397409053"><ele>143.0</ele><time>2026-04-11T15:34:00Z</time></trkpt><trkpt lat="43.126952068757646" lon="11.482798632786611"><ele>143.33333333333334</ele><time>2026-04-11T15:34:01Z</time></trkpt><trkpt lat="43.12703274483185" lon="11.48278930622042"><ele>143.66666666666666</ele><time>2026-04-11T15:34:02Z</time></trkpt><trkpt lat="43.12711555934932" lon="11.482782910781285"><ele>144.0</ele><time>2026-04-11T15:34:03Z</time></trkpt><trkpt lat="43.127196062456" lon="11.482774237355809"><ele>144.0</ele><time>2026-04-11T15:34:04Z</time></trkpt><trkpt lat="43.12727564022125" lon="11.48276762930699"><ele>144.0</ele><time>2026-04-11T15:34:05Z</time></trkpt><trkpt lat="43.12735387549697" lon="11.482759195159469"><ele>144.0</ele><time>2026-04-11T15:34:06Z</time></trkpt><trkpt lat="43.12743058049551" lon="11.482751570978142"><ele>144.0</ele><time>2026-04-11T15:34:07Z</time></trkpt><trkpt lat="43.12750600627355" lon="11.482746669218187"><ele>144.0</ele><time>2026-04-11T15:34:08Z</time></trkpt><trkpt lat="43.12757896428073" lon="11.482740412912838"><ele>144.0</ele><time>2026-04-11T15:34:09Z</time></trkpt><trkpt lat="43.12765107447118" lon="11.482732783240607"><ele>144.14285714285717</ele><time>2026-04-11T15:34:10Z</time></trkpt><trkpt lat="43.12772057833153" lon="11.482723470823892"><ele>144.28571428571428</ele><time>2026-04-11T15:34:11Z</time></trkpt><trkpt lat="43.12779110022085" lon="11.48271467603191"><ele>144.42857142857144</ele><time>2026-04-11T15:34:12Z</time></trkpt><trkpt lat="43.12786249400229" lon="11.482709816114147"><ele>144.57142857142858</ele><time>2026-04-11T15:34:13Z</time></trkpt><trkpt lat="43.12793443426318" lon="11.482703542174413"><ele>144.71428571428572</ele><time>2026-04-11T15:34:14Z</time></trkpt><trkpt lat="43.12800550962376" lon="11.482696737447675"><ele>144.85714285714286</ele><time>2026-04-11T15:34:15Z</time></trkpt><trkpt lat="43.128075923032085" lon="11.482688773272109"><ele>145.0</ele><time>2026-04-11T15:34:16Z</time></trkpt><trkpt lat="43.12814718809969" lon="11.482681620002037"><ele>145.0</ele><time>2026-04-11T15:34:17Z</time></trkpt><trkpt lat="43.12821848759628" lon="11.482672351292983"><ele>145.0</ele><time>2026-04-11T15:34:18Z</time></trkpt><trkpt lat="43.12829111485486" lon="11.482664682897376"><ele>145.0</ele><time>2026-04-11T15:34:19Z</time></trkpt><trkpt lat="43.128362519233825" lon="11.482657880656005"><ele>145.0</ele><time>2026-04-11T15:34:20Z</time></trkpt><trkpt lat="43.12843511968989" lon="11.482653676414634"><ele>145.0</ele><time>2026-04-11T15:34:20.999Z</time></trkpt><trkpt lat="43.12850725241691" lon="11.482649186385908"><ele>145.0</ele><time>2026-04-11T15:34:21.999Z</time></trkpt><trkpt lat="43.128581133891686" lon="11.48264361009554"><ele>145.0</ele><time>2026-04-11T15:34:22.999Z</time></trkpt><trkpt lat="43.12865431859059" lon="11.482636012336949"><ele>145.0</ele><time>2026-04-11T15:34:23.999Z</time></trkpt><trkpt lat="43.128727415978226" lon="11.482626937658994"><ele>145.0</ele><time>2026-04-11T15:34:24.999Z</time></trkpt><trkpt lat="43.128800638560804" lon="11.48262066003274"><ele>145.0</ele><time>2026-04-11T15:34:25.999Z</time></trkpt><trkpt lat="43.12887263967346" lon="11.482615374369233"><ele>145.0</ele><time>2026-04-11T15:34:26.999Z</time></trkpt><trkpt lat="43.128944428083706" lon="11.482611535583962"><ele>145.0</ele><time>2026-04-11T15:34:27.999Z</time></trkpt><trkpt lat="43.12901656690144" lon="11.48260613697262"><ele>145.0</ele><time>2026-04-11T15:34:28.999Z</time></trkpt><trkpt lat="43.12908989178957" lon="11.482602379179967"><ele>145.0</ele><time>2026-04-11T15:34:29.999Z</time></trkpt><trkpt lat="43.129163223072645" lon="11.482597427816511"><ele>144.83333333333334</ele><time>2026-04-11T15:34:30.999Z</time></trkpt><trkpt lat="43.129237667116044" lon="11.482588146779616"><ele>144.66666666666669</ele><time>2026-04-11T15:34:31.999Z</time></trkpt><trkpt lat="43.12931415422094" lon="11.482579896658768"><ele>144.5</ele><time>2026-04-11T15:34:32.999Z</time></trkpt><trkpt lat="43.129390967597146" lon="11.482573246904707"><ele>144.33333333333334</ele><time>2026-04-11T15:34:33.999Z</time></trkpt><trkpt lat="43.12946896428333" lon="11.482567882310112"><ele>144.16666666666666</ele><time>2026-04-11T15:34:34.999Z</time></trkpt><trkpt lat="43.129547295310324" lon="11.482561904123093"><ele>144.0</ele><time>2026-04-11T15:34:35.999Z</time></trkpt><trkpt lat="43.12962358385864" lon="11.482556338832236"><ele>144.00000000000003</ele><time>2026-04-11T15:34:36.999Z</time></trkpt><trkpt lat="43.12970099701818" lon="11.482550031809183"><ele>144.0</ele><time>2026-04-11T15:34:37.999Z</time></trkpt><trkpt lat="43.12977351070914" lon="11.482541956901303"><ele>144.0</ele><time>2026-04-11T15:34:38.999Z</time></trkpt><trkpt lat="43.1298464351026" lon="11.482534015524116"><ele>144.0</ele><time>2026-04-11T15:34:39.999Z</time></trkpt><trkpt lat="43.12991621961101" lon="11.482526894503447"><ele>144.0</ele><time>2026-04-11T15:34:40.999Z</time></trkpt><trkpt lat="43.12998734251096" lon="11.482521570951896"><ele>144.00000000000003</ele><time>2026-04-11T15:34:41.999Z</time></trkpt><trkpt lat="43.130062409008204" lon="11.482519485557471"><ele>144.0</ele><time>2026-04-11T15:34:42.999Z</time></trkpt><trkpt lat="43.130134880079844" lon="11.482512023079446"><ele>143.66666666666666</ele><time>2026-04-11T15:34:43.999Z</time></trkpt><trkpt lat="43.13021043575849" lon="11.482510882397644"><ele>143.33333333333334</ele><time>2026-04-11T15:34:44.999Z</time></trkpt><trkpt lat="43.130285766629534" lon="11.482508090355656"><ele>143.0</ele><time>2026-04-11T15:34:45.999Z</time></trkpt><trkpt lat="43.130362001225436" lon="11.482500652294965"><ele>142.66666666666669</ele><time>2026-04-11T15:34:46.999Z</time></trkpt><trkpt lat="43.13043713057864" lon="11.482493555911212"><ele>142.33333333333334</ele><time>2026-04-11T15:34:47.999Z</time></trkpt><trkpt lat="43.13051458065111" lon="11.482489674488155"><ele>142.0</ele><time>2026-04-11T15:34:48.999Z</time></trkpt><trkpt lat="43.130590729905094" lon="11.482482503284322"><ele>142.0</ele><time>2026-04-11T15:34:49.999Z</time></trkpt><trkpt lat="43.130668540365924" lon="11.482475815680411"><ele>142.0</ele><time>2026-04-11T15:34:50.999Z</time></trkpt><trkpt lat="43.13074690463622" lon="11.482473082568907"><ele>142.0</ele><time>2026-04-11T15:34:51.999Z</time></trkpt><trkpt lat="43.13082653945124" lon="11.48247021428681"><ele>142.0</ele><time>2026-04-11T15:34:52.999Z</time></trkpt><trkpt lat="43.13090329081203" lon="11.482461149053945"><ele>142.0</ele><time>2026-04-11T15:34:53.999Z</time></trkpt><trkpt lat="43.130980905005785" lon="11.482451554620278"><ele>142.0</ele><time>2026-04-11T15:34:54.999Z</time></trkpt><trkpt lat="43.131058218437204" lon="11.4824435679255"><ele>141.83333333333334</ele><time>2026-04-11T15:34:55.999Z</time></trkpt><trkpt lat="43.1311358907895" lon="11.482436570209682"><ele>141.66666666666669</ele><time>2026-04-11T15:34:56.999Z</time></trkpt><trkpt lat="43.1312136762551" lon="11.482427409676818"><ele>141.5</ele><time>2026-04-11T15:34:57.999Z</time></trkpt><trkpt lat="43.13129035157345" lon="11.482419357953354"><ele>141.33333333333334</ele><time>2026-04-11T15:34:58.999Z</time></trkpt><trkpt lat="43.13136753934411" lon="11.482410769025226"><ele>141.16666666666666</ele><time>2026-04-11T15:34:59.999Z</time></trkpt><trkpt lat="43.13144577735107" lon="11.482402565788435"><ele>141.0</ele><time>2026-04-11T15:35:00.999Z</time></trkpt><trkpt lat="43.1315231851977" lon="11.482395242316112"><ele>141.5</ele><time>2026-04-11T15:35:01.999Z</time></trkpt><trkpt lat="43.13159924804039" lon="11.482386295510253"><ele>142.0</ele><time>2026-04-11T15:35:02.999Z</time></trkpt><trkpt lat="43.13167690035921" lon="11.482382458694584"><ele>142.5</ele><time>2026-04-11T15:35:03.999Z</time></trkpt><trkpt lat="43.131751110004224" lon="11.482379577010446"><ele>143.0</ele><time>2026-04-11T15:35:04.999Z</time></trkpt><trkpt lat="43.13182911480263" lon="11.482383847161831"><ele>143.5</ele><time>2026-04-11T15:35:05.999Z</time></trkpt><trkpt lat="43.13190720302083" lon="11.48239158668118"><ele>144.0</ele><time>2026-04-11T15:35:06.999Z</time></trkpt><trkpt lat="43.131986186578416" lon="11.48240654090058"><ele>144.0</ele><time>2026-04-11T15:35:07.999Z</time></trkpt><trkpt lat="43.132066000940654" lon="11.48242620661332"><ele>144.0</ele><time>2026-04-11T15:35:08.999Z</time></trkpt><trkpt lat="43.1321450383574" lon="11.482452202003392"><ele>144.0</ele><time>2026-04-11T15:35:09.998Z</time></trkpt><trkpt lat="43.13222405723402" lon="11.482482560161353"><ele>144.0</ele><time>2026-04-11T15:35:10.998Z</time></trkpt><trkpt lat="43.13230107217419" lon="11.482511011651033"><ele>144.0</ele><time>2026-04-11T15:35:11.998Z</time></trkpt><trkpt lat="43.13237901401114" lon="11.482537922242473"><ele>144.0</ele><time>2026-04-11T15:35:12.998Z</time></trkpt><trkpt lat="43.13245469239966" lon="11.482567498014054"><ele>143.83333333333334</ele><time>2026-04-11T15:35:13.998Z</time></trkpt><trkpt lat="43.132529455190266" lon="11.48259555671057"><ele>143.66666666666666</ele><time>2026-04-11T15:35:14.998Z</time></trkpt><trkpt lat="43.132602600040364" lon="11.482627491812694"><ele>143.5</ele><time>2026-04-11T15:35:15.998Z</time></trkpt><trkpt lat="43.132674598295424" lon="11.48265369275341"><ele>143.33333333333331</ele><time>2026-04-11T15:35:16.998Z</time></trkpt><trkpt lat="43.132747745648494" lon="11.48268075848323"><ele>143.16666666666666</ele><time>2026-04-11T15:35:17.998Z</time></trkpt><trkpt lat="43.13282054554148" lon="11.482708368976114"><ele>143.0</ele><time>2026-04-11T15:35:18.998Z</time></trkpt><trkpt lat="43.13289348795558" lon="11.482736626721328"><ele>143.0</ele><time>2026-04-11T15:35:19.998Z</time></trkpt><trkpt lat="43.1329661329235" lon="11.482763649702648"><ele>143.0</ele><time>2026-04-11T15:35:20.998Z</time></trkpt><trkpt lat="43.13303943709948" lon="11.482793715003258"><ele>143.0</ele><time>2026-04-11T15:35:21.998Z</time></trkpt><trkpt lat="43.13311248192898" lon="11.48282293080015"><ele>143.0</ele><time>2026-04-11T15:35:22.998Z</time></trkpt><trkpt lat="43.133186624592014" lon="11.482851667913462"><ele>143.0</ele><time>2026-04-11T15:35:23.998Z</time></trkpt><trkpt lat="43.13325834719461" lon="11.482881985743798"><ele>143.0</ele><time>2026-04-11T15:35:24.998Z</time></trkpt><trkpt lat="43.13333086130698" lon="11.482908820419121"><ele>143.28571428571428</ele><time>2026-04-11T15:35:25.998Z</time></trkpt><trkpt lat="43.13340373492522" lon="11.482934800008126"><ele>143.57142857142856</ele><time>2026-04-11T15:35:26.998Z</time></trkpt><trkpt lat="43.13347647017493" lon="11.482961397631408"><ele>143.85714285714286</ele><time>2026-04-11T15:35:27.998Z</time></trkpt><trkpt lat="43.13354830530246" lon="11.482986167132275"><ele>144.14285714285714</ele><time>2026-04-11T15:35:29Z</time></trkpt><trkpt lat="43.13361862280742" lon="11.48301013377345"><ele>144.42857142857144</ele><time>2026-04-11T15:35:30Z</time></trkpt><trkpt lat="43.13369126177768" lon="11.48303039738305"><ele>144.71428571428572</ele><time>2026-04-11T15:35:31Z</time></trkpt><trkpt lat="43.13376327088333" lon="11.483049545870841"><ele>145.0</ele><time>2026-04-11T15:35:32Z</time></trkpt><trkpt lat="43.133834223943325" lon="11.483064704915343"><ele>145.0</ele><time>2026-04-11T15:35:33Z</time></trkpt><trkpt lat="43.13390565604224" lon="11.4830795253392"><ele>145.0</ele><time>2026-04-11T15:35:34Z</time></trkpt><trkpt lat="43.133978799840065" lon="11.483091606157934"><ele>145.0</ele><time>2026-04-11T15:35:35Z</time></trkpt><trkpt lat="43.134051835207934" lon="11.48310508056142"><ele>145.0</ele><time>2026-04-11T15:35:36Z</time></trkpt><trkpt lat="43.13412458963004" lon="11.483120288333575"><ele>145.0</ele><time>2026-04-11T15:35:37Z</time></trkpt><trkpt lat="43.13419702786987" lon="11.483138762763117"><ele>145.0</ele><time>2026-04-11T15:35:38Z</time></trkpt><trkpt lat="43.13426926496779" lon="11.48315190745095"><ele>145.0</ele><time>2026-04-11T15:35:39Z</time></trkpt><trkpt lat="43.1343431580577" lon="11.483164962713406"><ele>145.0</ele><time>2026-04-11T15:35:40Z</time></trkpt><trkpt lat="43.13441394381156" lon="11.483179285982231"><ele>145.0</ele><time>2026-04-11T15:35:41Z</time></trkpt><trkpt lat="43.134484392478726" lon="11.483193613263845"><ele>145.0</ele><time>2026-04-11T15:35:42Z</time></trkpt><trkpt lat="43.13455525348164" lon="11.483207625397077"><ele>145.0</ele><time>2026-04-11T15:35:43Z</time></trkpt><trkpt lat="43.1346278921579" lon="11.483221051858873"><ele>145.0</ele><time>2026-04-11T15:35:44Z</time></trkpt><trkpt lat="43.1346987078688" lon="11.483231998583442"><ele>145.0</ele><time>2026-04-11T15:35:45Z</time></trkpt><trkpt lat="43.13476754496061" lon="11.48324216195729"><ele>145.0</ele><time>2026-04-11T15:35:46Z</time></trkpt><trkpt lat="43.13483303563394" lon="11.483252030316269"><ele>145.16666666666669</ele><time>2026-04-11T15:35:47Z</time></trkpt><trkpt lat="43.134899162898826" lon="11.483268817732519"><ele>145.33333333333334</ele><time>2026-04-11T15:35:48Z</time></trkpt><trkpt lat="43.13496366603821" lon="11.483281425390029"><ele>145.5</ele><time>2026-04-11T15:35:49Z</time></trkpt><trkpt lat="43.135027204968914" lon="11.483289897646145"><ele>145.66666666666666</ele><time>2026-04-11T15:35:50Z</time></trkpt><trkpt lat="43.135151521902515" lon="11.48330707343703"><ele>145.83333333333331</ele><time>2026-04-11T15:35:52Z</time></trkpt><trkpt lat="43.13526931975768" lon="11.483327759294449"><ele>146.0</ele><time>2026-04-11T15:35:54Z</time></trkpt><trkpt lat="43.13538782402788" lon="11.483349215810867"><ele>146.0</ele><time>2026-04-11T15:35:56Z</time></trkpt><trkpt lat="43.13550910563669" lon="11.483378270938026"><ele>146.0</ele><time>2026-04-11T15:35:58Z</time></trkpt><trkpt lat="43.13562646823254" lon="11.483392696739"><ele>146.0</ele><time>2026-04-11T15:36:00Z</time></trkpt><trkpt lat="43.13574756993538" lon="11.483408115780167"><ele>146.0</ele><time>2026-04-11T15:36:02Z</time></trkpt><trkpt lat="43.13587325214564" lon="11.483417354366887"><ele>146.0</ele><time>2026-04-11T15:36:04Z</time></trkpt><trkpt lat="43.13593709447589" lon="11.483419446559301"><ele>146.0</ele><time>2026-04-11T15:36:05Z</time></trkpt><trkpt lat="43.13606473597737" lon="11.483411342524587"><ele>146.0</ele><time>2026-04-11T15:36:07Z</time></trkpt><trkpt lat="43.13613177279836" lon="11.483411334531555"><ele>146.0</ele><time>2026-04-11T15:36:08Z</time></trkpt><trkpt lat="43.136198466168516" lon="11.483406946318123"><ele>146.0</ele><time>2026-04-11T15:36:09Z</time></trkpt><trkpt lat="43.136265821232946" lon="11.483402727292741"><ele>146.0</ele><time>2026-04-11T15:36:10Z</time></trkpt><trkpt lat="43.13633355879111" lon="11.483400639626572"><ele>146.0</ele><time>2026-04-11T15:36:11Z</time></trkpt><trkpt lat="43.13640004272896" lon="11.483398298590384"><ele>146.0</ele><time>2026-04-11T15:36:12Z</time></trkpt><trkpt lat="43.13646711125802" lon="11.483395903532418"><ele>146.0</ele><time>2026-04-11T15:36:13Z</time></trkpt><trkpt lat="43.136531142121726" lon="11.483393308932627"><ele>146.0</ele><time>2026-04-11T15:36:14Z</time></trkpt><trkpt lat="43.13659440584736" lon="11.483388927007258"><ele>146.0</ele><time>2026-04-11T15:36:15Z</time></trkpt><trkpt lat="43.13671397447086" lon="11.483385161386396"><ele>146.0</ele><time>2026-04-11T15:36:17Z</time></trkpt><trkpt lat="43.1368328361058" lon="11.483375885297926"><ele>146.0</ele><time>2026-04-11T15:36:19Z</time></trkpt><trkpt lat="43.13694964777852" lon="11.483381310744447"><ele>146.0</ele><time>2026-04-11T15:36:21Z</time></trkpt><trkpt lat="43.13706296225151" lon="11.483385822577015"><ele>146.0</ele><time>2026-04-11T15:36:23Z</time></trkpt><trkpt lat="43.13718667825763" lon="11.483381673839595"><ele>146.0</ele><time>2026-04-11T15:36:25Z</time></trkpt><trkpt lat="43.137305567380196" lon="11.483370814383466"><ele>146.2</ele><time>2026-04-11T15:36:26.999Z</time></trkpt><trkpt lat="43.1374246967208" lon="11.483368896031623"><ele>146.39999999999998</ele><time>2026-04-11T15:36:28.999Z</time></trkpt><trkpt lat="43.13753780855723" lon="11.483358200848949"><ele>146.6</ele><time>2026-04-11T15:36:30.999Z</time></trkpt><trkpt lat="43.13763622421572" lon="11.483351806780176"><ele>146.79999999999998</ele><time>2026-04-11T15:36:32.999Z</time></trkpt><trkpt lat="43.13767870983348" lon="11.483480097628371"><ele>147.0</ele><time>2026-04-11T15:36:34.999Z</time></trkpt><trkpt lat="43.137659209991206" lon="11.48360905922616"><ele>147.0</ele><time>2026-04-11T15:36:36.999Z</time></trkpt><trkpt lat="43.13766683038234" lon="11.483732982721905"><ele>147.0</ele><time>2026-04-11T15:36:38.999Z</time></trkpt><trkpt lat="43.13767534492955" lon="11.483861270783974"><ele>147.0</ele><time>2026-04-11T15:36:40.999Z</time></trkpt><trkpt lat="43.13767533813026" lon="11.483990733318992"><ele>147.0</ele><time>2026-04-11T15:36:42.999Z</time></trkpt><trkpt lat="43.13767206194601" lon="11.484101693612887"><ele>147.0</ele><time>2026-04-11T15:36:44.999Z</time></trkpt><trkpt lat="43.137688195493624" lon="11.484202089807944"><ele>147.0</ele><time>2026-04-11T15:36:46.999Z</time></trkpt><trkpt lat="43.13769832906009" lon="11.48429730963395"><ele>147.0</ele><time>2026-04-11T15:36:48.999Z</time></trkpt><trkpt lat="43.13769382573518" lon="11.484411300431946"><ele>147.0</ele><time>2026-04-11T15:36:50.999Z</time></trkpt><trkpt lat="43.13769857378832" lon="11.484519793009095"><ele>147.0</ele><time>2026-04-11T15:36:52.999Z</time></trkpt><trkpt lat="43.13769826294064" lon="11.484629246687742"><ele>147.0</ele><time>2026-04-11T15:36:54.999Z</time></trkpt><trkpt lat="43.13769539189067" lon="11.484735627215299"><ele>147.0</ele><time>2026-04-11T15:36:56.999Z</time></trkpt><trkpt lat="43.137693571144446" lon="11.484845531390851"><ele>147.0</ele><time>2026-04-11T15:36:58.999Z</time></trkpt><trkpt lat="43.137681141518726" lon="11.484953752612466"><ele>147.16666666666666</ele><time>2026-04-11T15:37:00.999Z</time></trkpt><trkpt lat="43.137685667879275" lon="11.485066313470202"><ele>147.33333333333334</ele><time>2026-04-11T15:37:02.999Z</time></trkpt><trkpt lat="43.137690706026845" lon="11.485178506731934"><ele>147.5</ele><time>2026-04-11T15:37:04.999Z</time></trkpt><trkpt lat="43.137690189309794" lon="11.485291918403957"><ele>147.66666666666669</ele><time>2026-04-11T15:37:06.999Z</time></trkpt><trkpt lat="43.13767966541861" lon="11.48540461674966"><ele>147.83333333333334</ele><time>2026-04-11T15:37:08.999Z</time></trkpt><trkpt lat="43.13767363983464" lon="11.485517471807734"><ele>148.0</ele><time>2026-04-11T15:37:10.999Z</time></trkpt><trkpt lat="43.13767547457681" lon="11.48562968363387"><ele>148.0</ele><time>2026-04-11T15:37:12.999Z</time></trkpt><trkpt lat="43.13767246065698" lon="11.485740721704776"><ele>148.0</ele><time>2026-04-11T15:37:14.999Z</time></trkpt><trkpt lat="43.137609477924514" lon="11.485809286386893"><ele>148.0</ele><time>2026-04-11T15:37:16.998Z</time></trkpt><trkpt lat="43.13751983357066" lon="11.48581771842361"><ele>148.0</ele><time>2026-04-11T15:37:18.998Z</time></trkpt><trkpt lat="43.1374291618286" lon="11.485821729628968"><ele>148.0</ele><time>2026-04-11T15:37:20.998Z</time></trkpt><trkpt lat="43.1373433846118" lon="11.485817723256565"><ele>148.0</ele><time>2026-04-11T15:37:22.998Z</time></trkpt><trkpt lat="43.13725783074157" lon="11.485817402194511"><ele>146.0</ele><time>2026-04-11T15:37:24.998Z</time></trkpt><trkpt lat="43.13717534915056" lon="11.485831348622359"><ele>146.0</ele><time>2026-04-11T15:37:26.998Z</time></trkpt><trkpt lat="43.1371016398102" lon="11.485862160291743"><ele>146.0</ele><time>2026-04-11T15:37:28.998Z</time></trkpt><trkpt lat="43.13703957021916" lon="11.48588730444788"><ele>146.0</ele><time>2026-04-11T15:37:30.998Z</time></trkpt><trkpt lat="43.13697228068939" lon="11.485894714985324"><ele>146.0</ele><time>2026-04-11T15:37:35Z</time></trkpt></trkseg></trk></gpx>